<?xml version='1.0' encoding='UTF-8'?><gpx version="1.1" creator="JPX - https://github.com/jenetics/jpx" xmlns="http://www.topografix.com/GPX/1/1"><trk><trkseg><trkpt lat="42.3537987" lon="13.4023899"><ele>735.0</ele><time>2026-05-03T07:07:39.802Z</time></trkpt><trkpt lat="42.353868" lon="13.4024173"><ele>735.0</ele><time>2026-05-03T07:07:58.454Z</time></trkpt><trkpt lat="42.3537918" lon="13.4024902"><ele>735.0</ele><time>2026-05-03T07:08:13.447Z</time></trkpt><trkpt lat="42.3537575" lon="13.4023942"><ele>735.0</ele><time>2026-05-03T07:08:19.461Z</time></trkpt><trkpt lat="42.3537548" lon="13.4023053"><ele>735.0</ele><time>2026-05-03T07:08:36.455Z</time></trkpt><trkpt lat="42.3537445" lon="13.402216"><ele>735.0</ele><time>2026-05-03T07:09:25.455Z</time></trkpt><trkpt lat="42.3537468" lon="13.4020954"><ele>734.8</ele><time>2026-05-03T07:09:55.459Z</time></trkpt><trkpt lat="42.3537472" lon="13.401963"><ele>734.6</ele><time>2026-05-03T07:09:57.445Z</time></trkpt><trkpt lat="42.3537759" lon="13.4018316"><ele>734.4000000000001</ele><time>2026-05-03T07:09:59.468Z</time></trkpt><trkpt lat="42.3538574" lon="13.401725"><ele>734.2</ele><time>2026-05-03T07:10:01.451Z</time></trkpt><trkpt lat="42.3539803" lon="13.4017019"><ele>734.0</ele><time>2026-05-03T07:10:03.461Z</time></trkpt><trkpt lat="42.3540483" lon="13.4017293"><ele>732.8000000000001</ele><time>2026-05-03T07:10:04.439Z</time></trkpt><trkpt lat="42.3541089" lon="13.4017891"><ele>731.6</ele><time>2026-05-03T07:10:05.444Z</time></trkpt><trkpt lat="42.35417" lon="13.4018679"><ele>730.4</ele><time>2026-05-03T07:10:06.44Z</time></trkpt><trkpt lat="42.3542426" lon="13.4019568"><ele>729.2</ele><time>2026-05-03T07:10:07.442Z</time></trkpt><trkpt lat="42.3543187" lon="13.4020458"><ele>728.0</ele><time>2026-05-03T07:10:08.445Z</time></trkpt><trkpt lat="42.3544008" lon="13.4021361"><ele>728.75</ele><time>2026-05-03T07:10:09.444Z</time></trkpt><trkpt lat="42.3544914" lon="13.4022432"><ele>729.5</ele><time>2026-05-03T07:10:10.433Z</time></trkpt><trkpt lat="42.3545852" lon="13.4023619"><ele>730.25</ele><time>2026-05-03T07:10:11.432Z</time></trkpt><trkpt lat="42.3546857" lon="13.4024821"><ele>731.0</ele><time>2026-05-03T07:10:12.433Z</time></trkpt><trkpt lat="42.3547822" lon="13.4026067"><ele>729.0</ele><time>2026-05-03T07:10:13.427Z</time></trkpt><trkpt lat="42.3548734" lon="13.4027259"><ele>727.0</ele><time>2026-05-03T07:10:14.437Z</time></trkpt><trkpt lat="42.3549632" lon="13.4028337"><ele>725.0</ele><time>2026-05-03T07:10:15.432Z</time></trkpt><trkpt lat="42.3550478" lon="13.402939"><ele>723.0</ele><time>2026-05-03T07:10:16.44Z</time></trkpt><trkpt lat="42.3551252" lon="13.4030513"><ele>723.0</ele><time>2026-05-03T07:10:17.427Z</time></trkpt><trkpt lat="42.3551942" lon="13.4031627"><ele>723.0</ele><time>2026-05-03T07:10:18.437Z</time></trkpt><trkpt lat="42.3552555" lon="13.4032843"><ele>723.0</ele><time>2026-05-03T07:10:19.435Z</time></trkpt><trkpt lat="42.3553155" lon="13.4034156"><ele>723.0</ele><time>2026-05-03T07:10:20.426Z</time></trkpt><trkpt lat="42.3553535" lon="13.4035384"><ele>723.0</ele><time>2026-05-03T07:10:21.438Z</time></trkpt><trkpt lat="42.3553806" lon="13.4036517"><ele>723.0</ele><time>2026-05-03T07:10:22.436Z</time></trkpt><trkpt lat="42.3554025" lon="13.4037683"><ele>723.0</ele><time>2026-05-03T07:10:23.442Z</time></trkpt><trkpt lat="42.3554212" lon="13.4038848"><ele>723.0</ele><time>2026-05-03T07:10:24.44Z</time></trkpt><trkpt lat="42.3554463" lon="13.4040014"><ele>723.0</ele><time>2026-05-03T07:10:25.441Z</time></trkpt><trkpt lat="42.355476" lon="13.4041133"><ele>723.0</ele><time>2026-05-03T07:10:26.435Z</time></trkpt><trkpt lat="42.3555035" lon="13.404227"><ele>723.0</ele><time>2026-05-03T07:10:27.444Z</time></trkpt><trkpt lat="42.3555275" lon="13.4043436"><ele>720.5999999999999</ele><time>2026-05-03T07:10:28.435Z</time></trkpt><trkpt lat="42.3555462" lon="13.4044622"><ele>718.1999999999999</ele><time>2026-05-03T07:10:29.437Z</time></trkpt><trkpt lat="42.3555651" lon="13.404581"><ele>715.8</ele><time>2026-05-03T07:10:30.453Z</time></trkpt><trkpt lat="42.3555815" lon="13.4046974"><ele>713.4</ele><time>2026-05-03T07:10:31.437Z</time></trkpt><trkpt lat="42.3555963" lon="13.4048185"><ele>711.0</ele><time>2026-05-03T07:10:32.442Z</time></trkpt><trkpt lat="42.3556131" lon="13.4049438"><ele>711.0</ele><time>2026-05-03T07:10:33.434Z</time></trkpt><trkpt lat="42.3556263" lon="13.4050561"><ele>711.0</ele><time>2026-05-03T07:10:34.449Z</time></trkpt><trkpt lat="42.3556444" lon="13.4051661"><ele>711.0</ele><time>2026-05-03T07:10:35.442Z</time></trkpt><trkpt lat="42.3556637" lon="13.4052661"><ele>711.0</ele><time>2026-05-03T07:10:36.453Z</time></trkpt><trkpt lat="42.355674" lon="13.4053583"><ele>711.0</ele><time>2026-05-03T07:10:37.439Z</time></trkpt><trkpt lat="42.3556871" lon="13.4054444"><ele>711.0</ele><time>2026-05-03T07:10:38.448Z</time></trkpt><trkpt lat="42.3557028" lon="13.4055816"><ele>711.1666666666666</ele><time>2026-05-03T07:10:40.448Z</time></trkpt><trkpt lat="42.3557093" lon="13.4057005"><ele>711.3333333333334</ele><time>2026-05-03T07:10:42.447Z</time></trkpt><trkpt lat="42.3556755" lon="13.4057973"><ele>711.5</ele><time>2026-05-03T07:10:45.439Z</time></trkpt><trkpt lat="42.3556792" lon="13.4058945"><ele>711.6666666666667</ele><time>2026-05-03T07:10:47.438Z</time></trkpt><trkpt lat="42.3556936" lon="13.4059836"><ele>711.8333333333334</ele><time>2026-05-03T07:10:48.453Z</time></trkpt><trkpt lat="42.3557234" lon="13.4060874"><ele>712.0</ele><time>2026-05-03T07:10:49.45Z</time></trkpt><trkpt lat="42.3557436" lon="13.4061997"><ele>712.0</ele><time>2026-05-03T07:10:50.452Z</time></trkpt><trkpt lat="42.3557544" lon="13.4062956"><ele>712.0</ele><time>2026-05-03T07:10:51.443Z</time></trkpt><trkpt lat="42.355749" lon="13.4063814"><ele>712.0</ele><time>2026-05-03T07:10:52.454Z</time></trkpt><trkpt lat="42.3557211" lon="13.4064635"><ele>712.0</ele><time>2026-05-03T07:10:53.455Z</time></trkpt><trkpt lat="42.355686" lon="13.4065384"><ele>712.0</ele><time>2026-05-03T07:10:54.447Z</time></trkpt><trkpt lat="42.3556134" lon="13.4066443"><ele>712.0</ele><time>2026-05-03T07:10:56.445Z</time></trkpt><trkpt lat="42.3555238" lon="13.4067588"><ele>713.0</ele><time>2026-05-03T07:10:58.444Z</time></trkpt><trkpt lat="42.3554619" lon="13.4068136"><ele>714.0</ele><time>2026-05-03T07:10:59.456Z</time></trkpt><trkpt lat="42.3553837" lon="13.4068635"><ele>715.0</ele><time>2026-05-03T07:11:00.443Z</time></trkpt><trkpt lat="42.3553026" lon="13.4069261"><ele>716.0</ele><time>2026-05-03T07:11:01.465Z</time></trkpt><trkpt lat="42.3552297" lon="13.4070178"><ele>717.0</ele><time>2026-05-03T07:11:02.437Z</time></trkpt><trkpt lat="42.3551738" lon="13.407138"><ele>716.0</ele><time>2026-05-03T07:11:03.446Z</time></trkpt><trkpt lat="42.3551146" lon="13.407253"><ele>715.0</ele><time>2026-05-03T07:11:04.441Z</time></trkpt><trkpt lat="42.3550477" lon="13.4073667"><ele>714.0</ele><time>2026-05-03T07:11:05.441Z</time></trkpt><trkpt lat="42.3549852" lon="13.4074884"><ele>713.0</ele><time>2026-05-03T07:11:06.441Z</time></trkpt><trkpt lat="42.3549287" lon="13.4076118"><ele>712.0</ele><time>2026-05-03T07:11:07.439Z</time></trkpt><trkpt lat="42.3548702" lon="13.4077302"><ele>712.0</ele><time>2026-05-03T07:11:08.44Z</time></trkpt><trkpt lat="42.3548135" lon="13.4078511"><ele>712.0</ele><time>2026-05-03T07:11:09.437Z</time></trkpt><trkpt lat="42.3547584" lon="13.4079814"><ele>712.0</ele><time>2026-05-03T07:11:10.446Z</time></trkpt><trkpt lat="42.3546985" lon="13.4081044"><ele>712.0</ele><time>2026-05-03T07:11:11.442Z</time></trkpt><trkpt lat="42.3546402" lon="13.4082312"><ele>712.0</ele><time>2026-05-03T07:11:12.446Z</time></trkpt><trkpt lat="42.3545788" lon="13.4083563"><ele>712.5</ele><time>2026-05-03T07:11:13.456Z</time></trkpt><trkpt lat="42.3545157" lon="13.4084875"><ele>713.0</ele><time>2026-05-03T07:11:14.447Z</time></trkpt><trkpt lat="42.3544493" lon="13.4086199"><ele>713.5</ele><time>2026-05-03T07:11:15.448Z</time></trkpt><trkpt lat="42.3543716" lon="13.4087548"><ele>714.0</ele><time>2026-05-03T07:11:16.443Z</time></trkpt><trkpt lat="42.354296" lon="13.4088797"><ele>714.0</ele><time>2026-05-03T07:11:17.452Z</time></trkpt><trkpt lat="42.3542121" lon="13.4090061"><ele>714.0</ele><time>2026-05-03T07:11:18.444Z</time></trkpt><trkpt lat="42.3541304" lon="13.4091244"><ele>714.0</ele><time>2026-05-03T07:11:19.451Z</time></trkpt><trkpt lat="42.3540468" lon="13.409235"><ele>714.0</ele><time>2026-05-03T07:11:20.442Z</time></trkpt><trkpt lat="42.3539639" lon="13.4093493"><ele>714.0</ele><time>2026-05-03T07:11:21.448Z</time></trkpt><trkpt lat="42.3538773" lon="13.4094668"><ele>714.0</ele><time>2026-05-03T07:11:22.444Z</time></trkpt><trkpt lat="42.3537921" lon="13.4095865"><ele>714.0</ele><time>2026-05-03T07:11:23.447Z</time></trkpt><trkpt lat="42.3537055" lon="13.409716"><ele>714.0</ele><time>2026-05-03T07:11:24.446Z</time></trkpt><trkpt lat="42.3536169" lon="13.4098401"><ele>713.75</ele><time>2026-05-03T07:11:25.445Z</time></trkpt><trkpt lat="42.3535282" lon="13.4099654"><ele>713.5</ele><time>2026-05-03T07:11:26.453Z</time></trkpt><trkpt lat="42.3534477" lon="13.4100804"><ele>713.25</ele><time>2026-05-03T07:11:27.444Z</time></trkpt><trkpt lat="42.3533729" lon="13.4101849"><ele>713.0</ele><time>2026-05-03T07:11:28.45Z</time></trkpt><trkpt lat="42.3532961" lon="13.4102856"><ele>713.0</ele><time>2026-05-03T07:11:29.446Z</time></trkpt><trkpt lat="42.3532116" lon="13.4103853"><ele>713.0</ele><time>2026-05-03T07:11:30.453Z</time></trkpt><trkpt lat="42.3531344" lon="13.4104935"><ele>713.0</ele><time>2026-05-03T07:11:31.443Z</time></trkpt><trkpt lat="42.3530595" lon="13.4106055"><ele>713.0</ele><time>2026-05-03T07:11:32.466Z</time></trkpt><trkpt lat="42.3529842" lon="13.4107173"><ele>713.0</ele><time>2026-05-03T07:11:33.44Z</time></trkpt><trkpt lat="42.3529095" lon="13.4108312"><ele>713.2</ele><time>2026-05-03T07:11:34.446Z</time></trkpt><trkpt lat="42.3528315" lon="13.4109439"><ele>713.4</ele><time>2026-05-03T07:11:35.443Z</time></trkpt><trkpt lat="42.352756" lon="13.411049"><ele>713.6</ele><time>2026-05-03T07:11:36.445Z</time></trkpt><trkpt lat="42.3526888" lon="13.4111582"><ele>713.8000000000001</ele><time>2026-05-03T07:11:37.441Z</time></trkpt><trkpt lat="42.3526226" lon="13.4112719"><ele>714.0</ele><time>2026-05-03T07:11:38.451Z</time></trkpt><trkpt lat="42.3525609" lon="13.4113797"><ele>714.4000000000001</ele><time>2026-05-03T07:11:39.446Z</time></trkpt><trkpt lat="42.3524975" lon="13.4114823"><ele>714.8</ele><time>2026-05-03T07:11:40.448Z</time></trkpt><trkpt lat="42.3524258" lon="13.411578"><ele>715.2</ele><time>2026-05-03T07:11:41.444Z</time></trkpt><trkpt lat="42.3523581" lon="13.4116792"><ele>715.5999999999999</ele><time>2026-05-03T07:11:42.448Z</time></trkpt><trkpt lat="42.352298" lon="13.4117631"><ele>716.0</ele><time>2026-05-03T07:11:43.446Z</time></trkpt><trkpt lat="42.352239" lon="13.4118394"><ele>715.8333333333333</ele><time>2026-05-03T07:11:44.445Z</time></trkpt><trkpt lat="42.3521772" lon="13.4119243"><ele>715.6666666666666</ele><time>2026-05-03T07:11:45.444Z</time></trkpt><trkpt lat="42.3521192" lon="13.4120094"><ele>715.5</ele><time>2026-05-03T07:11:46.451Z</time></trkpt><trkpt lat="42.3520651" lon="13.4120918"><ele>715.3333333333334</ele><time>2026-05-03T07:11:47.442Z</time></trkpt><trkpt lat="42.3520133" lon="13.4121739"><ele>715.1666666666667</ele><time>2026-05-03T07:11:48.445Z</time></trkpt><trkpt lat="42.3519642" lon="13.4122718"><ele>715.0</ele><time>2026-05-03T07:11:49.44Z</time></trkpt><trkpt lat="42.3519175" lon="13.4123781"><ele>715.0</ele><time>2026-05-03T07:11:50.451Z</time></trkpt><trkpt lat="42.3518852" lon="13.4124986"><ele>715.0</ele><time>2026-05-03T07:11:51.446Z</time></trkpt><trkpt lat="42.3518852" lon="13.4126324"><ele>715.0</ele><time>2026-05-03T07:11:52.445Z</time></trkpt><trkpt lat="42.351905" lon="13.4127824"><ele>715.0</ele><time>2026-05-03T07:11:53.45Z</time></trkpt><trkpt lat="42.3519434" lon="13.412931"><ele>715.0</ele><time>2026-05-03T07:11:54.441Z</time></trkpt><trkpt lat="42.3519988" lon="13.4130793"><ele>715.5</ele><time>2026-05-03T07:11:55.452Z</time></trkpt><trkpt lat="42.3520689" lon="13.4132249"><ele>716.0</ele><time>2026-05-03T07:11:56.446Z</time></trkpt><trkpt lat="42.3521424" lon="13.4133694"><ele>716.5</ele><time>2026-05-03T07:11:57.453Z</time></trkpt><trkpt lat="42.3522139" lon="13.4135097"><ele>717.0</ele><time>2026-05-03T07:11:58.445Z</time></trkpt><trkpt lat="42.3522789" lon="13.4136469"><ele>717.75</ele><time>2026-05-03T07:11:59.451Z</time></trkpt><trkpt lat="42.3523395" lon="13.4137858"><ele>718.5</ele><time>2026-05-03T07:12:00.445Z</time></trkpt><trkpt lat="42.3523958" lon="13.4139369"><ele>719.25</ele><time>2026-05-03T07:12:01.451Z</time></trkpt><trkpt lat="42.3524425" lon="13.4140932"><ele>720.0</ele><time>2026-05-03T07:12:02.439Z</time></trkpt><trkpt lat="42.3524737" lon="13.4142483"><ele>720.0</ele><time>2026-05-03T07:12:03.46Z</time></trkpt><trkpt lat="42.3524802" lon="13.4144106"><ele>720.0</ele><time>2026-05-03T07:12:04.439Z</time></trkpt><trkpt lat="42.3524694" lon="13.4145804"><ele>720.0</ele><time>2026-05-03T07:12:05.451Z</time></trkpt><trkpt lat="42.352447" lon="13.4147548"><ele>720.0</ele><time>2026-05-03T07:12:06.442Z</time></trkpt><trkpt lat="42.3524112" lon="13.4149229"><ele>720.25</ele><time>2026-05-03T07:12:07.439Z</time></trkpt><trkpt lat="42.3523663" lon="13.4150929"><ele>720.5</ele><time>2026-05-03T07:12:08.437Z</time></trkpt><trkpt lat="42.3523014" lon="13.4152523"><ele>720.75</ele><time>2026-05-03T07:12:09.449Z</time></trkpt><trkpt lat="42.3522195" lon="13.4154064"><ele>721.0</ele><time>2026-05-03T07:12:10.443Z</time></trkpt><trkpt lat="42.352105" lon="13.4155776"><ele>722.0</ele><time>2026-05-03T07:12:11.445Z</time></trkpt><trkpt lat="42.3519956" lon="13.4157518"><ele>723.0</ele><time>2026-05-03T07:12:12.443Z</time></trkpt><trkpt lat="42.3518888" lon="13.4159097"><ele>724.0</ele><time>2026-05-03T07:12:13.452Z</time></trkpt><trkpt lat="42.3518111" lon="13.4160921"><ele>724.0</ele><time>2026-05-03T07:12:14.448Z</time></trkpt><trkpt lat="42.35175" lon="13.416272"><ele>724.0</ele><time>2026-05-03T07:12:15.442Z</time></trkpt><trkpt lat="42.351711" lon="13.416459"><ele>724.0</ele><time>2026-05-03T07:12:16.449Z</time></trkpt><trkpt lat="42.3516771" lon="13.4166713"><ele>724.75</ele><time>2026-05-03T07:12:17.44Z</time></trkpt><trkpt lat="42.3516552" lon="13.4168712"><ele>725.5</ele><time>2026-05-03T07:12:18.444Z</time></trkpt><trkpt lat="42.3516461" lon="13.4170684"><ele>726.25</ele><time>2026-05-03T07:12:19.446Z</time></trkpt><trkpt lat="42.3516399" lon="13.417273"><ele>727.0</ele><time>2026-05-03T07:12:20.453Z</time></trkpt><trkpt lat="42.3516147" lon="13.4174751"><ele>727.75</ele><time>2026-05-03T07:12:21.445Z</time></trkpt><trkpt lat="42.3516008" lon="13.4176591"><ele>728.5</ele><time>2026-05-03T07:12:22.455Z</time></trkpt><trkpt lat="42.3515988" lon="13.4178393"><ele>729.25</ele><time>2026-05-03T07:12:23.447Z</time></trkpt><trkpt lat="42.3515928" lon="13.418018"><ele>730.0</ele><time>2026-05-03T07:12:24.446Z</time></trkpt><trkpt lat="42.3516326" lon="13.4181969"><ele>730.0</ele><time>2026-05-03T07:12:25.442Z</time></trkpt><trkpt lat="42.3516927" lon="13.4183641"><ele>730.0</ele><time>2026-05-03T07:12:26.44Z</time></trkpt><trkpt lat="42.351749" lon="13.4185026"><ele>730.0</ele><time>2026-05-03T07:12:27.438Z</time></trkpt><trkpt lat="42.3518204" lon="13.418604"><ele>730.0</ele><time>2026-05-03T07:12:28.438Z</time></trkpt><trkpt lat="42.3518778" lon="13.418662"><ele>730.0</ele><time>2026-05-03T07:12:29.443Z</time></trkpt><trkpt lat="42.3519376" lon="13.418744"><ele>730.1666666666667</ele><time>2026-05-03T07:12:30.441Z</time></trkpt><trkpt lat="42.3519708" lon="13.4188281"><ele>730.3333333333334</ele><time>2026-05-03T07:12:31.443Z</time></trkpt><trkpt lat="42.3519856" lon="13.4189211"><ele>730.5</ele><time>2026-05-03T07:12:32.455Z</time></trkpt><trkpt lat="42.3520105" lon="13.4190275"><ele>730.6666666666666</ele><time>2026-05-03T07:12:33.441Z</time></trkpt><trkpt lat="42.3520589" lon="13.4191353"><ele>730.8333333333333</ele><time>2026-05-03T07:12:34.463Z</time></trkpt><trkpt lat="42.3521352" lon="13.4192425"><ele>731.0</ele><time>2026-05-03T07:12:35.444Z</time></trkpt><trkpt lat="42.3522144" lon="13.4193557"><ele>732.5</ele><time>2026-05-03T07:12:36.45Z</time></trkpt><trkpt lat="42.3522728" lon="13.4194675"><ele>734.0</ele><time>2026-05-03T07:12:37.436Z</time></trkpt><trkpt lat="42.3523061" lon="13.4195765"><ele>735.5</ele><time>2026-05-03T07:12:38.438Z</time></trkpt><trkpt lat="42.3523225" lon="13.4196682"><ele>737.0</ele><time>2026-05-03T07:12:39.442Z</time></trkpt><trkpt lat="42.35233" lon="13.4197567"><ele>738.5</ele><time>2026-05-03T07:12:40.446Z</time></trkpt><trkpt lat="42.3523465" lon="13.4198461"><ele>740.0</ele><time>2026-05-03T07:12:41.446Z</time></trkpt><trkpt lat="42.3523731" lon="13.4199425"><ele>740.0</ele><time>2026-05-03T07:12:42.443Z</time></trkpt><trkpt lat="42.3524213" lon="13.4200517"><ele>740.0</ele><time>2026-05-03T07:12:43.446Z</time></trkpt><trkpt lat="42.3524745" lon="13.4201709"><ele>740.0</ele><time>2026-05-03T07:12:44.439Z</time></trkpt><trkpt lat="42.3525041" lon="13.4203077"><ele>740.0</ele><time>2026-05-03T07:12:45.44Z</time></trkpt><trkpt lat="42.3525082" lon="13.4204431"><ele>740.0</ele><time>2026-05-03T07:12:46.441Z</time></trkpt><trkpt lat="42.3524945" lon="13.4205762"><ele>740.1666666666666</ele><time>2026-05-03T07:12:47.45Z</time></trkpt><trkpt lat="42.3524647" lon="13.4207019"><ele>740.3333333333333</ele><time>2026-05-03T07:12:48.439Z</time></trkpt><trkpt lat="42.3524363" lon="13.42081"><ele>740.5</ele><time>2026-05-03T07:12:49.438Z</time></trkpt><trkpt lat="42.35242" lon="13.4209111"><ele>740.6666666666666</ele><time>2026-05-03T07:12:50.446Z</time></trkpt><trkpt lat="42.3524084" lon="13.4210118"><ele>740.8333333333334</ele><time>2026-05-03T07:12:51.445Z</time></trkpt><trkpt lat="42.3524017" lon="13.4211105"><ele>741.0</ele><time>2026-05-03T07:12:52.447Z</time></trkpt><trkpt lat="42.3524105" lon="13.4212058"><ele>741.0</ele><time>2026-05-03T07:12:53.433Z</time></trkpt><trkpt lat="42.3524361" lon="13.4212983"><ele>741.0</ele><time>2026-05-03T07:12:54.428Z</time></trkpt><trkpt lat="42.3524587" lon="13.4213878"><ele>741.0</ele><time>2026-05-03T07:12:55.408Z</time></trkpt><trkpt lat="42.3524724" lon="13.4214728"><ele>741.0</ele><time>2026-05-03T07:12:56.415Z</time></trkpt><trkpt lat="42.35249" lon="13.4215652"><ele>741.0</ele><time>2026-05-03T07:12:57.398Z</time></trkpt><trkpt lat="42.3525076" lon="13.4216569"><ele>741.0</ele><time>2026-05-03T07:12:58.388Z</time></trkpt><trkpt lat="42.3525254" lon="13.4217496"><ele>741.0</ele><time>2026-05-03T07:12:59.362Z</time></trkpt><trkpt lat="42.3525449" lon="13.4218449"><ele>739.0</ele><time>2026-05-03T07:13:00.341Z</time></trkpt><trkpt lat="42.3526217" lon="13.4221555"><ele>737.0</ele><time>2026-05-03T07:13:03.378Z</time></trkpt><trkpt lat="42.3527667" lon="13.4225513"><ele>742.5</ele><time>2026-05-03T07:13:04.406Z</time></trkpt><trkpt lat="42.353046" lon="13.4228742"><ele>748.0</ele><time>2026-05-03T07:13:05.443Z</time></trkpt><trkpt lat="42.3531545" lon="13.4229819"><ele>748.0</ele><time>2026-05-03T07:13:06.426Z</time></trkpt><trkpt lat="42.3532838" lon="13.4230778"><ele>748.0</ele><time>2026-05-03T07:13:07.432Z</time></trkpt><trkpt lat="42.353396" lon="13.4231797"><ele>748.0</ele><time>2026-05-03T07:13:08.437Z</time></trkpt><trkpt lat="42.3534632" lon="13.4233043"><ele>748.0</ele><time>2026-05-03T07:13:09.439Z</time></trkpt><trkpt lat="42.3535246" lon="13.4234414"><ele>748.0</ele><time>2026-05-03T07:13:10.44Z</time></trkpt><trkpt lat="42.3535831" lon="13.4235222"><ele>748.0</ele><time>2026-05-03T07:13:11.441Z</time></trkpt><trkpt lat="42.3536216" lon="13.4236359"><ele>748.0</ele><time>2026-05-03T07:13:12.442Z</time></trkpt><trkpt lat="42.3536779" lon="13.4237297"><ele>748.0</ele><time>2026-05-03T07:13:13.442Z</time></trkpt><trkpt lat="42.3537246" lon="13.4238075"><ele>748.0</ele><time>2026-05-03T07:13:14.442Z</time></trkpt><trkpt lat="42.3537624" lon="13.4238788"><ele>748.0</ele><time>2026-05-03T07:13:15.444Z</time></trkpt><trkpt lat="42.353806" lon="13.4239453"><ele>748.0</ele><time>2026-05-03T07:13:16.444Z</time></trkpt><trkpt lat="42.3538669" lon="13.4240212"><ele>748.0</ele><time>2026-05-03T07:13:18.438Z</time></trkpt><trkpt lat="42.353918" lon="13.4239602"><ele>748.0</ele><time>2026-05-03T07:13:21.446Z</time></trkpt><trkpt lat="42.3538633" lon="13.4238259"><ele>748.0</ele><time>2026-05-03T07:13:23.434Z</time></trkpt><trkpt lat="42.3538161" lon="13.4237386"><ele>748.0</ele><time>2026-05-03T07:13:24.429Z</time></trkpt><trkpt lat="42.3537515" lon="13.4236261"><ele>748.0</ele><time>2026-05-03T07:13:25.437Z</time></trkpt><trkpt lat="42.3536798" lon="13.4234944"><ele>748.0</ele><time>2026-05-03T07:13:26.437Z</time></trkpt><trkpt lat="42.3536073" lon="13.4233406"><ele>748.0</ele><time>2026-05-03T07:13:27.436Z</time></trkpt><trkpt lat="42.353528" lon="13.4231743"><ele>748.0</ele><time>2026-05-03T07:13:28.437Z</time></trkpt><trkpt lat="42.3534259" lon="13.4229789"><ele>749.5</ele><time>2026-05-03T07:13:29.434Z</time></trkpt><trkpt lat="42.3533485" lon="13.4228126"><ele>751.0</ele><time>2026-05-03T07:13:30.439Z</time></trkpt><trkpt lat="42.3532717" lon="13.4226561"><ele>752.5</ele><time>2026-05-03T07:13:31.439Z</time></trkpt><trkpt lat="42.3531848" lon="13.4225018"><ele>754.0</ele><time>2026-05-03T07:13:32.437Z</time></trkpt><trkpt lat="42.3531129" lon="13.4223629"><ele>754.0</ele><time>2026-05-03T07:13:33.439Z</time></trkpt><trkpt lat="42.3530468" lon="13.4222497"><ele>754.0</ele><time>2026-05-03T07:13:34.442Z</time></trkpt><trkpt lat="42.3529705" lon="13.4221435"><ele>754.0</ele><time>2026-05-03T07:13:35.441Z</time></trkpt><trkpt lat="42.3528946" lon="13.4220286"><ele>754.0</ele><time>2026-05-03T07:13:36.469Z</time></trkpt><trkpt lat="42.3528355" lon="13.4219458"><ele>754.0</ele><time>2026-05-03T07:13:37.443Z</time></trkpt><trkpt lat="42.35278" lon="13.421861"><ele>752.0</ele><time>2026-05-03T07:13:38.442Z</time></trkpt><trkpt lat="42.3527339" lon="13.4217643"><ele>750.0</ele><time>2026-05-03T07:13:39.437Z</time></trkpt><trkpt lat="42.3526899" lon="13.4216494"><ele>748.0</ele><time>2026-05-03T07:13:40.435Z</time></trkpt><trkpt lat="42.3526491" lon="13.4215101"><ele>746.0</ele><time>2026-05-03T07:13:41.447Z</time></trkpt><trkpt lat="42.352622" lon="13.4213589"><ele>744.0</ele><time>2026-05-03T07:13:42.448Z</time></trkpt><trkpt lat="42.352601" lon="13.4211952"><ele>743.25</ele><time>2026-05-03T07:13:43.454Z</time></trkpt><trkpt lat="42.3525895" lon="13.4210311"><ele>742.5</ele><time>2026-05-03T07:13:44.443Z</time></trkpt><trkpt lat="42.3525885" lon="13.4208631"><ele>741.75</ele><time>2026-05-03T07:13:45.447Z</time></trkpt><trkpt lat="42.352605" lon="13.420699"><ele>741.0</ele><time>2026-05-03T07:13:46.447Z</time></trkpt><trkpt lat="42.3526215" lon="13.4205311"><ele>740.75</ele><time>2026-05-03T07:13:47.451Z</time></trkpt><trkpt lat="42.3526349" lon="13.4203676"><ele>740.5</ele><time>2026-05-03T07:13:48.448Z</time></trkpt><trkpt lat="42.3526343" lon="13.4202053"><ele>740.25</ele><time>2026-05-03T07:13:49.445Z</time></trkpt><trkpt lat="42.352613" lon="13.420036"><ele>740.0</ele><time>2026-05-03T07:13:50.44Z</time></trkpt><trkpt lat="42.3525689" lon="13.4198788"><ele>740.0</ele><time>2026-05-03T07:13:51.438Z</time></trkpt><trkpt lat="42.3525076" lon="13.4197304"><ele>740.0</ele><time>2026-05-03T07:13:52.442Z</time></trkpt><trkpt lat="42.3524461" lon="13.4195866"><ele>740.0</ele><time>2026-05-03T07:13:53.445Z</time></trkpt><trkpt lat="42.3523851" lon="13.4194643"><ele>740.0</ele><time>2026-05-03T07:13:54.443Z</time></trkpt><trkpt lat="42.3523386" lon="13.4193388"><ele>740.0</ele><time>2026-05-03T07:13:55.439Z</time></trkpt><trkpt lat="42.3523115" lon="13.4192027"><ele>740.0</ele><time>2026-05-03T07:13:56.448Z</time></trkpt><trkpt lat="42.3522986" lon="13.4190729"><ele>740.0</ele><time>2026-05-03T07:13:57.448Z</time></trkpt><trkpt lat="42.3522939" lon="13.4189471"><ele>740.0</ele><time>2026-05-03T07:13:58.45Z</time></trkpt><trkpt lat="42.3522823" lon="13.4188338"><ele>740.0</ele><time>2026-05-03T07:13:59.439Z</time></trkpt><trkpt lat="42.352246" lon="13.4187583"><ele>740.0</ele><time>2026-05-03T07:14:00.452Z</time></trkpt><trkpt lat="42.3521099" lon="13.4187491"><ele>738.5</ele><time>2026-05-03T07:14:02.453Z</time></trkpt><trkpt lat="42.3520377" lon="13.4187978"><ele>737.0</ele><time>2026-05-03T07:14:03.458Z</time></trkpt><trkpt lat="42.3519733" lon="13.4188819"><ele>735.5</ele><time>2026-05-03T07:14:04.444Z</time></trkpt><trkpt lat="42.3519201" lon="13.4189769"><ele>734.0</ele><time>2026-05-03T07:14:05.445Z</time></trkpt><trkpt lat="42.3518803" lon="13.4190835"><ele>732.5</ele><time>2026-05-03T07:14:06.465Z</time></trkpt><trkpt lat="42.3518575" lon="13.4191963"><ele>731.0</ele><time>2026-05-03T07:14:07.449Z</time></trkpt><trkpt lat="42.3518655" lon="13.4193074"><ele>731.0</ele><time>2026-05-03T07:14:08.453Z</time></trkpt><trkpt lat="42.3519077" lon="13.4194195"><ele>731.0</ele><time>2026-05-03T07:14:09.442Z</time></trkpt><trkpt lat="42.3519749" lon="13.419538"><ele>731.0</ele><time>2026-05-03T07:14:10.446Z</time></trkpt><trkpt lat="42.3520528" lon="13.419656"><ele>731.0</ele><time>2026-05-03T07:14:11.452Z</time></trkpt><trkpt lat="42.3521254" lon="13.4197891"><ele>731.0</ele><time>2026-05-03T07:14:12.451Z</time></trkpt><trkpt lat="42.3521817" lon="13.4199437"><ele>731.5</ele><time>2026-05-03T07:14:13.435Z</time></trkpt><trkpt lat="42.3522107" lon="13.4200991"><ele>732.0</ele><time>2026-05-03T07:14:14.454Z</time></trkpt><trkpt lat="42.3522009" lon="13.4202732"><ele>732.5</ele><time>2026-05-03T07:14:15.441Z</time></trkpt><trkpt lat="42.3521837" lon="13.4204553"><ele>733.0</ele><time>2026-05-03T07:14:16.454Z</time></trkpt><trkpt lat="42.3521839" lon="13.4206297"><ele>735.0</ele><time>2026-05-03T07:14:17.438Z</time></trkpt><trkpt lat="42.3522077" lon="13.4207974"><ele>737.0</ele><time>2026-05-03T07:14:18.438Z</time></trkpt><trkpt lat="42.352244" lon="13.4209679"><ele>739.0</ele><time>2026-05-03T07:14:19.45Z</time></trkpt><trkpt lat="42.3522925" lon="13.4211364"><ele>741.0</ele><time>2026-05-03T07:14:20.453Z</time></trkpt><trkpt lat="42.352333" lon="13.4212958"><ele>741.5999999999999</ele><time>2026-05-03T07:14:21.442Z</time></trkpt><trkpt lat="42.3523648" lon="13.4214438"><ele>742.2</ele><time>2026-05-03T07:14:22.45Z</time></trkpt><trkpt lat="42.3523923" lon="13.4215865"><ele>742.8</ele><time>2026-05-03T07:14:23.439Z</time></trkpt><trkpt lat="42.3523949" lon="13.4217334"><ele>743.4000000000001</ele><time>2026-05-03T07:14:24.444Z</time></trkpt><trkpt lat="42.3523752" lon="13.4218781"><ele>744.0</ele><time>2026-05-03T07:14:25.437Z</time></trkpt><trkpt lat="42.352355" lon="13.4220109"><ele>744.0</ele><time>2026-05-03T07:14:26.446Z</time></trkpt><trkpt lat="42.3523264" lon="13.4221261"><ele>744.0</ele><time>2026-05-03T07:14:27.434Z</time></trkpt><trkpt lat="42.3523109" lon="13.4222623"><ele>744.0</ele><time>2026-05-03T07:14:28.44Z</time></trkpt><trkpt lat="42.3523133" lon="13.4224217"><ele>744.0</ele><time>2026-05-03T07:14:29.439Z</time></trkpt><trkpt lat="42.3523217" lon="13.422594"><ele>744.0</ele><time>2026-05-03T07:14:30.443Z</time></trkpt><trkpt lat="42.352338" lon="13.4227675"><ele>742.25</ele><time>2026-05-03T07:14:31.442Z</time></trkpt><trkpt lat="42.3523547" lon="13.4229398"><ele>740.5</ele><time>2026-05-03T07:14:32.439Z</time></trkpt><trkpt lat="42.3523734" lon="13.4231115"><ele>738.75</ele><time>2026-05-03T07:14:33.444Z</time></trkpt><trkpt lat="42.35239" lon="13.4232877"><ele>737.0</ele><time>2026-05-03T07:14:34.438Z</time></trkpt><trkpt lat="42.3524022" lon="13.4234598"><ele>734.5</ele><time>2026-05-03T07:14:35.439Z</time></trkpt><trkpt lat="42.3524033" lon="13.4236298"><ele>732.0</ele><time>2026-05-03T07:14:36.437Z</time></trkpt><trkpt lat="42.3523846" lon="13.4237976"><ele>729.5</ele><time>2026-05-03T07:14:37.458Z</time></trkpt><trkpt lat="42.3523594" lon="13.4239624"><ele>727.0</ele><time>2026-05-03T07:14:38.438Z</time></trkpt><trkpt lat="42.3523207" lon="13.4241275"><ele>725.5</ele><time>2026-05-03T07:14:39.44Z</time></trkpt><trkpt lat="42.3522789" lon="13.4243056"><ele>724.0</ele><time>2026-05-03T07:14:40.441Z</time></trkpt><trkpt lat="42.3522273" lon="13.424473"><ele>722.5</ele><time>2026-05-03T07:14:41.441Z</time></trkpt><trkpt lat="42.3521801" lon="13.4246444"><ele>721.0</ele><time>2026-05-03T07:14:42.435Z</time></trkpt><trkpt lat="42.3521275" lon="13.4247997"><ele>719.25</ele><time>2026-05-03T07:14:43.442Z</time></trkpt><trkpt lat="42.352085" lon="13.4249818"><ele>717.5</ele><time>2026-05-03T07:14:44.436Z</time></trkpt><trkpt lat="42.3520294" lon="13.4251499"><ele>715.75</ele><time>2026-05-03T07:14:45.446Z</time></trkpt><trkpt lat="42.3519459" lon="13.4253196"><ele>714.0</ele><time>2026-05-03T07:14:46.443Z</time></trkpt><trkpt lat="42.3518542" lon="13.4254724"><ele>715.0</ele><time>2026-05-03T07:14:47.45Z</time></trkpt><trkpt lat="42.3517639" lon="13.4256185"><ele>716.0</ele><time>2026-05-03T07:14:48.449Z</time></trkpt><trkpt lat="42.351702" lon="13.4257946"><ele>717.0</ele><time>2026-05-03T07:14:49.457Z</time></trkpt><trkpt lat="42.3516359" lon="13.4259655"><ele>718.0</ele><time>2026-05-03T07:14:50.446Z</time></trkpt><trkpt lat="42.3515611" lon="13.4261434"><ele>720.75</ele><time>2026-05-03T07:14:51.445Z</time></trkpt><trkpt lat="42.3514898" lon="13.4263153"><ele>723.5</ele><time>2026-05-03T07:14:52.442Z</time></trkpt><trkpt lat="42.3514384" lon="13.4264842"><ele>726.25</ele><time>2026-05-03T07:14:53.442Z</time></trkpt><trkpt lat="42.3513889" lon="13.4266675"><ele>729.0</ele><time>2026-05-03T07:14:54.432Z</time></trkpt><trkpt lat="42.351365" lon="13.4268731"><ele>730.0</ele><time>2026-05-03T07:14:55.438Z</time></trkpt><trkpt lat="42.3513321" lon="13.4270435"><ele>731.0</ele><time>2026-05-03T07:14:56.436Z</time></trkpt><trkpt lat="42.3513102" lon="13.4272026"><ele>732.0</ele><time>2026-05-03T07:14:57.439Z</time></trkpt><trkpt lat="42.3513022" lon="13.42734"><ele>733.0</ele><time>2026-05-03T07:14:58.44Z</time></trkpt><trkpt lat="42.3513015" lon="13.4274713"><ele>734.0</ele><time>2026-05-03T07:14:59.439Z</time></trkpt><trkpt lat="42.3512683" lon="13.4275765"><ele>734.1666666666666</ele><time>2026-05-03T07:15:00.436Z</time></trkpt><trkpt lat="42.3512117" lon="13.4277124"><ele>734.3333333333333</ele><time>2026-05-03T07:15:02.433Z</time></trkpt><trkpt lat="42.3511646" lon="13.4277896"><ele>734.5</ele><time>2026-05-03T07:15:04.431Z</time></trkpt><trkpt lat="42.3511259" lon="13.4278583"><ele>734.6666666666666</ele><time>2026-05-03T07:15:07.443Z</time></trkpt><trkpt lat="42.3510399" lon="13.4278964"><ele>734.8333333333334</ele><time>2026-05-03T07:15:10.445Z</time></trkpt><trkpt lat="42.3510071" lon="13.4280028"><ele>735.0</ele><time>2026-05-03T07:15:12.446Z</time></trkpt><trkpt lat="42.3510014" lon="13.4281074"><ele>734.3333333333334</ele><time>2026-05-03T07:15:14.449Z</time></trkpt><trkpt lat="42.3510037" lon="13.4282253"><ele>733.6666666666666</ele><time>2026-05-03T07:15:20.445Z</time></trkpt><trkpt lat="42.3509935" lon="13.4283228"><ele>733.0</ele><time>2026-05-03T07:15:22.451Z</time></trkpt><trkpt lat="42.3509945" lon="13.4284599"><ele>732.3333333333333</ele><time>2026-05-03T07:15:24.46Z</time></trkpt><trkpt lat="42.3509903" lon="13.4285755"><ele>731.6666666666666</ele><time>2026-05-03T07:15:26.454Z</time></trkpt><trkpt lat="42.3509871" lon="13.4286739"><ele>731.0</ele><time>2026-05-03T07:15:35.453Z</time></trkpt><trkpt lat="42.3509894" lon="13.4287695"><ele>731.0</ele><time>2026-05-03T07:15:41.45Z</time></trkpt><trkpt lat="42.3510211" lon="13.4286657"><ele>731.0</ele><time>2026-05-03T07:15:43.435Z</time></trkpt><trkpt lat="42.3510586" lon="13.4285894"><ele>731.0</ele><time>2026-05-03T07:15:44.432Z</time></trkpt><trkpt lat="42.351115" lon="13.4285142"><ele>731.0</ele><time>2026-05-03T07:15:45.452Z</time></trkpt><trkpt lat="42.3512023" lon="13.4284704"><ele>731.0</ele><time>2026-05-03T07:15:46.435Z</time></trkpt><trkpt lat="42.3513065" lon="13.4284639"><ele>731.0</ele><time>2026-05-03T07:15:47.446Z</time></trkpt><trkpt lat="42.351426" lon="13.4284878"><ele>733.0</ele><time>2026-05-03T07:15:48.445Z</time></trkpt><trkpt lat="42.3515396" lon="13.4285169"><ele>735.0</ele><time>2026-05-03T07:15:49.44Z</time></trkpt><trkpt lat="42.3516368" lon="13.4285744"><ele>737.0</ele><time>2026-05-03T07:15:50.443Z</time></trkpt><trkpt lat="42.3517214" lon="13.4286656"><ele>739.0</ele><time>2026-05-03T07:15:51.443Z</time></trkpt><trkpt lat="42.3517945" lon="13.4287679"><ele>741.0</ele><time>2026-05-03T07:15:52.45Z</time></trkpt><trkpt lat="42.3518454" lon="13.4288597"><ele>741.1999999999999</ele><time>2026-05-03T07:15:53.453Z</time></trkpt><trkpt lat="42.3518949" lon="13.4289684"><ele>741.4</ele><time>2026-05-03T07:15:55.448Z</time></trkpt><trkpt lat="42.3518928" lon="13.4290628"><ele>741.6</ele><time>2026-05-03T07:15:58.456Z</time></trkpt><trkpt lat="42.3518493" lon="13.4291918"><ele>741.8</ele><time>2026-05-03T07:16:01.453Z</time></trkpt><trkpt lat="42.3517835" lon="13.4293387"><ele>742.0</ele><time>2026-05-03T07:16:03.454Z</time></trkpt><trkpt lat="42.3517297" lon="13.429454"><ele>742.0</ele><time>2026-05-03T07:16:05.442Z</time></trkpt><trkpt lat="42.3516685" lon="13.4295753"><ele>742.0</ele><time>2026-05-03T07:16:07.433Z</time></trkpt><trkpt lat="42.351629" lon="13.4296514"><ele>742.0</ele><time>2026-05-03T07:16:08.445Z</time></trkpt><trkpt lat="42.3515829" lon="13.4297472"><ele>742.0</ele><time>2026-05-03T07:16:09.444Z</time></trkpt><trkpt lat="42.351538" lon="13.4298463"><ele>742.0</ele><time>2026-05-03T07:16:10.464Z</time></trkpt><trkpt lat="42.3514893" lon="13.4299452"><ele>742.0</ele><time>2026-05-03T07:16:11.44Z</time></trkpt><trkpt lat="42.351437" lon="13.4300272"><ele>742.3333333333334</ele><time>2026-05-03T07:16:12.444Z</time></trkpt><trkpt lat="42.3513785" lon="13.4300798"><ele>742.6666666666667</ele><time>2026-05-03T07:16:13.435Z</time></trkpt><trkpt lat="42.3513168" lon="13.4301028"><ele>743.0</ele><time>2026-05-03T07:16:14.44Z</time></trkpt><trkpt lat="42.3512414" lon="13.4300915"><ele>743.3333333333334</ele><time>2026-05-03T07:16:15.446Z</time></trkpt><trkpt lat="42.3511457" lon="13.4300379"><ele>743.6666666666666</ele><time>2026-05-03T07:16:16.439Z</time></trkpt><trkpt lat="42.3510448" lon="13.429981"><ele>744.0</ele><time>2026-05-03T07:16:17.442Z</time></trkpt><trkpt lat="42.3509472" lon="13.4299404"><ele>741.6</ele><time>2026-05-03T07:16:18.443Z</time></trkpt><trkpt lat="42.3508507" lon="13.4299102"><ele>739.2</ele><time>2026-05-03T07:16:19.445Z</time></trkpt><trkpt lat="42.3507562" lon="13.4299064"><ele>736.8000000000001</ele><time>2026-05-03T07:16:20.435Z</time></trkpt><trkpt lat="42.3506651" lon="13.4299297"><ele>734.4000000000001</ele><time>2026-05-03T07:16:21.433Z</time></trkpt><trkpt lat="42.3505874" lon="13.4299943"><ele>732.0</ele><time>2026-05-03T07:16:22.443Z</time></trkpt><trkpt lat="42.3505041" lon="13.4300684"><ele>731.0</ele><time>2026-05-03T07:16:23.439Z</time></trkpt><trkpt lat="42.3504297" lon="13.4301688"><ele>730.0</ele><time>2026-05-03T07:16:24.447Z</time></trkpt><trkpt lat="42.3503589" lon="13.4302976"><ele>729.0</ele><time>2026-05-03T07:16:25.442Z</time></trkpt><trkpt lat="42.3502857" lon="13.4304397"><ele>728.0</ele><time>2026-05-03T07:16:26.448Z</time></trkpt><trkpt lat="42.3502066" lon="13.430579"><ele>728.0</ele><time>2026-05-03T07:16:27.442Z</time></trkpt><trkpt lat="42.3501276" lon="13.4307066"><ele>728.0</ele><time>2026-05-03T07:16:28.443Z</time></trkpt><trkpt lat="42.3500534" lon="13.4308175"><ele>728.0</ele><time>2026-05-03T07:16:29.453Z</time></trkpt><trkpt lat="42.3499703" lon="13.430917"><ele>728.0</ele><time>2026-05-03T07:16:30.44Z</time></trkpt><trkpt lat="42.3498838" lon="13.4309923"><ele>728.0</ele><time>2026-05-03T07:16:31.45Z</time></trkpt><trkpt lat="42.3497882" lon="13.4310413"><ele>726.5999999999999</ele><time>2026-05-03T07:16:32.436Z</time></trkpt><trkpt lat="42.3496857" lon="13.4310668"><ele>725.1999999999999</ele><time>2026-05-03T07:16:33.45Z</time></trkpt><trkpt lat="42.3495815" lon="13.4310716"><ele>723.8</ele><time>2026-05-03T07:16:34.437Z</time></trkpt><trkpt lat="42.3494795" lon="13.4310492"><ele>722.4</ele><time>2026-05-03T07:16:35.44Z</time></trkpt><trkpt lat="42.3493815" lon="13.4310123"><ele>721.0</ele><time>2026-05-03T07:16:36.445Z</time></trkpt><trkpt lat="42.3492938" lon="13.4309738"><ele>721.0</ele><time>2026-05-03T07:16:37.442Z</time></trkpt><trkpt lat="42.349197" lon="13.4309788"><ele>721.0</ele><time>2026-05-03T07:16:38.44Z</time></trkpt><trkpt lat="42.3490961" lon="13.4310138"><ele>721.0</ele><time>2026-05-03T07:16:39.441Z</time></trkpt><trkpt lat="42.3489929" lon="13.4310604"><ele>721.0</ele><time>2026-05-03T07:16:40.449Z</time></trkpt><trkpt lat="42.3488932" lon="13.4311129"><ele>721.0</ele><time>2026-05-03T07:16:41.461Z</time></trkpt><trkpt lat="42.3487958" lon="13.4311686"><ele>721.0</ele><time>2026-05-03T07:16:42.445Z</time></trkpt><trkpt lat="42.3486946" lon="13.4312454"><ele>721.0</ele><time>2026-05-03T07:16:43.451Z</time></trkpt><trkpt lat="42.3485937" lon="13.431345"><ele>721.0</ele><time>2026-05-03T07:16:44.45Z</time></trkpt><trkpt lat="42.3484899" lon="13.4314285"><ele>721.0</ele><time>2026-05-03T07:16:45.446Z</time></trkpt><trkpt lat="42.3483743" lon="13.4315036"><ele>721.0</ele><time>2026-05-03T07:16:46.448Z</time></trkpt><trkpt lat="42.3482521" lon="13.4315665"><ele>721.0</ele><time>2026-05-03T07:16:47.441Z</time></trkpt><trkpt lat="42.3481355" lon="13.431611"><ele>721.0</ele><time>2026-05-03T07:16:48.447Z</time></trkpt><trkpt lat="42.348022" lon="13.4316425"><ele>721.0</ele><time>2026-05-03T07:16:49.444Z</time></trkpt><trkpt lat="42.3479041" lon="13.4316843"><ele>718.5</ele><time>2026-05-03T07:16:50.452Z</time></trkpt><trkpt lat="42.347793" lon="13.431748"><ele>716.0</ele><time>2026-05-03T07:16:51.446Z</time></trkpt><trkpt lat="42.3476892" lon="13.4318105"><ele>713.5</ele><time>2026-05-03T07:16:52.452Z</time></trkpt><trkpt lat="42.3475869" lon="13.4318771"><ele>711.0</ele><time>2026-05-03T07:16:53.444Z</time></trkpt><trkpt lat="42.3474765" lon="13.4319476"><ele>711.0</ele><time>2026-05-03T07:16:54.445Z</time></trkpt><trkpt lat="42.3473679" lon="13.4320079"><ele>711.0</ele><time>2026-05-03T07:16:55.451Z</time></trkpt><trkpt lat="42.3472608" lon="13.432065"><ele>711.0</ele><time>2026-05-03T07:16:56.446Z</time></trkpt><trkpt lat="42.3471527" lon="13.4321207"><ele>711.0</ele><time>2026-05-03T07:16:57.449Z</time></trkpt><trkpt lat="42.3470349" lon="13.4321786"><ele>711.6666666666666</ele><time>2026-05-03T07:16:58.444Z</time></trkpt><trkpt lat="42.3469031" lon="13.4322505"><ele>712.3333333333333</ele><time>2026-05-03T07:16:59.442Z</time></trkpt><trkpt lat="42.3467716" lon="13.4323498"><ele>713.0</ele><time>2026-05-03T07:17:00.443Z</time></trkpt><trkpt lat="42.3466484" lon="13.432487"><ele>713.0</ele><time>2026-05-03T07:17:01.447Z</time></trkpt><trkpt lat="42.3465306" lon="13.4326192"><ele>713.0</ele><time>2026-05-03T07:17:02.451Z</time></trkpt><trkpt lat="42.3464079" lon="13.4327393"><ele>713.0</ele><time>2026-05-03T07:17:03.447Z</time></trkpt><trkpt lat="42.3463003" lon="13.4328402"><ele>713.0</ele><time>2026-05-03T07:17:04.444Z</time></trkpt><trkpt lat="42.3462068" lon="13.4329147"><ele>713.2</ele><time>2026-05-03T07:17:05.453Z</time></trkpt><trkpt lat="42.3461039" lon="13.4329742"><ele>713.4</ele><time>2026-05-03T07:17:06.444Z</time></trkpt><trkpt lat="42.346019" lon="13.4330246"><ele>713.6</ele><time>2026-05-03T07:17:07.449Z</time></trkpt><trkpt lat="42.3459401" lon="13.4330743"><ele>713.8000000000001</ele><time>2026-05-03T07:17:08.45Z</time></trkpt><trkpt lat="42.3458661" lon="13.4331281"><ele>714.0</ele><time>2026-05-03T07:17:09.442Z</time></trkpt><trkpt lat="42.3457896" lon="13.4331731"><ele>714.0</ele><time>2026-05-03T07:17:10.45Z</time></trkpt><trkpt lat="42.3457271" lon="13.4332341"><ele>714.0</ele><time>2026-05-03T07:17:11.445Z</time></trkpt><trkpt lat="42.3456567" lon="13.433291"><ele>714.0</ele><time>2026-05-03T07:17:12.466Z</time></trkpt><trkpt lat="42.3455723" lon="13.4333384"><ele>714.0</ele><time>2026-05-03T07:17:13.448Z</time></trkpt><trkpt lat="42.3454968" lon="13.4333972"><ele>714.0</ele><time>2026-05-03T07:17:14.452Z</time></trkpt><trkpt lat="42.3454175" lon="13.4334618"><ele>714.0</ele><time>2026-05-03T07:17:15.449Z</time></trkpt><trkpt lat="42.3453401" lon="13.4335345"><ele>712.6</ele><time>2026-05-03T07:17:16.45Z</time></trkpt><trkpt lat="42.3452711" lon="13.4336185"><ele>711.2</ele><time>2026-05-03T07:17:17.447Z</time></trkpt><trkpt lat="42.3452072" lon="13.4337054"><ele>709.8000000000001</ele><time>2026-05-03T07:17:18.449Z</time></trkpt><trkpt lat="42.3451441" lon="13.4338028"><ele>708.4000000000001</ele><time>2026-05-03T07:17:19.451Z</time></trkpt><trkpt lat="42.3450888" lon="13.4339036"><ele>707.0</ele><time>2026-05-03T07:17:20.452Z</time></trkpt><trkpt lat="42.3450387" lon="13.4339973"><ele>707.0</ele><time>2026-05-03T07:17:21.443Z</time></trkpt><trkpt lat="42.3449821" lon="13.434127"><ele>707.0</ele><time>2026-05-03T07:17:23.448Z</time></trkpt><trkpt lat="42.3449347" lon="13.4342202"><ele>707.0</ele><time>2026-05-03T07:17:25.455Z</time></trkpt><trkpt lat="42.3448746" lon="13.4343363"><ele>707.0</ele><time>2026-05-03T07:17:27.455Z</time></trkpt><trkpt lat="42.3448383" lon="13.4344157"><ele>707.0</ele><time>2026-05-03T07:17:28.448Z</time></trkpt><trkpt lat="42.3447958" lon="13.4345138"><ele>707.0</ele><time>2026-05-03T07:17:29.455Z</time></trkpt><trkpt lat="42.344747" lon="13.4346205"><ele>707.0</ele><time>2026-05-03T07:17:30.449Z</time></trkpt><trkpt lat="42.3446959" lon="13.4347383"><ele>707.0</ele><time>2026-05-03T07:17:31.454Z</time></trkpt><trkpt lat="42.344649" lon="13.4348525"><ele>707.0</ele><time>2026-05-03T07:17:32.458Z</time></trkpt><trkpt lat="42.3446063" lon="13.4349641"><ele>707.0</ele><time>2026-05-03T07:17:33.452Z</time></trkpt><trkpt lat="42.3445652" lon="13.4350789"><ele>705.0</ele><time>2026-05-03T07:17:34.456Z</time></trkpt><trkpt lat="42.3445223" lon="13.4351904"><ele>703.0</ele><time>2026-05-03T07:17:35.447Z</time></trkpt><trkpt lat="42.3444734" lon="13.4353109"><ele>701.0</ele><time>2026-05-03T07:17:36.453Z</time></trkpt><trkpt lat="42.3444287" lon="13.4354255"><ele>699.0</ele><time>2026-05-03T07:17:37.453Z</time></trkpt><trkpt lat="42.3443849" lon="13.4355223"><ele>697.0</ele><time>2026-05-03T07:17:38.447Z</time></trkpt><trkpt lat="42.3443365" lon="13.4356185"><ele>697.0</ele><time>2026-05-03T07:17:39.454Z</time></trkpt><trkpt lat="42.3442883" lon="13.4357187"><ele>697.0</ele><time>2026-05-03T07:17:40.446Z</time></trkpt><trkpt lat="42.3442416" lon="13.4358113"><ele>697.0</ele><time>2026-05-03T07:17:41.446Z</time></trkpt><trkpt lat="42.344208" lon="13.4358965"><ele>697.0</ele><time>2026-05-03T07:17:42.442Z</time></trkpt><trkpt lat="42.3441972" lon="13.4359819"><ele>697.0</ele><time>2026-05-03T07:17:43.469Z</time></trkpt><trkpt lat="42.3441983" lon="13.4360834"><ele>697.0</ele><time>2026-05-03T07:17:44.45Z</time></trkpt><trkpt lat="42.3442014" lon="13.4362086"><ele>696.8</ele><time>2026-05-03T07:17:45.444Z</time></trkpt><trkpt lat="42.3441925" lon="13.4363447"><ele>696.6</ele><time>2026-05-03T07:17:46.449Z</time></trkpt><trkpt lat="42.344184" lon="13.4364804"><ele>696.4</ele><time>2026-05-03T07:17:47.443Z</time></trkpt><trkpt lat="42.3441806" lon="13.4366026"><ele>696.1999999999999</ele><time>2026-05-03T07:17:48.45Z</time></trkpt><trkpt lat="42.3441768" lon="13.4367153"><ele>696.0</ele><time>2026-05-03T07:17:49.439Z</time></trkpt><trkpt lat="42.3441734" lon="13.4368214"><ele>696.0</ele><time>2026-05-03T07:17:50.447Z</time></trkpt><trkpt lat="42.3441621" lon="13.4369158"><ele>696.0</ele><time>2026-05-03T07:17:51.435Z</time></trkpt><trkpt lat="42.3441387" lon="13.437017"><ele>696.0</ele><time>2026-05-03T07:17:52.441Z</time></trkpt><trkpt lat="42.3440959" lon="13.437117"><ele>696.0</ele><time>2026-05-03T07:17:53.448Z</time></trkpt><trkpt lat="42.344055" lon="13.4372087"><ele>696.0</ele><time>2026-05-03T07:17:54.445Z</time></trkpt><trkpt lat="42.3440259" lon="13.4373087"><ele>696.0</ele><time>2026-05-03T07:17:55.444Z</time></trkpt><trkpt lat="42.3440112" lon="13.4374145"><ele>697.1666666666666</ele><time>2026-05-03T07:17:56.445Z</time></trkpt><trkpt lat="42.344007" lon="13.4375376"><ele>698.3333333333334</ele><time>2026-05-03T07:17:57.441Z</time></trkpt><trkpt lat="42.3439994" lon="13.4376656"><ele>699.5</ele><time>2026-05-03T07:17:58.444Z</time></trkpt><trkpt lat="42.3439807" lon="13.4377907"><ele>700.6666666666667</ele><time>2026-05-03T07:17:59.443Z</time></trkpt><trkpt lat="42.3439632" lon="13.4378946"><ele>701.8333333333334</ele><time>2026-05-03T07:18:00.444Z</time></trkpt><trkpt lat="42.3439518" lon="13.4380015"><ele>703.0</ele><time>2026-05-03T07:18:01.45Z</time></trkpt><trkpt lat="42.3439396" lon="13.4381204"><ele>704.3333333333334</ele><time>2026-05-03T07:18:02.444Z</time></trkpt><trkpt lat="42.3439174" lon="13.4382441"><ele>705.6666666666667</ele><time>2026-05-03T07:18:03.452Z</time></trkpt><trkpt lat="42.3438976" lon="13.4383471"><ele>707.0</ele><time>2026-05-03T07:18:04.444Z</time></trkpt><trkpt lat="42.3438834" lon="13.4384416"><ele>708.3333333333334</ele><time>2026-05-03T07:18:05.45Z</time></trkpt><trkpt lat="42.3438737" lon="13.4385433"><ele>709.6666666666666</ele><time>2026-05-03T07:18:06.445Z</time></trkpt><trkpt lat="42.343858" lon="13.4386291"><ele>711.0</ele><time>2026-05-03T07:18:07.443Z</time></trkpt><trkpt lat="42.3438148" lon="13.4387592"><ele>708.5</ele><time>2026-05-03T07:18:09.439Z</time></trkpt><trkpt lat="42.3437835" lon="13.4388341"><ele>706.0</ele><time>2026-05-03T07:18:13.44Z</time></trkpt><trkpt lat="42.3437385" lon="13.4389007"><ele>703.5</ele><time>2026-05-03T07:18:23.446Z</time></trkpt><trkpt lat="42.3436503" lon="13.4389851"><ele>701.0</ele><time>2026-05-03T07:18:25.443Z</time></trkpt><trkpt lat="42.3435811" lon="13.4390329"><ele>698.5</ele><time>2026-05-03T07:18:26.444Z</time></trkpt><trkpt lat="42.3435068" lon="13.4390895"><ele>696.0</ele><time>2026-05-03T07:18:27.439Z</time></trkpt><trkpt lat="42.3434353" lon="13.4391699"><ele>696.0</ele><time>2026-05-03T07:18:28.447Z</time></trkpt><trkpt lat="42.3433737" lon="13.4392658"><ele>696.0</ele><time>2026-05-03T07:18:29.445Z</time></trkpt><trkpt lat="42.3433155" lon="13.4393525"><ele>696.0</ele><time>2026-05-03T07:18:30.438Z</time></trkpt><trkpt lat="42.3432615" lon="13.4394196"><ele>696.0</ele><time>2026-05-03T07:18:31.456Z</time></trkpt><trkpt lat="42.3431694" lon="13.4395435"><ele>696.0</ele><time>2026-05-03T07:18:33.443Z</time></trkpt><trkpt lat="42.343117" lon="13.4396196"><ele>695.6666666666666</ele><time>2026-05-03T07:18:34.443Z</time></trkpt><trkpt lat="42.343065" lon="13.4397003"><ele>695.3333333333334</ele><time>2026-05-03T07:18:35.441Z</time></trkpt><trkpt lat="42.3429975" lon="13.4397754"><ele>695.0</ele><time>2026-05-03T07:18:36.442Z</time></trkpt><trkpt lat="42.3429293" lon="13.4398331"><ele>694.6666666666667</ele><time>2026-05-03T07:18:37.439Z</time></trkpt><trkpt lat="42.3428568" lon="13.439869"><ele>694.3333333333334</ele><time>2026-05-03T07:18:38.44Z</time></trkpt><trkpt lat="42.3427821" lon="13.4398843"><ele>694.0</ele><time>2026-05-03T07:18:39.441Z</time></trkpt><trkpt lat="42.3427098" lon="13.4398933"><ele>694.0</ele><time>2026-05-03T07:18:40.454Z</time></trkpt><trkpt lat="42.3426424" lon="13.4398853"><ele>694.0</ele><time>2026-05-03T07:18:41.439Z</time></trkpt><trkpt lat="42.3425704" lon="13.4398587"><ele>694.0</ele><time>2026-05-03T07:18:42.447Z</time></trkpt><trkpt lat="42.3424907" lon="13.4398388"><ele>694.0</ele><time>2026-05-03T07:18:43.446Z</time></trkpt><trkpt lat="42.3424179" lon="13.4398332"><ele>694.0</ele><time>2026-05-03T07:18:44.466Z</time></trkpt><trkpt lat="42.342352" lon="13.4398418"><ele>694.0</ele><time>2026-05-03T07:18:45.448Z</time></trkpt><trkpt lat="42.3422842" lon="13.4398729"><ele>694.0</ele><time>2026-05-03T07:18:46.45Z</time></trkpt><trkpt lat="42.3422211" lon="13.4399158"><ele>692.5714285714286</ele><time>2026-05-03T07:18:47.45Z</time></trkpt><trkpt lat="42.3421593" lon="13.4399641"><ele>691.1428571428571</ele><time>2026-05-03T07:18:48.444Z</time></trkpt><trkpt lat="42.3420996" lon="13.4400062"><ele>689.7142857142857</ele><time>2026-05-03T07:18:49.447Z</time></trkpt><trkpt lat="42.3420329" lon="13.4400329"><ele>688.2857142857142</ele><time>2026-05-03T07:18:50.446Z</time></trkpt><trkpt lat="42.341962" lon="13.4400583"><ele>686.8571428571429</ele><time>2026-05-03T07:18:51.45Z</time></trkpt><trkpt lat="42.341888" lon="13.440083"><ele>685.4285714285713</ele><time>2026-05-03T07:18:52.444Z</time></trkpt><trkpt lat="42.3418163" lon="13.4401141"><ele>684.0</ele><time>2026-05-03T07:18:53.451Z</time></trkpt><trkpt lat="42.341748" lon="13.4401534"><ele>684.0</ele><time>2026-05-03T07:18:54.446Z</time></trkpt><trkpt lat="42.3416703" lon="13.4401841"><ele>684.0</ele><time>2026-05-03T07:18:55.447Z</time></trkpt><trkpt lat="42.3415898" lon="13.4402046"><ele>684.0</ele><time>2026-05-03T07:18:56.439Z</time></trkpt><trkpt lat="42.3415095" lon="13.4402177"><ele>684.0</ele><time>2026-05-03T07:18:57.442Z</time></trkpt><trkpt lat="42.3414273" lon="13.4402167"><ele>684.0</ele><time>2026-05-03T07:18:58.44Z</time></trkpt><trkpt lat="42.3413471" lon="13.4402124"><ele>684.0</ele><time>2026-05-03T07:18:59.441Z</time></trkpt><trkpt lat="42.341272" lon="13.4401893"><ele>682.1666666666666</ele><time>2026-05-03T07:19:00.439Z</time></trkpt><trkpt lat="42.3412008" lon="13.4401668"><ele>680.3333333333334</ele><time>2026-05-03T07:19:01.447Z</time></trkpt><trkpt lat="42.341137" lon="13.4401802"><ele>678.5</ele><time>2026-05-03T07:19:02.439Z</time></trkpt><trkpt lat="42.3410361" lon="13.4402146"><ele>676.6666666666667</ele><time>2026-05-03T07:19:04.442Z</time></trkpt><trkpt lat="42.3409282" lon="13.4402743"><ele>674.8333333333334</ele><time>2026-05-03T07:19:06.441Z</time></trkpt><trkpt lat="42.3408682" lon="13.4403063"><ele>673.0</ele><time>2026-05-03T07:19:07.444Z</time></trkpt><trkpt lat="42.3407469" lon="13.4403605"><ele>673.0</ele><time>2026-05-03T07:19:09.444Z</time></trkpt><trkpt lat="42.3406319" lon="13.4404175"><ele>673.0</ele><time>2026-05-03T07:19:11.445Z</time></trkpt><trkpt lat="42.340569" lon="13.4404441"><ele>673.0</ele><time>2026-05-03T07:19:12.451Z</time></trkpt><trkpt lat="42.3404527" lon="13.4405045"><ele>673.0</ele><time>2026-05-03T07:19:14.451Z</time></trkpt><trkpt lat="42.3404024" lon="13.4405569"><ele>673.0</ele><time>2026-05-03T07:19:15.457Z</time></trkpt><trkpt lat="42.3403382" lon="13.4406997"><ele>671.0</ele><time>2026-05-03T07:19:17.444Z</time></trkpt><trkpt lat="42.3403169" lon="13.4407964"><ele>669.0</ele><time>2026-05-03T07:19:18.445Z</time></trkpt><trkpt lat="42.3402921" lon="13.440895"><ele>667.0</ele><time>2026-05-03T07:19:19.45Z</time></trkpt><trkpt lat="42.3402699" lon="13.4409925"><ele>665.0</ele><time>2026-05-03T07:19:20.456Z</time></trkpt><trkpt lat="42.3402524" lon="13.4410844"><ele>663.0</ele><time>2026-05-03T07:19:21.44Z</time></trkpt><trkpt lat="42.3402366" lon="13.4411705"><ele>661.0</ele><time>2026-05-03T07:19:22.453Z</time></trkpt><trkpt lat="42.3402214" lon="13.4413101"><ele>660.0</ele><time>2026-05-03T07:19:24.446Z</time></trkpt><trkpt lat="42.3401959" lon="13.4414323"><ele>659.0</ele><time>2026-05-03T07:19:26.446Z</time></trkpt><trkpt lat="42.3401613" lon="13.4415473"><ele>658.0</ele><time>2026-05-03T07:19:28.449Z</time></trkpt><trkpt lat="42.34013" lon="13.4417042"><ele>657.0</ele><time>2026-05-03T07:19:30.442Z</time></trkpt><trkpt lat="42.3401025" lon="13.4418197"><ele>656.0</ele><time>2026-05-03T07:19:31.432Z</time></trkpt><trkpt lat="42.3400637" lon="13.4419458"><ele>656.0</ele><time>2026-05-03T07:19:32.439Z</time></trkpt><trkpt lat="42.3400164" lon="13.4420795"><ele>656.0</ele><time>2026-05-03T07:19:33.434Z</time></trkpt><trkpt lat="42.3399724" lon="13.4422138"><ele>656.0</ele><time>2026-05-03T07:19:34.439Z</time></trkpt><trkpt lat="42.3399348" lon="13.4423617"><ele>656.0</ele><time>2026-05-03T07:19:35.442Z</time></trkpt><trkpt lat="42.3398985" lon="13.4425092"><ele>656.0</ele><time>2026-05-03T07:19:36.439Z</time></trkpt><trkpt lat="42.3398647" lon="13.4426488"><ele>655.4</ele><time>2026-05-03T07:19:37.444Z</time></trkpt><trkpt lat="42.3398423" lon="13.4427712"><ele>654.8</ele><time>2026-05-03T07:19:38.442Z</time></trkpt><trkpt lat="42.339821" lon="13.4428799"><ele>654.1999999999999</ele><time>2026-05-03T07:19:39.441Z</time></trkpt><trkpt lat="42.339796" lon="13.4430024"><ele>653.5999999999999</ele><time>2026-05-03T07:19:40.447Z</time></trkpt><trkpt lat="42.3397568" lon="13.4431283"><ele>653.0</ele><time>2026-05-03T07:19:41.444Z</time></trkpt><trkpt lat="42.3397057" lon="13.4432487"><ele>651.2</ele><time>2026-05-03T07:19:42.446Z</time></trkpt><trkpt lat="42.3396506" lon="13.4433507"><ele>649.4</ele><time>2026-05-03T07:19:43.441Z</time></trkpt><trkpt lat="42.3395902" lon="13.44343"><ele>647.6</ele><time>2026-05-03T07:19:44.445Z</time></trkpt><trkpt lat="42.3395176" lon="13.4435075"><ele>645.8000000000001</ele><time>2026-05-03T07:19:45.441Z</time></trkpt><trkpt lat="42.339432" lon="13.4435961"><ele>644.0</ele><time>2026-05-03T07:19:46.457Z</time></trkpt><trkpt lat="42.3393423" lon="13.4436907"><ele>644.0</ele><time>2026-05-03T07:19:47.441Z</time></trkpt><trkpt lat="42.3392543" lon="13.4437828"><ele>644.0</ele><time>2026-05-03T07:19:48.447Z</time></trkpt><trkpt lat="42.3391709" lon="13.4438701"><ele>644.0</ele><time>2026-05-03T07:19:49.444Z</time></trkpt><trkpt lat="42.3390939" lon="13.4439537"><ele>644.0</ele><time>2026-05-03T07:19:50.442Z</time></trkpt><trkpt lat="42.3390386" lon="13.4440331"><ele>644.0</ele><time>2026-05-03T07:19:51.442Z</time></trkpt><trkpt lat="42.3390002" lon="13.4441138"><ele>645.3333333333333</ele><time>2026-05-03T07:19:52.451Z</time></trkpt><trkpt lat="42.3389736" lon="13.4442004"><ele>646.6666666666666</ele><time>2026-05-03T07:19:53.443Z</time></trkpt><trkpt lat="42.3389537" lon="13.4442878"><ele>648.0</ele><time>2026-05-03T07:19:54.451Z</time></trkpt><trkpt lat="42.3389448" lon="13.4443895"><ele>649.3333333333334</ele><time>2026-05-03T07:19:55.441Z</time></trkpt><trkpt lat="42.3389483" lon="13.4445087"><ele>650.6666666666667</ele><time>2026-05-03T07:19:56.446Z</time></trkpt><trkpt lat="42.3389612" lon="13.4446423"><ele>652.0</ele><time>2026-05-03T07:19:57.441Z</time></trkpt><trkpt lat="42.3389741" lon="13.4447756"><ele>652.0</ele><time>2026-05-03T07:19:58.445Z</time></trkpt><trkpt lat="42.3389698" lon="13.4449236"><ele>652.0</ele><time>2026-05-03T07:19:59.435Z</time></trkpt><trkpt lat="42.3389514" lon="13.445102"><ele>652.0</ele><time>2026-05-03T07:20:00.44Z</time></trkpt><trkpt lat="42.3389275" lon="13.4453027"><ele>652.0</ele><time>2026-05-03T07:20:01.436Z</time></trkpt><trkpt lat="42.3388904" lon="13.4455343"><ele>648.0</ele><time>2026-05-03T07:20:02.438Z</time></trkpt><trkpt lat="42.3388551" lon="13.445727"><ele>644.0</ele><time>2026-05-03T07:20:03.436Z</time></trkpt><trkpt lat="42.3388131" lon="13.4458961"><ele>640.0</ele><time>2026-05-03T07:20:04.431Z</time></trkpt><trkpt lat="42.3387494" lon="13.4460866"><ele>636.0</ele><time>2026-05-03T07:20:05.432Z</time></trkpt><trkpt lat="42.3386633" lon="13.4462741"><ele>637.3333333333334</ele><time>2026-05-03T07:20:06.437Z</time></trkpt><trkpt lat="42.3385773" lon="13.4464792"><ele>638.6666666666667</ele><time>2026-05-03T07:20:07.437Z</time></trkpt><trkpt lat="42.338505" lon="13.4466893"><ele>640.0</ele><time>2026-05-03T07:20:08.437Z</time></trkpt><trkpt lat="42.3384143" lon="13.4468825"><ele>640.0</ele><time>2026-05-03T07:20:09.433Z</time></trkpt><trkpt lat="42.3383645" lon="13.4470683"><ele>640.0</ele><time>2026-05-03T07:20:10.434Z</time></trkpt><trkpt lat="42.3383037" lon="13.4472515"><ele>640.0</ele><time>2026-05-03T07:20:11.438Z</time></trkpt><trkpt lat="42.3382533" lon="13.4474121"><ele>640.0</ele><time>2026-05-03T07:20:12.441Z</time></trkpt><trkpt lat="42.3382059" lon="13.4475885"><ele>640.25</ele><time>2026-05-03T07:20:13.439Z</time></trkpt><trkpt lat="42.3381674" lon="13.4477861"><ele>640.5</ele><time>2026-05-03T07:20:14.439Z</time></trkpt><trkpt lat="42.3381087" lon="13.4479493"><ele>640.75</ele><time>2026-05-03T07:20:15.443Z</time></trkpt><trkpt lat="42.3380612" lon="13.4481293"><ele>641.0</ele><time>2026-05-03T07:20:16.441Z</time></trkpt><trkpt lat="42.3380159" lon="13.4483201"><ele>637.0</ele><time>2026-05-03T07:20:17.463Z</time></trkpt><trkpt lat="42.3379605" lon="13.4485061"><ele>633.0</ele><time>2026-05-03T07:20:18.442Z</time></trkpt><trkpt lat="42.3378968" lon="13.4486914"><ele>629.0</ele><time>2026-05-03T07:20:19.447Z</time></trkpt><trkpt lat="42.3378536" lon="13.4488651"><ele>625.0</ele><time>2026-05-03T07:20:20.433Z</time></trkpt><trkpt lat="42.3378082" lon="13.4490295"><ele>625.0</ele><time>2026-05-03T07:20:21.444Z</time></trkpt><trkpt lat="42.3377745" lon="13.4491937"><ele>625.0</ele><time>2026-05-03T07:20:22.441Z</time></trkpt><trkpt lat="42.337752" lon="13.4493647"><ele>625.0</ele><time>2026-05-03T07:20:23.449Z</time></trkpt><trkpt lat="42.3377328" lon="13.4495144"><ele>625.0</ele><time>2026-05-03T07:20:24.441Z</time></trkpt><trkpt lat="42.3377261" lon="13.4496755"><ele>624.75</ele><time>2026-05-03T07:20:25.446Z</time></trkpt><trkpt lat="42.3377383" lon="13.4498446"><ele>624.5</ele><time>2026-05-03T07:20:26.439Z</time></trkpt><trkpt lat="42.3377622" lon="13.4500252"><ele>624.25</ele><time>2026-05-03T07:20:27.446Z</time></trkpt><trkpt lat="42.3377841" lon="13.4502118"><ele>624.0</ele><time>2026-05-03T07:20:28.434Z</time></trkpt><trkpt lat="42.3378071" lon="13.4504003"><ele>623.5</ele><time>2026-05-03T07:20:29.442Z</time></trkpt><trkpt lat="42.3378298" lon="13.450589"><ele>623.0</ele><time>2026-05-03T07:20:30.447Z</time></trkpt><trkpt lat="42.3378323" lon="13.4507587"><ele>622.5</ele><time>2026-05-03T07:20:31.445Z</time></trkpt><trkpt lat="42.3378306" lon="13.4509267"><ele>622.0</ele><time>2026-05-03T07:20:32.454Z</time></trkpt><trkpt lat="42.3378318" lon="13.4510907"><ele>622.0</ele><time>2026-05-03T07:20:33.442Z</time></trkpt><trkpt lat="42.3378285" lon="13.4512438"><ele>622.0</ele><time>2026-05-03T07:20:34.446Z</time></trkpt><trkpt lat="42.3378366" lon="13.4514128"><ele>622.0</ele><time>2026-05-03T07:20:35.442Z</time></trkpt><trkpt lat="42.3378542" lon="13.4515905"><ele>622.0</ele><time>2026-05-03T07:20:36.445Z</time></trkpt><trkpt lat="42.3378641" lon="13.451767"><ele>621.6</ele><time>2026-05-03T07:20:37.436Z</time></trkpt><trkpt lat="42.3378759" lon="13.4519289"><ele>621.2</ele><time>2026-05-03T07:20:38.441Z</time></trkpt><trkpt lat="42.3378855" lon="13.452076"><ele>620.8</ele><time>2026-05-03T07:20:39.433Z</time></trkpt><trkpt lat="42.3378915" lon="13.4522241"><ele>620.4</ele><time>2026-05-03T07:20:40.444Z</time></trkpt><trkpt lat="42.3378982" lon="13.4523643"><ele>620.0</ele><time>2026-05-03T07:20:41.438Z</time></trkpt><trkpt lat="42.337907" lon="13.4524937"><ele>619.3333333333333</ele><time>2026-05-03T07:20:42.434Z</time></trkpt><trkpt lat="42.3379228" lon="13.4526141"><ele>618.6666666666666</ele><time>2026-05-03T07:20:43.44Z</time></trkpt><trkpt lat="42.3379297" lon="13.4527125"><ele>618.0</ele><time>2026-05-03T07:20:44.434Z</time></trkpt><trkpt lat="42.3379387" lon="13.4528481"><ele>617.3333333333334</ele><time>2026-05-03T07:20:46.433Z</time></trkpt><trkpt lat="42.3379771" lon="13.4529388"><ele>616.6666666666667</ele><time>2026-05-03T07:20:48.448Z</time></trkpt><trkpt lat="42.3380406" lon="13.4530518"><ele>616.0</ele><time>2026-05-03T07:20:50.442Z</time></trkpt><trkpt lat="42.3380917" lon="13.4531925"><ele>617.5714285714286</ele><time>2026-05-03T07:20:52.439Z</time></trkpt><trkpt lat="42.3381145" lon="13.4532787"><ele>619.1428571428571</ele><time>2026-05-03T07:20:53.418Z</time></trkpt><trkpt lat="42.3381362" lon="13.4533841"><ele>620.7142857142858</ele><time>2026-05-03T07:20:54.424Z</time></trkpt><trkpt lat="42.3381475" lon="13.4534959"><ele>622.2857142857142</ele><time>2026-05-03T07:20:55.419Z</time></trkpt><trkpt lat="42.3381684" lon="13.4535924"><ele>623.8571428571429</ele><time>2026-05-03T07:20:56.438Z</time></trkpt><trkpt lat="42.338181" lon="13.4536828"><ele>625.4285714285714</ele><time>2026-05-03T07:20:57.427Z</time></trkpt><trkpt lat="42.3381847" lon="13.453784"><ele>627.0</ele><time>2026-05-03T07:20:58.434Z</time></trkpt><trkpt lat="42.3381811" lon="13.4538959"><ele>627.0</ele><time>2026-05-03T07:20:59.437Z</time></trkpt><trkpt lat="42.3381668" lon="13.4540153"><ele>627.0</ele><time>2026-05-03T07:21:00.431Z</time></trkpt><trkpt lat="42.3381432" lon="13.4541372"><ele>627.0</ele><time>2026-05-03T07:21:01.435Z</time></trkpt><trkpt lat="42.3381194" lon="13.4542539"><ele>627.0</ele><time>2026-05-03T07:21:02.432Z</time></trkpt><trkpt lat="42.3381061" lon="13.4543686"><ele>627.0</ele><time>2026-05-03T07:21:03.435Z</time></trkpt><trkpt lat="42.338089" lon="13.4544833"><ele>627.0</ele><time>2026-05-03T07:21:04.426Z</time></trkpt><trkpt lat="42.3380728" lon="13.4545705"><ele>626.0</ele><time>2026-05-03T07:21:05.428Z</time></trkpt><trkpt lat="42.3380618" lon="13.4546807"><ele>625.0</ele><time>2026-05-03T07:21:07.428Z</time></trkpt><trkpt lat="42.3380759" lon="13.4548017"><ele>624.0</ele><time>2026-05-03T07:21:09.424Z</time></trkpt><trkpt lat="42.3380953" lon="13.4548878"><ele>623.0</ele><time>2026-05-03T07:21:10.422Z</time></trkpt><trkpt lat="42.3381154" lon="13.4549934"><ele>622.0</ele><time>2026-05-03T07:21:11.437Z</time></trkpt><trkpt lat="42.3381429" lon="13.4551098"><ele>621.0</ele><time>2026-05-03T07:21:12.432Z</time></trkpt><trkpt lat="42.338176" lon="13.4552158"><ele>621.0</ele><time>2026-05-03T07:21:13.434Z</time></trkpt><trkpt lat="42.3382069" lon="13.455318"><ele>621.0</ele><time>2026-05-03T07:21:14.425Z</time></trkpt><trkpt lat="42.3382286" lon="13.4554011"><ele>621.0</ele><time>2026-05-03T07:21:15.425Z</time></trkpt><trkpt lat="42.3382524" lon="13.4555044"><ele>621.0</ele><time>2026-05-03T07:21:17.429Z</time></trkpt><trkpt lat="42.3381768" lon="13.4555691"><ele>621.0</ele><time>2026-05-03T07:21:19.438Z</time></trkpt><trkpt lat="42.3380697" lon="13.4555609"><ele>621.0</ele><time>2026-05-03T07:21:21.424Z</time></trkpt><trkpt lat="42.338169" lon="13.4556453"><ele>617.0</ele><time>2026-05-03T07:21:27.422Z</time></trkpt><trkpt lat="42.3382678" lon="13.4556827"><ele>613.0</ele><time>2026-05-03T07:21:28.428Z</time></trkpt><trkpt lat="42.3383882" lon="13.4557273"><ele>609.0</ele><time>2026-05-03T07:21:29.428Z</time></trkpt><trkpt lat="42.3385066" lon="13.4557738"><ele>605.0</ele><time>2026-05-03T07:21:30.431Z</time></trkpt><trkpt lat="42.3386172" lon="13.4558268"><ele>605.0</ele><time>2026-05-03T07:21:31.427Z</time></trkpt><trkpt lat="42.3387127" lon="13.4558687"><ele>605.0</ele><time>2026-05-03T07:21:32.428Z</time></trkpt><trkpt lat="42.3388146" lon="13.4559185"><ele>605.0</ele><time>2026-05-03T07:21:33.422Z</time></trkpt><trkpt lat="42.3389183" lon="13.4559678"><ele>605.0</ele><time>2026-05-03T07:21:34.428Z</time></trkpt><trkpt lat="42.3390271" lon="13.4560122"><ele>605.0</ele><time>2026-05-03T07:21:35.419Z</time></trkpt><trkpt lat="42.3391361" lon="13.4560539"><ele>606.0</ele><time>2026-05-03T07:21:36.421Z</time></trkpt><trkpt lat="42.3392431" lon="13.4560782"><ele>607.0</ele><time>2026-05-03T07:21:37.427Z</time></trkpt><trkpt lat="42.3393536" lon="13.4560883"><ele>608.0</ele><time>2026-05-03T07:21:38.425Z</time></trkpt><trkpt lat="42.3394618" lon="13.4560812"><ele>609.0</ele><time>2026-05-03T07:21:39.423Z</time></trkpt><trkpt lat="42.3395653" lon="13.4560857"><ele>610.0</ele><time>2026-05-03T07:21:40.419Z</time></trkpt><trkpt lat="42.3396565" lon="13.4561103"><ele>609.3333333333334</ele><time>2026-05-03T07:21:41.417Z</time></trkpt><trkpt lat="42.3397319" lon="13.4561775"><ele>608.6666666666667</ele><time>2026-05-03T07:21:42.413Z</time></trkpt><trkpt lat="42.3397818" lon="13.4562649"><ele>608.0</ele><time>2026-05-03T07:21:43.427Z</time></trkpt><trkpt lat="42.3398036" lon="13.4563617"><ele>607.3333333333334</ele><time>2026-05-03T07:21:44.427Z</time></trkpt><trkpt lat="42.3398061" lon="13.4564602"><ele>606.6666666666666</ele><time>2026-05-03T07:21:45.428Z</time></trkpt><trkpt lat="42.3397971" lon="13.4565503"><ele>606.0</ele><time>2026-05-03T07:21:46.423Z</time></trkpt><trkpt lat="42.3397891" lon="13.4566501"><ele>604.75</ele><time>2026-05-03T07:21:52.439Z</time></trkpt><trkpt lat="42.3399206" lon="13.4567007"><ele>603.5</ele><time>2026-05-03T07:21:55.429Z</time></trkpt><trkpt lat="42.3400253" lon="13.4567211"><ele>602.25</ele><time>2026-05-03T07:21:56.431Z</time></trkpt><trkpt lat="42.3401543" lon="13.4567706"><ele>601.0</ele><time>2026-05-03T07:21:57.434Z</time></trkpt><trkpt lat="42.3402958" lon="13.4568135"><ele>601.0</ele><time>2026-05-03T07:21:58.435Z</time></trkpt><trkpt lat="42.3404312" lon="13.4568656"><ele>601.0</ele><time>2026-05-03T07:21:59.441Z</time></trkpt><trkpt lat="42.3405551" lon="13.4569109"><ele>601.0</ele><time>2026-05-03T07:22:00.441Z</time></trkpt><trkpt lat="42.340678" lon="13.4569593"><ele>601.0</ele><time>2026-05-03T07:22:01.45Z</time></trkpt><trkpt lat="42.3408084" lon="13.457013"><ele>600.75</ele><time>2026-05-03T07:22:02.438Z</time></trkpt><trkpt lat="42.3409336" lon="13.4570737"><ele>600.5</ele><time>2026-05-03T07:22:03.447Z</time></trkpt><trkpt lat="42.3410583" lon="13.4571305"><ele>600.25</ele><time>2026-05-03T07:22:04.442Z</time></trkpt><trkpt lat="42.3411805" lon="13.4571939"><ele>600.0</ele><time>2026-05-03T07:22:05.445Z</time></trkpt><trkpt lat="42.3413026" lon="13.4572751"><ele>600.25</ele><time>2026-05-03T07:22:06.433Z</time></trkpt><trkpt lat="42.3414103" lon="13.4573675"><ele>600.5</ele><time>2026-05-03T07:22:07.445Z</time></trkpt><trkpt lat="42.3415038" lon="13.4574711"><ele>600.75</ele><time>2026-05-03T07:22:08.439Z</time></trkpt><trkpt lat="42.3415841" lon="13.4575858"><ele>601.0</ele><time>2026-05-03T07:22:09.447Z</time></trkpt><trkpt lat="42.3416717" lon="13.4577069"><ele>601.0</ele><time>2026-05-03T07:22:10.442Z</time></trkpt><trkpt lat="42.3417675" lon="13.4578383"><ele>601.0</ele><time>2026-05-03T07:22:11.448Z</time></trkpt><trkpt lat="42.3418713" lon="13.4579873"><ele>601.0</ele><time>2026-05-03T07:22:12.445Z</time></trkpt><trkpt lat="42.3419805" lon="13.4581405"><ele>601.0</ele><time>2026-05-03T07:22:13.452Z</time></trkpt><trkpt lat="42.3421185" lon="13.4582966"><ele>601.0</ele><time>2026-05-03T07:22:14.444Z</time></trkpt><trkpt lat="42.3422525" lon="13.4584654"><ele>601.0</ele><time>2026-05-03T07:22:15.452Z</time></trkpt><trkpt lat="42.3423917" lon="13.4586415"><ele>601.0</ele><time>2026-05-03T07:22:16.446Z</time></trkpt><trkpt lat="42.342504" lon="13.4588146"><ele>601.0</ele><time>2026-05-03T07:22:17.454Z</time></trkpt><trkpt lat="42.3426234" lon="13.4589839"><ele>601.0</ele><time>2026-05-03T07:22:18.447Z</time></trkpt><trkpt lat="42.3427288" lon="13.4591493"><ele>601.0</ele><time>2026-05-03T07:22:19.454Z</time></trkpt><trkpt lat="42.3428317" lon="13.4592901"><ele>601.0</ele><time>2026-05-03T07:22:20.45Z</time></trkpt><trkpt lat="42.3429588" lon="13.4594386"><ele>601.0</ele><time>2026-05-03T07:22:21.467Z</time></trkpt><trkpt lat="42.3430714" lon="13.4595955"><ele>601.0</ele><time>2026-05-03T07:22:22.456Z</time></trkpt><trkpt lat="42.3431953" lon="13.4597353"><ele>602.6666666666667</ele><time>2026-05-03T07:22:23.456Z</time></trkpt><trkpt lat="42.3432987" lon="13.4598931"><ele>604.3333333333334</ele><time>2026-05-03T07:22:24.463Z</time></trkpt><trkpt lat="42.3434167" lon="13.4600447"><ele>606.0</ele><time>2026-05-03T07:22:25.457Z</time></trkpt><trkpt lat="42.3435343" lon="13.4601986"><ele>606.0</ele><time>2026-05-03T07:22:26.463Z</time></trkpt><trkpt lat="42.3436542" lon="13.4603564"><ele>606.0</ele><time>2026-05-03T07:22:27.457Z</time></trkpt><trkpt lat="42.3437803" lon="13.4605349"><ele>606.0</ele><time>2026-05-03T07:22:28.46Z</time></trkpt><trkpt lat="42.3438952" lon="13.4606803"><ele>607.3333333333334</ele><time>2026-05-03T07:22:29.464Z</time></trkpt><trkpt lat="42.3440095" lon="13.4608449"><ele>608.6666666666667</ele><time>2026-05-03T07:22:30.452Z</time></trkpt><trkpt lat="42.3441261" lon="13.4609934"><ele>610.0</ele><time>2026-05-03T07:22:31.461Z</time></trkpt><trkpt lat="42.3442311" lon="13.4611366"><ele>610.0</ele><time>2026-05-03T07:22:32.45Z</time></trkpt><trkpt lat="42.3443475" lon="13.4612698"><ele>610.0</ele><time>2026-05-03T07:22:33.461Z</time></trkpt><trkpt lat="42.344466" lon="13.4614137"><ele>610.0</ele><time>2026-05-03T07:22:34.454Z</time></trkpt><trkpt lat="42.3445851" lon="13.461544"><ele>609.6666666666667</ele><time>2026-05-03T07:22:35.452Z</time></trkpt><trkpt lat="42.3446985" lon="13.4616868"><ele>609.3333333333334</ele><time>2026-05-03T07:22:36.453Z</time></trkpt><trkpt lat="42.344812" lon="13.4618385"><ele>609.0</ele><time>2026-05-03T07:22:37.458Z</time></trkpt><trkpt lat="42.3449363" lon="13.4619676"><ele>609.75</ele><time>2026-05-03T07:22:38.457Z</time></trkpt><trkpt lat="42.3450458" lon="13.462069"><ele>610.5</ele><time>2026-05-03T07:22:39.456Z</time></trkpt><trkpt lat="42.3451349" lon="13.4621728"><ele>611.25</ele><time>2026-05-03T07:22:40.461Z</time></trkpt><trkpt lat="42.3452485" lon="13.4622727"><ele>612.0</ele><time>2026-05-03T07:22:41.454Z</time></trkpt><trkpt lat="42.3453278" lon="13.4623546"><ele>612.0</ele><time>2026-05-03T07:22:42.453Z</time></trkpt><trkpt lat="42.3454255" lon="13.4624075"><ele>612.0</ele><time>2026-05-03T07:22:43.452Z</time></trkpt><trkpt lat="42.3454798" lon="13.4624546"><ele>612.0</ele><time>2026-05-03T07:22:44.447Z</time></trkpt><trkpt lat="42.3455412" lon="13.4625026"><ele>612.0</ele><time>2026-05-03T07:22:45.453Z</time></trkpt><trkpt lat="42.3456019" lon="13.4625348"><ele>612.0</ele><time>2026-05-03T07:22:46.448Z</time></trkpt><trkpt lat="42.34564" lon="13.4626202"><ele>612.0</ele><time>2026-05-03T07:22:48.44Z</time></trkpt><trkpt lat="42.3455638" lon="13.4627325"><ele>612.0</ele><time>2026-05-03T07:22:51.447Z</time></trkpt><trkpt lat="42.3455038" lon="13.4627975"><ele>612.0</ele><time>2026-05-03T07:22:52.464Z</time></trkpt><trkpt lat="42.3454347" lon="13.4628775"><ele>612.0</ele><time>2026-05-03T07:22:53.445Z</time></trkpt><trkpt lat="42.3453547" lon="13.4629652"><ele>612.0</ele><time>2026-05-03T07:22:54.44Z</time></trkpt><trkpt lat="42.3452737" lon="13.4630725"><ele>612.0</ele><time>2026-05-03T07:22:55.441Z</time></trkpt><trkpt lat="42.3451951" lon="13.4631945"><ele>612.5</ele><time>2026-05-03T07:22:56.442Z</time></trkpt><trkpt lat="42.3451217" lon="13.46332"><ele>613.0</ele><time>2026-05-03T07:22:57.452Z</time></trkpt><trkpt lat="42.3450515" lon="13.4634463"><ele>613.5</ele><time>2026-05-03T07:22:58.437Z</time></trkpt><trkpt lat="42.344989" lon="13.4635818"><ele>614.0</ele><time>2026-05-03T07:22:59.443Z</time></trkpt><trkpt lat="42.344944" lon="13.4637454"><ele>614.3333333333333</ele><time>2026-05-03T07:23:00.435Z</time></trkpt><trkpt lat="42.344897" lon="13.4639233"><ele>614.6666666666666</ele><time>2026-05-03T07:23:01.451Z</time></trkpt><trkpt lat="42.3448579" lon="13.4641185"><ele>615.0</ele><time>2026-05-03T07:23:02.447Z</time></trkpt><trkpt lat="42.3448228" lon="13.464331"><ele>615.0</ele><time>2026-05-03T07:23:03.445Z</time></trkpt><trkpt lat="42.3447838" lon="13.4644963"><ele>615.0</ele><time>2026-05-03T07:23:04.447Z</time></trkpt><trkpt lat="42.3447324" lon="13.4646514"><ele>615.0</ele><time>2026-05-03T07:23:05.444Z</time></trkpt><trkpt lat="42.3446812" lon="13.4648191"><ele>615.0</ele><time>2026-05-03T07:23:06.44Z</time></trkpt><trkpt lat="42.3446611" lon="13.4649867"><ele>614.75</ele><time>2026-05-03T07:23:07.448Z</time></trkpt><trkpt lat="42.3446406" lon="13.4651619"><ele>614.5</ele><time>2026-05-03T07:23:08.438Z</time></trkpt><trkpt lat="42.3445988" lon="13.4653309"><ele>614.25</ele><time>2026-05-03T07:23:09.453Z</time></trkpt><trkpt lat="42.3445501" lon="13.4654868"><ele>614.0</ele><time>2026-05-03T07:23:10.449Z</time></trkpt><trkpt lat="42.3444932" lon="13.4656352"><ele>614.0</ele><time>2026-05-03T07:23:11.454Z</time></trkpt><trkpt lat="42.3444383" lon="13.4657632"><ele>614.0</ele><time>2026-05-03T07:23:12.449Z</time></trkpt><trkpt lat="42.3443984" lon="13.4658619"><ele>614.0</ele><time>2026-05-03T07:23:13.448Z</time></trkpt><trkpt lat="42.3443648" lon="13.4659468"><ele>614.0</ele><time>2026-05-03T07:23:14.447Z</time></trkpt><trkpt lat="42.344326" lon="13.4660622"><ele>614.0</ele><time>2026-05-03T07:23:16.45Z</time></trkpt><trkpt lat="42.3443677" lon="13.4661354"><ele>614.0</ele><time>2026-05-03T07:23:18.454Z</time></trkpt><trkpt lat="42.344496" lon="13.4662253"><ele>614.0</ele><time>2026-05-03T07:23:20.453Z</time></trkpt><trkpt lat="42.3446047" lon="13.4662628"><ele>614.0</ele><time>2026-05-03T07:23:21.445Z</time></trkpt><trkpt lat="42.3447284" lon="13.4663019"><ele>614.0</ele><time>2026-05-03T07:23:22.455Z</time></trkpt><trkpt lat="42.3448583" lon="13.4663389"><ele>614.0</ele><time>2026-05-03T07:23:23.465Z</time></trkpt><trkpt lat="42.3449933" lon="13.4663567"><ele>614.2</ele><time>2026-05-03T07:23:24.446Z</time></trkpt><trkpt lat="42.34512" lon="13.4663616"><ele>614.4</ele><time>2026-05-03T07:23:25.456Z</time></trkpt><trkpt lat="42.3452364" lon="13.4663501"><ele>614.6</ele><time>2026-05-03T07:23:26.453Z</time></trkpt><trkpt lat="42.3453406" lon="13.4663388"><ele>614.8</ele><time>2026-05-03T07:23:27.453Z</time></trkpt><trkpt lat="42.3454298" lon="13.4663256"><ele>615.0</ele><time>2026-05-03T07:23:28.448Z</time></trkpt><trkpt lat="42.3455189" lon="13.4663308"><ele>616.0</ele><time>2026-05-03T07:23:29.45Z</time></trkpt><trkpt lat="42.3456109" lon="13.4663592"><ele>617.0</ele><time>2026-05-03T07:23:30.442Z</time></trkpt><trkpt lat="42.3457165" lon="13.4664213"><ele>618.0</ele><time>2026-05-03T07:23:31.451Z</time></trkpt><trkpt lat="42.3458278" lon="13.4664912"><ele>619.0</ele><time>2026-05-03T07:23:32.447Z</time></trkpt><trkpt lat="42.3459417" lon="13.4665658"><ele>619.0</ele><time>2026-05-03T07:23:33.455Z</time></trkpt><trkpt lat="42.3460438" lon="13.4666427"><ele>619.0</ele><time>2026-05-03T07:23:34.446Z</time></trkpt><trkpt lat="42.3461394" lon="13.4667063"><ele>619.0</ele><time>2026-05-03T07:23:35.445Z</time></trkpt><trkpt lat="42.3462321" lon="13.4667647"><ele>619.0</ele><time>2026-05-03T07:23:36.445Z</time></trkpt><trkpt lat="42.3463198" lon="13.4668301"><ele>619.0</ele><time>2026-05-03T07:23:37.449Z</time></trkpt><trkpt lat="42.3463994" lon="13.466911"><ele>619.5</ele><time>2026-05-03T07:23:38.438Z</time></trkpt><trkpt lat="42.3464767" lon="13.4670162"><ele>620.0</ele><time>2026-05-03T07:23:39.444Z</time></trkpt><trkpt lat="42.3465524" lon="13.4671337"><ele>620.5</ele><time>2026-05-03T07:23:40.447Z</time></trkpt><trkpt lat="42.3466238" lon="13.4672621"><ele>621.0</ele><time>2026-05-03T07:23:41.446Z</time></trkpt><trkpt lat="42.3466933" lon="13.4673987"><ele>621.0</ele><time>2026-05-03T07:23:42.453Z</time></trkpt><trkpt lat="42.3467561" lon="13.4675153"><ele>621.0</ele><time>2026-05-03T07:23:43.448Z</time></trkpt><trkpt lat="42.3468144" lon="13.4676254"><ele>621.0</ele><time>2026-05-03T07:23:44.454Z</time></trkpt><trkpt lat="42.3468781" lon="13.4677287"><ele>621.0</ele><time>2026-05-03T07:23:45.453Z</time></trkpt><trkpt lat="42.34694" lon="13.4678264"><ele>621.0</ele><time>2026-05-03T07:23:46.449Z</time></trkpt><trkpt lat="42.3469906" lon="13.4679083"><ele>621.0</ele><time>2026-05-03T07:23:47.448Z</time></trkpt><trkpt lat="42.3470386" lon="13.4679637"><ele>621.0</ele><time>2026-05-03T07:23:48.439Z</time></trkpt><trkpt lat="42.3471685" lon="13.4679781"><ele>621.0</ele><time>2026-05-03T07:23:50.443Z</time></trkpt><trkpt lat="42.3472558" lon="13.4679498"><ele>621.0</ele><time>2026-05-03T07:23:51.457Z</time></trkpt><trkpt lat="42.3473519" lon="13.4679176"><ele>621.0</ele><time>2026-05-03T07:23:52.452Z</time></trkpt><trkpt lat="42.3474547" lon="13.4678976"><ele>621.3333333333334</ele><time>2026-05-03T07:23:53.445Z</time></trkpt><trkpt lat="42.3475425" lon="13.4678878"><ele>621.6666666666666</ele><time>2026-05-03T07:23:54.458Z</time></trkpt><trkpt lat="42.3476114" lon="13.4679033"><ele>622.0</ele><time>2026-05-03T07:23:55.452Z</time></trkpt><trkpt lat="42.3476714" lon="13.4679352"><ele>622.3333333333333</ele><time>2026-05-03T07:23:56.446Z</time></trkpt><trkpt lat="42.3477423" lon="13.4679777"><ele>622.6666666666666</ele><time>2026-05-03T07:23:57.445Z</time></trkpt><trkpt lat="42.3478266" lon="13.4680173"><ele>623.0</ele><time>2026-05-03T07:23:58.452Z</time></trkpt><trkpt lat="42.3479124" lon="13.4680631"><ele>623.1999999999999</ele><time>2026-05-03T07:23:59.447Z</time></trkpt><trkpt lat="42.3480037" lon="13.4681078"><ele>623.4</ele><time>2026-05-03T07:24:00.447Z</time></trkpt><trkpt lat="42.3481041" lon="13.4681424"><ele>623.5999999999999</ele><time>2026-05-03T07:24:01.449Z</time></trkpt><trkpt lat="42.3482162" lon="13.4681822"><ele>623.8</ele><time>2026-05-03T07:24:02.437Z</time></trkpt><trkpt lat="42.3483331" lon="13.4682275"><ele>624.0</ele><time>2026-05-03T07:24:03.443Z</time></trkpt><trkpt lat="42.3484526" lon="13.4682744"><ele>624.25</ele><time>2026-05-03T07:24:04.445Z</time></trkpt><trkpt lat="42.3485623" lon="13.4683199"><ele>624.5</ele><time>2026-05-03T07:24:05.442Z</time></trkpt><trkpt lat="42.3486723" lon="13.4683758"><ele>624.75</ele><time>2026-05-03T07:24:06.448Z</time></trkpt><trkpt lat="42.3487872" lon="13.4684278"><ele>625.0</ele><time>2026-05-03T07:24:07.442Z</time></trkpt><trkpt lat="42.3489006" lon="13.4684769"><ele>625.6</ele><time>2026-05-03T07:24:08.45Z</time></trkpt><trkpt lat="42.3490114" lon="13.4685141"><ele>626.2</ele><time>2026-05-03T07:24:09.443Z</time></trkpt><trkpt lat="42.3491057" lon="13.4685474"><ele>626.8</ele><time>2026-05-03T07:24:10.443Z</time></trkpt><trkpt lat="42.3491917" lon="13.4685787"><ele>627.4</ele><time>2026-05-03T07:24:11.439Z</time></trkpt><trkpt lat="42.3492695" lon="13.4685969"><ele>628.0</ele><time>2026-05-03T07:24:12.453Z</time></trkpt><trkpt lat="42.3493456" lon="13.4686144"><ele>628.0</ele><time>2026-05-03T07:24:13.445Z</time></trkpt><trkpt lat="42.3494323" lon="13.4686241"><ele>628.0</ele><time>2026-05-03T07:24:14.451Z</time></trkpt><trkpt lat="42.3495388" lon="13.4686351"><ele>628.0</ele><time>2026-05-03T07:24:15.441Z</time></trkpt><trkpt lat="42.3496525" lon="13.4686443"><ele>628.0</ele><time>2026-05-03T07:24:16.449Z</time></trkpt><trkpt lat="42.3497687" lon="13.4686407"><ele>628.0</ele><time>2026-05-03T07:24:17.44Z</time></trkpt><trkpt lat="42.3498885" lon="13.468637"><ele>628.1999999999999</ele><time>2026-05-03T07:24:18.456Z</time></trkpt><trkpt lat="42.3499982" lon="13.4686261"><ele>628.4</ele><time>2026-05-03T07:24:19.44Z</time></trkpt><trkpt lat="42.3501036" lon="13.4686327"><ele>628.5999999999999</ele><time>2026-05-03T07:24:20.444Z</time></trkpt><trkpt lat="42.3502069" lon="13.4686658"><ele>628.8</ele><time>2026-05-03T07:24:21.448Z</time></trkpt><trkpt lat="42.3503073" lon="13.4687361"><ele>629.0</ele><time>2026-05-03T07:24:22.443Z</time></trkpt><trkpt lat="42.3504027" lon="13.4688286"><ele>629.0</ele><time>2026-05-03T07:24:23.453Z</time></trkpt><trkpt lat="42.3504913" lon="13.4689214"><ele>629.0</ele><time>2026-05-03T07:24:24.445Z</time></trkpt><trkpt lat="42.3505857" lon="13.4689967"><ele>629.0</ele><time>2026-05-03T07:24:25.469Z</time></trkpt><trkpt lat="42.3506803" lon="13.469058"><ele>629.0</ele><time>2026-05-03T07:24:26.447Z</time></trkpt><trkpt lat="42.3507836" lon="13.4691019"><ele>629.0</ele><time>2026-05-03T07:24:27.442Z</time></trkpt><trkpt lat="42.3508933" lon="13.4691257"><ele>629.4</ele><time>2026-05-03T07:24:28.442Z</time></trkpt><trkpt lat="42.3509911" lon="13.4691332"><ele>629.8</ele><time>2026-05-03T07:24:29.441Z</time></trkpt><trkpt lat="42.3510876" lon="13.4691215"><ele>630.2</ele><time>2026-05-03T07:24:30.44Z</time></trkpt><trkpt lat="42.3511832" lon="13.4690851"><ele>630.6</ele><time>2026-05-03T07:24:31.438Z</time></trkpt><trkpt lat="42.3512817" lon="13.4690425"><ele>631.0</ele><time>2026-05-03T07:24:32.448Z</time></trkpt><trkpt lat="42.35137" lon="13.4689899"><ele>632.0</ele><time>2026-05-03T07:24:33.435Z</time></trkpt><trkpt lat="42.3514424" lon="13.4689353"><ele>633.0</ele><time>2026-05-03T07:24:34.436Z</time></trkpt><trkpt lat="42.3514973" lon="13.4688809"><ele>634.0</ele><time>2026-05-03T07:24:35.439Z</time></trkpt><trkpt lat="42.3515725" lon="13.4687451"><ele>635.0</ele><time>2026-05-03T07:24:37.445Z</time></trkpt><trkpt lat="42.3516683" lon="13.4686857"><ele>636.0</ele><time>2026-05-03T07:24:39.449Z</time></trkpt><trkpt lat="42.3517921" lon="13.4687941"><ele>636.0</ele><time>2026-05-03T07:24:41.442Z</time></trkpt><trkpt lat="42.3518726" lon="13.4689074"><ele>636.0</ele><time>2026-05-03T07:24:42.444Z</time></trkpt><trkpt lat="42.3519484" lon="13.4690239"><ele>636.0</ele><time>2026-05-03T07:24:43.445Z</time></trkpt><trkpt lat="42.3520255" lon="13.4691325"><ele>636.0</ele><time>2026-05-03T07:24:44.444Z</time></trkpt><trkpt lat="42.3520967" lon="13.4692403"><ele>636.0</ele><time>2026-05-03T07:24:45.45Z</time></trkpt><trkpt lat="42.3521663" lon="13.4693276"><ele>636.2</ele><time>2026-05-03T07:24:46.444Z</time></trkpt><trkpt lat="42.3522391" lon="13.4694185"><ele>636.4000000000001</ele><time>2026-05-03T07:24:47.449Z</time></trkpt><trkpt lat="42.3523229" lon="13.4695082"><ele>636.6</ele><time>2026-05-03T07:24:48.447Z</time></trkpt><trkpt lat="42.3524056" lon="13.4695983"><ele>636.8000000000001</ele><time>2026-05-03T07:24:49.454Z</time></trkpt><trkpt lat="42.3524791" lon="13.4696752"><ele>637.0</ele><time>2026-05-03T07:24:50.453Z</time></trkpt><trkpt lat="42.3525477" lon="13.4697538"><ele>637.4</ele><time>2026-05-03T07:24:51.448Z</time></trkpt><trkpt lat="42.3526177" lon="13.4698416"><ele>637.8000000000001</ele><time>2026-05-03T07:24:52.458Z</time></trkpt><trkpt lat="42.3526885" lon="13.469922"><ele>638.2</ele><time>2026-05-03T07:24:53.451Z</time></trkpt><trkpt lat="42.3527607" lon="13.470003"><ele>638.6</ele><time>2026-05-03T07:24:54.451Z</time></trkpt><trkpt lat="42.3528328" lon="13.4700818"><ele>639.0</ele><time>2026-05-03T07:24:55.453Z</time></trkpt><trkpt lat="42.3529101" lon="13.4701687"><ele>639.0</ele><time>2026-05-03T07:24:56.47Z</time></trkpt><trkpt lat="42.3529814" lon="13.4702804"><ele>639.0</ele><time>2026-05-03T07:24:57.451Z</time></trkpt><trkpt lat="42.3530492" lon="13.4703963"><ele>639.0</ele><time>2026-05-03T07:24:58.451Z</time></trkpt><trkpt lat="42.3531137" lon="13.4705123"><ele>639.0</ele><time>2026-05-03T07:24:59.453Z</time></trkpt><trkpt lat="42.3531766" lon="13.4706371"><ele>639.0</ele><time>2026-05-03T07:25:00.443Z</time></trkpt><trkpt lat="42.3532393" lon="13.4707696"><ele>639.6</ele><time>2026-05-03T07:25:01.443Z</time></trkpt><trkpt lat="42.353303" lon="13.470895"><ele>640.2</ele><time>2026-05-03T07:25:02.449Z</time></trkpt><trkpt lat="42.3533601" lon="13.4710113"><ele>640.8000000000001</ele><time>2026-05-03T07:25:03.441Z</time></trkpt><trkpt lat="42.3534062" lon="13.4711251"><ele>641.4</ele><time>2026-05-03T07:25:04.438Z</time></trkpt><trkpt lat="42.3534481" lon="13.4712324"><ele>642.0</ele><time>2026-05-03T07:25:05.447Z</time></trkpt><trkpt lat="42.3535018" lon="13.471333"><ele>642.0</ele><time>2026-05-03T07:25:06.447Z</time></trkpt><trkpt lat="42.3535648" lon="13.4714237"><ele>642.0</ele><time>2026-05-03T07:25:07.448Z</time></trkpt><trkpt lat="42.3536207" lon="13.4714967"><ele>642.0</ele><time>2026-05-03T07:25:08.446Z</time></trkpt><trkpt lat="42.3536896" lon="13.4715843"><ele>642.0</ele><time>2026-05-03T07:25:10.448Z</time></trkpt><trkpt lat="42.353775" lon="13.4716249"><ele>642.0</ele><time>2026-05-03T07:25:14.446Z</time></trkpt><trkpt lat="42.3539091" lon="13.4715987"><ele>642.4000000000001</ele><time>2026-05-03T07:25:16.448Z</time></trkpt><trkpt lat="42.3539943" lon="13.4715662"><ele>642.8000000000001</ele><time>2026-05-03T07:25:17.444Z</time></trkpt><trkpt lat="42.3540842" lon="13.4715377"><ele>643.2</ele><time>2026-05-03T07:25:18.448Z</time></trkpt><trkpt lat="42.3541819" lon="13.471517"><ele>643.6</ele><time>2026-05-03T07:25:19.444Z</time></trkpt><trkpt lat="42.3542723" lon="13.4714938"><ele>644.0</ele><time>2026-05-03T07:25:20.45Z</time></trkpt><trkpt lat="42.354352" lon="13.4714771"><ele>644.0</ele><time>2026-05-03T07:25:21.438Z</time></trkpt><trkpt lat="42.3544655" lon="13.4714635"><ele>644.0</ele><time>2026-05-03T07:25:23.446Z</time></trkpt><trkpt lat="42.354531" lon="13.471477"><ele>644.0</ele><time>2026-05-03T07:25:24.447Z</time></trkpt><trkpt lat="42.3545989" lon="13.4715132"><ele>644.0</ele><time>2026-05-03T07:25:25.447Z</time></trkpt><trkpt lat="42.3546613" lon="13.4715672"><ele>644.0</ele><time>2026-05-03T07:25:26.447Z</time></trkpt><trkpt lat="42.354721" lon="13.4716494"><ele>644.0</ele><time>2026-05-03T07:25:27.464Z</time></trkpt><trkpt lat="42.3547827" lon="13.4717359"><ele>644.6</ele><time>2026-05-03T07:25:28.445Z</time></trkpt><trkpt lat="42.3548598" lon="13.4718256"><ele>645.2</ele><time>2026-05-03T07:25:29.447Z</time></trkpt><trkpt lat="42.3549375" lon="13.4719291"><ele>645.8000000000001</ele><time>2026-05-03T07:25:30.434Z</time></trkpt><trkpt lat="42.3550099" lon="13.4720374"><ele>646.4000000000001</ele><time>2026-05-03T07:25:31.445Z</time></trkpt><trkpt lat="42.3550768" lon="13.4721409"><ele>647.0</ele><time>2026-05-03T07:25:32.442Z</time></trkpt><trkpt lat="42.3551538" lon="13.4722468"><ele>647.0</ele><time>2026-05-03T07:25:33.448Z</time></trkpt><trkpt lat="42.3552406" lon="13.4723522"><ele>647.0</ele><time>2026-05-03T07:25:34.434Z</time></trkpt><trkpt lat="42.3553312" lon="13.4724639"><ele>647.0</ele><time>2026-05-03T07:25:35.447Z</time></trkpt><trkpt lat="42.3554089" lon="13.4725711"><ele>647.0</ele><time>2026-05-03T07:25:36.442Z</time></trkpt><trkpt lat="42.3554802" lon="13.4726857"><ele>647.4000000000001</ele><time>2026-05-03T07:25:37.444Z</time></trkpt><trkpt lat="42.3555562" lon="13.4727881"><ele>647.8000000000001</ele><time>2026-05-03T07:25:38.45Z</time></trkpt><trkpt lat="42.3556318" lon="13.4728851"><ele>648.2</ele><time>2026-05-03T07:25:39.442Z</time></trkpt><trkpt lat="42.3557122" lon="13.4729795"><ele>648.6</ele><time>2026-05-03T07:25:40.45Z</time></trkpt><trkpt lat="42.3557963" lon="13.4730668"><ele>649.0</ele><time>2026-05-03T07:25:41.448Z</time></trkpt><trkpt lat="42.355884" lon="13.4731589"><ele>649.2</ele><time>2026-05-03T07:25:42.447Z</time></trkpt><trkpt lat="42.3559715" lon="13.4732463"><ele>649.4000000000001</ele><time>2026-05-03T07:25:43.452Z</time></trkpt><trkpt lat="42.3560613" lon="13.4733242"><ele>649.6</ele><time>2026-05-03T07:25:44.448Z</time></trkpt><trkpt lat="42.3561503" lon="13.4733925"><ele>649.8</ele><time>2026-05-03T07:25:45.441Z</time></trkpt><trkpt lat="42.3562262" lon="13.4734576"><ele>650.0</ele><time>2026-05-03T07:25:46.447Z</time></trkpt><trkpt lat="42.3562846" lon="13.4735175"><ele>650.0</ele><time>2026-05-03T07:25:47.442Z</time></trkpt><trkpt lat="42.356339" lon="13.4735681"><ele>650.0</ele><time>2026-05-03T07:25:48.449Z</time></trkpt><trkpt lat="42.3564064" lon="13.4736064"><ele>650.0</ele><time>2026-05-03T07:25:49.448Z</time></trkpt><trkpt lat="42.3564803" lon="13.4736425"><ele>650.0</ele><time>2026-05-03T07:25:50.446Z</time></trkpt><trkpt lat="42.3565483" lon="13.4736702"><ele>650.0</ele><time>2026-05-03T07:25:51.441Z</time></trkpt><trkpt lat="42.3566058" lon="13.4737151"><ele>650.0</ele><time>2026-05-03T07:25:52.442Z</time></trkpt><trkpt lat="42.356656" lon="13.4737881"><ele>650.0</ele><time>2026-05-03T07:25:53.439Z</time></trkpt><trkpt lat="42.3566933" lon="13.473895"><ele>651.2</ele><time>2026-05-03T07:25:54.446Z</time></trkpt><trkpt lat="42.3567302" lon="13.4740102"><ele>652.4</ele><time>2026-05-03T07:25:55.441Z</time></trkpt><trkpt lat="42.3567624" lon="13.4741411"><ele>653.5999999999999</ele><time>2026-05-03T07:25:56.451Z</time></trkpt><trkpt lat="42.356792" lon="13.4742738"><ele>654.8</ele><time>2026-05-03T07:25:57.444Z</time></trkpt><trkpt lat="42.356825" lon="13.4743879"><ele>656.0</ele><time>2026-05-03T07:25:58.467Z</time></trkpt><trkpt lat="42.3568631" lon="13.4745096"><ele>657.8</ele><time>2026-05-03T07:25:59.444Z</time></trkpt><trkpt lat="42.3568978" lon="13.4746412"><ele>659.5999999999999</ele><time>2026-05-03T07:26:00.459Z</time></trkpt><trkpt lat="42.3569424" lon="13.4747724"><ele>661.4</ele><time>2026-05-03T07:26:01.453Z</time></trkpt><trkpt lat="42.3569886" lon="13.4748991"><ele>663.2</ele><time>2026-05-03T07:26:02.453Z</time></trkpt><trkpt lat="42.3570295" lon="13.4750278"><ele>665.0</ele><time>2026-05-03T07:26:03.449Z</time></trkpt><trkpt lat="42.357078" lon="13.4751537"><ele>665.0</ele><time>2026-05-03T07:26:04.457Z</time></trkpt><trkpt lat="42.3571273" lon="13.4752854"><ele>665.0</ele><time>2026-05-03T07:26:05.443Z</time></trkpt><trkpt lat="42.3571675" lon="13.4754234"><ele>665.0</ele><time>2026-05-03T07:26:06.446Z</time></trkpt><trkpt lat="42.3572028" lon="13.4755595"><ele>665.0</ele><time>2026-05-03T07:26:07.439Z</time></trkpt><trkpt lat="42.3572236" lon="13.4757043"><ele>665.0</ele><time>2026-05-03T07:26:08.444Z</time></trkpt><trkpt lat="42.3572546" lon="13.4758368"><ele>667.2</ele><time>2026-05-03T07:26:09.436Z</time></trkpt><trkpt lat="42.3572782" lon="13.475958"><ele>669.4</ele><time>2026-05-03T07:26:10.445Z</time></trkpt><trkpt lat="42.3572832" lon="13.4760745"><ele>671.5999999999999</ele><time>2026-05-03T07:26:11.444Z</time></trkpt><trkpt lat="42.3572723" lon="13.4761899"><ele>673.8</ele><time>2026-05-03T07:26:12.442Z</time></trkpt><trkpt lat="42.3572537" lon="13.4763121"><ele>676.0</ele><time>2026-05-03T07:26:13.448Z</time></trkpt><trkpt lat="42.3572392" lon="13.4764453"><ele>677.4</ele><time>2026-05-03T07:26:14.443Z</time></trkpt><trkpt lat="42.3572407" lon="13.4765795"><ele>678.8</ele><time>2026-05-03T07:26:15.45Z</time></trkpt><trkpt lat="42.3572455" lon="13.4767146"><ele>680.1999999999999</ele><time>2026-05-03T07:26:16.444Z</time></trkpt><trkpt lat="42.3572494" lon="13.4768357"><ele>681.5999999999999</ele><time>2026-05-03T07:26:17.441Z</time></trkpt><trkpt lat="42.3572605" lon="13.4769553"><ele>683.0</ele><time>2026-05-03T07:26:18.445Z</time></trkpt><trkpt lat="42.3572704" lon="13.4770813"><ele>684.0</ele><time>2026-05-03T07:26:19.443Z</time></trkpt><trkpt lat="42.3572883" lon="13.4772062"><ele>685.0</ele><time>2026-05-03T07:26:20.448Z</time></trkpt><trkpt lat="42.3573034" lon="13.4773171"><ele>686.0</ele><time>2026-05-03T07:26:21.441Z</time></trkpt><trkpt lat="42.3573303" lon="13.4774336"><ele>687.0</ele><time>2026-05-03T07:26:23.439Z</time></trkpt><trkpt lat="42.3573606" lon="13.477519"><ele>688.0</ele><time>2026-05-03T07:26:39.442Z</time></trkpt><trkpt lat="42.3573958" lon="13.4776171"><ele>689.0</ele><time>2026-05-03T07:26:41.437Z</time></trkpt><trkpt lat="42.3574231" lon="13.4777045"><ele>689.0</ele><time>2026-05-03T07:26:42.444Z</time></trkpt><trkpt lat="42.3574557" lon="13.4777939"><ele>689.0</ele><time>2026-05-03T07:26:43.44Z</time></trkpt><trkpt lat="42.357498" lon="13.4778787"><ele>689.0</ele><time>2026-05-03T07:26:44.439Z</time></trkpt><trkpt lat="42.3575488" lon="13.4779521"><ele>689.0</ele><time>2026-05-03T07:26:45.444Z</time></trkpt><trkpt lat="42.3576063" lon="13.4780152"><ele>689.0</ele><time>2026-05-03T07:26:46.437Z</time></trkpt><trkpt lat="42.3576674" lon="13.4780625"><ele>689.0</ele><time>2026-05-03T07:26:47.442Z</time></trkpt><trkpt lat="42.3577288" lon="13.4780954"><ele>689.0</ele><time>2026-05-03T07:26:48.443Z</time></trkpt><trkpt lat="42.3577908" lon="13.4781189"><ele>690.3333333333333</ele><time>2026-05-03T07:26:49.436Z</time></trkpt><trkpt lat="42.3578608" lon="13.4781501"><ele>691.6666666666666</ele><time>2026-05-03T07:26:51.431Z</time></trkpt><trkpt lat="42.3579197" lon="13.4781887"><ele>693.0</ele><time>2026-05-03T07:27:01.453Z</time></trkpt><trkpt lat="42.357865" lon="13.4782857"><ele>694.3333333333334</ele><time>2026-05-03T07:27:04.435Z</time></trkpt><trkpt lat="42.3577555" lon="13.4783918"><ele>695.6666666666667</ele><time>2026-05-03T07:27:06.441Z</time></trkpt><trkpt lat="42.3576923" lon="13.4784394"><ele>697.0</ele><time>2026-05-03T07:27:07.452Z</time></trkpt><trkpt lat="42.3576373" lon="13.4784942"><ele>697.0</ele><time>2026-05-03T07:27:08.435Z</time></trkpt><trkpt lat="42.357571" lon="13.478554"><ele>697.0</ele><time>2026-05-03T07:27:10.45Z</time></trkpt><trkpt lat="42.3575356" lon="13.4786714"><ele>697.0</ele><time>2026-05-03T07:27:13.449Z</time></trkpt><trkpt lat="42.3575598" lon="13.4788005"><ele>697.0</ele><time>2026-05-03T07:27:15.448Z</time></trkpt><trkpt lat="42.3575785" lon="13.4789601"><ele>697.0</ele><time>2026-05-03T07:27:17.455Z</time></trkpt><trkpt lat="42.3575954" lon="13.4791324"><ele>698.2857142857143</ele><time>2026-05-03T07:27:19.447Z</time></trkpt><trkpt lat="42.3576078" lon="13.4792211"><ele>699.5714285714286</ele><time>2026-05-03T07:27:20.447Z</time></trkpt><trkpt lat="42.3576182" lon="13.4793126"><ele>700.8571428571429</ele><time>2026-05-03T07:27:21.449Z</time></trkpt><trkpt lat="42.3576219" lon="13.4794105"><ele>702.1428571428571</ele><time>2026-05-03T07:27:22.453Z</time></trkpt><trkpt lat="42.3576265" lon="13.4795038"><ele>703.4285714285714</ele><time>2026-05-03T07:27:23.452Z</time></trkpt><trkpt lat="42.357635" lon="13.4795931"><ele>704.7142857142857</ele><time>2026-05-03T07:27:24.446Z</time></trkpt><trkpt lat="42.3576457" lon="13.4796823"><ele>706.0</ele><time>2026-05-03T07:27:25.45Z</time></trkpt><trkpt lat="42.3576559" lon="13.4797693"><ele>707.2857142857142</ele><time>2026-05-03T07:27:26.444Z</time></trkpt><trkpt lat="42.357669" lon="13.4798574"><ele>708.5714285714287</ele><time>2026-05-03T07:27:27.452Z</time></trkpt><trkpt lat="42.3576855" lon="13.4799422"><ele>709.8571428571429</ele><time>2026-05-03T07:27:28.443Z</time></trkpt><trkpt lat="42.3577" lon="13.4800258"><ele>711.1428571428571</ele><time>2026-05-03T07:27:29.453Z</time></trkpt><trkpt lat="42.3577202" lon="13.4801855"><ele>712.4285714285713</ele><time>2026-05-03T07:27:31.478Z</time></trkpt><trkpt lat="42.3577248" lon="13.4802749"><ele>713.7142857142858</ele><time>2026-05-03T07:27:32.438Z</time></trkpt><trkpt lat="42.3577191" lon="13.4803671"><ele>715.0</ele><time>2026-05-03T07:27:33.444Z</time></trkpt><trkpt lat="42.3576905" lon="13.4804735"><ele>716.3333333333334</ele><time>2026-05-03T07:27:34.433Z</time></trkpt><trkpt lat="42.3576485" lon="13.4805831"><ele>717.6666666666667</ele><time>2026-05-03T07:27:35.439Z</time></trkpt><trkpt lat="42.3576218" lon="13.4806972"><ele>719.0</ele><time>2026-05-03T07:27:36.438Z</time></trkpt><trkpt lat="42.3576275" lon="13.4808105"><ele>720.3333333333334</ele><time>2026-05-03T07:27:37.436Z</time></trkpt><trkpt lat="42.3576479" lon="13.4809144"><ele>721.6666666666666</ele><time>2026-05-03T07:27:38.439Z</time></trkpt><trkpt lat="42.3576742" lon="13.4809971"><ele>723.0</ele><time>2026-05-03T07:27:39.436Z</time></trkpt><trkpt lat="42.3577051" lon="13.4811253"><ele>725.0</ele><time>2026-05-03T07:27:41.435Z</time></trkpt><trkpt lat="42.3577004" lon="13.4812973"><ele>727.0</ele><time>2026-05-03T07:27:43.441Z</time></trkpt><trkpt lat="42.3576845" lon="13.4813945"><ele>729.0</ele><time>2026-05-03T07:27:44.452Z</time></trkpt><trkpt lat="42.3576677" lon="13.4815135"><ele>731.0</ele><time>2026-05-03T07:27:45.445Z</time></trkpt><trkpt lat="42.3576514" lon="13.481639"><ele>733.0</ele><time>2026-05-03T07:27:46.453Z</time></trkpt><trkpt lat="42.3576291" lon="13.481777"><ele>733.0</ele><time>2026-05-03T07:27:47.45Z</time></trkpt><trkpt lat="42.357598" lon="13.4819149"><ele>733.0</ele><time>2026-05-03T07:27:48.452Z</time></trkpt><trkpt lat="42.3575731" lon="13.4820334"><ele>733.0</ele><time>2026-05-03T07:27:49.445Z</time></trkpt><trkpt lat="42.3575473" lon="13.482157"><ele>733.0</ele><time>2026-05-03T07:27:50.452Z</time></trkpt><trkpt lat="42.3575267" lon="13.4822743"><ele>733.0</ele><time>2026-05-03T07:27:51.446Z</time></trkpt><trkpt lat="42.35751" lon="13.48238"><ele>735.0</ele><time>2026-05-03T07:27:52.451Z</time></trkpt><trkpt lat="42.3575074" lon="13.4824954"><ele>737.0</ele><time>2026-05-03T07:27:53.439Z</time></trkpt><trkpt lat="42.357507" lon="13.4826159"><ele>739.0</ele><time>2026-05-03T07:27:54.45Z</time></trkpt><trkpt lat="42.357514" lon="13.4827518"><ele>741.0</ele><time>2026-05-03T07:27:55.443Z</time></trkpt><trkpt lat="42.3575287" lon="13.4828939"><ele>743.0</ele><time>2026-05-03T07:27:56.445Z</time></trkpt><trkpt lat="42.3575405" lon="13.483039"><ele>744.4</ele><time>2026-05-03T07:27:57.449Z</time></trkpt><trkpt lat="42.3575518" lon="13.4831726"><ele>745.8</ele><time>2026-05-03T07:27:58.445Z</time></trkpt><trkpt lat="42.3575666" lon="13.4833107"><ele>747.2</ele><time>2026-05-03T07:27:59.445Z</time></trkpt><trkpt lat="42.3575812" lon="13.4834675"><ele>748.6</ele><time>2026-05-03T07:28:00.451Z</time></trkpt><trkpt lat="42.3575947" lon="13.4836146"><ele>750.0</ele><time>2026-05-03T07:28:01.463Z</time></trkpt><trkpt lat="42.357609" lon="13.4837439"><ele>750.8</ele><time>2026-05-03T07:28:02.451Z</time></trkpt><trkpt lat="42.3576237" lon="13.4838644"><ele>751.6</ele><time>2026-05-03T07:28:03.447Z</time></trkpt><trkpt lat="42.35765" lon="13.4839872"><ele>752.4000000000001</ele><time>2026-05-03T07:28:04.446Z</time></trkpt><trkpt lat="42.3576841" lon="13.4841301"><ele>753.2</ele><time>2026-05-03T07:28:05.449Z</time></trkpt><trkpt lat="42.3577144" lon="13.4842759"><ele>754.0</ele><time>2026-05-03T07:28:06.447Z</time></trkpt><trkpt lat="42.3577365" lon="13.4844193"><ele>754.0</ele><time>2026-05-03T07:28:07.447Z</time></trkpt><trkpt lat="42.3577475" lon="13.4845669"><ele>754.0</ele><time>2026-05-03T07:28:08.441Z</time></trkpt><trkpt lat="42.3577453" lon="13.4847121"><ele>754.0</ele><time>2026-05-03T07:28:09.451Z</time></trkpt><trkpt lat="42.3577327" lon="13.4848521"><ele>754.0</ele><time>2026-05-03T07:28:10.444Z</time></trkpt><trkpt lat="42.3577138" lon="13.4849878"><ele>754.0</ele><time>2026-05-03T07:28:11.452Z</time></trkpt><trkpt lat="42.3576921" lon="13.4851239"><ele>754.6</ele><time>2026-05-03T07:28:12.444Z</time></trkpt><trkpt lat="42.3576761" lon="13.4852586"><ele>755.2</ele><time>2026-05-03T07:28:13.458Z</time></trkpt><trkpt lat="42.3576638" lon="13.4853874"><ele>755.8000000000001</ele><time>2026-05-03T07:28:14.461Z</time></trkpt><trkpt lat="42.35766" lon="13.4855049"><ele>756.4000000000001</ele><time>2026-05-03T07:28:15.442Z</time></trkpt><trkpt lat="42.3576553" lon="13.4856018"><ele>757.0</ele><time>2026-05-03T07:28:16.455Z</time></trkpt><trkpt lat="42.3576446" lon="13.4857647"><ele>757.0</ele><time>2026-05-03T07:28:18.449Z</time></trkpt><trkpt lat="42.357655" lon="13.4859325"><ele>757.0</ele><time>2026-05-03T07:28:20.448Z</time></trkpt><trkpt lat="42.3576814" lon="13.4860377"><ele>757.0</ele><time>2026-05-03T07:28:21.45Z</time></trkpt><trkpt lat="42.3577184" lon="13.4861522"><ele>757.0</ele><time>2026-05-03T07:28:22.453Z</time></trkpt><trkpt lat="42.3577591" lon="13.4862677"><ele>757.0</ele><time>2026-05-03T07:28:23.45Z</time></trkpt><trkpt lat="42.3577991" lon="13.4863725"><ele>756.1666666666667</ele><time>2026-05-03T07:28:24.45Z</time></trkpt><trkpt lat="42.3578382" lon="13.4864634"><ele>755.3333333333334</ele><time>2026-05-03T07:28:25.455Z</time></trkpt><trkpt lat="42.3578807" lon="13.486542"><ele>754.5</ele><time>2026-05-03T07:28:26.449Z</time></trkpt><trkpt lat="42.3579311" lon="13.4866217"><ele>753.6666666666666</ele><time>2026-05-03T07:28:27.439Z</time></trkpt><trkpt lat="42.3579939" lon="13.4867191"><ele>752.8333333333333</ele><time>2026-05-03T07:28:28.425Z</time></trkpt><trkpt lat="42.3580716" lon="13.4868113"><ele>752.0</ele><time>2026-05-03T07:28:29.436Z</time></trkpt><trkpt lat="42.3581487" lon="13.4869083"><ele>754.2</ele><time>2026-05-03T07:28:30.433Z</time></trkpt><trkpt lat="42.358231" lon="13.4870141"><ele>756.4000000000001</ele><time>2026-05-03T07:28:31.436Z</time></trkpt><trkpt lat="42.3583103" lon="13.4871173"><ele>758.5999999999999</ele><time>2026-05-03T07:28:32.444Z</time></trkpt><trkpt lat="42.3583885" lon="13.4872061"><ele>760.8</ele><time>2026-05-03T07:28:33.428Z</time></trkpt><trkpt lat="42.3584682" lon="13.4873084"><ele>763.0</ele><time>2026-05-03T07:28:34.44Z</time></trkpt><trkpt lat="42.3585453" lon="13.4874006"><ele>763.0</ele><time>2026-05-03T07:28:35.431Z</time></trkpt><trkpt lat="42.358614" lon="13.4874926"><ele>763.0</ele><time>2026-05-03T07:28:36.434Z</time></trkpt><trkpt lat="42.3586751" lon="13.4875905"><ele>763.0</ele><time>2026-05-03T07:28:37.431Z</time></trkpt><trkpt lat="42.3587302" lon="13.4876985"><ele>763.0</ele><time>2026-05-03T07:28:38.439Z</time></trkpt><trkpt lat="42.3587843" lon="13.4878247"><ele>763.0</ele><time>2026-05-03T07:28:39.434Z</time></trkpt><trkpt lat="42.3588444" lon="13.4879519"><ele>766.4</ele><time>2026-05-03T07:28:40.434Z</time></trkpt><trkpt lat="42.3588996" lon="13.4880655"><ele>769.8</ele><time>2026-05-03T07:28:41.429Z</time></trkpt><trkpt lat="42.3589456" lon="13.488152"><ele>773.2</ele><time>2026-05-03T07:28:42.435Z</time></trkpt><trkpt lat="42.3589998" lon="13.4882066"><ele>776.6</ele><time>2026-05-03T07:28:44.437Z</time></trkpt><trkpt lat="42.3590922" lon="13.4882967"><ele>780.0</ele><time>2026-05-03T07:28:47.43Z</time></trkpt><trkpt lat="42.3591892" lon="13.4884071"><ele>780.0</ele><time>2026-05-03T07:28:49.431Z</time></trkpt><trkpt lat="42.3592503" lon="13.4884749"><ele>780.0</ele><time>2026-05-03T07:28:50.433Z</time></trkpt><trkpt lat="42.359312" lon="13.4885462"><ele>780.0</ele><time>2026-05-03T07:28:51.427Z</time></trkpt><trkpt lat="42.3593698" lon="13.488615"><ele>780.0</ele><time>2026-05-03T07:28:52.432Z</time></trkpt><trkpt lat="42.3594252" lon="13.4886872"><ele>780.0</ele><time>2026-05-03T07:28:53.431Z</time></trkpt><trkpt lat="42.3594775" lon="13.4887712"><ele>780.0</ele><time>2026-05-03T07:28:54.431Z</time></trkpt><trkpt lat="42.3595237" lon="13.4888586"><ele>781.1666666666666</ele><time>2026-05-03T07:28:55.434Z</time></trkpt><trkpt lat="42.3595668" lon="13.4889442"><ele>782.3333333333333</ele><time>2026-05-03T07:28:56.433Z</time></trkpt><trkpt lat="42.359611" lon="13.4890237"><ele>783.5</ele><time>2026-05-03T07:28:57.431Z</time></trkpt><trkpt lat="42.3596598" lon="13.4890992"><ele>784.6666666666666</ele><time>2026-05-03T07:28:58.429Z</time></trkpt><trkpt lat="42.359717" lon="13.4891756"><ele>785.8333333333333</ele><time>2026-05-03T07:28:59.427Z</time></trkpt><trkpt lat="42.3597776" lon="13.4892467"><ele>787.0</ele><time>2026-05-03T07:29:00.424Z</time></trkpt><trkpt lat="42.3598429" lon="13.4893148"><ele>787.8333333333333</ele><time>2026-05-03T07:29:01.428Z</time></trkpt><trkpt lat="42.3599123" lon="13.4893659"><ele>788.6666666666666</ele><time>2026-05-03T07:29:02.42Z</time></trkpt><trkpt lat="42.3599975" lon="13.4894081"><ele>789.5</ele><time>2026-05-03T07:29:03.441Z</time></trkpt><trkpt lat="42.360085" lon="13.4894568"><ele>790.3333333333333</ele><time>2026-05-03T07:29:04.422Z</time></trkpt><trkpt lat="42.3601687" lon="13.4895043"><ele>791.1666666666666</ele><time>2026-05-03T07:29:05.429Z</time></trkpt><trkpt lat="42.3602458" lon="13.4895661"><ele>792.0</ele><time>2026-05-03T07:29:06.436Z</time></trkpt><trkpt lat="42.3603155" lon="13.4896426"><ele>793.0</ele><time>2026-05-03T07:29:07.427Z</time></trkpt><trkpt lat="42.3603832" lon="13.4897208"><ele>794.0</ele><time>2026-05-03T07:29:08.433Z</time></trkpt><trkpt lat="42.3604596" lon="13.4897967"><ele>795.0</ele><time>2026-05-03T07:29:09.429Z</time></trkpt><trkpt lat="42.3605502" lon="13.489867"><ele>796.0</ele><time>2026-05-03T07:29:10.438Z</time></trkpt><trkpt lat="42.3606349" lon="13.4899312"><ele>797.0</ele><time>2026-05-03T07:29:11.436Z</time></trkpt><trkpt lat="42.3607169" lon="13.4899968"><ele>797.5000000000001</ele><time>2026-05-03T07:29:12.434Z</time></trkpt><trkpt lat="42.3607893" lon="13.4900735"><ele>798.0</ele><time>2026-05-03T07:29:13.436Z</time></trkpt><trkpt lat="42.3608528" lon="13.4901495"><ele>798.5</ele><time>2026-05-03T07:29:14.433Z</time></trkpt><trkpt lat="42.3609132" lon="13.4902156"><ele>799.0</ele><time>2026-05-03T07:29:15.431Z</time></trkpt><trkpt lat="42.3609785" lon="13.4902639"><ele>799.5000000000001</ele><time>2026-05-03T07:29:16.433Z</time></trkpt><trkpt lat="42.3610595" lon="13.4903048"><ele>800.0</ele><time>2026-05-03T07:29:17.43Z</time></trkpt><trkpt lat="42.3611496" lon="13.4903567"><ele>800.0000000000001</ele><time>2026-05-03T07:29:18.436Z</time></trkpt><trkpt lat="42.3612367" lon="13.4904197"><ele>800.0</ele><time>2026-05-03T07:29:19.431Z</time></trkpt><trkpt lat="42.3613135" lon="13.4904794"><ele>800.0</ele><time>2026-05-03T07:29:20.437Z</time></trkpt><trkpt lat="42.3613889" lon="13.4905398"><ele>800.0</ele><time>2026-05-03T07:29:21.431Z</time></trkpt><trkpt lat="42.3614608" lon="13.4906027"><ele>800.0000000000001</ele><time>2026-05-03T07:29:22.435Z</time></trkpt><trkpt lat="42.3615304" lon="13.4906664"><ele>800.0</ele><time>2026-05-03T07:29:23.432Z</time></trkpt><trkpt lat="42.3616002" lon="13.4907271"><ele>802.0000000000001</ele><time>2026-05-03T07:29:24.441Z</time></trkpt><trkpt lat="42.3616786" lon="13.4907923"><ele>804.0</ele><time>2026-05-03T07:29:25.432Z</time></trkpt><trkpt lat="42.3617515" lon="13.4908492"><ele>806.0</ele><time>2026-05-03T07:29:26.44Z</time></trkpt><trkpt lat="42.3618256" lon="13.4908978"><ele>808.0</ele><time>2026-05-03T07:29:27.438Z</time></trkpt><trkpt lat="42.3619019" lon="13.4909464"><ele>810.0000000000001</ele><time>2026-05-03T07:29:28.432Z</time></trkpt><trkpt lat="42.3619601" lon="13.4909928"><ele>812.0</ele><time>2026-05-03T07:29:29.438Z</time></trkpt><trkpt lat="42.3620072" lon="13.4910604"><ele>812.0</ele><time>2026-05-03T07:29:30.441Z</time></trkpt><trkpt lat="42.3620589" lon="13.4911465"><ele>812.0</ele><time>2026-05-03T07:29:31.448Z</time></trkpt><trkpt lat="42.3621158" lon="13.491244"><ele>812.0</ele><time>2026-05-03T07:29:32.442Z</time></trkpt><trkpt lat="42.3621789" lon="13.4913458"><ele>812.0</ele><time>2026-05-03T07:29:33.441Z</time></trkpt><trkpt lat="42.3622476" lon="13.4914434"><ele>812.0</ele><time>2026-05-03T07:29:34.459Z</time></trkpt><trkpt lat="42.3623119" lon="13.4915399"><ele>813.1666666666667</ele><time>2026-05-03T07:29:35.441Z</time></trkpt><trkpt lat="42.3623783" lon="13.4916201"><ele>814.3333333333334</ele><time>2026-05-03T07:29:36.444Z</time></trkpt><trkpt lat="42.3624384" lon="13.4917033"><ele>815.5</ele><time>2026-05-03T07:29:37.441Z</time></trkpt><trkpt lat="42.3624934" lon="13.4917881"><ele>816.6666666666667</ele><time>2026-05-03T07:29:38.441Z</time></trkpt><trkpt lat="42.3625472" lon="13.4918723"><ele>817.8333333333334</ele><time>2026-05-03T07:29:39.434Z</time></trkpt><trkpt lat="42.3625875" lon="13.491969"><ele>819.0</ele><time>2026-05-03T07:29:40.442Z</time></trkpt><trkpt lat="42.3626272" lon="13.4920681"><ele>820.8000000000001</ele><time>2026-05-03T07:29:41.439Z</time></trkpt><trkpt lat="42.3626588" lon="13.4921882"><ele>822.6</ele><time>2026-05-03T07:29:42.445Z</time></trkpt><trkpt lat="42.3626875" lon="13.4923004"><ele>824.4</ele><time>2026-05-03T07:29:43.441Z</time></trkpt><trkpt lat="42.3627108" lon="13.4924182"><ele>826.2</ele><time>2026-05-03T07:29:44.446Z</time></trkpt><trkpt lat="42.3627364" lon="13.4925317"><ele>828.0</ele><time>2026-05-03T07:29:45.444Z</time></trkpt><trkpt lat="42.3627686" lon="13.492654"><ele>828.0</ele><time>2026-05-03T07:29:46.447Z</time></trkpt><trkpt lat="42.3627959" lon="13.4927692"><ele>828.0</ele><time>2026-05-03T07:29:47.446Z</time></trkpt><trkpt lat="42.362817" lon="13.4928697"><ele>828.0</ele><time>2026-05-03T07:29:48.444Z</time></trkpt><trkpt lat="42.3628305" lon="13.49296"><ele>828.0</ele><time>2026-05-03T07:29:49.44Z</time></trkpt><trkpt lat="42.3628239" lon="13.4930611"><ele>828.0</ele><time>2026-05-03T07:29:50.443Z</time></trkpt><trkpt lat="42.3628106" lon="13.493166"><ele>828.0</ele><time>2026-05-03T07:29:51.447Z</time></trkpt><trkpt lat="42.3628076" lon="13.4932815"><ele>830.6666666666666</ele><time>2026-05-03T07:29:52.451Z</time></trkpt><trkpt lat="42.3628224" lon="13.4933969"><ele>833.3333333333333</ele><time>2026-05-03T07:29:53.448Z</time></trkpt><trkpt lat="42.3628498" lon="13.4934937"><ele>836.0</ele><time>2026-05-03T07:29:54.444Z</time></trkpt><trkpt lat="42.3628843" lon="13.4935791"><ele>838.6666666666666</ele><time>2026-05-03T07:29:55.447Z</time></trkpt><trkpt lat="42.3629305" lon="13.493656"><ele>841.3333333333333</ele><time>2026-05-03T07:29:56.438Z</time></trkpt><trkpt lat="42.3629819" lon="13.4938097"><ele>844.0</ele><time>2026-05-03T07:29:58.441Z</time></trkpt><trkpt lat="42.3629893" lon="13.4939225"><ele>846.6</ele><time>2026-05-03T07:29:59.45Z</time></trkpt><trkpt lat="42.3629921" lon="13.4940594"><ele>849.2</ele><time>2026-05-03T07:30:00.443Z</time></trkpt><trkpt lat="42.3630005" lon="13.4941798"><ele>851.8000000000001</ele><time>2026-05-03T07:30:01.449Z</time></trkpt><trkpt lat="42.3630053" lon="13.4942922"><ele>854.4000000000001</ele><time>2026-05-03T07:30:02.441Z</time></trkpt><trkpt lat="42.3630094" lon="13.4944189"><ele>857.0</ele><time>2026-05-03T07:30:03.437Z</time></trkpt><trkpt lat="42.3630107" lon="13.4945414"><ele>858.0000000000001</ele><time>2026-05-03T07:30:04.434Z</time></trkpt><trkpt lat="42.3630034" lon="13.4946495"><ele>859.0</ele><time>2026-05-03T07:30:05.458Z</time></trkpt><trkpt lat="42.3629829" lon="13.4947438"><ele>860.0</ele><time>2026-05-03T07:30:06.434Z</time></trkpt><trkpt lat="42.3629638" lon="13.4948441"><ele>861.0</ele><time>2026-05-03T07:30:07.446Z</time></trkpt><trkpt lat="42.3629441" lon="13.4949675"><ele>862.0000000000001</ele><time>2026-05-03T07:30:08.442Z</time></trkpt><trkpt lat="42.3629285" lon="13.4950936"><ele>863.0</ele><time>2026-05-03T07:30:09.448Z</time></trkpt><trkpt lat="42.3629131" lon="13.4952194"><ele>863.0</ele><time>2026-05-03T07:30:10.447Z</time></trkpt><trkpt lat="42.3628992" lon="13.4953436"><ele>863.0</ele><time>2026-05-03T07:30:11.447Z</time></trkpt><trkpt lat="42.3628884" lon="13.4954746"><ele>863.0</ele><time>2026-05-03T07:30:12.446Z</time></trkpt><trkpt lat="42.3628842" lon="13.4955952"><ele>863.0</ele><time>2026-05-03T07:30:13.447Z</time></trkpt><trkpt lat="42.3628747" lon="13.4957152"><ele>863.0</ele><time>2026-05-03T07:30:14.45Z</time></trkpt><trkpt lat="42.3628634" lon="13.4958471"><ele>863.3333333333334</ele><time>2026-05-03T07:30:15.444Z</time></trkpt><trkpt lat="42.362849" lon="13.4959788"><ele>863.6666666666667</ele><time>2026-05-03T07:30:16.455Z</time></trkpt><trkpt lat="42.3628355" lon="13.4961015"><ele>864.0</ele><time>2026-05-03T07:30:17.452Z</time></trkpt><trkpt lat="42.3628239" lon="13.496208"><ele>864.3333333333333</ele><time>2026-05-03T07:30:18.459Z</time></trkpt><trkpt lat="42.3628085" lon="13.4963138"><ele>864.6666666666666</ele><time>2026-05-03T07:30:19.457Z</time></trkpt><trkpt lat="42.3627955" lon="13.4964208"><ele>865.0</ele><time>2026-05-03T07:30:20.453Z</time></trkpt><trkpt lat="42.3627883" lon="13.4965178"><ele>865.9999999999999</ele><time>2026-05-03T07:30:21.46Z</time></trkpt><trkpt lat="42.362794" lon="13.4966259"><ele>867.0</ele><time>2026-05-03T07:30:22.457Z</time></trkpt><trkpt lat="42.3628083" lon="13.4967462"><ele>868.0</ele><time>2026-05-03T07:30:23.456Z</time></trkpt><trkpt lat="42.3628344" lon="13.4968786"><ele>869.0</ele><time>2026-05-03T07:30:24.447Z</time></trkpt><trkpt lat="42.362863" lon="13.4970017"><ele>869.9999999999999</ele><time>2026-05-03T07:30:25.45Z</time></trkpt><trkpt lat="42.3628847" lon="13.4970982"><ele>871.0</ele><time>2026-05-03T07:30:26.442Z</time></trkpt><trkpt lat="42.3628759" lon="13.4972763"><ele>871.6666666666666</ele><time>2026-05-03T07:30:28.44Z</time></trkpt><trkpt lat="42.3628708" lon="13.4973811"><ele>872.3333333333333</ele><time>2026-05-03T07:30:29.449Z</time></trkpt><trkpt lat="42.3628702" lon="13.4974771"><ele>873.0</ele><time>2026-05-03T07:30:30.447Z</time></trkpt><trkpt lat="42.36288" lon="13.4975643"><ele>873.6666666666667</ele><time>2026-05-03T07:30:31.45Z</time></trkpt><trkpt lat="42.3629226" lon="13.4977125"><ele>874.3333333333334</ele><time>2026-05-03T07:30:33.445Z</time></trkpt><trkpt lat="42.3629656" lon="13.4978025"><ele>875.0</ele><time>2026-05-03T07:30:34.457Z</time></trkpt><trkpt lat="42.3630189" lon="13.4978964"><ele>877.5714285714286</ele><time>2026-05-03T07:30:35.45Z</time></trkpt><trkpt lat="42.3630685" lon="13.4979808"><ele>880.1428571428571</ele><time>2026-05-03T07:30:36.47Z</time></trkpt><trkpt lat="42.3631201" lon="13.4980505"><ele>882.7142857142858</ele><time>2026-05-03T07:30:37.448Z</time></trkpt><trkpt lat="42.3631718" lon="13.4981057"><ele>885.2857142857142</ele><time>2026-05-03T07:30:38.456Z</time></trkpt><trkpt lat="42.3632267" lon="13.4981598"><ele>887.8571428571429</ele><time>2026-05-03T07:30:39.464Z</time></trkpt><trkpt lat="42.3632884" lon="13.4982128"><ele>890.4285714285714</ele><time>2026-05-03T07:30:40.448Z</time></trkpt><trkpt lat="42.363353" lon="13.49827"><ele>893.0</ele><time>2026-05-03T07:30:41.45Z</time></trkpt><trkpt lat="42.363414" lon="13.4983203"><ele>893.0000000000001</ele><time>2026-05-03T07:30:42.447Z</time></trkpt><trkpt lat="42.3634754" lon="13.4983696"><ele>893.0</ele><time>2026-05-03T07:30:43.448Z</time></trkpt><trkpt lat="42.3635425" lon="13.4984302"><ele>893.0</ele><time>2026-05-03T07:30:44.448Z</time></trkpt><trkpt lat="42.3636028" lon="13.4984967"><ele>893.0</ele><time>2026-05-03T07:30:45.449Z</time></trkpt><trkpt lat="42.3636459" lon="13.4985621"><ele>893.0000000000001</ele><time>2026-05-03T07:30:46.444Z</time></trkpt><trkpt lat="42.3636802" lon="13.4987136"><ele>893.0</ele><time>2026-05-03T07:30:48.448Z</time></trkpt><trkpt lat="42.363693" lon="13.4987973"><ele>893.5999999999999</ele><time>2026-05-03T07:30:49.446Z</time></trkpt><trkpt lat="42.3637119" lon="13.4988819"><ele>894.1999999999999</ele><time>2026-05-03T07:30:50.449Z</time></trkpt><trkpt lat="42.3637456" lon="13.4990336"><ele>894.8</ele><time>2026-05-03T07:30:52.451Z</time></trkpt><trkpt lat="42.3638279" lon="13.4991194"><ele>895.4</ele><time>2026-05-03T07:30:54.446Z</time></trkpt><trkpt lat="42.3638782" lon="13.4991764"><ele>896.0</ele><time>2026-05-03T07:30:55.462Z</time></trkpt><trkpt lat="42.3639579" lon="13.499291"><ele>898.0</ele><time>2026-05-03T07:30:57.457Z</time></trkpt><trkpt lat="42.3640083" lon="13.4994281"><ele>899.9999999999999</ele><time>2026-05-03T07:30:59.455Z</time></trkpt><trkpt lat="42.3640988" lon="13.499547"><ele>901.9999999999999</ele><time>2026-05-03T07:31:01.458Z</time></trkpt><trkpt lat="42.3641471" lon="13.4996131"><ele>904.0</ele><time>2026-05-03T07:31:02.455Z</time></trkpt><trkpt lat="42.3641941" lon="13.4996783"><ele>906.0</ele><time>2026-05-03T07:31:03.457Z</time></trkpt><trkpt lat="42.364241" lon="13.4997571"><ele>906.4</ele><time>2026-05-03T07:31:04.456Z</time></trkpt><trkpt lat="42.3642854" lon="13.4998355"><ele>906.8</ele><time>2026-05-03T07:31:05.458Z</time></trkpt><trkpt lat="42.3643509" lon="13.4999732"><ele>907.1999999999999</ele><time>2026-05-03T07:31:07.473Z</time></trkpt><trkpt lat="42.3644148" lon="13.5001144"><ele>907.5999999999999</ele><time>2026-05-03T07:31:09.462Z</time></trkpt><trkpt lat="42.3644482" lon="13.5001921"><ele>908.0</ele><time>2026-05-03T07:31:10.454Z</time></trkpt><trkpt lat="42.3644889" lon="13.5002769"><ele>908.0000000000001</ele><time>2026-05-03T07:31:11.465Z</time></trkpt><trkpt lat="42.3645364" lon="13.5003776"><ele>908.0</ele><time>2026-05-03T07:31:12.455Z</time></trkpt><trkpt lat="42.3645811" lon="13.5004817"><ele>908.0</ele><time>2026-05-03T07:31:13.464Z</time></trkpt><trkpt lat="42.3646169" lon="13.5005788"><ele>908.0</ele><time>2026-05-03T07:31:14.459Z</time></trkpt><trkpt lat="42.3646554" lon="13.5006683"><ele>908.0000000000001</ele><time>2026-05-03T07:31:15.463Z</time></trkpt><trkpt lat="42.364688" lon="13.5007479"><ele>908.0</ele><time>2026-05-03T07:31:16.459Z</time></trkpt><trkpt lat="42.3647179" lon="13.5008301"><ele>910.0000000000001</ele><time>2026-05-03T07:31:17.463Z</time></trkpt><trkpt lat="42.3647426" lon="13.5009091"><ele>912.0</ele><time>2026-05-03T07:31:18.466Z</time></trkpt><trkpt lat="42.3647753" lon="13.5009877"><ele>914.0</ele><time>2026-05-03T07:31:19.461Z</time></trkpt><trkpt lat="42.3648358" lon="13.501134"><ele>916.0</ele><time>2026-05-03T07:31:21.457Z</time></trkpt><trkpt lat="42.3648604" lon="13.501215"><ele>918.0000000000001</ele><time>2026-05-03T07:31:22.464Z</time></trkpt><trkpt lat="42.3648901" lon="13.5013392"><ele>920.0</ele><time>2026-05-03T07:31:24.457Z</time></trkpt><trkpt lat="42.3649007" lon="13.501441"><ele>921.1666666666667</ele><time>2026-05-03T07:31:26.463Z</time></trkpt><trkpt lat="42.3649237" lon="13.5015868"><ele>922.3333333333334</ele><time>2026-05-03T07:31:28.457Z</time></trkpt><trkpt lat="42.3649491" lon="13.5016816"><ele>923.5</ele><time>2026-05-03T07:31:29.455Z</time></trkpt><trkpt lat="42.3649743" lon="13.5017882"><ele>924.6666666666667</ele><time>2026-05-03T07:31:30.457Z</time></trkpt><trkpt lat="42.3649967" lon="13.5018971"><ele>925.8333333333334</ele><time>2026-05-03T07:31:31.453Z</time></trkpt><trkpt lat="42.3650209" lon="13.5019789"><ele>927.0</ele><time>2026-05-03T07:31:32.458Z</time></trkpt><trkpt lat="42.3650531" lon="13.502072"><ele>927.8571428571427</ele><time>2026-05-03T07:31:33.452Z</time></trkpt><trkpt lat="42.365089" lon="13.502179"><ele>928.7142857142857</ele><time>2026-05-03T07:31:34.459Z</time></trkpt><trkpt lat="42.3651107" lon="13.5022768"><ele>929.5714285714284</ele><time>2026-05-03T07:31:35.456Z</time></trkpt><trkpt lat="42.365126" lon="13.5023695"><ele>930.4285714285713</ele><time>2026-05-03T07:31:36.465Z</time></trkpt><trkpt lat="42.3651343" lon="13.5024546"><ele>931.2857142857142</ele><time>2026-05-03T07:31:37.458Z</time></trkpt><trkpt lat="42.3651453" lon="13.5025464"><ele>932.1428571428571</ele><time>2026-05-03T07:31:38.479Z</time></trkpt><trkpt lat="42.3651617" lon="13.5026368"><ele>933.0</ele><time>2026-05-03T07:31:39.462Z</time></trkpt><trkpt lat="42.3652042" lon="13.5027809"><ele>934.3333333333334</ele><time>2026-05-03T07:31:41.453Z</time></trkpt><trkpt lat="42.3652596" lon="13.5029477"><ele>935.6666666666667</ele><time>2026-05-03T07:31:43.455Z</time></trkpt><trkpt lat="42.365294" lon="13.5030375"><ele>937.0</ele><time>2026-05-03T07:31:44.46Z</time></trkpt><trkpt lat="42.3653327" lon="13.5031187"><ele>938.3333333333334</ele><time>2026-05-03T07:31:45.453Z</time></trkpt><trkpt lat="42.365378" lon="13.503208"><ele>939.6666666666667</ele><time>2026-05-03T07:31:46.46Z</time></trkpt><trkpt lat="42.3654272" lon="13.5033024"><ele>941.0</ele><time>2026-05-03T07:31:47.452Z</time></trkpt><trkpt lat="42.3654828" lon="13.5033972"><ele>941.0000000000001</ele><time>2026-05-03T07:31:48.458Z</time></trkpt><trkpt lat="42.365542" lon="13.5034975"><ele>941.0</ele><time>2026-05-03T07:31:49.451Z</time></trkpt><trkpt lat="42.3655959" lon="13.5036051"><ele>941.0</ele><time>2026-05-03T07:31:50.456Z</time></trkpt><trkpt lat="42.3656434" lon="13.5036952"><ele>941.0</ele><time>2026-05-03T07:31:51.454Z</time></trkpt><trkpt lat="42.3656857" lon="13.5037841"><ele>941.0000000000001</ele><time>2026-05-03T07:31:52.463Z</time></trkpt><trkpt lat="42.3657163" lon="13.5038773"><ele>941.0</ele><time>2026-05-03T07:31:53.458Z</time></trkpt><trkpt lat="42.3657394" lon="13.5039792"><ele>941.6666666666667</ele><time>2026-05-03T07:31:54.466Z</time></trkpt><trkpt lat="42.3657615" lon="13.5040688"><ele>942.3333333333334</ele><time>2026-05-03T07:31:55.461Z</time></trkpt><trkpt lat="42.3657821" lon="13.5041558"><ele>943.0</ele><time>2026-05-03T07:31:56.465Z</time></trkpt><trkpt lat="42.365806" lon="13.5043096"><ele>943.6666666666667</ele><time>2026-05-03T07:31:58.469Z</time></trkpt><trkpt lat="42.3657968" lon="13.5043959"><ele>944.3333333333334</ele><time>2026-05-03T07:32:09.501Z</time></trkpt><trkpt lat="42.3657722" lon="13.5044746"><ele>945.0</ele><time>2026-05-03T07:32:40.459Z</time></trkpt><trkpt lat="42.3657765" lon="13.5046197"><ele>945.2</ele><time>2026-05-03T07:32:43.456Z</time></trkpt><trkpt lat="42.3657718" lon="13.5047334"><ele>945.4</ele><time>2026-05-03T07:32:44.463Z</time></trkpt><trkpt lat="42.3657798" lon="13.5048724"><ele>945.5999999999999</ele><time>2026-05-03T07:32:45.452Z</time></trkpt><trkpt lat="42.3657997" lon="13.5050256"><ele>945.8</ele><time>2026-05-03T07:32:46.46Z</time></trkpt><trkpt lat="42.3658318" lon="13.5051856"><ele>946.0</ele><time>2026-05-03T07:32:47.458Z</time></trkpt><trkpt lat="42.3658679" lon="13.5053226"><ele>946.1999999999999</ele><time>2026-05-03T07:32:48.463Z</time></trkpt><trkpt lat="42.3659013" lon="13.5054672"><ele>946.3999999999999</ele><time>2026-05-03T07:32:49.46Z</time></trkpt><trkpt lat="42.365924" lon="13.5056094"><ele>946.6</ele><time>2026-05-03T07:32:50.462Z</time></trkpt><trkpt lat="42.3659366" lon="13.5057544"><ele>946.8</ele><time>2026-05-03T07:32:51.465Z</time></trkpt><trkpt lat="42.3659525" lon="13.505901"><ele>947.0</ele><time>2026-05-03T07:32:52.465Z</time></trkpt><trkpt lat="42.3659618" lon="13.5060393"><ele>947.0000000000001</ele><time>2026-05-03T07:32:53.464Z</time></trkpt><trkpt lat="42.3659707" lon="13.5061633"><ele>947.0</ele><time>2026-05-03T07:32:54.458Z</time></trkpt><trkpt lat="42.3659739" lon="13.5062873"><ele>947.0</ele><time>2026-05-03T07:32:55.461Z</time></trkpt><trkpt lat="42.3659857" lon="13.5064089"><ele>947.0</ele><time>2026-05-03T07:32:56.459Z</time></trkpt><trkpt lat="42.3660029" lon="13.5065102"><ele>947.0000000000001</ele><time>2026-05-03T07:32:57.46Z</time></trkpt><trkpt lat="42.3660357" lon="13.506595"><ele>947.0</ele><time>2026-05-03T07:32:58.45Z</time></trkpt><trkpt lat="42.3661168" lon="13.5067249"><ele>947.3333333333334</ele><time>2026-05-03T07:33:00.462Z</time></trkpt><trkpt lat="42.3661627" lon="13.5068102"><ele>947.6666666666667</ele><time>2026-05-03T07:33:01.462Z</time></trkpt><trkpt lat="42.3662172" lon="13.5068903"><ele>948.0</ele><time>2026-05-03T07:33:02.461Z</time></trkpt><trkpt lat="42.3662698" lon="13.5069504"><ele>948.3333333333333</ele><time>2026-05-03T07:33:03.463Z</time></trkpt><trkpt lat="42.3663403" lon="13.5070265"><ele>948.6666666666666</ele><time>2026-05-03T07:33:04.454Z</time></trkpt><trkpt lat="42.3664114" lon="13.5071114"><ele>949.0</ele><time>2026-05-03T07:33:05.456Z</time></trkpt><trkpt lat="42.366465" lon="13.5071889"><ele>950.5714285714287</ele><time>2026-05-03T07:33:06.455Z</time></trkpt><trkpt lat="42.3665276" lon="13.507269"><ele>952.1428571428571</ele><time>2026-05-03T07:33:07.467Z</time></trkpt><trkpt lat="42.3665827" lon="13.5073491"><ele>953.7142857142858</ele><time>2026-05-03T07:33:08.462Z</time></trkpt><trkpt lat="42.3666249" lon="13.5074222"><ele>955.2857142857143</ele><time>2026-05-03T07:33:09.456Z</time></trkpt><trkpt lat="42.3666643" lon="13.5074987"><ele>956.8571428571429</ele><time>2026-05-03T07:33:39.471Z</time></trkpt><trkpt lat="42.3667018" lon="13.5075775"><ele>958.4285714285714</ele><time>2026-05-03T07:41:43.465Z</time></trkpt><trkpt lat="42.3667404" lon="13.5076484"><ele>960.0</ele><time>2026-05-03T07:42:08.466Z</time></trkpt><trkpt lat="42.3666495" lon="13.5077071"><ele>960.0</ele><time>2026-05-03T07:42:11.463Z</time></trkpt><trkpt lat="42.3665762" lon="13.5077385"><ele>960.0</ele><time>2026-05-03T07:42:12.458Z</time></trkpt><trkpt lat="42.3664985" lon="13.5077844"><ele>960.0</ele><time>2026-05-03T07:42:13.469Z</time></trkpt><trkpt lat="42.3664215" lon="13.50783"><ele>960.0</ele><time>2026-05-03T07:42:14.467Z</time></trkpt><trkpt lat="42.3663445" lon="13.5078712"><ele>960.0</ele><time>2026-05-03T07:42:15.474Z</time></trkpt><trkpt lat="42.3662645" lon="13.5079219"><ele>960.0</ele><time>2026-05-03T07:42:16.465Z</time></trkpt><trkpt lat="42.3661903" lon="13.5079693"><ele>958.6</ele><time>2026-05-03T07:42:17.461Z</time></trkpt><trkpt lat="42.36613" lon="13.5080086"><ele>957.2</ele><time>2026-05-03T07:42:18.464Z</time></trkpt><trkpt lat="42.3660489" lon="13.5080951"><ele>955.8</ele><time>2026-05-03T07:42:20.467Z</time></trkpt><trkpt lat="42.3659747" lon="13.5082362"><ele>954.4</ele><time>2026-05-03T07:42:22.472Z</time></trkpt><trkpt lat="42.3659273" lon="13.5083259"><ele>953.0</ele><time>2026-05-03T07:42:23.469Z</time></trkpt><trkpt lat="42.3658799" lon="13.5084026"><ele>953.0000000000001</ele><time>2026-05-03T07:42:24.472Z</time></trkpt><trkpt lat="42.3658101" lon="13.5085123"><ele>953.0</ele><time>2026-05-03T07:42:26.468Z</time></trkpt><trkpt lat="42.365757" lon="13.5085617"><ele>953.0</ele><time>2026-05-03T07:42:28.471Z</time></trkpt><trkpt lat="42.3657148" lon="13.5086911"><ele>953.0</ele><time>2026-05-03T07:42:31.473Z</time></trkpt><trkpt lat="42.3657076" lon="13.5088019"><ele>953.0000000000001</ele><time>2026-05-03T07:42:32.465Z</time></trkpt><trkpt lat="42.3656917" lon="13.5089105"><ele>953.0</ele><time>2026-05-03T07:42:33.459Z</time></trkpt><trkpt lat="42.3656675" lon="13.5089992"><ele>953.6666666666667</ele><time>2026-05-03T07:42:34.463Z</time></trkpt><trkpt lat="42.3656341" lon="13.5090724"><ele>954.3333333333334</ele><time>2026-05-03T07:42:40.467Z</time></trkpt><trkpt lat="42.3656016" lon="13.5091585"><ele>955.0</ele><time>2026-05-03T07:42:43.457Z</time></trkpt><trkpt lat="42.3655719" lon="13.5093166"><ele>955.6666666666667</ele><time>2026-05-03T07:42:45.459Z</time></trkpt><trkpt lat="42.3655752" lon="13.509415"><ele>956.3333333333334</ele><time>2026-05-03T07:42:46.467Z</time></trkpt><trkpt lat="42.3655956" lon="13.5095607"><ele>957.0</ele><time>2026-05-03T07:42:48.463Z</time></trkpt><trkpt lat="42.3656339" lon="13.5096518"><ele>957.0</ele><time>2026-05-03T07:42:50.463Z</time></trkpt><trkpt lat="42.3657131" lon="13.5097566"><ele>957.0</ele><time>2026-05-03T07:42:52.471Z</time></trkpt><trkpt lat="42.3658003" lon="13.509827"><ele>957.0</ele><time>2026-05-03T07:42:54.456Z</time></trkpt><trkpt lat="42.3658614" lon="13.5098749"><ele>957.0</ele><time>2026-05-03T07:42:55.454Z</time></trkpt><trkpt lat="42.3659366" lon="13.5099257"><ele>957.0</ele><time>2026-05-03T07:42:56.457Z</time></trkpt><trkpt lat="42.3660151" lon="13.509966"><ele>957.0</ele><time>2026-05-03T07:42:57.453Z</time></trkpt><trkpt lat="42.3660779" lon="13.5099952"><ele>957.0</ele><time>2026-05-03T07:42:58.467Z</time></trkpt><trkpt lat="42.3660993" lon="13.5100826"><ele>957.0</ele><time>2026-05-03T07:43:00.458Z</time></trkpt><trkpt lat="42.3660285" lon="13.5102349"><ele>957.0</ele><time>2026-05-03T07:43:02.457Z</time></trkpt><trkpt lat="42.365992" lon="13.5103418"><ele>957.0</ele><time>2026-05-03T07:43:03.453Z</time></trkpt><trkpt lat="42.3659515" lon="13.5104452"><ele>957.0</ele><time>2026-05-03T07:43:04.462Z</time></trkpt><trkpt lat="42.3659049" lon="13.5105294"><ele>956.8571428571429</ele><time>2026-05-03T07:43:05.452Z</time></trkpt><trkpt lat="42.3658443" lon="13.5105941"><ele>956.7142857142858</ele><time>2026-05-03T07:43:06.455Z</time></trkpt><trkpt lat="42.3657735" lon="13.5106534"><ele>956.5714285714287</ele><time>2026-05-03T07:43:07.46Z</time></trkpt><trkpt lat="42.365705" lon="13.5107012"><ele>956.4285714285716</ele><time>2026-05-03T07:43:08.459Z</time></trkpt><trkpt lat="42.3656586" lon="13.5107605"><ele>956.2857142857143</ele><time>2026-05-03T07:43:09.465Z</time></trkpt><trkpt lat="42.3656157" lon="13.5108334"><ele>956.1428571428573</ele><time>2026-05-03T07:43:10.454Z</time></trkpt><trkpt lat="42.3655736" lon="13.5109183"><ele>956.0000000000001</ele><time>2026-05-03T07:43:11.466Z</time></trkpt><trkpt lat="42.3655434" lon="13.5110169"><ele>955.6666666666667</ele><time>2026-05-03T07:43:12.456Z</time></trkpt><trkpt lat="42.3655236" lon="13.5110982"><ele>955.3333333333334</ele><time>2026-05-03T07:43:13.458Z</time></trkpt><trkpt lat="42.3655169" lon="13.511251"><ele>955.0</ele><time>2026-05-03T07:43:15.465Z</time></trkpt><trkpt lat="42.3655104" lon="13.5113449"><ele>954.6666666666667</ele><time>2026-05-03T07:43:16.467Z</time></trkpt><trkpt lat="42.3654893" lon="13.5114486"><ele>954.3333333333334</ele><time>2026-05-03T07:43:17.459Z</time></trkpt><trkpt lat="42.3654436" lon="13.5115741"><ele>954.0</ele><time>2026-05-03T07:43:18.472Z</time></trkpt><trkpt lat="42.3654017" lon="13.5116975"><ele>954.0</ele><time>2026-05-03T07:43:19.465Z</time></trkpt><trkpt lat="42.365368" lon="13.511805"><ele>954.0</ele><time>2026-05-03T07:43:20.465Z</time></trkpt><trkpt lat="42.365345" lon="13.5119007"><ele>954.0</ele><time>2026-05-03T07:43:21.459Z</time></trkpt><trkpt lat="42.3653259" lon="13.512037"><ele>954.0</ele><time>2026-05-03T07:43:23.458Z</time></trkpt><trkpt lat="42.3653392" lon="13.5121495"><ele>954.0</ele><time>2026-05-03T07:43:26.473Z</time></trkpt><trkpt lat="42.3653475" lon="13.5122431"><ele>954.0</ele><time>2026-05-03T07:43:28.466Z</time></trkpt><trkpt lat="42.3653599" lon="13.5123522"><ele>954.6</ele><time>2026-05-03T07:43:30.458Z</time></trkpt><trkpt lat="42.3654084" lon="13.5125239"><ele>955.2</ele><time>2026-05-03T07:43:32.452Z</time></trkpt><trkpt lat="42.3654403" lon="13.5126321"><ele>955.8000000000001</ele><time>2026-05-03T07:43:33.458Z</time></trkpt><trkpt lat="42.3654685" lon="13.512748"><ele>956.4000000000001</ele><time>2026-05-03T07:43:34.452Z</time></trkpt><trkpt lat="42.3654902" lon="13.5128877"><ele>957.0</ele><time>2026-05-03T07:43:35.453Z</time></trkpt><trkpt lat="42.365503" lon="13.5130227"><ele>959.1666666666666</ele><time>2026-05-03T07:43:36.449Z</time></trkpt><trkpt lat="42.3655117" lon="13.513131"><ele>961.3333333333333</ele><time>2026-05-03T07:43:37.447Z</time></trkpt><trkpt lat="42.365513" lon="13.5132281"><ele>963.5</ele><time>2026-05-03T07:43:39.448Z</time></trkpt><trkpt lat="42.3654313" lon="13.5132525"><ele>965.6666666666666</ele><time>2026-05-03T07:43:42.45Z</time></trkpt><trkpt lat="42.3653371" lon="13.513158"><ele>967.8333333333333</ele><time>2026-05-03T07:43:44.452Z</time></trkpt><trkpt lat="42.3652892" lon="13.5130688"><ele>970.0</ele><time>2026-05-03T07:43:45.459Z</time></trkpt><trkpt lat="42.3652429" lon="13.5129635"><ele>967.8333333333333</ele><time>2026-05-03T07:43:46.456Z</time></trkpt><trkpt lat="42.365196" lon="13.5128626"><ele>965.6666666666666</ele><time>2026-05-03T07:43:47.466Z</time></trkpt><trkpt lat="42.3651553" lon="13.5127817"><ele>963.5</ele><time>2026-05-03T07:43:48.457Z</time></trkpt><trkpt lat="42.3651137" lon="13.5127007"><ele>961.3333333333333</ele><time>2026-05-03T07:43:49.464Z</time></trkpt><trkpt lat="42.3650696" lon="13.5126307"><ele>959.1666666666666</ele><time>2026-05-03T07:43:50.456Z</time></trkpt><trkpt lat="42.3649921" lon="13.5125085"><ele>957.0</ele><time>2026-05-03T07:43:52.46Z</time></trkpt><trkpt lat="42.3649308" lon="13.5123745"><ele>957.0</ele><time>2026-05-03T07:43:54.458Z</time></trkpt><trkpt lat="42.3648632" lon="13.5122581"><ele>957.0</ele><time>2026-05-03T07:43:56.462Z</time></trkpt><trkpt lat="42.3648219" lon="13.5121893"><ele>957.0</ele><time>2026-05-03T07:43:57.466Z</time></trkpt><trkpt lat="42.3647448" lon="13.5120662"><ele>957.0</ele><time>2026-05-03T07:43:59.47Z</time></trkpt><trkpt lat="42.3646958" lon="13.5120119"><ele>957.0</ele><time>2026-05-03T07:44:00.476Z</time></trkpt><trkpt lat="42.3646452" lon="13.511961"><ele>957.0</ele><time>2026-05-03T07:44:01.469Z</time></trkpt><trkpt lat="42.3645569" lon="13.5118776"><ele>955.1666666666666</ele><time>2026-05-03T07:44:03.467Z</time></trkpt><trkpt lat="42.3644887" lon="13.5118198"><ele>953.3333333333333</ele><time>2026-05-03T07:44:05.466Z</time></trkpt><trkpt lat="42.3644343" lon="13.5117564"><ele>951.5</ele><time>2026-05-03T07:44:07.467Z</time></trkpt><trkpt lat="42.3643798" lon="13.5117009"><ele>949.6666666666666</ele><time>2026-05-03T07:44:09.469Z</time></trkpt><trkpt lat="42.3643041" lon="13.5116148"><ele>947.8333333333333</ele><time>2026-05-03T07:44:11.469Z</time></trkpt><trkpt lat="42.364227" lon="13.5115068"><ele>946.0</ele><time>2026-05-03T07:44:13.462Z</time></trkpt><trkpt lat="42.3641354" lon="13.5114248"><ele>946.0</ele><time>2026-05-03T07:44:15.464Z</time></trkpt><trkpt lat="42.3640275" lon="13.511375"><ele>945.9999999999999</ele><time>2026-05-03T07:44:17.468Z</time></trkpt><trkpt lat="42.3639074" lon="13.5113378"><ele>945.9999999999999</ele><time>2026-05-03T07:44:19.46Z</time></trkpt><trkpt lat="42.3638416" lon="13.5113178"><ele>946.0</ele><time>2026-05-03T07:44:20.457Z</time></trkpt><trkpt lat="42.3637224" lon="13.5112842"><ele>946.0</ele><time>2026-05-03T07:44:22.461Z</time></trkpt><trkpt lat="42.3636183" lon="13.5112509"><ele>945.0</ele><time>2026-05-03T07:44:24.455Z</time></trkpt><trkpt lat="42.3635139" lon="13.5112217"><ele>943.9999999999999</ele><time>2026-05-03T07:44:26.46Z</time></trkpt><trkpt lat="42.3634036" lon="13.511201"><ele>942.9999999999999</ele><time>2026-05-03T07:44:28.453Z</time></trkpt><trkpt lat="42.3633018" lon="13.511192"><ele>942.0</ele><time>2026-05-03T07:44:30.459Z</time></trkpt><trkpt lat="42.363197" lon="13.5111457"><ele>941.0</ele><time>2026-05-03T07:44:32.454Z</time></trkpt><trkpt lat="42.3631141" lon="13.5110582"><ele>941.0000000000001</ele><time>2026-05-03T07:44:34.451Z</time></trkpt><trkpt lat="42.3630423" lon="13.5109248"><ele>941.0</ele><time>2026-05-03T07:44:36.455Z</time></trkpt><trkpt lat="42.3629877" lon="13.5108696"><ele>941.0</ele><time>2026-05-03T07:44:37.454Z</time></trkpt><trkpt lat="42.3629286" lon="13.5108076"><ele>941.0</ele><time>2026-05-03T07:44:38.451Z</time></trkpt><trkpt lat="42.3628656" lon="13.5107409"><ele>941.0000000000001</ele><time>2026-05-03T07:44:39.452Z</time></trkpt><trkpt lat="42.3628172" lon="13.5106642"><ele>941.0</ele><time>2026-05-03T07:44:40.449Z</time></trkpt><trkpt lat="42.3627689" lon="13.5105922"><ele>939.1999999999999</ele><time>2026-05-03T07:44:41.458Z</time></trkpt><trkpt lat="42.3627247" lon="13.5105271"><ele>937.3999999999999</ele><time>2026-05-03T07:44:42.452Z</time></trkpt><trkpt lat="42.3626351" lon="13.5104451"><ele>935.6</ele><time>2026-05-03T07:44:44.456Z</time></trkpt><trkpt lat="42.3625368" lon="13.5104294"><ele>933.8</ele><time>2026-05-03T07:44:46.452Z</time></trkpt><trkpt lat="42.3624347" lon="13.5104535"><ele>932.0</ele><time>2026-05-03T07:44:48.458Z</time></trkpt><trkpt lat="42.3623155" lon="13.510482"><ele>932.0000000000001</ele><time>2026-05-03T07:44:50.454Z</time></trkpt><trkpt lat="42.3622498" lon="13.5105025"><ele>932.0</ele><time>2026-05-03T07:44:51.461Z</time></trkpt><trkpt lat="42.3621836" lon="13.5105326"><ele>932.0</ele><time>2026-05-03T07:44:52.456Z</time></trkpt><trkpt lat="42.3621171" lon="13.5105589"><ele>932.0</ele><time>2026-05-03T07:44:53.463Z</time></trkpt><trkpt lat="42.3620035" lon="13.5105824"><ele>932.0000000000001</ele><time>2026-05-03T07:44:55.459Z</time></trkpt><trkpt lat="42.3618775" lon="13.5105726"><ele>932.0</ele><time>2026-05-03T07:44:57.454Z</time></trkpt><trkpt lat="42.3618048" lon="13.5105787"><ele>930.6666666666667</ele><time>2026-05-03T07:44:58.45Z</time></trkpt><trkpt lat="42.3617326" lon="13.5106089"><ele>929.3333333333334</ele><time>2026-05-03T07:44:59.449Z</time></trkpt><trkpt lat="42.3616656" lon="13.5106409"><ele>928.0</ele><time>2026-05-03T07:45:00.444Z</time></trkpt><trkpt lat="42.3616019" lon="13.5106657"><ele>926.6666666666667</ele><time>2026-05-03T07:45:01.437Z</time></trkpt><trkpt lat="42.3614852" lon="13.5106564"><ele>925.3333333333334</ele><time>2026-05-03T07:45:03.438Z</time></trkpt><trkpt lat="42.3613762" lon="13.5106315"><ele>924.0</ele><time>2026-05-03T07:45:05.437Z</time></trkpt><trkpt lat="42.3612758" lon="13.5106028"><ele>923.1666666666666</ele><time>2026-05-03T07:45:07.433Z</time></trkpt><trkpt lat="42.3612156" lon="13.5105636"><ele>922.3333333333333</ele><time>2026-05-03T07:45:08.44Z</time></trkpt><trkpt lat="42.3611478" lon="13.5105297"><ele>921.5</ele><time>2026-05-03T07:45:09.435Z</time></trkpt><trkpt lat="42.3610818" lon="13.5105037"><ele>920.6666666666666</ele><time>2026-05-03T07:45:10.441Z</time></trkpt><trkpt lat="42.3610129" lon="13.5104955"><ele>919.8333333333333</ele><time>2026-05-03T07:45:11.437Z</time></trkpt><trkpt lat="42.3609381" lon="13.5104954"><ele>919.0</ele><time>2026-05-03T07:45:12.441Z</time></trkpt><trkpt lat="42.3608238" lon="13.5104609"><ele>918.9999999999999</ele><time>2026-05-03T07:45:14.438Z</time></trkpt><trkpt lat="42.3607513" lon="13.5104186"><ele>919.0</ele><time>2026-05-03T07:45:16.436Z</time></trkpt><trkpt lat="42.3606801" lon="13.5103721"><ele>919.0</ele><time>2026-05-03T07:45:18.438Z</time></trkpt><trkpt lat="42.36062" lon="13.5102804"><ele>919.0</ele><time>2026-05-03T07:45:20.437Z</time></trkpt><trkpt lat="42.3605396" lon="13.5102151"><ele>918.9999999999999</ele><time>2026-05-03T07:45:22.443Z</time></trkpt><trkpt lat="42.3604666" lon="13.5101697"><ele>919.0</ele><time>2026-05-03T07:45:24.443Z</time></trkpt><trkpt lat="42.3603907" lon="13.510126"><ele>916.8333333333333</ele><time>2026-05-03T07:45:26.44Z</time></trkpt><trkpt lat="42.3603313" lon="13.5100671"><ele>914.6666666666666</ele><time>2026-05-03T07:45:28.435Z</time></trkpt><trkpt lat="42.3602821" lon="13.5099937"><ele>912.5</ele><time>2026-05-03T07:45:30.443Z</time></trkpt><trkpt lat="42.360217" lon="13.5099111"><ele>910.3333333333333</ele><time>2026-05-03T07:45:32.444Z</time></trkpt><trkpt lat="42.3601485" lon="13.5098257"><ele>908.1666666666666</ele><time>2026-05-03T07:45:34.442Z</time></trkpt><trkpt lat="42.3600742" lon="13.5097343"><ele>906.0</ele><time>2026-05-03T07:45:36.44Z</time></trkpt><trkpt lat="42.3599987" lon="13.5096378"><ele>905.8</ele><time>2026-05-03T07:45:38.442Z</time></trkpt><trkpt lat="42.3599482" lon="13.5095145"><ele>905.5999999999999</ele><time>2026-05-03T07:45:40.442Z</time></trkpt><trkpt lat="42.3599254" lon="13.509369"><ele>905.4</ele><time>2026-05-03T07:45:42.444Z</time></trkpt><trkpt lat="42.3599074" lon="13.5091876"><ele>905.2</ele><time>2026-05-03T07:45:44.44Z</time></trkpt><trkpt lat="42.3598803" lon="13.5090962"><ele>905.0</ele><time>2026-05-03T07:45:45.444Z</time></trkpt><trkpt lat="42.3598574" lon="13.5089938"><ele>905.0000000000001</ele><time>2026-05-03T07:45:46.444Z</time></trkpt><trkpt lat="42.3598356" lon="13.5088755"><ele>905.0</ele><time>2026-05-03T07:45:47.444Z</time></trkpt><trkpt lat="42.3598154" lon="13.5087504"><ele>905.0</ele><time>2026-05-03T07:45:48.443Z</time></trkpt><trkpt lat="42.3597927" lon="13.5086472"><ele>905.0</ele><time>2026-05-03T07:45:49.445Z</time></trkpt><trkpt lat="42.3597685" lon="13.5085501"><ele>905.0000000000001</ele><time>2026-05-03T07:45:50.44Z</time></trkpt><trkpt lat="42.3597479" lon="13.5084493"><ele>905.0</ele><time>2026-05-03T07:45:51.447Z</time></trkpt><trkpt lat="42.359726" lon="13.5083462"><ele>905.1428571428571</ele><time>2026-05-03T07:45:52.441Z</time></trkpt><trkpt lat="42.3597082" lon="13.5082428"><ele>905.2857142857142</ele><time>2026-05-03T07:45:53.446Z</time></trkpt><trkpt lat="42.3596908" lon="13.5081384"><ele>905.4285714285713</ele><time>2026-05-03T07:45:54.439Z</time></trkpt><trkpt lat="42.3596783" lon="13.5080439"><ele>905.5714285714284</ele><time>2026-05-03T07:45:55.448Z</time></trkpt><trkpt lat="42.3596634" lon="13.5079518"><ele>905.7142857142857</ele><time>2026-05-03T07:45:56.44Z</time></trkpt><trkpt lat="42.3596466" lon="13.5078589"><ele>905.8571428571427</ele><time>2026-05-03T07:45:57.444Z</time></trkpt><trkpt lat="42.3596263" lon="13.5077688"><ele>905.9999999999999</ele><time>2026-05-03T07:45:58.438Z</time></trkpt><trkpt lat="42.3596086" lon="13.5076829"><ele>902.1999999999999</ele><time>2026-05-03T07:45:59.441Z</time></trkpt><trkpt lat="42.3595927" lon="13.5075989"><ele>898.3999999999999</ele><time>2026-05-03T07:46:00.444Z</time></trkpt><trkpt lat="42.3596034" lon="13.5074526"><ele>894.6</ele><time>2026-05-03T07:46:02.441Z</time></trkpt><trkpt lat="42.3596128" lon="13.5072907"><ele>890.8</ele><time>2026-05-03T07:46:04.473Z</time></trkpt><trkpt lat="42.3595889" lon="13.5072118"><ele>887.0</ele><time>2026-05-03T07:46:05.435Z</time></trkpt><trkpt lat="42.3595338" lon="13.5070953"><ele>885.8</ele><time>2026-05-03T07:46:07.436Z</time></trkpt><trkpt lat="42.3595214" lon="13.5069693"><ele>884.6</ele><time>2026-05-03T07:46:10.445Z</time></trkpt><trkpt lat="42.3595514" lon="13.5068269"><ele>883.3999999999999</ele><time>2026-05-03T07:46:12.444Z</time></trkpt><trkpt lat="42.3595309" lon="13.5066756"><ele>882.1999999999999</ele><time>2026-05-03T07:46:14.449Z</time></trkpt><trkpt lat="42.3595054" lon="13.506593"><ele>881.0</ele><time>2026-05-03T07:46:15.443Z</time></trkpt><trkpt lat="42.3594799" lon="13.5065029"><ele>881.0000000000001</ele><time>2026-05-03T07:46:16.446Z</time></trkpt><trkpt lat="42.3594571" lon="13.5064201"><ele>881.0</ele><time>2026-05-03T07:46:17.439Z</time></trkpt><trkpt lat="42.3594256" lon="13.5063122"><ele>881.0</ele><time>2026-05-03T07:46:19.442Z</time></trkpt><trkpt lat="42.3593853" lon="13.5062338"><ele>881.0</ele><time>2026-05-03T07:46:23.444Z</time></trkpt><trkpt lat="42.3592887" lon="13.5062784"><ele>881.0000000000001</ele><time>2026-05-03T07:46:26.451Z</time></trkpt><trkpt lat="42.3592161" lon="13.5063102"><ele>881.0</ele><time>2026-05-03T07:46:27.439Z</time></trkpt><trkpt lat="42.3591326" lon="13.5063166"><ele>881.0</ele><time>2026-05-03T07:46:28.451Z</time></trkpt><trkpt lat="42.359048" lon="13.5062617"><ele>880.9999999999999</ele><time>2026-05-03T07:46:29.437Z</time></trkpt><trkpt lat="42.3589519" lon="13.5061778"><ele>880.9999999999999</ele><time>2026-05-03T07:46:30.441Z</time></trkpt><trkpt lat="42.3588581" lon="13.5060725"><ele>881.0</ele><time>2026-05-03T07:46:31.437Z</time></trkpt><trkpt lat="42.3587811" lon="13.505972"><ele>881.0</ele><time>2026-05-03T07:46:32.442Z</time></trkpt><trkpt lat="42.3587231" lon="13.5058808"><ele>880.1666666666667</ele><time>2026-05-03T07:46:33.44Z</time></trkpt><trkpt lat="42.358667" lon="13.5057977"><ele>879.3333333333334</ele><time>2026-05-03T07:46:34.462Z</time></trkpt><trkpt lat="42.3586164" lon="13.5057092"><ele>878.5</ele><time>2026-05-03T07:46:35.442Z</time></trkpt><trkpt lat="42.3585759" lon="13.5056023"><ele>877.6666666666667</ele><time>2026-05-03T07:46:36.438Z</time></trkpt><trkpt lat="42.3585323" lon="13.5054956"><ele>876.8333333333334</ele><time>2026-05-03T07:46:37.445Z</time></trkpt><trkpt lat="42.3584825" lon="13.5053838"><ele>876.0</ele><time>2026-05-03T07:46:38.441Z</time></trkpt><trkpt lat="42.3584285" lon="13.5052727"><ele>876.0</ele><time>2026-05-03T07:46:39.447Z</time></trkpt><trkpt lat="42.3583626" lon="13.5051679"><ele>875.9999999999999</ele><time>2026-05-03T07:46:40.444Z</time></trkpt><trkpt lat="42.3582891" lon="13.5050578"><ele>875.9999999999999</ele><time>2026-05-03T07:46:41.441Z</time></trkpt><trkpt lat="42.3582088" lon="13.5049434"><ele>876.0</ele><time>2026-05-03T07:46:42.443Z</time></trkpt><trkpt lat="42.3581161" lon="13.5048478"><ele>876.0</ele><time>2026-05-03T07:46:43.448Z</time></trkpt><trkpt lat="42.3580195" lon="13.5047606"><ele>876.0</ele><time>2026-05-03T07:46:44.441Z</time></trkpt><trkpt lat="42.357914" lon="13.5046843"><ele>876.0</ele><time>2026-05-03T07:46:45.446Z</time></trkpt><trkpt lat="42.3578016" lon="13.5046124"><ele>876.0</ele><time>2026-05-03T07:46:46.445Z</time></trkpt><trkpt lat="42.3576885" lon="13.504541"><ele>876.0</ele><time>2026-05-03T07:46:47.452Z</time></trkpt><trkpt lat="42.3575766" lon="13.5044798"><ele>876.0</ele><time>2026-05-03T07:46:48.447Z</time></trkpt><trkpt lat="42.3574627" lon="13.5044362"><ele>876.0</ele><time>2026-05-03T07:46:49.453Z</time></trkpt><trkpt lat="42.3573404" lon="13.5044199"><ele>876.0</ele><time>2026-05-03T07:46:50.448Z</time></trkpt><trkpt lat="42.3572141" lon="13.5044182"><ele>876.0</ele><time>2026-05-03T07:46:51.448Z</time></trkpt><trkpt lat="42.3570868" lon="13.5044407"><ele>877.0</ele><time>2026-05-03T07:46:52.45Z</time></trkpt><trkpt lat="42.356959" lon="13.5044768"><ele>878.0</ele><time>2026-05-03T07:46:53.451Z</time></trkpt><trkpt lat="42.3568419" lon="13.5045251"><ele>879.0</ele><time>2026-05-03T07:46:54.441Z</time></trkpt><trkpt lat="42.3567436" lon="13.5045833"><ele>880.0</ele><time>2026-05-03T07:46:55.446Z</time></trkpt><trkpt lat="42.3566697" lon="13.5046559"><ele>883.6</ele><time>2026-05-03T07:46:56.441Z</time></trkpt><trkpt lat="42.3566006" lon="13.5047461"><ele>887.2</ele><time>2026-05-03T07:46:57.448Z</time></trkpt><trkpt lat="42.3565352" lon="13.5048601"><ele>890.8</ele><time>2026-05-03T07:46:58.439Z</time></trkpt><trkpt lat="42.3564838" lon="13.504994"><ele>894.4</ele><time>2026-05-03T07:46:59.446Z</time></trkpt><trkpt lat="42.356445" lon="13.5051233"><ele>898.0</ele><time>2026-05-03T07:47:00.442Z</time></trkpt><trkpt lat="42.3564155" lon="13.5052311"><ele>897.9999999999999</ele><time>2026-05-03T07:47:01.444Z</time></trkpt><trkpt lat="42.3563947" lon="13.5053147"><ele>898.0</ele><time>2026-05-03T07:47:02.445Z</time></trkpt><trkpt lat="42.3563524" lon="13.5053876"><ele>898.0</ele><time>2026-05-03T07:47:57.448Z</time></trkpt><trkpt lat="42.3563891" lon="13.5054917"><ele>898.0</ele><time>2026-05-03T07:48:01.45Z</time></trkpt><trkpt lat="42.3564502" lon="13.5056097"><ele>897.9999999999999</ele><time>2026-05-03T07:48:03.451Z</time></trkpt><trkpt lat="42.3565344" lon="13.5057283"><ele>898.0</ele><time>2026-05-03T07:48:05.449Z</time></trkpt><trkpt lat="42.3565834" lon="13.5058192"><ele>899.9999999999999</ele><time>2026-05-03T07:48:07.462Z</time></trkpt><trkpt lat="42.3566213" lon="13.5058928"><ele>902.0</ele><time>2026-05-03T07:48:09.453Z</time></trkpt><trkpt lat="42.3566788" lon="13.5059556"><ele>904.0</ele><time>2026-05-03T07:48:11.452Z</time></trkpt><trkpt lat="42.3567492" lon="13.5060086"><ele>906.0</ele><time>2026-05-03T07:48:13.45Z</time></trkpt><trkpt lat="42.3568317" lon="13.5060525"><ele>907.9999999999999</ele><time>2026-05-03T07:48:15.453Z</time></trkpt><trkpt lat="42.3568939" lon="13.5061304"><ele>910.0</ele><time>2026-05-03T07:48:17.451Z</time></trkpt><trkpt lat="42.356947" lon="13.5062477"><ele>912.0</ele><time>2026-05-03T07:48:19.444Z</time></trkpt><trkpt lat="42.3569797" lon="13.5063748"><ele>914.0</ele><time>2026-05-03T07:48:21.45Z</time></trkpt><trkpt lat="42.3569822" lon="13.5065031"><ele>916.0</ele><time>2026-05-03T07:48:23.45Z</time></trkpt><trkpt lat="42.356976" lon="13.506646"><ele>918.0</ele><time>2026-05-03T07:48:25.441Z</time></trkpt><trkpt lat="42.3569765" lon="13.5067613"><ele>920.0</ele><time>2026-05-03T07:48:28.455Z</time></trkpt><trkpt lat="42.357062" lon="13.5068246"><ele>920.0000000000001</ele><time>2026-05-03T07:48:31.454Z</time></trkpt><trkpt lat="42.3571701" lon="13.5068054"><ele>920.0</ele><time>2026-05-03T07:48:33.447Z</time></trkpt><trkpt lat="42.3572261" lon="13.5067607"><ele>920.0</ele><time>2026-05-03T07:48:34.451Z</time></trkpt><trkpt lat="42.357283" lon="13.5067136"><ele>920.0</ele><time>2026-05-03T07:48:35.457Z</time></trkpt><trkpt lat="42.357341" lon="13.5066672"><ele>920.0000000000001</ele><time>2026-05-03T07:48:36.446Z</time></trkpt><trkpt lat="42.3574244" lon="13.5066508"><ele>920.0</ele><time>2026-05-03T07:48:38.458Z</time></trkpt><trkpt lat="42.3574868" lon="13.5067128"><ele>921.0</ele><time>2026-05-03T07:48:40.451Z</time></trkpt><trkpt lat="42.3575178" lon="13.5068654"><ele>922.0</ele><time>2026-05-03T07:48:42.449Z</time></trkpt><trkpt lat="42.3575203" lon="13.5069609"><ele>923.0</ele><time>2026-05-03T07:48:43.441Z</time></trkpt><trkpt lat="42.3575212" lon="13.5070789"><ele>924.0</ele><time>2026-05-03T07:48:44.452Z</time></trkpt><trkpt lat="42.3575311" lon="13.5072188"><ele>925.0</ele><time>2026-05-03T07:48:45.445Z</time></trkpt><trkpt lat="42.3575411" lon="13.5073665"><ele>926.0</ele><time>2026-05-03T07:48:46.454Z</time></trkpt><trkpt lat="42.357538" lon="13.5075112"><ele>927.0</ele><time>2026-05-03T07:48:47.45Z</time></trkpt><trkpt lat="42.3575201" lon="13.5076494"><ele>928.0</ele><time>2026-05-03T07:48:48.45Z</time></trkpt><trkpt lat="42.3574987" lon="13.5077766"><ele>929.0</ele><time>2026-05-03T07:48:49.442Z</time></trkpt><trkpt lat="42.3574976" lon="13.5078931"><ele>930.0</ele><time>2026-05-03T07:48:50.453Z</time></trkpt><trkpt lat="42.3575106" lon="13.5080045"><ele>931.6</ele><time>2026-05-03T07:48:51.447Z</time></trkpt><trkpt lat="42.3575242" lon="13.5081311"><ele>933.2</ele><time>2026-05-03T07:48:52.459Z</time></trkpt><trkpt lat="42.3575364" lon="13.5082477"><ele>934.8</ele><time>2026-05-03T07:48:53.448Z</time></trkpt><trkpt lat="42.357539" lon="13.5083497"><ele>936.4</ele><time>2026-05-03T07:48:54.446Z</time></trkpt><trkpt lat="42.357517" lon="13.5085062"><ele>938.0</ele><time>2026-05-03T07:48:56.445Z</time></trkpt><trkpt lat="42.3574941" lon="13.5086602"><ele>941.0</ele><time>2026-05-03T07:48:58.44Z</time></trkpt><trkpt lat="42.3574813" lon="13.5087517"><ele>944.0</ele><time>2026-05-03T07:48:59.449Z</time></trkpt><trkpt lat="42.3574694" lon="13.5088378"><ele>947.0</ele><time>2026-05-03T07:49:00.443Z</time></trkpt><trkpt lat="42.3574593" lon="13.5089429"><ele>950.0</ele><time>2026-05-03T07:49:02.439Z</time></trkpt><trkpt lat="42.3575116" lon="13.5090767"><ele>953.0</ele><time>2026-05-03T07:49:06.438Z</time></trkpt><trkpt lat="42.3576175" lon="13.5092161"><ele>953.0</ele><time>2026-05-03T07:49:08.437Z</time></trkpt><trkpt lat="42.3576957" lon="13.5093294"><ele>953.0</ele><time>2026-05-03T07:49:09.464Z</time></trkpt><trkpt lat="42.3577761" lon="13.509483"><ele>953.0</ele><time>2026-05-03T07:49:10.443Z</time></trkpt><trkpt lat="42.3578529" lon="13.5096456"><ele>953.0</ele><time>2026-05-03T07:49:11.449Z</time></trkpt><trkpt lat="42.3579147" lon="13.5098102"><ele>955.2</ele><time>2026-05-03T07:49:12.44Z</time></trkpt><trkpt lat="42.3579576" lon="13.5099789"><ele>957.4</ele><time>2026-05-03T07:49:13.443Z</time></trkpt><trkpt lat="42.3579791" lon="13.5101271"><ele>959.6000000000001</ele><time>2026-05-03T07:49:14.438Z</time></trkpt><trkpt lat="42.35797" lon="13.510258"><ele>961.8000000000001</ele><time>2026-05-03T07:49:15.444Z</time></trkpt><trkpt lat="42.3579528" lon="13.5103783"><ele>964.0</ele><time>2026-05-03T07:49:16.439Z</time></trkpt><trkpt lat="42.3579322" lon="13.5104879"><ele>964.3333333333333</ele><time>2026-05-03T07:49:17.451Z</time></trkpt><trkpt lat="42.3578915" lon="13.5105675"><ele>964.6666666666666</ele><time>2026-05-03T07:49:18.443Z</time></trkpt><trkpt lat="42.3578347" lon="13.5106153"><ele>965.0</ele><time>2026-05-03T07:49:19.443Z</time></trkpt><trkpt lat="42.3577579" lon="13.5106214"><ele>965.3333333333333</ele><time>2026-05-03T07:49:20.446Z</time></trkpt><trkpt lat="42.3576693" lon="13.5106041"><ele>965.6666666666666</ele><time>2026-05-03T07:49:21.455Z</time></trkpt><trkpt lat="42.3575975" lon="13.5105933"><ele>966.0</ele><time>2026-05-03T07:49:22.444Z</time></trkpt><trkpt lat="42.3575092" lon="13.5105608"><ele>966.0</ele><time>2026-05-03T07:49:24.444Z</time></trkpt><trkpt lat="42.357481" lon="13.5106501"><ele>966.0</ele><time>2026-05-03T07:49:27.445Z</time></trkpt><trkpt lat="42.3575658" lon="13.5108098"><ele>966.0</ele><time>2026-05-03T07:49:29.448Z</time></trkpt><trkpt lat="42.3576365" lon="13.510935"><ele>966.0</ele><time>2026-05-03T07:49:30.448Z</time></trkpt><trkpt lat="42.357705" lon="13.5110723"><ele>966.0</ele><time>2026-05-03T07:49:31.444Z</time></trkpt><trkpt lat="42.3577665" lon="13.5112417"><ele>966.0</ele><time>2026-05-03T07:49:32.452Z</time></trkpt><trkpt lat="42.3578294" lon="13.5114257"><ele>966.0</ele><time>2026-05-03T07:49:33.45Z</time></trkpt><trkpt lat="42.3578933" lon="13.5116101"><ele>966.0</ele><time>2026-05-03T07:49:34.45Z</time></trkpt><trkpt lat="42.3579623" lon="13.5118242"><ele>966.75</ele><time>2026-05-03T07:49:35.456Z</time></trkpt><trkpt lat="42.3580436" lon="13.5120048"><ele>967.5</ele><time>2026-05-03T07:49:36.458Z</time></trkpt><trkpt lat="42.3581091" lon="13.5121819"><ele>968.25</ele><time>2026-05-03T07:49:37.454Z</time></trkpt><trkpt lat="42.3581592" lon="13.512353"><ele>969.0</ele><time>2026-05-03T07:49:38.46Z</time></trkpt><trkpt lat="42.3582382" lon="13.5125128"><ele>969.0</ele><time>2026-05-03T07:49:39.452Z</time></trkpt><trkpt lat="42.3583028" lon="13.5126713"><ele>969.0</ele><time>2026-05-03T07:49:40.478Z</time></trkpt><trkpt lat="42.3583618" lon="13.5128414"><ele>969.0</ele><time>2026-05-03T07:49:41.452Z</time></trkpt><trkpt lat="42.358426" lon="13.5129987"><ele>969.0</ele><time>2026-05-03T07:49:42.461Z</time></trkpt><trkpt lat="42.3584783" lon="13.5131241"><ele>969.3333333333334</ele><time>2026-05-03T07:49:43.45Z</time></trkpt><trkpt lat="42.3585211" lon="13.5132397"><ele>969.6666666666667</ele><time>2026-05-03T07:49:44.456Z</time></trkpt><trkpt lat="42.3585638" lon="13.513359"><ele>970.0</ele><time>2026-05-03T07:49:45.462Z</time></trkpt><trkpt lat="42.3586005" lon="13.5134571"><ele>970.3333333333334</ele><time>2026-05-03T07:49:46.454Z</time></trkpt><trkpt lat="42.3586303" lon="13.5135432"><ele>970.6666666666667</ele><time>2026-05-03T07:49:47.467Z</time></trkpt><trkpt lat="42.3586701" lon="13.5136703"><ele>971.0</ele><time>2026-05-03T07:49:49.453Z</time></trkpt><trkpt lat="42.3586523" lon="13.5137577"><ele>971.1666666666667</ele><time>2026-05-03T07:49:52.455Z</time></trkpt><trkpt lat="42.3586518" lon="13.5138727"><ele>971.3333333333334</ele><time>2026-05-03T07:49:55.445Z</time></trkpt><trkpt lat="42.3587022" lon="13.5140042"><ele>971.5</ele><time>2026-05-03T07:49:57.448Z</time></trkpt><trkpt lat="42.358741" lon="13.5140834"><ele>971.6666666666667</ele><time>2026-05-03T07:49:58.452Z</time></trkpt><trkpt lat="42.3587846" lon="13.5141712"><ele>971.8333333333334</ele><time>2026-05-03T07:49:59.449Z</time></trkpt><trkpt lat="42.3588311" lon="13.5142612"><ele>972.0</ele><time>2026-05-03T07:50:00.459Z</time></trkpt><trkpt lat="42.3588767" lon="13.5143654"><ele>974.0</ele><time>2026-05-03T07:50:01.453Z</time></trkpt><trkpt lat="42.3589231" lon="13.5144806"><ele>976.0</ele><time>2026-05-03T07:50:02.451Z</time></trkpt><trkpt lat="42.3589718" lon="13.5145912"><ele>978.0</ele><time>2026-05-03T07:50:03.458Z</time></trkpt><trkpt lat="42.3590198" lon="13.5147051"><ele>980.0</ele><time>2026-05-03T07:50:04.448Z</time></trkpt><trkpt lat="42.3590737" lon="13.5148207"><ele>982.0</ele><time>2026-05-03T07:50:05.46Z</time></trkpt><trkpt lat="42.3591198" lon="13.5149247"><ele>982.4999999999999</ele><time>2026-05-03T07:50:06.446Z</time></trkpt><trkpt lat="42.3591549" lon="13.5150201"><ele>983.0</ele><time>2026-05-03T07:50:07.448Z</time></trkpt><trkpt lat="42.3591853" lon="13.5151149"><ele>983.5</ele><time>2026-05-03T07:50:08.445Z</time></trkpt><trkpt lat="42.3592119" lon="13.5152166"><ele>984.0</ele><time>2026-05-03T07:50:09.451Z</time></trkpt><trkpt lat="42.3592321" lon="13.515316"><ele>984.4999999999999</ele><time>2026-05-03T07:50:10.448Z</time></trkpt><trkpt lat="42.3592437" lon="13.5154092"><ele>985.0</ele><time>2026-05-03T07:50:11.459Z</time></trkpt><trkpt lat="42.3592117" lon="13.5155508"><ele>985.8333333333333</ele><time>2026-05-03T07:50:13.445Z</time></trkpt><trkpt lat="42.3591769" lon="13.5156361"><ele>986.6666666666666</ele><time>2026-05-03T07:50:14.441Z</time></trkpt><trkpt lat="42.3591407" lon="13.5157325"><ele>987.5</ele><time>2026-05-03T07:50:15.453Z</time></trkpt><trkpt lat="42.3591007" lon="13.5158312"><ele>988.3333333333333</ele><time>2026-05-03T07:50:16.443Z</time></trkpt><trkpt lat="42.3590664" lon="13.5159302"><ele>989.1666666666666</ele><time>2026-05-03T07:50:17.453Z</time></trkpt><trkpt lat="42.3590328" lon="13.5160264"><ele>990.0</ele><time>2026-05-03T07:50:18.446Z</time></trkpt><trkpt lat="42.3590123" lon="13.5161256"><ele>990.0</ele><time>2026-05-03T07:50:19.451Z</time></trkpt><trkpt lat="42.3590065" lon="13.5162234"><ele>990.0</ele><time>2026-05-03T07:50:20.446Z</time></trkpt><trkpt lat="42.3590093" lon="13.5163299"><ele>990.0</ele><time>2026-05-03T07:50:21.449Z</time></trkpt><trkpt lat="42.3590121" lon="13.5164419"><ele>990.0</ele><time>2026-05-03T07:50:22.455Z</time></trkpt><trkpt lat="42.3590105" lon="13.5165543"><ele>990.0</ele><time>2026-05-03T07:50:23.443Z</time></trkpt><trkpt lat="42.3589925" lon="13.5166622"><ele>990.0</ele><time>2026-05-03T07:50:24.445Z</time></trkpt><trkpt lat="42.3589643" lon="13.5167769"><ele>991.8</ele><time>2026-05-03T07:50:25.447Z</time></trkpt><trkpt lat="42.358921" lon="13.5168905"><ele>993.6</ele><time>2026-05-03T07:50:26.447Z</time></trkpt><trkpt lat="42.3588699" lon="13.5170043"><ele>995.4000000000001</ele><time>2026-05-03T07:50:27.449Z</time></trkpt><trkpt lat="42.358811" lon="13.5171159"><ele>997.2</ele><time>2026-05-03T07:50:28.45Z</time></trkpt><trkpt lat="42.3587585" lon="13.5172137"><ele>999.0</ele><time>2026-05-03T07:50:29.445Z</time></trkpt><trkpt lat="42.3587173" lon="13.5172908"><ele>999.0</ele><time>2026-05-03T07:50:30.441Z</time></trkpt><trkpt lat="42.3586642" lon="13.5173688"><ele>999.0</ele><time>2026-05-03T07:50:32.448Z</time></trkpt><trkpt lat="42.3586162" lon="13.5174315"><ele>999.0</ele><time>2026-05-03T07:51:37.447Z</time></trkpt><trkpt lat="42.3585548" lon="13.5175535"><ele>999.0</ele><time>2026-05-03T07:51:40.445Z</time></trkpt><trkpt lat="42.3585329" lon="13.5176335"><ele>999.0</ele><time>2026-05-03T07:51:41.45Z</time></trkpt><trkpt lat="42.358553" lon="13.5177582"><ele>999.0</ele><time>2026-05-03T07:51:43.469Z</time></trkpt><trkpt lat="42.3586362" lon="13.5178238"><ele>999.0</ele><time>2026-05-03T07:51:45.451Z</time></trkpt><trkpt lat="42.3587209" lon="13.5177858"><ele>999.0</ele><time>2026-05-03T07:51:47.453Z</time></trkpt><trkpt lat="42.3588083" lon="13.5176686"><ele>999.0</ele><time>2026-05-03T07:51:49.453Z</time></trkpt><trkpt lat="42.3588474" lon="13.5175906"><ele>999.0</ele><time>2026-05-03T07:51:50.453Z</time></trkpt><trkpt lat="42.3588925" lon="13.5175108"><ele>999.0</ele><time>2026-05-03T07:51:51.451Z</time></trkpt><trkpt lat="42.3589462" lon="13.5174186"><ele>999.0</ele><time>2026-05-03T07:51:52.454Z</time></trkpt><trkpt lat="42.3590044" lon="13.5173173"><ele>1000.2</ele><time>2026-05-03T07:51:53.453Z</time></trkpt><trkpt lat="42.3590718" lon="13.5172141"><ele>1001.4000000000001</ele><time>2026-05-03T07:51:54.451Z</time></trkpt><trkpt lat="42.359142" lon="13.5171124"><ele>1002.6</ele><time>2026-05-03T07:51:55.442Z</time></trkpt><trkpt lat="42.3592073" lon="13.5170192"><ele>1003.8</ele><time>2026-05-03T07:51:56.451Z</time></trkpt><trkpt lat="42.3592664" lon="13.5169328"><ele>1005.0</ele><time>2026-05-03T07:51:57.453Z</time></trkpt><trkpt lat="42.3593219" lon="13.5168485"><ele>1005.0</ele><time>2026-05-03T07:51:58.451Z</time></trkpt><trkpt lat="42.3593778" lon="13.5167647"><ele>1005.0</ele><time>2026-05-03T07:51:59.453Z</time></trkpt><trkpt lat="42.3594393" lon="13.5166942"><ele>1005.0</ele><time>2026-05-03T07:52:00.448Z</time></trkpt><trkpt lat="42.3595096" lon="13.5166363"><ele>1005.0</ele><time>2026-05-03T07:52:01.464Z</time></trkpt><trkpt lat="42.3595821" lon="13.5165926"><ele>1005.0</ele><time>2026-05-03T07:52:02.45Z</time></trkpt><trkpt lat="42.3596587" lon="13.5165641"><ele>1005.0</ele><time>2026-05-03T07:52:03.453Z</time></trkpt><trkpt lat="42.3597387" lon="13.5165412"><ele>1007.8333333333334</ele><time>2026-05-03T07:52:04.451Z</time></trkpt><trkpt lat="42.3598179" lon="13.5165277"><ele>1010.6666666666667</ele><time>2026-05-03T07:52:05.461Z</time></trkpt><trkpt lat="42.359902" lon="13.516512"><ele>1013.5</ele><time>2026-05-03T07:52:06.451Z</time></trkpt><trkpt lat="42.3599927" lon="13.5164955"><ele>1016.3333333333334</ele><time>2026-05-03T07:52:07.459Z</time></trkpt><trkpt lat="42.3600828" lon="13.5164874"><ele>1019.1666666666667</ele><time>2026-05-03T07:52:08.452Z</time></trkpt><trkpt lat="42.360175" lon="13.5164726"><ele>1022.0</ele><time>2026-05-03T07:52:09.46Z</time></trkpt><trkpt lat="42.36027" lon="13.5164575"><ele>1022.0</ele><time>2026-05-03T07:52:10.453Z</time></trkpt><trkpt lat="42.3603731" lon="13.5164526"><ele>1022.0</ele><time>2026-05-03T07:52:11.455Z</time></trkpt><trkpt lat="42.360488" lon="13.5164606"><ele>1022.0</ele><time>2026-05-03T07:52:12.455Z</time></trkpt><trkpt lat="42.3606005" lon="13.5164826"><ele>1022.0</ele><time>2026-05-03T07:52:13.454Z</time></trkpt><trkpt lat="42.3607016" lon="13.5165142"><ele>1022.0</ele><time>2026-05-03T07:52:14.464Z</time></trkpt><trkpt lat="42.3608045" lon="13.5165601"><ele>1023.8</ele><time>2026-05-03T07:52:15.45Z</time></trkpt><trkpt lat="42.3609059" lon="13.5166031"><ele>1025.6</ele><time>2026-05-03T07:52:16.454Z</time></trkpt><trkpt lat="42.3610148" lon="13.5166209"><ele>1027.3999999999999</ele><time>2026-05-03T07:52:17.446Z</time></trkpt><trkpt lat="42.3611337" lon="13.51664"><ele>1029.2</ele><time>2026-05-03T07:52:18.45Z</time></trkpt><trkpt lat="42.3612424" lon="13.5166387"><ele>1031.0</ele><time>2026-05-03T07:52:19.442Z</time></trkpt><trkpt lat="42.3613402" lon="13.5166399"><ele>1032.2</ele><time>2026-05-03T07:52:20.452Z</time></trkpt><trkpt lat="42.3614313" lon="13.5166372"><ele>1033.3999999999999</ele><time>2026-05-03T07:52:21.439Z</time></trkpt><trkpt lat="42.3615293" lon="13.5166261"><ele>1034.6</ele><time>2026-05-03T07:52:22.447Z</time></trkpt><trkpt lat="42.3616359" lon="13.5166104"><ele>1035.8</ele><time>2026-05-03T07:52:23.442Z</time></trkpt><trkpt lat="42.361739" lon="13.5166029"><ele>1037.0</ele><time>2026-05-03T07:52:24.446Z</time></trkpt><trkpt lat="42.3618386" lon="13.5166099"><ele>1037.0</ele><time>2026-05-03T07:52:25.437Z</time></trkpt><trkpt lat="42.361924" lon="13.5166157"><ele>1037.0</ele><time>2026-05-03T07:52:26.443Z</time></trkpt><trkpt lat="42.3619987" lon="13.5166078"><ele>1037.0</ele><time>2026-05-03T07:52:27.445Z</time></trkpt><trkpt lat="42.3620839" lon="13.5166069"><ele>1037.0</ele><time>2026-05-03T07:52:28.445Z</time></trkpt><trkpt lat="42.3621861" lon="13.5166026"><ele>1037.0</ele><time>2026-05-03T07:52:29.45Z</time></trkpt><trkpt lat="42.3622985" lon="13.5166052"><ele>1038.25</ele><time>2026-05-03T07:52:30.442Z</time></trkpt><trkpt lat="42.3624163" lon="13.5166122"><ele>1039.5</ele><time>2026-05-03T07:52:31.453Z</time></trkpt><trkpt lat="42.3625354" lon="13.5166324"><ele>1040.75</ele><time>2026-05-03T07:52:32.441Z</time></trkpt><trkpt lat="42.3626504" lon="13.5166486"><ele>1042.0</ele><time>2026-05-03T07:52:33.445Z</time></trkpt><trkpt lat="42.3627679" lon="13.5166614"><ele>1042.0</ele><time>2026-05-03T07:52:34.443Z</time></trkpt><trkpt lat="42.3628713" lon="13.5166905"><ele>1042.0</ele><time>2026-05-03T07:52:35.448Z</time></trkpt><trkpt lat="42.3629638" lon="13.5167266"><ele>1042.0</ele><time>2026-05-03T07:52:36.446Z</time></trkpt><trkpt lat="42.3630451" lon="13.5167614"><ele>1042.0</ele><time>2026-05-03T07:52:37.454Z</time></trkpt><trkpt lat="42.3631305" lon="13.5168101"><ele>1042.0</ele><time>2026-05-03T07:52:38.452Z</time></trkpt><trkpt lat="42.3632102" lon="13.5168814"><ele>1042.0</ele><time>2026-05-03T07:52:39.456Z</time></trkpt><trkpt lat="42.3632901" lon="13.5169623"><ele>1042.0</ele><time>2026-05-03T07:52:40.447Z</time></trkpt><trkpt lat="42.3633685" lon="13.5170417"><ele>1042.0</ele><time>2026-05-03T07:52:41.46Z</time></trkpt><trkpt lat="42.3634598" lon="13.517114"><ele>1042.0</ele><time>2026-05-03T07:52:42.457Z</time></trkpt><trkpt lat="42.3635561" lon="13.5171833"><ele>1042.0</ele><time>2026-05-03T07:52:43.46Z</time></trkpt><trkpt lat="42.363655" lon="13.5172383"><ele>1044.3333333333333</ele><time>2026-05-03T07:52:44.449Z</time></trkpt><trkpt lat="42.3637507" lon="13.5172943"><ele>1046.6666666666665</ele><time>2026-05-03T07:52:45.467Z</time></trkpt><trkpt lat="42.3638386" lon="13.5173308"><ele>1049.0</ele><time>2026-05-03T07:52:46.444Z</time></trkpt><trkpt lat="42.3639192" lon="13.5173495"><ele>1051.3333333333333</ele><time>2026-05-03T07:52:47.456Z</time></trkpt><trkpt lat="42.3639977" lon="13.5173582"><ele>1053.6666666666667</ele><time>2026-05-03T07:52:48.448Z</time></trkpt><trkpt lat="42.3640771" lon="13.5173567"><ele>1056.0</ele><time>2026-05-03T07:52:49.452Z</time></trkpt><trkpt lat="42.3641513" lon="13.5173607"><ele>1056.0</ele><time>2026-05-03T07:52:50.457Z</time></trkpt><trkpt lat="42.3642282" lon="13.5173746"><ele>1056.0</ele><time>2026-05-03T07:52:51.455Z</time></trkpt><trkpt lat="42.364312" lon="13.517395"><ele>1056.0</ele><time>2026-05-03T07:52:52.46Z</time></trkpt><trkpt lat="42.3644028" lon="13.5174126"><ele>1056.0</ele><time>2026-05-03T07:52:53.462Z</time></trkpt><trkpt lat="42.3644885" lon="13.5174229"><ele>1056.0</ele><time>2026-05-03T07:52:54.453Z</time></trkpt><trkpt lat="42.3645684" lon="13.5174449"><ele>1056.0</ele><time>2026-05-03T07:52:55.453Z</time></trkpt><trkpt lat="42.3646582" lon="13.5174821"><ele>1056.8</ele><time>2026-05-03T07:52:56.461Z</time></trkpt><trkpt lat="42.3647587" lon="13.5175189"><ele>1057.6</ele><time>2026-05-03T07:52:57.453Z</time></trkpt><trkpt lat="42.3648573" lon="13.5175661"><ele>1058.4</ele><time>2026-05-03T07:52:58.456Z</time></trkpt><trkpt lat="42.3649568" lon="13.5176156"><ele>1059.2</ele><time>2026-05-03T07:52:59.453Z</time></trkpt><trkpt lat="42.3650514" lon="13.5176596"><ele>1060.0</ele><time>2026-05-03T07:53:00.459Z</time></trkpt><trkpt lat="42.3651393" lon="13.5176986"><ele>1060.0</ele><time>2026-05-03T07:53:01.453Z</time></trkpt><trkpt lat="42.3652262" lon="13.5177444"><ele>1060.0</ele><time>2026-05-03T07:53:02.457Z</time></trkpt><trkpt lat="42.3653141" lon="13.5177971"><ele>1060.0</ele><time>2026-05-03T07:53:03.451Z</time></trkpt><trkpt lat="42.3654036" lon="13.5178634"><ele>1060.0</ele><time>2026-05-03T07:53:04.453Z</time></trkpt><trkpt lat="42.3654968" lon="13.5179325"><ele>1060.0</ele><time>2026-05-03T07:53:05.443Z</time></trkpt><trkpt lat="42.3655828" lon="13.5179958"><ele>1061.5</ele><time>2026-05-03T07:53:06.455Z</time></trkpt><trkpt lat="42.3656658" lon="13.5180464"><ele>1063.0</ele><time>2026-05-03T07:53:07.438Z</time></trkpt><trkpt lat="42.3657434" lon="13.5180878"><ele>1064.5</ele><time>2026-05-03T07:53:08.447Z</time></trkpt><trkpt lat="42.3658074" lon="13.518124"><ele>1066.0</ele><time>2026-05-03T07:53:09.444Z</time></trkpt><trkpt lat="42.3658688" lon="13.5182251"><ele>1067.5</ele><time>2026-05-03T07:53:11.441Z</time></trkpt><trkpt lat="42.3657892" lon="13.5183026"><ele>1069.0</ele><time>2026-05-03T07:53:13.439Z</time></trkpt><trkpt lat="42.3657256" lon="13.5182968"><ele>1069.0</ele><time>2026-05-03T07:53:14.44Z</time></trkpt><trkpt lat="42.3656629" lon="13.5182654"><ele>1069.0</ele><time>2026-05-03T07:53:15.445Z</time></trkpt><trkpt lat="42.3655865" lon="13.5182148"><ele>1069.0</ele><time>2026-05-03T07:53:16.453Z</time></trkpt><trkpt lat="42.3654924" lon="13.5181712"><ele>1069.0</ele><time>2026-05-03T07:53:17.446Z</time></trkpt><trkpt lat="42.3653989" lon="13.5181318"><ele>1069.0</ele><time>2026-05-03T07:53:18.44Z</time></trkpt><trkpt lat="42.3653089" lon="13.5181116"><ele>1069.0</ele><time>2026-05-03T07:53:19.448Z</time></trkpt><trkpt lat="42.3652041" lon="13.5181202"><ele>1070.6000000000001</ele><time>2026-05-03T07:53:20.44Z</time></trkpt><trkpt lat="42.3650907" lon="13.5181329"><ele>1072.2</ele><time>2026-05-03T07:53:21.443Z</time></trkpt><trkpt lat="42.3649727" lon="13.5181541"><ele>1073.8000000000002</ele><time>2026-05-03T07:53:22.444Z</time></trkpt><trkpt lat="42.3648671" lon="13.5181711"><ele>1075.4</ele><time>2026-05-03T07:53:23.44Z</time></trkpt><trkpt lat="42.3647828" lon="13.5181732"><ele>1077.0</ele><time>2026-05-03T07:53:24.445Z</time></trkpt><trkpt lat="42.3647024" lon="13.5181765"><ele>1077.0</ele><time>2026-05-03T07:53:25.443Z</time></trkpt><trkpt lat="42.3646382" lon="13.5181968"><ele>1077.0</ele><time>2026-05-03T07:53:26.44Z</time></trkpt><trkpt lat="42.3645858" lon="13.5183066"><ele>1077.0</ele><time>2026-05-03T07:53:28.441Z</time></trkpt><trkpt lat="42.3646467" lon="13.5184494"><ele>1077.0</ele><time>2026-05-03T07:53:30.439Z</time></trkpt><trkpt lat="42.3647903" lon="13.5184656"><ele>1077.0</ele><time>2026-05-03T07:53:32.451Z</time></trkpt><trkpt lat="42.364892" lon="13.5184516"><ele>1077.0</ele><time>2026-05-03T07:53:33.441Z</time></trkpt><trkpt lat="42.3649988" lon="13.5184581"><ele>1077.0</ele><time>2026-05-03T07:53:34.441Z</time></trkpt><trkpt lat="42.3650971" lon="13.5184874"><ele>1077.0</ele><time>2026-05-03T07:53:35.439Z</time></trkpt><trkpt lat="42.3651838" lon="13.5185362"><ele>1077.0</ele><time>2026-05-03T07:53:36.438Z</time></trkpt><trkpt lat="42.3652731" lon="13.5185903"><ele>1077.0</ele><time>2026-05-03T07:53:37.451Z</time></trkpt><trkpt lat="42.3653592" lon="13.5186662"><ele>1078.6</ele><time>2026-05-03T07:53:38.453Z</time></trkpt><trkpt lat="42.3654407" lon="13.5187629"><ele>1080.2</ele><time>2026-05-03T07:53:39.456Z</time></trkpt><trkpt lat="42.3655155" lon="13.5188673"><ele>1081.8</ele><time>2026-05-03T07:53:40.451Z</time></trkpt><trkpt lat="42.3655825" lon="13.5189541"><ele>1083.4</ele><time>2026-05-03T07:53:41.458Z</time></trkpt><trkpt lat="42.3656489" lon="13.5190231"><ele>1085.0</ele><time>2026-05-03T07:53:42.455Z</time></trkpt><trkpt lat="42.3657064" lon="13.5190885"><ele>1085.0</ele><time>2026-05-03T07:53:43.462Z</time></trkpt><trkpt lat="42.3657521" lon="13.5191569"><ele>1085.0</ele><time>2026-05-03T07:53:44.459Z</time></trkpt><trkpt lat="42.3657925" lon="13.519228"><ele>1085.0</ele><time>2026-05-03T07:53:45.468Z</time></trkpt><trkpt lat="42.3658157" lon="13.5193159"><ele>1085.0</ele><time>2026-05-03T07:53:46.458Z</time></trkpt><trkpt lat="42.3658255" lon="13.5194115"><ele>1085.0</ele><time>2026-05-03T07:53:47.478Z</time></trkpt><trkpt lat="42.3658129" lon="13.519516"><ele>1085.0</ele><time>2026-05-03T07:53:48.456Z</time></trkpt><trkpt lat="42.3657952" lon="13.5196243"><ele>1085.0</ele><time>2026-05-03T07:53:49.457Z</time></trkpt><trkpt lat="42.3657895" lon="13.5197406"><ele>1086.8333333333335</ele><time>2026-05-03T07:53:50.46Z</time></trkpt><trkpt lat="42.3657854" lon="13.5198635"><ele>1088.6666666666667</ele><time>2026-05-03T07:53:51.458Z</time></trkpt><trkpt lat="42.3657795" lon="13.5199841"><ele>1090.5</ele><time>2026-05-03T07:53:52.464Z</time></trkpt><trkpt lat="42.3657758" lon="13.5200824"><ele>1092.3333333333333</ele><time>2026-05-03T07:53:53.456Z</time></trkpt><trkpt lat="42.3657717" lon="13.5201703"><ele>1094.1666666666665</ele><time>2026-05-03T07:53:54.459Z</time></trkpt><trkpt lat="42.3657638" lon="13.5202646"><ele>1096.0</ele><time>2026-05-03T07:53:55.46Z</time></trkpt><trkpt lat="42.3657602" lon="13.5203659"><ele>1096.5</ele><time>2026-05-03T07:53:56.455Z</time></trkpt><trkpt lat="42.3657772" lon="13.5204676"><ele>1097.0</ele><time>2026-05-03T07:53:57.453Z</time></trkpt><trkpt lat="42.3658012" lon="13.5205723"><ele>1097.5</ele><time>2026-05-03T07:53:58.461Z</time></trkpt><trkpt lat="42.3658289" lon="13.5206841"><ele>1098.0</ele><time>2026-05-03T07:53:59.454Z</time></trkpt><trkpt lat="42.3658547" lon="13.5207854"><ele>1098.5</ele><time>2026-05-03T07:54:00.458Z</time></trkpt><trkpt lat="42.3658683" lon="13.5208779"><ele>1099.0</ele><time>2026-05-03T07:54:01.462Z</time></trkpt><trkpt lat="42.3658736" lon="13.5209696"><ele>1099.0</ele><time>2026-05-03T07:54:02.46Z</time></trkpt><trkpt lat="42.3658699" lon="13.5210615"><ele>1099.0</ele><time>2026-05-03T07:54:03.456Z</time></trkpt><trkpt lat="42.3658535" lon="13.5211662"><ele>1099.0</ele><time>2026-05-03T07:54:04.462Z</time></trkpt><trkpt lat="42.3658364" lon="13.5212947"><ele>1099.0</ele><time>2026-05-03T07:54:05.453Z</time></trkpt><trkpt lat="42.365813" lon="13.5214418"><ele>1099.0</ele><time>2026-05-03T07:54:06.462Z</time></trkpt><trkpt lat="42.3657898" lon="13.5215996"><ele>1099.4</ele><time>2026-05-03T07:54:07.455Z</time></trkpt><trkpt lat="42.3657647" lon="13.5217403"><ele>1099.8000000000002</ele><time>2026-05-03T07:54:08.46Z</time></trkpt><trkpt lat="42.3657349" lon="13.5218497"><ele>1100.1999999999998</ele><time>2026-05-03T07:54:09.453Z</time></trkpt><trkpt lat="42.3657152" lon="13.52197"><ele>1100.6</ele><time>2026-05-03T07:54:10.461Z</time></trkpt><trkpt lat="42.3657178" lon="13.5220979"><ele>1101.0</ele><time>2026-05-03T07:54:11.451Z</time></trkpt><trkpt lat="42.3657231" lon="13.5222271"><ele>1102.1666666666667</ele><time>2026-05-03T07:54:12.449Z</time></trkpt><trkpt lat="42.3657138" lon="13.5223547"><ele>1103.3333333333333</ele><time>2026-05-03T07:54:13.439Z</time></trkpt><trkpt lat="42.3656899" lon="13.5224687"><ele>1104.5</ele><time>2026-05-03T07:54:14.445Z</time></trkpt><trkpt lat="42.3656457" lon="13.5225613"><ele>1105.6666666666665</ele><time>2026-05-03T07:54:15.439Z</time></trkpt><trkpt lat="42.3655728" lon="13.5226212"><ele>1106.8333333333333</ele><time>2026-05-03T07:54:16.444Z</time></trkpt><trkpt lat="42.3654988" lon="13.5227096"><ele>1108.0</ele><time>2026-05-03T07:54:17.447Z</time></trkpt><trkpt lat="42.3654101" lon="13.5228145"><ele>1109.2</ele><time>2026-05-03T07:54:18.471Z</time></trkpt><trkpt lat="42.3653294" lon="13.5229172"><ele>1110.4</ele><time>2026-05-03T07:54:19.449Z</time></trkpt><trkpt lat="42.365261" lon="13.5230196"><ele>1111.6000000000001</ele><time>2026-05-03T07:54:20.46Z</time></trkpt><trkpt lat="42.3651856" lon="13.5231206"><ele>1112.8</ele><time>2026-05-03T07:54:21.452Z</time></trkpt><trkpt lat="42.365113" lon="13.523221"><ele>1114.0</ele><time>2026-05-03T07:54:22.456Z</time></trkpt><trkpt lat="42.3650401" lon="13.5233254"><ele>1114.0</ele><time>2026-05-03T07:54:23.456Z</time></trkpt><trkpt lat="42.3649654" lon="13.5234373"><ele>1114.0</ele><time>2026-05-03T07:54:24.448Z</time></trkpt><trkpt lat="42.364891" lon="13.5235461"><ele>1114.0</ele><time>2026-05-03T07:54:25.458Z</time></trkpt><trkpt lat="42.3648232" lon="13.5236402"><ele>1114.0</ele><time>2026-05-03T07:54:26.451Z</time></trkpt><trkpt lat="42.3647576" lon="13.5237395"><ele>1114.0</ele><time>2026-05-03T07:54:27.452Z</time></trkpt><trkpt lat="42.364695" lon="13.5238401"><ele>1115.6000000000001</ele><time>2026-05-03T07:54:28.45Z</time></trkpt><trkpt lat="42.3646375" lon="13.5239405"><ele>1117.2</ele><time>2026-05-03T07:54:29.455Z</time></trkpt><trkpt lat="42.3645901" lon="13.5240435"><ele>1118.8000000000002</ele><time>2026-05-03T07:54:30.451Z</time></trkpt><trkpt lat="42.3645495" lon="13.5241592"><ele>1120.4</ele><time>2026-05-03T07:54:31.466Z</time></trkpt><trkpt lat="42.3645129" lon="13.5242866"><ele>1122.0</ele><time>2026-05-03T07:54:32.456Z</time></trkpt><trkpt lat="42.3644738" lon="13.5244173"><ele>1122.0</ele><time>2026-05-03T07:54:33.461Z</time></trkpt><trkpt lat="42.3644424" lon="13.5245328"><ele>1122.0</ele><time>2026-05-03T07:54:34.454Z</time></trkpt><trkpt lat="42.3644225" lon="13.5246392"><ele>1122.0</ele><time>2026-05-03T07:54:35.463Z</time></trkpt><trkpt lat="42.3644075" lon="13.5247473"><ele>1122.0</ele><time>2026-05-03T07:54:36.45Z</time></trkpt><trkpt lat="42.3643985" lon="13.524856"><ele>1122.0</ele><time>2026-05-03T07:54:37.458Z</time></trkpt><trkpt lat="42.3644044" lon="13.5249609"><ele>1122.0</ele><time>2026-05-03T07:54:38.453Z</time></trkpt><trkpt lat="42.3644195" lon="13.5250567"><ele>1122.2</ele><time>2026-05-03T07:54:39.461Z</time></trkpt><trkpt lat="42.364445" lon="13.525159"><ele>1122.4</ele><time>2026-05-03T07:54:40.458Z</time></trkpt><trkpt lat="42.3644774" lon="13.5252793"><ele>1122.6</ele><time>2026-05-03T07:54:41.455Z</time></trkpt><trkpt lat="42.3645165" lon="13.5254183"><ele>1122.8</ele><time>2026-05-03T07:54:42.45Z</time></trkpt><trkpt lat="42.3645444" lon="13.5255578"><ele>1123.0</ele><time>2026-05-03T07:54:43.461Z</time></trkpt><trkpt lat="42.3645666" lon="13.5256965"><ele>1123.2</ele><time>2026-05-03T07:54:44.456Z</time></trkpt><trkpt lat="42.3645787" lon="13.5258278"><ele>1123.4</ele><time>2026-05-03T07:54:45.463Z</time></trkpt><trkpt lat="42.3645796" lon="13.5259621"><ele>1123.6000000000001</ele><time>2026-05-03T07:54:46.463Z</time></trkpt><trkpt lat="42.3645755" lon="13.5260947"><ele>1123.8</ele><time>2026-05-03T07:54:47.477Z</time></trkpt><trkpt lat="42.3645658" lon="13.5262197"><ele>1124.0</ele><time>2026-05-03T07:54:48.459Z</time></trkpt><trkpt lat="42.3645474" lon="13.5263418"><ele>1124.4</ele><time>2026-05-03T07:54:49.491Z</time></trkpt><trkpt lat="42.3645236" lon="13.5264724"><ele>1124.8000000000002</ele><time>2026-05-03T07:54:50.468Z</time></trkpt><trkpt lat="42.3645049" lon="13.526607"><ele>1125.1999999999998</ele><time>2026-05-03T07:54:51.47Z</time></trkpt><trkpt lat="42.3645011" lon="13.5267439"><ele>1125.6</ele><time>2026-05-03T07:54:52.474Z</time></trkpt><trkpt lat="42.364512" lon="13.5268733"><ele>1126.0</ele><time>2026-05-03T07:54:53.469Z</time></trkpt><trkpt lat="42.3645251" lon="13.5269986"><ele>1127.2</ele><time>2026-05-03T07:54:54.478Z</time></trkpt><trkpt lat="42.3645444" lon="13.5271266"><ele>1128.3999999999999</ele><time>2026-05-03T07:54:55.472Z</time></trkpt><trkpt lat="42.3645645" lon="13.5272546"><ele>1129.6</ele><time>2026-05-03T07:54:56.483Z</time></trkpt><trkpt lat="42.364585" lon="13.5273788"><ele>1130.8</ele><time>2026-05-03T07:54:57.471Z</time></trkpt><trkpt lat="42.3646086" lon="13.5275103"><ele>1132.0</ele><time>2026-05-03T07:54:58.477Z</time></trkpt><trkpt lat="42.3646257" lon="13.5276424"><ele>1132.0</ele><time>2026-05-03T07:54:59.477Z</time></trkpt><trkpt lat="42.3646284" lon="13.5277654"><ele>1132.0</ele><time>2026-05-03T07:55:00.474Z</time></trkpt><trkpt lat="42.3646213" lon="13.5279"><ele>1132.0</ele><time>2026-05-03T07:55:01.474Z</time></trkpt><trkpt lat="42.3646041" lon="13.528043"><ele>1132.0</ele><time>2026-05-03T07:55:02.476Z</time></trkpt><trkpt lat="42.3645823" lon="13.5281895"><ele>1132.0</ele><time>2026-05-03T07:55:03.469Z</time></trkpt><trkpt lat="42.3645566" lon="13.5283301"><ele>1133.2</ele><time>2026-05-03T07:55:04.477Z</time></trkpt><trkpt lat="42.3645289" lon="13.5284647"><ele>1134.4</ele><time>2026-05-03T07:55:05.472Z</time></trkpt><trkpt lat="42.3645067" lon="13.5285947"><ele>1135.6</ele><time>2026-05-03T07:55:06.473Z</time></trkpt><trkpt lat="42.3645006" lon="13.5287353"><ele>1136.8</ele><time>2026-05-03T07:55:07.473Z</time></trkpt><trkpt lat="42.3645091" lon="13.5288751"><ele>1138.0</ele><time>2026-05-03T07:55:08.476Z</time></trkpt><trkpt lat="42.3645285" lon="13.5290105"><ele>1140.0</ele><time>2026-05-03T07:55:09.468Z</time></trkpt><trkpt lat="42.3645391" lon="13.5291365"><ele>1142.0</ele><time>2026-05-03T07:55:10.48Z</time></trkpt><trkpt lat="42.3645331" lon="13.5292524"><ele>1144.0</ele><time>2026-05-03T07:55:11.464Z</time></trkpt><trkpt lat="42.3645328" lon="13.5293496"><ele>1146.0</ele><time>2026-05-03T07:55:12.47Z</time></trkpt><trkpt lat="42.3645819" lon="13.5294874"><ele>1148.0</ele><time>2026-05-03T07:55:14.465Z</time></trkpt><trkpt lat="42.3647019" lon="13.5295072"><ele>1149.3333333333335</ele><time>2026-05-03T07:55:16.467Z</time></trkpt><trkpt lat="42.3647577" lon="13.5294505"><ele>1150.6666666666667</ele><time>2026-05-03T07:55:17.463Z</time></trkpt><trkpt lat="42.3648001" lon="13.5293639"><ele>1152.0</ele><time>2026-05-03T07:55:18.464Z</time></trkpt><trkpt lat="42.3648383" lon="13.5292429"><ele>1153.3333333333333</ele><time>2026-05-03T07:55:19.465Z</time></trkpt><trkpt lat="42.3648803" lon="13.5291261"><ele>1154.6666666666665</ele><time>2026-05-03T07:55:20.492Z</time></trkpt><trkpt lat="42.3649418" lon="13.5290203"><ele>1156.0</ele><time>2026-05-03T07:55:21.455Z</time></trkpt><trkpt lat="42.3650175" lon="13.5289284"><ele>1156.0</ele><time>2026-05-03T07:55:22.475Z</time></trkpt><trkpt lat="42.3651002" lon="13.5288507"><ele>1156.0</ele><time>2026-05-03T07:55:23.465Z</time></trkpt><trkpt lat="42.3651927" lon="13.5287825"><ele>1156.0</ele><time>2026-05-03T07:55:24.461Z</time></trkpt><trkpt lat="42.3652907" lon="13.5287221"><ele>1156.0</ele><time>2026-05-03T07:55:25.47Z</time></trkpt><trkpt lat="42.3653727" lon="13.52867"><ele>1156.0</ele><time>2026-05-03T07:55:26.467Z</time></trkpt><trkpt lat="42.3654361" lon="13.5286292"><ele>1156.0</ele><time>2026-05-03T07:55:27.471Z</time></trkpt><trkpt lat="42.3655208" lon="13.5286032"><ele>1156.0</ele><time>2026-05-03T07:55:29.481Z</time></trkpt><trkpt lat="42.3655656" lon="13.5286724"><ele>1156.0</ele><time>2026-05-03T07:55:31.477Z</time></trkpt><trkpt lat="42.3655682" lon="13.5287587"><ele>1156.0</ele><time>2026-05-03T07:55:34.478Z</time></trkpt><trkpt lat="42.3655129" lon="13.5288208"><ele>1156.0</ele><time>2026-05-03T07:55:43.468Z</time></trkpt><trkpt lat="42.3654463" lon="13.5288431"><ele>1156.0</ele><time>2026-05-03T07:55:45.469Z</time></trkpt><trkpt lat="42.3653269" lon="13.5288914"><ele>1156.0</ele><time>2026-05-03T07:55:47.467Z</time></trkpt><trkpt lat="42.365254" lon="13.5289484"><ele>1156.0</ele><time>2026-05-03T07:55:48.467Z</time></trkpt><trkpt lat="42.3651744" lon="13.5290262"><ele>1156.0</ele><time>2026-05-03T07:55:49.472Z</time></trkpt><trkpt lat="42.3651099" lon="13.5291248"><ele>1156.0</ele><time>2026-05-03T07:55:50.492Z</time></trkpt><trkpt lat="42.3650578" lon="13.5292277"><ele>1156.0</ele><time>2026-05-03T07:55:51.467Z</time></trkpt><trkpt lat="42.3650268" lon="13.5293376"><ele>1156.0</ele><time>2026-05-03T07:55:52.469Z</time></trkpt><trkpt lat="42.3650085" lon="13.5294594"><ele>1156.0</ele><time>2026-05-03T07:55:53.471Z</time></trkpt><trkpt lat="42.3650093" lon="13.5295853"><ele>1156.0</ele><time>2026-05-03T07:55:54.467Z</time></trkpt><trkpt lat="42.3650265" lon="13.5297023"><ele>1156.0</ele><time>2026-05-03T07:55:55.475Z</time></trkpt><trkpt lat="42.3650609" lon="13.5298077"><ele>1156.0</ele><time>2026-05-03T07:55:56.472Z</time></trkpt><trkpt lat="42.365113" lon="13.5299032"><ele>1156.0</ele><time>2026-05-03T07:55:57.475Z</time></trkpt><trkpt lat="42.3651818" lon="13.5299918"><ele>1157.0</ele><time>2026-05-03T07:55:58.472Z</time></trkpt><trkpt lat="42.3652624" lon="13.5300767"><ele>1158.0</ele><time>2026-05-03T07:55:59.478Z</time></trkpt><trkpt lat="42.3653451" lon="13.5301625"><ele>1159.0</ele><time>2026-05-03T07:56:00.474Z</time></trkpt><trkpt lat="42.3654292" lon="13.5302583"><ele>1160.0</ele><time>2026-05-03T07:56:01.48Z</time></trkpt><trkpt lat="42.3655038" lon="13.5303598"><ele>1161.0</ele><time>2026-05-03T07:56:02.468Z</time></trkpt><trkpt lat="42.3655592" lon="13.5304564"><ele>1163.3999999999999</ele><time>2026-05-03T07:56:03.47Z</time></trkpt><trkpt lat="42.3655942" lon="13.5305664"><ele>1165.8</ele><time>2026-05-03T07:56:04.457Z</time></trkpt><trkpt lat="42.3656133" lon="13.5306907"><ele>1168.1999999999998</ele><time>2026-05-03T07:56:05.48Z</time></trkpt><trkpt lat="42.3656198" lon="13.5308314"><ele>1170.6</ele><time>2026-05-03T07:56:06.467Z</time></trkpt><trkpt lat="42.3656288" lon="13.5309773"><ele>1173.0</ele><time>2026-05-03T07:56:07.475Z</time></trkpt><trkpt lat="42.3656483" lon="13.5311293"><ele>1174.0</ele><time>2026-05-03T07:56:08.471Z</time></trkpt><trkpt lat="42.3656831" lon="13.5312701"><ele>1175.0</ele><time>2026-05-03T07:56:09.465Z</time></trkpt><trkpt lat="42.3657334" lon="13.5313905"><ele>1176.0</ele><time>2026-05-03T07:56:10.468Z</time></trkpt><trkpt lat="42.3657994" lon="13.531494"><ele>1177.0</ele><time>2026-05-03T07:56:11.471Z</time></trkpt><trkpt lat="42.3658579" lon="13.5316038"><ele>1178.0</ele><time>2026-05-03T07:56:12.471Z</time></trkpt><trkpt lat="42.3659036" lon="13.531722"><ele>1178.0</ele><time>2026-05-03T07:56:13.465Z</time></trkpt><trkpt lat="42.365944" lon="13.5318411"><ele>1178.0</ele><time>2026-05-03T07:56:14.471Z</time></trkpt><trkpt lat="42.365981" lon="13.5319548"><ele>1178.0</ele><time>2026-05-03T07:56:15.458Z</time></trkpt><trkpt lat="42.3660035" lon="13.5320704"><ele>1178.0</ele><time>2026-05-03T07:56:16.467Z</time></trkpt><trkpt lat="42.3660112" lon="13.5321756"><ele>1178.0</ele><time>2026-05-03T07:56:17.459Z</time></trkpt><trkpt lat="42.3660053" lon="13.532295"><ele>1178.0</ele><time>2026-05-03T07:56:18.458Z</time></trkpt><trkpt lat="42.3659878" lon="13.5324121"><ele>1178.2</ele><time>2026-05-03T07:56:19.461Z</time></trkpt><trkpt lat="42.3659621" lon="13.532527"><ele>1178.4</ele><time>2026-05-03T07:56:20.451Z</time></trkpt><trkpt lat="42.3659124" lon="13.5326195"><ele>1178.6000000000001</ele><time>2026-05-03T07:56:21.478Z</time></trkpt><trkpt lat="42.3658443" lon="13.5327138"><ele>1178.8</ele><time>2026-05-03T07:56:22.459Z</time></trkpt><trkpt lat="42.3657617" lon="13.5328081"><ele>1179.0</ele><time>2026-05-03T07:56:23.459Z</time></trkpt><trkpt lat="42.3656739" lon="13.5328911"><ele>1180.8</ele><time>2026-05-03T07:56:24.453Z</time></trkpt><trkpt lat="42.3655828" lon="13.5329587"><ele>1182.6000000000001</ele><time>2026-05-03T07:56:25.46Z</time></trkpt><trkpt lat="42.3654842" lon="13.5330079"><ele>1184.4</ele><time>2026-05-03T07:56:26.459Z</time></trkpt><trkpt lat="42.3653837" lon="13.5330644"><ele>1186.2</ele><time>2026-05-03T07:56:27.458Z</time></trkpt><trkpt lat="42.3652795" lon="13.5331363"><ele>1188.0</ele><time>2026-05-03T07:56:28.456Z</time></trkpt><trkpt lat="42.3651822" lon="13.5332247"><ele>1191.75</ele><time>2026-05-03T07:56:29.448Z</time></trkpt><trkpt lat="42.3650988" lon="13.533337"><ele>1195.5</ele><time>2026-05-03T07:56:30.448Z</time></trkpt><trkpt lat="42.3650326" lon="13.5334725"><ele>1199.25</ele><time>2026-05-03T07:56:31.447Z</time></trkpt><trkpt lat="42.3649798" lon="13.5336106"><ele>1203.0</ele><time>2026-05-03T07:56:32.438Z</time></trkpt><trkpt lat="42.3649524" lon="13.5337619"><ele>1204.25</ele><time>2026-05-03T07:56:33.438Z</time></trkpt><trkpt lat="42.3649407" lon="13.5339261"><ele>1205.5</ele><time>2026-05-03T07:56:34.444Z</time></trkpt><trkpt lat="42.3649385" lon="13.5341051"><ele>1206.75</ele><time>2026-05-03T07:56:35.45Z</time></trkpt><trkpt lat="42.3649276" lon="13.5342814"><ele>1208.0</ele><time>2026-05-03T07:56:36.461Z</time></trkpt><trkpt lat="42.3649206" lon="13.5344563"><ele>1209.25</ele><time>2026-05-03T07:56:37.451Z</time></trkpt><trkpt lat="42.3649243" lon="13.5346295"><ele>1210.5</ele><time>2026-05-03T07:56:38.462Z</time></trkpt><trkpt lat="42.3649315" lon="13.5348025"><ele>1211.75</ele><time>2026-05-03T07:56:39.45Z</time></trkpt><trkpt lat="42.3649369" lon="13.5349633"><ele>1213.0</ele><time>2026-05-03T07:56:40.454Z</time></trkpt><trkpt lat="42.3649377" lon="13.5351156"><ele>1213.0</ele><time>2026-05-03T07:56:41.455Z</time></trkpt><trkpt lat="42.3649324" lon="13.535266"><ele>1213.0</ele><time>2026-05-03T07:56:42.458Z</time></trkpt><trkpt lat="42.3649089" lon="13.5354253"><ele>1213.0</ele><time>2026-05-03T07:56:43.465Z</time></trkpt><trkpt lat="42.3648735" lon="13.5355955"><ele>1213.0</ele><time>2026-05-03T07:56:44.46Z</time></trkpt><trkpt lat="42.3648345" lon="13.5357626"><ele>1213.25</ele><time>2026-05-03T07:56:45.465Z</time></trkpt><trkpt lat="42.3647944" lon="13.5359284"><ele>1213.5</ele><time>2026-05-03T07:56:46.457Z</time></trkpt><trkpt lat="42.3647517" lon="13.536102"><ele>1213.75</ele><time>2026-05-03T07:56:47.463Z</time></trkpt><trkpt lat="42.3647104" lon="13.5362663"><ele>1214.0</ele><time>2026-05-03T07:56:48.459Z</time></trkpt><trkpt lat="42.364672" lon="13.5364241"><ele>1214.4</ele><time>2026-05-03T07:56:49.464Z</time></trkpt><trkpt lat="42.3646435" lon="13.5365675"><ele>1214.8000000000002</ele><time>2026-05-03T07:56:50.457Z</time></trkpt><trkpt lat="42.364626" lon="13.536698"><ele>1215.1999999999998</ele><time>2026-05-03T07:56:51.462Z</time></trkpt><trkpt lat="42.3646014" lon="13.5368303"><ele>1215.6</ele><time>2026-05-03T07:56:52.476Z</time></trkpt><trkpt lat="42.3645551" lon="13.5369627"><ele>1216.0</ele><time>2026-05-03T07:56:53.462Z</time></trkpt><trkpt lat="42.364494" lon="13.5370975"><ele>1216.75</ele><time>2026-05-03T07:56:54.468Z</time></trkpt><trkpt lat="42.3644199" lon="13.5372318"><ele>1217.5</ele><time>2026-05-03T07:56:55.461Z</time></trkpt><trkpt lat="42.364346" lon="13.5373741"><ele>1218.25</ele><time>2026-05-03T07:56:56.466Z</time></trkpt><trkpt lat="42.3642629" lon="13.5375155"><ele>1219.0</ele><time>2026-05-03T07:56:57.461Z</time></trkpt><trkpt lat="42.3641748" lon="13.5376615"><ele>1219.0</ele><time>2026-05-03T07:56:58.473Z</time></trkpt><trkpt lat="42.3640927" lon="13.5378101"><ele>1219.0</ele><time>2026-05-03T07:56:59.466Z</time></trkpt><trkpt lat="42.3640189" lon="13.5379574"><ele>1219.0</ele><time>2026-05-03T07:57:00.473Z</time></trkpt><trkpt lat="42.3639498" lon="13.5381095"><ele>1219.0</ele><time>2026-05-03T07:57:01.463Z</time></trkpt><trkpt lat="42.3638734" lon="13.5382378"><ele>1220.25</ele><time>2026-05-03T07:57:02.468Z</time></trkpt><trkpt lat="42.3637861" lon="13.5383412"><ele>1221.5</ele><time>2026-05-03T07:57:03.462Z</time></trkpt><trkpt lat="42.3636872" lon="13.5384417"><ele>1222.75</ele><time>2026-05-03T07:57:04.47Z</time></trkpt><trkpt lat="42.363593" lon="13.5385528"><ele>1224.0</ele><time>2026-05-03T07:57:05.458Z</time></trkpt><trkpt lat="42.3634953" lon="13.5386615"><ele>1225.0</ele><time>2026-05-03T07:57:06.462Z</time></trkpt><trkpt lat="42.3633952" lon="13.5387841"><ele>1226.0</ele><time>2026-05-03T07:57:07.454Z</time></trkpt><trkpt lat="42.3632921" lon="13.5389009"><ele>1227.0</ele><time>2026-05-03T07:57:08.467Z</time></trkpt><trkpt lat="42.3631961" lon="13.5390263"><ele>1228.0</ele><time>2026-05-03T07:57:09.458Z</time></trkpt><trkpt lat="42.3631041" lon="13.5391551"><ele>1228.25</ele><time>2026-05-03T07:57:10.467Z</time></trkpt><trkpt lat="42.3630206" lon="13.5392893"><ele>1228.5</ele><time>2026-05-03T07:57:11.457Z</time></trkpt><trkpt lat="42.3629321" lon="13.539418"><ele>1228.75</ele><time>2026-05-03T07:57:12.465Z</time></trkpt><trkpt lat="42.3628373" lon="13.5395512"><ele>1229.0</ele><time>2026-05-03T07:57:13.455Z</time></trkpt><trkpt lat="42.362726" lon="13.5396955"><ele>1228.25</ele><time>2026-05-03T07:57:14.454Z</time></trkpt><trkpt lat="42.3626375" lon="13.5398308"><ele>1227.5</ele><time>2026-05-03T07:57:15.452Z</time></trkpt><trkpt lat="42.3625474" lon="13.5399618"><ele>1226.75</ele><time>2026-05-03T07:57:16.456Z</time></trkpt><trkpt lat="42.3624849" lon="13.5401097"><ele>1226.0</ele><time>2026-05-03T07:57:17.459Z</time></trkpt><trkpt lat="42.3624245" lon="13.5402629"><ele>1227.0</ele><time>2026-05-03T07:57:18.448Z</time></trkpt><trkpt lat="42.3623646" lon="13.5404487"><ele>1228.0</ele><time>2026-05-03T07:57:19.466Z</time></trkpt><trkpt lat="42.3623108" lon="13.5406378"><ele>1229.0</ele><time>2026-05-03T07:57:20.455Z</time></trkpt><trkpt lat="42.3622709" lon="13.5408128"><ele>1230.0</ele><time>2026-05-03T07:57:21.468Z</time></trkpt><trkpt lat="42.3622307" lon="13.5409755"><ele>1230.0</ele><time>2026-05-03T07:57:22.461Z</time></trkpt><trkpt lat="42.3621762" lon="13.5411368"><ele>1230.0</ele><time>2026-05-03T07:57:23.477Z</time></trkpt><trkpt lat="42.3621364" lon="13.5413203"><ele>1230.0</ele><time>2026-05-03T07:57:24.453Z</time></trkpt><trkpt lat="42.3620851" lon="13.5414954"><ele>1230.0</ele><time>2026-05-03T07:57:25.467Z</time></trkpt><trkpt lat="42.3620414" lon="13.5416792"><ele>1230.0</ele><time>2026-05-03T07:57:26.462Z</time></trkpt><trkpt lat="42.3619836" lon="13.5418577"><ele>1230.0</ele><time>2026-05-03T07:57:27.465Z</time></trkpt><trkpt lat="42.3619293" lon="13.5420342"><ele>1230.0</ele><time>2026-05-03T07:57:28.459Z</time></trkpt><trkpt lat="42.3618795" lon="13.5422339"><ele>1230.0</ele><time>2026-05-03T07:57:29.466Z</time></trkpt><trkpt lat="42.3618293" lon="13.5424149"><ele>1230.0</ele><time>2026-05-03T07:57:30.459Z</time></trkpt><trkpt lat="42.3617819" lon="13.5425631"><ele>1230.0</ele><time>2026-05-03T07:57:31.465Z</time></trkpt><trkpt lat="42.3617464" lon="13.5426859"><ele>1230.0</ele><time>2026-05-03T07:57:32.467Z</time></trkpt><trkpt lat="42.3617264" lon="13.5428117"><ele>1230.0</ele><time>2026-05-03T07:57:33.461Z</time></trkpt><trkpt lat="42.3617295" lon="13.542985"><ele>1230.0</ele><time>2026-05-03T07:57:34.452Z</time></trkpt><trkpt lat="42.3617275" lon="13.5431818"><ele>1230.0</ele><time>2026-05-03T07:57:35.464Z</time></trkpt><trkpt lat="42.3617259" lon="13.5433711"><ele>1230.0</ele><time>2026-05-03T07:57:36.464Z</time></trkpt><trkpt lat="42.3617092" lon="13.5435404"><ele>1230.0</ele><time>2026-05-03T07:57:37.462Z</time></trkpt><trkpt lat="42.3616716" lon="13.5436801"><ele>1230.0</ele><time>2026-05-03T07:57:38.458Z</time></trkpt><trkpt lat="42.3616228" lon="13.5438333"><ele>1230.75</ele><time>2026-05-03T07:57:39.463Z</time></trkpt><trkpt lat="42.3615798" lon="13.5439804"><ele>1231.5</ele><time>2026-05-03T07:57:40.461Z</time></trkpt><trkpt lat="42.3615568" lon="13.544145"><ele>1232.25</ele><time>2026-05-03T07:57:41.458Z</time></trkpt><trkpt lat="42.3615382" lon="13.5443332"><ele>1233.0</ele><time>2026-05-03T07:57:42.465Z</time></trkpt><trkpt lat="42.3615086" lon="13.5444985"><ele>1233.75</ele><time>2026-05-03T07:57:43.462Z</time></trkpt><trkpt lat="42.3614839" lon="13.5446498"><ele>1234.5</ele><time>2026-05-03T07:57:44.466Z</time></trkpt><trkpt lat="42.3614664" lon="13.544802"><ele>1235.25</ele><time>2026-05-03T07:57:45.46Z</time></trkpt><trkpt lat="42.3614597" lon="13.5449617"><ele>1236.0</ele><time>2026-05-03T07:57:46.461Z</time></trkpt><trkpt lat="42.3614685" lon="13.5451192"><ele>1236.0</ele><time>2026-05-03T07:57:47.469Z</time></trkpt><trkpt lat="42.3614874" lon="13.545264"><ele>1236.0</ele><time>2026-05-03T07:57:48.468Z</time></trkpt><trkpt lat="42.3615014" lon="13.5453986"><ele>1236.0</ele><time>2026-05-03T07:57:49.466Z</time></trkpt><trkpt lat="42.3615017" lon="13.54553"><ele>1236.0</ele><time>2026-05-03T07:57:50.473Z</time></trkpt><trkpt lat="42.3614883" lon="13.5456513"><ele>1236.0</ele><time>2026-05-03T07:57:51.472Z</time></trkpt><trkpt lat="42.3614676" lon="13.545762"><ele>1235.8333333333333</ele><time>2026-05-03T07:57:52.473Z</time></trkpt><trkpt lat="42.3614532" lon="13.5458689"><ele>1235.6666666666667</ele><time>2026-05-03T07:57:53.469Z</time></trkpt><trkpt lat="42.3614518" lon="13.5459743"><ele>1235.5</ele><time>2026-05-03T07:57:54.483Z</time></trkpt><trkpt lat="42.3614714" lon="13.5460851"><ele>1235.3333333333335</ele><time>2026-05-03T07:57:55.47Z</time></trkpt><trkpt lat="42.3614984" lon="13.5461842"><ele>1235.1666666666667</ele><time>2026-05-03T07:57:56.471Z</time></trkpt><trkpt lat="42.3615167" lon="13.5462749"><ele>1235.0</ele><time>2026-05-03T07:57:57.468Z</time></trkpt><trkpt lat="42.3615156" lon="13.5464436"><ele>1234.8333333333335</ele><time>2026-05-03T07:57:59.46Z</time></trkpt><trkpt lat="42.3615007" lon="13.5465559"><ele>1234.6666666666667</ele><time>2026-05-03T07:58:00.469Z</time></trkpt><trkpt lat="42.3614755" lon="13.5466618"><ele>1234.5</ele><time>2026-05-03T07:58:01.474Z</time></trkpt><trkpt lat="42.36143" lon="13.5467593"><ele>1234.3333333333333</ele><time>2026-05-03T07:58:02.461Z</time></trkpt><trkpt lat="42.3613688" lon="13.5468504"><ele>1234.1666666666665</ele><time>2026-05-03T07:58:03.468Z</time></trkpt><trkpt lat="42.3613058" lon="13.5469309"><ele>1234.0</ele><time>2026-05-03T07:58:04.472Z</time></trkpt><trkpt lat="42.3612483" lon="13.5470239"><ele>1232.2</ele><time>2026-05-03T07:58:05.459Z</time></trkpt><trkpt lat="42.3612048" lon="13.547148"><ele>1230.4</ele><time>2026-05-03T07:58:06.473Z</time></trkpt><trkpt lat="42.3611644" lon="13.5472909"><ele>1228.6</ele><time>2026-05-03T07:58:07.469Z</time></trkpt><trkpt lat="42.3611157" lon="13.5474358"><ele>1226.8</ele><time>2026-05-03T07:58:08.476Z</time></trkpt><trkpt lat="42.3610591" lon="13.5475646"><ele>1225.0</ele><time>2026-05-03T07:58:09.464Z</time></trkpt><trkpt lat="42.3610029" lon="13.5476861"><ele>1225.0</ele><time>2026-05-03T07:58:10.475Z</time></trkpt><trkpt lat="42.3609518" lon="13.5478051"><ele>1225.0</ele><time>2026-05-03T07:58:11.465Z</time></trkpt><trkpt lat="42.3609074" lon="13.5479144"><ele>1225.0</ele><time>2026-05-03T07:58:12.473Z</time></trkpt><trkpt lat="42.3608558" lon="13.5480013"><ele>1225.0</ele><time>2026-05-03T07:58:13.466Z</time></trkpt><trkpt lat="42.3607925" lon="13.5480759"><ele>1225.0</ele><time>2026-05-03T07:58:14.475Z</time></trkpt><trkpt lat="42.360726" lon="13.5481645"><ele>1225.0</ele><time>2026-05-03T07:58:15.464Z</time></trkpt><trkpt lat="42.3606594" lon="13.5482791"><ele>1225.0</ele><time>2026-05-03T07:58:16.468Z</time></trkpt><trkpt lat="42.360609" lon="13.5484137"><ele>1225.0</ele><time>2026-05-03T07:58:17.461Z</time></trkpt><trkpt lat="42.3605658" lon="13.5485703"><ele>1225.0</ele><time>2026-05-03T07:58:18.465Z</time></trkpt><trkpt lat="42.3605322" lon="13.5487474"><ele>1223.25</ele><time>2026-05-03T07:58:19.469Z</time></trkpt><trkpt lat="42.3605042" lon="13.5489227"><ele>1221.5</ele><time>2026-05-03T07:58:20.468Z</time></trkpt><trkpt lat="42.3604827" lon="13.5490826"><ele>1219.75</ele><time>2026-05-03T07:58:21.472Z</time></trkpt><trkpt lat="42.3604683" lon="13.5492341"><ele>1218.0</ele><time>2026-05-03T07:58:22.481Z</time></trkpt><trkpt lat="42.360445" lon="13.5493785"><ele>1218.0</ele><time>2026-05-03T07:58:23.467Z</time></trkpt><trkpt lat="42.3604144" lon="13.5495115"><ele>1218.0</ele><time>2026-05-03T07:58:24.475Z</time></trkpt><trkpt lat="42.3603752" lon="13.5496438"><ele>1218.0</ele><time>2026-05-03T07:58:25.485Z</time></trkpt><trkpt lat="42.3603444" lon="13.5497833"><ele>1218.0</ele><time>2026-05-03T07:58:26.464Z</time></trkpt><trkpt lat="42.3603259" lon="13.5499359"><ele>1218.0</ele><time>2026-05-03T07:58:27.475Z</time></trkpt><trkpt lat="42.3603085" lon="13.5501022"><ele>1217.25</ele><time>2026-05-03T07:58:28.473Z</time></trkpt><trkpt lat="42.3602834" lon="13.5502654"><ele>1216.5</ele><time>2026-05-03T07:58:29.476Z</time></trkpt><trkpt lat="42.3602544" lon="13.5504311"><ele>1215.75</ele><time>2026-05-03T07:58:30.465Z</time></trkpt><trkpt lat="42.3602246" lon="13.5506041"><ele>1215.0</ele><time>2026-05-03T07:58:31.477Z</time></trkpt><trkpt lat="42.3601911" lon="13.5507732"><ele>1214.5</ele><time>2026-05-03T07:58:32.469Z</time></trkpt><trkpt lat="42.3601503" lon="13.5509377"><ele>1214.0</ele><time>2026-05-03T07:58:33.47Z</time></trkpt><trkpt lat="42.3601164" lon="13.5511005"><ele>1213.5</ele><time>2026-05-03T07:58:34.469Z</time></trkpt><trkpt lat="42.3600787" lon="13.551254"><ele>1213.0</ele><time>2026-05-03T07:58:35.473Z</time></trkpt><trkpt lat="42.3600415" lon="13.5514127"><ele>1212.75</ele><time>2026-05-03T07:58:36.468Z</time></trkpt><trkpt lat="42.3600052" lon="13.5515793"><ele>1212.5</ele><time>2026-05-03T07:58:37.466Z</time></trkpt><trkpt lat="42.3599671" lon="13.5517449"><ele>1212.25</ele><time>2026-05-03T07:58:38.476Z</time></trkpt><trkpt lat="42.3599201" lon="13.5518998"><ele>1212.0</ele><time>2026-05-03T07:58:39.466Z</time></trkpt><trkpt lat="42.3598723" lon="13.5520388"><ele>1211.8</ele><time>2026-05-03T07:58:40.472Z</time></trkpt><trkpt lat="42.3598316" lon="13.5521754"><ele>1211.6</ele><time>2026-05-03T07:58:41.47Z</time></trkpt><trkpt lat="42.3597849" lon="13.5523013"><ele>1211.3999999999999</ele><time>2026-05-03T07:58:42.468Z</time></trkpt><trkpt lat="42.3597259" lon="13.5524235"><ele>1211.2</ele><time>2026-05-03T07:58:43.466Z</time></trkpt><trkpt lat="42.3596546" lon="13.5525514"><ele>1211.0</ele><time>2026-05-03T07:58:44.471Z</time></trkpt><trkpt lat="42.3595776" lon="13.5526884"><ele>1211.0</ele><time>2026-05-03T07:58:45.476Z</time></trkpt><trkpt lat="42.3594988" lon="13.5528326"><ele>1211.0</ele><time>2026-05-03T07:58:46.471Z</time></trkpt><trkpt lat="42.3594278" lon="13.5529832"><ele>1211.0</ele><time>2026-05-03T07:58:47.479Z</time></trkpt><trkpt lat="42.3593586" lon="13.5531484"><ele>1211.0</ele><time>2026-05-03T07:58:48.473Z</time></trkpt><trkpt lat="42.3593089" lon="13.5533307"><ele>1211.0</ele><time>2026-05-03T07:58:49.471Z</time></trkpt><trkpt lat="42.3592597" lon="13.5535035"><ele>1211.0</ele><time>2026-05-03T07:58:50.467Z</time></trkpt><trkpt lat="42.3592107" lon="13.5536761"><ele>1211.0</ele><time>2026-05-03T07:58:51.475Z</time></trkpt><trkpt lat="42.3591649" lon="13.5538341"><ele>1211.0</ele><time>2026-05-03T07:58:52.465Z</time></trkpt><trkpt lat="42.3591041" lon="13.5539938"><ele>1211.25</ele><time>2026-05-03T07:58:53.473Z</time></trkpt><trkpt lat="42.3590293" lon="13.554136"><ele>1211.5</ele><time>2026-05-03T07:58:54.469Z</time></trkpt><trkpt lat="42.3589634" lon="13.5542836"><ele>1211.75</ele><time>2026-05-03T07:58:55.471Z</time></trkpt><trkpt lat="42.3589007" lon="13.5544263"><ele>1212.0</ele><time>2026-05-03T07:58:56.485Z</time></trkpt><trkpt lat="42.3588393" lon="13.5545671"><ele>1214.5</ele><time>2026-05-03T07:58:57.472Z</time></trkpt><trkpt lat="42.3587828" lon="13.5547086"><ele>1217.0</ele><time>2026-05-03T07:58:58.476Z</time></trkpt><trkpt lat="42.3587302" lon="13.5548461"><ele>1219.5</ele><time>2026-05-03T07:58:59.475Z</time></trkpt><trkpt lat="42.3586782" lon="13.5549815"><ele>1222.0</ele><time>2026-05-03T07:59:00.471Z</time></trkpt><trkpt lat="42.3586303" lon="13.555122"><ele>1222.0</ele><time>2026-05-03T07:59:01.474Z</time></trkpt><trkpt lat="42.3585872" lon="13.55527"><ele>1222.0</ele><time>2026-05-03T07:59:02.473Z</time></trkpt><trkpt lat="42.3585392" lon="13.5554242"><ele>1222.0</ele><time>2026-05-03T07:59:03.469Z</time></trkpt><trkpt lat="42.3584865" lon="13.5555737"><ele>1222.0</ele><time>2026-05-03T07:59:04.459Z</time></trkpt><trkpt lat="42.3584441" lon="13.5557171"><ele>1221.0</ele><time>2026-05-03T07:59:05.467Z</time></trkpt><trkpt lat="42.3584071" lon="13.5558561"><ele>1220.0</ele><time>2026-05-03T07:59:06.462Z</time></trkpt><trkpt lat="42.3583795" lon="13.5559895"><ele>1219.0</ele><time>2026-05-03T07:59:07.466Z</time></trkpt><trkpt lat="42.35836" lon="13.5561295"><ele>1218.0</ele><time>2026-05-03T07:59:08.458Z</time></trkpt><trkpt lat="42.3583607" lon="13.5562771"><ele>1217.0</ele><time>2026-05-03T07:59:09.46Z</time></trkpt><trkpt lat="42.3583771" lon="13.5564334"><ele>1215.8</ele><time>2026-05-03T07:59:10.46Z</time></trkpt><trkpt lat="42.3584033" lon="13.5565871"><ele>1214.6</ele><time>2026-05-03T07:59:11.472Z</time></trkpt><trkpt lat="42.3584275" lon="13.5567241"><ele>1213.3999999999999</ele><time>2026-05-03T07:59:12.464Z</time></trkpt><trkpt lat="42.358446" lon="13.55684"><ele>1212.2</ele><time>2026-05-03T07:59:13.475Z</time></trkpt><trkpt lat="42.3584623" lon="13.5569462"><ele>1211.0</ele><time>2026-05-03T07:59:14.465Z</time></trkpt><trkpt lat="42.3584908" lon="13.5570598"><ele>1211.0</ele><time>2026-05-03T07:59:15.47Z</time></trkpt><trkpt lat="42.3585353" lon="13.5571795"><ele>1211.0</ele><time>2026-05-03T07:59:16.45Z</time></trkpt><trkpt lat="42.3585973" lon="13.557305"><ele>1211.0</ele><time>2026-05-03T07:59:17.462Z</time></trkpt><trkpt lat="42.3586673" lon="13.5574288"><ele>1211.0</ele><time>2026-05-03T07:59:18.461Z</time></trkpt><trkpt lat="42.3587278" lon="13.557547"><ele>1211.0</ele><time>2026-05-03T07:59:19.455Z</time></trkpt><trkpt lat="42.3587708" lon="13.5576558"><ele>1211.0</ele><time>2026-05-03T07:59:20.462Z</time></trkpt><trkpt lat="42.3587982" lon="13.5577701"><ele>1211.0</ele><time>2026-05-03T07:59:21.459Z</time></trkpt><trkpt lat="42.358808" lon="13.5578908"><ele>1211.0</ele><time>2026-05-03T07:59:22.47Z</time></trkpt><trkpt lat="42.3588077" lon="13.5580097"><ele>1211.0</ele><time>2026-05-03T07:59:23.468Z</time></trkpt><trkpt lat="42.3587985" lon="13.5581315"><ele>1211.0</ele><time>2026-05-03T07:59:24.469Z</time></trkpt><trkpt lat="42.3587954" lon="13.5582687"><ele>1210.75</ele><time>2026-05-03T07:59:25.461Z</time></trkpt><trkpt lat="42.3588166" lon="13.5584185"><ele>1210.5</ele><time>2026-05-03T07:59:26.463Z</time></trkpt><trkpt lat="42.3588523" lon="13.558565"><ele>1210.25</ele><time>2026-05-03T07:59:27.475Z</time></trkpt><trkpt lat="42.3588902" lon="13.5587087"><ele>1210.0</ele><time>2026-05-03T07:59:28.47Z</time></trkpt><trkpt lat="42.3589258" lon="13.5588607"><ele>1208.4</ele><time>2026-05-03T07:59:29.465Z</time></trkpt><trkpt lat="42.3589568" lon="13.5590027"><ele>1206.8</ele><time>2026-05-03T07:59:30.465Z</time></trkpt><trkpt lat="42.3589857" lon="13.5591313"><ele>1205.2</ele><time>2026-05-03T07:59:31.466Z</time></trkpt><trkpt lat="42.3590067" lon="13.5592476"><ele>1203.6</ele><time>2026-05-03T07:59:32.47Z</time></trkpt><trkpt lat="42.3590176" lon="13.5593639"><ele>1202.0</ele><time>2026-05-03T07:59:33.459Z</time></trkpt><trkpt lat="42.3590179" lon="13.5594931"><ele>1202.0</ele><time>2026-05-03T07:59:34.461Z</time></trkpt><trkpt lat="42.3590026" lon="13.5596335"><ele>1202.0</ele><time>2026-05-03T07:59:35.464Z</time></trkpt><trkpt lat="42.358978" lon="13.559781"><ele>1202.0</ele><time>2026-05-03T07:59:36.457Z</time></trkpt><trkpt lat="42.358951" lon="13.5599316"><ele>1202.0</ele><time>2026-05-03T07:59:37.469Z</time></trkpt><trkpt lat="42.3589282" lon="13.5600781"><ele>1202.0</ele><time>2026-05-03T07:59:38.458Z</time></trkpt><trkpt lat="42.3589082" lon="13.5602185"><ele>1202.0</ele><time>2026-05-03T07:59:39.461Z</time></trkpt><trkpt lat="42.3588959" lon="13.5603563"><ele>1202.0</ele><time>2026-05-03T07:59:40.466Z</time></trkpt><trkpt lat="42.3588927" lon="13.5604817"><ele>1202.0</ele><time>2026-05-03T07:59:41.464Z</time></trkpt><trkpt lat="42.3588932" lon="13.5605963"><ele>1202.0</ele><time>2026-05-03T07:59:42.466Z</time></trkpt><trkpt lat="42.3588965" lon="13.5607026"><ele>1202.0</ele><time>2026-05-03T07:59:43.456Z</time></trkpt><trkpt lat="42.3589003" lon="13.5607909"><ele>1202.0</ele><time>2026-05-03T07:59:44.455Z</time></trkpt><trkpt lat="42.3589036" lon="13.560903"><ele>1201.8</ele><time>2026-05-03T07:59:46.456Z</time></trkpt><trkpt lat="42.358903" lon="13.5609993"><ele>1201.6</ele><time>2026-05-03T07:59:52.455Z</time></trkpt><trkpt lat="42.358885" lon="13.5611271"><ele>1201.3999999999999</ele><time>2026-05-03T08:00:25.459Z</time></trkpt><trkpt lat="42.3588864" lon="13.5612681"><ele>1201.2</ele><time>2026-05-03T08:00:27.46Z</time></trkpt><trkpt lat="42.3588871" lon="13.5614045"><ele>1201.0</ele><time>2026-05-03T08:00:29.474Z</time></trkpt><trkpt lat="42.3588502" lon="13.5615074"><ele>1201.0</ele><time>2026-05-03T08:01:35.473Z</time></trkpt><trkpt lat="42.3588503" lon="13.5616175"><ele>1201.0</ele><time>2026-05-03T08:01:38.46Z</time></trkpt><trkpt lat="42.3588484" lon="13.5618086"><ele>1201.0</ele><time>2026-05-03T08:01:40.461Z</time></trkpt><trkpt lat="42.3588492" lon="13.5619419"><ele>1201.0</ele><time>2026-05-03T08:01:41.464Z</time></trkpt><trkpt lat="42.3588504" lon="13.5620853"><ele>1201.0</ele><time>2026-05-03T08:01:42.46Z</time></trkpt><trkpt lat="42.3588485" lon="13.5622226"><ele>1200.6</ele><time>2026-05-03T08:01:43.471Z</time></trkpt><trkpt lat="42.3588437" lon="13.5623499"><ele>1200.1999999999998</ele><time>2026-05-03T08:01:44.466Z</time></trkpt><trkpt lat="42.3588427" lon="13.5624761"><ele>1199.8000000000002</ele><time>2026-05-03T08:01:45.47Z</time></trkpt><trkpt lat="42.3588445" lon="13.562604"><ele>1199.4</ele><time>2026-05-03T08:01:46.463Z</time></trkpt><trkpt lat="42.3588502" lon="13.5627355"><ele>1199.0</ele><time>2026-05-03T08:01:47.463Z</time></trkpt><trkpt lat="42.3588607" lon="13.5628778"><ele>1196.75</ele><time>2026-05-03T08:01:48.462Z</time></trkpt><trkpt lat="42.358874" lon="13.5630338"><ele>1194.5</ele><time>2026-05-03T08:01:49.463Z</time></trkpt><trkpt lat="42.3588981" lon="13.5631922"><ele>1192.25</ele><time>2026-05-03T08:01:50.463Z</time></trkpt><trkpt lat="42.3589269" lon="13.5633427"><ele>1190.0</ele><time>2026-05-03T08:01:51.472Z</time></trkpt><trkpt lat="42.3589538" lon="13.5634772"><ele>1190.0</ele><time>2026-05-03T08:01:52.462Z</time></trkpt><trkpt lat="42.3589736" lon="13.5635958"><ele>1190.0</ele><time>2026-05-03T08:01:53.478Z</time></trkpt><trkpt lat="42.358982" lon="13.5637053"><ele>1190.0</ele><time>2026-05-03T08:01:54.458Z</time></trkpt><trkpt lat="42.3589775" lon="13.5638235"><ele>1190.0</ele><time>2026-05-03T08:01:55.466Z</time></trkpt><trkpt lat="42.3589718" lon="13.563951"><ele>1190.0</ele><time>2026-05-03T08:01:56.462Z</time></trkpt><trkpt lat="42.3589603" lon="13.5640748"><ele>1190.0</ele><time>2026-05-03T08:01:57.468Z</time></trkpt><trkpt lat="42.3589608" lon="13.5641957"><ele>1190.6</ele><time>2026-05-03T08:01:58.461Z</time></trkpt><trkpt lat="42.3589675" lon="13.5643114"><ele>1191.2</ele><time>2026-05-03T08:01:59.475Z</time></trkpt><trkpt lat="42.3589779" lon="13.5644158"><ele>1191.8</ele><time>2026-05-03T08:02:00.463Z</time></trkpt><trkpt lat="42.3589861" lon="13.5645104"><ele>1192.4</ele><time>2026-05-03T08:02:01.474Z</time></trkpt><trkpt lat="42.3589696" lon="13.5646657"><ele>1193.0</ele><time>2026-05-03T08:02:03.47Z</time></trkpt><trkpt lat="42.3589183" lon="13.5648102"><ele>1193.0</ele><time>2026-05-03T08:02:05.462Z</time></trkpt><trkpt lat="42.3588774" lon="13.5649322"><ele>1193.0</ele><time>2026-05-03T08:02:07.46Z</time></trkpt><trkpt lat="42.3588511" lon="13.5650396"><ele>1193.0</ele><time>2026-05-03T08:02:09.46Z</time></trkpt><trkpt lat="42.3588215" lon="13.5651478"><ele>1193.0</ele><time>2026-05-03T08:02:11.455Z</time></trkpt><trkpt lat="42.3587968" lon="13.5652514"><ele>1193.0</ele><time>2026-05-03T08:03:40.467Z</time></trkpt><trkpt lat="42.3587883" lon="13.5654216"><ele>1192.6</ele><time>2026-05-03T08:03:42.463Z</time></trkpt><trkpt lat="42.3587826" lon="13.5655353"><ele>1192.1999999999998</ele><time>2026-05-03T08:03:43.458Z</time></trkpt><trkpt lat="42.3587742" lon="13.5656748"><ele>1191.8</ele><time>2026-05-03T08:03:44.466Z</time></trkpt><trkpt lat="42.3587648" lon="13.5658301"><ele>1191.3999999999999</ele><time>2026-05-03T08:03:45.463Z</time></trkpt><trkpt lat="42.3587618" lon="13.5659996"><ele>1191.0</ele><time>2026-05-03T08:03:46.461Z</time></trkpt><trkpt lat="42.3587644" lon="13.5661665"><ele>1191.0</ele><time>2026-05-03T08:03:47.459Z</time></trkpt><trkpt lat="42.3587713" lon="13.5663243"><ele>1191.0</ele><time>2026-05-03T08:03:48.462Z</time></trkpt><trkpt lat="42.3587823" lon="13.5664744"><ele>1191.0</ele><time>2026-05-03T08:03:49.454Z</time></trkpt><trkpt lat="42.3587893" lon="13.5666229"><ele>1191.0</ele><time>2026-05-03T08:03:50.455Z</time></trkpt><trkpt lat="42.3587918" lon="13.5667831"><ele>1191.0</ele><time>2026-05-03T08:03:51.47Z</time></trkpt><trkpt lat="42.3587932" lon="13.5669448"><ele>1191.0</ele><time>2026-05-03T08:03:52.461Z</time></trkpt><trkpt lat="42.3587897" lon="13.567105"><ele>1191.0</ele><time>2026-05-03T08:03:53.466Z</time></trkpt><trkpt lat="42.3587882" lon="13.5672633"><ele>1191.0</ele><time>2026-05-03T08:03:54.454Z</time></trkpt><trkpt lat="42.3587809" lon="13.5674124"><ele>1191.0</ele><time>2026-05-03T08:03:55.463Z</time></trkpt><trkpt lat="42.3587705" lon="13.5675632"><ele>1191.0</ele><time>2026-05-03T08:03:56.462Z</time></trkpt><trkpt lat="42.3587572" lon="13.5677114"><ele>1191.0</ele><time>2026-05-03T08:03:57.469Z</time></trkpt><trkpt lat="42.3587465" lon="13.5678503"><ele>1191.0</ele><time>2026-05-03T08:03:58.466Z</time></trkpt><trkpt lat="42.3587349" lon="13.5679906"><ele>1191.0</ele><time>2026-05-03T08:03:59.462Z</time></trkpt><trkpt lat="42.3587187" lon="13.5681303"><ele>1191.0</ele><time>2026-05-03T08:04:00.465Z</time></trkpt><trkpt lat="42.3586946" lon="13.5682691"><ele>1191.0</ele><time>2026-05-03T08:04:01.468Z</time></trkpt><trkpt lat="42.3586715" lon="13.5684059"><ele>1191.0</ele><time>2026-05-03T08:04:02.46Z</time></trkpt><trkpt lat="42.3586471" lon="13.568541"><ele>1191.0</ele><time>2026-05-03T08:04:03.469Z</time></trkpt><trkpt lat="42.3586218" lon="13.5686779"><ele>1191.0</ele><time>2026-05-03T08:04:04.461Z</time></trkpt><trkpt lat="42.3585987" lon="13.5688125"><ele>1189.6</ele><time>2026-05-03T08:04:05.468Z</time></trkpt><trkpt lat="42.3585747" lon="13.5689447"><ele>1188.1999999999998</ele><time>2026-05-03T08:04:06.475Z</time></trkpt><trkpt lat="42.3585434" lon="13.5690728"><ele>1186.8000000000002</ele><time>2026-05-03T08:04:07.467Z</time></trkpt><trkpt lat="42.3584945" lon="13.5691924"><ele>1185.4</ele><time>2026-05-03T08:04:08.461Z</time></trkpt><trkpt lat="42.3584279" lon="13.5693048"><ele>1184.0</ele><time>2026-05-03T08:04:09.466Z</time></trkpt><trkpt lat="42.3583537" lon="13.5694102"><ele>1184.0</ele><time>2026-05-03T08:04:10.467Z</time></trkpt><trkpt lat="42.3582755" lon="13.5695057"><ele>1184.0</ele><time>2026-05-03T08:04:11.464Z</time></trkpt><trkpt lat="42.3582009" lon="13.5696089"><ele>1184.0</ele><time>2026-05-03T08:04:12.467Z</time></trkpt><trkpt lat="42.3581294" lon="13.5697184"><ele>1184.0</ele><time>2026-05-03T08:04:13.469Z</time></trkpt><trkpt lat="42.3580576" lon="13.5698263"><ele>1184.0</ele><time>2026-05-03T08:04:14.464Z</time></trkpt><trkpt lat="42.3579843" lon="13.5699338"><ele>1184.5</ele><time>2026-05-03T08:04:15.472Z</time></trkpt><trkpt lat="42.3579156" lon="13.5700537"><ele>1185.0</ele><time>2026-05-03T08:04:16.461Z</time></trkpt><trkpt lat="42.3578506" lon="13.5701805"><ele>1185.5</ele><time>2026-05-03T08:04:17.468Z</time></trkpt><trkpt lat="42.357777" lon="13.5703022"><ele>1186.0</ele><time>2026-05-03T08:04:18.461Z</time></trkpt><trkpt lat="42.3577001" lon="13.5704262"><ele>1186.0</ele><time>2026-05-03T08:04:19.467Z</time></trkpt><trkpt lat="42.3576379" lon="13.5705668"><ele>1186.0</ele><time>2026-05-03T08:04:20.468Z</time></trkpt><trkpt lat="42.3575818" lon="13.5707175"><ele>1186.0</ele><time>2026-05-03T08:04:21.465Z</time></trkpt><trkpt lat="42.3575192" lon="13.570865"><ele>1186.0</ele><time>2026-05-03T08:04:22.467Z</time></trkpt><trkpt lat="42.3574466" lon="13.5710183"><ele>1186.0</ele><time>2026-05-03T08:04:23.463Z</time></trkpt><trkpt lat="42.3573623" lon="13.5711706"><ele>1186.0</ele><time>2026-05-03T08:04:24.462Z</time></trkpt><trkpt lat="42.357264" lon="13.5713175"><ele>1186.0</ele><time>2026-05-03T08:04:25.465Z</time></trkpt><trkpt lat="42.3571746" lon="13.5714893"><ele>1186.0</ele><time>2026-05-03T08:04:26.459Z</time></trkpt><trkpt lat="42.3570969" lon="13.571651"><ele>1186.0</ele><time>2026-05-03T08:04:27.467Z</time></trkpt><trkpt lat="42.3570099" lon="13.5717964"><ele>1186.0</ele><time>2026-05-03T08:04:28.467Z</time></trkpt><trkpt lat="42.3569366" lon="13.5719428"><ele>1186.0</ele><time>2026-05-03T08:04:29.468Z</time></trkpt><trkpt lat="42.3568534" lon="13.572086"><ele>1186.0</ele><time>2026-05-03T08:04:30.468Z</time></trkpt><trkpt lat="42.3567614" lon="13.5722305"><ele>1186.0</ele><time>2026-05-03T08:04:31.461Z</time></trkpt><trkpt lat="42.3566622" lon="13.5723359"><ele>1186.0</ele><time>2026-05-03T08:04:32.461Z</time></trkpt><trkpt lat="42.3565404" lon="13.5724174"><ele>1186.0</ele><time>2026-05-03T08:04:33.453Z</time></trkpt><trkpt lat="42.3564352" lon="13.572458"><ele>1186.0</ele><time>2026-05-03T08:04:34.462Z</time></trkpt><trkpt lat="42.3563266" lon="13.5724868"><ele>1185.2</ele><time>2026-05-03T08:04:35.46Z</time></trkpt><trkpt lat="42.3562476" lon="13.5724667"><ele>1184.3999999999999</ele><time>2026-05-03T08:04:36.465Z</time></trkpt><trkpt lat="42.3561682" lon="13.5724347"><ele>1183.6</ele><time>2026-05-03T08:04:37.483Z</time></trkpt><trkpt lat="42.3560686" lon="13.5723907"><ele>1182.8</ele><time>2026-05-03T08:04:38.465Z</time></trkpt><trkpt lat="42.3559594" lon="13.5723701"><ele>1182.0</ele><time>2026-05-03T08:04:39.46Z</time></trkpt><trkpt lat="42.3558412" lon="13.5723904"><ele>1182.0</ele><time>2026-05-03T08:04:40.452Z</time></trkpt><trkpt lat="42.3557178" lon="13.5724375"><ele>1182.0</ele><time>2026-05-03T08:04:41.461Z</time></trkpt><trkpt lat="42.3555913" lon="13.5724948"><ele>1182.0</ele><time>2026-05-03T08:04:42.466Z</time></trkpt><trkpt lat="42.3554736" lon="13.5725735"><ele>1182.0</ele><time>2026-05-03T08:04:43.458Z</time></trkpt><trkpt lat="42.3553295" lon="13.5726513"><ele>1180.0</ele><time>2026-05-03T08:04:44.459Z</time></trkpt><trkpt lat="42.3551814" lon="13.572737"><ele>1178.0</ele><time>2026-05-03T08:04:45.455Z</time></trkpt><trkpt lat="42.3550455" lon="13.5728275"><ele>1176.0</ele><time>2026-05-03T08:04:46.463Z</time></trkpt><trkpt lat="42.3549129" lon="13.5729028"><ele>1176.0</ele><time>2026-05-03T08:04:47.459Z</time></trkpt><trkpt lat="42.3547663" lon="13.5729754"><ele>1176.0</ele><time>2026-05-03T08:04:48.46Z</time></trkpt><trkpt lat="42.3546243" lon="13.5730325"><ele>1176.0</ele><time>2026-05-03T08:04:49.463Z</time></trkpt><trkpt lat="42.3545147" lon="13.5731136"><ele>1176.0</ele><time>2026-05-03T08:04:50.462Z</time></trkpt><trkpt lat="42.3543626" lon="13.5731385"><ele>1175.75</ele><time>2026-05-03T08:04:51.454Z</time></trkpt><trkpt lat="42.3542335" lon="13.5732062"><ele>1175.5</ele><time>2026-05-03T08:04:52.458Z</time></trkpt><trkpt lat="42.3541142" lon="13.5732854"><ele>1175.25</ele><time>2026-05-03T08:04:53.471Z</time></trkpt><trkpt lat="42.353992" lon="13.573376"><ele>1175.0</ele><time>2026-05-03T08:04:54.466Z</time></trkpt><trkpt lat="42.3538589" lon="13.573436"><ele>1176.25</ele><time>2026-05-03T08:04:55.468Z</time></trkpt><trkpt lat="42.3537425" lon="13.5735315"><ele>1177.5</ele><time>2026-05-03T08:04:56.465Z</time></trkpt><trkpt lat="42.3536281" lon="13.5736189"><ele>1178.75</ele><time>2026-05-03T08:04:57.464Z</time></trkpt><trkpt lat="42.3535239" lon="13.5737"><ele>1180.0</ele><time>2026-05-03T08:04:58.462Z</time></trkpt><trkpt lat="42.3534208" lon="13.5737665"><ele>1176.8</ele><time>2026-05-03T08:04:59.462Z</time></trkpt><trkpt lat="42.3533139" lon="13.5738271"><ele>1173.6</ele><time>2026-05-03T08:05:00.467Z</time></trkpt><trkpt lat="42.3532138" lon="13.5738921"><ele>1170.4</ele><time>2026-05-03T08:05:01.466Z</time></trkpt><trkpt lat="42.3531288" lon="13.5739605"><ele>1167.2</ele><time>2026-05-03T08:05:02.461Z</time></trkpt><trkpt lat="42.3530408" lon="13.574018"><ele>1164.0</ele><time>2026-05-03T08:05:03.462Z</time></trkpt><trkpt lat="42.3529673" lon="13.5740751"><ele>1163.0</ele><time>2026-05-03T08:05:04.461Z</time></trkpt><trkpt lat="42.3528956" lon="13.5741242"><ele>1162.0</ele><time>2026-05-03T08:05:05.468Z</time></trkpt><trkpt lat="42.3528281" lon="13.5741716"><ele>1161.0</ele><time>2026-05-03T08:05:06.46Z</time></trkpt><trkpt lat="42.3527595" lon="13.5742033"><ele>1160.0</ele><time>2026-05-03T08:05:07.478Z</time></trkpt><trkpt lat="42.3526896" lon="13.5742144"><ele>1159.0</ele><time>2026-05-03T08:05:08.46Z</time></trkpt><trkpt lat="42.3526136" lon="13.5742152"><ele>1158.0</ele><time>2026-05-03T08:05:09.466Z</time></trkpt><trkpt lat="42.3525325" lon="13.5742061"><ele>1158.0</ele><time>2026-05-03T08:05:10.462Z</time></trkpt><trkpt lat="42.3524456" lon="13.5741789"><ele>1158.0</ele><time>2026-05-03T08:05:11.466Z</time></trkpt><trkpt lat="42.3523557" lon="13.5741231"><ele>1158.0</ele><time>2026-05-03T08:05:12.455Z</time></trkpt><trkpt lat="42.3522585" lon="13.5740557"><ele>1158.0</ele><time>2026-05-03T08:05:13.466Z</time></trkpt><trkpt lat="42.3521541" lon="13.5739681"><ele>1158.0</ele><time>2026-05-03T08:05:14.466Z</time></trkpt><trkpt lat="42.3520541" lon="13.5738808"><ele>1156.75</ele><time>2026-05-03T08:05:15.467Z</time></trkpt><trkpt lat="42.3519555" lon="13.5737919"><ele>1155.5</ele><time>2026-05-03T08:05:16.461Z</time></trkpt><trkpt lat="42.3518634" lon="13.5737113"><ele>1154.25</ele><time>2026-05-03T08:05:17.461Z</time></trkpt><trkpt lat="42.3517608" lon="13.5736285"><ele>1153.0</ele><time>2026-05-03T08:05:18.462Z</time></trkpt><trkpt lat="42.3516657" lon="13.5735529"><ele>1153.0</ele><time>2026-05-03T08:05:19.461Z</time></trkpt><trkpt lat="42.3515712" lon="13.5734832"><ele>1153.0</ele><time>2026-05-03T08:05:20.463Z</time></trkpt><trkpt lat="42.3514784" lon="13.5734002"><ele>1153.0</ele><time>2026-05-03T08:05:21.466Z</time></trkpt><trkpt lat="42.3513847" lon="13.5733066"><ele>1153.0</ele><time>2026-05-03T08:05:22.464Z</time></trkpt><trkpt lat="42.3512949" lon="13.5732009"><ele>1152.2</ele><time>2026-05-03T08:05:23.47Z</time></trkpt><trkpt lat="42.3512068" lon="13.5730941"><ele>1151.4</ele><time>2026-05-03T08:05:24.463Z</time></trkpt><trkpt lat="42.3511299" lon="13.5729858"><ele>1150.6000000000001</ele><time>2026-05-03T08:05:25.466Z</time></trkpt><trkpt lat="42.3510568" lon="13.5728782"><ele>1149.8</ele><time>2026-05-03T08:05:26.465Z</time></trkpt><trkpt lat="42.3509909" lon="13.5727692"><ele>1149.0</ele><time>2026-05-03T08:05:27.47Z</time></trkpt><trkpt lat="42.3509253" lon="13.5726584"><ele>1149.0</ele><time>2026-05-03T08:05:28.466Z</time></trkpt><trkpt lat="42.3508545" lon="13.572543"><ele>1149.0</ele><time>2026-05-03T08:05:29.458Z</time></trkpt><trkpt lat="42.3507764" lon="13.5724476"><ele>1149.0</ele><time>2026-05-03T08:05:30.465Z</time></trkpt><trkpt lat="42.3506837" lon="13.5723688"><ele>1149.0</ele><time>2026-05-03T08:05:31.465Z</time></trkpt><trkpt lat="42.3505804" lon="13.5723094"><ele>1149.0</ele><time>2026-05-03T08:05:32.464Z</time></trkpt><trkpt lat="42.3504742" lon="13.5722509"><ele>1147.75</ele><time>2026-05-03T08:05:33.462Z</time></trkpt><trkpt lat="42.350361" lon="13.57218"><ele>1146.5</ele><time>2026-05-03T08:05:34.461Z</time></trkpt><trkpt lat="42.3502497" lon="13.5720948"><ele>1145.25</ele><time>2026-05-03T08:05:35.458Z</time></trkpt><trkpt lat="42.3501348" lon="13.5720004"><ele>1144.0</ele><time>2026-05-03T08:05:36.459Z</time></trkpt><trkpt lat="42.3500178" lon="13.5719036"><ele>1144.0</ele><time>2026-05-03T08:05:37.459Z</time></trkpt><trkpt lat="42.349906" lon="13.5718183"><ele>1144.0</ele><time>2026-05-03T08:05:38.474Z</time></trkpt><trkpt lat="42.3498009" lon="13.571745"><ele>1144.0</ele><time>2026-05-03T08:05:39.458Z</time></trkpt><trkpt lat="42.3497063" lon="13.5716568"><ele>1144.0</ele><time>2026-05-03T08:05:40.464Z</time></trkpt><trkpt lat="42.3496267" lon="13.5715546"><ele>1141.6666666666665</ele><time>2026-05-03T08:05:41.461Z</time></trkpt><trkpt lat="42.3495507" lon="13.5714428"><ele>1139.3333333333333</ele><time>2026-05-03T08:05:42.462Z</time></trkpt><trkpt lat="42.3494769" lon="13.5713622"><ele>1137.0</ele><time>2026-05-03T08:05:43.459Z</time></trkpt><trkpt lat="42.3494102" lon="13.571311"><ele>1134.6666666666667</ele><time>2026-05-03T08:05:44.458Z</time></trkpt><trkpt lat="42.3493374" lon="13.5712891"><ele>1132.3333333333335</ele><time>2026-05-03T08:05:45.457Z</time></trkpt><trkpt lat="42.3492562" lon="13.5712695"><ele>1130.0</ele><time>2026-05-03T08:05:46.455Z</time></trkpt><trkpt lat="42.3491674" lon="13.5712592"><ele>1130.0</ele><time>2026-05-03T08:05:47.446Z</time></trkpt><trkpt lat="42.3490636" lon="13.571252"><ele>1130.0</ele><time>2026-05-03T08:05:48.45Z</time></trkpt><trkpt lat="42.3489492" lon="13.571248"><ele>1130.0</ele><time>2026-05-03T08:05:49.453Z</time></trkpt><trkpt lat="42.3488346" lon="13.571236"><ele>1130.0</ele><time>2026-05-03T08:05:50.446Z</time></trkpt><trkpt lat="42.3487195" lon="13.5712055"><ele>1129.8</ele><time>2026-05-03T08:05:51.452Z</time></trkpt><trkpt lat="42.3486091" lon="13.5711558"><ele>1129.6</ele><time>2026-05-03T08:05:52.46Z</time></trkpt><trkpt lat="42.3485111" lon="13.5711027"><ele>1129.4</ele><time>2026-05-03T08:05:53.459Z</time></trkpt><trkpt lat="42.348425" lon="13.5710452"><ele>1129.2</ele><time>2026-05-03T08:05:54.467Z</time></trkpt><trkpt lat="42.348351" lon="13.5709788"><ele>1129.0</ele><time>2026-05-03T08:05:55.464Z</time></trkpt><trkpt lat="42.3482819" lon="13.5709183"><ele>1129.0</ele><time>2026-05-03T08:05:56.465Z</time></trkpt><trkpt lat="42.3482222" lon="13.5708548"><ele>1129.0</ele><time>2026-05-03T08:05:57.466Z</time></trkpt><trkpt lat="42.3481636" lon="13.5707887"><ele>1129.0</ele><time>2026-05-03T08:05:58.469Z</time></trkpt><trkpt lat="42.3481139" lon="13.5707163"><ele>1129.0</ele><time>2026-05-03T08:05:59.468Z</time></trkpt><trkpt lat="42.3480748" lon="13.5706391"><ele>1129.0</ele><time>2026-05-03T08:06:00.472Z</time></trkpt><trkpt lat="42.3480454" lon="13.5705418"><ele>1129.0</ele><time>2026-05-03T08:06:01.459Z</time></trkpt><trkpt lat="42.3480164" lon="13.5704249"><ele>1127.4</ele><time>2026-05-03T08:06:02.465Z</time></trkpt><trkpt lat="42.3479867" lon="13.5702994"><ele>1125.8000000000002</ele><time>2026-05-03T08:06:03.458Z</time></trkpt><trkpt lat="42.3479429" lon="13.5701738"><ele>1124.1999999999998</ele><time>2026-05-03T08:06:04.464Z</time></trkpt><trkpt lat="42.3478797" lon="13.5700564"><ele>1122.6</ele><time>2026-05-03T08:06:05.458Z</time></trkpt><trkpt lat="42.3478001" lon="13.5699417"><ele>1121.0</ele><time>2026-05-03T08:06:06.464Z</time></trkpt><trkpt lat="42.3477181" lon="13.5698438"><ele>1121.0</ele><time>2026-05-03T08:06:07.455Z</time></trkpt><trkpt lat="42.3476355" lon="13.5697671"><ele>1121.0</ele><time>2026-05-03T08:06:08.456Z</time></trkpt><trkpt lat="42.3475478" lon="13.5696973"><ele>1121.0</ele><time>2026-05-03T08:06:09.474Z</time></trkpt><trkpt lat="42.3474512" lon="13.5696538"><ele>1121.0</ele><time>2026-05-03T08:06:10.453Z</time></trkpt><trkpt lat="42.3473482" lon="13.569645"><ele>1121.0</ele><time>2026-05-03T08:06:11.454Z</time></trkpt><trkpt lat="42.3472358" lon="13.5696626"><ele>1120.5</ele><time>2026-05-03T08:06:12.456Z</time></trkpt><trkpt lat="42.3471221" lon="13.5696949"><ele>1120.0</ele><time>2026-05-03T08:06:13.457Z</time></trkpt><trkpt lat="42.3470113" lon="13.569746"><ele>1119.5</ele><time>2026-05-03T08:06:14.453Z</time></trkpt><trkpt lat="42.3469032" lon="13.5698025"><ele>1119.0</ele><time>2026-05-03T08:06:15.454Z</time></trkpt><trkpt lat="42.3467949" lon="13.5698419"><ele>1119.0</ele><time>2026-05-03T08:06:16.455Z</time></trkpt><trkpt lat="42.3466831" lon="13.5698586"><ele>1119.0</ele><time>2026-05-03T08:06:17.459Z</time></trkpt><trkpt lat="42.3465713" lon="13.5698614"><ele>1119.0</ele><time>2026-05-03T08:06:18.463Z</time></trkpt><trkpt lat="42.3464625" lon="13.5698728"><ele>1119.0</ele><time>2026-05-03T08:06:19.455Z</time></trkpt><trkpt lat="42.3463552" lon="13.5698978"><ele>1119.0</ele><time>2026-05-03T08:06:20.462Z</time></trkpt><trkpt lat="42.3462577" lon="13.5699383"><ele>1118.2</ele><time>2026-05-03T08:06:21.449Z</time></trkpt><trkpt lat="42.3461707" lon="13.5700045"><ele>1117.4</ele><time>2026-05-03T08:06:22.455Z</time></trkpt><trkpt lat="42.3460884" lon="13.570091"><ele>1116.6</ele><time>2026-05-03T08:06:23.456Z</time></trkpt><trkpt lat="42.3460059" lon="13.5701927"><ele>1115.8</ele><time>2026-05-03T08:06:24.46Z</time></trkpt><trkpt lat="42.3459261" lon="13.5702865"><ele>1115.0</ele><time>2026-05-03T08:06:25.454Z</time></trkpt><trkpt lat="42.3458527" lon="13.5703751"><ele>1115.0</ele><time>2026-05-03T08:06:26.462Z</time></trkpt><trkpt lat="42.3457897" lon="13.5704719"><ele>1115.0</ele><time>2026-05-03T08:06:27.455Z</time></trkpt><trkpt lat="42.3457352" lon="13.5705787"><ele>1115.0</ele><time>2026-05-03T08:06:28.457Z</time></trkpt><trkpt lat="42.3456925" lon="13.5707047"><ele>1115.0</ele><time>2026-05-03T08:06:29.448Z</time></trkpt><trkpt lat="42.34567" lon="13.5708414"><ele>1115.0</ele><time>2026-05-03T08:06:30.459Z</time></trkpt><trkpt lat="42.3456546" lon="13.5709787"><ele>1115.0</ele><time>2026-05-03T08:06:31.452Z</time></trkpt><trkpt lat="42.3456245" lon="13.5711073"><ele>1115.0</ele><time>2026-05-03T08:06:32.454Z</time></trkpt><trkpt lat="42.3455708" lon="13.5712273"><ele>1115.0</ele><time>2026-05-03T08:06:33.449Z</time></trkpt><trkpt lat="42.3454931" lon="13.5713162"><ele>1115.0</ele><time>2026-05-03T08:06:34.454Z</time></trkpt><trkpt lat="42.345401" lon="13.5713923"><ele>1115.0</ele><time>2026-05-03T08:06:35.453Z</time></trkpt><trkpt lat="42.3453041" lon="13.5714747"><ele>1113.6</ele><time>2026-05-03T08:06:36.456Z</time></trkpt><trkpt lat="42.3452178" lon="13.5715532"><ele>1112.2</ele><time>2026-05-03T08:06:37.457Z</time></trkpt><trkpt lat="42.3451409" lon="13.5716357"><ele>1110.8</ele><time>2026-05-03T08:06:38.453Z</time></trkpt><trkpt lat="42.3450813" lon="13.5717367"><ele>1109.4</ele><time>2026-05-03T08:06:39.458Z</time></trkpt><trkpt lat="42.3450331" lon="13.5718726"><ele>1108.0</ele><time>2026-05-03T08:06:40.467Z</time></trkpt><trkpt lat="42.3449858" lon="13.5720307"><ele>1108.0</ele><time>2026-05-03T08:06:41.464Z</time></trkpt><trkpt lat="42.3449372" lon="13.572198"><ele>1108.0</ele><time>2026-05-03T08:06:42.454Z</time></trkpt><trkpt lat="42.3448807" lon="13.5723573"><ele>1108.0</ele><time>2026-05-03T08:06:43.463Z</time></trkpt><trkpt lat="42.3448144" lon="13.5725028"><ele>1108.0</ele><time>2026-05-03T08:06:44.458Z</time></trkpt><trkpt lat="42.3447311" lon="13.5726396"><ele>1107.5</ele><time>2026-05-03T08:06:45.46Z</time></trkpt><trkpt lat="42.3446308" lon="13.572772"><ele>1107.0</ele><time>2026-05-03T08:06:46.454Z</time></trkpt><trkpt lat="42.3445214" lon="13.5729002"><ele>1106.5</ele><time>2026-05-03T08:06:47.462Z</time></trkpt><trkpt lat="42.3443999" lon="13.5730248"><ele>1106.0</ele><time>2026-05-03T08:06:48.455Z</time></trkpt><trkpt lat="42.3442676" lon="13.5731621"><ele>1106.0</ele><time>2026-05-03T08:06:49.457Z</time></trkpt><trkpt lat="42.34417" lon="13.5732992"><ele>1106.0</ele><time>2026-05-03T08:06:50.456Z</time></trkpt><trkpt lat="42.3440605" lon="13.5734353"><ele>1106.0</ele><time>2026-05-03T08:06:51.467Z</time></trkpt><trkpt lat="42.3439422" lon="13.5735555"><ele>1106.0</ele><time>2026-05-03T08:06:52.458Z</time></trkpt><trkpt lat="42.3438407" lon="13.573684"><ele>1104.75</ele><time>2026-05-03T08:06:53.471Z</time></trkpt><trkpt lat="42.343745" lon="13.5738083"><ele>1103.5</ele><time>2026-05-03T08:06:54.458Z</time></trkpt><trkpt lat="42.3436608" lon="13.5739234"><ele>1102.25</ele><time>2026-05-03T08:06:55.467Z</time></trkpt><trkpt lat="42.3435823" lon="13.5740268"><ele>1101.0</ele><time>2026-05-03T08:06:56.457Z</time></trkpt><trkpt lat="42.3434826" lon="13.5741445"><ele>1101.0</ele><time>2026-05-03T08:06:57.466Z</time></trkpt><trkpt lat="42.3433842" lon="13.574267"><ele>1101.0</ele><time>2026-05-03T08:06:58.459Z</time></trkpt><trkpt lat="42.3433058" lon="13.5744"><ele>1101.0</ele><time>2026-05-03T08:06:59.464Z</time></trkpt><trkpt lat="42.3432243" lon="13.574539"><ele>1101.0</ele><time>2026-05-03T08:07:00.463Z</time></trkpt><trkpt lat="42.3431412" lon="13.5746718"><ele>1101.25</ele><time>2026-05-03T08:07:01.461Z</time></trkpt><trkpt lat="42.3430466" lon="13.5747964"><ele>1101.5</ele><time>2026-05-03T08:07:02.456Z</time></trkpt><trkpt lat="42.3429469" lon="13.574906"><ele>1101.75</ele><time>2026-05-03T08:07:03.464Z</time></trkpt><trkpt lat="42.3428479" lon="13.5750035"><ele>1102.0</ele><time>2026-05-03T08:07:04.461Z</time></trkpt><trkpt lat="42.3427461" lon="13.5750954"><ele>1102.0</ele><time>2026-05-03T08:07:05.466Z</time></trkpt><trkpt lat="42.3426532" lon="13.5751839"><ele>1102.0</ele><time>2026-05-03T08:07:06.458Z</time></trkpt><trkpt lat="42.3425652" lon="13.5752885"><ele>1102.0</ele><time>2026-05-03T08:07:07.468Z</time></trkpt><trkpt lat="42.3424758" lon="13.5754101"><ele>1102.0</ele><time>2026-05-03T08:07:08.46Z</time></trkpt><trkpt lat="42.3423885" lon="13.5755565"><ele>1102.25</ele><time>2026-05-03T08:07:09.468Z</time></trkpt><trkpt lat="42.3422871" lon="13.5757197"><ele>1102.5</ele><time>2026-05-03T08:07:10.46Z</time></trkpt><trkpt lat="42.3421907" lon="13.5758713"><ele>1102.75</ele><time>2026-05-03T08:07:11.48Z</time></trkpt><trkpt lat="42.3420981" lon="13.5760163"><ele>1103.0</ele><time>2026-05-03T08:07:12.462Z</time></trkpt><trkpt lat="42.3419913" lon="13.5761747"><ele>1101.75</ele><time>2026-05-03T08:07:13.465Z</time></trkpt><trkpt lat="42.3418919" lon="13.5763171"><ele>1100.5</ele><time>2026-05-03T08:07:14.46Z</time></trkpt><trkpt lat="42.3417917" lon="13.5764524"><ele>1099.25</ele><time>2026-05-03T08:07:15.47Z</time></trkpt><trkpt lat="42.3416917" lon="13.5765969"><ele>1098.0</ele><time>2026-05-03T08:07:16.466Z</time></trkpt><trkpt lat="42.3415962" lon="13.5767448"><ele>1098.0</ele><time>2026-05-03T08:07:17.471Z</time></trkpt><trkpt lat="42.3415041" lon="13.5768779"><ele>1098.0</ele><time>2026-05-03T08:07:18.463Z</time></trkpt><trkpt lat="42.3414089" lon="13.5770207"><ele>1098.0</ele><time>2026-05-03T08:07:19.47Z</time></trkpt><trkpt lat="42.3413042" lon="13.5771496"><ele>1098.0</ele><time>2026-05-03T08:07:20.468Z</time></trkpt><trkpt lat="42.3412068" lon="13.5772898"><ele>1097.5</ele><time>2026-05-03T08:07:21.474Z</time></trkpt><trkpt lat="42.3411061" lon="13.5774198"><ele>1097.0</ele><time>2026-05-03T08:07:22.467Z</time></trkpt><trkpt lat="42.3410167" lon="13.5775392"><ele>1096.5</ele><time>2026-05-03T08:07:23.477Z</time></trkpt><trkpt lat="42.3409333" lon="13.577658"><ele>1096.0</ele><time>2026-05-03T08:07:24.467Z</time></trkpt><trkpt lat="42.3408523" lon="13.577789"><ele>1096.8</ele><time>2026-05-03T08:07:25.466Z</time></trkpt><trkpt lat="42.3407688" lon="13.5778951"><ele>1097.6</ele><time>2026-05-03T08:07:26.472Z</time></trkpt><trkpt lat="42.3407001" lon="13.5779848"><ele>1098.4</ele><time>2026-05-03T08:07:27.467Z</time></trkpt><trkpt lat="42.3406433" lon="13.5780769"><ele>1099.2</ele><time>2026-05-03T08:07:28.474Z</time></trkpt><trkpt lat="42.3405731" lon="13.5781795"><ele>1100.0</ele><time>2026-05-03T08:07:29.464Z</time></trkpt><trkpt lat="42.3405032" lon="13.578288"><ele>1098.0</ele><time>2026-05-03T08:07:30.476Z</time></trkpt><trkpt lat="42.3404209" lon="13.57839"><ele>1096.0</ele><time>2026-05-03T08:07:31.47Z</time></trkpt><trkpt lat="42.340333" lon="13.5785039"><ele>1094.0</ele><time>2026-05-03T08:07:32.463Z</time></trkpt><trkpt lat="42.3402416" lon="13.5786261"><ele>1092.0</ele><time>2026-05-03T08:07:33.473Z</time></trkpt><trkpt lat="42.3401499" lon="13.5787576"><ele>1092.0</ele><time>2026-05-03T08:07:34.465Z</time></trkpt><trkpt lat="42.3400515" lon="13.5788941"><ele>1092.0</ele><time>2026-05-03T08:07:35.473Z</time></trkpt><trkpt lat="42.3399394" lon="13.5790437"><ele>1092.0</ele><time>2026-05-03T08:07:36.462Z</time></trkpt><trkpt lat="42.3398387" lon="13.5791886"><ele>1092.0</ele><time>2026-05-03T08:07:37.47Z</time></trkpt><trkpt lat="42.3397288" lon="13.5793317"><ele>1090.75</ele><time>2026-05-03T08:07:38.467Z</time></trkpt><trkpt lat="42.3396323" lon="13.5794701"><ele>1089.5</ele><time>2026-05-03T08:07:39.477Z</time></trkpt><trkpt lat="42.3395516" lon="13.5795913"><ele>1088.25</ele><time>2026-05-03T08:07:40.467Z</time></trkpt><trkpt lat="42.3394797" lon="13.5797384"><ele>1087.0</ele><time>2026-05-03T08:07:41.471Z</time></trkpt><trkpt lat="42.3394145" lon="13.579866"><ele>1087.0</ele><time>2026-05-03T08:07:42.477Z</time></trkpt><trkpt lat="42.3393439" lon="13.579988"><ele>1087.0</ele><time>2026-05-03T08:07:43.475Z</time></trkpt><trkpt lat="42.3392563" lon="13.5801149"><ele>1087.0</ele><time>2026-05-03T08:07:44.464Z</time></trkpt><trkpt lat="42.339145" lon="13.5802225"><ele>1087.0</ele><time>2026-05-03T08:07:45.473Z</time></trkpt><trkpt lat="42.3390484" lon="13.5803419"><ele>1087.5</ele><time>2026-05-03T08:07:46.467Z</time></trkpt><trkpt lat="42.3389499" lon="13.580438"><ele>1088.0</ele><time>2026-05-03T08:07:47.471Z</time></trkpt><trkpt lat="42.3388521" lon="13.580538"><ele>1088.5</ele><time>2026-05-03T08:07:48.464Z</time></trkpt><trkpt lat="42.3387531" lon="13.5806377"><ele>1089.0</ele><time>2026-05-03T08:07:49.47Z</time></trkpt><trkpt lat="42.3386648" lon="13.5807179"><ele>1089.0</ele><time>2026-05-03T08:07:50.46Z</time></trkpt><trkpt lat="42.3385866" lon="13.5807797"><ele>1089.0</ele><time>2026-05-03T08:07:51.47Z</time></trkpt><trkpt lat="42.3385134" lon="13.5808172"><ele>1089.0</ele><time>2026-05-03T08:07:52.463Z</time></trkpt><trkpt lat="42.3384494" lon="13.5808161"><ele>1089.0</ele><time>2026-05-03T08:07:53.476Z</time></trkpt><trkpt lat="42.3383848" lon="13.5807883"><ele>1089.0</ele><time>2026-05-03T08:07:54.459Z</time></trkpt><trkpt lat="42.3383234" lon="13.5807349"><ele>1089.0</ele><time>2026-05-03T08:07:55.469Z</time></trkpt><trkpt lat="42.3382647" lon="13.5806627"><ele>1089.0</ele><time>2026-05-03T08:07:56.466Z</time></trkpt><trkpt lat="42.3382062" lon="13.5805782"><ele>1089.0</ele><time>2026-05-03T08:07:57.464Z</time></trkpt><trkpt lat="42.3381447" lon="13.5804899"><ele>1089.0</ele><time>2026-05-03T08:07:58.466Z</time></trkpt><trkpt lat="42.3380839" lon="13.580395"><ele>1089.0</ele><time>2026-05-03T08:07:59.466Z</time></trkpt><trkpt lat="42.3380222" lon="13.5802901"><ele>1089.0</ele><time>2026-05-03T08:08:00.472Z</time></trkpt><trkpt lat="42.3379614" lon="13.5801814"><ele>1090.0</ele><time>2026-05-03T08:08:01.465Z</time></trkpt><trkpt lat="42.3379127" lon="13.5800777"><ele>1091.0</ele><time>2026-05-03T08:08:02.469Z</time></trkpt><trkpt lat="42.3378694" lon="13.5799878"><ele>1092.0</ele><time>2026-05-03T08:08:03.459Z</time></trkpt><trkpt lat="42.3378312" lon="13.579916"><ele>1093.0</ele><time>2026-05-03T08:08:04.461Z</time></trkpt><trkpt lat="42.3377386" lon="13.579789"><ele>1094.0</ele><time>2026-05-03T08:08:06.456Z</time></trkpt><trkpt lat="42.3376826" lon="13.5796965"><ele>1094.0</ele><time>2026-05-03T08:08:07.452Z</time></trkpt><trkpt lat="42.3376139" lon="13.5795854"><ele>1094.0</ele><time>2026-05-03T08:08:08.458Z</time></trkpt><trkpt lat="42.3375218" lon="13.5794823"><ele>1094.0</ele><time>2026-05-03T08:08:09.455Z</time></trkpt><trkpt lat="42.3374103" lon="13.5793956"><ele>1094.0</ele><time>2026-05-03T08:08:10.458Z</time></trkpt><trkpt lat="42.337278" lon="13.5793427"><ele>1090.6666666666667</ele><time>2026-05-03T08:08:11.462Z</time></trkpt><trkpt lat="42.3371347" lon="13.579332"><ele>1087.3333333333333</ele><time>2026-05-03T08:08:12.465Z</time></trkpt><trkpt lat="42.3369863" lon="13.5793601"><ele>1084.0</ele><time>2026-05-03T08:08:13.476Z</time></trkpt><trkpt lat="42.3368242" lon="13.579421"><ele>1084.0</ele><time>2026-05-03T08:08:14.469Z</time></trkpt><trkpt lat="42.3366586" lon="13.5794589"><ele>1084.0</ele><time>2026-05-03T08:08:15.466Z</time></trkpt><trkpt lat="42.3364939" lon="13.5794825"><ele>1084.0</ele><time>2026-05-03T08:08:16.467Z</time></trkpt><trkpt lat="42.3363307" lon="13.5794873"><ele>1085.0</ele><time>2026-05-03T08:08:17.454Z</time></trkpt><trkpt lat="42.3361661" lon="13.5794728"><ele>1086.0</ele><time>2026-05-03T08:08:18.456Z</time></trkpt><trkpt lat="42.3360053" lon="13.5794957"><ele>1087.0</ele><time>2026-05-03T08:08:19.462Z</time></trkpt><trkpt lat="42.3358279" lon="13.5795089"><ele>1086.6666666666665</ele><time>2026-05-03T08:08:20.462Z</time></trkpt><trkpt lat="42.3356613" lon="13.5795288"><ele>1086.3333333333333</ele><time>2026-05-03T08:08:21.455Z</time></trkpt><trkpt lat="42.3354914" lon="13.5795551"><ele>1086.0</ele><time>2026-05-03T08:08:22.463Z</time></trkpt><trkpt lat="42.3353361" lon="13.5795695"><ele>1086.0</ele><time>2026-05-03T08:08:23.456Z</time></trkpt><trkpt lat="42.3351672" lon="13.5795631"><ele>1086.0</ele><time>2026-05-03T08:08:24.455Z</time></trkpt><trkpt lat="42.3350166" lon="13.5795075"><ele>1086.0</ele><time>2026-05-03T08:08:25.447Z</time></trkpt><trkpt lat="42.3348515" lon="13.5794638"><ele>1079.6666666666667</ele><time>2026-05-03T08:08:26.459Z</time></trkpt><trkpt lat="42.3346885" lon="13.5794072"><ele>1073.3333333333335</ele><time>2026-05-03T08:08:27.452Z</time></trkpt><trkpt lat="42.3345317" lon="13.5793606"><ele>1067.0</ele><time>2026-05-03T08:08:28.46Z</time></trkpt><trkpt lat="42.3343596" lon="13.5792963"><ele>1067.0</ele><time>2026-05-03T08:08:29.451Z</time></trkpt><trkpt lat="42.3341981" lon="13.5792681"><ele>1067.0</ele><time>2026-05-03T08:08:30.465Z</time></trkpt><trkpt lat="42.334044" lon="13.5792422"><ele>1067.0</ele><time>2026-05-03T08:08:31.454Z</time></trkpt><trkpt lat="42.3338969" lon="13.5792303"><ele>1063.25</ele><time>2026-05-03T08:08:32.464Z</time></trkpt><trkpt lat="42.3337632" lon="13.579229"><ele>1059.5</ele><time>2026-05-03T08:08:33.462Z</time></trkpt><trkpt lat="42.3336439" lon="13.5792155"><ele>1055.75</ele><time>2026-05-03T08:08:34.455Z</time></trkpt><trkpt lat="42.3335288" lon="13.579222"><ele>1052.0</ele><time>2026-05-03T08:08:35.452Z</time></trkpt><trkpt lat="42.3334197" lon="13.5792574"><ele>1052.0</ele><time>2026-05-03T08:08:36.454Z</time></trkpt><trkpt lat="42.3333163" lon="13.5793297"><ele>1052.0</ele><time>2026-05-03T08:08:37.454Z</time></trkpt><trkpt lat="42.3332194" lon="13.5794626"><ele>1052.0</ele><time>2026-05-03T08:08:38.46Z</time></trkpt><trkpt lat="42.3331149" lon="13.5796113"><ele>1052.0</ele><time>2026-05-03T08:08:39.455Z</time></trkpt><trkpt lat="42.3330161" lon="13.579731"><ele>1048.75</ele><time>2026-05-03T08:08:40.465Z</time></trkpt><trkpt lat="42.3329147" lon="13.5798465"><ele>1045.5</ele><time>2026-05-03T08:08:41.45Z</time></trkpt><trkpt lat="42.3328019" lon="13.5799402"><ele>1042.25</ele><time>2026-05-03T08:08:42.458Z</time></trkpt><trkpt lat="42.3326805" lon="13.5800244"><ele>1039.0</ele><time>2026-05-03T08:08:43.449Z</time></trkpt><trkpt lat="42.3325487" lon="13.5800878"><ele>1039.0</ele><time>2026-05-03T08:08:44.481Z</time></trkpt><trkpt lat="42.3324296" lon="13.5801217"><ele>1039.0</ele><time>2026-05-03T08:08:45.455Z</time></trkpt><trkpt lat="42.3323263" lon="13.5801736"><ele>1039.0</ele><time>2026-05-03T08:08:46.466Z</time></trkpt><trkpt lat="42.3322133" lon="13.5802087"><ele>1039.0</ele><time>2026-05-03T08:08:47.457Z</time></trkpt><trkpt lat="42.3321177" lon="13.5802662"><ele>1036.5</ele><time>2026-05-03T08:08:48.463Z</time></trkpt><trkpt lat="42.3320349" lon="13.5803447"><ele>1034.0</ele><time>2026-05-03T08:08:49.464Z</time></trkpt><trkpt lat="42.331966" lon="13.5804596"><ele>1031.5</ele><time>2026-05-03T08:08:50.461Z</time></trkpt><trkpt lat="42.3319299" lon="13.5806164"><ele>1029.0</ele><time>2026-05-03T08:08:51.455Z</time></trkpt><trkpt lat="42.3319084" lon="13.5807801"><ele>1029.0</ele><time>2026-05-03T08:08:52.475Z</time></trkpt><trkpt lat="42.3319239" lon="13.58097"><ele>1029.0</ele><time>2026-05-03T08:08:53.464Z</time></trkpt><trkpt lat="42.3319669" lon="13.5811705"><ele>1029.0</ele><time>2026-05-03T08:08:54.466Z</time></trkpt><trkpt lat="42.3320225" lon="13.5813949"><ele>1029.6666666666667</ele><time>2026-05-03T08:08:55.461Z</time></trkpt><trkpt lat="42.3320446" lon="13.5816329"><ele>1030.3333333333335</ele><time>2026-05-03T08:08:56.462Z</time></trkpt><trkpt lat="42.3320394" lon="13.5818461"><ele>1031.0</ele><time>2026-05-03T08:08:57.468Z</time></trkpt><trkpt lat="42.3320363" lon="13.5820621"><ele>1029.3333333333335</ele><time>2026-05-03T08:08:58.462Z</time></trkpt><trkpt lat="42.3320482" lon="13.5822831"><ele>1027.6666666666667</ele><time>2026-05-03T08:08:59.469Z</time></trkpt><trkpt lat="42.332076" lon="13.5825253"><ele>1026.0</ele><time>2026-05-03T08:09:00.462Z</time></trkpt><trkpt lat="42.3321134" lon="13.5827769"><ele>1023.6666666666667</ele><time>2026-05-03T08:09:01.469Z</time></trkpt><trkpt lat="42.3321674" lon="13.5830224"><ele>1021.3333333333334</ele><time>2026-05-03T08:09:02.464Z</time></trkpt><trkpt lat="42.3322336" lon="13.5832428"><ele>1019.0</ele><time>2026-05-03T08:09:03.466Z</time></trkpt><trkpt lat="42.3322844" lon="13.5834699"><ele>1022.6666666666667</ele><time>2026-05-03T08:09:04.474Z</time></trkpt><trkpt lat="42.3323317" lon="13.583692"><ele>1026.3333333333333</ele><time>2026-05-03T08:09:05.464Z</time></trkpt><trkpt lat="42.3323796" lon="13.5838871"><ele>1030.0</ele><time>2026-05-03T08:09:06.468Z</time></trkpt><trkpt lat="42.3324256" lon="13.584104"><ele>1030.0</ele><time>2026-05-03T08:09:07.462Z</time></trkpt><trkpt lat="42.332441" lon="13.584328"><ele>1030.0</ele><time>2026-05-03T08:09:08.455Z</time></trkpt><trkpt lat="42.3324574" lon="13.5845511"><ele>1030.0</ele><time>2026-05-03T08:09:09.462Z</time></trkpt><trkpt lat="42.3324535" lon="13.584753"><ele>1029.0</ele><time>2026-05-03T08:09:10.463Z</time></trkpt><trkpt lat="42.3324546" lon="13.584948"><ele>1028.0</ele><time>2026-05-03T08:09:11.468Z</time></trkpt><trkpt lat="42.3324585" lon="13.5851402"><ele>1027.0</ele><time>2026-05-03T08:09:12.466Z</time></trkpt><trkpt lat="42.3324662" lon="13.5853276"><ele>1026.0</ele><time>2026-05-03T08:09:13.466Z</time></trkpt><trkpt lat="42.3324508" lon="13.5855077"><ele>1025.0</ele><time>2026-05-03T08:09:14.47Z</time></trkpt><trkpt lat="42.332412" lon="13.5856842"><ele>1024.0</ele><time>2026-05-03T08:09:15.491Z</time></trkpt><trkpt lat="42.3323393" lon="13.585844"><ele>1023.0</ele><time>2026-05-03T08:09:16.467Z</time></trkpt><trkpt lat="42.3322653" lon="13.5859962"><ele>1022.0</ele><time>2026-05-03T08:09:17.467Z</time></trkpt><trkpt lat="42.3321907" lon="13.586149"><ele>1019.5</ele><time>2026-05-03T08:09:18.464Z</time></trkpt><trkpt lat="42.3321198" lon="13.5863003"><ele>1017.0</ele><time>2026-05-03T08:09:19.467Z</time></trkpt><trkpt lat="42.33206" lon="13.5864371"><ele>1014.5</ele><time>2026-05-03T08:09:20.466Z</time></trkpt><trkpt lat="42.3319956" lon="13.5865791"><ele>1012.0</ele><time>2026-05-03T08:09:21.47Z</time></trkpt><trkpt lat="42.33193" lon="13.5867035"><ele>1012.0</ele><time>2026-05-03T08:09:22.469Z</time></trkpt><trkpt lat="42.3318682" lon="13.5868416"><ele>1012.0</ele><time>2026-05-03T08:09:23.465Z</time></trkpt><trkpt lat="42.3317935" lon="13.5870045"><ele>1012.0</ele><time>2026-05-03T08:09:24.463Z</time></trkpt><trkpt lat="42.3317164" lon="13.5871831"><ele>1012.0</ele><time>2026-05-03T08:09:25.462Z</time></trkpt><trkpt lat="42.3316314" lon="13.5873921"><ele>1012.0</ele><time>2026-05-03T08:09:26.464Z</time></trkpt><trkpt lat="42.3315411" lon="13.5875921"><ele>1012.0</ele><time>2026-05-03T08:09:27.467Z</time></trkpt><trkpt lat="42.3314415" lon="13.5877518"><ele>1012.0</ele><time>2026-05-03T08:09:28.465Z</time></trkpt><trkpt lat="42.3313496" lon="13.5879141"><ele>1007.6666666666666</ele><time>2026-05-03T08:09:29.469Z</time></trkpt><trkpt lat="42.3312755" lon="13.5880849"><ele>1003.3333333333333</ele><time>2026-05-03T08:09:30.469Z</time></trkpt><trkpt lat="42.3311957" lon="13.5882725"><ele>999.0</ele><time>2026-05-03T08:09:31.466Z</time></trkpt><trkpt lat="42.3311293" lon="13.5884972"><ele>999.0</ele><time>2026-05-03T08:09:32.459Z</time></trkpt><trkpt lat="42.331062" lon="13.5887104"><ele>999.0</ele><time>2026-05-03T08:09:33.469Z</time></trkpt><trkpt lat="42.3309963" lon="13.5889117"><ele>999.0</ele><time>2026-05-03T08:09:34.461Z</time></trkpt><trkpt lat="42.3309475" lon="13.5890957"><ele>999.0</ele><time>2026-05-03T08:09:35.474Z</time></trkpt><trkpt lat="42.3308865" lon="13.589293"><ele>999.0</ele><time>2026-05-03T08:09:36.47Z</time></trkpt><trkpt lat="42.3308323" lon="13.5894909"><ele>999.0</ele><time>2026-05-03T08:09:37.475Z</time></trkpt><trkpt lat="42.3307583" lon="13.5896417"><ele>999.0</ele><time>2026-05-03T08:09:38.466Z</time></trkpt><trkpt lat="42.3306767" lon="13.5897819"><ele>999.25</ele><time>2026-05-03T08:09:39.463Z</time></trkpt><trkpt lat="42.3305694" lon="13.5898759"><ele>999.5</ele><time>2026-05-03T08:09:40.461Z</time></trkpt><trkpt lat="42.3304317" lon="13.5899575"><ele>999.75</ele><time>2026-05-03T08:09:41.464Z</time></trkpt><trkpt lat="42.3302912" lon="13.5900298"><ele>1000.0</ele><time>2026-05-03T08:09:42.463Z</time></trkpt><trkpt lat="42.330178" lon="13.5900692"><ele>998.4</ele><time>2026-05-03T08:09:43.46Z</time></trkpt><trkpt lat="42.3300824" lon="13.5900956"><ele>996.8</ele><time>2026-05-03T08:09:44.456Z</time></trkpt><trkpt lat="42.3299776" lon="13.5901354"><ele>995.2</ele><time>2026-05-03T08:09:45.475Z</time></trkpt><trkpt lat="42.329881" lon="13.5901826"><ele>993.6</ele><time>2026-05-03T08:09:46.461Z</time></trkpt><trkpt lat="42.3298105" lon="13.5902606"><ele>992.0</ele><time>2026-05-03T08:09:47.46Z</time></trkpt><trkpt lat="42.3297183" lon="13.5903435"><ele>991.0</ele><time>2026-05-03T08:09:48.466Z</time></trkpt><trkpt lat="42.3296412" lon="13.5904259"><ele>990.0</ele><time>2026-05-03T08:09:49.459Z</time></trkpt><trkpt lat="42.3295867" lon="13.5904915"><ele>989.0</ele><time>2026-05-03T08:09:50.462Z</time></trkpt><trkpt lat="42.3295592" lon="13.5906169"><ele>988.0</ele><time>2026-05-03T08:09:52.466Z</time></trkpt><trkpt lat="42.3296472" lon="13.5907343"><ele>987.0</ele><time>2026-05-03T08:09:54.464Z</time></trkpt><trkpt lat="42.3297314" lon="13.5907987"><ele>989.0</ele><time>2026-05-03T08:09:55.471Z</time></trkpt><trkpt lat="42.3298343" lon="13.59085"><ele>991.0</ele><time>2026-05-03T08:09:56.461Z</time></trkpt><trkpt lat="42.3299315" lon="13.5909061"><ele>993.0</ele><time>2026-05-03T08:09:57.462Z</time></trkpt><trkpt lat="42.3300343" lon="13.5909674"><ele>995.0</ele><time>2026-05-03T08:09:58.46Z</time></trkpt><trkpt lat="42.3301418" lon="13.5910337"><ele>997.0</ele><time>2026-05-03T08:09:59.466Z</time></trkpt><trkpt lat="42.33024" lon="13.5911007"><ele>997.0</ele><time>2026-05-03T08:10:00.461Z</time></trkpt><trkpt lat="42.3303215" lon="13.5911725"><ele>997.0</ele><time>2026-05-03T08:10:01.467Z</time></trkpt><trkpt lat="42.3303978" lon="13.59125"><ele>997.0</ele><time>2026-05-03T08:10:02.465Z</time></trkpt><trkpt lat="42.330482" lon="13.5913268"><ele>997.0</ele><time>2026-05-03T08:10:03.465Z</time></trkpt><trkpt lat="42.3305686" lon="13.5914072"><ele>997.0</ele><time>2026-05-03T08:10:04.47Z</time></trkpt><trkpt lat="42.330656" lon="13.5914884"><ele>1000.2</ele><time>2026-05-03T08:10:05.469Z</time></trkpt><trkpt lat="42.3307499" lon="13.5915702"><ele>1003.4000000000001</ele><time>2026-05-03T08:10:06.464Z</time></trkpt><trkpt lat="42.3308385" lon="13.5916569"><ele>1006.5999999999999</ele><time>2026-05-03T08:10:07.468Z</time></trkpt><trkpt lat="42.3309262" lon="13.5917483"><ele>1009.8</ele><time>2026-05-03T08:10:08.463Z</time></trkpt><trkpt lat="42.3310087" lon="13.5918553"><ele>1013.0</ele><time>2026-05-03T08:10:09.463Z</time></trkpt><trkpt lat="42.331092" lon="13.5919657"><ele>1014.5</ele><time>2026-05-03T08:10:10.454Z</time></trkpt><trkpt lat="42.3311765" lon="13.592093"><ele>1016.0</ele><time>2026-05-03T08:10:11.46Z</time></trkpt><trkpt lat="42.3312663" lon="13.5922264"><ele>1017.5</ele><time>2026-05-03T08:10:12.454Z</time></trkpt><trkpt lat="42.3313515" lon="13.5923854"><ele>1019.0</ele><time>2026-05-03T08:10:13.456Z</time></trkpt><trkpt lat="42.3314231" lon="13.592594"><ele>1020.75</ele><time>2026-05-03T08:10:14.469Z</time></trkpt><trkpt lat="42.3315126" lon="13.5927798"><ele>1022.5</ele><time>2026-05-03T08:10:15.457Z</time></trkpt><trkpt lat="42.331588" lon="13.5929525"><ele>1024.25</ele><time>2026-05-03T08:10:16.474Z</time></trkpt><trkpt lat="42.3316607" lon="13.5930902"><ele>1026.0</ele><time>2026-05-03T08:10:17.451Z</time></trkpt><trkpt lat="42.3317247" lon="13.5932195"><ele>1027.3999999999999</ele><time>2026-05-03T08:10:18.463Z</time></trkpt><trkpt lat="42.3317743" lon="13.5933261"><ele>1028.8</ele><time>2026-05-03T08:10:19.45Z</time></trkpt><trkpt lat="42.3318356" lon="13.5934247"><ele>1030.1999999999998</ele><time>2026-05-03T08:10:20.466Z</time></trkpt><trkpt lat="42.3318804" lon="13.5935088"><ele>1031.6</ele><time>2026-05-03T08:10:21.455Z</time></trkpt><trkpt lat="42.3319421" lon="13.5936193"><ele>1033.0</ele><time>2026-05-03T08:10:22.465Z</time></trkpt><trkpt lat="42.3319873" lon="13.5937338"><ele>1034.5</ele><time>2026-05-03T08:10:23.459Z</time></trkpt><trkpt lat="42.3320345" lon="13.5938043"><ele>1036.0</ele><time>2026-05-03T08:10:24.461Z</time></trkpt><trkpt lat="42.3320891" lon="13.5939312"><ele>1037.5</ele><time>2026-05-03T08:10:26.458Z</time></trkpt><trkpt lat="42.3320405" lon="13.5939961"><ele>1039.0</ele><time>2026-05-03T08:10:28.466Z</time></trkpt><trkpt lat="42.3319555" lon="13.5940961"><ele>1040.5</ele><time>2026-05-03T08:10:30.465Z</time></trkpt><trkpt lat="42.3319148" lon="13.5941823"><ele>1042.0</ele><time>2026-05-03T08:10:31.45Z</time></trkpt><trkpt lat="42.3318703" lon="13.5942999"><ele>1042.0</ele><time>2026-05-03T08:10:32.456Z</time></trkpt><trkpt lat="42.3318056" lon="13.5944199"><ele>1042.0</ele><time>2026-05-03T08:10:33.46Z</time></trkpt><trkpt lat="42.3317286" lon="13.5945304"><ele>1042.0</ele><time>2026-05-03T08:10:34.464Z</time></trkpt><trkpt lat="42.3316615" lon="13.5946256"><ele>1042.0</ele><time>2026-05-03T08:10:35.457Z</time></trkpt><trkpt lat="42.3316058" lon="13.5947139"><ele>1042.0</ele><time>2026-05-03T08:10:36.456Z</time></trkpt><trkpt lat="42.3315679" lon="13.5947841"><ele>1041.3333333333333</ele><time>2026-05-03T08:10:37.452Z</time></trkpt><trkpt lat="42.3315556" lon="13.5949017"><ele>1040.6666666666665</ele><time>2026-05-03T08:10:39.461Z</time></trkpt><trkpt lat="42.3316223" lon="13.5949777"><ele>1040.0</ele><time>2026-05-03T08:10:41.454Z</time></trkpt><trkpt lat="42.3317246" lon="13.5950141"><ele>1039.3333333333333</ele><time>2026-05-03T08:10:43.461Z</time></trkpt><trkpt lat="42.3317943" lon="13.5950811"><ele>1038.6666666666667</ele><time>2026-05-03T08:10:45.458Z</time></trkpt><trkpt lat="42.3318218" lon="13.5951617"><ele>1038.0</ele><time>2026-05-03T08:10:46.45Z</time></trkpt><trkpt lat="42.3318451" lon="13.5952546"><ele>1037.5</ele><time>2026-05-03T08:10:47.469Z</time></trkpt><trkpt lat="42.3318598" lon="13.595368"><ele>1037.0</ele><time>2026-05-03T08:10:48.455Z</time></trkpt><trkpt lat="42.3318646" lon="13.5954792"><ele>1036.5</ele><time>2026-05-03T08:10:49.459Z</time></trkpt><trkpt lat="42.3318755" lon="13.5955808"><ele>1036.0</ele><time>2026-05-03T08:10:50.452Z</time></trkpt><trkpt lat="42.3318957" lon="13.5956658"><ele>1035.5</ele><time>2026-05-03T08:10:51.463Z</time></trkpt><trkpt lat="42.331904" lon="13.5958173"><ele>1035.0</ele><time>2026-05-03T08:10:53.465Z</time></trkpt><trkpt lat="42.3318703" lon="13.5958911"><ele>1035.0</ele><time>2026-05-03T08:10:54.453Z</time></trkpt><trkpt lat="42.331824" lon="13.595967"><ele>1035.0</ele><time>2026-05-03T08:10:55.462Z</time></trkpt><trkpt lat="42.3317645" lon="13.5960506"><ele>1035.0</ele><time>2026-05-03T08:10:56.457Z</time></trkpt><trkpt lat="42.3317018" lon="13.5961306"><ele>1035.0</ele><time>2026-05-03T08:10:57.46Z</time></trkpt><trkpt lat="42.3316482" lon="13.5962062"><ele>1035.0</ele><time>2026-05-03T08:10:58.451Z</time></trkpt><trkpt lat="42.3315577" lon="13.5962828"><ele>1035.0</ele><time>2026-05-03T08:11:00.458Z</time></trkpt><trkpt lat="42.3314491" lon="13.5962312"><ele>1035.3333333333333</ele><time>2026-05-03T08:11:02.447Z</time></trkpt><trkpt lat="42.3313929" lon="13.5961786"><ele>1035.6666666666667</ele><time>2026-05-03T08:11:03.463Z</time></trkpt><trkpt lat="42.3313326" lon="13.5961439"><ele>1036.0</ele><time>2026-05-03T08:11:04.451Z</time></trkpt><trkpt lat="42.3312582" lon="13.5961411"><ele>1036.3333333333335</ele><time>2026-05-03T08:11:05.451Z</time></trkpt><trkpt lat="42.3311731" lon="13.5961566"><ele>1036.6666666666667</ele><time>2026-05-03T08:11:06.452Z</time></trkpt><trkpt lat="42.3310874" lon="13.5961792"><ele>1037.0</ele><time>2026-05-03T08:11:07.455Z</time></trkpt><trkpt lat="42.3310068" lon="13.5962049"><ele>1035.3333333333335</ele><time>2026-05-03T08:11:08.448Z</time></trkpt><trkpt lat="42.3309329" lon="13.5962429"><ele>1033.6666666666667</ele><time>2026-05-03T08:11:09.459Z</time></trkpt><trkpt lat="42.3308744" lon="13.5963089"><ele>1032.0</ele><time>2026-05-03T08:11:10.451Z</time></trkpt><trkpt lat="42.3308212" lon="13.5963925"><ele>1030.3333333333333</ele><time>2026-05-03T08:11:11.45Z</time></trkpt><trkpt lat="42.3307728" lon="13.5964867"><ele>1028.6666666666665</ele><time>2026-05-03T08:11:12.454Z</time></trkpt><trkpt lat="42.3307203" lon="13.5965878"><ele>1027.0</ele><time>2026-05-03T08:11:13.453Z</time></trkpt><trkpt lat="42.3306807" lon="13.5966846"><ele>1027.0</ele><time>2026-05-03T08:11:14.456Z</time></trkpt><trkpt lat="42.330647" lon="13.5967793"><ele>1027.0</ele><time>2026-05-03T08:11:15.45Z</time></trkpt><trkpt lat="42.3306287" lon="13.5968757"><ele>1027.0</ele><time>2026-05-03T08:11:16.46Z</time></trkpt><trkpt lat="42.3306217" lon="13.5969857"><ele>1027.0</ele><time>2026-05-03T08:11:17.457Z</time></trkpt><trkpt lat="42.3306173" lon="13.5970955"><ele>1027.0</ele><time>2026-05-03T08:11:18.468Z</time></trkpt><trkpt lat="42.3306137" lon="13.597198"><ele>1027.0</ele><time>2026-05-03T08:11:19.457Z</time></trkpt><trkpt lat="42.3306076" lon="13.5972995"><ele>1027.2</ele><time>2026-05-03T08:11:20.463Z</time></trkpt><trkpt lat="42.3305997" lon="13.5973902"><ele>1027.4</ele><time>2026-05-03T08:11:21.454Z</time></trkpt><trkpt lat="42.3305148" lon="13.5975233"><ele>1027.6</ele><time>2026-05-03T08:11:23.455Z</time></trkpt><trkpt lat="42.330443" lon="13.5975767"><ele>1027.8</ele><time>2026-05-03T08:11:24.462Z</time></trkpt><trkpt lat="42.3303652" lon="13.5976419"><ele>1028.0</ele><time>2026-05-03T08:11:25.454Z</time></trkpt><trkpt lat="42.330293" lon="13.597722"><ele>1027.3333333333335</ele><time>2026-05-03T08:11:26.462Z</time></trkpt><trkpt lat="42.3302252" lon="13.5978103"><ele>1026.6666666666667</ele><time>2026-05-03T08:11:27.454Z</time></trkpt><trkpt lat="42.3301659" lon="13.5978851"><ele>1026.0</ele><time>2026-05-03T08:11:28.453Z</time></trkpt><trkpt lat="42.330112" lon="13.5979484"><ele>1025.3333333333333</ele><time>2026-05-03T08:11:29.453Z</time></trkpt><trkpt lat="42.3300498" lon="13.598003"><ele>1024.6666666666665</ele><time>2026-05-03T08:11:30.459Z</time></trkpt><trkpt lat="42.3299693" lon="13.5980438"><ele>1024.0</ele><time>2026-05-03T08:11:31.451Z</time></trkpt><trkpt lat="42.3298858" lon="13.5980646"><ele>1024.0</ele><time>2026-05-03T08:11:32.454Z</time></trkpt><trkpt lat="42.3297956" lon="13.5980805"><ele>1024.0</ele><time>2026-05-03T08:11:33.45Z</time></trkpt><trkpt lat="42.3297165" lon="13.5981085"><ele>1024.0</ele><time>2026-05-03T08:11:34.457Z</time></trkpt><trkpt lat="42.3296425" lon="13.5981728"><ele>1024.0</ele><time>2026-05-03T08:11:35.452Z</time></trkpt><trkpt lat="42.3295599" lon="13.5982514"><ele>1024.0</ele><time>2026-05-03T08:11:36.457Z</time></trkpt><trkpt lat="42.3294772" lon="13.5983221"><ele>1024.4</ele><time>2026-05-03T08:11:37.451Z</time></trkpt><trkpt lat="42.3293992" lon="13.5984024"><ele>1024.8000000000002</ele><time>2026-05-03T08:11:38.458Z</time></trkpt><trkpt lat="42.3293286" lon="13.5984928"><ele>1025.1999999999998</ele><time>2026-05-03T08:11:39.451Z</time></trkpt><trkpt lat="42.3292721" lon="13.5985798"><ele>1025.6</ele><time>2026-05-03T08:11:40.454Z</time></trkpt><trkpt lat="42.329189" lon="13.5986571"><ele>1026.0</ele><time>2026-05-03T08:11:42.447Z</time></trkpt><trkpt lat="42.3290786" lon="13.5986815"><ele>1026.0</ele><time>2026-05-03T08:11:44.449Z</time></trkpt><trkpt lat="42.3290162" lon="13.5987123"><ele>1026.0</ele><time>2026-05-03T08:11:45.452Z</time></trkpt><trkpt lat="42.3289582" lon="13.5987631"><ele>1026.0</ele><time>2026-05-03T08:11:46.446Z</time></trkpt><trkpt lat="42.3289005" lon="13.598834"><ele>1026.0</ele><time>2026-05-03T08:11:47.458Z</time></trkpt><trkpt lat="42.3288447" lon="13.5989156"><ele>1026.0</ele><time>2026-05-03T08:11:48.451Z</time></trkpt><trkpt lat="42.3287847" lon="13.5990118"><ele>1026.0</ele><time>2026-05-03T08:11:49.468Z</time></trkpt><trkpt lat="42.3287176" lon="13.5991131"><ele>1025.1666666666667</ele><time>2026-05-03T08:11:50.448Z</time></trkpt><trkpt lat="42.3286581" lon="13.5992087"><ele>1024.3333333333333</ele><time>2026-05-03T08:11:51.453Z</time></trkpt><trkpt lat="42.328606" lon="13.5992895"><ele>1023.5</ele><time>2026-05-03T08:11:52.45Z</time></trkpt><trkpt lat="42.3285611" lon="13.5993803"><ele>1022.6666666666666</ele><time>2026-05-03T08:11:53.456Z</time></trkpt><trkpt lat="42.3285176" lon="13.5994718"><ele>1021.8333333333333</ele><time>2026-05-03T08:11:54.448Z</time></trkpt><trkpt lat="42.3284698" lon="13.5995594"><ele>1021.0</ele><time>2026-05-03T08:11:55.455Z</time></trkpt><trkpt lat="42.3284254" lon="13.5996216"><ele>1020.9999999999999</ele><time>2026-05-03T08:11:56.448Z</time></trkpt><trkpt lat="42.3283726" lon="13.5996779"><ele>1021.0</ele><time>2026-05-03T08:11:57.456Z</time></trkpt><trkpt lat="42.3283188" lon="13.5997398"><ele>1021.0</ele><time>2026-05-03T08:11:58.446Z</time></trkpt><trkpt lat="42.3282656" lon="13.5997905"><ele>1021.0</ele><time>2026-05-03T08:11:59.454Z</time></trkpt><trkpt lat="42.328168" lon="13.5998529"><ele>1020.9999999999999</ele><time>2026-05-03T08:12:01.457Z</time></trkpt><trkpt lat="42.3280973" lon="13.599933"><ele>1021.0</ele><time>2026-05-03T08:12:03.459Z</time></trkpt><trkpt lat="42.3280032" lon="13.6000525"><ele>1020.6666666666666</ele><time>2026-05-03T08:12:05.459Z</time></trkpt><trkpt lat="42.3279615" lon="13.6001417"><ele>1020.3333333333333</ele><time>2026-05-03T08:12:06.45Z</time></trkpt><trkpt lat="42.3279255" lon="13.6002556"><ele>1020.0</ele><time>2026-05-03T08:12:07.456Z</time></trkpt><trkpt lat="42.3278793" lon="13.6003546"><ele>1019.6666666666667</ele><time>2026-05-03T08:12:08.449Z</time></trkpt><trkpt lat="42.3278198" lon="13.6004376"><ele>1019.3333333333334</ele><time>2026-05-03T08:12:09.453Z</time></trkpt><trkpt lat="42.3277518" lon="13.600502"><ele>1019.0</ele><time>2026-05-03T08:12:10.446Z</time></trkpt><trkpt lat="42.3276773" lon="13.6005777"><ele>1018.8333333333334</ele><time>2026-05-03T08:12:11.448Z</time></trkpt><trkpt lat="42.3276092" lon="13.6006706"><ele>1018.6666666666667</ele><time>2026-05-03T08:12:12.455Z</time></trkpt><trkpt lat="42.3275491" lon="13.6007698"><ele>1018.5</ele><time>2026-05-03T08:12:13.448Z</time></trkpt><trkpt lat="42.3274948" lon="13.6008564"><ele>1018.3333333333333</ele><time>2026-05-03T08:12:14.455Z</time></trkpt><trkpt lat="42.3274521" lon="13.6009528"><ele>1018.1666666666666</ele><time>2026-05-03T08:12:15.449Z</time></trkpt><trkpt lat="42.3274114" lon="13.6010542"><ele>1018.0</ele><time>2026-05-03T08:12:16.456Z</time></trkpt><trkpt lat="42.3273721" lon="13.6011417"><ele>1017.8333333333333</ele><time>2026-05-03T08:12:17.452Z</time></trkpt><trkpt lat="42.3273364" lon="13.6012179"><ele>1017.6666666666666</ele><time>2026-05-03T08:12:18.461Z</time></trkpt><trkpt lat="42.3273015" lon="13.6012988"><ele>1017.5</ele><time>2026-05-03T08:12:19.452Z</time></trkpt><trkpt lat="42.3272578" lon="13.6013734"><ele>1017.3333333333333</ele><time>2026-05-03T08:12:20.47Z</time></trkpt><trkpt lat="42.3272177" lon="13.6014396"><ele>1017.1666666666666</ele><time>2026-05-03T08:12:21.46Z</time></trkpt><trkpt lat="42.3271766" lon="13.6015067"><ele>1017.0</ele><time>2026-05-03T08:12:22.452Z</time></trkpt><trkpt lat="42.3271184" lon="13.6016496"><ele>1017.0</ele><time>2026-05-03T08:12:24.454Z</time></trkpt><trkpt lat="42.3270704" lon="13.6017747"><ele>1017.0</ele><time>2026-05-03T08:12:26.448Z</time></trkpt><trkpt lat="42.3270248" lon="13.6018497"><ele>1017.0</ele><time>2026-05-03T08:12:28.451Z</time></trkpt><trkpt lat="42.3269793" lon="13.6019334"><ele>1017.0</ele><time>2026-05-03T08:12:40.448Z</time></trkpt><trkpt lat="42.3269457" lon="13.602007"><ele>1017.0</ele><time>2026-05-03T08:12:54.455Z</time></trkpt><trkpt lat="42.3269115" lon="13.6020925"><ele>1017.0</ele><time>2026-05-03T08:13:39.461Z</time></trkpt><trkpt lat="42.3268864" lon="13.6021739"><ele>1016.2</ele><time>2026-05-03T08:13:42.451Z</time></trkpt><trkpt lat="42.3268443" lon="13.6022927"><ele>1015.4000000000001</ele><time>2026-05-03T08:13:45.457Z</time></trkpt><trkpt lat="42.3268083" lon="13.6024457"><ele>1014.5999999999999</ele><time>2026-05-03T08:13:47.458Z</time></trkpt><trkpt lat="42.326789" lon="13.6025457"><ele>1013.8</ele><time>2026-05-03T08:13:48.45Z</time></trkpt><trkpt lat="42.326765" lon="13.6026433"><ele>1013.0</ele><time>2026-05-03T08:13:49.459Z</time></trkpt><trkpt lat="42.3267305" lon="13.602745"><ele>1013.6666666666667</ele><time>2026-05-03T08:13:50.448Z</time></trkpt><trkpt lat="42.3266845" lon="13.6028479"><ele>1014.3333333333334</ele><time>2026-05-03T08:13:51.457Z</time></trkpt><trkpt lat="42.3266347" lon="13.602947"><ele>1015.0</ele><time>2026-05-03T08:13:52.448Z</time></trkpt><trkpt lat="42.3265995" lon="13.6030426"><ele>1015.6666666666667</ele><time>2026-05-03T08:13:53.483Z</time></trkpt><trkpt lat="42.3265623" lon="13.6031409"><ele>1016.3333333333334</ele><time>2026-05-03T08:13:54.45Z</time></trkpt><trkpt lat="42.3265084" lon="13.6032363"><ele>1017.0</ele><time>2026-05-03T08:13:55.457Z</time></trkpt><trkpt lat="42.3264407" lon="13.6033304"><ele>1016.1666666666666</ele><time>2026-05-03T08:13:56.453Z</time></trkpt><trkpt lat="42.3263693" lon="13.6034205"><ele>1015.3333333333333</ele><time>2026-05-03T08:13:57.452Z</time></trkpt><trkpt lat="42.326304" lon="13.6035016"><ele>1014.5</ele><time>2026-05-03T08:13:58.458Z</time></trkpt><trkpt lat="42.3262389" lon="13.6035789"><ele>1013.6666666666666</ele><time>2026-05-03T08:13:59.454Z</time></trkpt><trkpt lat="42.3261694" lon="13.6036516"><ele>1012.8333333333333</ele><time>2026-05-03T08:14:00.463Z</time></trkpt><trkpt lat="42.3261091" lon="13.6037349"><ele>1012.0</ele><time>2026-05-03T08:14:01.451Z</time></trkpt><trkpt lat="42.3260484" lon="13.6038193"><ele>1011.9999999999999</ele><time>2026-05-03T08:14:02.455Z</time></trkpt><trkpt lat="42.3259862" lon="13.6039018"><ele>1012.0</ele><time>2026-05-03T08:14:03.451Z</time></trkpt><trkpt lat="42.3259283" lon="13.6039703"><ele>1012.0</ele><time>2026-05-03T08:14:04.458Z</time></trkpt><trkpt lat="42.3258704" lon="13.6040318"><ele>1012.0</ele><time>2026-05-03T08:14:05.454Z</time></trkpt><trkpt lat="42.325819" lon="13.6041066"><ele>1011.9999999999999</ele><time>2026-05-03T08:14:06.456Z</time></trkpt><trkpt lat="42.3257742" lon="13.6041952"><ele>1012.0</ele><time>2026-05-03T08:14:07.458Z</time></trkpt><trkpt lat="42.3257394" lon="13.6042827"><ele>1011.9999999999999</ele><time>2026-05-03T08:14:08.451Z</time></trkpt><trkpt lat="42.3257093" lon="13.6043611"><ele>1012.0</ele><time>2026-05-03T08:14:09.457Z</time></trkpt><trkpt lat="42.3256679" lon="13.6044309"><ele>1012.0</ele><time>2026-05-03T08:14:10.445Z</time></trkpt><trkpt lat="42.3256105" lon="13.6044957"><ele>1012.0</ele><time>2026-05-03T08:14:11.455Z</time></trkpt><trkpt lat="42.3255425" lon="13.604575"><ele>1011.9999999999999</ele><time>2026-05-03T08:14:12.446Z</time></trkpt><trkpt lat="42.3254808" lon="13.604674"><ele>1012.0</ele><time>2026-05-03T08:14:13.451Z</time></trkpt><trkpt lat="42.3254288" lon="13.6047773"><ele>1011.8333333333333</ele><time>2026-05-03T08:14:14.446Z</time></trkpt><trkpt lat="42.3253819" lon="13.6048777"><ele>1011.6666666666666</ele><time>2026-05-03T08:14:15.452Z</time></trkpt><trkpt lat="42.3253433" lon="13.6049858"><ele>1011.5</ele><time>2026-05-03T08:14:16.446Z</time></trkpt><trkpt lat="42.3252932" lon="13.6050888"><ele>1011.3333333333333</ele><time>2026-05-03T08:14:17.443Z</time></trkpt><trkpt lat="42.32523" lon="13.605178"><ele>1011.1666666666666</ele><time>2026-05-03T08:14:18.449Z</time></trkpt><trkpt lat="42.3251738" lon="13.6052681"><ele>1011.0</ele><time>2026-05-03T08:14:19.443Z</time></trkpt><trkpt lat="42.3251243" lon="13.6053635"><ele>1009.8</ele><time>2026-05-03T08:14:20.446Z</time></trkpt><trkpt lat="42.3250783" lon="13.605473"><ele>1008.5999999999999</ele><time>2026-05-03T08:14:21.444Z</time></trkpt><trkpt lat="42.3250388" lon="13.6055925"><ele>1007.4</ele><time>2026-05-03T08:14:22.452Z</time></trkpt><trkpt lat="42.3250082" lon="13.6057092"><ele>1006.2</ele><time>2026-05-03T08:14:23.459Z</time></trkpt><trkpt lat="42.3249766" lon="13.6058167"><ele>1005.0</ele><time>2026-05-03T08:14:24.449Z</time></trkpt><trkpt lat="42.3249438" lon="13.6059201"><ele>1005.0</ele><time>2026-05-03T08:14:25.441Z</time></trkpt><trkpt lat="42.3249225" lon="13.6060104"><ele>1005.0</ele><time>2026-05-03T08:14:26.448Z</time></trkpt><trkpt lat="42.3249133" lon="13.6060949"><ele>1005.0</ele><time>2026-05-03T08:14:27.453Z</time></trkpt><trkpt lat="42.3249237" lon="13.6062496"><ele>1005.0</ele><time>2026-05-03T08:14:29.45Z</time></trkpt><trkpt lat="42.3249209" lon="13.6063412"><ele>1005.0</ele><time>2026-05-03T08:14:31.449Z</time></trkpt><trkpt lat="42.324846" lon="13.6064236"><ele>1005.0</ele><time>2026-05-03T08:14:33.452Z</time></trkpt><trkpt lat="42.3247759" lon="13.6064792"><ele>1004.2</ele><time>2026-05-03T08:14:34.444Z</time></trkpt><trkpt lat="42.3247114" lon="13.6065272"><ele>1003.4</ele><time>2026-05-03T08:14:35.45Z</time></trkpt><trkpt lat="42.3246341" lon="13.6066202"><ele>1002.5999999999999</ele><time>2026-05-03T08:14:37.451Z</time></trkpt><trkpt lat="42.3245657" lon="13.6067277"><ele>1001.8</ele><time>2026-05-03T08:14:39.453Z</time></trkpt><trkpt lat="42.3244581" lon="13.6068127"><ele>1001.0</ele><time>2026-05-03T08:14:41.449Z</time></trkpt><trkpt lat="42.3243912" lon="13.6068572"><ele>1001.0</ele><time>2026-05-03T08:14:42.437Z</time></trkpt><trkpt lat="42.3243347" lon="13.6069123"><ele>1000.9999999999999</ele><time>2026-05-03T08:14:43.45Z</time></trkpt><trkpt lat="42.3242378" lon="13.6069842"><ele>1000.9999999999999</ele><time>2026-05-03T08:14:45.452Z</time></trkpt><trkpt lat="42.324167" lon="13.6070324"><ele>1001.0</ele><time>2026-05-03T08:14:47.449Z</time></trkpt><trkpt lat="42.3240802" lon="13.6071573"><ele>1001.0</ele><time>2026-05-03T08:14:49.451Z</time></trkpt><trkpt lat="42.3240353" lon="13.6072271"><ele>999.3333333333334</ele><time>2026-05-03T08:14:50.444Z</time></trkpt><trkpt lat="42.3239986" lon="13.6072971"><ele>997.6666666666667</ele><time>2026-05-03T08:14:51.451Z</time></trkpt><trkpt lat="42.3239534" lon="13.607377"><ele>996.0</ele><time>2026-05-03T08:14:52.446Z</time></trkpt><trkpt lat="42.3239104" lon="13.6074543"><ele>994.3333333333333</ele><time>2026-05-03T08:14:53.449Z</time></trkpt><trkpt lat="42.3238452" lon="13.6075725"><ele>992.6666666666666</ele><time>2026-05-03T08:14:55.445Z</time></trkpt><trkpt lat="42.3238285" lon="13.6076828"><ele>991.0</ele><time>2026-05-03T08:14:57.44Z</time></trkpt><trkpt lat="42.3238089" lon="13.6078341"><ele>990.6666666666666</ele><time>2026-05-03T08:14:59.439Z</time></trkpt><trkpt lat="42.3237907" lon="13.6079278"><ele>990.3333333333333</ele><time>2026-05-03T08:15:00.452Z</time></trkpt><trkpt lat="42.3237659" lon="13.6080163"><ele>990.0</ele><time>2026-05-03T08:15:01.45Z</time></trkpt><trkpt lat="42.323729" lon="13.6081048"><ele>989.6666666666667</ele><time>2026-05-03T08:15:02.443Z</time></trkpt><trkpt lat="42.3236932" lon="13.6081969"><ele>989.3333333333334</ele><time>2026-05-03T08:15:03.442Z</time></trkpt><trkpt lat="42.3236623" lon="13.6082767"><ele>989.0</ele><time>2026-05-03T08:15:04.448Z</time></trkpt><trkpt lat="42.3236023" lon="13.6084007"><ele>989.0000000000001</ele><time>2026-05-03T08:15:06.441Z</time></trkpt><trkpt lat="42.3235533" lon="13.6085034"><ele>989.0</ele><time>2026-05-03T08:15:08.442Z</time></trkpt><trkpt lat="42.3235076" lon="13.6085992"><ele>989.0</ele><time>2026-05-03T08:15:10.444Z</time></trkpt><trkpt lat="42.3234474" lon="13.608718"><ele>989.0</ele><time>2026-05-03T08:15:12.441Z</time></trkpt><trkpt lat="42.3234082" lon="13.6088128"><ele>989.0000000000001</ele><time>2026-05-03T08:15:13.451Z</time></trkpt><trkpt lat="42.3233637" lon="13.6089082"><ele>989.0</ele><time>2026-05-03T08:15:14.442Z</time></trkpt><trkpt lat="42.3233151" lon="13.6089877"><ele>987.2857142857142</ele><time>2026-05-03T08:15:15.451Z</time></trkpt><trkpt lat="42.3232678" lon="13.6090604"><ele>985.5714285714284</ele><time>2026-05-03T08:15:16.44Z</time></trkpt><trkpt lat="42.3232301" lon="13.6091288"><ele>983.8571428571429</ele><time>2026-05-03T08:15:17.451Z</time></trkpt><trkpt lat="42.3231954" lon="13.6092016"><ele>982.1428571428571</ele><time>2026-05-03T08:15:18.44Z</time></trkpt><trkpt lat="42.3231535" lon="13.6092871"><ele>980.4285714285714</ele><time>2026-05-03T08:15:19.45Z</time></trkpt><trkpt lat="42.3231141" lon="13.609392"><ele>978.7142857142858</ele><time>2026-05-03T08:15:20.438Z</time></trkpt><trkpt lat="42.3230696" lon="13.6094923"><ele>977.0000000000001</ele><time>2026-05-03T08:15:21.448Z</time></trkpt><trkpt lat="42.3230293" lon="13.6095886"><ele>976.8333333333334</ele><time>2026-05-03T08:15:22.442Z</time></trkpt><trkpt lat="42.3229833" lon="13.6096689"><ele>976.6666666666667</ele><time>2026-05-03T08:15:23.452Z</time></trkpt><trkpt lat="42.3229356" lon="13.6097518"><ele>976.5</ele><time>2026-05-03T08:15:24.442Z</time></trkpt><trkpt lat="42.3228869" lon="13.6098452"><ele>976.3333333333333</ele><time>2026-05-03T08:15:25.465Z</time></trkpt><trkpt lat="42.3228398" lon="13.6099409"><ele>976.1666666666666</ele><time>2026-05-03T08:15:26.444Z</time></trkpt><trkpt lat="42.3227863" lon="13.6100364"><ele>976.0</ele><time>2026-05-03T08:15:27.451Z</time></trkpt><trkpt lat="42.3227421" lon="13.6101245"><ele>975.9999999999999</ele><time>2026-05-03T08:15:28.441Z</time></trkpt><trkpt lat="42.3226917" lon="13.6102111"><ele>976.0</ele><time>2026-05-03T08:15:29.443Z</time></trkpt><trkpt lat="42.3226498" lon="13.6102933"><ele>975.9999999999999</ele><time>2026-05-03T08:15:30.45Z</time></trkpt><trkpt lat="42.3226077" lon="13.6103638"><ele>975.9999999999999</ele><time>2026-05-03T08:15:31.441Z</time></trkpt><trkpt lat="42.3225705" lon="13.6104422"><ele>976.0</ele><time>2026-05-03T08:15:32.451Z</time></trkpt><trkpt lat="42.3225329" lon="13.6105285"><ele>975.9999999999999</ele><time>2026-05-03T08:15:33.448Z</time></trkpt><trkpt lat="42.3224986" lon="13.6106109"><ele>975.9999999999999</ele><time>2026-05-03T08:15:34.454Z</time></trkpt><trkpt lat="42.3224649" lon="13.6106841"><ele>974.8571428571427</ele><time>2026-05-03T08:15:35.447Z</time></trkpt><trkpt lat="42.3224178" lon="13.6107553"><ele>973.7142857142857</ele><time>2026-05-03T08:15:36.447Z</time></trkpt><trkpt lat="42.3223665" lon="13.6108238"><ele>972.5714285714284</ele><time>2026-05-03T08:15:37.45Z</time></trkpt><trkpt lat="42.322311" lon="13.6108898"><ele>971.4285714285713</ele><time>2026-05-03T08:15:38.445Z</time></trkpt><trkpt lat="42.3222611" lon="13.6109476"><ele>970.2857142857142</ele><time>2026-05-03T08:15:39.455Z</time></trkpt><trkpt lat="42.3222096" lon="13.6110076"><ele>969.1428571428571</ele><time>2026-05-03T08:15:40.45Z</time></trkpt><trkpt lat="42.3221545" lon="13.6110684"><ele>968.0</ele><time>2026-05-03T08:15:41.455Z</time></trkpt><trkpt lat="42.3220962" lon="13.6111345"><ele>966.0000000000001</ele><time>2026-05-03T08:15:42.45Z</time></trkpt><trkpt lat="42.3220452" lon="13.6112016"><ele>964.0</ele><time>2026-05-03T08:15:43.459Z</time></trkpt><trkpt lat="42.3219586" lon="13.6113109"><ele>962.0</ele><time>2026-05-03T08:15:45.454Z</time></trkpt><trkpt lat="42.3218691" lon="13.6113373"><ele>960.0</ele><time>2026-05-03T08:15:47.456Z</time></trkpt><trkpt lat="42.3218042" lon="13.6113907"><ele>958.0000000000001</ele><time>2026-05-03T08:15:49.453Z</time></trkpt><trkpt lat="42.3217665" lon="13.6114591"><ele>956.0</ele><time>2026-05-03T08:15:50.442Z</time></trkpt><trkpt lat="42.3217242" lon="13.6115494"><ele>956.0000000000001</ele><time>2026-05-03T08:15:51.457Z</time></trkpt><trkpt lat="42.321678" lon="13.6116313"><ele>956.0</ele><time>2026-05-03T08:15:52.45Z</time></trkpt><trkpt lat="42.3216306" lon="13.6117047"><ele>956.0</ele><time>2026-05-03T08:15:53.46Z</time></trkpt><trkpt lat="42.3215617" lon="13.6118403"><ele>956.0</ele><time>2026-05-03T08:15:55.454Z</time></trkpt><trkpt lat="42.3215486" lon="13.6119246"><ele>956.0000000000001</ele><time>2026-05-03T08:15:56.459Z</time></trkpt><trkpt lat="42.3215407" lon="13.6120331"><ele>956.0</ele><time>2026-05-03T08:15:57.455Z</time></trkpt><trkpt lat="42.3215233" lon="13.6121394"><ele>955.1666666666667</ele><time>2026-05-03T08:15:58.467Z</time></trkpt><trkpt lat="42.321506" lon="13.6122449"><ele>954.3333333333334</ele><time>2026-05-03T08:15:59.455Z</time></trkpt><trkpt lat="42.3214723" lon="13.6123435"><ele>953.5</ele><time>2026-05-03T08:16:00.456Z</time></trkpt><trkpt lat="42.3214257" lon="13.6124331"><ele>952.6666666666667</ele><time>2026-05-03T08:16:01.454Z</time></trkpt><trkpt lat="42.3213767" lon="13.612531"><ele>951.8333333333334</ele><time>2026-05-03T08:16:02.457Z</time></trkpt><trkpt lat="42.3213179" lon="13.6126314"><ele>951.0</ele><time>2026-05-03T08:16:03.453Z</time></trkpt><trkpt lat="42.3212495" lon="13.6127383"><ele>950.0</ele><time>2026-05-03T08:16:04.451Z</time></trkpt><trkpt lat="42.3211797" lon="13.6128653"><ele>948.9999999999999</ele><time>2026-05-03T08:16:05.456Z</time></trkpt><trkpt lat="42.3211141" lon="13.6129844"><ele>947.9999999999999</ele><time>2026-05-03T08:16:06.454Z</time></trkpt><trkpt lat="42.3210387" lon="13.6130933"><ele>947.0</ele><time>2026-05-03T08:16:07.456Z</time></trkpt><trkpt lat="42.3209667" lon="13.6131866"><ele>946.0</ele><time>2026-05-03T08:16:08.458Z</time></trkpt><trkpt lat="42.3209013" lon="13.613265"><ele>945.9999999999999</ele><time>2026-05-03T08:16:09.465Z</time></trkpt><trkpt lat="42.3208423" lon="13.61334"><ele>946.0</ele><time>2026-05-03T08:16:10.457Z</time></trkpt><trkpt lat="42.320789" lon="13.613395"><ele>946.0</ele><time>2026-05-03T08:16:11.46Z</time></trkpt><trkpt lat="42.3206964" lon="13.6134355"><ele>946.0</ele><time>2026-05-03T08:16:13.46Z</time></trkpt><trkpt lat="42.3206309" lon="13.6133661"><ele>945.9999999999999</ele><time>2026-05-03T08:16:15.464Z</time></trkpt><trkpt lat="42.3205883" lon="13.6132852"><ele>946.0</ele><time>2026-05-03T08:16:16.458Z</time></trkpt><trkpt lat="42.3205569" lon="13.613208"><ele>947.0</ele><time>2026-05-03T08:16:17.45Z</time></trkpt><trkpt lat="42.3205107" lon="13.6131035"><ele>947.9999999999999</ele><time>2026-05-03T08:16:19.455Z</time></trkpt><trkpt lat="42.320448" lon="13.6131597"><ele>948.9999999999999</ele><time>2026-05-03T08:16:23.467Z</time></trkpt><trkpt lat="42.3204064" lon="13.6133194"><ele>950.0</ele><time>2026-05-03T08:16:25.458Z</time></trkpt><trkpt lat="42.3203626" lon="13.6134086"><ele>951.0</ele><time>2026-05-03T08:16:26.46Z</time></trkpt><trkpt lat="42.3203002" lon="13.613505"><ele>951.0</ele><time>2026-05-03T08:16:27.477Z</time></trkpt><trkpt lat="42.3202455" lon="13.6136026"><ele>951.0</ele><time>2026-05-03T08:16:28.46Z</time></trkpt><trkpt lat="42.3202054" lon="13.6136991"><ele>951.0</ele><time>2026-05-03T08:16:29.464Z</time></trkpt><trkpt lat="42.3201739" lon="13.6137945"><ele>951.0</ele><time>2026-05-03T08:16:30.465Z</time></trkpt><trkpt lat="42.3201513" lon="13.6139013"><ele>951.0</ele><time>2026-05-03T08:16:31.464Z</time></trkpt><trkpt lat="42.3201344" lon="13.6140241"><ele>951.0</ele><time>2026-05-03T08:16:32.461Z</time></trkpt><trkpt lat="42.3201105" lon="13.6141661"><ele>950.6666666666666</ele><time>2026-05-03T08:16:33.458Z</time></trkpt><trkpt lat="42.3200678" lon="13.6142891"><ele>950.3333333333333</ele><time>2026-05-03T08:16:34.459Z</time></trkpt><trkpt lat="42.3200158" lon="13.614374"><ele>950.0</ele><time>2026-05-03T08:16:35.459Z</time></trkpt><trkpt lat="42.3199602" lon="13.614437"><ele>949.6666666666666</ele><time>2026-05-03T08:16:36.46Z</time></trkpt><trkpt lat="42.3199022" lon="13.6144988"><ele>949.3333333333333</ele><time>2026-05-03T08:16:37.461Z</time></trkpt><trkpt lat="42.3198482" lon="13.6145738"><ele>949.0</ele><time>2026-05-03T08:16:38.462Z</time></trkpt><trkpt lat="42.3197935" lon="13.6146578"><ele>948.6</ele><time>2026-05-03T08:16:39.462Z</time></trkpt><trkpt lat="42.3197414" lon="13.6147449"><ele>948.2</ele><time>2026-05-03T08:16:40.459Z</time></trkpt><trkpt lat="42.319693" lon="13.6148421"><ele>947.8000000000001</ele><time>2026-05-03T08:16:41.463Z</time></trkpt><trkpt lat="42.3196392" lon="13.6149507"><ele>947.4000000000001</ele><time>2026-05-03T08:16:42.464Z</time></trkpt><trkpt lat="42.3195834" lon="13.6150637"><ele>947.0</ele><time>2026-05-03T08:16:43.464Z</time></trkpt><trkpt lat="42.3195314" lon="13.6151759"><ele>948.3333333333334</ele><time>2026-05-03T08:16:44.46Z</time></trkpt><trkpt lat="42.3194822" lon="13.6152782"><ele>949.6666666666667</ele><time>2026-05-03T08:16:45.463Z</time></trkpt><trkpt lat="42.3194421" lon="13.6153801"><ele>951.0</ele><time>2026-05-03T08:16:46.462Z</time></trkpt><trkpt lat="42.3193981" lon="13.6154722"><ele>952.3333333333333</ele><time>2026-05-03T08:16:47.459Z</time></trkpt><trkpt lat="42.3193346" lon="13.6155502"><ele>953.6666666666666</ele><time>2026-05-03T08:16:48.462Z</time></trkpt><trkpt lat="42.3192769" lon="13.6156147"><ele>955.0</ele><time>2026-05-03T08:16:49.46Z</time></trkpt><trkpt lat="42.3191867" lon="13.615704"><ele>955.0</ele><time>2026-05-03T08:16:51.46Z</time></trkpt><trkpt lat="42.3191429" lon="13.6157663"><ele>955.0</ele><time>2026-05-03T08:16:52.461Z</time></trkpt><trkpt lat="42.3190684" lon="13.615887"><ele>955.0</ele><time>2026-05-03T08:16:54.46Z</time></trkpt><trkpt lat="42.3190341" lon="13.6160431"><ele>955.0</ele><time>2026-05-03T08:16:56.459Z</time></trkpt><trkpt lat="42.3190065" lon="13.6161583"><ele>955.0</ele><time>2026-05-03T08:16:58.476Z</time></trkpt><trkpt lat="42.318972" lon="13.6162372"><ele>954.8333333333333</ele><time>2026-05-03T08:17:00.466Z</time></trkpt><trkpt lat="42.3189484" lon="13.616326"><ele>954.6666666666666</ele><time>2026-05-03T08:17:14.462Z</time></trkpt><trkpt lat="42.3188971" lon="13.6164242"><ele>954.5</ele><time>2026-05-03T08:17:16.458Z</time></trkpt><trkpt lat="42.318819" lon="13.6165509"><ele>954.3333333333333</ele><time>2026-05-03T08:17:18.459Z</time></trkpt><trkpt lat="42.3187702" lon="13.6166269"><ele>954.1666666666666</ele><time>2026-05-03T08:17:19.46Z</time></trkpt><trkpt lat="42.3187129" lon="13.6166893"><ele>954.0</ele><time>2026-05-03T08:17:20.461Z</time></trkpt><trkpt lat="42.3186591" lon="13.616747"><ele>955.0</ele><time>2026-05-03T08:17:21.452Z</time></trkpt><trkpt lat="42.3185666" lon="13.616821"><ele>956.0000000000001</ele><time>2026-05-03T08:17:23.453Z</time></trkpt><trkpt lat="42.318515" lon="13.6169029"><ele>957.0000000000001</ele><time>2026-05-03T08:17:25.461Z</time></trkpt><trkpt lat="42.3184516" lon="13.6170306"><ele>958.0</ele><time>2026-05-03T08:17:27.458Z</time></trkpt><trkpt lat="42.318392" lon="13.6170988"><ele>959.0</ele><time>2026-05-03T08:17:28.462Z</time></trkpt><trkpt lat="42.3183229" lon="13.6171611"><ele>959.0</ele><time>2026-05-03T08:17:29.471Z</time></trkpt><trkpt lat="42.3182559" lon="13.6172086"><ele>959.0</ele><time>2026-05-03T08:17:30.455Z</time></trkpt><trkpt lat="42.3181986" lon="13.6172488"><ele>959.0</ele><time>2026-05-03T08:17:31.456Z</time></trkpt><trkpt lat="42.3181412" lon="13.6173001"><ele>959.0</ele><time>2026-05-03T08:17:32.456Z</time></trkpt><trkpt lat="42.3180891" lon="13.6173775"><ele>959.0</ele><time>2026-05-03T08:17:33.455Z</time></trkpt><trkpt lat="42.3180347" lon="13.6174497"><ele>959.0</ele><time>2026-05-03T08:17:34.452Z</time></trkpt><trkpt lat="42.3179705" lon="13.6174967"><ele>959.0</ele><time>2026-05-03T08:17:35.453Z</time></trkpt><trkpt lat="42.3178972" lon="13.6175501"><ele>959.6</ele><time>2026-05-03T08:17:36.451Z</time></trkpt><trkpt lat="42.3178169" lon="13.6176143"><ele>960.2</ele><time>2026-05-03T08:17:37.455Z</time></trkpt><trkpt lat="42.3177467" lon="13.6176855"><ele>960.8000000000001</ele><time>2026-05-03T08:17:38.45Z</time></trkpt><trkpt lat="42.3176671" lon="13.6177587"><ele>961.4000000000001</ele><time>2026-05-03T08:17:39.452Z</time></trkpt><trkpt lat="42.3175901" lon="13.6178286"><ele>962.0</ele><time>2026-05-03T08:17:40.456Z</time></trkpt><trkpt lat="42.3175129" lon="13.6178926"><ele>962.0000000000001</ele><time>2026-05-03T08:17:41.453Z</time></trkpt><trkpt lat="42.3174473" lon="13.6179577"><ele>962.0</ele><time>2026-05-03T08:17:42.455Z</time></trkpt><trkpt lat="42.3173863" lon="13.618028"><ele>962.0</ele><time>2026-05-03T08:17:43.455Z</time></trkpt><trkpt lat="42.3173186" lon="13.6180956"><ele>962.0</ele><time>2026-05-03T08:17:44.452Z</time></trkpt><trkpt lat="42.3172427" lon="13.6181757"><ele>962.0000000000001</ele><time>2026-05-03T08:17:45.458Z</time></trkpt><trkpt lat="42.3171601" lon="13.6182601"><ele>962.0</ele><time>2026-05-03T08:17:46.454Z</time></trkpt><trkpt lat="42.3170818" lon="13.6183309"><ele>963.1666666666667</ele><time>2026-05-03T08:17:47.456Z</time></trkpt><trkpt lat="42.3170077" lon="13.6184051"><ele>964.3333333333334</ele><time>2026-05-03T08:17:48.455Z</time></trkpt><trkpt lat="42.3169441" lon="13.6184736"><ele>965.5</ele><time>2026-05-03T08:17:49.454Z</time></trkpt><trkpt lat="42.3168853" lon="13.6185415"><ele>966.6666666666667</ele><time>2026-05-03T08:17:50.456Z</time></trkpt><trkpt lat="42.3168249" lon="13.6186121"><ele>967.8333333333334</ele><time>2026-05-03T08:17:51.458Z</time></trkpt><trkpt lat="42.3167634" lon="13.6186759"><ele>969.0</ele><time>2026-05-03T08:17:52.454Z</time></trkpt><trkpt lat="42.3167062" lon="13.618718"><ele>969.0</ele><time>2026-05-03T08:17:53.455Z</time></trkpt><trkpt lat="42.3166457" lon="13.6187536"><ele>969.0000000000001</ele><time>2026-05-03T08:17:54.449Z</time></trkpt><trkpt lat="42.3165878" lon="13.6188002"><ele>969.0000000000001</ele><time>2026-05-03T08:17:55.455Z</time></trkpt><trkpt lat="42.3164866" lon="13.6188993"><ele>969.0</ele><time>2026-05-03T08:17:57.452Z</time></trkpt><trkpt lat="42.316382" lon="13.61899"><ele>969.0</ele><time>2026-05-03T08:17:59.455Z</time></trkpt><trkpt lat="42.3163257" lon="13.6190428"><ele>971.5</ele><time>2026-05-03T08:18:00.47Z</time></trkpt><trkpt lat="42.3162396" lon="13.6191269"><ele>974.0</ele><time>2026-05-03T08:18:02.458Z</time></trkpt><trkpt lat="42.3161774" lon="13.6192576"><ele>976.5</ele><time>2026-05-03T08:18:04.451Z</time></trkpt><trkpt lat="42.3161544" lon="13.6194105"><ele>979.0</ele><time>2026-05-03T08:18:06.447Z</time></trkpt><trkpt lat="42.3161373" lon="13.6195744"><ele>978.9999999999999</ele><time>2026-05-03T08:18:08.458Z</time></trkpt><trkpt lat="42.3161412" lon="13.6196671"><ele>979.0</ele><time>2026-05-03T08:18:09.458Z</time></trkpt><trkpt lat="42.3161409" lon="13.6197569"><ele>979.0</ele><time>2026-05-03T08:18:10.451Z</time></trkpt><trkpt lat="42.3161013" lon="13.6198444"><ele>979.0</ele><time>2026-05-03T08:18:12.449Z</time></trkpt><trkpt lat="42.3160219" lon="13.6198648"><ele>978.9999999999999</ele><time>2026-05-03T08:18:14.455Z</time></trkpt><trkpt lat="42.3159144" lon="13.6199723"><ele>979.0</ele><time>2026-05-03T08:18:16.446Z</time></trkpt><trkpt lat="42.315845" lon="13.6200594"><ele>978.9999999999999</ele><time>2026-05-03T08:18:17.452Z</time></trkpt><trkpt lat="42.3157691" lon="13.6201514"><ele>979.0</ele><time>2026-05-03T08:18:18.451Z</time></trkpt><trkpt lat="42.3157089" lon="13.6202471"><ele>979.0</ele><time>2026-05-03T08:18:19.45Z</time></trkpt><trkpt lat="42.3156651" lon="13.6203438"><ele>979.0</ele><time>2026-05-03T08:18:20.453Z</time></trkpt><trkpt lat="42.3156199" lon="13.6204201"><ele>978.9999999999999</ele><time>2026-05-03T08:18:21.453Z</time></trkpt><trkpt lat="42.3155373" lon="13.620471"><ele>979.0</ele><time>2026-05-03T08:18:23.458Z</time></trkpt><trkpt lat="42.3154538" lon="13.6204507"><ele>979.2</ele><time>2026-05-03T08:18:25.461Z</time></trkpt><trkpt lat="42.3153537" lon="13.6205016"><ele>979.4000000000001</ele><time>2026-05-03T08:18:27.455Z</time></trkpt><trkpt lat="42.3152979" lon="13.6205679"><ele>979.6</ele><time>2026-05-03T08:18:28.458Z</time></trkpt><trkpt lat="42.3152403" lon="13.6206571"><ele>979.8</ele><time>2026-05-03T08:18:29.456Z</time></trkpt><trkpt lat="42.3151763" lon="13.6207577"><ele>980.0</ele><time>2026-05-03T08:18:30.458Z</time></trkpt><trkpt lat="42.3151045" lon="13.6208541"><ele>980.0</ele><time>2026-05-03T08:18:31.468Z</time></trkpt><trkpt lat="42.3150248" lon="13.6209377"><ele>980.0</ele><time>2026-05-03T08:18:32.453Z</time></trkpt><trkpt lat="42.3149332" lon="13.6210073"><ele>980.0</ele><time>2026-05-03T08:18:33.458Z</time></trkpt><trkpt lat="42.3148369" lon="13.6210657"><ele>980.0</ele><time>2026-05-03T08:18:34.456Z</time></trkpt><trkpt lat="42.3147466" lon="13.621107"><ele>980.0</ele><time>2026-05-03T08:18:35.452Z</time></trkpt><trkpt lat="42.3146643" lon="13.6211436"><ele>980.1666666666667</ele><time>2026-05-03T08:18:36.46Z</time></trkpt><trkpt lat="42.3145891" lon="13.6211807"><ele>980.3333333333334</ele><time>2026-05-03T08:18:37.456Z</time></trkpt><trkpt lat="42.3145243" lon="13.6212237"><ele>980.5</ele><time>2026-05-03T08:18:38.458Z</time></trkpt><trkpt lat="42.3144607" lon="13.6212749"><ele>980.6666666666667</ele><time>2026-05-03T08:18:39.455Z</time></trkpt><trkpt lat="42.3143914" lon="13.6213414"><ele>980.8333333333334</ele><time>2026-05-03T08:18:40.458Z</time></trkpt><trkpt lat="42.3143156" lon="13.6214074"><ele>981.0</ele><time>2026-05-03T08:18:41.453Z</time></trkpt><trkpt lat="42.3142436" lon="13.6214725"><ele>981.0</ele><time>2026-05-03T08:18:42.455Z</time></trkpt><trkpt lat="42.3141704" lon="13.6215381"><ele>981.0</ele><time>2026-05-03T08:18:43.454Z</time></trkpt><trkpt lat="42.3141013" lon="13.6215953"><ele>981.0</ele><time>2026-05-03T08:18:44.454Z</time></trkpt><trkpt lat="42.314041" lon="13.6216413"><ele>981.0</ele><time>2026-05-03T08:18:45.451Z</time></trkpt><trkpt lat="42.3139866" lon="13.621687"><ele>981.0</ele><time>2026-05-03T08:18:46.456Z</time></trkpt><trkpt lat="42.3139168" lon="13.6217639"><ele>981.0</ele><time>2026-05-03T08:18:48.452Z</time></trkpt><trkpt lat="42.3138548" lon="13.6217334"><ele>983.4</ele><time>2026-05-03T08:18:51.454Z</time></trkpt><trkpt lat="42.3137787" lon="13.6216715"><ele>985.8</ele><time>2026-05-03T08:18:53.452Z</time></trkpt><trkpt lat="42.3136899" lon="13.6216867"><ele>988.1999999999999</ele><time>2026-05-03T08:18:55.453Z</time></trkpt><trkpt lat="42.3135809" lon="13.6217579"><ele>990.5999999999999</ele><time>2026-05-03T08:18:57.446Z</time></trkpt><trkpt lat="42.3135225" lon="13.6218172"><ele>993.0</ele><time>2026-05-03T08:18:58.449Z</time></trkpt><trkpt lat="42.3134577" lon="13.6218773"><ele>993.0</ele><time>2026-05-03T08:18:59.447Z</time></trkpt><trkpt lat="42.3133911" lon="13.6219375"><ele>993.0</ele><time>2026-05-03T08:19:00.453Z</time></trkpt><trkpt lat="42.3133355" lon="13.6219989"><ele>993.0</ele><time>2026-05-03T08:19:01.448Z</time></trkpt><trkpt lat="42.313284" lon="13.6220608"><ele>993.0</ele><time>2026-05-03T08:19:02.457Z</time></trkpt><trkpt lat="42.3131958" lon="13.6221823"><ele>993.0</ele><time>2026-05-03T08:19:04.449Z</time></trkpt><trkpt lat="42.3131461" lon="13.6222652"><ele>993.0</ele><time>2026-05-03T08:19:05.445Z</time></trkpt><trkpt lat="42.3131002" lon="13.6223581"><ele>995.0</ele><time>2026-05-03T08:19:06.449Z</time></trkpt><trkpt lat="42.313053" lon="13.6224455"><ele>997.0</ele><time>2026-05-03T08:19:07.447Z</time></trkpt><trkpt lat="42.3130006" lon="13.6225161"><ele>999.0</ele><time>2026-05-03T08:19:08.447Z</time></trkpt><trkpt lat="42.3129434" lon="13.6225827"><ele>1001.0</ele><time>2026-05-03T08:19:09.443Z</time></trkpt><trkpt lat="42.3128891" lon="13.6226453"><ele>1003.0</ele><time>2026-05-03T08:19:10.444Z</time></trkpt><trkpt lat="42.3128354" lon="13.6227164"><ele>1005.0</ele><time>2026-05-03T08:19:11.444Z</time></trkpt><trkpt lat="42.3127784" lon="13.6227969"><ele>1002.2</ele><time>2026-05-03T08:19:12.445Z</time></trkpt><trkpt lat="42.3127307" lon="13.6228767"><ele>999.4</ele><time>2026-05-03T08:19:13.445Z</time></trkpt><trkpt lat="42.3126842" lon="13.6229665"><ele>996.5999999999999</ele><time>2026-05-03T08:19:14.446Z</time></trkpt><trkpt lat="42.3126389" lon="13.6230372"><ele>993.8</ele><time>2026-05-03T08:19:15.448Z</time></trkpt><trkpt lat="42.3125913" lon="13.623183"><ele>991.0</ele><time>2026-05-03T08:19:17.445Z</time></trkpt><trkpt lat="42.3125134" lon="13.6233118"><ele>990.9999999999999</ele><time>2026-05-03T08:19:19.447Z</time></trkpt><trkpt lat="42.3124611" lon="13.6233641"><ele>991.0</ele><time>2026-05-03T08:19:20.448Z</time></trkpt><trkpt lat="42.3124056" lon="13.6234078"><ele>991.0</ele><time>2026-05-03T08:19:21.45Z</time></trkpt><trkpt lat="42.312327" lon="13.6234785"><ele>991.0</ele><time>2026-05-03T08:19:23.454Z</time></trkpt><trkpt lat="42.3122708" lon="13.6235683"><ele>990.9999999999999</ele><time>2026-05-03T08:19:25.448Z</time></trkpt><trkpt lat="42.3122005" lon="13.6236988"><ele>991.0</ele><time>2026-05-03T08:19:27.452Z</time></trkpt><trkpt lat="42.3121656" lon="13.6237712"><ele>993.0000000000001</ele><time>2026-05-03T08:19:28.449Z</time></trkpt><trkpt lat="42.3121306" lon="13.6238507"><ele>995.0</ele><time>2026-05-03T08:19:29.448Z</time></trkpt><trkpt lat="42.3120976" lon="13.6239295"><ele>997.0000000000001</ele><time>2026-05-03T08:19:30.451Z</time></trkpt><trkpt lat="42.3120719" lon="13.6240092"><ele>999.0000000000001</ele><time>2026-05-03T08:19:31.442Z</time></trkpt><trkpt lat="42.3120387" lon="13.6240942"><ele>1001.0</ele><time>2026-05-03T08:19:32.444Z</time></trkpt><trkpt lat="42.3120015" lon="13.6241939"><ele>1003.0000000000001</ele><time>2026-05-03T08:19:33.459Z</time></trkpt><trkpt lat="42.3119652" lon="13.6242935"><ele>1005.0000000000001</ele><time>2026-05-03T08:19:34.445Z</time></trkpt><trkpt lat="42.3119302" lon="13.6244012"><ele>1003.1666666666666</ele><time>2026-05-03T08:19:35.443Z</time></trkpt><trkpt lat="42.3119047" lon="13.6244978"><ele>1001.3333333333333</ele><time>2026-05-03T08:19:36.441Z</time></trkpt><trkpt lat="42.311868" lon="13.624591"><ele>999.5</ele><time>2026-05-03T08:19:37.44Z</time></trkpt><trkpt lat="42.3118271" lon="13.6246797"><ele>997.6666666666666</ele><time>2026-05-03T08:19:38.446Z</time></trkpt><trkpt lat="42.3117874" lon="13.6247709"><ele>995.8333333333333</ele><time>2026-05-03T08:19:39.448Z</time></trkpt><trkpt lat="42.3117389" lon="13.6248527"><ele>994.0</ele><time>2026-05-03T08:19:40.445Z</time></trkpt><trkpt lat="42.3116893" lon="13.6249355"><ele>993.9999999999999</ele><time>2026-05-03T08:19:41.447Z</time></trkpt><trkpt lat="42.3116298" lon="13.6249933"><ele>994.0</ele><time>2026-05-03T08:19:42.444Z</time></trkpt><trkpt lat="42.311557" lon="13.6250553"><ele>994.0</ele><time>2026-05-03T08:19:43.445Z</time></trkpt><trkpt lat="42.3114835" lon="13.6251378"><ele>994.0</ele><time>2026-05-03T08:19:44.444Z</time></trkpt><trkpt lat="42.3114023" lon="13.6252229"><ele>993.9999999999999</ele><time>2026-05-03T08:19:45.444Z</time></trkpt><trkpt lat="42.3113424" lon="13.6253149"><ele>994.0</ele><time>2026-05-03T08:19:46.447Z</time></trkpt><trkpt lat="42.3112896" lon="13.6254033"><ele>997.6</ele><time>2026-05-03T08:19:47.451Z</time></trkpt><trkpt lat="42.3112246" lon="13.6255032"><ele>1001.2</ele><time>2026-05-03T08:19:48.441Z</time></trkpt><trkpt lat="42.3111683" lon="13.6256017"><ele>1004.8000000000001</ele><time>2026-05-03T08:19:49.441Z</time></trkpt><trkpt lat="42.3111212" lon="13.625698"><ele>1008.4000000000001</ele><time>2026-05-03T08:19:50.437Z</time></trkpt><trkpt lat="42.3110675" lon="13.6257934"><ele>1012.0</ele><time>2026-05-03T08:19:51.443Z</time></trkpt><trkpt lat="42.3110191" lon="13.6258913"><ele>1011.9999999999999</ele><time>2026-05-03T08:19:52.443Z</time></trkpt><trkpt lat="42.3109694" lon="13.6259806"><ele>1012.0</ele><time>2026-05-03T08:19:53.456Z</time></trkpt><trkpt lat="42.3109235" lon="13.6260674"><ele>1012.0</ele><time>2026-05-03T08:19:54.441Z</time></trkpt><trkpt lat="42.3108744" lon="13.6261592"><ele>1012.0</ele><time>2026-05-03T08:19:55.443Z</time></trkpt><trkpt lat="42.3108319" lon="13.6262633"><ele>1011.9999999999999</ele><time>2026-05-03T08:19:56.444Z</time></trkpt><trkpt lat="42.3107939" lon="13.6263753"><ele>1012.0</ele><time>2026-05-03T08:19:57.445Z</time></trkpt><trkpt lat="42.310747" lon="13.6264867"><ele>1011.1666666666666</ele><time>2026-05-03T08:19:58.447Z</time></trkpt><trkpt lat="42.3107007" lon="13.6265909"><ele>1010.3333333333333</ele><time>2026-05-03T08:19:59.444Z</time></trkpt><trkpt lat="42.3106548" lon="13.6266969"><ele>1009.5</ele><time>2026-05-03T08:20:00.452Z</time></trkpt><trkpt lat="42.310621" lon="13.6267928"><ele>1008.6666666666667</ele><time>2026-05-03T08:20:01.454Z</time></trkpt><trkpt lat="42.3105658" lon="13.6268963"><ele>1007.8333333333334</ele><time>2026-05-03T08:20:02.45Z</time></trkpt><trkpt lat="42.3105042" lon="13.6269835"><ele>1007.0</ele><time>2026-05-03T08:20:03.442Z</time></trkpt><trkpt lat="42.3104486" lon="13.6270613"><ele>1007.0</ele><time>2026-05-03T08:20:04.459Z</time></trkpt><trkpt lat="42.3104034" lon="13.6271479"><ele>1007.0</ele><time>2026-05-03T08:20:05.447Z</time></trkpt><trkpt lat="42.3103559" lon="13.6272399"><ele>1007.0</ele><time>2026-05-03T08:20:06.448Z</time></trkpt><trkpt lat="42.3103214" lon="13.6273256"><ele>1007.0</ele><time>2026-05-03T08:20:07.447Z</time></trkpt><trkpt lat="42.3102969" lon="13.6274156"><ele>1007.0</ele><time>2026-05-03T08:20:08.452Z</time></trkpt><trkpt lat="42.310268" lon="13.627496"><ele>1007.0</ele><time>2026-05-03T08:20:09.449Z</time></trkpt><trkpt lat="42.3102307" lon="13.6275712"><ele>1007.0</ele><time>2026-05-03T08:20:10.454Z</time></trkpt><trkpt lat="42.310188" lon="13.6276424"><ele>1007.0000000000001</ele><time>2026-05-03T08:20:11.453Z</time></trkpt><trkpt lat="42.310095" lon="13.6277448"><ele>1007.0</ele><time>2026-05-03T08:20:13.452Z</time></trkpt><trkpt lat="42.3100204" lon="13.6278318"><ele>1007.0</ele><time>2026-05-03T08:20:15.455Z</time></trkpt><trkpt lat="42.3099712" lon="13.6279125"><ele>1007.0</ele><time>2026-05-03T08:20:16.445Z</time></trkpt><trkpt lat="42.309931" lon="13.6280016"><ele>1007.0000000000001</ele><time>2026-05-03T08:20:17.445Z</time></trkpt><trkpt lat="42.3098973" lon="13.6280922"><ele>1007.0</ele><time>2026-05-03T08:20:18.445Z</time></trkpt><trkpt lat="42.3098665" lon="13.6281947"><ele>1008.0000000000001</ele><time>2026-05-03T08:20:19.446Z</time></trkpt><trkpt lat="42.3098222" lon="13.6282951"><ele>1009.0</ele><time>2026-05-03T08:20:20.445Z</time></trkpt><trkpt lat="42.3097849" lon="13.6283897"><ele>1010.0</ele><time>2026-05-03T08:20:21.445Z</time></trkpt><trkpt lat="42.3097435" lon="13.6284854"><ele>1011.0</ele><time>2026-05-03T08:20:22.447Z</time></trkpt><trkpt lat="42.3097108" lon="13.6285793"><ele>1012.0000000000001</ele><time>2026-05-03T08:20:23.446Z</time></trkpt><trkpt lat="42.3096755" lon="13.6286729"><ele>1013.0</ele><time>2026-05-03T08:20:24.443Z</time></trkpt><trkpt lat="42.3096397" lon="13.6287522"><ele>1013.0000000000001</ele><time>2026-05-03T08:20:25.445Z</time></trkpt><trkpt lat="42.3095981" lon="13.6288197"><ele>1013.0</ele><time>2026-05-03T08:20:26.446Z</time></trkpt><trkpt lat="42.3095334" lon="13.628956"><ele>1013.0</ele><time>2026-05-03T08:20:28.454Z</time></trkpt><trkpt lat="42.3095056" lon="13.6290344"><ele>1013.0</ele><time>2026-05-03T08:20:29.445Z</time></trkpt><trkpt lat="42.3094768" lon="13.6291244"><ele>1013.0000000000001</ele><time>2026-05-03T08:20:30.456Z</time></trkpt><trkpt lat="42.3094479" lon="13.6292145"><ele>1013.0</ele><time>2026-05-03T08:20:31.454Z</time></trkpt><trkpt lat="42.309414" lon="13.6292959"><ele>1013.0000000000001</ele><time>2026-05-03T08:20:32.456Z</time></trkpt><trkpt lat="42.3093631" lon="13.6293895"><ele>1013.0</ele><time>2026-05-03T08:20:33.452Z</time></trkpt><trkpt lat="42.3093053" lon="13.6294684"><ele>1013.0</ele><time>2026-05-03T08:20:34.448Z</time></trkpt><trkpt lat="42.3092456" lon="13.6295544"><ele>1013.0</ele><time>2026-05-03T08:20:35.463Z</time></trkpt><trkpt lat="42.309185" lon="13.6296321"><ele>1013.0000000000001</ele><time>2026-05-03T08:20:36.446Z</time></trkpt><trkpt lat="42.309136" lon="13.6297159"><ele>1013.0</ele><time>2026-05-03T08:20:37.449Z</time></trkpt><trkpt lat="42.3090878" lon="13.6297886"><ele>1012.4</ele><time>2026-05-03T08:20:38.446Z</time></trkpt><trkpt lat="42.3090345" lon="13.6298655"><ele>1011.8</ele><time>2026-05-03T08:20:39.444Z</time></trkpt><trkpt lat="42.3089841" lon="13.6299295"><ele>1011.2</ele><time>2026-05-03T08:20:40.444Z</time></trkpt><trkpt lat="42.3089263" lon="13.6300222"><ele>1010.6</ele><time>2026-05-03T08:20:42.444Z</time></trkpt><trkpt lat="42.3088616" lon="13.6301955"><ele>1010.0</ele><time>2026-05-03T08:20:44.441Z</time></trkpt><trkpt lat="42.308831" lon="13.6303077"><ele>1009.8333333333334</ele><time>2026-05-03T08:20:45.448Z</time></trkpt><trkpt lat="42.3088039" lon="13.6304059"><ele>1009.6666666666667</ele><time>2026-05-03T08:20:46.443Z</time></trkpt><trkpt lat="42.3087851" lon="13.6304929"><ele>1009.5</ele><time>2026-05-03T08:20:47.451Z</time></trkpt><trkpt lat="42.3087686" lon="13.6306516"><ele>1009.3333333333333</ele><time>2026-05-03T08:20:49.457Z</time></trkpt><trkpt lat="42.3087844" lon="13.6307522"><ele>1009.1666666666666</ele><time>2026-05-03T08:20:50.45Z</time></trkpt><trkpt lat="42.3088142" lon="13.6308605"><ele>1009.0</ele><time>2026-05-03T08:20:51.456Z</time></trkpt><trkpt lat="42.3088451" lon="13.6309595"><ele>1008.9999999999999</ele><time>2026-05-03T08:20:52.454Z</time></trkpt><trkpt lat="42.3088727" lon="13.6310452"><ele>1009.0</ele><time>2026-05-03T08:20:53.449Z</time></trkpt><trkpt lat="42.3089225" lon="13.6311686"><ele>1009.0</ele><time>2026-05-03T08:20:55.445Z</time></trkpt><trkpt lat="42.3089142" lon="13.6312879"><ele>1009.0</ele><time>2026-05-03T08:20:57.446Z</time></trkpt><trkpt lat="42.3088802" lon="13.6313865"><ele>1008.9999999999999</ele><time>2026-05-03T08:20:58.445Z</time></trkpt><trkpt lat="42.3088431" lon="13.631479"><ele>1009.0</ele><time>2026-05-03T08:20:59.442Z</time></trkpt><trkpt lat="42.3088005" lon="13.6315643"><ele>1007.3333333333333</ele><time>2026-05-03T08:21:00.455Z</time></trkpt><trkpt lat="42.3087642" lon="13.6316613"><ele>1005.6666666666666</ele><time>2026-05-03T08:21:01.454Z</time></trkpt><trkpt lat="42.3087466" lon="13.631764"><ele>1004.0</ele><time>2026-05-03T08:21:02.453Z</time></trkpt><trkpt lat="42.3087307" lon="13.6318749"><ele>1002.3333333333333</ele><time>2026-05-03T08:21:03.453Z</time></trkpt><trkpt lat="42.3087014" lon="13.6319891"><ele>1000.6666666666666</ele><time>2026-05-03T08:21:04.454Z</time></trkpt><trkpt lat="42.3086658" lon="13.6320952"><ele>999.0</ele><time>2026-05-03T08:21:05.452Z</time></trkpt><trkpt lat="42.3086214" lon="13.6321983"><ele>998.6666666666666</ele><time>2026-05-03T08:21:06.466Z</time></trkpt><trkpt lat="42.3085747" lon="13.6322958"><ele>998.3333333333333</ele><time>2026-05-03T08:21:07.449Z</time></trkpt><trkpt lat="42.3085259" lon="13.6323889"><ele>998.0</ele><time>2026-05-03T08:21:08.45Z</time></trkpt><trkpt lat="42.3084763" lon="13.6324804"><ele>997.6666666666666</ele><time>2026-05-03T08:21:09.448Z</time></trkpt><trkpt lat="42.3084185" lon="13.6325733"><ele>997.3333333333333</ele><time>2026-05-03T08:21:10.438Z</time></trkpt><trkpt lat="42.3083607" lon="13.6326675"><ele>997.0</ele><time>2026-05-03T08:21:11.445Z</time></trkpt><trkpt lat="42.3083023" lon="13.6327723"><ele>997.4000000000001</ele><time>2026-05-03T08:21:12.448Z</time></trkpt><trkpt lat="42.3082445" lon="13.6328841"><ele>997.8000000000001</ele><time>2026-05-03T08:21:13.444Z</time></trkpt><trkpt lat="42.3081888" lon="13.6329972"><ele>998.2</ele><time>2026-05-03T08:21:14.446Z</time></trkpt><trkpt lat="42.3081278" lon="13.6330985"><ele>998.6</ele><time>2026-05-03T08:21:15.447Z</time></trkpt><trkpt lat="42.308078" lon="13.6332009"><ele>999.0</ele><time>2026-05-03T08:21:16.45Z</time></trkpt><trkpt lat="42.3080275" lon="13.6333015"><ele>997.3333333333334</ele><time>2026-05-03T08:21:17.45Z</time></trkpt><trkpt lat="42.3079818" lon="13.633405"><ele>995.6666666666667</ele><time>2026-05-03T08:21:18.449Z</time></trkpt><trkpt lat="42.307931" lon="13.6334965"><ele>994.0</ele><time>2026-05-03T08:21:19.45Z</time></trkpt><trkpt lat="42.3078876" lon="13.6335814"><ele>992.3333333333334</ele><time>2026-05-03T08:21:20.447Z</time></trkpt><trkpt lat="42.3078539" lon="13.6336617"><ele>990.6666666666667</ele><time>2026-05-03T08:21:21.452Z</time></trkpt><trkpt lat="42.3078058" lon="13.6338044"><ele>989.0</ele><time>2026-05-03T08:21:23.448Z</time></trkpt><trkpt lat="42.3077604" lon="13.6339236"><ele>988.8000000000001</ele><time>2026-05-03T08:21:25.45Z</time></trkpt><trkpt lat="42.3077148" lon="13.6339867"><ele>988.6000000000001</ele><time>2026-05-03T08:21:26.446Z</time></trkpt><trkpt lat="42.307622" lon="13.6340726"><ele>988.4</ele><time>2026-05-03T08:21:28.448Z</time></trkpt><trkpt lat="42.3075378" lon="13.6341966"><ele>988.2</ele><time>2026-05-03T08:21:30.458Z</time></trkpt><trkpt lat="42.3074923" lon="13.634278"><ele>988.0</ele><time>2026-05-03T08:21:31.449Z</time></trkpt><trkpt lat="42.3074329" lon="13.6343842"><ele>987.4</ele><time>2026-05-03T08:21:32.452Z</time></trkpt><trkpt lat="42.3073646" lon="13.6344823"><ele>986.8</ele><time>2026-05-03T08:21:33.448Z</time></trkpt><trkpt lat="42.3072911" lon="13.6345755"><ele>986.2</ele><time>2026-05-03T08:21:34.45Z</time></trkpt><trkpt lat="42.3072123" lon="13.6346831"><ele>985.6</ele><time>2026-05-03T08:21:35.453Z</time></trkpt><trkpt lat="42.3071261" lon="13.634807"><ele>985.0</ele><time>2026-05-03T08:21:36.448Z</time></trkpt><trkpt lat="42.3070492" lon="13.6349361"><ele>985.0</ele><time>2026-05-03T08:21:37.466Z</time></trkpt><trkpt lat="42.306972" lon="13.6350836"><ele>985.0</ele><time>2026-05-03T08:21:38.444Z</time></trkpt><trkpt lat="42.306901" lon="13.6352343"><ele>985.0</ele><time>2026-05-03T08:21:39.451Z</time></trkpt><trkpt lat="42.3068372" lon="13.6353703"><ele>985.0</ele><time>2026-05-03T08:21:40.448Z</time></trkpt><trkpt lat="42.3067785" lon="13.6355112"><ele>984.2</ele><time>2026-05-03T08:21:41.448Z</time></trkpt><trkpt lat="42.3067066" lon="13.6356266"><ele>983.4</ele><time>2026-05-03T08:21:42.445Z</time></trkpt><trkpt lat="42.3066413" lon="13.6357394"><ele>982.5999999999999</ele><time>2026-05-03T08:21:43.452Z</time></trkpt><trkpt lat="42.3065816" lon="13.6358445"><ele>981.8</ele><time>2026-05-03T08:21:44.444Z</time></trkpt><trkpt lat="42.3065336" lon="13.63594"><ele>981.0</ele><time>2026-05-03T08:21:45.454Z</time></trkpt><trkpt lat="42.3064862" lon="13.636049"><ele>981.5999999999999</ele><time>2026-05-03T08:21:46.443Z</time></trkpt><trkpt lat="42.3064317" lon="13.6361738"><ele>982.1999999999999</ele><time>2026-05-03T08:21:47.456Z</time></trkpt><trkpt lat="42.3063777" lon="13.6362893"><ele>982.8000000000001</ele><time>2026-05-03T08:21:48.446Z</time></trkpt><trkpt lat="42.3063289" lon="13.6364006"><ele>983.4000000000001</ele><time>2026-05-03T08:21:49.458Z</time></trkpt><trkpt lat="42.3062946" lon="13.6365073"><ele>984.0</ele><time>2026-05-03T08:21:50.451Z</time></trkpt><trkpt lat="42.3062539" lon="13.636616"><ele>982.8000000000001</ele><time>2026-05-03T08:21:51.455Z</time></trkpt><trkpt lat="42.3062173" lon="13.6367335"><ele>981.6000000000001</ele><time>2026-05-03T08:21:52.447Z</time></trkpt><trkpt lat="42.3061852" lon="13.6368584"><ele>980.4</ele><time>2026-05-03T08:21:53.458Z</time></trkpt><trkpt lat="42.306148" lon="13.6369985"><ele>979.2</ele><time>2026-05-03T08:21:54.447Z</time></trkpt><trkpt lat="42.3061041" lon="13.6371404"><ele>978.0</ele><time>2026-05-03T08:21:55.454Z</time></trkpt><trkpt lat="42.306062" lon="13.637271"><ele>977.1666666666666</ele><time>2026-05-03T08:21:56.448Z</time></trkpt><trkpt lat="42.3060238" lon="13.6373919"><ele>976.3333333333333</ele><time>2026-05-03T08:21:57.455Z</time></trkpt><trkpt lat="42.3059975" lon="13.6375059"><ele>975.5</ele><time>2026-05-03T08:21:58.448Z</time></trkpt><trkpt lat="42.3059734" lon="13.6376211"><ele>974.6666666666666</ele><time>2026-05-03T08:21:59.455Z</time></trkpt><trkpt lat="42.305939" lon="13.6377296"><ele>973.8333333333333</ele><time>2026-05-03T08:22:00.452Z</time></trkpt><trkpt lat="42.3058997" lon="13.6378305"><ele>973.0</ele><time>2026-05-03T08:22:01.453Z</time></trkpt><trkpt lat="42.3058679" lon="13.6379332"><ele>972.3333333333333</ele><time>2026-05-03T08:22:02.443Z</time></trkpt><trkpt lat="42.3058391" lon="13.6380259"><ele>971.6666666666666</ele><time>2026-05-03T08:22:03.448Z</time></trkpt><trkpt lat="42.3058165" lon="13.6381255"><ele>971.0</ele><time>2026-05-03T08:22:04.445Z</time></trkpt><trkpt lat="42.3058091" lon="13.6382468"><ele>970.3333333333333</ele><time>2026-05-03T08:22:05.454Z</time></trkpt><trkpt lat="42.3058035" lon="13.6383647"><ele>969.6666666666666</ele><time>2026-05-03T08:22:06.442Z</time></trkpt><trkpt lat="42.3058074" lon="13.6384685"><ele>969.0</ele><time>2026-05-03T08:22:07.449Z</time></trkpt><trkpt lat="42.3057902" lon="13.6385667"><ele>968.8571428571427</ele><time>2026-05-03T08:22:08.451Z</time></trkpt><trkpt lat="42.305758" lon="13.6386544"><ele>968.7142857142857</ele><time>2026-05-03T08:22:09.453Z</time></trkpt><trkpt lat="42.3057132" lon="13.6387401"><ele>968.5714285714284</ele><time>2026-05-03T08:22:10.449Z</time></trkpt><trkpt lat="42.3056671" lon="13.6388151"><ele>968.4285714285713</ele><time>2026-05-03T08:22:11.443Z</time></trkpt><trkpt lat="42.3056335" lon="13.6388887"><ele>968.2857142857142</ele><time>2026-05-03T08:22:12.447Z</time></trkpt><trkpt lat="42.305612" lon="13.6389741"><ele>968.1428571428571</ele><time>2026-05-03T08:22:13.449Z</time></trkpt><trkpt lat="42.305591" lon="13.6390551"><ele>968.0</ele><time>2026-05-03T08:22:14.452Z</time></trkpt><trkpt lat="42.3055608" lon="13.6391525"><ele>968.0</ele><time>2026-05-03T08:22:15.445Z</time></trkpt><trkpt lat="42.3055198" lon="13.6392451"><ele>967.9999999999999</ele><time>2026-05-03T08:22:16.449Z</time></trkpt><trkpt lat="42.3054739" lon="13.6393337"><ele>968.0</ele><time>2026-05-03T08:22:17.442Z</time></trkpt><trkpt lat="42.3054284" lon="13.6394085"><ele>968.0</ele><time>2026-05-03T08:22:18.449Z</time></trkpt><trkpt lat="42.3053846" lon="13.6394764"><ele>967.9999999999999</ele><time>2026-05-03T08:22:19.444Z</time></trkpt><trkpt lat="42.3053484" lon="13.6395502"><ele>968.0</ele><time>2026-05-03T08:22:20.454Z</time></trkpt><trkpt lat="42.3053138" lon="13.6396419"><ele>968.0</ele><time>2026-05-03T08:22:21.446Z</time></trkpt><trkpt lat="42.305284" lon="13.6397459"><ele>965.6666666666667</ele><time>2026-05-03T08:22:22.45Z</time></trkpt><trkpt lat="42.3052683" lon="13.6398635"><ele>963.3333333333334</ele><time>2026-05-03T08:22:23.444Z</time></trkpt><trkpt lat="42.3052579" lon="13.639978"><ele>961.0</ele><time>2026-05-03T08:22:24.449Z</time></trkpt><trkpt lat="42.3052311" lon="13.6400913"><ele>958.6666666666667</ele><time>2026-05-03T08:22:25.447Z</time></trkpt><trkpt lat="42.3052" lon="13.6401923"><ele>956.3333333333334</ele><time>2026-05-03T08:22:26.446Z</time></trkpt><trkpt lat="42.3051761" lon="13.6402874"><ele>954.0</ele><time>2026-05-03T08:22:27.451Z</time></trkpt><trkpt lat="42.3051509" lon="13.6403816"><ele>952.0</ele><time>2026-05-03T08:22:28.452Z</time></trkpt><trkpt lat="42.3051237" lon="13.6404839"><ele>950.0</ele><time>2026-05-03T08:22:29.447Z</time></trkpt><trkpt lat="42.305087" lon="13.6405827"><ele>948.0</ele><time>2026-05-03T08:22:30.453Z</time></trkpt><trkpt lat="42.3050494" lon="13.6406789"><ele>946.0</ele><time>2026-05-03T08:22:31.442Z</time></trkpt><trkpt lat="42.3049961" lon="13.6407625"><ele>944.0</ele><time>2026-05-03T08:22:32.452Z</time></trkpt><trkpt lat="42.3049522" lon="13.6408373"><ele>942.0</ele><time>2026-05-03T08:22:33.448Z</time></trkpt><trkpt lat="42.3049165" lon="13.6409112"><ele>942.0</ele><time>2026-05-03T08:22:34.445Z</time></trkpt><trkpt lat="42.3048928" lon="13.6410795"><ele>942.0</ele><time>2026-05-03T08:22:36.441Z</time></trkpt><trkpt lat="42.3048827" lon="13.6411815"><ele>942.0</ele><time>2026-05-03T08:22:37.451Z</time></trkpt><trkpt lat="42.3048678" lon="13.6412876"><ele>942.0</ele><time>2026-05-03T08:22:38.447Z</time></trkpt><trkpt lat="42.3048415" lon="13.6413983"><ele>942.0</ele><time>2026-05-03T08:22:39.469Z</time></trkpt><trkpt lat="42.3048086" lon="13.6415057"><ele>940.8333333333334</ele><time>2026-05-03T08:22:40.449Z</time></trkpt><trkpt lat="42.3047732" lon="13.6416081"><ele>939.6666666666667</ele><time>2026-05-03T08:22:41.456Z</time></trkpt><trkpt lat="42.3047478" lon="13.641708"><ele>938.5</ele><time>2026-05-03T08:22:42.444Z</time></trkpt><trkpt lat="42.3047332" lon="13.6418104"><ele>937.3333333333334</ele><time>2026-05-03T08:22:43.456Z</time></trkpt><trkpt lat="42.3047119" lon="13.6418994"><ele>936.1666666666667</ele><time>2026-05-03T08:22:44.45Z</time></trkpt><trkpt lat="42.3046748" lon="13.6420194"><ele>935.0</ele><time>2026-05-03T08:22:46.452Z</time></trkpt><trkpt lat="42.3045986" lon="13.6421126"><ele>932.1666666666667</ele><time>2026-05-03T08:22:48.454Z</time></trkpt><trkpt lat="42.3045435" lon="13.6421687"><ele>929.3333333333334</ele><time>2026-05-03T08:22:49.45Z</time></trkpt><trkpt lat="42.3044857" lon="13.6422397"><ele>926.5</ele><time>2026-05-03T08:22:50.452Z</time></trkpt><trkpt lat="42.3044254" lon="13.6423159"><ele>923.6666666666667</ele><time>2026-05-03T08:22:51.445Z</time></trkpt><trkpt lat="42.304362" lon="13.6424056"><ele>920.8333333333334</ele><time>2026-05-03T08:22:52.452Z</time></trkpt><trkpt lat="42.3042977" lon="13.6425033"><ele>918.0</ele><time>2026-05-03T08:22:53.453Z</time></trkpt><trkpt lat="42.3042388" lon="13.6425955"><ele>918.0</ele><time>2026-05-03T08:22:54.451Z</time></trkpt><trkpt lat="42.304184" lon="13.6426848"><ele>918.0</ele><time>2026-05-03T08:22:55.449Z</time></trkpt><trkpt lat="42.304132" lon="13.6427637"><ele>918.0</ele><time>2026-05-03T08:22:56.449Z</time></trkpt><trkpt lat="42.3040466" lon="13.6428433"><ele>918.0</ele><time>2026-05-03T08:22:58.449Z</time></trkpt><trkpt lat="42.3039747" lon="13.6428375"><ele>918.0</ele><time>2026-05-03T08:23:00.452Z</time></trkpt><trkpt lat="42.3039004" lon="13.6428281"><ele>918.0</ele><time>2026-05-03T08:23:06.451Z</time></trkpt><trkpt lat="42.3038319" lon="13.6428843"><ele>916.1666666666666</ele><time>2026-05-03T08:23:09.453Z</time></trkpt><trkpt lat="42.3037656" lon="13.6429151"><ele>914.3333333333333</ele><time>2026-05-03T08:23:11.449Z</time></trkpt><trkpt lat="42.3036689" lon="13.6429447"><ele>912.5</ele><time>2026-05-03T08:23:13.447Z</time></trkpt><trkpt lat="42.303608" lon="13.6429679"><ele>910.6666666666666</ele><time>2026-05-03T08:23:14.454Z</time></trkpt><trkpt lat="42.3035084" lon="13.6430057"><ele>908.8333333333333</ele><time>2026-05-03T08:23:16.456Z</time></trkpt><trkpt lat="42.3034131" lon="13.643043"><ele>907.0</ele><time>2026-05-03T08:23:18.456Z</time></trkpt><trkpt lat="42.303297" lon="13.6430713"><ele>907.0</ele><time>2026-05-03T08:23:20.459Z</time></trkpt><trkpt lat="42.3031859" lon="13.6431002"><ele>907.0</ele><time>2026-05-03T08:23:22.457Z</time></trkpt><trkpt lat="42.3030973" lon="13.6431242"><ele>907.0</ele><time>2026-05-03T08:23:24.452Z</time></trkpt><trkpt lat="42.303012" lon="13.6431535"><ele>907.0</ele><time>2026-05-03T08:23:26.454Z</time></trkpt><trkpt lat="42.3029235" lon="13.6431646"><ele>907.0</ele><time>2026-05-03T08:23:28.455Z</time></trkpt><trkpt lat="42.3028305" lon="13.6431454"><ele>903.8</ele><time>2026-05-03T08:23:30.457Z</time></trkpt><trkpt lat="42.3027287" lon="13.643149"><ele>900.6</ele><time>2026-05-03T08:23:32.451Z</time></trkpt><trkpt lat="42.3026193" lon="13.6431081"><ele>897.3999999999999</ele><time>2026-05-03T08:23:34.451Z</time></trkpt><trkpt lat="42.30249" lon="13.6430568"><ele>894.1999999999999</ele><time>2026-05-03T08:23:36.45Z</time></trkpt><trkpt lat="42.3024179" lon="13.643033"><ele>891.0</ele><time>2026-05-03T08:23:37.456Z</time></trkpt><trkpt lat="42.3023434" lon="13.6430273"><ele>891.0000000000001</ele><time>2026-05-03T08:23:38.448Z</time></trkpt><trkpt lat="42.3022711" lon="13.6430462"><ele>891.0</ele><time>2026-05-03T08:23:39.455Z</time></trkpt><trkpt lat="42.3021999" lon="13.6430785"><ele>891.0</ele><time>2026-05-03T08:23:40.463Z</time></trkpt><trkpt lat="42.3021322" lon="13.6431155"><ele>891.0</ele><time>2026-05-03T08:23:41.454Z</time></trkpt><trkpt lat="42.3020701" lon="13.6431619"><ele>891.0</ele><time>2026-05-03T08:23:42.451Z</time></trkpt><trkpt lat="42.302003" lon="13.6432099"><ele>891.0000000000001</ele><time>2026-05-03T08:23:43.456Z</time></trkpt><trkpt lat="42.3019317" lon="13.6432445"><ele>891.0</ele><time>2026-05-03T08:23:44.449Z</time></trkpt><trkpt lat="42.3018565" lon="13.6432715"><ele>889.3333333333334</ele><time>2026-05-03T08:23:45.456Z</time></trkpt><trkpt lat="42.3017779" lon="13.6432873"><ele>887.6666666666667</ele><time>2026-05-03T08:23:46.449Z</time></trkpt><trkpt lat="42.3016929" lon="13.6433066"><ele>886.0</ele><time>2026-05-03T08:23:47.46Z</time></trkpt><trkpt lat="42.3016058" lon="13.6433212"><ele>884.3333333333334</ele><time>2026-05-03T08:23:48.453Z</time></trkpt><trkpt lat="42.3015205" lon="13.6433322"><ele>882.6666666666667</ele><time>2026-05-03T08:23:49.457Z</time></trkpt><trkpt lat="42.3014381" lon="13.6433578"><ele>881.0</ele><time>2026-05-03T08:23:50.448Z</time></trkpt><trkpt lat="42.3013506" lon="13.6433837"><ele>879.8333333333334</ele><time>2026-05-03T08:23:51.462Z</time></trkpt><trkpt lat="42.3012705" lon="13.6434244"><ele>878.6666666666667</ele><time>2026-05-03T08:23:52.454Z</time></trkpt><trkpt lat="42.3011861" lon="13.6434665"><ele>877.5</ele><time>2026-05-03T08:23:53.464Z</time></trkpt><trkpt lat="42.3011035" lon="13.6435041"><ele>876.3333333333333</ele><time>2026-05-03T08:23:54.455Z</time></trkpt><trkpt lat="42.3010295" lon="13.6435351"><ele>875.1666666666666</ele><time>2026-05-03T08:23:55.463Z</time></trkpt><trkpt lat="42.3009545" lon="13.6435655"><ele>874.0</ele><time>2026-05-03T08:23:56.454Z</time></trkpt><trkpt lat="42.3008757" lon="13.6435967"><ele>873.9999999999999</ele><time>2026-05-03T08:23:57.462Z</time></trkpt><trkpt lat="42.3007998" lon="13.6436285"><ele>874.0</ele><time>2026-05-03T08:23:58.453Z</time></trkpt><trkpt lat="42.3007255" lon="13.6436559"><ele>874.0</ele><time>2026-05-03T08:23:59.458Z</time></trkpt><trkpt lat="42.3006502" lon="13.6436829"><ele>874.0</ele><time>2026-05-03T08:24:00.459Z</time></trkpt><trkpt lat="42.3005827" lon="13.6437107"><ele>873.9999999999999</ele><time>2026-05-03T08:24:01.457Z</time></trkpt><trkpt lat="42.3004928" lon="13.6437686"><ele>874.0</ele><time>2026-05-03T08:24:03.463Z</time></trkpt><trkpt lat="42.3004002" lon="13.6438217"><ele>872.2</ele><time>2026-05-03T08:24:05.456Z</time></trkpt><trkpt lat="42.3002619" lon="13.6438498"><ele>870.4000000000001</ele><time>2026-05-03T08:24:07.457Z</time></trkpt><trkpt lat="42.3001716" lon="13.643861"><ele>868.6</ele><time>2026-05-03T08:24:08.449Z</time></trkpt><trkpt lat="42.3000894" lon="13.643882"><ele>866.8</ele><time>2026-05-03T08:24:09.455Z</time></trkpt><trkpt lat="42.3000084" lon="13.6439018"><ele>865.0</ele><time>2026-05-03T08:24:10.449Z</time></trkpt><trkpt lat="42.2999243" lon="13.6439038"><ele>865.0</ele><time>2026-05-03T08:24:11.465Z</time></trkpt><trkpt lat="42.2998489" lon="13.6438883"><ele>865.0</ele><time>2026-05-03T08:24:12.448Z</time></trkpt><trkpt lat="42.299741" lon="13.6438563"><ele>865.0</ele><time>2026-05-03T08:24:14.451Z</time></trkpt><trkpt lat="42.2996511" lon="13.6437897"><ele>865.0</ele><time>2026-05-03T08:24:16.442Z</time></trkpt><trkpt lat="42.2995912" lon="13.6437326"><ele>865.0</ele><time>2026-05-03T08:24:17.452Z</time></trkpt><trkpt lat="42.2995048" lon="13.6436501"><ele>862.75</ele><time>2026-05-03T08:24:18.446Z</time></trkpt><trkpt lat="42.2994033" lon="13.6435644"><ele>860.5</ele><time>2026-05-03T08:24:19.448Z</time></trkpt><trkpt lat="42.2992975" lon="13.6434705"><ele>858.25</ele><time>2026-05-03T08:24:20.447Z</time></trkpt><trkpt lat="42.2991971" lon="13.6433874"><ele>856.0</ele><time>2026-05-03T08:24:21.45Z</time></trkpt><trkpt lat="42.2991011" lon="13.6433017"><ele>856.0</ele><time>2026-05-03T08:24:22.449Z</time></trkpt><trkpt lat="42.29901" lon="13.6432114"><ele>856.0</ele><time>2026-05-03T08:24:23.452Z</time></trkpt><trkpt lat="42.2989212" lon="13.6431218"><ele>856.0</ele><time>2026-05-03T08:24:24.455Z</time></trkpt><trkpt lat="42.2988281" lon="13.6430291"><ele>856.0</ele><time>2026-05-03T08:24:25.446Z</time></trkpt><trkpt lat="42.2987239" lon="13.6429257"><ele>854.25</ele><time>2026-05-03T08:24:26.453Z</time></trkpt><trkpt lat="42.2986219" lon="13.6428058"><ele>852.5</ele><time>2026-05-03T08:24:27.452Z</time></trkpt><trkpt lat="42.2985295" lon="13.6426636"><ele>850.75</ele><time>2026-05-03T08:24:28.452Z</time></trkpt><trkpt lat="42.2984613" lon="13.6425046"><ele>849.0</ele><time>2026-05-03T08:24:29.458Z</time></trkpt><trkpt lat="42.2983905" lon="13.6423525"><ele>847.5</ele><time>2026-05-03T08:24:30.455Z</time></trkpt><trkpt lat="42.2983233" lon="13.642211"><ele>846.0</ele><time>2026-05-03T08:24:31.456Z</time></trkpt><trkpt lat="42.2982412" lon="13.6420991"><ele>844.5</ele><time>2026-05-03T08:24:32.46Z</time></trkpt><trkpt lat="42.2981571" lon="13.6419921"><ele>843.0</ele><time>2026-05-03T08:24:33.452Z</time></trkpt><trkpt lat="42.2980922" lon="13.6418918"><ele>841.0</ele><time>2026-05-03T08:24:34.448Z</time></trkpt><trkpt lat="42.2980357" lon="13.6418493"><ele>839.0</ele><time>2026-05-03T08:24:35.443Z</time></trkpt><trkpt lat="42.2979489" lon="13.6418216"><ele>837.0</ele><time>2026-05-03T08:24:37.447Z</time></trkpt><trkpt lat="42.2978353" lon="13.6417433"><ele>835.0</ele><time>2026-05-03T08:24:39.458Z</time></trkpt><trkpt lat="42.2977684" lon="13.6417012"><ele>833.0</ele><time>2026-05-03T08:24:40.455Z</time></trkpt><trkpt lat="42.2976978" lon="13.6416644"><ele>831.0</ele><time>2026-05-03T08:24:41.457Z</time></trkpt><trkpt lat="42.2976258" lon="13.6416341"><ele>831.0</ele><time>2026-05-03T08:24:42.467Z</time></trkpt><trkpt lat="42.2975511" lon="13.6416069"><ele>831.0</ele><time>2026-05-03T08:24:43.454Z</time></trkpt><trkpt lat="42.2974695" lon="13.641584"><ele>831.0</ele><time>2026-05-03T08:24:44.455Z</time></trkpt><trkpt lat="42.2973846" lon="13.641577"><ele>831.0</ele><time>2026-05-03T08:24:45.456Z</time></trkpt><trkpt lat="42.2973063" lon="13.6415833"><ele>831.0</ele><time>2026-05-03T08:24:46.456Z</time></trkpt><trkpt lat="42.2972253" lon="13.6415788"><ele>831.0</ele><time>2026-05-03T08:24:47.462Z</time></trkpt><trkpt lat="42.2971404" lon="13.6415645"><ele>829.5</ele><time>2026-05-03T08:24:48.453Z</time></trkpt><trkpt lat="42.2970542" lon="13.6415446"><ele>828.0</ele><time>2026-05-03T08:24:49.464Z</time></trkpt><trkpt lat="42.2969729" lon="13.6415257"><ele>826.5</ele><time>2026-05-03T08:24:50.456Z</time></trkpt><trkpt lat="42.2968933" lon="13.6415077"><ele>825.0</ele><time>2026-05-03T08:24:51.464Z</time></trkpt><trkpt lat="42.2968208" lon="13.6414889"><ele>823.5</ele><time>2026-05-03T08:24:52.457Z</time></trkpt><trkpt lat="42.2967549" lon="13.6414694"><ele>822.0</ele><time>2026-05-03T08:24:53.461Z</time></trkpt><trkpt lat="42.296693" lon="13.6414518"><ele>822.0</ele><time>2026-05-03T08:24:54.453Z</time></trkpt><trkpt lat="42.2965602" lon="13.6414722"><ele>822.0</ele><time>2026-05-03T08:24:56.45Z</time></trkpt><trkpt lat="42.2964848" lon="13.6414977"><ele>822.0</ele><time>2026-05-03T08:24:57.461Z</time></trkpt><trkpt lat="42.2964043" lon="13.6415103"><ele>822.0</ele><time>2026-05-03T08:24:58.451Z</time></trkpt><trkpt lat="42.2963118" lon="13.641507"><ele>822.0</ele><time>2026-05-03T08:24:59.459Z</time></trkpt><trkpt lat="42.2962205" lon="13.6414986"><ele>820.5</ele><time>2026-05-03T08:25:00.458Z</time></trkpt><trkpt lat="42.2961343" lon="13.6414838"><ele>819.0</ele><time>2026-05-03T08:25:01.458Z</time></trkpt><trkpt lat="42.2960539" lon="13.64146"><ele>817.5</ele><time>2026-05-03T08:25:02.454Z</time></trkpt><trkpt lat="42.295974" lon="13.6414182"><ele>816.0</ele><time>2026-05-03T08:25:03.455Z</time></trkpt><trkpt lat="42.2959008" lon="13.6413783"><ele>814.5</ele><time>2026-05-03T08:25:04.461Z</time></trkpt><trkpt lat="42.2958265" lon="13.6413275"><ele>813.0</ele><time>2026-05-03T08:25:05.457Z</time></trkpt><trkpt lat="42.2957416" lon="13.6412903"><ele>813.0</ele><time>2026-05-03T08:25:06.463Z</time></trkpt><trkpt lat="42.2956539" lon="13.6412634"><ele>813.0</ele><time>2026-05-03T08:25:07.454Z</time></trkpt><trkpt lat="42.2955714" lon="13.641256"><ele>813.0</ele><time>2026-05-03T08:25:08.462Z</time></trkpt><trkpt lat="42.2954868" lon="13.6412587"><ele>813.0</ele><time>2026-05-03T08:25:09.456Z</time></trkpt><trkpt lat="42.2953991" lon="13.6412546"><ele>813.0</ele><time>2026-05-03T08:25:10.463Z</time></trkpt><trkpt lat="42.2953113" lon="13.6412361"><ele>813.0</ele><time>2026-05-03T08:25:11.456Z</time></trkpt><trkpt lat="42.2952265" lon="13.6412231"><ele>811.5</ele><time>2026-05-03T08:25:12.459Z</time></trkpt><trkpt lat="42.295142" lon="13.6412195"><ele>810.0</ele><time>2026-05-03T08:25:13.471Z</time></trkpt><trkpt lat="42.295059" lon="13.641217"><ele>808.5</ele><time>2026-05-03T08:25:14.459Z</time></trkpt><trkpt lat="42.294977" lon="13.6412155"><ele>807.0</ele><time>2026-05-03T08:25:15.461Z</time></trkpt><trkpt lat="42.2948997" lon="13.6412134"><ele>805.5</ele><time>2026-05-03T08:25:16.453Z</time></trkpt><trkpt lat="42.2948294" lon="13.6412139"><ele>804.0</ele><time>2026-05-03T08:25:17.462Z</time></trkpt><trkpt lat="42.2947658" lon="13.6412068"><ele>802.8000000000001</ele><time>2026-05-03T08:25:18.455Z</time></trkpt><trkpt lat="42.2946491" lon="13.6411661"><ele>801.6</ele><time>2026-05-03T08:25:20.455Z</time></trkpt><trkpt lat="42.2945362" lon="13.6411117"><ele>800.4</ele><time>2026-05-03T08:25:22.459Z</time></trkpt><trkpt lat="42.2944499" lon="13.6410594"><ele>799.2</ele><time>2026-05-03T08:25:24.456Z</time></trkpt><trkpt lat="42.2943843" lon="13.6410282"><ele>798.0</ele><time>2026-05-03T08:25:27.462Z</time></trkpt><trkpt lat="42.2943139" lon="13.6410543"><ele>798.0</ele><time>2026-05-03T08:25:29.458Z</time></trkpt><trkpt lat="42.2942616" lon="13.6411074"><ele>798.0</ele><time>2026-05-03T08:25:30.455Z</time></trkpt><trkpt lat="42.2941823" lon="13.6412037"><ele>798.0</ele><time>2026-05-03T08:25:31.461Z</time></trkpt><trkpt lat="42.2940926" lon="13.6413085"><ele>798.0</ele><time>2026-05-03T08:25:32.451Z</time></trkpt><trkpt lat="42.2939914" lon="13.6414297"><ele>798.0</ele><time>2026-05-03T08:25:33.454Z</time></trkpt><trkpt lat="42.2938785" lon="13.6415596"><ele>798.0</ele><time>2026-05-03T08:25:34.453Z</time></trkpt><trkpt lat="42.2937749" lon="13.6416955"><ele>798.0</ele><time>2026-05-03T08:25:35.452Z</time></trkpt><trkpt lat="42.2936839" lon="13.6418627"><ele>798.0</ele><time>2026-05-03T08:25:36.451Z</time></trkpt><trkpt lat="42.2935941" lon="13.6420733"><ele>798.0</ele><time>2026-05-03T08:25:37.452Z</time></trkpt><trkpt lat="42.2935218" lon="13.6422242"><ele>798.0</ele><time>2026-05-03T08:25:38.46Z</time></trkpt><trkpt lat="42.2934279" lon="13.6423082"><ele>798.0</ele><time>2026-05-03T08:25:39.448Z</time></trkpt><trkpt lat="42.2933207" lon="13.6423862"><ele>798.0</ele><time>2026-05-03T08:25:40.451Z</time></trkpt><trkpt lat="42.29319" lon="13.6424437"><ele>797.6666666666667</ele><time>2026-05-03T08:25:41.452Z</time></trkpt><trkpt lat="42.2930448" lon="13.6425164"><ele>797.3333333333334</ele><time>2026-05-03T08:25:42.448Z</time></trkpt><trkpt lat="42.292891" lon="13.6426095"><ele>797.0</ele><time>2026-05-03T08:25:43.463Z</time></trkpt><trkpt lat="42.2927318" lon="13.642708"><ele>797.0</ele><time>2026-05-03T08:25:44.468Z</time></trkpt><trkpt lat="42.2925709" lon="13.6428012"><ele>797.0</ele><time>2026-05-03T08:25:45.464Z</time></trkpt><trkpt lat="42.292409" lon="13.642891"><ele>797.0</ele><time>2026-05-03T08:25:46.455Z</time></trkpt><trkpt lat="42.2922516" lon="13.6429635"><ele>796.3333333333334</ele><time>2026-05-03T08:25:47.462Z</time></trkpt><trkpt lat="42.292086" lon="13.6430242"><ele>795.6666666666667</ele><time>2026-05-03T08:25:48.456Z</time></trkpt><trkpt lat="42.2919414" lon="13.6430937"><ele>795.0</ele><time>2026-05-03T08:25:49.46Z</time></trkpt><trkpt lat="42.2918105" lon="13.6431423"><ele>795.0</ele><time>2026-05-03T08:25:50.455Z</time></trkpt><trkpt lat="42.2916787" lon="13.6431676"><ele>795.0</ele><time>2026-05-03T08:25:51.452Z</time></trkpt><trkpt lat="42.2915281" lon="13.6431956"><ele>795.0</ele><time>2026-05-03T08:25:52.448Z</time></trkpt><trkpt lat="42.2914114" lon="13.6431803"><ele>795.0</ele><time>2026-05-03T08:25:53.457Z</time></trkpt><trkpt lat="42.2913019" lon="13.6431229"><ele>794.0</ele><time>2026-05-03T08:25:54.454Z</time></trkpt><trkpt lat="42.2911814" lon="13.6430911"><ele>793.0</ele><time>2026-05-03T08:25:55.446Z</time></trkpt><trkpt lat="42.2910376" lon="13.6430585"><ele>792.0</ele><time>2026-05-03T08:25:56.45Z</time></trkpt><trkpt lat="42.2908773" lon="13.6430607"><ele>791.0</ele><time>2026-05-03T08:25:57.45Z</time></trkpt><trkpt lat="42.2907161" lon="13.6430986"><ele>789.3333333333334</ele><time>2026-05-03T08:25:58.454Z</time></trkpt><trkpt lat="42.290549" lon="13.6431204"><ele>787.6666666666667</ele><time>2026-05-03T08:25:59.45Z</time></trkpt><trkpt lat="42.2903782" lon="13.6431278"><ele>786.0</ele><time>2026-05-03T08:26:00.451Z</time></trkpt><trkpt lat="42.2902344" lon="13.6431454"><ele>786.0</ele><time>2026-05-03T08:26:01.455Z</time></trkpt><trkpt lat="42.2901008" lon="13.6431598"><ele>786.0</ele><time>2026-05-03T08:26:02.447Z</time></trkpt><trkpt lat="42.2899726" lon="13.6431876"><ele>786.0</ele><time>2026-05-03T08:26:03.452Z</time></trkpt><trkpt lat="42.2898506" lon="13.6432224"><ele>786.0</ele><time>2026-05-03T08:26:04.453Z</time></trkpt><trkpt lat="42.2897517" lon="13.6432618"><ele>784.5999999999999</ele><time>2026-05-03T08:26:05.461Z</time></trkpt><trkpt lat="42.2896843" lon="13.6433405"><ele>783.2</ele><time>2026-05-03T08:26:06.446Z</time></trkpt><trkpt lat="42.2896425" lon="13.6434417"><ele>781.8</ele><time>2026-05-03T08:26:07.459Z</time></trkpt><trkpt lat="42.2896394" lon="13.6435721"><ele>780.4000000000001</ele><time>2026-05-03T08:26:08.446Z</time></trkpt><trkpt lat="42.2896522" lon="13.643721"><ele>779.0</ele><time>2026-05-03T08:26:09.45Z</time></trkpt><trkpt lat="42.289695" lon="13.6438853"><ele>779.0</ele><time>2026-05-03T08:26:10.444Z</time></trkpt><trkpt lat="42.2897409" lon="13.6440653"><ele>779.0</ele><time>2026-05-03T08:26:11.444Z</time></trkpt><trkpt lat="42.2897566" lon="13.6442904"><ele>779.0</ele><time>2026-05-03T08:26:12.447Z</time></trkpt><trkpt lat="42.28976" lon="13.6444897"><ele>783.0</ele><time>2026-05-03T08:26:13.454Z</time></trkpt><trkpt lat="42.2897762" lon="13.6446617"><ele>787.0</ele><time>2026-05-03T08:26:14.452Z</time></trkpt><trkpt lat="42.2898157" lon="13.6448231"><ele>791.0</ele><time>2026-05-03T08:26:15.474Z</time></trkpt><trkpt lat="42.2898764" lon="13.6449928"><ele>795.0</ele><time>2026-05-03T08:26:16.448Z</time></trkpt><trkpt lat="42.2899249" lon="13.645173"><ele>795.25</ele><time>2026-05-03T08:26:17.456Z</time></trkpt><trkpt lat="42.2899786" lon="13.6453527"><ele>795.5</ele><time>2026-05-03T08:26:18.447Z</time></trkpt><trkpt lat="42.2900231" lon="13.6455249"><ele>795.75</ele><time>2026-05-03T08:26:19.452Z</time></trkpt><trkpt lat="42.2900459" lon="13.6457049"><ele>796.0</ele><time>2026-05-03T08:26:20.444Z</time></trkpt><trkpt lat="42.2900617" lon="13.645859"><ele>796.0</ele><time>2026-05-03T08:26:21.454Z</time></trkpt><trkpt lat="42.2900433" lon="13.646051"><ele>796.0</ele><time>2026-05-03T08:26:22.441Z</time></trkpt><trkpt lat="42.2900102" lon="13.6462265"><ele>796.0</ele><time>2026-05-03T08:26:23.458Z</time></trkpt><trkpt lat="42.2899456" lon="13.6463824"><ele>796.0</ele><time>2026-05-03T08:26:24.45Z</time></trkpt><trkpt lat="42.2898485" lon="13.6465176"><ele>794.3333333333333</ele><time>2026-05-03T08:26:25.452Z</time></trkpt><trkpt lat="42.2897608" lon="13.6466845"><ele>792.6666666666667</ele><time>2026-05-03T08:26:26.452Z</time></trkpt><trkpt lat="42.2896802" lon="13.6468537"><ele>791.0</ele><time>2026-05-03T08:26:27.454Z</time></trkpt><trkpt lat="42.2896243" lon="13.6470506"><ele>791.0</ele><time>2026-05-03T08:26:28.466Z</time></trkpt><trkpt lat="42.2895507" lon="13.6472348"><ele>791.0</ele><time>2026-05-03T08:26:29.451Z</time></trkpt><trkpt lat="42.28951" lon="13.6474204"><ele>791.0</ele><time>2026-05-03T08:26:30.457Z</time></trkpt><trkpt lat="42.2894907" lon="13.6475967"><ele>791.0</ele><time>2026-05-03T08:26:31.45Z</time></trkpt><trkpt lat="42.2894461" lon="13.6477342"><ele>792.6666666666667</ele><time>2026-05-03T08:26:32.454Z</time></trkpt><trkpt lat="42.2893526" lon="13.6478867"><ele>794.3333333333333</ele><time>2026-05-03T08:26:33.452Z</time></trkpt><trkpt lat="42.2892454" lon="13.6480361"><ele>796.0</ele><time>2026-05-03T08:26:34.459Z</time></trkpt><trkpt lat="42.2891465" lon="13.6481903"><ele>796.0</ele><time>2026-05-03T08:26:35.453Z</time></trkpt><trkpt lat="42.2890303" lon="13.6483455"><ele>796.0</ele><time>2026-05-03T08:26:36.462Z</time></trkpt><trkpt lat="42.2889074" lon="13.6485124"><ele>796.0</ele><time>2026-05-03T08:26:37.455Z</time></trkpt><trkpt lat="42.2887819" lon="13.6486643"><ele>793.3333333333333</ele><time>2026-05-03T08:26:38.458Z</time></trkpt><trkpt lat="42.2886453" lon="13.6488233"><ele>790.6666666666667</ele><time>2026-05-03T08:26:39.457Z</time></trkpt><trkpt lat="42.2885055" lon="13.6489614"><ele>788.0</ele><time>2026-05-03T08:26:40.462Z</time></trkpt><trkpt lat="42.2883858" lon="13.6490743"><ele>788.0</ele><time>2026-05-03T08:26:41.45Z</time></trkpt><trkpt lat="42.2882648" lon="13.6491808"><ele>788.0</ele><time>2026-05-03T08:26:42.46Z</time></trkpt><trkpt lat="42.2881506" lon="13.6492762"><ele>788.0</ele><time>2026-05-03T08:26:43.453Z</time></trkpt><trkpt lat="42.2880258" lon="13.6493859"><ele>788.0</ele><time>2026-05-03T08:26:44.453Z</time></trkpt><trkpt lat="42.2879182" lon="13.6495235"><ele>785.3333333333334</ele><time>2026-05-03T08:26:45.453Z</time></trkpt><trkpt lat="42.2878214" lon="13.6496908"><ele>782.6666666666667</ele><time>2026-05-03T08:26:46.468Z</time></trkpt><trkpt lat="42.287734" lon="13.6498645"><ele>780.0</ele><time>2026-05-03T08:26:47.455Z</time></trkpt><trkpt lat="42.287671" lon="13.650035"><ele>780.0</ele><time>2026-05-03T08:26:48.462Z</time></trkpt><trkpt lat="42.2876223" lon="13.6502052"><ele>780.0</ele><time>2026-05-03T08:26:49.457Z</time></trkpt><trkpt lat="42.2875782" lon="13.6503855"><ele>780.0</ele><time>2026-05-03T08:26:50.463Z</time></trkpt><trkpt lat="42.2875358" lon="13.6505493"><ele>780.0</ele><time>2026-05-03T08:26:51.454Z</time></trkpt><trkpt lat="42.2874854" lon="13.6507117"><ele>781.6666666666667</ele><time>2026-05-03T08:26:52.46Z</time></trkpt><trkpt lat="42.2874609" lon="13.6509088"><ele>783.3333333333334</ele><time>2026-05-03T08:26:53.458Z</time></trkpt><trkpt lat="42.2874395" lon="13.6511099"><ele>785.0</ele><time>2026-05-03T08:26:54.463Z</time></trkpt><trkpt lat="42.2874337" lon="13.6513217"><ele>785.75</ele><time>2026-05-03T08:26:55.461Z</time></trkpt><trkpt lat="42.2874337" lon="13.651516"><ele>786.5</ele><time>2026-05-03T08:26:56.456Z</time></trkpt><trkpt lat="42.2874672" lon="13.65172"><ele>787.25</ele><time>2026-05-03T08:26:57.465Z</time></trkpt><trkpt lat="42.2875015" lon="13.6518908"><ele>788.0</ele><time>2026-05-03T08:26:58.445Z</time></trkpt><trkpt lat="42.2875052" lon="13.6520519"><ele>789.25</ele><time>2026-05-03T08:26:59.458Z</time></trkpt><trkpt lat="42.2874814" lon="13.6522155"><ele>790.5</ele><time>2026-05-03T08:27:00.461Z</time></trkpt><trkpt lat="42.2874135" lon="13.652349"><ele>791.75</ele><time>2026-05-03T08:27:01.455Z</time></trkpt><trkpt lat="42.287321" lon="13.6524783"><ele>793.0</ele><time>2026-05-03T08:27:02.458Z</time></trkpt><trkpt lat="42.2872226" lon="13.6525966"><ele>789.75</ele><time>2026-05-03T08:27:03.459Z</time></trkpt><trkpt lat="42.2871461" lon="13.6527459"><ele>786.5</ele><time>2026-05-03T08:27:04.448Z</time></trkpt><trkpt lat="42.287084" lon="13.6529073"><ele>783.25</ele><time>2026-05-03T08:27:05.464Z</time></trkpt><trkpt lat="42.2870424" lon="13.6530885"><ele>780.0</ele><time>2026-05-03T08:27:06.456Z</time></trkpt><trkpt lat="42.287026" lon="13.6533049"><ele>780.0</ele><time>2026-05-03T08:27:07.465Z</time></trkpt><trkpt lat="42.2869931" lon="13.6535271"><ele>780.0</ele><time>2026-05-03T08:27:08.462Z</time></trkpt><trkpt lat="42.2869586" lon="13.6537286"><ele>780.0</ele><time>2026-05-03T08:27:09.466Z</time></trkpt><trkpt lat="42.2869159" lon="13.6538864"><ele>780.0</ele><time>2026-05-03T08:27:10.459Z</time></trkpt><trkpt lat="42.2868777" lon="13.6540113"><ele>781.1666666666666</ele><time>2026-05-03T08:27:11.455Z</time></trkpt><trkpt lat="42.2868285" lon="13.6541108"><ele>782.3333333333333</ele><time>2026-05-03T08:27:12.456Z</time></trkpt><trkpt lat="42.2867863" lon="13.6541934"><ele>783.5</ele><time>2026-05-03T08:27:13.455Z</time></trkpt><trkpt lat="42.2867415" lon="13.6542543"><ele>784.6666666666666</ele><time>2026-05-03T08:27:14.46Z</time></trkpt><trkpt lat="42.2867041" lon="13.6543276"><ele>785.8333333333333</ele><time>2026-05-03T08:27:15.453Z</time></trkpt><trkpt lat="42.2866227" lon="13.6544397"><ele>787.0</ele><time>2026-05-03T08:27:17.474Z</time></trkpt><trkpt lat="42.2865729" lon="13.6545052"><ele>788.0</ele><time>2026-05-03T08:27:18.465Z</time></trkpt><trkpt lat="42.2865131" lon="13.6545754"><ele>789.0</ele><time>2026-05-03T08:27:19.462Z</time></trkpt><trkpt lat="42.2864524" lon="13.6546646"><ele>790.0</ele><time>2026-05-03T08:27:20.453Z</time></trkpt><trkpt lat="42.2863866" lon="13.6547657"><ele>791.0</ele><time>2026-05-03T08:27:21.466Z</time></trkpt><trkpt lat="42.286319" lon="13.6548707"><ele>792.0</ele><time>2026-05-03T08:27:22.455Z</time></trkpt><trkpt lat="42.2862497" lon="13.6549716"><ele>790.7142857142858</ele><time>2026-05-03T08:27:23.453Z</time></trkpt><trkpt lat="42.2861862" lon="13.6550528"><ele>789.4285714285713</ele><time>2026-05-03T08:27:24.45Z</time></trkpt><trkpt lat="42.2861407" lon="13.6551129"><ele>788.1428571428571</ele><time>2026-05-03T08:27:25.453Z</time></trkpt><trkpt lat="42.2861131" lon="13.6552032"><ele>786.8571428571429</ele><time>2026-05-03T08:27:28.464Z</time></trkpt><trkpt lat="42.2861567" lon="13.6552819"><ele>785.5714285714287</ele><time>2026-05-03T08:27:30.464Z</time></trkpt><trkpt lat="42.2862127" lon="13.655343"><ele>784.2857142857142</ele><time>2026-05-03T08:27:31.455Z</time></trkpt><trkpt lat="42.2862739" lon="13.6553969"><ele>783.0</ele><time>2026-05-03T08:27:32.46Z</time></trkpt><trkpt lat="42.2863483" lon="13.6554697"><ele>783.0</ele><time>2026-05-03T08:27:34.451Z</time></trkpt><trkpt lat="42.2863889" lon="13.655603"><ele>783.0</ele><time>2026-05-03T08:27:53.461Z</time></trkpt><trkpt lat="42.2863857" lon="13.6556982"><ele>783.0</ele><time>2026-05-03T08:27:54.457Z</time></trkpt><trkpt lat="42.2863754" lon="13.6558095"><ele>783.0</ele><time>2026-05-03T08:27:55.465Z</time></trkpt><trkpt lat="42.2863531" lon="13.6559288"><ele>783.0</ele><time>2026-05-03T08:27:56.457Z</time></trkpt><trkpt lat="42.2863373" lon="13.6560381"><ele>783.0</ele><time>2026-05-03T08:27:57.462Z</time></trkpt><trkpt lat="42.2863291" lon="13.6561479"><ele>783.5714285714286</ele><time>2026-05-03T08:27:58.455Z</time></trkpt><trkpt lat="42.2863185" lon="13.6562399"><ele>784.1428571428572</ele><time>2026-05-03T08:27:59.452Z</time></trkpt><trkpt lat="42.2863144" lon="13.6563328"><ele>784.7142857142858</ele><time>2026-05-03T08:28:00.453Z</time></trkpt><trkpt lat="42.286316" lon="13.6564258"><ele>785.2857142857142</ele><time>2026-05-03T08:28:01.45Z</time></trkpt><trkpt lat="42.2863393" lon="13.6565135"><ele>785.8571428571429</ele><time>2026-05-03T08:28:02.447Z</time></trkpt><trkpt lat="42.2864188" lon="13.6566049"><ele>786.4285714285714</ele><time>2026-05-03T08:28:04.446Z</time></trkpt><trkpt lat="42.286482" lon="13.6566347"><ele>787.0</ele><time>2026-05-03T08:28:06.452Z</time></trkpt><trkpt lat="42.2865774" lon="13.6566464"><ele>789.9999999999999</ele><time>2026-05-03T08:28:08.451Z</time></trkpt><trkpt lat="42.2866679" lon="13.656707"><ele>793.0</ele><time>2026-05-03T08:28:10.451Z</time></trkpt><trkpt lat="42.2867223" lon="13.6567852"><ele>796.0</ele><time>2026-05-03T08:28:12.449Z</time></trkpt><trkpt lat="42.2866762" lon="13.6568902"><ele>799.0</ele><time>2026-05-03T08:28:14.447Z</time></trkpt><trkpt lat="42.2866396" lon="13.6569657"><ele>801.9999999999999</ele><time>2026-05-03T08:28:15.449Z</time></trkpt><trkpt lat="42.2865976" lon="13.6570518"><ele>805.0</ele><time>2026-05-03T08:28:16.438Z</time></trkpt><trkpt lat="42.2865523" lon="13.6571436"><ele>803.2</ele><time>2026-05-03T08:28:17.449Z</time></trkpt><trkpt lat="42.2864939" lon="13.6572212"><ele>801.4</ele><time>2026-05-03T08:28:18.459Z</time></trkpt><trkpt lat="42.2864367" lon="13.6572949"><ele>799.5999999999999</ele><time>2026-05-03T08:28:19.444Z</time></trkpt><trkpt lat="42.2863781" lon="13.6573671"><ele>797.8</ele><time>2026-05-03T08:28:20.446Z</time></trkpt><trkpt lat="42.2863064" lon="13.6574769"><ele>796.0</ele><time>2026-05-03T08:28:22.452Z</time></trkpt><trkpt lat="42.2862229" lon="13.6575761"><ele>796.0</ele><time>2026-05-03T08:28:24.454Z</time></trkpt><trkpt lat="42.2861383" lon="13.6576995"><ele>796.0</ele><time>2026-05-03T08:28:26.454Z</time></trkpt><trkpt lat="42.2860458" lon="13.6577917"><ele>796.0</ele><time>2026-05-03T08:28:28.447Z</time></trkpt><trkpt lat="42.2859779" lon="13.6578801"><ele>796.0</ele><time>2026-05-03T08:28:30.45Z</time></trkpt><trkpt lat="42.2859284" lon="13.6579439"><ele>796.0</ele><time>2026-05-03T08:28:32.447Z</time></trkpt><trkpt lat="42.2858842" lon="13.6580238"><ele>794.8333333333333</ele><time>2026-05-03T08:28:35.456Z</time></trkpt><trkpt lat="42.2858561" lon="13.6581013"><ele>793.6666666666666</ele><time>2026-05-03T08:28:38.448Z</time></trkpt><trkpt lat="42.2858086" lon="13.6582016"><ele>792.5</ele><time>2026-05-03T08:28:40.452Z</time></trkpt><trkpt lat="42.2857406" lon="13.6583291"><ele>791.3333333333333</ele><time>2026-05-03T08:28:42.456Z</time></trkpt><trkpt lat="42.2856986" lon="13.6583956"><ele>790.1666666666666</ele><time>2026-05-03T08:28:43.452Z</time></trkpt><trkpt lat="42.2856433" lon="13.658449"><ele>789.0</ele><time>2026-05-03T08:28:44.457Z</time></trkpt><trkpt lat="42.2855638" lon="13.6585641"><ele>790.8000000000001</ele><time>2026-05-03T08:28:46.454Z</time></trkpt><trkpt lat="42.2854754" lon="13.6586922"><ele>792.6</ele><time>2026-05-03T08:28:48.442Z</time></trkpt><trkpt lat="42.2854329" lon="13.6587693"><ele>794.4</ele><time>2026-05-03T08:28:49.464Z</time></trkpt><trkpt lat="42.2853639" lon="13.6588881"><ele>796.2</ele><time>2026-05-03T08:28:51.457Z</time></trkpt><trkpt lat="42.2853015" lon="13.6590192"><ele>798.0</ele><time>2026-05-03T08:28:53.457Z</time></trkpt><trkpt lat="42.2852605" lon="13.6590896"><ele>798.0</ele><time>2026-05-03T08:28:54.445Z</time></trkpt><trkpt lat="42.2852074" lon="13.6591518"><ele>798.0</ele><time>2026-05-03T08:28:55.451Z</time></trkpt><trkpt lat="42.2851615" lon="13.6592169"><ele>798.0</ele><time>2026-05-03T08:28:56.446Z</time></trkpt><trkpt lat="42.2851226" lon="13.6592952"><ele>798.0</ele><time>2026-05-03T08:28:57.448Z</time></trkpt><trkpt lat="42.2850771" lon="13.6593631"><ele>798.0</ele><time>2026-05-03T08:28:58.447Z</time></trkpt><trkpt lat="42.2850278" lon="13.6594243"><ele>798.0</ele><time>2026-05-03T08:28:59.445Z</time></trkpt><trkpt lat="42.2849838" lon="13.6594853"><ele>798.0</ele><time>2026-05-03T08:29:00.451Z</time></trkpt><trkpt lat="42.2849165" lon="13.6596203"><ele>797.4</ele><time>2026-05-03T08:29:02.463Z</time></trkpt><trkpt lat="42.2848568" lon="13.6597833"><ele>796.8</ele><time>2026-05-03T08:29:04.463Z</time></trkpt><trkpt lat="42.2848239" lon="13.6598999"><ele>796.2</ele><time>2026-05-03T08:29:05.446Z</time></trkpt><trkpt lat="42.2847869" lon="13.6600051"><ele>795.6</ele><time>2026-05-03T08:29:06.464Z</time></trkpt><trkpt lat="42.2847449" lon="13.6600886"><ele>795.0</ele><time>2026-05-03T08:29:07.448Z</time></trkpt><trkpt lat="42.2846835" lon="13.6601686"><ele>795.0</ele><time>2026-05-03T08:29:08.462Z</time></trkpt><trkpt lat="42.2846002" lon="13.6602575"><ele>795.0</ele><time>2026-05-03T08:29:09.452Z</time></trkpt><trkpt lat="42.2845058" lon="13.6603581"><ele>795.0</ele><time>2026-05-03T08:29:10.459Z</time></trkpt><trkpt lat="42.2844069" lon="13.6604459"><ele>795.0</ele><time>2026-05-03T08:29:11.453Z</time></trkpt><trkpt lat="42.2843144" lon="13.6605249"><ele>800.25</ele><time>2026-05-03T08:29:12.454Z</time></trkpt><trkpt lat="42.2842169" lon="13.6606089"><ele>805.5</ele><time>2026-05-03T08:29:13.459Z</time></trkpt><trkpt lat="42.2841192" lon="13.6607005"><ele>810.75</ele><time>2026-05-03T08:29:14.458Z</time></trkpt><trkpt lat="42.284029" lon="13.6608208"><ele>816.0</ele><time>2026-05-03T08:29:15.462Z</time></trkpt><trkpt lat="42.2839499" lon="13.660968"><ele>814.75</ele><time>2026-05-03T08:29:16.46Z</time></trkpt><trkpt lat="42.2838792" lon="13.6611351"><ele>813.5</ele><time>2026-05-03T08:29:17.461Z</time></trkpt><trkpt lat="42.2838083" lon="13.6613244"><ele>812.25</ele><time>2026-05-03T08:29:18.46Z</time></trkpt><trkpt lat="42.2837353" lon="13.6614751"><ele>811.0</ele><time>2026-05-03T08:29:19.455Z</time></trkpt><trkpt lat="42.2836851" lon="13.661629"><ele>811.0</ele><time>2026-05-03T08:29:20.471Z</time></trkpt><trkpt lat="42.283646" lon="13.6617719"><ele>811.0</ele><time>2026-05-03T08:29:21.455Z</time></trkpt><trkpt lat="42.2836003" lon="13.6619185"><ele>811.0</ele><time>2026-05-03T08:29:22.458Z</time></trkpt><trkpt lat="42.2835405" lon="13.6620721"><ele>811.0</ele><time>2026-05-03T08:29:23.456Z</time></trkpt><trkpt lat="42.2834925" lon="13.6622482"><ele>815.75</ele><time>2026-05-03T08:29:24.449Z</time></trkpt><trkpt lat="42.2834384" lon="13.6624161"><ele>820.5</ele><time>2026-05-03T08:29:25.454Z</time></trkpt><trkpt lat="42.2833794" lon="13.6625865"><ele>825.25</ele><time>2026-05-03T08:29:26.462Z</time></trkpt><trkpt lat="42.2833061" lon="13.6627517"><ele>830.0</ele><time>2026-05-03T08:29:27.462Z</time></trkpt><trkpt lat="42.2832422" lon="13.6628983"><ele>826.25</ele><time>2026-05-03T08:29:28.46Z</time></trkpt><trkpt lat="42.2831822" lon="13.6630522"><ele>822.5</ele><time>2026-05-03T08:29:29.454Z</time></trkpt><trkpt lat="42.2831202" lon="13.6631878"><ele>818.75</ele><time>2026-05-03T08:29:30.465Z</time></trkpt><trkpt lat="42.2830664" lon="13.6633425"><ele>815.0</ele><time>2026-05-03T08:29:31.454Z</time></trkpt><trkpt lat="42.283005" lon="13.6634977"><ele>818.25</ele><time>2026-05-03T08:29:32.464Z</time></trkpt><trkpt lat="42.2829439" lon="13.6636383"><ele>821.5</ele><time>2026-05-03T08:29:33.455Z</time></trkpt><trkpt lat="42.2828843" lon="13.6637916"><ele>824.75</ele><time>2026-05-03T08:29:34.462Z</time></trkpt><trkpt lat="42.282817" lon="13.6639346"><ele>828.0</ele><time>2026-05-03T08:29:35.457Z</time></trkpt><trkpt lat="42.282748" lon="13.6640839"><ele>828.0</ele><time>2026-05-03T08:29:36.461Z</time></trkpt><trkpt lat="42.2826774" lon="13.664245"><ele>828.0</ele><time>2026-05-03T08:29:37.453Z</time></trkpt><trkpt lat="42.2826029" lon="13.6644103"><ele>828.0</ele><time>2026-05-03T08:29:38.463Z</time></trkpt><trkpt lat="42.2825288" lon="13.6645775"><ele>828.0</ele><time>2026-05-03T08:29:39.451Z</time></trkpt><trkpt lat="42.2824652" lon="13.6647459"><ele>827.75</ele><time>2026-05-03T08:29:40.463Z</time></trkpt><trkpt lat="42.2823974" lon="13.6649036"><ele>827.5</ele><time>2026-05-03T08:29:41.45Z</time></trkpt><trkpt lat="42.2823258" lon="13.665057"><ele>827.25</ele><time>2026-05-03T08:29:42.463Z</time></trkpt><trkpt lat="42.282264" lon="13.6652027"><ele>827.0</ele><time>2026-05-03T08:29:43.444Z</time></trkpt><trkpt lat="42.2821866" lon="13.6653673"><ele>827.0</ele><time>2026-05-03T08:29:44.453Z</time></trkpt><trkpt lat="42.2821145" lon="13.6655314"><ele>827.0</ele><time>2026-05-03T08:29:45.442Z</time></trkpt><trkpt lat="42.2820459" lon="13.6657071"><ele>827.0</ele><time>2026-05-03T08:29:46.444Z</time></trkpt><trkpt lat="42.2819842" lon="13.6658803"><ele>827.0</ele><time>2026-05-03T08:29:47.444Z</time></trkpt><trkpt lat="42.281912" lon="13.6660476"><ele>830.75</ele><time>2026-05-03T08:29:48.446Z</time></trkpt><trkpt lat="42.28184" lon="13.6662048"><ele>834.5</ele><time>2026-05-03T08:29:49.445Z</time></trkpt><trkpt lat="42.2817655" lon="13.666355"><ele>838.25</ele><time>2026-05-03T08:29:50.444Z</time></trkpt><trkpt lat="42.2816932" lon="13.6665133"><ele>842.0</ele><time>2026-05-03T08:29:51.449Z</time></trkpt><trkpt lat="42.2816262" lon="13.6666724"><ele>842.0</ele><time>2026-05-03T08:29:52.442Z</time></trkpt><trkpt lat="42.2815549" lon="13.6668415"><ele>842.0</ele><time>2026-05-03T08:29:53.448Z</time></trkpt><trkpt lat="42.2814731" lon="13.6669966"><ele>842.0</ele><time>2026-05-03T08:29:54.443Z</time></trkpt><trkpt lat="42.2813948" lon="13.6671755"><ele>842.0</ele><time>2026-05-03T08:29:55.445Z</time></trkpt><trkpt lat="42.2813255" lon="13.6673414"><ele>842.25</ele><time>2026-05-03T08:29:56.446Z</time></trkpt><trkpt lat="42.281253" lon="13.6675085"><ele>842.5</ele><time>2026-05-03T08:29:57.446Z</time></trkpt><trkpt lat="42.2811747" lon="13.6676735"><ele>842.75</ele><time>2026-05-03T08:29:58.445Z</time></trkpt><trkpt lat="42.2810913" lon="13.6678423"><ele>843.0</ele><time>2026-05-03T08:29:59.448Z</time></trkpt><trkpt lat="42.2810185" lon="13.668004"><ele>843.0</ele><time>2026-05-03T08:30:00.448Z</time></trkpt><trkpt lat="42.2809514" lon="13.6681742"><ele>843.0</ele><time>2026-05-03T08:30:01.45Z</time></trkpt><trkpt lat="42.2808869" lon="13.6683277"><ele>843.0</ele><time>2026-05-03T08:30:02.444Z</time></trkpt><trkpt lat="42.280818" lon="13.668457"><ele>843.0</ele><time>2026-05-03T08:30:03.449Z</time></trkpt><trkpt lat="42.2807396" lon="13.6685844"><ele>841.0</ele><time>2026-05-03T08:30:04.449Z</time></trkpt><trkpt lat="42.2806569" lon="13.6687135"><ele>839.0</ele><time>2026-05-03T08:30:05.451Z</time></trkpt><trkpt lat="42.2805675" lon="13.6688541"><ele>837.0</ele><time>2026-05-03T08:30:06.444Z</time></trkpt><trkpt lat="42.2804726" lon="13.6689914"><ele>835.0</ele><time>2026-05-03T08:30:07.45Z</time></trkpt><trkpt lat="42.2803811" lon="13.6691292"><ele>835.0</ele><time>2026-05-03T08:30:08.447Z</time></trkpt><trkpt lat="42.2802866" lon="13.6692593"><ele>835.0</ele><time>2026-05-03T08:30:09.449Z</time></trkpt><trkpt lat="42.2801927" lon="13.6693938"><ele>835.0</ele><time>2026-05-03T08:30:10.452Z</time></trkpt><trkpt lat="42.2800931" lon="13.6695383"><ele>835.0</ele><time>2026-05-03T08:30:11.443Z</time></trkpt><trkpt lat="42.2799979" lon="13.6696751"><ele>833.25</ele><time>2026-05-03T08:30:12.453Z</time></trkpt><trkpt lat="42.2799017" lon="13.6698245"><ele>831.5</ele><time>2026-05-03T08:30:13.447Z</time></trkpt><trkpt lat="42.2797937" lon="13.6699735"><ele>829.75</ele><time>2026-05-03T08:30:14.453Z</time></trkpt><trkpt lat="42.2797013" lon="13.6701109"><ele>828.0</ele><time>2026-05-03T08:30:15.444Z</time></trkpt><trkpt lat="42.2796057" lon="13.6702509"><ele>831.75</ele><time>2026-05-03T08:30:16.455Z</time></trkpt><trkpt lat="42.2795274" lon="13.6703998"><ele>835.5</ele><time>2026-05-03T08:30:17.447Z</time></trkpt><trkpt lat="42.2794409" lon="13.6705447"><ele>839.25</ele><time>2026-05-03T08:30:18.459Z</time></trkpt><trkpt lat="42.2793413" lon="13.6706778"><ele>843.0</ele><time>2026-05-03T08:30:19.451Z</time></trkpt><trkpt lat="42.2792432" lon="13.6708101"><ele>843.0</ele><time>2026-05-03T08:30:20.458Z</time></trkpt><trkpt lat="42.2791512" lon="13.6709534"><ele>843.0</ele><time>2026-05-03T08:30:21.445Z</time></trkpt><trkpt lat="42.2790439" lon="13.671076"><ele>843.0</ele><time>2026-05-03T08:30:22.466Z</time></trkpt><trkpt lat="42.2789474" lon="13.6712"><ele>843.0</ele><time>2026-05-03T08:30:23.448Z</time></trkpt><trkpt lat="42.2788494" lon="13.6713312"><ele>841.5</ele><time>2026-05-03T08:30:24.449Z</time></trkpt><trkpt lat="42.27875" lon="13.6714647"><ele>840.0</ele><time>2026-05-03T08:30:25.455Z</time></trkpt><trkpt lat="42.2786475" lon="13.6716027"><ele>838.5</ele><time>2026-05-03T08:30:26.449Z</time></trkpt><trkpt lat="42.2785555" lon="13.6717423"><ele>837.0</ele><time>2026-05-03T08:30:27.454Z</time></trkpt><trkpt lat="42.2784666" lon="13.6718854"><ele>840.75</ele><time>2026-05-03T08:30:28.451Z</time></trkpt><trkpt lat="42.2783676" lon="13.6720377"><ele>844.5</ele><time>2026-05-03T08:30:29.458Z</time></trkpt><trkpt lat="42.2782826" lon="13.6721947"><ele>848.25</ele><time>2026-05-03T08:30:30.452Z</time></trkpt><trkpt lat="42.2782032" lon="13.6723323"><ele>852.0</ele><time>2026-05-03T08:30:31.456Z</time></trkpt><trkpt lat="42.2781217" lon="13.6724527"><ele>849.25</ele><time>2026-05-03T08:30:32.441Z</time></trkpt><trkpt lat="42.2780372" lon="13.6725724"><ele>846.5</ele><time>2026-05-03T08:30:33.452Z</time></trkpt><trkpt lat="42.2779324" lon="13.6726845"><ele>843.75</ele><time>2026-05-03T08:30:34.448Z</time></trkpt><trkpt lat="42.2778423" lon="13.6728193"><ele>841.0</ele><time>2026-05-03T08:30:35.451Z</time></trkpt><trkpt lat="42.2777549" lon="13.6729697"><ele>841.0</ele><time>2026-05-03T08:30:36.447Z</time></trkpt><trkpt lat="42.2776603" lon="13.6731057"><ele>841.0</ele><time>2026-05-03T08:30:37.456Z</time></trkpt><trkpt lat="42.2775666" lon="13.6732479"><ele>841.0</ele><time>2026-05-03T08:30:38.444Z</time></trkpt><trkpt lat="42.2774627" lon="13.6733986"><ele>841.0</ele><time>2026-05-03T08:30:39.455Z</time></trkpt><trkpt lat="42.2773725" lon="13.6735254"><ele>840.5</ele><time>2026-05-03T08:30:40.444Z</time></trkpt><trkpt lat="42.2772762" lon="13.6736616"><ele>840.0</ele><time>2026-05-03T08:30:41.455Z</time></trkpt><trkpt lat="42.2771981" lon="13.6738039"><ele>839.5</ele><time>2026-05-03T08:30:42.447Z</time></trkpt><trkpt lat="42.2770993" lon="13.6739269"><ele>839.0</ele><time>2026-05-03T08:30:43.454Z</time></trkpt><trkpt lat="42.2770093" lon="13.6740725"><ele>839.0</ele><time>2026-05-03T08:30:44.446Z</time></trkpt><trkpt lat="42.2769226" lon="13.6742018"><ele>839.0</ele><time>2026-05-03T08:30:45.456Z</time></trkpt><trkpt lat="42.2768397" lon="13.6743387"><ele>839.0</ele><time>2026-05-03T08:30:46.444Z</time></trkpt><trkpt lat="42.2767484" lon="13.6744702"><ele>839.0</ele><time>2026-05-03T08:30:47.457Z</time></trkpt><trkpt lat="42.2766684" lon="13.674604"><ele>837.75</ele><time>2026-05-03T08:30:48.445Z</time></trkpt><trkpt lat="42.2765838" lon="13.6747272"><ele>836.5</ele><time>2026-05-03T08:30:49.455Z</time></trkpt><trkpt lat="42.2764971" lon="13.6748508"><ele>835.25</ele><time>2026-05-03T08:30:50.449Z</time></trkpt><trkpt lat="42.2764062" lon="13.6749707"><ele>834.0</ele><time>2026-05-03T08:30:51.454Z</time></trkpt><trkpt lat="42.2763189" lon="13.675094"><ele>834.0</ele><time>2026-05-03T08:30:52.449Z</time></trkpt><trkpt lat="42.2762283" lon="13.675217"><ele>834.0</ele><time>2026-05-03T08:30:53.473Z</time></trkpt><trkpt lat="42.27614" lon="13.6753331"><ele>834.0</ele><time>2026-05-03T08:30:54.455Z</time></trkpt><trkpt lat="42.276053" lon="13.6754416"><ele>834.0</ele><time>2026-05-03T08:30:55.458Z</time></trkpt><trkpt lat="42.2759692" lon="13.6755534"><ele>832.75</ele><time>2026-05-03T08:30:56.455Z</time></trkpt><trkpt lat="42.2758847" lon="13.6756705"><ele>831.5</ele><time>2026-05-03T08:30:57.454Z</time></trkpt><trkpt lat="42.2757918" lon="13.6757933"><ele>830.25</ele><time>2026-05-03T08:30:58.456Z</time></trkpt><trkpt lat="42.2756957" lon="13.6759231"><ele>829.0</ele><time>2026-05-03T08:30:59.456Z</time></trkpt><trkpt lat="42.2755943" lon="13.6760543"><ele>833.25</ele><time>2026-05-03T08:31:00.456Z</time></trkpt><trkpt lat="42.275492" lon="13.6761714"><ele>837.5</ele><time>2026-05-03T08:31:01.451Z</time></trkpt><trkpt lat="42.2754155" lon="13.6763041"><ele>841.75</ele><time>2026-05-03T08:31:02.453Z</time></trkpt><trkpt lat="42.2753315" lon="13.6764268"><ele>846.0</ele><time>2026-05-03T08:31:03.45Z</time></trkpt><trkpt lat="42.2752453" lon="13.6765248"><ele>846.0</ele><time>2026-05-03T08:31:04.459Z</time></trkpt><trkpt lat="42.2751712" lon="13.6766331"><ele>846.0</ele><time>2026-05-03T08:31:05.456Z</time></trkpt><trkpt lat="42.2750947" lon="13.6767322"><ele>846.0</ele><time>2026-05-03T08:31:06.459Z</time></trkpt><trkpt lat="42.27501" lon="13.6768344"><ele>846.0</ele><time>2026-05-03T08:31:07.455Z</time></trkpt><trkpt lat="42.2749293" lon="13.6769459"><ele>846.0</ele><time>2026-05-03T08:31:08.456Z</time></trkpt><trkpt lat="42.2748458" lon="13.6770565"><ele>846.5999999999999</ele><time>2026-05-03T08:31:09.455Z</time></trkpt><trkpt lat="42.2747673" lon="13.6771697"><ele>847.2</ele><time>2026-05-03T08:31:10.456Z</time></trkpt><trkpt lat="42.2746966" lon="13.6772833"><ele>847.8</ele><time>2026-05-03T08:31:11.45Z</time></trkpt><trkpt lat="42.2746251" lon="13.6773922"><ele>848.4000000000001</ele><time>2026-05-03T08:31:12.46Z</time></trkpt><trkpt lat="42.2745482" lon="13.6774981"><ele>849.0</ele><time>2026-05-03T08:31:13.452Z</time></trkpt><trkpt lat="42.2744586" lon="13.6775983"><ele>849.0</ele><time>2026-05-03T08:31:14.455Z</time></trkpt><trkpt lat="42.2743682" lon="13.6777008"><ele>849.0</ele><time>2026-05-03T08:31:15.457Z</time></trkpt><trkpt lat="42.2742825" lon="13.6777993"><ele>849.0</ele><time>2026-05-03T08:31:16.453Z</time></trkpt><trkpt lat="42.2742013" lon="13.6779021"><ele>849.0</ele><time>2026-05-03T08:31:17.451Z</time></trkpt><trkpt lat="42.2741182" lon="13.6780146"><ele>849.75</ele><time>2026-05-03T08:31:18.455Z</time></trkpt><trkpt lat="42.2740386" lon="13.6781311"><ele>850.5</ele><time>2026-05-03T08:31:19.451Z</time></trkpt><trkpt lat="42.273959" lon="13.6782542"><ele>851.25</ele><time>2026-05-03T08:31:20.45Z</time></trkpt><trkpt lat="42.2738702" lon="13.6783729"><ele>852.0</ele><time>2026-05-03T08:31:21.458Z</time></trkpt><trkpt lat="42.2737792" lon="13.678489"><ele>855.25</ele><time>2026-05-03T08:31:22.457Z</time></trkpt><trkpt lat="42.2736936" lon="13.6786086"><ele>858.5</ele><time>2026-05-03T08:31:23.457Z</time></trkpt><trkpt lat="42.2736103" lon="13.6787348"><ele>861.75</ele><time>2026-05-03T08:31:24.465Z</time></trkpt><trkpt lat="42.2735256" lon="13.6788621"><ele>865.0</ele><time>2026-05-03T08:31:25.455Z</time></trkpt><trkpt lat="42.2734421" lon="13.6789926"><ele>865.0</ele><time>2026-05-03T08:31:26.46Z</time></trkpt><trkpt lat="42.2733666" lon="13.6791247"><ele>865.0</ele><time>2026-05-03T08:31:27.45Z</time></trkpt><trkpt lat="42.2732923" lon="13.6792473"><ele>865.0</ele><time>2026-05-03T08:31:28.453Z</time></trkpt><trkpt lat="42.2732212" lon="13.6793831"><ele>865.0</ele><time>2026-05-03T08:31:29.457Z</time></trkpt><trkpt lat="42.2731537" lon="13.6795288"><ele>861.75</ele><time>2026-05-03T08:31:30.456Z</time></trkpt><trkpt lat="42.2730881" lon="13.6796776"><ele>858.5</ele><time>2026-05-03T08:31:31.451Z</time></trkpt><trkpt lat="42.2730361" lon="13.6798355"><ele>855.25</ele><time>2026-05-03T08:31:32.456Z</time></trkpt><trkpt lat="42.2729876" lon="13.6799988"><ele>852.0</ele><time>2026-05-03T08:31:33.454Z</time></trkpt><trkpt lat="42.2729349" lon="13.6801765"><ele>855.6666666666667</ele><time>2026-05-03T08:31:34.453Z</time></trkpt><trkpt lat="42.2728717" lon="13.6803588"><ele>859.3333333333334</ele><time>2026-05-03T08:31:35.45Z</time></trkpt><trkpt lat="42.2727641" lon="13.6805445"><ele>863.0</ele><time>2026-05-03T08:31:36.454Z</time></trkpt><trkpt lat="42.2726891" lon="13.6807158"><ele>863.0</ele><time>2026-05-03T08:31:37.452Z</time></trkpt><trkpt lat="42.2726251" lon="13.680896"><ele>863.0</ele><time>2026-05-03T08:31:38.455Z</time></trkpt><trkpt lat="42.2725634" lon="13.6810571"><ele>863.0</ele><time>2026-05-03T08:31:39.455Z</time></trkpt><trkpt lat="42.272511" lon="13.6812085"><ele>863.0</ele><time>2026-05-03T08:31:40.457Z</time></trkpt><trkpt lat="42.2724597" lon="13.6813592"><ele>863.0</ele><time>2026-05-03T08:31:41.456Z</time></trkpt><trkpt lat="42.2723903" lon="13.6815127"><ele>863.0</ele><time>2026-05-03T08:31:42.452Z</time></trkpt><trkpt lat="42.2723182" lon="13.681675"><ele>863.0</ele><time>2026-05-03T08:31:43.46Z</time></trkpt><trkpt lat="42.2722582" lon="13.6818128"><ele>863.0</ele><time>2026-05-03T08:31:44.45Z</time></trkpt><trkpt lat="42.2721899" lon="13.6819741"><ele>863.0</ele><time>2026-05-03T08:31:45.457Z</time></trkpt><trkpt lat="42.272141" lon="13.6821507"><ele>863.0</ele><time>2026-05-03T08:31:46.45Z</time></trkpt><trkpt lat="42.2720874" lon="13.6823074"><ele>863.0</ele><time>2026-05-03T08:31:47.454Z</time></trkpt><trkpt lat="42.2720277" lon="13.6824612"><ele>863.0</ele><time>2026-05-03T08:31:48.449Z</time></trkpt><trkpt lat="42.2719667" lon="13.6826165"><ele>863.0</ele><time>2026-05-03T08:31:49.453Z</time></trkpt><trkpt lat="42.2719165" lon="13.6827617"><ele>863.0</ele><time>2026-05-03T08:31:50.458Z</time></trkpt><trkpt lat="42.2718648" lon="13.6829028"><ele>863.0</ele><time>2026-05-03T08:31:51.456Z</time></trkpt><trkpt lat="42.2718164" lon="13.6830402"><ele>863.0</ele><time>2026-05-03T08:31:52.455Z</time></trkpt><trkpt lat="42.2717695" lon="13.6831701"><ele>865.25</ele><time>2026-05-03T08:31:53.462Z</time></trkpt><trkpt lat="42.2717251" lon="13.6833109"><ele>867.5</ele><time>2026-05-03T08:31:54.452Z</time></trkpt><trkpt lat="42.2716845" lon="13.6834591"><ele>869.75</ele><time>2026-05-03T08:31:55.471Z</time></trkpt><trkpt lat="42.2716465" lon="13.6836032"><ele>872.0</ele><time>2026-05-03T08:31:56.451Z</time></trkpt><trkpt lat="42.2716048" lon="13.6837368"><ele>871.2</ele><time>2026-05-03T08:31:57.459Z</time></trkpt><trkpt lat="42.2715663" lon="13.6838604"><ele>870.4000000000001</ele><time>2026-05-03T08:31:58.455Z</time></trkpt><trkpt lat="42.2715281" lon="13.6839826"><ele>869.5999999999999</ele><time>2026-05-03T08:31:59.458Z</time></trkpt><trkpt lat="42.2714876" lon="13.6840982"><ele>868.8</ele><time>2026-05-03T08:32:00.458Z</time></trkpt><trkpt lat="42.2714453" lon="13.6842076"><ele>868.0</ele><time>2026-05-03T08:32:01.456Z</time></trkpt><trkpt lat="42.2714003" lon="13.6843028"><ele>867.9999999999999</ele><time>2026-05-03T08:32:02.452Z</time></trkpt><trkpt lat="42.2713487" lon="13.684401"><ele>868.0</ele><time>2026-05-03T08:32:03.449Z</time></trkpt><trkpt lat="42.2712855" lon="13.6845055"><ele>868.0</ele><time>2026-05-03T08:32:04.452Z</time></trkpt><trkpt lat="42.2712269" lon="13.6845946"><ele>868.0</ele><time>2026-05-03T08:32:05.452Z</time></trkpt><trkpt lat="42.2711767" lon="13.6846704"><ele>867.9999999999999</ele><time>2026-05-03T08:32:06.448Z</time></trkpt><trkpt lat="42.2711341" lon="13.6847461"><ele>868.0</ele><time>2026-05-03T08:32:07.446Z</time></trkpt><trkpt lat="42.2710765" lon="13.6848336"><ele>870.5714285714286</ele><time>2026-05-03T08:32:09.445Z</time></trkpt><trkpt lat="42.2710209" lon="13.6849218"><ele>873.1428571428571</ele><time>2026-05-03T08:32:11.448Z</time></trkpt><trkpt lat="42.2709767" lon="13.6849875"><ele>875.7142857142858</ele><time>2026-05-03T08:32:12.45Z</time></trkpt><trkpt lat="42.270936" lon="13.6850651"><ele>878.2857142857142</ele><time>2026-05-03T08:32:13.454Z</time></trkpt><trkpt lat="42.2708921" lon="13.6851429"><ele>880.8571428571429</ele><time>2026-05-03T08:32:14.448Z</time></trkpt><trkpt lat="42.2708458" lon="13.6852241"><ele>883.4285714285714</ele><time>2026-05-03T08:32:15.451Z</time></trkpt><trkpt lat="42.2708064" lon="13.6853044"><ele>886.0</ele><time>2026-05-03T08:32:16.449Z</time></trkpt><trkpt lat="42.2707761" lon="13.6853917"><ele>885.6666666666666</ele><time>2026-05-03T08:32:17.445Z</time></trkpt><trkpt lat="42.2707423" lon="13.6854774"><ele>885.3333333333333</ele><time>2026-05-03T08:32:18.451Z</time></trkpt><trkpt lat="42.2707086" lon="13.68557"><ele>885.0</ele><time>2026-05-03T08:32:19.448Z</time></trkpt><trkpt lat="42.2706749" lon="13.6856732"><ele>884.6666666666667</ele><time>2026-05-03T08:32:20.45Z</time></trkpt><trkpt lat="42.2706404" lon="13.6857889"><ele>884.3333333333334</ele><time>2026-05-03T08:32:21.44Z</time></trkpt><trkpt lat="42.2706037" lon="13.6859096"><ele>884.0</ele><time>2026-05-03T08:32:22.448Z</time></trkpt><trkpt lat="42.2705801" lon="13.6860371"><ele>886.4000000000001</ele><time>2026-05-03T08:32:23.443Z</time></trkpt><trkpt lat="42.2705696" lon="13.6861595"><ele>888.8000000000001</ele><time>2026-05-03T08:32:24.455Z</time></trkpt><trkpt lat="42.270578" lon="13.686289"><ele>891.1999999999999</ele><time>2026-05-03T08:32:25.447Z</time></trkpt><trkpt lat="42.2705881" lon="13.6864238"><ele>893.5999999999999</ele><time>2026-05-03T08:32:26.474Z</time></trkpt><trkpt lat="42.2706067" lon="13.6865615"><ele>896.0</ele><time>2026-05-03T08:32:27.447Z</time></trkpt><trkpt lat="42.2706333" lon="13.6866851"><ele>899.5000000000001</ele><time>2026-05-03T08:32:28.451Z</time></trkpt><trkpt lat="42.2706709" lon="13.6867854"><ele>903.0</ele><time>2026-05-03T08:32:29.447Z</time></trkpt><trkpt lat="42.2707119" lon="13.6868734"><ele>906.5</ele><time>2026-05-03T08:32:30.451Z</time></trkpt><trkpt lat="42.2707598" lon="13.6869772"><ele>910.0</ele><time>2026-05-03T08:32:31.448Z</time></trkpt><trkpt lat="42.270787" lon="13.6870939"><ele>913.5000000000001</ele><time>2026-05-03T08:32:32.446Z</time></trkpt><trkpt lat="42.2708068" lon="13.6872157"><ele>917.0</ele><time>2026-05-03T08:32:33.447Z</time></trkpt><trkpt lat="42.2708162" lon="13.6873404"><ele>917.6</ele><time>2026-05-03T08:32:34.451Z</time></trkpt><trkpt lat="42.270817" lon="13.6874672"><ele>918.2</ele><time>2026-05-03T08:32:35.445Z</time></trkpt><trkpt lat="42.2708027" lon="13.687601"><ele>918.8</ele><time>2026-05-03T08:32:36.448Z</time></trkpt><trkpt lat="42.270787" lon="13.6877259"><ele>919.4</ele><time>2026-05-03T08:32:37.444Z</time></trkpt><trkpt lat="42.2707672" lon="13.6878373"><ele>920.0</ele><time>2026-05-03T08:32:38.449Z</time></trkpt><trkpt lat="42.2707587" lon="13.6879513"><ele>920.0</ele><time>2026-05-03T08:32:39.438Z</time></trkpt><trkpt lat="42.2707517" lon="13.6880443"><ele>920.0</ele><time>2026-05-03T08:32:40.439Z</time></trkpt><trkpt lat="42.2707916" lon="13.6881747"><ele>920.0</ele><time>2026-05-03T08:32:42.443Z</time></trkpt><trkpt lat="42.2708736" lon="13.6882387"><ele>920.0</ele><time>2026-05-03T08:32:44.449Z</time></trkpt><trkpt lat="42.2709697" lon="13.6881924"><ele>920.0</ele><time>2026-05-03T08:32:46.447Z</time></trkpt><trkpt lat="42.2710251" lon="13.6880482"><ele>920.0</ele><time>2026-05-03T08:32:48.449Z</time></trkpt><trkpt lat="42.2710476" lon="13.6879451"><ele>920.0</ele><time>2026-05-03T08:32:49.435Z</time></trkpt><trkpt lat="42.2710636" lon="13.6878297"><ele>920.0</ele><time>2026-05-03T08:32:50.447Z</time></trkpt><trkpt lat="42.271081" lon="13.6877155"><ele>920.0</ele><time>2026-05-03T08:32:51.436Z</time></trkpt><trkpt lat="42.2711114" lon="13.6875935"><ele>920.0</ele><time>2026-05-03T08:32:52.447Z</time></trkpt><trkpt lat="42.2711368" lon="13.6874433"><ele>919.4</ele><time>2026-05-03T08:32:53.444Z</time></trkpt><trkpt lat="42.27117" lon="13.6872833"><ele>918.8</ele><time>2026-05-03T08:32:54.443Z</time></trkpt><trkpt lat="42.2712034" lon="13.6871428"><ele>918.2</ele><time>2026-05-03T08:32:55.438Z</time></trkpt><trkpt lat="42.2712415" lon="13.6870329"><ele>917.6</ele><time>2026-05-03T08:32:56.447Z</time></trkpt><trkpt lat="42.2712863" lon="13.6869408"><ele>917.0</ele><time>2026-05-03T08:32:57.436Z</time></trkpt><trkpt lat="42.2713302" lon="13.6868701"><ele>917.0</ele><time>2026-05-03T08:32:58.439Z</time></trkpt><trkpt lat="42.2714285" lon="13.6867939"><ele>917.0</ele><time>2026-05-03T08:33:00.44Z</time></trkpt><trkpt lat="42.2715252" lon="13.6867974"><ele>917.0</ele><time>2026-05-03T08:33:02.439Z</time></trkpt><trkpt lat="42.2715136" lon="13.6869664"><ele>917.0</ele><time>2026-05-03T08:33:05.445Z</time></trkpt><trkpt lat="42.2714757" lon="13.6870649"><ele>917.0</ele><time>2026-05-03T08:33:06.443Z</time></trkpt><trkpt lat="42.2714321" lon="13.6871775"><ele>918.4000000000001</ele><time>2026-05-03T08:33:07.441Z</time></trkpt><trkpt lat="42.2713931" lon="13.6872986"><ele>919.8000000000001</ele><time>2026-05-03T08:33:08.435Z</time></trkpt><trkpt lat="42.2713793" lon="13.6874268"><ele>921.2</ele><time>2026-05-03T08:33:09.44Z</time></trkpt><trkpt lat="42.2713891" lon="13.6875791"><ele>922.6</ele><time>2026-05-03T08:33:10.437Z</time></trkpt><trkpt lat="42.2714096" lon="13.6877418"><ele>924.0</ele><time>2026-05-03T08:33:11.438Z</time></trkpt><trkpt lat="42.2714415" lon="13.687876"><ele>927.6</ele><time>2026-05-03T08:33:12.438Z</time></trkpt><trkpt lat="42.2714854" lon="13.6879928"><ele>931.2</ele><time>2026-05-03T08:33:13.444Z</time></trkpt><trkpt lat="42.2715403" lon="13.6880901"><ele>934.8000000000001</ele><time>2026-05-03T08:33:14.445Z</time></trkpt><trkpt lat="42.2716066" lon="13.6881732"><ele>938.4000000000001</ele><time>2026-05-03T08:33:15.449Z</time></trkpt><trkpt lat="42.2716908" lon="13.6882391"><ele>942.0</ele><time>2026-05-03T08:33:16.449Z</time></trkpt><trkpt lat="42.2717766" lon="13.6882856"><ele>942.0</ele><time>2026-05-03T08:33:17.447Z</time></trkpt><trkpt lat="42.2718615" lon="13.6883258"><ele>942.0</ele><time>2026-05-03T08:33:18.452Z</time></trkpt><trkpt lat="42.2719441" lon="13.6883687"><ele>942.0</ele><time>2026-05-03T08:33:19.452Z</time></trkpt><trkpt lat="42.2720197" lon="13.688411"><ele>942.0</ele><time>2026-05-03T08:33:20.451Z</time></trkpt><trkpt lat="42.2721053" lon="13.6884561"><ele>942.0</ele><time>2026-05-03T08:33:21.447Z</time></trkpt><trkpt lat="42.2722056" lon="13.68851"><ele>940.5</ele><time>2026-05-03T08:33:22.451Z</time></trkpt><trkpt lat="42.272316" lon="13.6885674"><ele>939.0</ele><time>2026-05-03T08:33:23.451Z</time></trkpt><trkpt lat="42.272424" lon="13.6886294"><ele>937.5</ele><time>2026-05-03T08:33:24.451Z</time></trkpt><trkpt lat="42.2725309" lon="13.688696"><ele>936.0</ele><time>2026-05-03T08:33:25.448Z</time></trkpt><trkpt lat="42.272635" lon="13.6887711"><ele>936.0</ele><time>2026-05-03T08:33:26.448Z</time></trkpt><trkpt lat="42.2727364" lon="13.6888573"><ele>936.0</ele><time>2026-05-03T08:33:27.454Z</time></trkpt><trkpt lat="42.2728434" lon="13.6889576"><ele>936.0</ele><time>2026-05-03T08:33:28.441Z</time></trkpt><trkpt lat="42.2729492" lon="13.6890623"><ele>936.0</ele><time>2026-05-03T08:33:29.452Z</time></trkpt><trkpt lat="42.2730511" lon="13.689172"><ele>936.1999999999999</ele><time>2026-05-03T08:33:30.448Z</time></trkpt><trkpt lat="42.2731372" lon="13.689267"><ele>936.3999999999999</ele><time>2026-05-03T08:33:31.446Z</time></trkpt><trkpt lat="42.2732075" lon="13.6893497"><ele>936.6</ele><time>2026-05-03T08:33:32.442Z</time></trkpt><trkpt lat="42.2732736" lon="13.6894284"><ele>936.8</ele><time>2026-05-03T08:33:33.445Z</time></trkpt><trkpt lat="42.2733455" lon="13.6894997"><ele>937.0</ele><time>2026-05-03T08:33:34.444Z</time></trkpt><trkpt lat="42.2734225" lon="13.6895551"><ele>936.9999999999999</ele><time>2026-05-03T08:33:35.439Z</time></trkpt><trkpt lat="42.2735055" lon="13.6895847"><ele>937.0</ele><time>2026-05-03T08:33:36.446Z</time></trkpt><trkpt lat="42.2735897" lon="13.6895901"><ele>937.0</ele><time>2026-05-03T08:33:37.448Z</time></trkpt><trkpt lat="42.2736847" lon="13.6895844"><ele>937.0</ele><time>2026-05-03T08:33:38.44Z</time></trkpt><trkpt lat="42.2737791" lon="13.6895708"><ele>936.9999999999999</ele><time>2026-05-03T08:33:39.443Z</time></trkpt><trkpt lat="42.2738618" lon="13.6895394"><ele>937.0</ele><time>2026-05-03T08:33:40.436Z</time></trkpt><trkpt lat="42.2739419" lon="13.6894901"><ele>941.4000000000001</ele><time>2026-05-03T08:33:41.436Z</time></trkpt><trkpt lat="42.2740171" lon="13.6894224"><ele>945.8000000000001</ele><time>2026-05-03T08:33:42.433Z</time></trkpt><trkpt lat="42.2740999" lon="13.6893379"><ele>950.2</ele><time>2026-05-03T08:33:43.447Z</time></trkpt><trkpt lat="42.2741949" lon="13.6892425"><ele>954.6</ele><time>2026-05-03T08:33:44.439Z</time></trkpt><trkpt lat="42.2742921" lon="13.689153"><ele>959.0</ele><time>2026-05-03T08:33:45.447Z</time></trkpt><trkpt lat="42.274383" lon="13.6890626"><ele>959.0</ele><time>2026-05-03T08:33:46.439Z</time></trkpt><trkpt lat="42.274473" lon="13.6889909"><ele>959.0000000000001</ele><time>2026-05-03T08:33:47.445Z</time></trkpt><trkpt lat="42.2745688" lon="13.6889272"><ele>959.0000000000001</ele><time>2026-05-03T08:33:48.436Z</time></trkpt><trkpt lat="42.2746642" lon="13.6888696"><ele>959.0</ele><time>2026-05-03T08:33:49.444Z</time></trkpt><trkpt lat="42.2747593" lon="13.6888155"><ele>959.0</ele><time>2026-05-03T08:33:50.432Z</time></trkpt><trkpt lat="42.2748579" lon="13.6887666"><ele>958.5</ele><time>2026-05-03T08:33:51.438Z</time></trkpt><trkpt lat="42.2749613" lon="13.6887164"><ele>958.0</ele><time>2026-05-03T08:33:52.44Z</time></trkpt><trkpt lat="42.2750694" lon="13.6886533"><ele>957.5</ele><time>2026-05-03T08:33:53.442Z</time></trkpt><trkpt lat="42.275183" lon="13.6885795"><ele>957.0</ele><time>2026-05-03T08:33:54.44Z</time></trkpt><trkpt lat="42.2752967" lon="13.6885157"><ele>958.25</ele><time>2026-05-03T08:33:55.442Z</time></trkpt><trkpt lat="42.2754098" lon="13.688454"><ele>959.5</ele><time>2026-05-03T08:33:56.436Z</time></trkpt><trkpt lat="42.2755266" lon="13.6884026"><ele>960.75</ele><time>2026-05-03T08:33:57.445Z</time></trkpt><trkpt lat="42.2756414" lon="13.6883615"><ele>962.0</ele><time>2026-05-03T08:33:58.447Z</time></trkpt><trkpt lat="42.2757483" lon="13.6883249"><ele>962.0</ele><time>2026-05-03T08:33:59.437Z</time></trkpt><trkpt lat="42.2758564" lon="13.6882694"><ele>962.0</ele><time>2026-05-03T08:34:00.437Z</time></trkpt><trkpt lat="42.2759562" lon="13.6881934"><ele>962.0</ele><time>2026-05-03T08:34:01.445Z</time></trkpt><trkpt lat="42.276059" lon="13.6881029"><ele>962.0</ele><time>2026-05-03T08:34:02.435Z</time></trkpt><trkpt lat="42.2761673" lon="13.6880131"><ele>962.0</ele><time>2026-05-03T08:34:03.446Z</time></trkpt><trkpt lat="42.2762777" lon="13.6879237"><ele>962.0</ele><time>2026-05-03T08:34:04.436Z</time></trkpt><trkpt lat="42.2763832" lon="13.6878449"><ele>962.0</ele><time>2026-05-03T08:34:05.441Z</time></trkpt><trkpt lat="42.2764868" lon="13.6877697"><ele>962.0</ele><time>2026-05-03T08:34:06.436Z</time></trkpt><trkpt lat="42.276586" lon="13.687697"><ele>963.75</ele><time>2026-05-03T08:34:07.44Z</time></trkpt><trkpt lat="42.2766853" lon="13.6876236"><ele>965.5</ele><time>2026-05-03T08:34:08.44Z</time></trkpt><trkpt lat="42.2767861" lon="13.6875553"><ele>967.25</ele><time>2026-05-03T08:34:09.435Z</time></trkpt><trkpt lat="42.2768902" lon="13.6874879"><ele>969.0</ele><time>2026-05-03T08:34:10.445Z</time></trkpt><trkpt lat="42.276993" lon="13.6874207"><ele>969.0</ele><time>2026-05-03T08:34:11.435Z</time></trkpt><trkpt lat="42.2771067" lon="13.6873613"><ele>969.0000000000001</ele><time>2026-05-03T08:34:12.444Z</time></trkpt><trkpt lat="42.277217" lon="13.687305"><ele>969.0000000000001</ele><time>2026-05-03T08:34:13.433Z</time></trkpt><trkpt lat="42.2773164" lon="13.6872488"><ele>969.0</ele><time>2026-05-03T08:34:14.44Z</time></trkpt><trkpt lat="42.2774079" lon="13.6871886"><ele>969.0</ele><time>2026-05-03T08:34:15.436Z</time></trkpt><trkpt lat="42.2774878" lon="13.6871189"><ele>968.1666666666666</ele><time>2026-05-03T08:34:16.447Z</time></trkpt><trkpt lat="42.2775543" lon="13.6870432"><ele>967.3333333333333</ele><time>2026-05-03T08:34:17.436Z</time></trkpt><trkpt lat="42.2776156" lon="13.6869758"><ele>966.5</ele><time>2026-05-03T08:34:18.441Z</time></trkpt><trkpt lat="42.2776936" lon="13.686883"><ele>965.6666666666666</ele><time>2026-05-03T08:34:20.435Z</time></trkpt><trkpt lat="42.2777318" lon="13.686966"><ele>964.8333333333333</ele><time>2026-05-03T08:34:24.435Z</time></trkpt><trkpt lat="42.2777235" lon="13.6871026"><ele>964.0</ele><time>2026-05-03T08:34:26.443Z</time></trkpt><trkpt lat="42.2777275" lon="13.6872616"><ele>963.9999999999999</ele><time>2026-05-03T08:34:28.445Z</time></trkpt><trkpt lat="42.2777398" lon="13.6873964"><ele>964.0</ele><time>2026-05-03T08:34:30.448Z</time></trkpt><trkpt lat="42.2776686" lon="13.6875164"><ele>964.0</ele><time>2026-05-03T08:34:32.441Z</time></trkpt><trkpt lat="42.2776288" lon="13.6876033"><ele>964.0</ele><time>2026-05-03T08:34:33.447Z</time></trkpt><trkpt lat="42.2776019" lon="13.6876979"><ele>963.9999999999999</ele><time>2026-05-03T08:34:34.442Z</time></trkpt><trkpt lat="42.2775708" lon="13.6877952"><ele>964.0</ele><time>2026-05-03T08:34:35.449Z</time></trkpt><trkpt lat="42.2775422" lon="13.6878789"><ele>963.2857142857143</ele><time>2026-05-03T08:34:36.44Z</time></trkpt><trkpt lat="42.2775155" lon="13.687957"><ele>962.5714285714287</ele><time>2026-05-03T08:34:37.45Z</time></trkpt><trkpt lat="42.2774764" lon="13.6880274"><ele>961.8571428571429</ele><time>2026-05-03T08:34:38.443Z</time></trkpt><trkpt lat="42.2774333" lon="13.6880989"><ele>961.1428571428571</ele><time>2026-05-03T08:34:39.456Z</time></trkpt><trkpt lat="42.2773927" lon="13.6881689"><ele>960.4285714285714</ele><time>2026-05-03T08:34:40.447Z</time></trkpt><trkpt lat="42.2773558" lon="13.688285"><ele>959.7142857142858</ele><time>2026-05-03T08:34:42.448Z</time></trkpt><trkpt lat="42.2773918" lon="13.6883755"><ele>959.0</ele><time>2026-05-03T08:34:44.444Z</time></trkpt><trkpt lat="42.2774773" lon="13.6884235"><ele>959.0000000000001</ele><time>2026-05-03T08:34:46.443Z</time></trkpt><trkpt lat="42.2775394" lon="13.6884428"><ele>959.0</ele><time>2026-05-03T08:34:47.451Z</time></trkpt><trkpt lat="42.2776148" lon="13.6884451"><ele>959.0</ele><time>2026-05-03T08:34:48.453Z</time></trkpt><trkpt lat="42.2776947" lon="13.6884562"><ele>959.0</ele><time>2026-05-03T08:34:49.451Z</time></trkpt><trkpt lat="42.2777738" lon="13.6884887"><ele>959.0000000000001</ele><time>2026-05-03T08:34:50.446Z</time></trkpt><trkpt lat="42.2778507" lon="13.6885342"><ele>959.0</ele><time>2026-05-03T08:34:51.451Z</time></trkpt><trkpt lat="42.2779293" lon="13.6885702"><ele>958.3333333333334</ele><time>2026-05-03T08:34:52.447Z</time></trkpt><trkpt lat="42.2779964" lon="13.6885969"><ele>957.6666666666667</ele><time>2026-05-03T08:34:53.457Z</time></trkpt><trkpt lat="42.2780605" lon="13.6886163"><ele>957.0</ele><time>2026-05-03T08:34:54.449Z</time></trkpt><trkpt lat="42.2781366" lon="13.6886322"><ele>956.3333333333333</ele><time>2026-05-03T08:34:55.45Z</time></trkpt><trkpt lat="42.2782256" lon="13.6886673"><ele>955.6666666666666</ele><time>2026-05-03T08:34:56.44Z</time></trkpt><trkpt lat="42.2783098" lon="13.6887193"><ele>955.0</ele><time>2026-05-03T08:34:57.451Z</time></trkpt><trkpt lat="42.2783906" lon="13.688777"><ele>955.0</ele><time>2026-05-03T08:34:58.446Z</time></trkpt><trkpt lat="42.2784686" lon="13.688842"><ele>955.0</ele><time>2026-05-03T08:34:59.448Z</time></trkpt><trkpt lat="42.27854" lon="13.6889146"><ele>955.0</ele><time>2026-05-03T08:35:00.461Z</time></trkpt><trkpt lat="42.2786145" lon="13.6890071"><ele>955.0</ele><time>2026-05-03T08:35:01.446Z</time></trkpt><trkpt lat="42.2786912" lon="13.6891166"><ele>955.0</ele><time>2026-05-03T08:35:02.449Z</time></trkpt><trkpt lat="42.2787667" lon="13.6892283"><ele>955.0</ele><time>2026-05-03T08:35:03.445Z</time></trkpt><trkpt lat="42.2788385" lon="13.6893344"><ele>955.0</ele><time>2026-05-03T08:35:04.448Z</time></trkpt><trkpt lat="42.2789105" lon="13.6894418"><ele>955.0</ele><time>2026-05-03T08:35:05.449Z</time></trkpt><trkpt lat="42.2789843" lon="13.689533"><ele>955.0</ele><time>2026-05-03T08:35:06.445Z</time></trkpt><trkpt lat="42.2790575" lon="13.6896248"><ele>955.0</ele><time>2026-05-03T08:35:07.447Z</time></trkpt><trkpt lat="42.279118" lon="13.6897085"><ele>955.6666666666666</ele><time>2026-05-03T08:35:08.446Z</time></trkpt><trkpt lat="42.2791823" lon="13.6897836"><ele>956.3333333333333</ele><time>2026-05-03T08:35:09.447Z</time></trkpt><trkpt lat="42.2792551" lon="13.689844"><ele>957.0</ele><time>2026-05-03T08:35:10.444Z</time></trkpt><trkpt lat="42.2793258" lon="13.6898819"><ele>957.6666666666667</ele><time>2026-05-03T08:35:11.455Z</time></trkpt><trkpt lat="42.2793979" lon="13.6898927"><ele>958.3333333333334</ele><time>2026-05-03T08:35:12.444Z</time></trkpt><trkpt lat="42.2794671" lon="13.6898971"><ele>959.0</ele><time>2026-05-03T08:35:13.45Z</time></trkpt><trkpt lat="42.2795305" lon="13.6899074"><ele>959.0000000000001</ele><time>2026-05-03T08:35:14.447Z</time></trkpt><trkpt lat="42.2795913" lon="13.6899367"><ele>959.0</ele><time>2026-05-03T08:35:15.449Z</time></trkpt><trkpt lat="42.2796778" lon="13.6900544"><ele>959.0</ele><time>2026-05-03T08:35:17.448Z</time></trkpt><trkpt lat="42.2797173" lon="13.690131"><ele>959.0</ele><time>2026-05-03T08:35:18.448Z</time></trkpt><trkpt lat="42.2797658" lon="13.6901969"><ele>959.0000000000001</ele><time>2026-05-03T08:35:19.449Z</time></trkpt><trkpt lat="42.2798247" lon="13.6902473"><ele>959.0</ele><time>2026-05-03T08:35:20.448Z</time></trkpt><trkpt lat="42.2798996" lon="13.6902937"><ele>959.5000000000001</ele><time>2026-05-03T08:35:21.446Z</time></trkpt><trkpt lat="42.2799616" lon="13.6903272"><ele>960.0</ele><time>2026-05-03T08:35:22.441Z</time></trkpt><trkpt lat="42.2800284" lon="13.6903422"><ele>960.5</ele><time>2026-05-03T08:35:23.451Z</time></trkpt><trkpt lat="42.2800948" lon="13.6903522"><ele>961.0</ele><time>2026-05-03T08:35:24.438Z</time></trkpt><trkpt lat="42.2802232" lon="13.6903752"><ele>961.5000000000001</ele><time>2026-05-03T08:35:26.442Z</time></trkpt><trkpt lat="42.2803002" lon="13.6903883"><ele>962.0</ele><time>2026-05-03T08:35:27.439Z</time></trkpt><trkpt lat="42.2803665" lon="13.6904254"><ele>962.0000000000001</ele><time>2026-05-03T08:35:28.436Z</time></trkpt><trkpt lat="42.2804208" lon="13.6904778"><ele>962.0</ele><time>2026-05-03T08:35:29.44Z</time></trkpt><trkpt lat="42.2804758" lon="13.6905579"><ele>962.0</ele><time>2026-05-03T08:35:30.439Z</time></trkpt><trkpt lat="42.2805178" lon="13.69066"><ele>962.0</ele><time>2026-05-03T08:35:31.455Z</time></trkpt><trkpt lat="42.2805455" lon="13.6907769"><ele>962.0000000000001</ele><time>2026-05-03T08:35:32.433Z</time></trkpt><trkpt lat="42.2805604" lon="13.6909044"><ele>962.0</ele><time>2026-05-03T08:35:33.451Z</time></trkpt><trkpt lat="42.2805629" lon="13.6910297"><ele>962.5000000000001</ele><time>2026-05-03T08:35:34.435Z</time></trkpt><trkpt lat="42.2805584" lon="13.691149"><ele>963.0</ele><time>2026-05-03T08:35:35.443Z</time></trkpt><trkpt lat="42.2805428" lon="13.6912595"><ele>963.5</ele><time>2026-05-03T08:35:36.439Z</time></trkpt><trkpt lat="42.2805221" lon="13.6913654"><ele>964.0</ele><time>2026-05-03T08:35:37.447Z</time></trkpt><trkpt lat="42.2804928" lon="13.6914891"><ele>964.5000000000001</ele><time>2026-05-03T08:35:38.444Z</time></trkpt><trkpt lat="42.2804555" lon="13.6916086"><ele>965.0</ele><time>2026-05-03T08:35:39.45Z</time></trkpt><trkpt lat="42.2804131" lon="13.6917243"><ele>965.0</ele><time>2026-05-03T08:35:40.444Z</time></trkpt><trkpt lat="42.2803582" lon="13.6918447"><ele>965.0</ele><time>2026-05-03T08:35:41.449Z</time></trkpt><trkpt lat="42.2803112" lon="13.6919767"><ele>965.0</ele><time>2026-05-03T08:35:42.445Z</time></trkpt><trkpt lat="42.2802618" lon="13.6921142"><ele>965.0</ele><time>2026-05-03T08:35:43.447Z</time></trkpt><trkpt lat="42.28021" lon="13.6922487"><ele>965.0</ele><time>2026-05-03T08:35:44.446Z</time></trkpt><trkpt lat="42.2801567" lon="13.6923815"><ele>967.6</ele><time>2026-05-03T08:35:45.449Z</time></trkpt><trkpt lat="42.280113" lon="13.6925111"><ele>970.2</ele><time>2026-05-03T08:35:46.443Z</time></trkpt><trkpt lat="42.280068" lon="13.6926413"><ele>972.8</ele><time>2026-05-03T08:35:47.439Z</time></trkpt><trkpt lat="42.2800205" lon="13.6927671"><ele>975.4</ele><time>2026-05-03T08:35:48.444Z</time></trkpt><trkpt lat="42.2799726" lon="13.6928675"><ele>978.0</ele><time>2026-05-03T08:35:49.444Z</time></trkpt><trkpt lat="42.2799546" lon="13.6929704"><ele>978.6666666666666</ele><time>2026-05-03T08:35:50.45Z</time></trkpt><trkpt lat="42.2799406" lon="13.6930592"><ele>979.3333333333333</ele><time>2026-05-03T08:35:51.443Z</time></trkpt><trkpt lat="42.2799523" lon="13.6931709"><ele>980.0</ele><time>2026-05-03T08:35:52.454Z</time></trkpt><trkpt lat="42.2799689" lon="13.6932668"><ele>980.6666666666666</ele><time>2026-05-03T08:35:53.454Z</time></trkpt><trkpt lat="42.2799884" lon="13.6933508"><ele>981.3333333333333</ele><time>2026-05-03T08:35:54.446Z</time></trkpt><trkpt lat="42.280033" lon="13.6935198"><ele>982.0</ele><time>2026-05-03T08:35:56.443Z</time></trkpt><trkpt lat="42.2800493" lon="13.6936308"><ele>981.9999999999999</ele><time>2026-05-03T08:35:57.451Z</time></trkpt><trkpt lat="42.2800524" lon="13.6937407"><ele>982.0</ele><time>2026-05-03T08:35:58.449Z</time></trkpt><trkpt lat="42.2800508" lon="13.6938491"><ele>982.0</ele><time>2026-05-03T08:35:59.457Z</time></trkpt><trkpt lat="42.2800415" lon="13.6939555"><ele>982.0</ele><time>2026-05-03T08:36:00.456Z</time></trkpt><trkpt lat="42.2800405" lon="13.6940609"><ele>981.9999999999999</ele><time>2026-05-03T08:36:01.451Z</time></trkpt><trkpt lat="42.2800439" lon="13.6941717"><ele>982.0</ele><time>2026-05-03T08:36:02.462Z</time></trkpt><trkpt lat="42.2800425" lon="13.6942832"><ele>981.9999999999999</ele><time>2026-05-03T08:36:03.449Z</time></trkpt><trkpt lat="42.280034" lon="13.6943956"><ele>982.0</ele><time>2026-05-03T08:36:04.451Z</time></trkpt><trkpt lat="42.2800333" lon="13.694512"><ele>982.0</ele><time>2026-05-03T08:36:05.454Z</time></trkpt><trkpt lat="42.2800329" lon="13.6946343"><ele>982.0</ele><time>2026-05-03T08:36:06.45Z</time></trkpt><trkpt lat="42.280023" lon="13.694752"><ele>981.9999999999999</ele><time>2026-05-03T08:36:07.452Z</time></trkpt><trkpt lat="42.2800004" lon="13.6948585"><ele>982.0</ele><time>2026-05-03T08:36:08.449Z</time></trkpt><trkpt lat="42.2799816" lon="13.6949511"><ele>981.1666666666666</ele><time>2026-05-03T08:36:09.451Z</time></trkpt><trkpt lat="42.2799765" lon="13.6950505"><ele>980.3333333333333</ele><time>2026-05-03T08:36:10.445Z</time></trkpt><trkpt lat="42.279976" lon="13.6951559"><ele>979.5</ele><time>2026-05-03T08:36:11.456Z</time></trkpt><trkpt lat="42.2799944" lon="13.69526"><ele>978.6666666666667</ele><time>2026-05-03T08:36:12.448Z</time></trkpt><trkpt lat="42.2800249" lon="13.6953656"><ele>977.8333333333334</ele><time>2026-05-03T08:36:13.446Z</time></trkpt><trkpt lat="42.2800594" lon="13.6954657"><ele>977.0</ele><time>2026-05-03T08:36:14.453Z</time></trkpt><trkpt lat="42.2800968" lon="13.6955477"><ele>976.0000000000001</ele><time>2026-05-03T08:36:15.446Z</time></trkpt><trkpt lat="42.2801395" lon="13.6956135"><ele>975.0</ele><time>2026-05-03T08:36:16.449Z</time></trkpt><trkpt lat="42.2801938" lon="13.6956672"><ele>974.0000000000001</ele><time>2026-05-03T08:36:17.447Z</time></trkpt><trkpt lat="42.2802638" lon="13.6957272"><ele>973.0000000000001</ele><time>2026-05-03T08:36:18.453Z</time></trkpt><trkpt lat="42.2803383" lon="13.6957951"><ele>972.0</ele><time>2026-05-03T08:36:19.445Z</time></trkpt><trkpt lat="42.2803967" lon="13.6958551"><ele>971.0000000000001</ele><time>2026-05-03T08:36:20.445Z</time></trkpt><trkpt lat="42.2804542" lon="13.6959079"><ele>970.0000000000001</ele><time>2026-05-03T08:36:21.458Z</time></trkpt><trkpt lat="42.2805237" lon="13.695956"><ele>970.0000000000001</ele><time>2026-05-03T08:36:22.449Z</time></trkpt><trkpt lat="42.2805915" lon="13.6960071"><ele>970.0</ele><time>2026-05-03T08:36:23.45Z</time></trkpt><trkpt lat="42.2806564" lon="13.6960446"><ele>970.0000000000001</ele><time>2026-05-03T08:36:24.447Z</time></trkpt><trkpt lat="42.2807228" lon="13.6960549"><ele>970.0000000000001</ele><time>2026-05-03T08:36:25.45Z</time></trkpt><trkpt lat="42.2807893" lon="13.6960395"><ele>970.0</ele><time>2026-05-03T08:36:26.447Z</time></trkpt><trkpt lat="42.2808601" lon="13.6960204"><ele>970.0000000000001</ele><time>2026-05-03T08:36:27.457Z</time></trkpt><trkpt lat="42.2809346" lon="13.6960055"><ele>970.0000000000001</ele><time>2026-05-03T08:36:28.444Z</time></trkpt><trkpt lat="42.2810205" lon="13.6959697"><ele>972.6666666666666</ele><time>2026-05-03T08:36:29.449Z</time></trkpt><trkpt lat="42.2811014" lon="13.6959213"><ele>975.3333333333333</ele><time>2026-05-03T08:36:30.447Z</time></trkpt><trkpt lat="42.2811807" lon="13.6958721"><ele>978.0</ele><time>2026-05-03T08:36:31.451Z</time></trkpt><trkpt lat="42.2812576" lon="13.6958302"><ele>980.6666666666667</ele><time>2026-05-03T08:36:32.439Z</time></trkpt><trkpt lat="42.2813293" lon="13.6957994"><ele>983.3333333333334</ele><time>2026-05-03T08:36:33.452Z</time></trkpt><trkpt lat="42.2814064" lon="13.6958207"><ele>986.0</ele><time>2026-05-03T08:36:35.438Z</time></trkpt><trkpt lat="42.2814558" lon="13.6959626"><ele>986.3333333333334</ele><time>2026-05-03T08:36:37.451Z</time></trkpt><trkpt lat="42.2814977" lon="13.6960726"><ele>986.6666666666667</ele><time>2026-05-03T08:36:38.448Z</time></trkpt><trkpt lat="42.2815375" lon="13.6961688"><ele>987.0</ele><time>2026-05-03T08:36:39.45Z</time></trkpt><trkpt lat="42.2815773" lon="13.6962469"><ele>987.3333333333333</ele><time>2026-05-03T08:36:40.45Z</time></trkpt><trkpt lat="42.2816172" lon="13.6963358"><ele>987.6666666666666</ele><time>2026-05-03T08:36:41.453Z</time></trkpt><trkpt lat="42.2816594" lon="13.6964136"><ele>988.0</ele><time>2026-05-03T08:36:42.448Z</time></trkpt><trkpt lat="42.2817069" lon="13.696476"><ele>988.3333333333333</ele><time>2026-05-03T08:36:43.446Z</time></trkpt><trkpt lat="42.2817554" lon="13.6965337"><ele>988.6666666666666</ele><time>2026-05-03T08:36:44.453Z</time></trkpt><trkpt lat="42.2818108" lon="13.6965912"><ele>989.0</ele><time>2026-05-03T08:36:45.447Z</time></trkpt><trkpt lat="42.2818599" lon="13.6966531"><ele>989.3333333333333</ele><time>2026-05-03T08:36:46.446Z</time></trkpt><trkpt lat="42.2819411" lon="13.6967499"><ele>989.6666666666666</ele><time>2026-05-03T08:36:48.451Z</time></trkpt><trkpt lat="42.2819938" lon="13.6968318"><ele>990.0</ele><time>2026-05-03T08:36:50.446Z</time></trkpt><trkpt lat="42.2820469" lon="13.6968882"><ele>990.0</ele><time>2026-05-03T08:36:52.444Z</time></trkpt><trkpt lat="42.2821028" lon="13.6968476"><ele>990.0</ele><time>2026-05-03T08:36:54.447Z</time></trkpt><trkpt lat="42.28213" lon="13.696727"><ele>990.0</ele><time>2026-05-03T08:36:56.439Z</time></trkpt><trkpt lat="42.2820939" lon="13.6965675"><ele>990.0</ele><time>2026-05-03T08:36:58.436Z</time></trkpt><trkpt lat="42.2820815" lon="13.6964754"><ele>990.0</ele><time>2026-05-03T08:36:59.447Z</time></trkpt><trkpt lat="42.2821032" lon="13.6963502"><ele>990.0</ele><time>2026-05-03T08:37:01.441Z</time></trkpt><trkpt lat="42.2822051" lon="13.6962297"><ele>990.0</ele><time>2026-05-03T08:37:03.446Z</time></trkpt><trkpt lat="42.282263" lon="13.6961484"><ele>990.0</ele><time>2026-05-03T08:37:04.456Z</time></trkpt><trkpt lat="42.2823044" lon="13.6960593"><ele>990.0</ele><time>2026-05-03T08:37:05.443Z</time></trkpt><trkpt lat="42.2823284" lon="13.6959486"><ele>990.0</ele><time>2026-05-03T08:37:06.436Z</time></trkpt><trkpt lat="42.2823371" lon="13.695819"><ele>990.0</ele><time>2026-05-03T08:37:07.442Z</time></trkpt><trkpt lat="42.2823479" lon="13.6956888"><ele>990.0</ele><time>2026-05-03T08:37:08.432Z</time></trkpt><trkpt lat="42.2823572" lon="13.6955661"><ele>986.3333333333334</ele><time>2026-05-03T08:37:09.441Z</time></trkpt><trkpt lat="42.2823646" lon="13.6954498"><ele>982.6666666666667</ele><time>2026-05-03T08:37:10.435Z</time></trkpt><trkpt lat="42.2823723" lon="13.6953364"><ele>979.0</ele><time>2026-05-03T08:37:11.445Z</time></trkpt><trkpt lat="42.2823834" lon="13.6952228"><ele>975.3333333333334</ele><time>2026-05-03T08:37:12.436Z</time></trkpt><trkpt lat="42.2823906" lon="13.6951054"><ele>971.6666666666667</ele><time>2026-05-03T08:37:13.44Z</time></trkpt><trkpt lat="42.2823987" lon="13.6949906"><ele>968.0</ele><time>2026-05-03T08:37:14.438Z</time></trkpt><trkpt lat="42.2824087" lon="13.6948874"><ele>967.5000000000001</ele><time>2026-05-03T08:37:15.439Z</time></trkpt><trkpt lat="42.2824068" lon="13.6947836"><ele>967.0</ele><time>2026-05-03T08:37:16.439Z</time></trkpt><trkpt lat="42.2823978" lon="13.6946772"><ele>966.5</ele><time>2026-05-03T08:37:17.443Z</time></trkpt><trkpt lat="42.2823811" lon="13.6945757"><ele>966.0</ele><time>2026-05-03T08:37:18.432Z</time></trkpt><trkpt lat="42.2823616" lon="13.6944771"><ele>965.5000000000001</ele><time>2026-05-03T08:37:19.44Z</time></trkpt><trkpt lat="42.2823398" lon="13.6943854"><ele>965.0</ele><time>2026-05-03T08:37:20.431Z</time></trkpt><trkpt lat="42.2823191" lon="13.694293"><ele>963.6666666666667</ele><time>2026-05-03T08:37:21.44Z</time></trkpt><trkpt lat="42.2822928" lon="13.6941953"><ele>962.3333333333334</ele><time>2026-05-03T08:37:22.435Z</time></trkpt><trkpt lat="42.2822852" lon="13.6940945"><ele>961.0</ele><time>2026-05-03T08:37:23.444Z</time></trkpt><trkpt lat="42.282284" lon="13.6939975"><ele>959.6666666666667</ele><time>2026-05-03T08:37:24.429Z</time></trkpt><trkpt lat="42.2823037" lon="13.6939008"><ele>958.3333333333334</ele><time>2026-05-03T08:37:25.443Z</time></trkpt><trkpt lat="42.2823353" lon="13.6938047"><ele>957.0</ele><time>2026-05-03T08:37:26.433Z</time></trkpt><trkpt lat="42.2823687" lon="13.6937093"><ele>957.0</ele><time>2026-05-03T08:37:27.441Z</time></trkpt><trkpt lat="42.2823899" lon="13.6936091"><ele>957.0</ele><time>2026-05-03T08:37:28.431Z</time></trkpt><trkpt lat="42.2824053" lon="13.6935042"><ele>957.0</ele><time>2026-05-03T08:37:29.435Z</time></trkpt><trkpt lat="42.2824196" lon="13.6933939"><ele>957.0</ele><time>2026-05-03T08:37:30.44Z</time></trkpt><trkpt lat="42.28244" lon="13.6932776"><ele>957.0</ele><time>2026-05-03T08:37:31.435Z</time></trkpt><trkpt lat="42.2824529" lon="13.6931637"><ele>957.0</ele><time>2026-05-03T08:37:32.437Z</time></trkpt><trkpt lat="42.2824661" lon="13.6930611"><ele>957.1666666666666</ele><time>2026-05-03T08:37:33.439Z</time></trkpt><trkpt lat="42.2824838" lon="13.6929679"><ele>957.3333333333333</ele><time>2026-05-03T08:37:34.442Z</time></trkpt><trkpt lat="42.2825056" lon="13.6928738"><ele>957.5</ele><time>2026-05-03T08:37:35.438Z</time></trkpt><trkpt lat="42.2825351" lon="13.6927655"><ele>957.6666666666666</ele><time>2026-05-03T08:37:36.431Z</time></trkpt><trkpt lat="42.2825742" lon="13.6926566"><ele>957.8333333333333</ele><time>2026-05-03T08:37:37.434Z</time></trkpt><trkpt lat="42.2826136" lon="13.692556"><ele>958.0</ele><time>2026-05-03T08:37:38.435Z</time></trkpt><trkpt lat="42.2826481" lon="13.6924494"><ele>958.0</ele><time>2026-05-03T08:37:39.424Z</time></trkpt><trkpt lat="42.2826779" lon="13.6923352"><ele>958.0</ele><time>2026-05-03T08:37:40.43Z</time></trkpt><trkpt lat="42.2827145" lon="13.6922208"><ele>958.0</ele><time>2026-05-03T08:37:41.424Z</time></trkpt><trkpt lat="42.2827652" lon="13.6921039"><ele>958.0</ele><time>2026-05-03T08:37:42.43Z</time></trkpt><trkpt lat="42.282821" lon="13.691998"><ele>958.0</ele><time>2026-05-03T08:37:43.422Z</time></trkpt><trkpt lat="42.2828757" lon="13.6919007"><ele>960.6666666666666</ele><time>2026-05-03T08:37:44.423Z</time></trkpt><trkpt lat="42.2829222" lon="13.6918026"><ele>963.3333333333333</ele><time>2026-05-03T08:37:45.426Z</time></trkpt><trkpt lat="42.2829757" lon="13.6917125"><ele>966.0</ele><time>2026-05-03T08:37:46.426Z</time></trkpt><trkpt lat="42.2830335" lon="13.6916409"><ele>968.6666666666667</ele><time>2026-05-03T08:37:47.426Z</time></trkpt><trkpt lat="42.2831059" lon="13.6915716"><ele>971.3333333333334</ele><time>2026-05-03T08:37:48.428Z</time></trkpt><trkpt lat="42.2831774" lon="13.6915054"><ele>974.0</ele><time>2026-05-03T08:37:49.422Z</time></trkpt><trkpt lat="42.2832674" lon="13.6914468"><ele>967.0</ele><time>2026-05-03T08:37:50.431Z</time></trkpt><trkpt lat="42.2833612" lon="13.6913848"><ele>960.0000000000001</ele><time>2026-05-03T08:37:51.422Z</time></trkpt><trkpt lat="42.2834483" lon="13.6913349"><ele>953.0000000000001</ele><time>2026-05-03T08:37:52.422Z</time></trkpt><trkpt lat="42.2835321" lon="13.6912842"><ele>946.0</ele><time>2026-05-03T08:37:53.424Z</time></trkpt><trkpt lat="42.2836098" lon="13.6912322"><ele>939.0</ele><time>2026-05-03T08:37:54.422Z</time></trkpt><trkpt lat="42.2836922" lon="13.6911838"><ele>939.0</ele><time>2026-05-03T08:37:55.424Z</time></trkpt><trkpt lat="42.283771" lon="13.6911297"><ele>939.0</ele><time>2026-05-03T08:37:56.425Z</time></trkpt><trkpt lat="42.2838396" lon="13.6910833"><ele>939.0</ele><time>2026-05-03T08:37:57.421Z</time></trkpt><trkpt lat="42.283911" lon="13.6910418"><ele>939.0</ele><time>2026-05-03T08:37:58.423Z</time></trkpt><trkpt lat="42.2839845" lon="13.6910042"><ele>939.0</ele><time>2026-05-03T08:37:59.424Z</time></trkpt><trkpt lat="42.284062" lon="13.6909663"><ele>939.0</ele><time>2026-05-03T08:38:00.432Z</time></trkpt><trkpt lat="42.2841369" lon="13.6909379"><ele>939.8000000000001</ele><time>2026-05-03T08:38:01.423Z</time></trkpt><trkpt lat="42.2842105" lon="13.6909319"><ele>940.6000000000001</ele><time>2026-05-03T08:38:02.429Z</time></trkpt><trkpt lat="42.2842894" lon="13.6909571"><ele>941.4</ele><time>2026-05-03T08:38:03.428Z</time></trkpt><trkpt lat="42.2843784" lon="13.6910011"><ele>942.2</ele><time>2026-05-03T08:38:04.432Z</time></trkpt><trkpt lat="42.2844817" lon="13.691053"><ele>943.0</ele><time>2026-05-03T08:38:05.443Z</time></trkpt><trkpt lat="42.2845877" lon="13.6911114"><ele>937.8</ele><time>2026-05-03T08:38:06.436Z</time></trkpt><trkpt lat="42.2846919" lon="13.6911628"><ele>932.5999999999999</ele><time>2026-05-03T08:38:07.437Z</time></trkpt><trkpt lat="42.2847968" lon="13.6912083"><ele>927.4000000000001</ele><time>2026-05-03T08:38:08.434Z</time></trkpt><trkpt lat="42.2849063" lon="13.6912411"><ele>922.2</ele><time>2026-05-03T08:38:09.435Z</time></trkpt><trkpt lat="42.2850169" lon="13.6912848"><ele>917.0</ele><time>2026-05-03T08:38:10.435Z</time></trkpt><trkpt lat="42.2851148" lon="13.691323"><ele>915.8</ele><time>2026-05-03T08:38:11.436Z</time></trkpt><trkpt lat="42.2852047" lon="13.6913526"><ele>914.6</ele><time>2026-05-03T08:38:12.432Z</time></trkpt><trkpt lat="42.2852981" lon="13.6913724"><ele>913.3999999999999</ele><time>2026-05-03T08:38:13.437Z</time></trkpt><trkpt lat="42.2854026" lon="13.6913903"><ele>912.1999999999999</ele><time>2026-05-03T08:38:14.434Z</time></trkpt><trkpt lat="42.2854995" lon="13.6913898"><ele>911.0</ele><time>2026-05-03T08:38:15.434Z</time></trkpt><trkpt lat="42.285603" lon="13.6913806"><ele>911.0</ele><time>2026-05-03T08:38:16.432Z</time></trkpt><trkpt lat="42.2857167" lon="13.6913685"><ele>911.0</ele><time>2026-05-03T08:38:17.438Z</time></trkpt><trkpt lat="42.2858315" lon="13.6913421"><ele>911.0</ele><time>2026-05-03T08:38:18.439Z</time></trkpt><trkpt lat="42.2859437" lon="13.6913109"><ele>911.0</ele><time>2026-05-03T08:38:19.436Z</time></trkpt><trkpt lat="42.2860565" lon="13.6912854"><ele>911.0</ele><time>2026-05-03T08:38:20.443Z</time></trkpt><trkpt lat="42.2861665" lon="13.6912592"><ele>910.9999999999999</ele><time>2026-05-03T08:38:21.432Z</time></trkpt><trkpt lat="42.2862697" lon="13.6912374"><ele>910.9999999999999</ele><time>2026-05-03T08:38:22.431Z</time></trkpt><trkpt lat="42.2863737" lon="13.6912122"><ele>911.0</ele><time>2026-05-03T08:38:23.439Z</time></trkpt><trkpt lat="42.28648" lon="13.691187"><ele>911.0</ele><time>2026-05-03T08:38:24.432Z</time></trkpt><trkpt lat="42.2865812" lon="13.6911597"><ele>908.8</ele><time>2026-05-03T08:38:25.437Z</time></trkpt><trkpt lat="42.2866777" lon="13.6911317"><ele>906.5999999999999</ele><time>2026-05-03T08:38:26.43Z</time></trkpt><trkpt lat="42.2867807" lon="13.6910951"><ele>904.4</ele><time>2026-05-03T08:38:27.436Z</time></trkpt><trkpt lat="42.2868939" lon="13.6910555"><ele>902.2</ele><time>2026-05-03T08:38:28.426Z</time></trkpt><trkpt lat="42.2870007" lon="13.6910176"><ele>900.0</ele><time>2026-05-03T08:38:29.431Z</time></trkpt><trkpt lat="42.2871032" lon="13.6909823"><ele>904.6</ele><time>2026-05-03T08:38:30.43Z</time></trkpt><trkpt lat="42.2871986" lon="13.6909398"><ele>909.2</ele><time>2026-05-03T08:38:31.43Z</time></trkpt><trkpt lat="42.2872953" lon="13.6908945"><ele>913.8</ele><time>2026-05-03T08:38:32.433Z</time></trkpt><trkpt lat="42.2873873" lon="13.6908513"><ele>918.4</ele><time>2026-05-03T08:38:33.427Z</time></trkpt><trkpt lat="42.2874742" lon="13.6908125"><ele>923.0</ele><time>2026-05-03T08:38:34.429Z</time></trkpt><trkpt lat="42.2875762" lon="13.6907713"><ele>923.0</ele><time>2026-05-03T08:38:35.426Z</time></trkpt><trkpt lat="42.2876739" lon="13.69074"><ele>923.0</ele><time>2026-05-03T08:38:36.444Z</time></trkpt><trkpt lat="42.2877674" lon="13.6907122"><ele>923.0</ele><time>2026-05-03T08:38:37.425Z</time></trkpt><trkpt lat="42.2878502" lon="13.6906844"><ele>923.0</ele><time>2026-05-03T08:38:38.433Z</time></trkpt><trkpt lat="42.2879318" lon="13.6906564"><ele>923.0</ele><time>2026-05-03T08:38:39.427Z</time></trkpt><trkpt lat="42.2880183" lon="13.6906195"><ele>919.5999999999999</ele><time>2026-05-03T08:38:40.435Z</time></trkpt><trkpt lat="42.2881113" lon="13.6905639"><ele>916.1999999999999</ele><time>2026-05-03T08:38:41.424Z</time></trkpt><trkpt lat="42.2882038" lon="13.6905112"><ele>912.8</ele><time>2026-05-03T08:38:42.43Z</time></trkpt><trkpt lat="42.2882891" lon="13.6904711"><ele>909.4</ele><time>2026-05-03T08:38:43.427Z</time></trkpt><trkpt lat="42.2883707" lon="13.6904345"><ele>906.0</ele><time>2026-05-03T08:38:44.431Z</time></trkpt><trkpt lat="42.2884542" lon="13.6904097"><ele>906.0</ele><time>2026-05-03T08:38:45.429Z</time></trkpt><trkpt lat="42.2885387" lon="13.6904046"><ele>906.0</ele><time>2026-05-03T08:38:46.436Z</time></trkpt><trkpt lat="42.2886178" lon="13.6903945"><ele>906.0</ele><time>2026-05-03T08:38:47.429Z</time></trkpt><trkpt lat="42.2886957" lon="13.6904073"><ele>906.0</ele><time>2026-05-03T08:38:48.438Z</time></trkpt><trkpt lat="42.2887727" lon="13.6904405"><ele>906.0</ele><time>2026-05-03T08:38:49.436Z</time></trkpt><trkpt lat="42.2888333" lon="13.6904726"><ele>906.0</ele><time>2026-05-03T08:38:50.441Z</time></trkpt><trkpt lat="42.2888934" lon="13.6905123"><ele>905.1666666666666</ele><time>2026-05-03T08:38:51.433Z</time></trkpt><trkpt lat="42.2889547" lon="13.6905416"><ele>904.3333333333333</ele><time>2026-05-03T08:38:52.44Z</time></trkpt><trkpt lat="42.2890792" lon="13.6905803"><ele>903.5</ele><time>2026-05-03T08:38:54.435Z</time></trkpt><trkpt lat="42.2891462" lon="13.6905973"><ele>902.6666666666666</ele><time>2026-05-03T08:38:55.436Z</time></trkpt><trkpt lat="42.2892237" lon="13.6906072"><ele>901.8333333333333</ele><time>2026-05-03T08:38:56.439Z</time></trkpt><trkpt lat="42.2892986" lon="13.690596"><ele>901.0</ele><time>2026-05-03T08:38:57.436Z</time></trkpt><trkpt lat="42.2893761" lon="13.6905796"><ele>900.9999999999999</ele><time>2026-05-03T08:38:58.432Z</time></trkpt><trkpt lat="42.2894538" lon="13.6905653"><ele>901.0</ele><time>2026-05-03T08:38:59.444Z</time></trkpt><trkpt lat="42.2895357" lon="13.6905626"><ele>901.0</ele><time>2026-05-03T08:39:00.445Z</time></trkpt><trkpt lat="42.2896151" lon="13.6905707"><ele>901.0</ele><time>2026-05-03T08:39:01.441Z</time></trkpt><trkpt lat="42.2896966" lon="13.6905896"><ele>900.9999999999999</ele><time>2026-05-03T08:39:02.442Z</time></trkpt><trkpt lat="42.2897719" lon="13.6906289"><ele>901.0</ele><time>2026-05-03T08:39:03.441Z</time></trkpt><trkpt lat="42.2898519" lon="13.6906721"><ele>900.3333333333333</ele><time>2026-05-03T08:39:04.444Z</time></trkpt><trkpt lat="42.2899302" lon="13.6907091"><ele>899.6666666666666</ele><time>2026-05-03T08:39:05.436Z</time></trkpt><trkpt lat="42.2900077" lon="13.6907283"><ele>899.0</ele><time>2026-05-03T08:39:06.442Z</time></trkpt><trkpt lat="42.290087" lon="13.6907343"><ele>898.3333333333333</ele><time>2026-05-03T08:39:07.45Z</time></trkpt><trkpt lat="42.2901698" lon="13.6907416"><ele>897.6666666666666</ele><time>2026-05-03T08:39:08.439Z</time></trkpt><trkpt lat="42.2902468" lon="13.6907426"><ele>897.0</ele><time>2026-05-03T08:39:09.444Z</time></trkpt><trkpt lat="42.2903253" lon="13.6907285"><ele>897.0</ele><time>2026-05-03T08:39:10.431Z</time></trkpt><trkpt lat="42.290409" lon="13.6907061"><ele>897.0</ele><time>2026-05-03T08:39:11.441Z</time></trkpt><trkpt lat="42.2904889" lon="13.6906729"><ele>897.0</ele><time>2026-05-03T08:39:12.433Z</time></trkpt><trkpt lat="42.2905636" lon="13.6906489"><ele>897.0</ele><time>2026-05-03T08:39:13.441Z</time></trkpt><trkpt lat="42.2906381" lon="13.6906444"><ele>897.0</ele><time>2026-05-03T08:39:14.434Z</time></trkpt><trkpt lat="42.2907142" lon="13.6906389"><ele>897.0</ele><time>2026-05-03T08:39:15.445Z</time></trkpt><trkpt lat="42.2907843" lon="13.6906332"><ele>895.5714285714286</ele><time>2026-05-03T08:39:16.437Z</time></trkpt><trkpt lat="42.2908535" lon="13.6906346"><ele>894.1428571428571</ele><time>2026-05-03T08:39:17.445Z</time></trkpt><trkpt lat="42.2909226" lon="13.6906368"><ele>892.7142857142857</ele><time>2026-05-03T08:39:18.434Z</time></trkpt><trkpt lat="42.2909893" lon="13.6906318"><ele>891.2857142857142</ele><time>2026-05-03T08:39:19.438Z</time></trkpt><trkpt lat="42.2910599" lon="13.6906113"><ele>889.8571428571429</ele><time>2026-05-03T08:39:20.44Z</time></trkpt><trkpt lat="42.2911284" lon="13.6905924"><ele>888.4285714285713</ele><time>2026-05-03T08:39:21.444Z</time></trkpt><trkpt lat="42.2912027" lon="13.6905614"><ele>887.0</ele><time>2026-05-03T08:39:22.439Z</time></trkpt><trkpt lat="42.2912824" lon="13.6905111"><ele>887.0000000000001</ele><time>2026-05-03T08:39:23.447Z</time></trkpt><trkpt lat="42.2913566" lon="13.6904415"><ele>887.0</ele><time>2026-05-03T08:39:24.436Z</time></trkpt><trkpt lat="42.2914254" lon="13.6903677"><ele>887.0</ele><time>2026-05-03T08:39:25.438Z</time></trkpt><trkpt lat="42.2914813" lon="13.6902968"><ele>887.0</ele><time>2026-05-03T08:39:26.441Z</time></trkpt><trkpt lat="42.2915356" lon="13.690233"><ele>887.0000000000001</ele><time>2026-05-03T08:39:27.44Z</time></trkpt><trkpt lat="42.2915859" lon="13.6901768"><ele>887.0</ele><time>2026-05-03T08:39:28.442Z</time></trkpt><trkpt lat="42.2916371" lon="13.6901021"><ele>885.5714285714286</ele><time>2026-05-03T08:39:29.434Z</time></trkpt><trkpt lat="42.2916849" lon="13.6900288"><ele>884.1428571428571</ele><time>2026-05-03T08:39:30.438Z</time></trkpt><trkpt lat="42.2917354" lon="13.6899614"><ele>882.7142857142858</ele><time>2026-05-03T08:39:31.433Z</time></trkpt><trkpt lat="42.2917881" lon="13.6899068"><ele>881.2857142857142</ele><time>2026-05-03T08:39:32.44Z</time></trkpt><trkpt lat="42.2918524" lon="13.6898601"><ele>879.8571428571429</ele><time>2026-05-03T08:39:33.432Z</time></trkpt><trkpt lat="42.2919237" lon="13.6898235"><ele>878.4285714285714</ele><time>2026-05-03T08:39:34.439Z</time></trkpt><trkpt lat="42.2919933" lon="13.6897867"><ele>877.0</ele><time>2026-05-03T08:39:35.438Z</time></trkpt><trkpt lat="42.2920542" lon="13.6897423"><ele>876.9999999999999</ele><time>2026-05-03T08:39:36.442Z</time></trkpt><trkpt lat="42.2921138" lon="13.689691"><ele>877.0</ele><time>2026-05-03T08:39:37.434Z</time></trkpt><trkpt lat="42.2921769" lon="13.6896187"><ele>877.0</ele><time>2026-05-03T08:39:38.453Z</time></trkpt><trkpt lat="42.2922365" lon="13.6895334"><ele>877.0</ele><time>2026-05-03T08:39:39.436Z</time></trkpt><trkpt lat="42.2922968" lon="13.6894334"><ele>876.9999999999999</ele><time>2026-05-03T08:39:40.442Z</time></trkpt><trkpt lat="42.2923587" lon="13.6893363"><ele>877.0</ele><time>2026-05-03T08:39:41.434Z</time></trkpt><trkpt lat="42.2924207" lon="13.6892395"><ele>875.6666666666666</ele><time>2026-05-03T08:39:42.444Z</time></trkpt><trkpt lat="42.2924769" lon="13.6891517"><ele>874.3333333333333</ele><time>2026-05-03T08:39:43.433Z</time></trkpt><trkpt lat="42.2925289" lon="13.6890838"><ele>873.0</ele><time>2026-05-03T08:39:44.439Z</time></trkpt><trkpt lat="42.2925874" lon="13.6890291"><ele>871.6666666666667</ele><time>2026-05-03T08:39:45.429Z</time></trkpt><trkpt lat="42.2926533" lon="13.6889762"><ele>870.3333333333334</ele><time>2026-05-03T08:39:46.437Z</time></trkpt><trkpt lat="42.2927191" lon="13.6889168"><ele>869.0</ele><time>2026-05-03T08:39:47.433Z</time></trkpt><trkpt lat="42.2927763" lon="13.6888541"><ele>869.0000000000001</ele><time>2026-05-03T08:39:48.444Z</time></trkpt><trkpt lat="42.2928395" lon="13.688818"><ele>869.0</ele><time>2026-05-03T08:39:49.432Z</time></trkpt><trkpt lat="42.2929072" lon="13.6887859"><ele>869.0</ele><time>2026-05-03T08:39:50.437Z</time></trkpt><trkpt lat="42.2929706" lon="13.6887653"><ele>869.0</ele><time>2026-05-03T08:39:51.43Z</time></trkpt><trkpt lat="42.2930801" lon="13.6887137"><ele>869.0000000000001</ele><time>2026-05-03T08:39:53.434Z</time></trkpt><trkpt lat="42.2931673" lon="13.6886677"><ele>869.0</ele><time>2026-05-03T08:39:55.431Z</time></trkpt><trkpt lat="42.2932675" lon="13.6886533"><ele>865.0</ele><time>2026-05-03T08:39:57.431Z</time></trkpt><trkpt lat="42.29336" lon="13.688646"><ele>861.0000000000001</ele><time>2026-05-03T08:39:59.436Z</time></trkpt><trkpt lat="42.2933302" lon="13.6887218"><ele>857.0</ele><time>2026-05-03T08:44:13.452Z</time></trkpt><trkpt lat="42.2932428" lon="13.6887902"><ele>853.0</ele><time>2026-05-03T08:44:17.462Z</time></trkpt><trkpt lat="42.2931486" lon="13.6889439"><ele>849.0</ele><time>2026-05-03T08:44:19.448Z</time></trkpt><trkpt lat="42.2930904" lon="13.6890507"><ele>851.0</ele><time>2026-05-03T08:44:20.448Z</time></trkpt><trkpt lat="42.2930361" lon="13.6891726"><ele>853.0</ele><time>2026-05-03T08:44:21.449Z</time></trkpt><trkpt lat="42.2929806" lon="13.6892954"><ele>855.0000000000001</ele><time>2026-05-03T08:44:22.453Z</time></trkpt><trkpt lat="42.292916" lon="13.6894239"><ele>857.0</ele><time>2026-05-03T08:44:23.447Z</time></trkpt><trkpt lat="42.2928602" lon="13.6895519"><ele>859.0</ele><time>2026-05-03T08:44:24.446Z</time></trkpt><trkpt lat="42.2928127" lon="13.6896873"><ele>859.0</ele><time>2026-05-03T08:44:25.451Z</time></trkpt><trkpt lat="42.2927667" lon="13.6898206"><ele>859.0000000000001</ele><time>2026-05-03T08:44:26.453Z</time></trkpt><trkpt lat="42.292718" lon="13.6899387"><ele>859.0000000000001</ele><time>2026-05-03T08:44:27.453Z</time></trkpt><trkpt lat="42.292667" lon="13.6900563"><ele>859.0</ele><time>2026-05-03T08:44:28.458Z</time></trkpt><trkpt lat="42.2926113" lon="13.6901735"><ele>859.0</ele><time>2026-05-03T08:44:29.456Z</time></trkpt><trkpt lat="42.2925568" lon="13.6902947"><ele>858.4000000000001</ele><time>2026-05-03T08:44:30.467Z</time></trkpt><trkpt lat="42.2925102" lon="13.6904175"><ele>857.8000000000001</ele><time>2026-05-03T08:44:31.462Z</time></trkpt><trkpt lat="42.2924764" lon="13.6905476"><ele>857.1999999999999</ele><time>2026-05-03T08:44:32.462Z</time></trkpt><trkpt lat="42.2924647" lon="13.6906808"><ele>856.5999999999999</ele><time>2026-05-03T08:44:33.458Z</time></trkpt><trkpt lat="42.2924566" lon="13.6908116"><ele>856.0</ele><time>2026-05-03T08:44:34.462Z</time></trkpt><trkpt lat="42.2924509" lon="13.6909362"><ele>856.0</ele><time>2026-05-03T08:44:35.462Z</time></trkpt><trkpt lat="42.2924414" lon="13.6910517"><ele>855.9999999999999</ele><time>2026-05-03T08:44:36.463Z</time></trkpt><trkpt lat="42.292431" lon="13.6911667"><ele>855.9999999999999</ele><time>2026-05-03T08:44:37.464Z</time></trkpt><trkpt lat="42.2924016" lon="13.6912861"><ele>856.0</ele><time>2026-05-03T08:44:38.46Z</time></trkpt><trkpt lat="42.292366" lon="13.6914087"><ele>856.0</ele><time>2026-05-03T08:44:39.467Z</time></trkpt><trkpt lat="42.2923249" lon="13.6915254"><ele>857.0</ele><time>2026-05-03T08:44:40.46Z</time></trkpt><trkpt lat="42.2922703" lon="13.6916405"><ele>857.9999999999999</ele><time>2026-05-03T08:44:41.467Z</time></trkpt><trkpt lat="42.2922065" lon="13.6917566"><ele>858.9999999999999</ele><time>2026-05-03T08:44:42.459Z</time></trkpt><trkpt lat="42.2921288" lon="13.6918687"><ele>860.0</ele><time>2026-05-03T08:44:43.464Z</time></trkpt><trkpt lat="42.2920412" lon="13.6919759"><ele>861.0</ele><time>2026-05-03T08:44:44.456Z</time></trkpt><trkpt lat="42.2919457" lon="13.6920775"><ele>861.25</ele><time>2026-05-03T08:44:45.463Z</time></trkpt><trkpt lat="42.2918468" lon="13.6921825"><ele>861.5</ele><time>2026-05-03T08:44:46.455Z</time></trkpt><trkpt lat="42.2917427" lon="13.6922871"><ele>861.75</ele><time>2026-05-03T08:44:47.469Z</time></trkpt><trkpt lat="42.2916338" lon="13.6923867"><ele>862.0</ele><time>2026-05-03T08:44:48.47Z</time></trkpt><trkpt lat="42.2915224" lon="13.692488"><ele>862.0</ele><time>2026-05-03T08:44:49.473Z</time></trkpt><trkpt lat="42.2914112" lon="13.6925952"><ele>862.0</ele><time>2026-05-03T08:44:50.462Z</time></trkpt><trkpt lat="42.2913153" lon="13.692713"><ele>862.0</ele><time>2026-05-03T08:44:51.47Z</time></trkpt><trkpt lat="42.2912335" lon="13.6928323"><ele>862.0</ele><time>2026-05-03T08:44:52.463Z</time></trkpt><trkpt lat="42.291165" lon="13.6929445"><ele>862.0</ele><time>2026-05-03T08:44:53.465Z</time></trkpt><trkpt lat="42.2911132" lon="13.693043"><ele>862.0</ele><time>2026-05-03T08:44:54.452Z</time></trkpt><trkpt lat="42.2910713" lon="13.6931097"><ele>862.0</ele><time>2026-05-03T08:44:55.454Z</time></trkpt><trkpt lat="42.2910238" lon="13.6932065"><ele>862.0</ele><time>2026-05-03T08:44:57.476Z</time></trkpt><trkpt lat="42.2909595" lon="13.6932994"><ele>862.0</ele><time>2026-05-03T08:44:59.467Z</time></trkpt><trkpt lat="42.2908545" lon="13.6933999"><ele>861.9999999999999</ele><time>2026-05-03T08:45:01.47Z</time></trkpt><trkpt lat="42.2907913" lon="13.6934657"><ele>862.0</ele><time>2026-05-03T08:45:02.461Z</time></trkpt><trkpt lat="42.2907203" lon="13.6935402"><ele>862.0</ele><time>2026-05-03T08:45:03.463Z</time></trkpt><trkpt lat="42.290658" lon="13.6936126"><ele>862.0</ele><time>2026-05-03T08:45:04.461Z</time></trkpt><trkpt lat="42.2906029" lon="13.6936826"><ele>861.9999999999999</ele><time>2026-05-03T08:45:05.466Z</time></trkpt><trkpt lat="42.2905514" lon="13.6937496"><ele>862.0</ele><time>2026-05-03T08:45:06.46Z</time></trkpt><trkpt lat="42.2905088" lon="13.6938166"><ele>860.3333333333333</ele><time>2026-05-03T08:45:07.47Z</time></trkpt><trkpt lat="42.2904498" lon="13.693932"><ele>858.6666666666666</ele><time>2026-05-03T08:45:09.463Z</time></trkpt><trkpt lat="42.2904052" lon="13.6940187"><ele>857.0</ele><time>2026-05-03T08:45:18.46Z</time></trkpt><trkpt lat="42.2903708" lon="13.6941263"><ele>855.3333333333333</ele><time>2026-05-03T08:45:20.453Z</time></trkpt><trkpt lat="42.2903364" lon="13.6942127"><ele>853.6666666666666</ele><time>2026-05-03T08:45:21.457Z</time></trkpt><trkpt lat="42.2903065" lon="13.694305"><ele>852.0</ele><time>2026-05-03T08:45:22.459Z</time></trkpt><trkpt lat="42.290285" lon="13.6944305"><ele>852.0</ele><time>2026-05-03T08:45:24.455Z</time></trkpt><trkpt lat="42.2902644" lon="13.6945301"><ele>852.0</ele><time>2026-05-03T08:45:36.451Z</time></trkpt><trkpt lat="42.2902858" lon="13.6944305"><ele>852.0</ele><time>2026-05-03T08:45:38.449Z</time></trkpt><trkpt lat="42.2903134" lon="13.6943356"><ele>852.0</ele><time>2026-05-03T08:45:39.454Z</time></trkpt><trkpt lat="42.2903685" lon="13.6942117"><ele>852.0</ele><time>2026-05-03T08:45:40.461Z</time></trkpt><trkpt lat="42.2904312" lon="13.69409"><ele>852.0</ele><time>2026-05-03T08:45:41.458Z</time></trkpt><trkpt lat="42.2905014" lon="13.6939703"><ele>852.0</ele><time>2026-05-03T08:45:42.463Z</time></trkpt><trkpt lat="42.2905748" lon="13.6938548"><ele>852.0</ele><time>2026-05-03T08:45:43.462Z</time></trkpt><trkpt lat="42.290651" lon="13.6937542"><ele>852.0</ele><time>2026-05-03T08:45:44.461Z</time></trkpt><trkpt lat="42.2907279" lon="13.6936652"><ele>852.0</ele><time>2026-05-03T08:45:45.459Z</time></trkpt><trkpt lat="42.2908108" lon="13.6935723"><ele>852.0</ele><time>2026-05-03T08:45:46.463Z</time></trkpt><trkpt lat="42.2908903" lon="13.6934872"><ele>853.6666666666666</ele><time>2026-05-03T08:45:47.454Z</time></trkpt><trkpt lat="42.2909533" lon="13.6934086"><ele>855.3333333333333</ele><time>2026-05-03T08:45:48.459Z</time></trkpt><trkpt lat="42.2910083" lon="13.693336"><ele>857.0</ele><time>2026-05-03T08:45:49.457Z</time></trkpt><trkpt lat="42.2910608" lon="13.6932636"><ele>858.6666666666666</ele><time>2026-05-03T08:45:50.473Z</time></trkpt><trkpt lat="42.2911123" lon="13.6931926"><ele>860.3333333333333</ele><time>2026-05-03T08:45:51.461Z</time></trkpt><trkpt lat="42.2911569" lon="13.6931301"><ele>862.0</ele><time>2026-05-03T08:45:52.458Z</time></trkpt><trkpt lat="42.291204" lon="13.6930173"><ele>862.0</ele><time>2026-05-03T08:45:54.457Z</time></trkpt><trkpt lat="42.2911413" lon="13.6929195"><ele>862.0</ele><time>2026-05-03T08:45:57.459Z</time></trkpt><trkpt lat="42.2910648" lon="13.6929126"><ele>862.0</ele><time>2026-05-03T08:45:59.46Z</time></trkpt><trkpt lat="42.2909679" lon="13.6929354"><ele>862.0</ele><time>2026-05-03T08:46:01.46Z</time></trkpt><trkpt lat="42.2908747" lon="13.6929826"><ele>862.0</ele><time>2026-05-03T08:46:03.46Z</time></trkpt><trkpt lat="42.2907853" lon="13.6930291"><ele>862.0</ele><time>2026-05-03T08:46:05.46Z</time></trkpt><trkpt lat="42.2906924" lon="13.693077"><ele>862.0</ele><time>2026-05-03T08:46:07.461Z</time></trkpt><trkpt lat="42.2906049" lon="13.6930808"><ele>862.0</ele><time>2026-05-03T08:46:09.462Z</time></trkpt><trkpt lat="42.2905175" lon="13.6930752"><ele>862.0</ele><time>2026-05-03T08:46:11.457Z</time></trkpt><trkpt lat="42.2904226" lon="13.6931104"><ele>862.0</ele><time>2026-05-03T08:46:13.463Z</time></trkpt><trkpt lat="42.2903261" lon="13.6931696"><ele>860.4000000000001</ele><time>2026-05-03T08:46:15.461Z</time></trkpt><trkpt lat="42.2902279" lon="13.6932514"><ele>858.8000000000001</ele><time>2026-05-03T08:46:17.46Z</time></trkpt><trkpt lat="42.2901281" lon="13.693331"><ele>857.2</ele><time>2026-05-03T08:46:19.455Z</time></trkpt><trkpt lat="42.2900198" lon="13.6934192"><ele>855.6</ele><time>2026-05-03T08:46:21.483Z</time></trkpt><trkpt lat="42.2899614" lon="13.6934671"><ele>854.0</ele><time>2026-05-03T08:46:22.469Z</time></trkpt><trkpt lat="42.2898996" lon="13.6935092"><ele>854.0</ele><time>2026-05-03T08:46:23.463Z</time></trkpt><trkpt lat="42.2898386" lon="13.6935582"><ele>854.0</ele><time>2026-05-03T08:46:24.465Z</time></trkpt><trkpt lat="42.2897729" lon="13.6936041"><ele>854.0</ele><time>2026-05-03T08:46:25.465Z</time></trkpt><trkpt lat="42.2897101" lon="13.6936476"><ele>854.0</ele><time>2026-05-03T08:46:26.463Z</time></trkpt><trkpt lat="42.2896529" lon="13.6936965"><ele>854.0</ele><time>2026-05-03T08:46:27.468Z</time></trkpt><trkpt lat="42.2896023" lon="13.6937511"><ele>854.0</ele><time>2026-05-03T08:46:28.455Z</time></trkpt><trkpt lat="42.2895556" lon="13.6938251"><ele>854.0</ele><time>2026-05-03T08:46:29.459Z</time></trkpt><trkpt lat="42.2895097" lon="13.6939229"><ele>851.0</ele><time>2026-05-03T08:46:30.46Z</time></trkpt><trkpt lat="42.2894656" lon="13.6940443"><ele>848.0000000000001</ele><time>2026-05-03T08:46:31.468Z</time></trkpt><trkpt lat="42.2894236" lon="13.6941699"><ele>845.0</ele><time>2026-05-03T08:46:32.463Z</time></trkpt><trkpt lat="42.2893793" lon="13.6942863"><ele>842.0</ele><time>2026-05-03T08:46:33.472Z</time></trkpt><trkpt lat="42.2893358" lon="13.6943972"><ele>839.0</ele><time>2026-05-03T08:46:34.457Z</time></trkpt><trkpt lat="42.2892923" lon="13.6945013"><ele>838.1666666666667</ele><time>2026-05-03T08:46:35.467Z</time></trkpt><trkpt lat="42.2892461" lon="13.6946024"><ele>837.3333333333334</ele><time>2026-05-03T08:46:36.454Z</time></trkpt><trkpt lat="42.2891948" lon="13.6946957"><ele>836.5</ele><time>2026-05-03T08:46:37.465Z</time></trkpt><trkpt lat="42.2891525" lon="13.6947813"><ele>835.6666666666667</ele><time>2026-05-03T08:46:38.452Z</time></trkpt><trkpt lat="42.289111" lon="13.6948597"><ele>834.8333333333334</ele><time>2026-05-03T08:46:39.458Z</time></trkpt><trkpt lat="42.2890711" lon="13.6949353"><ele>834.0</ele><time>2026-05-03T08:46:40.449Z</time></trkpt><trkpt lat="42.2890316" lon="13.6950016"><ele>834.0</ele><time>2026-05-03T08:46:41.46Z</time></trkpt><trkpt lat="42.2889687" lon="13.695134"><ele>834.0</ele><time>2026-05-03T08:46:43.461Z</time></trkpt><trkpt lat="42.2889048" lon="13.6952425"><ele>834.0</ele><time>2026-05-03T08:46:45.455Z</time></trkpt><trkpt lat="42.2888718" lon="13.6953181"><ele>834.0</ele><time>2026-05-03T08:46:47.464Z</time></trkpt><trkpt lat="42.2888645" lon="13.6954028"><ele>834.0</ele><time>2026-05-03T08:46:49.463Z</time></trkpt><trkpt lat="42.2888383" lon="13.6955126"><ele>834.0</ele><time>2026-05-03T08:46:51.471Z</time></trkpt><trkpt lat="42.2888045" lon="13.6956184"><ele>831.8571428571429</ele><time>2026-05-03T08:46:54.462Z</time></trkpt><trkpt lat="42.2887494" lon="13.6957025"><ele>829.7142857142857</ele><time>2026-05-03T08:46:57.469Z</time></trkpt><trkpt lat="42.2886942" lon="13.6957844"><ele>827.5714285714286</ele><time>2026-05-03T08:47:00.455Z</time></trkpt><trkpt lat="42.2886529" lon="13.6958507"><ele>825.4285714285714</ele><time>2026-05-03T08:47:02.442Z</time></trkpt><trkpt lat="42.2885986" lon="13.6959071"><ele>823.2857142857142</ele><time>2026-05-03T08:47:04.454Z</time></trkpt><trkpt lat="42.2885417" lon="13.6959495"><ele>821.1428571428571</ele><time>2026-05-03T08:47:06.459Z</time></trkpt><trkpt lat="42.2884681" lon="13.6959805"><ele>819.0</ele><time>2026-05-03T08:47:09.461Z</time></trkpt><trkpt lat="42.2883728" lon="13.6960159"><ele>819.0</ele><time>2026-05-03T08:47:12.463Z</time></trkpt><trkpt lat="42.2883056" lon="13.6960585"><ele>819.0</ele><time>2026-05-03T08:47:14.462Z</time></trkpt><trkpt lat="42.2882219" lon="13.6961029"><ele>819.0</ele><time>2026-05-03T08:47:16.456Z</time></trkpt><trkpt lat="42.2881506" lon="13.6961836"><ele>819.0</ele><time>2026-05-03T08:47:18.456Z</time></trkpt><trkpt lat="42.2880834" lon="13.6962824"><ele>819.0</ele><time>2026-05-03T08:47:20.458Z</time></trkpt><trkpt lat="42.2880165" lon="13.6963386"><ele>819.0</ele><time>2026-05-03T08:47:22.465Z</time></trkpt><trkpt lat="42.2879648" lon="13.6964044"><ele>816.3333333333334</ele><time>2026-05-03T08:47:24.456Z</time></trkpt><trkpt lat="42.2879078" lon="13.696476"><ele>813.6666666666667</ele><time>2026-05-03T08:47:26.458Z</time></trkpt><trkpt lat="42.2878486" lon="13.6965674"><ele>811.0</ele><time>2026-05-03T08:47:29.459Z</time></trkpt><trkpt lat="42.2877886" lon="13.6966574"><ele>808.3333333333334</ele><time>2026-05-03T08:47:32.46Z</time></trkpt><trkpt lat="42.2877099" lon="13.6966989"><ele>805.6666666666667</ele><time>2026-05-03T08:47:35.453Z</time></trkpt><trkpt lat="42.2876417" lon="13.6967782"><ele>803.0</ele><time>2026-05-03T08:47:37.456Z</time></trkpt><trkpt lat="42.2875933" lon="13.6968709"><ele>802.4</ele><time>2026-05-03T08:47:39.453Z</time></trkpt><trkpt lat="42.2875712" lon="13.6970369"><ele>801.8</ele><time>2026-05-03T08:47:41.446Z</time></trkpt><trkpt lat="42.2875727" lon="13.6971528"><ele>801.2</ele><time>2026-05-03T08:47:42.459Z</time></trkpt><trkpt lat="42.2875705" lon="13.6972744"><ele>800.6</ele><time>2026-05-03T08:47:43.455Z</time></trkpt><trkpt lat="42.2875581" lon="13.6973946"><ele>800.0</ele><time>2026-05-03T08:47:44.461Z</time></trkpt><trkpt lat="42.2875318" lon="13.6975077"><ele>800.0</ele><time>2026-05-03T08:47:45.448Z</time></trkpt><trkpt lat="42.2874733" lon="13.6976084"><ele>800.0</ele><time>2026-05-03T08:47:46.457Z</time></trkpt><trkpt lat="42.2874104" lon="13.6977188"><ele>800.0</ele><time>2026-05-03T08:47:47.45Z</time></trkpt><trkpt lat="42.2873481" lon="13.6978274"><ele>800.0</ele><time>2026-05-03T08:47:48.449Z</time></trkpt><trkpt lat="42.2872968" lon="13.6979539"><ele>800.0</ele><time>2026-05-03T08:47:49.452Z</time></trkpt><trkpt lat="42.2872559" lon="13.6980915"><ele>799.1666666666667</ele><time>2026-05-03T08:47:50.465Z</time></trkpt><trkpt lat="42.2872342" lon="13.6982291"><ele>798.3333333333334</ele><time>2026-05-03T08:47:51.451Z</time></trkpt><trkpt lat="42.2872168" lon="13.6983542"><ele>797.5</ele><time>2026-05-03T08:47:52.456Z</time></trkpt><trkpt lat="42.2872105" lon="13.6984543"><ele>796.6666666666667</ele><time>2026-05-03T08:47:53.462Z</time></trkpt><trkpt lat="42.2872365" lon="13.698566"><ele>795.8333333333334</ele><time>2026-05-03T08:47:55.468Z</time></trkpt><trkpt lat="42.2871739" lon="13.6985995"><ele>795.0</ele><time>2026-05-03T08:48:09.449Z</time></trkpt><trkpt lat="42.2871149" lon="13.6987277"><ele>794.5</ele><time>2026-05-03T08:48:11.455Z</time></trkpt><trkpt lat="42.2870867" lon="13.6988233"><ele>794.0</ele><time>2026-05-03T08:48:12.46Z</time></trkpt><trkpt lat="42.287063" lon="13.6989124"><ele>793.5</ele><time>2026-05-03T08:48:13.454Z</time></trkpt><trkpt lat="42.2870313" lon="13.6990165"><ele>793.0</ele><time>2026-05-03T08:48:15.461Z</time></trkpt><trkpt lat="42.2870079" lon="13.6991083"><ele>792.5</ele><time>2026-05-03T08:48:18.458Z</time></trkpt><trkpt lat="42.287073" lon="13.6991051"><ele>792.0</ele><time>2026-05-03T08:48:26.465Z</time></trkpt><trkpt lat="42.2870802" lon="13.6989622"><ele>792.0</ele><time>2026-05-03T08:48:28.464Z</time></trkpt><trkpt lat="42.2871081" lon="13.6988491"><ele>792.0</ele><time>2026-05-03T08:48:29.456Z</time></trkpt><trkpt lat="42.2871415" lon="13.698718"><ele>792.0</ele><time>2026-05-03T08:48:30.461Z</time></trkpt><trkpt lat="42.2871799" lon="13.6986014"><ele>792.0</ele><time>2026-05-03T08:48:31.465Z</time></trkpt><trkpt lat="42.2872196" lon="13.6985087"><ele>792.0</ele><time>2026-05-03T08:48:32.451Z</time></trkpt><trkpt lat="42.2872729" lon="13.6984262"><ele>792.0</ele><time>2026-05-03T08:48:34.466Z</time></trkpt><trkpt lat="42.2873164" lon="13.6985288"><ele>792.0</ele><time>2026-05-03T08:48:37.457Z</time></trkpt><trkpt lat="42.2873115" lon="13.6987171"><ele>792.0</ele><time>2026-05-03T08:48:39.454Z</time></trkpt><trkpt lat="42.2873061" lon="13.6988552"><ele>792.0</ele><time>2026-05-03T08:48:40.461Z</time></trkpt><trkpt lat="42.2872806" lon="13.6989985"><ele>792.0</ele><time>2026-05-03T08:48:41.447Z</time></trkpt><trkpt lat="42.2872448" lon="13.6991458"><ele>792.0</ele><time>2026-05-03T08:48:42.446Z</time></trkpt><trkpt lat="42.2872148" lon="13.6992953"><ele>792.0</ele><time>2026-05-03T08:48:43.445Z</time></trkpt><trkpt lat="42.287196" lon="13.6994136"><ele>792.0</ele><time>2026-05-03T08:48:44.459Z</time></trkpt><trkpt lat="42.2872454" lon="13.6995457"><ele>792.0</ele><time>2026-05-03T08:48:46.459Z</time></trkpt><trkpt lat="42.2872975" lon="13.6996136"><ele>792.0</ele><time>2026-05-03T08:48:47.456Z</time></trkpt><trkpt lat="42.2873584" lon="13.6996831"><ele>792.2</ele><time>2026-05-03T08:48:48.463Z</time></trkpt><trkpt lat="42.2874014" lon="13.6997506"><ele>792.4000000000001</ele><time>2026-05-03T08:48:49.446Z</time></trkpt><trkpt lat="42.287393" lon="13.6998804"><ele>792.5999999999999</ele><time>2026-05-03T08:48:52.455Z</time></trkpt><trkpt lat="42.287368" lon="13.7000642"><ele>792.8</ele><time>2026-05-03T08:48:54.46Z</time></trkpt><trkpt lat="42.2873618" lon="13.700158"><ele>793.0</ele><time>2026-05-03T08:48:55.461Z</time></trkpt><trkpt lat="42.2873349" lon="13.7002773"><ele>790.8</ele><time>2026-05-03T08:48:57.451Z</time></trkpt><trkpt lat="42.2872581" lon="13.7004108"><ele>788.5999999999999</ele><time>2026-05-03T08:48:59.449Z</time></trkpt><trkpt lat="42.2872138" lon="13.7005078"><ele>786.4000000000001</ele><time>2026-05-03T08:49:00.461Z</time></trkpt><trkpt lat="42.2871652" lon="13.7006257"><ele>784.2</ele><time>2026-05-03T08:49:01.451Z</time></trkpt><trkpt lat="42.2871252" lon="13.7007468"><ele>782.0</ele><time>2026-05-03T08:49:02.459Z</time></trkpt><trkpt lat="42.2870998" lon="13.7008705"><ele>782.0</ele><time>2026-05-03T08:49:03.454Z</time></trkpt><trkpt lat="42.2870921" lon="13.7009852"><ele>782.0</ele><time>2026-05-03T08:49:04.456Z</time></trkpt><trkpt lat="42.2871016" lon="13.7011173"><ele>782.0</ele><time>2026-05-03T08:49:05.45Z</time></trkpt><trkpt lat="42.2871152" lon="13.7012557"><ele>782.0</ele><time>2026-05-03T08:49:06.451Z</time></trkpt><trkpt lat="42.287124" lon="13.7014074"><ele>782.0</ele><time>2026-05-03T08:49:07.452Z</time></trkpt><trkpt lat="42.2871135" lon="13.701556"><ele>782.0</ele><time>2026-05-03T08:49:08.457Z</time></trkpt><trkpt lat="42.2870925" lon="13.7016846"><ele>782.0</ele><time>2026-05-03T08:49:09.446Z</time></trkpt><trkpt lat="42.2870589" lon="13.7018136"><ele>782.0</ele><time>2026-05-03T08:49:10.448Z</time></trkpt><trkpt lat="42.2870092" lon="13.7019503"><ele>782.0</ele><time>2026-05-03T08:49:11.442Z</time></trkpt><trkpt lat="42.2869392" lon="13.7020956"><ele>782.0</ele><time>2026-05-03T08:49:12.45Z</time></trkpt><trkpt lat="42.2868732" lon="13.7022406"><ele>782.0</ele><time>2026-05-03T08:49:13.444Z</time></trkpt><trkpt lat="42.286812" lon="13.702382"><ele>782.0</ele><time>2026-05-03T08:49:14.45Z</time></trkpt><trkpt lat="42.2867627" lon="13.7025191"><ele>782.0</ele><time>2026-05-03T08:49:15.442Z</time></trkpt><trkpt lat="42.2867084" lon="13.7026522"><ele>782.0</ele><time>2026-05-03T08:49:16.455Z</time></trkpt><trkpt lat="42.2866513" lon="13.7027914"><ele>782.8</ele><time>2026-05-03T08:49:17.445Z</time></trkpt><trkpt lat="42.2865925" lon="13.7029244"><ele>783.6</ele><time>2026-05-03T08:49:18.449Z</time></trkpt><trkpt lat="42.2865394" lon="13.703043"><ele>784.4</ele><time>2026-05-03T08:49:19.443Z</time></trkpt><trkpt lat="42.2864817" lon="13.7031595"><ele>785.1999999999999</ele><time>2026-05-03T08:49:20.455Z</time></trkpt><trkpt lat="42.2864301" lon="13.7032864"><ele>786.0</ele><time>2026-05-03T08:49:21.447Z</time></trkpt><trkpt lat="42.2863834" lon="13.7034159"><ele>784.0</ele><time>2026-05-03T08:49:22.457Z</time></trkpt><trkpt lat="42.2863397" lon="13.7035423"><ele>782.0</ele><time>2026-05-03T08:49:23.447Z</time></trkpt><trkpt lat="42.2862987" lon="13.7036607"><ele>780.0</ele><time>2026-05-03T08:49:24.451Z</time></trkpt><trkpt lat="42.2862701" lon="13.7037624"><ele>778.0</ele><time>2026-05-03T08:49:25.44Z</time></trkpt><trkpt lat="42.2862113" lon="13.7038692"><ele>776.0</ele><time>2026-05-03T08:49:27.439Z</time></trkpt><trkpt lat="42.2861358" lon="13.7038878"><ele>776.0000000000001</ele><time>2026-05-03T08:49:29.437Z</time></trkpt><trkpt lat="42.2860109" lon="13.7038595"><ele>776.0</ele><time>2026-05-03T08:49:31.442Z</time></trkpt><trkpt lat="42.2859389" lon="13.703823"><ele>776.0</ele><time>2026-05-03T08:49:32.449Z</time></trkpt><trkpt lat="42.2858769" lon="13.7037865"><ele>776.0</ele><time>2026-05-03T08:49:33.439Z</time></trkpt><trkpt lat="42.2858023" lon="13.7037672"><ele>776.0000000000001</ele><time>2026-05-03T08:49:34.447Z</time></trkpt><trkpt lat="42.2857213" lon="13.7037561"><ele>776.0</ele><time>2026-05-03T08:49:35.446Z</time></trkpt><trkpt lat="42.2856472" lon="13.703759"><ele>780.0</ele><time>2026-05-03T08:49:36.444Z</time></trkpt><trkpt lat="42.2855412" lon="13.7038142"><ele>784.0</ele><time>2026-05-03T08:49:38.446Z</time></trkpt><trkpt lat="42.2854525" lon="13.7039573"><ele>788.0</ele><time>2026-05-03T08:49:40.453Z</time></trkpt><trkpt lat="42.2853961" lon="13.7040511"><ele>792.0</ele><time>2026-05-03T08:49:41.451Z</time></trkpt><trkpt lat="42.2853424" lon="13.7041679"><ele>796.0</ele><time>2026-05-03T08:49:42.445Z</time></trkpt><trkpt lat="42.2852825" lon="13.704291"><ele>796.0</ele><time>2026-05-03T08:49:43.453Z</time></trkpt><trkpt lat="42.2852383" lon="13.7043955"><ele>796.0</ele><time>2026-05-03T08:49:44.437Z</time></trkpt><trkpt lat="42.2851993" lon="13.7045044"><ele>796.0</ele><time>2026-05-03T08:49:45.444Z</time></trkpt><trkpt lat="42.2851687" lon="13.7046228"><ele>796.0</ele><time>2026-05-03T08:49:46.434Z</time></trkpt><trkpt lat="42.2851421" lon="13.7047631"><ele>796.0</ele><time>2026-05-03T08:49:47.437Z</time></trkpt><trkpt lat="42.285114" lon="13.7049066"><ele>794.8</ele><time>2026-05-03T08:49:48.44Z</time></trkpt><trkpt lat="42.2850937" lon="13.7050448"><ele>793.5999999999999</ele><time>2026-05-03T08:49:49.436Z</time></trkpt><trkpt lat="42.2850744" lon="13.7051774"><ele>792.4</ele><time>2026-05-03T08:49:50.444Z</time></trkpt><trkpt lat="42.2850411" lon="13.7053075"><ele>791.2</ele><time>2026-05-03T08:49:51.441Z</time></trkpt><trkpt lat="42.2850059" lon="13.7054415"><ele>790.0</ele><time>2026-05-03T08:49:52.443Z</time></trkpt><trkpt lat="42.2849573" lon="13.7055796"><ele>789.0</ele><time>2026-05-03T08:49:53.457Z</time></trkpt><trkpt lat="42.2849156" lon="13.7057079"><ele>788.0</ele><time>2026-05-03T08:49:54.442Z</time></trkpt><trkpt lat="42.2848771" lon="13.7058197"><ele>787.0</ele><time>2026-05-03T08:49:55.449Z</time></trkpt><trkpt lat="42.2848422" lon="13.7059331"><ele>786.0</ele><time>2026-05-03T08:49:56.442Z</time></trkpt><trkpt lat="42.2848001" lon="13.706049"><ele>785.0</ele><time>2026-05-03T08:49:57.456Z</time></trkpt><trkpt lat="42.2847567" lon="13.7061653"><ele>789.8</ele><time>2026-05-03T08:49:58.441Z</time></trkpt><trkpt lat="42.2847207" lon="13.7062913"><ele>794.6</ele><time>2026-05-03T08:49:59.449Z</time></trkpt><trkpt lat="42.2846775" lon="13.7064162"><ele>799.4000000000001</ele><time>2026-05-03T08:50:00.441Z</time></trkpt><trkpt lat="42.2846236" lon="13.7065356"><ele>804.2</ele><time>2026-05-03T08:50:01.45Z</time></trkpt><trkpt lat="42.2845602" lon="13.7066502"><ele>809.0</ele><time>2026-05-03T08:50:02.439Z</time></trkpt><trkpt lat="42.2844924" lon="13.7067531"><ele>809.0</ele><time>2026-05-03T08:50:03.442Z</time></trkpt><trkpt lat="42.2844162" lon="13.7068494"><ele>809.0</ele><time>2026-05-03T08:50:04.433Z</time></trkpt><trkpt lat="42.2843391" lon="13.7069428"><ele>809.0</ele><time>2026-05-03T08:50:05.447Z</time></trkpt><trkpt lat="42.284255" lon="13.7070385"><ele>809.0</ele><time>2026-05-03T08:50:06.441Z</time></trkpt><trkpt lat="42.2841767" lon="13.7071402"><ele>809.0</ele><time>2026-05-03T08:50:07.442Z</time></trkpt><trkpt lat="42.284097" lon="13.7072302"><ele>808.2</ele><time>2026-05-03T08:50:08.441Z</time></trkpt><trkpt lat="42.2840157" lon="13.70732"><ele>807.4000000000001</ele><time>2026-05-03T08:50:09.441Z</time></trkpt><trkpt lat="42.2839345" lon="13.7074141"><ele>806.6</ele><time>2026-05-03T08:50:10.445Z</time></trkpt><trkpt lat="42.2838607" lon="13.7075169"><ele>805.8</ele><time>2026-05-03T08:50:11.443Z</time></trkpt><trkpt lat="42.2837896" lon="13.7076299"><ele>805.0</ele><time>2026-05-03T08:50:12.447Z</time></trkpt><trkpt lat="42.2837191" lon="13.7077485"><ele>807.6</ele><time>2026-05-03T08:50:13.435Z</time></trkpt><trkpt lat="42.2836543" lon="13.7078617"><ele>810.2</ele><time>2026-05-03T08:50:14.451Z</time></trkpt><trkpt lat="42.2835975" lon="13.7079737"><ele>812.8</ele><time>2026-05-03T08:50:15.439Z</time></trkpt><trkpt lat="42.2835421" lon="13.7080818"><ele>815.4</ele><time>2026-05-03T08:50:16.442Z</time></trkpt><trkpt lat="42.2834802" lon="13.7081843"><ele>818.0</ele><time>2026-05-03T08:50:17.441Z</time></trkpt><trkpt lat="42.2834108" lon="13.7082863"><ele>818.0</ele><time>2026-05-03T08:50:18.444Z</time></trkpt><trkpt lat="42.2833434" lon="13.7083799"><ele>818.0</ele><time>2026-05-03T08:50:19.448Z</time></trkpt><trkpt lat="42.2832741" lon="13.7084599"><ele>818.0</ele><time>2026-05-03T08:50:20.448Z</time></trkpt><trkpt lat="42.2831958" lon="13.7085408"><ele>818.0</ele><time>2026-05-03T08:50:21.446Z</time></trkpt><trkpt lat="42.2831128" lon="13.7086283"><ele>818.0</ele><time>2026-05-03T08:50:22.458Z</time></trkpt><trkpt lat="42.2830325" lon="13.7087161"><ele>818.5000000000001</ele><time>2026-05-03T08:50:23.441Z</time></trkpt><trkpt lat="42.2829497" lon="13.7087817"><ele>819.0</ele><time>2026-05-03T08:50:24.447Z</time></trkpt><trkpt lat="42.2828783" lon="13.7088252"><ele>819.5</ele><time>2026-05-03T08:50:25.445Z</time></trkpt><trkpt lat="42.2828074" lon="13.708853"><ele>820.0</ele><time>2026-05-03T08:50:26.455Z</time></trkpt><trkpt lat="42.2827242" lon="13.708871"><ele>820.5000000000001</ele><time>2026-05-03T08:50:27.442Z</time></trkpt><trkpt lat="42.2826295" lon="13.7089028"><ele>821.0</ele><time>2026-05-03T08:50:28.458Z</time></trkpt><trkpt lat="42.2825357" lon="13.708949"><ele>821.0</ele><time>2026-05-03T08:50:29.442Z</time></trkpt><trkpt lat="42.2824498" lon="13.7090029"><ele>821.0</ele><time>2026-05-03T08:50:30.451Z</time></trkpt><trkpt lat="42.2823612" lon="13.7090634"><ele>821.0</ele><time>2026-05-03T08:50:31.438Z</time></trkpt><trkpt lat="42.2822705" lon="13.7091327"><ele>821.0</ele><time>2026-05-03T08:50:32.438Z</time></trkpt><trkpt lat="42.2821813" lon="13.7092023"><ele>821.0</ele><time>2026-05-03T08:50:33.436Z</time></trkpt><trkpt lat="42.2820887" lon="13.7092671"><ele>821.1666666666667</ele><time>2026-05-03T08:50:34.432Z</time></trkpt><trkpt lat="42.2820095" lon="13.7093327"><ele>821.3333333333334</ele><time>2026-05-03T08:50:35.437Z</time></trkpt><trkpt lat="42.2819322" lon="13.7093837"><ele>821.5</ele><time>2026-05-03T08:50:36.436Z</time></trkpt><trkpt lat="42.28186" lon="13.7094387"><ele>821.6666666666667</ele><time>2026-05-03T08:50:37.433Z</time></trkpt><trkpt lat="42.2817803" lon="13.7094944"><ele>821.8333333333334</ele><time>2026-05-03T08:50:38.437Z</time></trkpt><trkpt lat="42.281701" lon="13.7095424"><ele>822.0</ele><time>2026-05-03T08:50:39.434Z</time></trkpt><trkpt lat="42.2816214" lon="13.7095843"><ele>822.0</ele><time>2026-05-03T08:50:40.438Z</time></trkpt><trkpt lat="42.2815533" lon="13.7096198"><ele>822.0</ele><time>2026-05-03T08:50:41.434Z</time></trkpt><trkpt lat="42.2814976" lon="13.7096618"><ele>822.0</ele><time>2026-05-03T08:50:42.442Z</time></trkpt><trkpt lat="42.2814448" lon="13.7097198"><ele>822.0</ele><time>2026-05-03T08:50:43.436Z</time></trkpt><trkpt lat="42.2813868" lon="13.7097768"><ele>822.0</ele><time>2026-05-03T08:50:44.443Z</time></trkpt><trkpt lat="42.2813162" lon="13.7098322"><ele>822.0</ele><time>2026-05-03T08:50:45.435Z</time></trkpt><trkpt lat="42.2812347" lon="13.7098865"><ele>822.0</ele><time>2026-05-03T08:50:46.438Z</time></trkpt><trkpt lat="42.2811482" lon="13.7099202"><ele>826.2</ele><time>2026-05-03T08:50:47.44Z</time></trkpt><trkpt lat="42.2810556" lon="13.7099464"><ele>830.4000000000001</ele><time>2026-05-03T08:50:48.438Z</time></trkpt><trkpt lat="42.2809549" lon="13.7099714"><ele>834.5999999999999</ele><time>2026-05-03T08:50:49.445Z</time></trkpt><trkpt lat="42.2808632" lon="13.7099941"><ele>838.8</ele><time>2026-05-03T08:50:50.439Z</time></trkpt><trkpt lat="42.2807869" lon="13.7100258"><ele>843.0</ele><time>2026-05-03T08:50:51.447Z</time></trkpt><trkpt lat="42.2807061" lon="13.7100553"><ele>843.0</ele><time>2026-05-03T08:50:52.443Z</time></trkpt><trkpt lat="42.2806279" lon="13.7100729"><ele>843.0</ele><time>2026-05-03T08:50:53.458Z</time></trkpt><trkpt lat="42.2805405" lon="13.7100829"><ele>843.0</ele><time>2026-05-03T08:50:54.441Z</time></trkpt><trkpt lat="42.280448" lon="13.7100866"><ele>843.0</ele><time>2026-05-03T08:50:55.45Z</time></trkpt><trkpt lat="42.2803597" lon="13.7100783"><ele>843.0</ele><time>2026-05-03T08:50:56.442Z</time></trkpt><trkpt lat="42.2802705" lon="13.7100643"><ele>843.0</ele><time>2026-05-03T08:50:57.449Z</time></trkpt><trkpt lat="42.2801846" lon="13.7100543"><ele>844.8333333333334</ele><time>2026-05-03T08:50:58.441Z</time></trkpt><trkpt lat="42.2801023" lon="13.7100516"><ele>846.6666666666667</ele><time>2026-05-03T08:50:59.452Z</time></trkpt><trkpt lat="42.2800271" lon="13.7100694"><ele>848.5</ele><time>2026-05-03T08:51:00.445Z</time></trkpt><trkpt lat="42.2799581" lon="13.7100993"><ele>850.3333333333334</ele><time>2026-05-03T08:51:01.445Z</time></trkpt><trkpt lat="42.2798856" lon="13.7101217"><ele>852.1666666666667</ele><time>2026-05-03T08:51:02.436Z</time></trkpt><trkpt lat="42.2797961" lon="13.7101328"><ele>854.0</ele><time>2026-05-03T08:51:03.452Z</time></trkpt><trkpt lat="42.2796996" lon="13.710147"><ele>855.4000000000001</ele><time>2026-05-03T08:51:04.433Z</time></trkpt><trkpt lat="42.2795932" lon="13.7101496"><ele>856.8000000000001</ele><time>2026-05-03T08:51:05.449Z</time></trkpt><trkpt lat="42.2794809" lon="13.7101456"><ele>858.1999999999999</ele><time>2026-05-03T08:51:06.444Z</time></trkpt><trkpt lat="42.2793783" lon="13.7101294"><ele>859.5999999999999</ele><time>2026-05-03T08:51:07.442Z</time></trkpt><trkpt lat="42.2792926" lon="13.7101301"><ele>861.0</ele><time>2026-05-03T08:51:08.444Z</time></trkpt><trkpt lat="42.2792143" lon="13.7101219"><ele>861.0</ele><time>2026-05-03T08:51:09.442Z</time></trkpt><trkpt lat="42.2791411" lon="13.7100943"><ele>860.9999999999999</ele><time>2026-05-03T08:51:10.447Z</time></trkpt><trkpt lat="42.2790713" lon="13.7100469"><ele>860.9999999999999</ele><time>2026-05-03T08:51:11.444Z</time></trkpt><trkpt lat="42.2789865" lon="13.7100164"><ele>861.0</ele><time>2026-05-03T08:51:12.44Z</time></trkpt><trkpt lat="42.2788874" lon="13.7100115"><ele>861.0</ele><time>2026-05-03T08:51:13.442Z</time></trkpt><trkpt lat="42.278774" lon="13.7100247"><ele>863.5999999999999</ele><time>2026-05-03T08:51:14.437Z</time></trkpt><trkpt lat="42.2786598" lon="13.710041"><ele>866.1999999999999</ele><time>2026-05-03T08:51:15.435Z</time></trkpt><trkpt lat="42.278559" lon="13.7100574"><ele>868.8000000000001</ele><time>2026-05-03T08:51:16.44Z</time></trkpt><trkpt lat="42.2784728" lon="13.7100662"><ele>871.4000000000001</ele><time>2026-05-03T08:51:17.443Z</time></trkpt><trkpt lat="42.2783801" lon="13.7100845"><ele>874.0</ele><time>2026-05-03T08:51:18.444Z</time></trkpt><trkpt lat="42.2782762" lon="13.7101135"><ele>874.0</ele><time>2026-05-03T08:51:19.436Z</time></trkpt><trkpt lat="42.278172" lon="13.7101545"><ele>874.0000000000001</ele><time>2026-05-03T08:51:20.439Z</time></trkpt><trkpt lat="42.2780747" lon="13.7101935"><ele>874.0000000000001</ele><time>2026-05-03T08:51:21.444Z</time></trkpt><trkpt lat="42.2779829" lon="13.7102223"><ele>874.0</ele><time>2026-05-03T08:51:22.446Z</time></trkpt><trkpt lat="42.2778903" lon="13.7102474"><ele>874.0</ele><time>2026-05-03T08:51:23.452Z</time></trkpt><trkpt lat="42.2778007" lon="13.7102652"><ele>874.9999999999999</ele><time>2026-05-03T08:51:24.437Z</time></trkpt><trkpt lat="42.2777203" lon="13.7102696"><ele>876.0</ele><time>2026-05-03T08:51:25.452Z</time></trkpt><trkpt lat="42.2776514" lon="13.7102781"><ele>877.0</ele><time>2026-05-03T08:51:26.449Z</time></trkpt><trkpt lat="42.2775707" lon="13.7102914"><ele>878.0</ele><time>2026-05-03T08:51:27.451Z</time></trkpt><trkpt lat="42.2774813" lon="13.7102998"><ele>878.9999999999999</ele><time>2026-05-03T08:51:28.446Z</time></trkpt><trkpt lat="42.2773938" lon="13.7103109"><ele>880.0</ele><time>2026-05-03T08:51:29.458Z</time></trkpt><trkpt lat="42.2773282" lon="13.7103387"><ele>879.9999999999999</ele><time>2026-05-03T08:51:30.447Z</time></trkpt><trkpt lat="42.2772845" lon="13.7104186"><ele>880.0</ele><time>2026-05-03T08:51:32.452Z</time></trkpt><trkpt lat="42.2772282" lon="13.710491"><ele>880.0</ele><time>2026-05-03T08:51:35.454Z</time></trkpt><trkpt lat="42.2771579" lon="13.7105513"><ele>880.0</ele><time>2026-05-03T08:51:37.457Z</time></trkpt><trkpt lat="42.277074" lon="13.7105646"><ele>879.9999999999999</ele><time>2026-05-03T08:51:39.457Z</time></trkpt><trkpt lat="42.2769726" lon="13.7105802"><ele>880.0</ele><time>2026-05-03T08:51:41.457Z</time></trkpt><trkpt lat="42.2768574" lon="13.7106183"><ele>879.0</ele><time>2026-05-03T08:51:43.455Z</time></trkpt><trkpt lat="42.2767581" lon="13.7106584"><ele>878.0</ele><time>2026-05-03T08:51:45.447Z</time></trkpt><trkpt lat="42.276636" lon="13.7106821"><ele>877.0</ele><time>2026-05-03T08:51:47.445Z</time></trkpt><trkpt lat="42.2765727" lon="13.7106657"><ele>876.0</ele><time>2026-05-03T08:51:48.44Z</time></trkpt><trkpt lat="42.2765114" lon="13.7106432"><ele>875.0</ele><time>2026-05-03T08:51:49.45Z</time></trkpt><trkpt lat="42.2764078" lon="13.7106223"><ele>873.4</ele><time>2026-05-03T08:51:51.445Z</time></trkpt><trkpt lat="42.2762992" lon="13.7106"><ele>871.8</ele><time>2026-05-03T08:51:53.452Z</time></trkpt><trkpt lat="42.2761975" lon="13.7106064"><ele>870.2</ele><time>2026-05-03T08:51:55.44Z</time></trkpt><trkpt lat="42.276085" lon="13.7107155"><ele>868.6</ele><time>2026-05-03T08:51:57.443Z</time></trkpt><trkpt lat="42.2760185" lon="13.7107943"><ele>867.0</ele><time>2026-05-03T08:51:58.433Z</time></trkpt><trkpt lat="42.2759486" lon="13.7108693"><ele>867.0</ele><time>2026-05-03T08:51:59.435Z</time></trkpt><trkpt lat="42.2758607" lon="13.7109203"><ele>867.0</ele><time>2026-05-03T08:52:00.444Z</time></trkpt><trkpt lat="42.2757695" lon="13.7109464"><ele>867.0</ele><time>2026-05-03T08:52:01.431Z</time></trkpt><trkpt lat="42.2756844" lon="13.7109633"><ele>867.0</ele><time>2026-05-03T08:52:02.439Z</time></trkpt><trkpt lat="42.2756046" lon="13.7109772"><ele>867.0</ele><time>2026-05-03T08:52:03.434Z</time></trkpt><trkpt lat="42.2755305" lon="13.7110076"><ele>867.0</ele><time>2026-05-03T08:52:04.434Z</time></trkpt><trkpt lat="42.2754524" lon="13.7110613"><ele>868.2</ele><time>2026-05-03T08:52:05.427Z</time></trkpt><trkpt lat="42.2753627" lon="13.7111228"><ele>869.4000000000001</ele><time>2026-05-03T08:52:06.437Z</time></trkpt><trkpt lat="42.275273" lon="13.7111715"><ele>870.5999999999999</ele><time>2026-05-03T08:52:07.435Z</time></trkpt><trkpt lat="42.2751835" lon="13.7112254"><ele>871.8</ele><time>2026-05-03T08:52:08.433Z</time></trkpt><trkpt lat="42.2751071" lon="13.7112956"><ele>873.0</ele><time>2026-05-03T08:52:09.428Z</time></trkpt><trkpt lat="42.2750384" lon="13.7113683"><ele>873.0</ele><time>2026-05-03T08:52:10.44Z</time></trkpt><trkpt lat="42.2749761" lon="13.7114448"><ele>873.0</ele><time>2026-05-03T08:52:11.431Z</time></trkpt><trkpt lat="42.2749205" lon="13.7115208"><ele>873.0</ele><time>2026-05-03T08:52:12.438Z</time></trkpt><trkpt lat="42.2748758" lon="13.7115934"><ele>873.0</ele><time>2026-05-03T08:52:13.431Z</time></trkpt><trkpt lat="42.2748261" lon="13.7116556"><ele>873.0</ele><time>2026-05-03T08:52:14.43Z</time></trkpt><trkpt lat="42.2747676" lon="13.7117293"><ele>873.0</ele><time>2026-05-03T08:52:15.431Z</time></trkpt><trkpt lat="42.2747061" lon="13.7118072"><ele>873.1666666666666</ele><time>2026-05-03T08:52:16.44Z</time></trkpt><trkpt lat="42.2746483" lon="13.7118626"><ele>873.3333333333333</ele><time>2026-05-03T08:52:17.428Z</time></trkpt><trkpt lat="42.2745593" lon="13.7119405"><ele>873.5</ele><time>2026-05-03T08:52:19.432Z</time></trkpt><trkpt lat="42.2744794" lon="13.7120195"><ele>873.6666666666666</ele><time>2026-05-03T08:52:21.422Z</time></trkpt><trkpt lat="42.2744125" lon="13.7120756"><ele>873.8333333333333</ele><time>2026-05-03T08:52:22.435Z</time></trkpt><trkpt lat="42.2743403" lon="13.7121334"><ele>874.0</ele><time>2026-05-03T08:52:23.426Z</time></trkpt><trkpt lat="42.2742727" lon="13.7121667"><ele>873.9999999999999</ele><time>2026-05-03T08:52:24.429Z</time></trkpt><trkpt lat="42.2741791" lon="13.7121643"><ele>874.0</ele><time>2026-05-03T08:52:26.44Z</time></trkpt><trkpt lat="42.2740988" lon="13.7121259"><ele>874.0</ele><time>2026-05-03T08:52:29.435Z</time></trkpt><trkpt lat="42.274027" lon="13.7122051"><ele>874.0</ele><time>2026-05-03T08:52:31.444Z</time></trkpt><trkpt lat="42.273983" lon="13.7122953"><ele>873.9999999999999</ele><time>2026-05-03T08:52:32.438Z</time></trkpt><trkpt lat="42.2739347" lon="13.7124011"><ele>874.0</ele><time>2026-05-03T08:52:33.436Z</time></trkpt><trkpt lat="42.2738872" lon="13.7124974"><ele>876.6</ele><time>2026-05-03T08:52:34.431Z</time></trkpt><trkpt lat="42.273836" lon="13.7125594"><ele>879.2</ele><time>2026-05-03T08:52:36.426Z</time></trkpt><trkpt lat="42.2738408" lon="13.7123971"><ele>881.8000000000001</ele><time>2026-05-03T08:52:39.44Z</time></trkpt><trkpt lat="42.2738498" lon="13.7122516"><ele>884.4000000000001</ele><time>2026-05-03T08:52:40.43Z</time></trkpt><trkpt lat="42.2738421" lon="13.7120849"><ele>887.0</ele><time>2026-05-03T08:52:41.437Z</time></trkpt><trkpt lat="42.2738217" lon="13.7119219"><ele>885.6</ele><time>2026-05-03T08:52:42.432Z</time></trkpt><trkpt lat="42.2737866" lon="13.7117704"><ele>884.2</ele><time>2026-05-03T08:52:43.441Z</time></trkpt><trkpt lat="42.2737447" lon="13.7116415"><ele>882.8</ele><time>2026-05-03T08:52:44.434Z</time></trkpt><trkpt lat="42.2737047" lon="13.7115307"><ele>881.4</ele><time>2026-05-03T08:52:45.444Z</time></trkpt><trkpt lat="42.273661" lon="13.7114182"><ele>880.0</ele><time>2026-05-03T08:52:46.436Z</time></trkpt><trkpt lat="42.2736125" lon="13.7113068"><ele>879.9999999999999</ele><time>2026-05-03T08:52:47.436Z</time></trkpt><trkpt lat="42.2735732" lon="13.711207"><ele>880.0</ele><time>2026-05-03T08:52:48.43Z</time></trkpt><trkpt lat="42.2735408" lon="13.7111224"><ele>880.0</ele><time>2026-05-03T08:52:49.44Z</time></trkpt><trkpt lat="42.2735031" lon="13.7110401"><ele>880.0</ele><time>2026-05-03T08:52:50.432Z</time></trkpt><trkpt lat="42.2734581" lon="13.7109502"><ele>879.9999999999999</ele><time>2026-05-03T08:52:51.443Z</time></trkpt><trkpt lat="42.273411" lon="13.7108686"><ele>880.0</ele><time>2026-05-03T08:52:52.441Z</time></trkpt><trkpt lat="42.2733732" lon="13.7107864"><ele>880.4999999999999</ele><time>2026-05-03T08:52:53.454Z</time></trkpt><trkpt lat="42.2733321" lon="13.7106996"><ele>881.0</ele><time>2026-05-03T08:52:54.454Z</time></trkpt><trkpt lat="42.27329" lon="13.7106115"><ele>881.5</ele><time>2026-05-03T08:52:55.454Z</time></trkpt><trkpt lat="42.2732546" lon="13.7105281"><ele>882.0</ele><time>2026-05-03T08:52:56.453Z</time></trkpt><trkpt lat="42.2732084" lon="13.7104576"><ele>882.4999999999999</ele><time>2026-05-03T08:52:57.456Z</time></trkpt><trkpt lat="42.2731572" lon="13.7103956"><ele>883.0</ele><time>2026-05-03T08:52:58.448Z</time></trkpt><trkpt lat="42.2730689" lon="13.7103216"><ele>883.0</ele><time>2026-05-03T08:53:00.456Z</time></trkpt><trkpt lat="42.2729806" lon="13.7102977"><ele>883.0</ele><time>2026-05-03T08:53:02.459Z</time></trkpt><trkpt lat="42.2728396" lon="13.7103237"><ele>883.0</ele><time>2026-05-03T08:53:04.441Z</time></trkpt><trkpt lat="42.2727472" lon="13.7103404"><ele>883.0</ele><time>2026-05-03T08:53:05.444Z</time></trkpt><trkpt lat="42.2726436" lon="13.7103594"><ele>883.0</ele><time>2026-05-03T08:53:06.446Z</time></trkpt><trkpt lat="42.2725487" lon="13.7103734"><ele>883.0</ele><time>2026-05-03T08:53:07.449Z</time></trkpt><trkpt lat="42.2724757" lon="13.7103768"><ele>883.0</ele><time>2026-05-03T08:53:08.434Z</time></trkpt><trkpt lat="42.2723924" lon="13.7103459"><ele>883.0</ele><time>2026-05-03T08:53:10.448Z</time></trkpt><trkpt lat="42.2723432" lon="13.7101912"><ele>883.0</ele><time>2026-05-03T08:53:12.449Z</time></trkpt><trkpt lat="42.2723236" lon="13.7101095"><ele>883.0</ele><time>2026-05-03T08:53:13.452Z</time></trkpt><trkpt lat="42.2722548" lon="13.7100038"><ele>882.2</ele><time>2026-05-03T08:53:15.447Z</time></trkpt><trkpt lat="42.2721551" lon="13.7099734"><ele>881.4</ele><time>2026-05-03T08:53:17.454Z</time></trkpt><trkpt lat="42.2720521" lon="13.7099263"><ele>880.6000000000001</ele><time>2026-05-03T08:53:19.45Z</time></trkpt><trkpt lat="42.2719994" lon="13.7098725"><ele>879.8000000000001</ele><time>2026-05-03T08:53:20.455Z</time></trkpt><trkpt lat="42.2719466" lon="13.7097921"><ele>879.0</ele><time>2026-05-03T08:53:21.443Z</time></trkpt><trkpt lat="42.2718867" lon="13.7096914"><ele>879.0</ele><time>2026-05-03T08:53:22.454Z</time></trkpt><trkpt lat="42.2718295" lon="13.7095883"><ele>879.0000000000001</ele><time>2026-05-03T08:53:23.451Z</time></trkpt><trkpt lat="42.2717843" lon="13.7094854"><ele>879.0000000000001</ele><time>2026-05-03T08:53:24.459Z</time></trkpt><trkpt lat="42.271754" lon="13.70937"><ele>879.0</ele><time>2026-05-03T08:53:25.449Z</time></trkpt><trkpt lat="42.271731" lon="13.7092463"><ele>879.0</ele><time>2026-05-03T08:53:26.456Z</time></trkpt><trkpt lat="42.271718" lon="13.7091378"><ele>878.8333333333334</ele><time>2026-05-03T08:53:27.445Z</time></trkpt><trkpt lat="42.2717094" lon="13.7090509"><ele>878.6666666666667</ele><time>2026-05-03T08:53:28.456Z</time></trkpt><trkpt lat="42.2716785" lon="13.7089081"><ele>878.5</ele><time>2026-05-03T08:53:30.457Z</time></trkpt><trkpt lat="42.271651" lon="13.7087433"><ele>878.3333333333334</ele><time>2026-05-03T08:53:32.454Z</time></trkpt><trkpt lat="42.2716398" lon="13.7086575"><ele>878.1666666666667</ele><time>2026-05-03T08:53:33.449Z</time></trkpt><trkpt lat="42.271625" lon="13.7085711"><ele>878.0</ele><time>2026-05-03T08:53:34.45Z</time></trkpt><trkpt lat="42.2716119" lon="13.7084746"><ele>877.5000000000001</ele><time>2026-05-03T08:53:35.448Z</time></trkpt><trkpt lat="42.271607" lon="13.7083678"><ele>877.0</ele><time>2026-05-03T08:53:36.455Z</time></trkpt><trkpt lat="42.2716057" lon="13.7082464"><ele>876.5</ele><time>2026-05-03T08:53:37.448Z</time></trkpt><trkpt lat="42.2716047" lon="13.7081207"><ele>876.0</ele><time>2026-05-03T08:53:38.454Z</time></trkpt><trkpt lat="42.2716035" lon="13.7080021"><ele>875.5000000000001</ele><time>2026-05-03T08:53:39.442Z</time></trkpt><trkpt lat="42.2716013" lon="13.7078884"><ele>875.0</ele><time>2026-05-03T08:53:40.45Z</time></trkpt><trkpt lat="42.2715982" lon="13.7077757"><ele>874.2857142857143</ele><time>2026-05-03T08:53:41.457Z</time></trkpt><trkpt lat="42.2715868" lon="13.7076748"><ele>873.5714285714286</ele><time>2026-05-03T08:53:42.447Z</time></trkpt><trkpt lat="42.2715756" lon="13.7075811"><ele>872.8571428571429</ele><time>2026-05-03T08:53:43.451Z</time></trkpt><trkpt lat="42.271567" lon="13.7074813"><ele>872.1428571428571</ele><time>2026-05-03T08:53:44.444Z</time></trkpt><trkpt lat="42.2715725" lon="13.7073781"><ele>871.4285714285714</ele><time>2026-05-03T08:53:45.455Z</time></trkpt><trkpt lat="42.2715926" lon="13.7072787"><ele>870.7142857142858</ele><time>2026-05-03T08:53:46.45Z</time></trkpt><trkpt lat="42.2716204" lon="13.7071831"><ele>870.0</ele><time>2026-05-03T08:53:47.447Z</time></trkpt><trkpt lat="42.2716426" lon="13.7070896"><ele>870.0000000000001</ele><time>2026-05-03T08:53:48.444Z</time></trkpt><trkpt lat="42.2716572" lon="13.706997"><ele>870.0</ele><time>2026-05-03T08:53:49.446Z</time></trkpt><trkpt lat="42.2716689" lon="13.7069071"><ele>870.0</ele><time>2026-05-03T08:53:50.447Z</time></trkpt><trkpt lat="42.2716846" lon="13.7068073"><ele>870.0</ele><time>2026-05-03T08:53:51.444Z</time></trkpt><trkpt lat="42.2716951" lon="13.7067132"><ele>870.0</ele><time>2026-05-03T08:53:52.448Z</time></trkpt><trkpt lat="42.2717017" lon="13.7066143"><ele>870.0000000000001</ele><time>2026-05-03T08:53:53.45Z</time></trkpt><trkpt lat="42.2717101" lon="13.7065184"><ele>870.0</ele><time>2026-05-03T08:53:54.448Z</time></trkpt><trkpt lat="42.2717218" lon="13.706417"><ele>868.5</ele><time>2026-05-03T08:53:55.442Z</time></trkpt><trkpt lat="42.2717291" lon="13.7063151"><ele>867.0</ele><time>2026-05-03T08:53:56.445Z</time></trkpt><trkpt lat="42.2717321" lon="13.7062132"><ele>865.5</ele><time>2026-05-03T08:53:57.441Z</time></trkpt><trkpt lat="42.2717327" lon="13.7061108"><ele>864.0</ele><time>2026-05-03T08:53:58.444Z</time></trkpt><trkpt lat="42.2717318" lon="13.7060122"><ele>862.5</ele><time>2026-05-03T08:53:59.447Z</time></trkpt><trkpt lat="42.2717337" lon="13.7059075"><ele>861.0</ele><time>2026-05-03T08:54:00.449Z</time></trkpt><trkpt lat="42.2717329" lon="13.705801"><ele>859.8333333333334</ele><time>2026-05-03T08:54:01.444Z</time></trkpt><trkpt lat="42.2717249" lon="13.7056946"><ele>858.6666666666667</ele><time>2026-05-03T08:54:02.442Z</time></trkpt><trkpt lat="42.2717131" lon="13.7055921"><ele>857.5</ele><time>2026-05-03T08:54:03.441Z</time></trkpt><trkpt lat="42.2717008" lon="13.7054903"><ele>856.3333333333334</ele><time>2026-05-03T08:54:04.448Z</time></trkpt><trkpt lat="42.2716775" lon="13.705394"><ele>855.1666666666667</ele><time>2026-05-03T08:54:05.447Z</time></trkpt><trkpt lat="42.2716532" lon="13.7053088"><ele>854.0</ele><time>2026-05-03T08:54:06.441Z</time></trkpt><trkpt lat="42.271615" lon="13.7051727"><ele>853.1666666666667</ele><time>2026-05-03T08:54:08.44Z</time></trkpt><trkpt lat="42.2715638" lon="13.7050636"><ele>852.3333333333334</ele><time>2026-05-03T08:54:10.439Z</time></trkpt><trkpt lat="42.2714477" lon="13.7050077"><ele>851.5</ele><time>2026-05-03T08:54:12.442Z</time></trkpt><trkpt lat="42.2713858" lon="13.7049708"><ele>850.6666666666667</ele><time>2026-05-03T08:54:13.437Z</time></trkpt><trkpt lat="42.2713283" lon="13.7049163"><ele>849.8333333333334</ele><time>2026-05-03T08:54:14.441Z</time></trkpt><trkpt lat="42.2712754" lon="13.7048655"><ele>849.0</ele><time>2026-05-03T08:54:15.443Z</time></trkpt><trkpt lat="42.2711636" lon="13.7047803"><ele>848.1666666666666</ele><time>2026-05-03T08:54:17.435Z</time></trkpt><trkpt lat="42.2711035" lon="13.7047013"><ele>847.3333333333333</ele><time>2026-05-03T08:54:18.437Z</time></trkpt><trkpt lat="42.2710554" lon="13.7046223"><ele>846.5</ele><time>2026-05-03T08:54:19.436Z</time></trkpt><trkpt lat="42.2710205" lon="13.7045399"><ele>845.6666666666666</ele><time>2026-05-03T08:54:20.441Z</time></trkpt><trkpt lat="42.2709753" lon="13.704447"><ele>844.8333333333333</ele><time>2026-05-03T08:54:21.441Z</time></trkpt><trkpt lat="42.2709276" lon="13.7043475"><ele>844.0</ele><time>2026-05-03T08:54:22.435Z</time></trkpt><trkpt lat="42.2708899" lon="13.7042453"><ele>842.6</ele><time>2026-05-03T08:54:23.448Z</time></trkpt><trkpt lat="42.2708578" lon="13.7041536"><ele>841.2</ele><time>2026-05-03T08:54:24.443Z</time></trkpt><trkpt lat="42.2708205" lon="13.7040758"><ele>839.8000000000001</ele><time>2026-05-03T08:54:25.45Z</time></trkpt><trkpt lat="42.2707485" lon="13.703961"><ele>838.4000000000001</ele><time>2026-05-03T08:54:27.448Z</time></trkpt><trkpt lat="42.2706247" lon="13.7039233"><ele>837.0</ele><time>2026-05-03T08:54:29.453Z</time></trkpt><trkpt lat="42.2705245" lon="13.7038967"><ele>836.6666666666666</ele><time>2026-05-03T08:54:31.458Z</time></trkpt><trkpt lat="42.2704419" lon="13.7038745"><ele>836.3333333333333</ele><time>2026-05-03T08:54:33.455Z</time></trkpt><trkpt lat="42.2703503" lon="13.7038897"><ele>836.0</ele><time>2026-05-03T08:54:35.452Z</time></trkpt><trkpt lat="42.2702721" lon="13.7038971"><ele>835.6666666666666</ele><time>2026-05-03T08:54:36.443Z</time></trkpt><trkpt lat="42.2701844" lon="13.7039008"><ele>835.3333333333333</ele><time>2026-05-03T08:54:37.451Z</time></trkpt><trkpt lat="42.2701059" lon="13.7039006"><ele>835.0</ele><time>2026-05-03T08:54:38.446Z</time></trkpt><trkpt lat="42.2700087" lon="13.7038738"><ele>835.0</ele><time>2026-05-03T08:54:40.439Z</time></trkpt><trkpt lat="42.2699337" lon="13.7037533"><ele>835.0</ele><time>2026-05-03T08:54:42.441Z</time></trkpt><trkpt lat="42.2698857" lon="13.703687"><ele>835.0</ele><time>2026-05-03T08:54:43.441Z</time></trkpt><trkpt lat="42.2697802" lon="13.7036057"><ele>835.0</ele><time>2026-05-03T08:54:45.443Z</time></trkpt><trkpt lat="42.2696978" lon="13.7035664"><ele>835.0</ele><time>2026-05-03T08:54:46.458Z</time></trkpt><trkpt lat="42.2696068" lon="13.7035198"><ele>833.3333333333333</ele><time>2026-05-03T08:54:47.452Z</time></trkpt><trkpt lat="42.2695229" lon="13.7034777"><ele>831.6666666666666</ele><time>2026-05-03T08:54:48.461Z</time></trkpt><trkpt lat="42.2694429" lon="13.7034483"><ele>830.0</ele><time>2026-05-03T08:54:49.454Z</time></trkpt><trkpt lat="42.2693622" lon="13.7034277"><ele>828.3333333333333</ele><time>2026-05-03T08:54:50.464Z</time></trkpt><trkpt lat="42.2692851" lon="13.7034144"><ele>826.6666666666666</ele><time>2026-05-03T08:54:51.459Z</time></trkpt><trkpt lat="42.2692112" lon="13.7033897"><ele>825.0</ele><time>2026-05-03T08:54:52.461Z</time></trkpt><trkpt lat="42.2691445" lon="13.7033499"><ele>825.0</ele><time>2026-05-03T08:54:53.452Z</time></trkpt><trkpt lat="42.2690877" lon="13.7032956"><ele>825.0</ele><time>2026-05-03T08:54:54.458Z</time></trkpt><trkpt lat="42.2689937" lon="13.7031989"><ele>825.0</ele><time>2026-05-03T08:54:56.461Z</time></trkpt><trkpt lat="42.2689363" lon="13.7031593"><ele>825.0</ele><time>2026-05-03T08:54:57.452Z</time></trkpt><trkpt lat="42.2688251" lon="13.7030895"><ele>825.0</ele><time>2026-05-03T08:54:59.455Z</time></trkpt><trkpt lat="42.2687362" lon="13.7030707"><ele>824.0</ele><time>2026-05-03T08:55:01.448Z</time></trkpt><trkpt lat="42.2686552" lon="13.7031395"><ele>823.0</ele><time>2026-05-03T08:55:06.457Z</time></trkpt><trkpt lat="42.2685589" lon="13.7032832"><ele>822.0</ele><time>2026-05-03T08:55:08.454Z</time></trkpt><trkpt lat="42.2684885" lon="13.7033855"><ele>821.0</ele><time>2026-05-03T08:55:09.445Z</time></trkpt><trkpt lat="42.268423" lon="13.703492"><ele>820.0</ele><time>2026-05-03T08:55:10.448Z</time></trkpt><trkpt lat="42.268362" lon="13.7036056"><ele>819.9999999999999</ele><time>2026-05-03T08:55:11.452Z</time></trkpt><trkpt lat="42.2683028" lon="13.703713"><ele>820.0</ele><time>2026-05-03T08:55:12.447Z</time></trkpt><trkpt lat="42.2682506" lon="13.7038059"><ele>820.0</ele><time>2026-05-03T08:55:13.455Z</time></trkpt><trkpt lat="42.2682108" lon="13.7038843"><ele>820.0</ele><time>2026-05-03T08:55:14.448Z</time></trkpt><trkpt lat="42.2681487" lon="13.7040211"><ele>819.9999999999999</ele><time>2026-05-03T08:55:16.443Z</time></trkpt><trkpt lat="42.2681213" lon="13.7041033"><ele>820.0</ele><time>2026-05-03T08:55:17.456Z</time></trkpt><trkpt lat="42.2681008" lon="13.7042032"><ele>819.4999999999999</ele><time>2026-05-03T08:55:18.45Z</time></trkpt><trkpt lat="42.2680827" lon="13.7043086"><ele>819.0</ele><time>2026-05-03T08:55:19.456Z</time></trkpt><trkpt lat="42.2680608" lon="13.7044015"><ele>818.5</ele><time>2026-05-03T08:55:20.451Z</time></trkpt><trkpt lat="42.2680372" lon="13.7044915"><ele>818.0</ele><time>2026-05-03T08:55:21.459Z</time></trkpt><trkpt lat="42.2680129" lon="13.7045861"><ele>817.4999999999999</ele><time>2026-05-03T08:55:22.452Z</time></trkpt><trkpt lat="42.2679898" lon="13.7046768"><ele>817.0</ele><time>2026-05-03T08:55:23.458Z</time></trkpt><trkpt lat="42.2679682" lon="13.7048142"><ele>816.9999999999999</ele><time>2026-05-03T08:55:25.459Z</time></trkpt><trkpt lat="42.2679371" lon="13.7047386"><ele>817.0</ele><time>2026-05-03T08:55:42.45Z</time></trkpt><trkpt lat="42.2679343" lon="13.7046479"><ele>817.0</ele><time>2026-05-03T08:55:43.451Z</time></trkpt><trkpt lat="42.2679294" lon="13.7045318"><ele>817.0</ele><time>2026-05-03T08:55:44.459Z</time></trkpt><trkpt lat="42.2679168" lon="13.7044285"><ele>816.9999999999999</ele><time>2026-05-03T08:55:45.451Z</time></trkpt><trkpt lat="42.2679012" lon="13.7043404"><ele>817.0</ele><time>2026-05-03T08:55:46.458Z</time></trkpt><trkpt lat="42.2678696" lon="13.7042023"><ele>817.0</ele><time>2026-05-03T08:55:48.456Z</time></trkpt><trkpt lat="42.267789" lon="13.7041133"><ele>817.0</ele><time>2026-05-03T08:55:50.45Z</time></trkpt><trkpt lat="42.2676655" lon="13.7040935"><ele>817.0</ele><time>2026-05-03T08:55:52.46Z</time></trkpt><trkpt lat="42.2675949" lon="13.7040807"><ele>817.0</ele><time>2026-05-03T08:55:53.442Z</time></trkpt><trkpt lat="42.2675214" lon="13.7040373"><ele>817.0</ele><time>2026-05-03T08:55:54.453Z</time></trkpt><trkpt lat="42.2674524" lon="13.7039653"><ele>817.0</ele><time>2026-05-03T08:55:55.444Z</time></trkpt><trkpt lat="42.2673819" lon="13.7038885"><ele>817.0</ele><time>2026-05-03T08:55:56.452Z</time></trkpt><trkpt lat="42.2673141" lon="13.7038162"><ele>817.0</ele><time>2026-05-03T08:55:57.439Z</time></trkpt><trkpt lat="42.2672392" lon="13.7037341"><ele>817.0</ele><time>2026-05-03T08:55:58.449Z</time></trkpt><trkpt lat="42.2671593" lon="13.7036456"><ele>817.0</ele><time>2026-05-03T08:55:59.447Z</time></trkpt><trkpt lat="42.2670746" lon="13.7035435"><ele>816.0</ele><time>2026-05-03T08:56:00.454Z</time></trkpt><trkpt lat="42.2669987" lon="13.7034396"><ele>815.0</ele><time>2026-05-03T08:56:01.449Z</time></trkpt><trkpt lat="42.2669267" lon="13.7033455"><ele>814.0</ele><time>2026-05-03T08:56:02.451Z</time></trkpt><trkpt lat="42.2668578" lon="13.7032519"><ele>813.0</ele><time>2026-05-03T08:56:03.445Z</time></trkpt><trkpt lat="42.2667957" lon="13.7031544"><ele>812.0</ele><time>2026-05-03T08:56:04.457Z</time></trkpt><trkpt lat="42.2667487" lon="13.7030646"><ele>812.0000000000001</ele><time>2026-05-03T08:56:05.443Z</time></trkpt><trkpt lat="42.2667138" lon="13.7029847"><ele>812.0</ele><time>2026-05-03T08:56:06.45Z</time></trkpt><trkpt lat="42.2666548" lon="13.7028598"><ele>812.0</ele><time>2026-05-03T08:56:08.444Z</time></trkpt><trkpt lat="42.2665965" lon="13.7028043"><ele>812.0</ele><time>2026-05-03T08:56:10.454Z</time></trkpt><trkpt lat="42.2664957" lon="13.7028427"><ele>812.0000000000001</ele><time>2026-05-03T08:56:12.452Z</time></trkpt><trkpt lat="42.2664234" lon="13.7028951"><ele>812.0</ele><time>2026-05-03T08:56:13.459Z</time></trkpt><trkpt lat="42.2663422" lon="13.7029645"><ele>810.8</ele><time>2026-05-03T08:56:14.452Z</time></trkpt><trkpt lat="42.2662502" lon="13.7030474"><ele>809.6</ele><time>2026-05-03T08:56:15.459Z</time></trkpt><trkpt lat="42.266157" lon="13.7031312"><ele>808.4</ele><time>2026-05-03T08:56:16.46Z</time></trkpt><trkpt lat="42.2660594" lon="13.7032105"><ele>807.1999999999999</ele><time>2026-05-03T08:56:17.453Z</time></trkpt><trkpt lat="42.2659704" lon="13.7032818"><ele>806.0</ele><time>2026-05-03T08:56:18.457Z</time></trkpt><trkpt lat="42.2658876" lon="13.7033429"><ele>806.0</ele><time>2026-05-03T08:56:19.451Z</time></trkpt><trkpt lat="42.2657943" lon="13.7033861"><ele>806.0</ele><time>2026-05-03T08:56:20.457Z</time></trkpt><trkpt lat="42.2656906" lon="13.7034054"><ele>806.0</ele><time>2026-05-03T08:56:21.443Z</time></trkpt><trkpt lat="42.2655725" lon="13.7034099"><ele>806.0</ele><time>2026-05-03T08:56:22.454Z</time></trkpt><trkpt lat="42.2654408" lon="13.7034105"><ele>805.75</ele><time>2026-05-03T08:56:23.45Z</time></trkpt><trkpt lat="42.2653016" lon="13.7034075"><ele>805.5</ele><time>2026-05-03T08:56:24.45Z</time></trkpt><trkpt lat="42.265165" lon="13.7033969"><ele>805.25</ele><time>2026-05-03T08:56:25.454Z</time></trkpt><trkpt lat="42.2650501" lon="13.7034178"><ele>805.0</ele><time>2026-05-03T08:56:26.452Z</time></trkpt><trkpt lat="42.2649352" lon="13.7034106"><ele>805.0</ele><time>2026-05-03T08:56:27.458Z</time></trkpt><trkpt lat="42.2648268" lon="13.7034306"><ele>805.0</ele><time>2026-05-03T08:56:28.453Z</time></trkpt><trkpt lat="42.2646924" lon="13.7034165"><ele>805.0</ele><time>2026-05-03T08:56:29.461Z</time></trkpt><trkpt lat="42.2645785" lon="13.7033894"><ele>805.0</ele><time>2026-05-03T08:56:30.45Z</time></trkpt><trkpt lat="42.264473" lon="13.7033272"><ele>805.4</ele><time>2026-05-03T08:56:31.456Z</time></trkpt><trkpt lat="42.2643734" lon="13.703283"><ele>805.8</ele><time>2026-05-03T08:56:32.452Z</time></trkpt><trkpt lat="42.2642842" lon="13.7032305"><ele>806.2</ele><time>2026-05-03T08:56:33.462Z</time></trkpt><trkpt lat="42.2642083" lon="13.7031792"><ele>806.6</ele><time>2026-05-03T08:56:34.447Z</time></trkpt><trkpt lat="42.2641249" lon="13.7031152"><ele>807.0</ele><time>2026-05-03T08:56:35.457Z</time></trkpt><trkpt lat="42.264054" lon="13.7030552"><ele>807.0</ele><time>2026-05-03T08:56:36.45Z</time></trkpt><trkpt lat="42.2639953" lon="13.7029944"><ele>807.0</ele><time>2026-05-03T08:56:37.447Z</time></trkpt><trkpt lat="42.2639509" lon="13.7029189"><ele>807.0</ele><time>2026-05-03T08:56:38.456Z</time></trkpt><trkpt lat="42.2639111" lon="13.7028273"><ele>807.0</ele><time>2026-05-03T08:56:39.448Z</time></trkpt><trkpt lat="42.2638805" lon="13.7027201"><ele>807.0</ele><time>2026-05-03T08:56:40.456Z</time></trkpt><trkpt lat="42.2638434" lon="13.7025978"><ele>807.0</ele><time>2026-05-03T08:56:41.436Z</time></trkpt><trkpt lat="42.2638091" lon="13.7024724"><ele>806.6666666666666</ele><time>2026-05-03T08:56:42.446Z</time></trkpt><trkpt lat="42.2637745" lon="13.7023608"><ele>806.3333333333333</ele><time>2026-05-03T08:56:43.443Z</time></trkpt><trkpt lat="42.2637408" lon="13.7022611"><ele>806.0</ele><time>2026-05-03T08:56:44.444Z</time></trkpt><trkpt lat="42.2637106" lon="13.7021606"><ele>805.6666666666666</ele><time>2026-05-03T08:56:45.444Z</time></trkpt><trkpt lat="42.2636736" lon="13.702054"><ele>805.3333333333333</ele><time>2026-05-03T08:56:46.447Z</time></trkpt><trkpt lat="42.2636139" lon="13.7019562"><ele>805.0</ele><time>2026-05-03T08:56:47.438Z</time></trkpt><trkpt lat="42.2635404" lon="13.7018528"><ele>804.6</ele><time>2026-05-03T08:56:48.453Z</time></trkpt><trkpt lat="42.2634714" lon="13.7017496"><ele>804.2</ele><time>2026-05-03T08:56:49.443Z</time></trkpt><trkpt lat="42.2634163" lon="13.7016567"><ele>803.8</ele><time>2026-05-03T08:56:50.438Z</time></trkpt><trkpt lat="42.2633646" lon="13.701581"><ele>803.4</ele><time>2026-05-03T08:56:51.441Z</time></trkpt><trkpt lat="42.2632614" lon="13.7015388"><ele>803.0</ele><time>2026-05-03T08:56:53.447Z</time></trkpt><trkpt lat="42.2631838" lon="13.701561"><ele>806.8</ele><time>2026-05-03T08:56:54.436Z</time></trkpt><trkpt lat="42.2630902" lon="13.7015877"><ele>810.5999999999999</ele><time>2026-05-03T08:56:55.439Z</time></trkpt><trkpt lat="42.262979" lon="13.7016086"><ele>814.4000000000001</ele><time>2026-05-03T08:56:56.441Z</time></trkpt><trkpt lat="42.2628739" lon="13.7016584"><ele>818.2</ele><time>2026-05-03T08:56:57.442Z</time></trkpt><trkpt lat="42.2627641" lon="13.7017482"><ele>822.0</ele><time>2026-05-03T08:56:58.446Z</time></trkpt><trkpt lat="42.2626545" lon="13.7018581"><ele>817.3333333333333</ele><time>2026-05-03T08:56:59.436Z</time></trkpt><trkpt lat="42.2625431" lon="13.7019793"><ele>812.6666666666666</ele><time>2026-05-03T08:57:00.443Z</time></trkpt><trkpt lat="42.2624211" lon="13.7021282"><ele>808.0</ele><time>2026-05-03T08:57:01.428Z</time></trkpt><trkpt lat="42.2622919" lon="13.7022347"><ele>813.0</ele><time>2026-05-03T08:57:02.439Z</time></trkpt><trkpt lat="42.2622046" lon="13.7022918"><ele>818.0</ele><time>2026-05-03T08:57:03.43Z</time></trkpt><trkpt lat="42.2621013" lon="13.7023427"><ele>823.0</ele><time>2026-05-03T08:57:04.432Z</time></trkpt><trkpt lat="42.2619977" lon="13.7024071"><ele>828.0</ele><time>2026-05-03T08:57:05.44Z</time></trkpt><trkpt lat="42.2619099" lon="13.7024939"><ele>833.0</ele><time>2026-05-03T08:57:06.434Z</time></trkpt><trkpt lat="42.2618063" lon="13.7025891"><ele>833.0</ele><time>2026-05-03T08:57:07.439Z</time></trkpt><trkpt lat="42.2617107" lon="13.7027001"><ele>833.0</ele><time>2026-05-03T08:57:08.431Z</time></trkpt><trkpt lat="42.2616128" lon="13.7028038"><ele>833.0</ele><time>2026-05-03T08:57:09.447Z</time></trkpt><trkpt lat="42.2615234" lon="13.7028817"><ele>833.0</ele><time>2026-05-03T08:57:10.429Z</time></trkpt><trkpt lat="42.2614411" lon="13.7029553"><ele>832.4</ele><time>2026-05-03T08:57:11.437Z</time></trkpt><trkpt lat="42.2613547" lon="13.7030224"><ele>831.8</ele><time>2026-05-03T08:57:12.433Z</time></trkpt><trkpt lat="42.2612603" lon="13.7030789"><ele>831.2</ele><time>2026-05-03T08:57:13.437Z</time></trkpt><trkpt lat="42.2611617" lon="13.7031369"><ele>830.6</ele><time>2026-05-03T08:57:14.432Z</time></trkpt><trkpt lat="42.2610595" lon="13.7031927"><ele>830.0</ele><time>2026-05-03T08:57:15.439Z</time></trkpt><trkpt lat="42.2609529" lon="13.7032499"><ele>830.0</ele><time>2026-05-03T08:57:16.442Z</time></trkpt><trkpt lat="42.2608477" lon="13.7033178"><ele>830.0</ele><time>2026-05-03T08:57:17.438Z</time></trkpt><trkpt lat="42.2607259" lon="13.7033796"><ele>830.0</ele><time>2026-05-03T08:57:18.44Z</time></trkpt><trkpt lat="42.260588" lon="13.7034303"><ele>830.0</ele><time>2026-05-03T08:57:19.441Z</time></trkpt><trkpt lat="42.260426" lon="13.703458"><ele>830.0</ele><time>2026-05-03T08:57:20.438Z</time></trkpt><trkpt lat="42.2602846" lon="13.70345"><ele>830.0</ele><time>2026-05-03T08:57:21.442Z</time></trkpt><trkpt lat="42.2601605" lon="13.7034678"><ele>830.0</ele><time>2026-05-03T08:57:22.446Z</time></trkpt><trkpt lat="42.2600776" lon="13.7035056"><ele>830.0</ele><time>2026-05-03T08:57:23.439Z</time></trkpt><trkpt lat="42.2600034" lon="13.7035132"><ele>830.0</ele><time>2026-05-03T08:57:24.44Z</time></trkpt><trkpt lat="42.2599132" lon="13.7035304"><ele>830.0</ele><time>2026-05-03T08:57:26.44Z</time></trkpt><trkpt lat="42.2598728" lon="13.703422"><ele>830.0</ele><time>2026-05-03T08:57:28.443Z</time></trkpt><trkpt lat="42.2598532" lon="13.7033121"><ele>830.0</ele><time>2026-05-03T08:57:29.445Z</time></trkpt><trkpt lat="42.2598458" lon="13.7031499"><ele>830.0</ele><time>2026-05-03T08:57:30.448Z</time></trkpt><trkpt lat="42.2598402" lon="13.7029766"><ele>830.0</ele><time>2026-05-03T08:57:31.45Z</time></trkpt><trkpt lat="42.2598393" lon="13.7028172"><ele>831.1666666666667</ele><time>2026-05-03T08:57:32.45Z</time></trkpt><trkpt lat="42.2598395" lon="13.7026758"><ele>832.3333333333334</ele><time>2026-05-03T08:57:33.451Z</time></trkpt><trkpt lat="42.2598386" lon="13.7025571"><ele>833.5</ele><time>2026-05-03T08:57:34.452Z</time></trkpt><trkpt lat="42.2598372" lon="13.7024543"><ele>834.6666666666667</ele><time>2026-05-03T08:57:35.445Z</time></trkpt><trkpt lat="42.2598409" lon="13.7023551"><ele>835.8333333333334</ele><time>2026-05-03T08:57:36.458Z</time></trkpt><trkpt lat="42.2598504" lon="13.7022583"><ele>837.0</ele><time>2026-05-03T08:57:37.448Z</time></trkpt><trkpt lat="42.2598701" lon="13.702154"><ele>837.0</ele><time>2026-05-03T08:57:38.458Z</time></trkpt><trkpt lat="42.2598857" lon="13.7020466"><ele>837.0</ele><time>2026-05-03T08:57:39.448Z</time></trkpt><trkpt lat="42.2599009" lon="13.7019364"><ele>837.0</ele><time>2026-05-03T08:57:40.463Z</time></trkpt><trkpt lat="42.2599205" lon="13.7018273"><ele>837.0</ele><time>2026-05-03T08:57:41.454Z</time></trkpt><trkpt lat="42.2599394" lon="13.7017099"><ele>837.0</ele><time>2026-05-03T08:57:42.459Z</time></trkpt><trkpt lat="42.2599405" lon="13.701587"><ele>837.0</ele><time>2026-05-03T08:57:43.448Z</time></trkpt><trkpt lat="42.2599263" lon="13.7014676"><ele>835.8</ele><time>2026-05-03T08:57:44.458Z</time></trkpt><trkpt lat="42.2598852" lon="13.7013571"><ele>834.6</ele><time>2026-05-03T08:57:45.45Z</time></trkpt><trkpt lat="42.2598196" lon="13.7012746"><ele>833.4</ele><time>2026-05-03T08:57:46.453Z</time></trkpt><trkpt lat="42.2597344" lon="13.7012153"><ele>832.1999999999999</ele><time>2026-05-03T08:57:47.439Z</time></trkpt><trkpt lat="42.2596259" lon="13.7011617"><ele>831.0</ele><time>2026-05-03T08:57:48.444Z</time></trkpt><trkpt lat="42.2595013" lon="13.7011082"><ele>839.6666666666667</ele><time>2026-05-03T08:57:49.448Z</time></trkpt><trkpt lat="42.2593632" lon="13.7010458"><ele>848.3333333333334</ele><time>2026-05-03T08:57:50.437Z</time></trkpt><trkpt lat="42.2592247" lon="13.7009733"><ele>857.0</ele><time>2026-05-03T08:57:51.46Z</time></trkpt><trkpt lat="42.2590567" lon="13.7009272"><ele>855.5</ele><time>2026-05-03T08:57:52.445Z</time></trkpt><trkpt lat="42.2588923" lon="13.7009175"><ele>854.0</ele><time>2026-05-03T08:57:53.453Z</time></trkpt><trkpt lat="42.2587438" lon="13.7008735"><ele>852.5</ele><time>2026-05-03T08:57:54.432Z</time></trkpt><trkpt lat="42.2586306" lon="13.7008092"><ele>851.0</ele><time>2026-05-03T08:57:55.442Z</time></trkpt><trkpt lat="42.2585111" lon="13.7007229"><ele>851.0</ele><time>2026-05-03T08:57:56.436Z</time></trkpt><trkpt lat="42.2583877" lon="13.7006485"><ele>851.0</ele><time>2026-05-03T08:57:57.442Z</time></trkpt><trkpt lat="42.2582641" lon="13.700604"><ele>851.0</ele><time>2026-05-03T08:57:58.434Z</time></trkpt><trkpt lat="42.258153" lon="13.7005663"><ele>851.0</ele><time>2026-05-03T08:57:59.436Z</time></trkpt><trkpt lat="42.2580362" lon="13.7005365"><ele>853.0</ele><time>2026-05-03T08:58:00.432Z</time></trkpt><trkpt lat="42.257906" lon="13.7005256"><ele>855.0</ele><time>2026-05-03T08:58:01.441Z</time></trkpt><trkpt lat="42.2577806" lon="13.7005211"><ele>857.0</ele><time>2026-05-03T08:58:02.439Z</time></trkpt><trkpt lat="42.2576633" lon="13.700534"><ele>859.0</ele><time>2026-05-03T08:58:03.442Z</time></trkpt><trkpt lat="42.2575474" lon="13.700573"><ele>859.0</ele><time>2026-05-03T08:58:04.443Z</time></trkpt><trkpt lat="42.2574423" lon="13.7006399"><ele>859.0000000000001</ele><time>2026-05-03T08:58:05.439Z</time></trkpt><trkpt lat="42.2573453" lon="13.7007199"><ele>859.0000000000001</ele><time>2026-05-03T08:58:06.45Z</time></trkpt><trkpt lat="42.2572535" lon="13.7007923"><ele>859.0</ele><time>2026-05-03T08:58:07.438Z</time></trkpt><trkpt lat="42.2571782" lon="13.7008451"><ele>859.0</ele><time>2026-05-03T08:58:08.448Z</time></trkpt><trkpt lat="42.2571117" lon="13.7008263"><ele>858.0</ele><time>2026-05-03T08:58:10.445Z</time></trkpt><trkpt lat="42.2571398" lon="13.7006846"><ele>857.0000000000001</ele><time>2026-05-03T08:58:12.447Z</time></trkpt><trkpt lat="42.2571431" lon="13.7005682"><ele>856.0000000000001</ele><time>2026-05-03T08:58:13.439Z</time></trkpt><trkpt lat="42.2571272" lon="13.7004382"><ele>855.0</ele><time>2026-05-03T08:58:14.441Z</time></trkpt><trkpt lat="42.2571029" lon="13.7003133"><ele>854.0</ele><time>2026-05-03T08:58:15.444Z</time></trkpt><trkpt lat="42.2570719" lon="13.700204"><ele>854.0</ele><time>2026-05-03T08:58:16.447Z</time></trkpt><trkpt lat="42.257036" lon="13.700122"><ele>854.0000000000001</ele><time>2026-05-03T08:58:17.449Z</time></trkpt><trkpt lat="42.2569164" lon="13.7000692"><ele>854.0000000000001</ele><time>2026-05-03T08:58:19.443Z</time></trkpt><trkpt lat="42.2568268" lon="13.7001054"><ele>854.0</ele><time>2026-05-03T08:58:20.449Z</time></trkpt><trkpt lat="42.2567148" lon="13.7001698"><ele>854.0</ele><time>2026-05-03T08:58:21.447Z</time></trkpt><trkpt lat="42.2566" lon="13.7002228"><ele>853.5</ele><time>2026-05-03T08:58:22.45Z</time></trkpt><trkpt lat="42.2564772" lon="13.7002672"><ele>853.0</ele><time>2026-05-03T08:58:23.447Z</time></trkpt><trkpt lat="42.256353" lon="13.700328"><ele>852.5</ele><time>2026-05-03T08:58:24.443Z</time></trkpt><trkpt lat="42.2562276" lon="13.7004047"><ele>852.0</ele><time>2026-05-03T08:58:25.452Z</time></trkpt><trkpt lat="42.2561054" lon="13.7004937"><ele>852.0</ele><time>2026-05-03T08:58:26.444Z</time></trkpt><trkpt lat="42.2559808" lon="13.7005835"><ele>852.0</ele><time>2026-05-03T08:58:27.454Z</time></trkpt><trkpt lat="42.2558512" lon="13.7006631"><ele>852.0</ele><time>2026-05-03T08:58:28.45Z</time></trkpt><trkpt lat="42.2557409" lon="13.700771"><ele>852.0</ele><time>2026-05-03T08:58:29.445Z</time></trkpt><trkpt lat="42.2556265" lon="13.7008541"><ele>853.8</ele><time>2026-05-03T08:58:30.438Z</time></trkpt><trkpt lat="42.2555168" lon="13.7009226"><ele>855.6</ele><time>2026-05-03T08:58:31.441Z</time></trkpt><trkpt lat="42.2554157" lon="13.700979"><ele>857.3999999999999</ele><time>2026-05-03T08:58:32.441Z</time></trkpt><trkpt lat="42.2553139" lon="13.7010441"><ele>859.1999999999999</ele><time>2026-05-03T08:58:33.439Z</time></trkpt><trkpt lat="42.2552171" lon="13.7010918"><ele>861.0</ele><time>2026-05-03T08:58:34.441Z</time></trkpt><trkpt lat="42.2551188" lon="13.7011398"><ele>861.0</ele><time>2026-05-03T08:58:35.444Z</time></trkpt><trkpt lat="42.255" lon="13.7011688"><ele>861.0</ele><time>2026-05-03T08:58:36.439Z</time></trkpt><trkpt lat="42.2548667" lon="13.7011929"><ele>861.0</ele><time>2026-05-03T08:58:37.446Z</time></trkpt><trkpt lat="42.2547266" lon="13.7012225"><ele>861.0</ele><time>2026-05-03T08:58:38.438Z</time></trkpt><trkpt lat="42.2545874" lon="13.7012301"><ele>858.25</ele><time>2026-05-03T08:58:39.445Z</time></trkpt><trkpt lat="42.2544671" lon="13.7012508"><ele>855.5</ele><time>2026-05-03T08:58:40.442Z</time></trkpt><trkpt lat="42.2543393" lon="13.7012289"><ele>852.75</ele><time>2026-05-03T08:58:41.453Z</time></trkpt><trkpt lat="42.2542289" lon="13.7012228"><ele>850.0</ele><time>2026-05-03T08:58:42.454Z</time></trkpt><trkpt lat="42.2541086" lon="13.7012083"><ele>850.0</ele><time>2026-05-03T08:58:43.446Z</time></trkpt><trkpt lat="42.253986" lon="13.7011948"><ele>850.0</ele><time>2026-05-03T08:58:44.449Z</time></trkpt><trkpt lat="42.2538875" lon="13.7011938"><ele>850.0</ele><time>2026-05-03T08:58:45.445Z</time></trkpt><trkpt lat="42.253796" lon="13.7011878"><ele>850.0</ele><time>2026-05-03T08:58:46.459Z</time></trkpt><trkpt lat="42.2537144" lon="13.7012049"><ele>850.0</ele><time>2026-05-03T08:58:47.438Z</time></trkpt><trkpt lat="42.2536422" lon="13.7012516"><ele>846.0</ele><time>2026-05-03T08:58:48.447Z</time></trkpt><trkpt lat="42.25356" lon="13.7013086"><ele>842.0</ele><time>2026-05-03T08:58:49.436Z</time></trkpt><trkpt lat="42.2534699" lon="13.7013622"><ele>838.0</ele><time>2026-05-03T08:58:50.452Z</time></trkpt><trkpt lat="42.2533739" lon="13.7014115"><ele>834.0</ele><time>2026-05-03T08:58:51.445Z</time></trkpt><trkpt lat="42.2532792" lon="13.701473"><ele>830.0</ele><time>2026-05-03T08:58:52.451Z</time></trkpt><trkpt lat="42.2531857" lon="13.7015569"><ele>828.25</ele><time>2026-05-03T08:58:53.445Z</time></trkpt><trkpt lat="42.2530966" lon="13.7016652"><ele>826.5</ele><time>2026-05-03T08:58:54.455Z</time></trkpt><trkpt lat="42.2530001" lon="13.7017737"><ele>824.75</ele><time>2026-05-03T08:58:55.453Z</time></trkpt><trkpt lat="42.2528885" lon="13.7018692"><ele>823.0</ele><time>2026-05-03T08:58:56.444Z</time></trkpt><trkpt lat="42.2527797" lon="13.7019664"><ele>823.0</ele><time>2026-05-03T08:58:57.457Z</time></trkpt><trkpt lat="42.2526766" lon="13.702072"><ele>823.0</ele><time>2026-05-03T08:58:58.447Z</time></trkpt><trkpt lat="42.2525773" lon="13.7021757"><ele>823.0</ele><time>2026-05-03T08:58:59.447Z</time></trkpt><trkpt lat="42.2524792" lon="13.7022762"><ele>823.0</ele><time>2026-05-03T08:59:00.458Z</time></trkpt><trkpt lat="42.25238" lon="13.7023707"><ele>822.5</ele><time>2026-05-03T08:59:01.451Z</time></trkpt><trkpt lat="42.2522856" lon="13.70247"><ele>822.0</ele><time>2026-05-03T08:59:02.451Z</time></trkpt><trkpt lat="42.2521998" lon="13.7025715"><ele>821.5</ele><time>2026-05-03T08:59:03.445Z</time></trkpt><trkpt lat="42.2521062" lon="13.7026607"><ele>821.0</ele><time>2026-05-03T08:59:04.468Z</time></trkpt><trkpt lat="42.2520169" lon="13.7027491"><ele>821.0</ele><time>2026-05-03T08:59:05.452Z</time></trkpt><trkpt lat="42.2519277" lon="13.7028277"><ele>821.0</ele><time>2026-05-03T08:59:06.443Z</time></trkpt><trkpt lat="42.2518291" lon="13.702891"><ele>821.0</ele><time>2026-05-03T08:59:07.446Z</time></trkpt><trkpt lat="42.251723" lon="13.7029398"><ele>821.0</ele><time>2026-05-03T08:59:08.451Z</time></trkpt><trkpt lat="42.2516051" lon="13.7029625"><ele>821.0</ele><time>2026-05-03T08:59:09.453Z</time></trkpt><trkpt lat="42.2514881" lon="13.7029789"><ele>819.4</ele><time>2026-05-03T08:59:10.455Z</time></trkpt><trkpt lat="42.2513764" lon="13.7029891"><ele>817.8</ele><time>2026-05-03T08:59:11.451Z</time></trkpt><trkpt lat="42.2512701" lon="13.7029958"><ele>816.1999999999999</ele><time>2026-05-03T08:59:12.458Z</time></trkpt><trkpt lat="42.251171" lon="13.7029945"><ele>814.5999999999999</ele><time>2026-05-03T08:59:13.457Z</time></trkpt><trkpt lat="42.2510839" lon="13.7029858"><ele>813.0</ele><time>2026-05-03T08:59:14.449Z</time></trkpt><trkpt lat="42.250996" lon="13.7030107"><ele>813.0</ele><time>2026-05-03T08:59:15.451Z</time></trkpt><trkpt lat="42.2508979" lon="13.7030608"><ele>813.0</ele><time>2026-05-03T08:59:16.449Z</time></trkpt><trkpt lat="42.2507943" lon="13.7031314"><ele>813.0</ele><time>2026-05-03T08:59:17.445Z</time></trkpt><trkpt lat="42.2506844" lon="13.7032238"><ele>813.0</ele><time>2026-05-03T08:59:18.451Z</time></trkpt><trkpt lat="42.250569" lon="13.7033271"><ele>811.75</ele><time>2026-05-03T08:59:19.451Z</time></trkpt><trkpt lat="42.2504614" lon="13.7034267"><ele>810.5</ele><time>2026-05-03T08:59:20.452Z</time></trkpt><trkpt lat="42.2503653" lon="13.7035239"><ele>809.25</ele><time>2026-05-03T08:59:21.458Z</time></trkpt><trkpt lat="42.250279" lon="13.7036321"><ele>808.0</ele><time>2026-05-03T08:59:22.466Z</time></trkpt><trkpt lat="42.2502079" lon="13.703742"><ele>807.9999999999999</ele><time>2026-05-03T08:59:23.457Z</time></trkpt><trkpt lat="42.2501431" lon="13.7038488"><ele>808.0</ele><time>2026-05-03T08:59:24.45Z</time></trkpt><trkpt lat="42.2500838" lon="13.7039402"><ele>808.0</ele><time>2026-05-03T08:59:25.455Z</time></trkpt><trkpt lat="42.2500333" lon="13.7040034"><ele>808.0</ele><time>2026-05-03T08:59:26.449Z</time></trkpt><trkpt lat="42.2499665" lon="13.7040522"><ele>807.9999999999999</ele><time>2026-05-03T08:59:28.45Z</time></trkpt><trkpt lat="42.2499295" lon="13.7041352"><ele>808.0</ele><time>2026-05-03T08:59:32.456Z</time></trkpt><trkpt lat="42.2499629" lon="13.704264"><ele>808.0</ele><time>2026-05-03T08:59:35.445Z</time></trkpt><trkpt lat="42.2499278" lon="13.7043824"><ele>808.0</ele><time>2026-05-03T08:59:37.447Z</time></trkpt><trkpt lat="42.2498587" lon="13.704519"><ele>808.0</ele><time>2026-05-03T08:59:39.457Z</time></trkpt><trkpt lat="42.2498229" lon="13.7046141"><ele>808.0</ele><time>2026-05-03T08:59:40.47Z</time></trkpt><trkpt lat="42.2497957" lon="13.7047152"><ele>808.0</ele><time>2026-05-03T08:59:41.453Z</time></trkpt><trkpt lat="42.2497677" lon="13.704829"><ele>807.8333333333333</ele><time>2026-05-03T08:59:42.46Z</time></trkpt><trkpt lat="42.2497376" lon="13.7049547"><ele>807.6666666666666</ele><time>2026-05-03T08:59:43.453Z</time></trkpt><trkpt lat="42.2497124" lon="13.7050621"><ele>807.5</ele><time>2026-05-03T08:59:44.468Z</time></trkpt><trkpt lat="42.2496794" lon="13.7051556"><ele>807.3333333333333</ele><time>2026-05-03T08:59:45.453Z</time></trkpt><trkpt lat="42.2496272" lon="13.7052455"><ele>807.1666666666666</ele><time>2026-05-03T08:59:46.459Z</time></trkpt><trkpt lat="42.2495548" lon="13.7053351"><ele>807.0</ele><time>2026-05-03T08:59:47.452Z</time></trkpt><trkpt lat="42.249469" lon="13.7054151"><ele>810.2</ele><time>2026-05-03T08:59:48.458Z</time></trkpt><trkpt lat="42.2493868" lon="13.7054951"><ele>813.4000000000001</ele><time>2026-05-03T08:59:49.454Z</time></trkpt><trkpt lat="42.2492974" lon="13.7055725"><ele>816.5999999999999</ele><time>2026-05-03T08:59:50.462Z</time></trkpt><trkpt lat="42.2492056" lon="13.705637"><ele>819.8</ele><time>2026-05-03T08:59:51.454Z</time></trkpt><trkpt lat="42.2491178" lon="13.7056838"><ele>823.0</ele><time>2026-05-03T08:59:52.454Z</time></trkpt><trkpt lat="42.2490337" lon="13.7057484"><ele>822.0</ele><time>2026-05-03T08:59:53.456Z</time></trkpt><trkpt lat="42.2489412" lon="13.7058354"><ele>821.0</ele><time>2026-05-03T08:59:54.463Z</time></trkpt><trkpt lat="42.2488428" lon="13.7059208"><ele>820.0</ele><time>2026-05-03T08:59:55.466Z</time></trkpt><trkpt lat="42.2487459" lon="13.706012"><ele>819.0</ele><time>2026-05-03T08:59:56.466Z</time></trkpt><trkpt lat="42.2486505" lon="13.7061"><ele>821.6</ele><time>2026-05-03T08:59:57.428Z</time></trkpt><trkpt lat="42.2485689" lon="13.7061851"><ele>824.2</ele><time>2026-05-03T08:59:58.455Z</time></trkpt><trkpt lat="42.2485036" lon="13.7062506"><ele>826.8000000000001</ele><time>2026-05-03T08:59:59.44Z</time></trkpt><trkpt lat="42.248426" lon="13.7063371"><ele>829.4000000000001</ele><time>2026-05-03T09:00:01.428Z</time></trkpt><trkpt lat="42.2483579" lon="13.706398"><ele>832.0</ele><time>2026-05-03T09:00:03.429Z</time></trkpt><trkpt lat="42.2482865" lon="13.7064943"><ele>831.9999999999999</ele><time>2026-05-03T09:00:05.435Z</time></trkpt><trkpt lat="42.2482388" lon="13.7066271"><ele>832.0</ele><time>2026-05-03T09:00:07.433Z</time></trkpt><trkpt lat="42.2482192" lon="13.7067151"><ele>832.0</ele><time>2026-05-03T09:00:08.438Z</time></trkpt><trkpt lat="42.2482003" lon="13.7068134"><ele>832.0</ele><time>2026-05-03T09:00:09.444Z</time></trkpt><trkpt lat="42.248191" lon="13.7068997"><ele>831.9999999999999</ele><time>2026-05-03T09:00:10.442Z</time></trkpt><trkpt lat="42.2481992" lon="13.707042"><ele>832.0</ele><time>2026-05-03T09:00:12.445Z</time></trkpt><trkpt lat="42.2482417" lon="13.7071888"><ele>831.9999999999999</ele><time>2026-05-03T09:00:14.439Z</time></trkpt><trkpt lat="42.2482662" lon="13.7072882"><ele>832.0</ele><time>2026-05-03T09:00:16.454Z</time></trkpt><trkpt lat="42.248278" lon="13.7074006"><ele>832.0</ele><time>2026-05-03T09:00:20.445Z</time></trkpt><trkpt lat="42.2482533" lon="13.7074938"><ele>832.0</ele><time>2026-05-03T09:00:22.434Z</time></trkpt><trkpt lat="42.248218" lon="13.7076174"><ele>831.9999999999999</ele><time>2026-05-03T09:00:24.441Z</time></trkpt><trkpt lat="42.2481687" lon="13.707758"><ele>832.0</ele><time>2026-05-03T09:00:26.437Z</time></trkpt><trkpt lat="42.2481412" lon="13.7078385"><ele>830.0</ele><time>2026-05-03T09:00:27.447Z</time></trkpt><trkpt lat="42.2481141" lon="13.7079218"><ele>828.0</ele><time>2026-05-03T09:00:28.441Z</time></trkpt><trkpt lat="42.2480806" lon="13.7080086"><ele>826.0</ele><time>2026-05-03T09:00:29.451Z</time></trkpt><trkpt lat="42.248046" lon="13.708096"><ele>824.0</ele><time>2026-05-03T09:00:30.441Z</time></trkpt><trkpt lat="42.2480054" lon="13.7081768"><ele>822.0</ele><time>2026-05-03T09:00:31.439Z</time></trkpt><trkpt lat="42.2479619" lon="13.7082393"><ele>820.0</ele><time>2026-05-03T09:00:32.442Z</time></trkpt><trkpt lat="42.247902" lon="13.7082994"><ele>818.0</ele><time>2026-05-03T09:00:33.436Z</time></trkpt><trkpt lat="42.2478257" lon="13.7083596"><ele>818.0000000000001</ele><time>2026-05-03T09:00:34.449Z</time></trkpt><trkpt lat="42.2477452" lon="13.7084091"><ele>818.0</ele><time>2026-05-03T09:00:35.439Z</time></trkpt><trkpt lat="42.2476741" lon="13.7084555"><ele>818.0</ele><time>2026-05-03T09:00:36.444Z</time></trkpt><trkpt lat="42.2476111" lon="13.7085056"><ele>818.0</ele><time>2026-05-03T09:00:37.436Z</time></trkpt><trkpt lat="42.2475535" lon="13.7085501"><ele>818.0000000000001</ele><time>2026-05-03T09:00:38.442Z</time></trkpt><trkpt lat="42.2474564" lon="13.7086238"><ele>818.0</ele><time>2026-05-03T09:00:40.449Z</time></trkpt><trkpt lat="42.2473799" lon="13.7086514"><ele>816.0000000000001</ele><time>2026-05-03T09:00:42.44Z</time></trkpt><trkpt lat="42.2473044" lon="13.7086283"><ele>814.0</ele><time>2026-05-03T09:00:45.439Z</time></trkpt><trkpt lat="42.2472509" lon="13.7085731"><ele>812.0</ele><time>2026-05-03T09:00:47.435Z</time></trkpt><trkpt lat="42.2472126" lon="13.7084468"><ele>810.0</ele><time>2026-05-03T09:00:50.446Z</time></trkpt><trkpt lat="42.2471808" lon="13.7083396"><ele>808.0000000000001</ele><time>2026-05-03T09:00:52.445Z</time></trkpt><trkpt lat="42.2471654" lon="13.7082016"><ele>806.0</ele><time>2026-05-03T09:00:54.444Z</time></trkpt><trkpt lat="42.2471616" lon="13.7080463"><ele>806.0000000000001</ele><time>2026-05-03T09:00:56.438Z</time></trkpt><trkpt lat="42.2471614" lon="13.70794"><ele>806.0</ele><time>2026-05-03T09:00:57.438Z</time></trkpt><trkpt lat="42.2471507" lon="13.7078155"><ele>806.0</ele><time>2026-05-03T09:00:58.442Z</time></trkpt><trkpt lat="42.2471449" lon="13.7076874"><ele>806.0</ele><time>2026-05-03T09:00:59.433Z</time></trkpt><trkpt lat="42.2471401" lon="13.7075692"><ele>806.0000000000001</ele><time>2026-05-03T09:01:00.448Z</time></trkpt><trkpt lat="42.2471429" lon="13.7074569"><ele>806.0</ele><time>2026-05-03T09:01:01.435Z</time></trkpt><trkpt lat="42.2471479" lon="13.7073486"><ele>806.0</ele><time>2026-05-03T09:01:02.447Z</time></trkpt><trkpt lat="42.2471393" lon="13.7072076"><ele>806.0</ele><time>2026-05-03T09:01:04.45Z</time></trkpt><trkpt lat="42.2471148" lon="13.7071074"><ele>806.0</ele><time>2026-05-03T09:01:06.438Z</time></trkpt><trkpt lat="42.2470519" lon="13.7070647"><ele>806.0</ele><time>2026-05-03T09:01:08.445Z</time></trkpt><trkpt lat="42.2469242" lon="13.7070812"><ele>806.0</ele><time>2026-05-03T09:01:10.455Z</time></trkpt><trkpt lat="42.2468475" lon="13.7070912"><ele>806.0</ele><time>2026-05-03T09:01:11.445Z</time></trkpt><trkpt lat="42.2467783" lon="13.7070956"><ele>806.0</ele><time>2026-05-03T09:01:12.444Z</time></trkpt><trkpt lat="42.2466854" lon="13.7070776"><ele>806.0</ele><time>2026-05-03T09:01:14.45Z</time></trkpt><trkpt lat="42.2466634" lon="13.7069569"><ele>806.0</ele><time>2026-05-03T09:01:17.436Z</time></trkpt><trkpt lat="42.2466902" lon="13.7067949"><ele>806.0</ele><time>2026-05-03T09:01:19.444Z</time></trkpt><trkpt lat="42.2466809" lon="13.7066762"><ele>806.5000000000001</ele><time>2026-05-03T09:01:21.449Z</time></trkpt><trkpt lat="42.2465977" lon="13.7066263"><ele>807.0</ele><time>2026-05-03T09:01:23.443Z</time></trkpt><trkpt lat="42.2465256" lon="13.7066219"><ele>807.5</ele><time>2026-05-03T09:01:26.448Z</time></trkpt><trkpt lat="42.2464735" lon="13.7067323"><ele>808.0</ele><time>2026-05-03T09:01:29.449Z</time></trkpt><trkpt lat="42.2464396" lon="13.7068112"><ele>808.5000000000001</ele><time>2026-05-03T09:01:31.443Z</time></trkpt><trkpt lat="42.2464107" lon="13.7069164"><ele>809.0</ele><time>2026-05-03T09:01:35.45Z</time></trkpt><trkpt lat="42.2464117" lon="13.707009"><ele>806.3333333333334</ele><time>2026-05-03T09:01:38.44Z</time></trkpt><trkpt lat="42.2463267" lon="13.7070448"><ele>803.6666666666667</ele><time>2026-05-03T09:01:42.444Z</time></trkpt><trkpt lat="42.2462417" lon="13.7070213"><ele>801.0</ele><time>2026-05-03T09:01:44.453Z</time></trkpt><trkpt lat="42.2461757" lon="13.7070309"><ele>798.3333333333333</ele><time>2026-05-03T09:01:46.445Z</time></trkpt><trkpt lat="42.2461011" lon="13.7070431"><ele>795.6666666666666</ele><time>2026-05-03T09:01:52.447Z</time></trkpt><trkpt lat="42.2460681" lon="13.7071781"><ele>793.0</ele><time>2026-05-03T09:01:56.435Z</time></trkpt><trkpt lat="42.24607" lon="13.7072905"><ele>793.0</ele><time>2026-05-03T09:01:57.445Z</time></trkpt><trkpt lat="42.2460743" lon="13.7074245"><ele>793.0</ele><time>2026-05-03T09:01:58.441Z</time></trkpt><trkpt lat="42.2460762" lon="13.7075669"><ele>793.0</ele><time>2026-05-03T09:01:59.442Z</time></trkpt><trkpt lat="42.246085" lon="13.7077128"><ele>793.0</ele><time>2026-05-03T09:02:00.44Z</time></trkpt><trkpt lat="42.2460886" lon="13.7078734"><ele>793.0</ele><time>2026-05-03T09:02:01.443Z</time></trkpt><trkpt lat="42.2460842" lon="13.7080372"><ele>792.25</ele><time>2026-05-03T09:02:02.444Z</time></trkpt><trkpt lat="42.2460756" lon="13.7081983"><ele>791.5</ele><time>2026-05-03T09:02:03.449Z</time></trkpt><trkpt lat="42.2460596" lon="13.7083598"><ele>790.75</ele><time>2026-05-03T09:02:04.443Z</time></trkpt><trkpt lat="42.2460443" lon="13.7085108"><ele>790.0</ele><time>2026-05-03T09:02:05.446Z</time></trkpt><trkpt lat="42.2460334" lon="13.708658"><ele>789.3333333333333</ele><time>2026-05-03T09:02:06.443Z</time></trkpt><trkpt lat="42.2460204" lon="13.7087915"><ele>788.6666666666666</ele><time>2026-05-03T09:02:07.441Z</time></trkpt><trkpt lat="42.2460113" lon="13.7089215"><ele>788.0</ele><time>2026-05-03T09:02:08.447Z</time></trkpt><trkpt lat="42.2460029" lon="13.7090428"><ele>787.3333333333333</ele><time>2026-05-03T09:02:09.447Z</time></trkpt><trkpt lat="42.2460006" lon="13.7091578"><ele>786.6666666666666</ele><time>2026-05-03T09:02:10.452Z</time></trkpt><trkpt lat="42.2460064" lon="13.7092607"><ele>786.0</ele><time>2026-05-03T09:02:11.447Z</time></trkpt><trkpt lat="42.2460156" lon="13.7093586"><ele>785.8333333333334</ele><time>2026-05-03T09:02:12.452Z</time></trkpt><trkpt lat="42.2460357" lon="13.7094623"><ele>785.6666666666667</ele><time>2026-05-03T09:02:13.445Z</time></trkpt><trkpt lat="42.2460643" lon="13.7095662"><ele>785.5</ele><time>2026-05-03T09:02:14.453Z</time></trkpt><trkpt lat="42.2461073" lon="13.7096599"><ele>785.3333333333334</ele><time>2026-05-03T09:02:15.448Z</time></trkpt><trkpt lat="42.2461642" lon="13.7097484"><ele>785.1666666666667</ele><time>2026-05-03T09:02:16.453Z</time></trkpt><trkpt lat="42.2462298" lon="13.7098356"><ele>785.0</ele><time>2026-05-03T09:02:17.444Z</time></trkpt><trkpt lat="42.2463046" lon="13.7099304"><ele>785.0</ele><time>2026-05-03T09:02:18.454Z</time></trkpt><trkpt lat="42.2463866" lon="13.7100141"><ele>785.0</ele><time>2026-05-03T09:02:19.446Z</time></trkpt><trkpt lat="42.2464744" lon="13.7100814"><ele>785.0</ele><time>2026-05-03T09:02:20.454Z</time></trkpt><trkpt lat="42.2465635" lon="13.710133"><ele>785.0</ele><time>2026-05-03T09:02:21.44Z</time></trkpt><trkpt lat="42.2466524" lon="13.7101722"><ele>785.0</ele><time>2026-05-03T09:02:22.445Z</time></trkpt><trkpt lat="42.2467475" lon="13.7101983"><ele>785.75</ele><time>2026-05-03T09:02:23.433Z</time></trkpt><trkpt lat="42.2468516" lon="13.7101974"><ele>786.5</ele><time>2026-05-03T09:02:24.444Z</time></trkpt><trkpt lat="42.2469624" lon="13.710167"><ele>787.25</ele><time>2026-05-03T09:02:25.442Z</time></trkpt><trkpt lat="42.2470781" lon="13.7101248"><ele>788.0</ele><time>2026-05-03T09:02:26.445Z</time></trkpt><trkpt lat="42.2471987" lon="13.7100807"><ele>786.75</ele><time>2026-05-03T09:02:27.443Z</time></trkpt><trkpt lat="42.2473191" lon="13.7100313"><ele>785.5</ele><time>2026-05-03T09:02:28.447Z</time></trkpt><trkpt lat="42.2474355" lon="13.7099882"><ele>784.25</ele><time>2026-05-03T09:02:29.441Z</time></trkpt><trkpt lat="42.2475557" lon="13.7099542"><ele>783.0</ele><time>2026-05-03T09:02:30.449Z</time></trkpt><trkpt lat="42.2476718" lon="13.7099225"><ele>783.0</ele><time>2026-05-03T09:02:31.434Z</time></trkpt><trkpt lat="42.247783" lon="13.7099034"><ele>783.0</ele><time>2026-05-03T09:02:32.443Z</time></trkpt><trkpt lat="42.2478925" lon="13.7099053"><ele>783.0</ele><time>2026-05-03T09:02:33.436Z</time></trkpt><trkpt lat="42.2480025" lon="13.7099291"><ele>783.0</ele><time>2026-05-03T09:02:34.447Z</time></trkpt><trkpt lat="42.2480979" lon="13.7099942"><ele>783.0</ele><time>2026-05-03T09:02:35.44Z</time></trkpt><trkpt lat="42.2481611" lon="13.7101085"><ele>783.75</ele><time>2026-05-03T09:02:36.427Z</time></trkpt><trkpt lat="42.248197" lon="13.7102474"><ele>784.5</ele><time>2026-05-03T09:02:37.433Z</time></trkpt><trkpt lat="42.2481921" lon="13.7104052"><ele>785.25</ele><time>2026-05-03T09:02:38.43Z</time></trkpt><trkpt lat="42.2481661" lon="13.7105759"><ele>786.0</ele><time>2026-05-03T09:02:39.435Z</time></trkpt><trkpt lat="42.2481139" lon="13.710753"><ele>779.6666666666666</ele><time>2026-05-03T09:02:40.428Z</time></trkpt><trkpt lat="42.2480454" lon="13.7109289"><ele>773.3333333333333</ele><time>2026-05-03T09:02:41.432Z</time></trkpt><trkpt lat="42.247966" lon="13.7111137"><ele>767.0</ele><time>2026-05-03T09:02:42.442Z</time></trkpt><trkpt lat="42.2478709" lon="13.7113323"><ele>766.0</ele><time>2026-05-03T09:02:43.446Z</time></trkpt><trkpt lat="42.247786" lon="13.7115468"><ele>765.0</ele><time>2026-05-03T09:02:44.44Z</time></trkpt><trkpt lat="42.2477135" lon="13.711707"><ele>764.0</ele><time>2026-05-03T09:02:45.439Z</time></trkpt><trkpt lat="42.2476601" lon="13.7118737"><ele>764.75</ele><time>2026-05-03T09:02:46.443Z</time></trkpt><trkpt lat="42.2476185" lon="13.712031"><ele>765.5</ele><time>2026-05-03T09:02:47.449Z</time></trkpt><trkpt lat="42.2475771" lon="13.7121776"><ele>766.25</ele><time>2026-05-03T09:02:48.448Z</time></trkpt><trkpt lat="42.2475371" lon="13.7123508"><ele>767.0</ele><time>2026-05-03T09:02:49.45Z</time></trkpt><trkpt lat="42.2475012" lon="13.7125158"><ele>767.0</ele><time>2026-05-03T09:02:50.452Z</time></trkpt><trkpt lat="42.2474782" lon="13.7127031"><ele>767.0</ele><time>2026-05-03T09:02:51.446Z</time></trkpt><trkpt lat="42.2474473" lon="13.7128748"><ele>767.0</ele><time>2026-05-03T09:02:52.448Z</time></trkpt><trkpt lat="42.2474308" lon="13.7130466"><ele>767.0</ele><time>2026-05-03T09:02:53.45Z</time></trkpt><trkpt lat="42.247413" lon="13.7132182"><ele>767.25</ele><time>2026-05-03T09:02:54.44Z</time></trkpt><trkpt lat="42.247395" lon="13.713405"><ele>767.5</ele><time>2026-05-03T09:02:55.454Z</time></trkpt><trkpt lat="42.2473801" lon="13.713594"><ele>767.75</ele><time>2026-05-03T09:02:56.442Z</time></trkpt><trkpt lat="42.2473772" lon="13.7137879"><ele>768.0</ele><time>2026-05-03T09:02:57.453Z</time></trkpt><trkpt lat="42.2473847" lon="13.7139884"><ele>767.5999999999999</ele><time>2026-05-03T09:02:58.444Z</time></trkpt><trkpt lat="42.247383" lon="13.7141656"><ele>767.1999999999999</ele><time>2026-05-03T09:02:59.455Z</time></trkpt><trkpt lat="42.2473862" lon="13.7143079"><ele>766.8</ele><time>2026-05-03T09:03:00.457Z</time></trkpt><trkpt lat="42.2474013" lon="13.7144638"><ele>766.4</ele><time>2026-05-03T09:03:01.458Z</time></trkpt><trkpt lat="42.2474069" lon="13.7145824"><ele>766.0</ele><time>2026-05-03T09:03:02.448Z</time></trkpt><trkpt lat="42.2474064" lon="13.7146856"><ele>764.6666666666667</ele><time>2026-05-03T09:03:03.45Z</time></trkpt><trkpt lat="42.2474115" lon="13.714774"><ele>763.3333333333334</ele><time>2026-05-03T09:03:04.451Z</time></trkpt><trkpt lat="42.247413" lon="13.7149068"><ele>762.0</ele><time>2026-05-03T09:03:06.45Z</time></trkpt><trkpt lat="42.2474641" lon="13.7149709"><ele>760.6666666666666</ele><time>2026-05-03T09:03:08.457Z</time></trkpt><trkpt lat="42.2474979" lon="13.7148496"><ele>759.3333333333333</ele><time>2026-05-03T09:03:12.448Z</time></trkpt><trkpt lat="42.2474888" lon="13.7147513"><ele>758.0</ele><time>2026-05-03T09:03:13.448Z</time></trkpt><trkpt lat="42.2474735" lon="13.7146342"><ele>758.0</ele><time>2026-05-03T09:03:14.449Z</time></trkpt><trkpt lat="42.2474542" lon="13.7145055"><ele>758.0</ele><time>2026-05-03T09:03:15.445Z</time></trkpt><trkpt lat="42.2474454" lon="13.7143588"><ele>758.0</ele><time>2026-05-03T09:03:16.448Z</time></trkpt><trkpt lat="42.2474417" lon="13.7141953"><ele>758.0</ele><time>2026-05-03T09:03:17.447Z</time></trkpt><trkpt lat="42.2474432" lon="13.7140148"><ele>760.0</ele><time>2026-05-03T09:03:18.453Z</time></trkpt><trkpt lat="42.2474415" lon="13.7138364"><ele>762.0</ele><time>2026-05-03T09:03:19.453Z</time></trkpt><trkpt lat="42.2474501" lon="13.7136602"><ele>764.0</ele><time>2026-05-03T09:03:20.455Z</time></trkpt><trkpt lat="42.2474717" lon="13.7134888"><ele>766.0</ele><time>2026-05-03T09:03:21.458Z</time></trkpt><trkpt lat="42.2474987" lon="13.7133205"><ele>766.1999999999999</ele><time>2026-05-03T09:03:22.455Z</time></trkpt><trkpt lat="42.2475216" lon="13.7131558"><ele>766.4</ele><time>2026-05-03T09:03:23.446Z</time></trkpt><trkpt lat="42.2475416" lon="13.7130175"><ele>766.6</ele><time>2026-05-03T09:03:24.445Z</time></trkpt><trkpt lat="42.247557" lon="13.7128964"><ele>766.8</ele><time>2026-05-03T09:03:25.46Z</time></trkpt><trkpt lat="42.2475793" lon="13.7127713"><ele>767.0</ele><time>2026-05-03T09:03:26.453Z</time></trkpt><trkpt lat="42.2475994" lon="13.7126289"><ele>767.0</ele><time>2026-05-03T09:03:27.45Z</time></trkpt><trkpt lat="42.2476184" lon="13.7125054"><ele>767.0</ele><time>2026-05-03T09:03:28.457Z</time></trkpt><trkpt lat="42.2476295" lon="13.7124013"><ele>767.0</ele><time>2026-05-03T09:03:29.454Z</time></trkpt><trkpt lat="42.2476301" lon="13.7123129"><ele>767.0</ele><time>2026-05-03T09:03:30.449Z</time></trkpt><trkpt lat="42.2476221" lon="13.7121876"><ele>767.0</ele><time>2026-05-03T09:03:32.442Z</time></trkpt><trkpt lat="42.2476715" lon="13.7121305"><ele>767.0</ele><time>2026-05-03T09:03:35.456Z</time></trkpt><trkpt lat="42.2477687" lon="13.7121543"><ele>767.0</ele><time>2026-05-03T09:03:38.445Z</time></trkpt><trkpt lat="42.2477756" lon="13.7122791"><ele>767.0</ele><time>2026-05-03T09:03:40.446Z</time></trkpt><trkpt lat="42.2477495" lon="13.712364"><ele>767.0</ele><time>2026-05-03T09:03:41.438Z</time></trkpt><trkpt lat="42.2477116" lon="13.7124402"><ele>767.0</ele><time>2026-05-03T09:03:42.443Z</time></trkpt><trkpt lat="42.2476678" lon="13.7125335"><ele>767.0</ele><time>2026-05-03T09:03:44.449Z</time></trkpt><trkpt lat="42.2476591" lon="13.7126456"><ele>767.0</ele><time>2026-05-03T09:05:12.454Z</time></trkpt><trkpt lat="42.2476477" lon="13.7127305"><ele>767.2</ele><time>2026-05-03T09:05:29.443Z</time></trkpt><trkpt lat="42.2476432" lon="13.7128513"><ele>767.4000000000001</ele><time>2026-05-03T09:05:31.452Z</time></trkpt><trkpt lat="42.2476492" lon="13.7129571"><ele>767.5999999999999</ele><time>2026-05-03T09:05:32.447Z</time></trkpt><trkpt lat="42.2476512" lon="13.7130867"><ele>767.8</ele><time>2026-05-03T09:05:33.454Z</time></trkpt><trkpt lat="42.2476429" lon="13.7132212"><ele>768.0</ele><time>2026-05-03T09:05:34.452Z</time></trkpt><trkpt lat="42.2476226" lon="13.7133514"><ele>768.0</ele><time>2026-05-03T09:05:35.448Z</time></trkpt><trkpt lat="42.2476056" lon="13.7134955"><ele>768.0</ele><time>2026-05-03T09:05:36.457Z</time></trkpt><trkpt lat="42.247597" lon="13.7136393"><ele>768.0</ele><time>2026-05-03T09:05:37.449Z</time></trkpt><trkpt lat="42.2476001" lon="13.7137697"><ele>768.0</ele><time>2026-05-03T09:05:38.457Z</time></trkpt><trkpt lat="42.2476143" lon="13.7139014"><ele>768.0</ele><time>2026-05-03T09:05:39.444Z</time></trkpt><trkpt lat="42.2476372" lon="13.7140391"><ele>767.5</ele><time>2026-05-03T09:05:40.452Z</time></trkpt><trkpt lat="42.2476638" lon="13.71418"><ele>767.0</ele><time>2026-05-03T09:05:41.446Z</time></trkpt><trkpt lat="42.2476967" lon="13.7143277"><ele>766.5</ele><time>2026-05-03T09:05:42.456Z</time></trkpt><trkpt lat="42.2477399" lon="13.7144778"><ele>766.0</ele><time>2026-05-03T09:05:43.451Z</time></trkpt><trkpt lat="42.2477926" lon="13.7146368"><ele>764.0</ele><time>2026-05-03T09:05:44.455Z</time></trkpt><trkpt lat="42.2478519" lon="13.7147924"><ele>762.0</ele><time>2026-05-03T09:05:45.449Z</time></trkpt><trkpt lat="42.2479155" lon="13.7149463"><ele>760.0</ele><time>2026-05-03T09:05:46.458Z</time></trkpt><trkpt lat="42.2479814" lon="13.7150864"><ele>758.0</ele><time>2026-05-03T09:05:47.452Z</time></trkpt><trkpt lat="42.2480424" lon="13.7151991"><ele>756.6666666666666</ele><time>2026-05-03T09:05:48.458Z</time></trkpt><trkpt lat="42.248095" lon="13.7152985"><ele>755.3333333333333</ele><time>2026-05-03T09:05:49.453Z</time></trkpt><trkpt lat="42.2481435" lon="13.7153833"><ele>754.0</ele><time>2026-05-03T09:05:50.464Z</time></trkpt><trkpt lat="42.2482008" lon="13.7154576"><ele>752.6666666666666</ele><time>2026-05-03T09:05:51.452Z</time></trkpt><trkpt lat="42.2482704" lon="13.7155263"><ele>751.3333333333334</ele><time>2026-05-03T09:05:52.459Z</time></trkpt><trkpt lat="42.2483523" lon="13.7156047"><ele>750.0</ele><time>2026-05-03T09:05:53.451Z</time></trkpt><trkpt lat="42.2484481" lon="13.7156954"><ele>750.75</ele><time>2026-05-03T09:05:54.462Z</time></trkpt><trkpt lat="42.2485557" lon="13.7157963"><ele>751.5</ele><time>2026-05-03T09:05:55.459Z</time></trkpt><trkpt lat="42.2486544" lon="13.7159005"><ele>752.25</ele><time>2026-05-03T09:05:56.459Z</time></trkpt><trkpt lat="42.2487504" lon="13.7160007"><ele>753.0</ele><time>2026-05-03T09:05:57.46Z</time></trkpt><trkpt lat="42.2488511" lon="13.7160962"><ele>753.0</ele><time>2026-05-03T09:05:58.456Z</time></trkpt><trkpt lat="42.248958" lon="13.7161822"><ele>753.0</ele><time>2026-05-03T09:05:59.46Z</time></trkpt><trkpt lat="42.249064" lon="13.7162553"><ele>753.0</ele><time>2026-05-03T09:06:00.46Z</time></trkpt><trkpt lat="42.2491649" lon="13.7163286"><ele>753.0</ele><time>2026-05-03T09:06:01.463Z</time></trkpt><trkpt lat="42.2492556" lon="13.7163876"><ele>754.3333333333334</ele><time>2026-05-03T09:06:02.452Z</time></trkpt><trkpt lat="42.2493246" lon="13.7164431"><ele>755.6666666666666</ele><time>2026-05-03T09:06:03.456Z</time></trkpt><trkpt lat="42.2493745" lon="13.7165052"><ele>757.0</ele><time>2026-05-03T09:06:04.451Z</time></trkpt><trkpt lat="42.2494006" lon="13.7165914"><ele>758.3333333333333</ele><time>2026-05-03T09:06:05.456Z</time></trkpt><trkpt lat="42.2494148" lon="13.716702"><ele>759.6666666666666</ele><time>2026-05-03T09:06:06.446Z</time></trkpt><trkpt lat="42.2494269" lon="13.7168315"><ele>761.0</ele><time>2026-05-03T09:06:07.459Z</time></trkpt><trkpt lat="42.2494572" lon="13.7169683"><ele>761.0</ele><time>2026-05-03T09:06:08.455Z</time></trkpt><trkpt lat="42.2495111" lon="13.7171045"><ele>761.0</ele><time>2026-05-03T09:06:09.456Z</time></trkpt><trkpt lat="42.2495832" lon="13.7172388"><ele>761.0</ele><time>2026-05-03T09:06:10.449Z</time></trkpt><trkpt lat="42.2496784" lon="13.7173536"><ele>761.0</ele><time>2026-05-03T09:06:11.454Z</time></trkpt><trkpt lat="42.2497778" lon="13.7174581"><ele>763.4</ele><time>2026-05-03T09:06:12.45Z</time></trkpt><trkpt lat="42.24986" lon="13.7175679"><ele>765.8</ele><time>2026-05-03T09:06:13.454Z</time></trkpt><trkpt lat="42.2499136" lon="13.7177049"><ele>768.1999999999999</ele><time>2026-05-03T09:06:14.452Z</time></trkpt><trkpt lat="42.2499588" lon="13.7178467"><ele>770.5999999999999</ele><time>2026-05-03T09:06:15.452Z</time></trkpt><trkpt lat="42.2500028" lon="13.717967"><ele>773.0</ele><time>2026-05-03T09:06:16.453Z</time></trkpt><trkpt lat="42.2500555" lon="13.7180774"><ele>773.0</ele><time>2026-05-03T09:06:17.458Z</time></trkpt><trkpt lat="42.2501205" lon="13.7181922"><ele>773.0</ele><time>2026-05-03T09:06:18.456Z</time></trkpt><trkpt lat="42.2501922" lon="13.7183088"><ele>773.0</ele><time>2026-05-03T09:06:19.455Z</time></trkpt><trkpt lat="42.2502725" lon="13.7184353"><ele>773.0</ele><time>2026-05-03T09:06:20.455Z</time></trkpt><trkpt lat="42.2503648" lon="13.7185581"><ele>773.0</ele><time>2026-05-03T09:06:21.456Z</time></trkpt><trkpt lat="42.2504627" lon="13.7186699"><ele>773.0</ele><time>2026-05-03T09:06:22.456Z</time></trkpt><trkpt lat="42.2505595" lon="13.7187651"><ele>773.0</ele><time>2026-05-03T09:06:23.457Z</time></trkpt><trkpt lat="42.2506632" lon="13.7188373"><ele>773.0</ele><time>2026-05-03T09:06:24.451Z</time></trkpt><trkpt lat="42.2507815" lon="13.7188886"><ele>773.0</ele><time>2026-05-03T09:06:25.455Z</time></trkpt><trkpt lat="42.2509144" lon="13.7189347"><ele>773.0</ele><time>2026-05-03T09:06:26.448Z</time></trkpt><trkpt lat="42.2510497" lon="13.7189914"><ele>773.0</ele><time>2026-05-03T09:06:27.455Z</time></trkpt><trkpt lat="42.2511738" lon="13.7190783"><ele>773.0</ele><time>2026-05-03T09:06:28.453Z</time></trkpt><trkpt lat="42.2512628" lon="13.7191949"><ele>773.0</ele><time>2026-05-03T09:06:29.457Z</time></trkpt><trkpt lat="42.2513568" lon="13.7193463"><ele>773.0</ele><time>2026-05-03T09:06:30.446Z</time></trkpt><trkpt lat="42.2514478" lon="13.7194787"><ele>773.0</ele><time>2026-05-03T09:06:31.459Z</time></trkpt><trkpt lat="42.2515369" lon="13.7196085"><ele>773.0</ele><time>2026-05-03T09:06:32.452Z</time></trkpt><trkpt lat="42.2516588" lon="13.7197073"><ele>774.75</ele><time>2026-05-03T09:06:33.459Z</time></trkpt><trkpt lat="42.2517748" lon="13.7198013"><ele>776.5</ele><time>2026-05-03T09:06:34.456Z</time></trkpt><trkpt lat="42.2518949" lon="13.719901"><ele>778.25</ele><time>2026-05-03T09:06:35.46Z</time></trkpt><trkpt lat="42.252004" lon="13.7199921"><ele>780.0</ele><time>2026-05-03T09:06:36.457Z</time></trkpt><trkpt lat="42.2521117" lon="13.7200914"><ele>780.0</ele><time>2026-05-03T09:06:37.463Z</time></trkpt><trkpt lat="42.2522244" lon="13.7201907"><ele>780.0</ele><time>2026-05-03T09:06:38.459Z</time></trkpt><trkpt lat="42.2523313" lon="13.7203009"><ele>780.0</ele><time>2026-05-03T09:06:39.467Z</time></trkpt><trkpt lat="42.2524379" lon="13.7204122"><ele>780.0</ele><time>2026-05-03T09:06:40.46Z</time></trkpt><trkpt lat="42.2525482" lon="13.7205187"><ele>779.25</ele><time>2026-05-03T09:06:41.465Z</time></trkpt><trkpt lat="42.2526582" lon="13.7206118"><ele>778.5</ele><time>2026-05-03T09:06:42.459Z</time></trkpt><trkpt lat="42.2527907" lon="13.7207106"><ele>777.75</ele><time>2026-05-03T09:06:43.464Z</time></trkpt><trkpt lat="42.2529235" lon="13.720779"><ele>777.0</ele><time>2026-05-03T09:06:44.458Z</time></trkpt><trkpt lat="42.2530436" lon="13.7208514"><ele>779.2</ele><time>2026-05-03T09:06:45.457Z</time></trkpt><trkpt lat="42.2531629" lon="13.7209052"><ele>781.4000000000001</ele><time>2026-05-03T09:06:46.464Z</time></trkpt><trkpt lat="42.253269" lon="13.7209428"><ele>783.5999999999999</ele><time>2026-05-03T09:06:47.455Z</time></trkpt><trkpt lat="42.2533765" lon="13.7209801"><ele>785.8</ele><time>2026-05-03T09:06:48.46Z</time></trkpt><trkpt lat="42.2534709" lon="13.7210055"><ele>788.0</ele><time>2026-05-03T09:06:49.453Z</time></trkpt><trkpt lat="42.2535471" lon="13.7210528"><ele>786.6666666666667</ele><time>2026-05-03T09:06:50.466Z</time></trkpt><trkpt lat="42.2536109" lon="13.7211131"><ele>785.3333333333334</ele><time>2026-05-03T09:06:51.454Z</time></trkpt><trkpt lat="42.2536537" lon="13.7211976"><ele>784.0</ele><time>2026-05-03T09:06:52.461Z</time></trkpt><trkpt lat="42.2536862" lon="13.7213053"><ele>782.6666666666667</ele><time>2026-05-03T09:06:53.459Z</time></trkpt><trkpt lat="42.2537106" lon="13.7214159"><ele>781.3333333333334</ele><time>2026-05-03T09:06:54.458Z</time></trkpt><trkpt lat="42.2537126" lon="13.7215294"><ele>780.0</ele><time>2026-05-03T09:06:55.453Z</time></trkpt><trkpt lat="42.2536779" lon="13.7216462"><ele>780.0</ele><time>2026-05-03T09:06:56.454Z</time></trkpt><trkpt lat="42.2536141" lon="13.7217623"><ele>780.0</ele><time>2026-05-03T09:06:57.458Z</time></trkpt><trkpt lat="42.2535312" lon="13.7218744"><ele>780.0</ele><time>2026-05-03T09:06:58.46Z</time></trkpt><trkpt lat="42.2534395" lon="13.7219876"><ele>780.0</ele><time>2026-05-03T09:06:59.458Z</time></trkpt><trkpt lat="42.2533691" lon="13.7221098"><ele>781.0</ele><time>2026-05-03T09:07:00.448Z</time></trkpt><trkpt lat="42.2533272" lon="13.7222335"><ele>782.0</ele><time>2026-05-03T09:07:01.446Z</time></trkpt><trkpt lat="42.253311" lon="13.7223603"><ele>783.0</ele><time>2026-05-03T09:07:02.446Z</time></trkpt><trkpt lat="42.253322" lon="13.7224863"><ele>784.0</ele><time>2026-05-03T09:07:03.453Z</time></trkpt><trkpt lat="42.2533594" lon="13.7226146"><ele>785.0</ele><time>2026-05-03T09:07:04.448Z</time></trkpt><trkpt lat="42.253402" lon="13.7227333"><ele>786.0</ele><time>2026-05-03T09:07:05.456Z</time></trkpt><trkpt lat="42.253453" lon="13.7228415"><ele>787.0</ele><time>2026-05-03T09:07:06.461Z</time></trkpt><trkpt lat="42.2535066" lon="13.7229539"><ele>788.0</ele><time>2026-05-03T09:07:07.453Z</time></trkpt><trkpt lat="42.2535626" lon="13.7230757"><ele>789.0</ele><time>2026-05-03T09:07:08.458Z</time></trkpt><trkpt lat="42.2536194" lon="13.7232117"><ele>790.0</ele><time>2026-05-03T09:07:09.451Z</time></trkpt><trkpt lat="42.2536746" lon="13.7233586"><ele>790.0</ele><time>2026-05-03T09:07:10.462Z</time></trkpt><trkpt lat="42.253732" lon="13.7235156"><ele>790.0</ele><time>2026-05-03T09:07:11.453Z</time></trkpt><trkpt lat="42.2537893" lon="13.7236692"><ele>790.0</ele><time>2026-05-03T09:07:12.453Z</time></trkpt><trkpt lat="42.2538406" lon="13.7238007"><ele>790.0</ele><time>2026-05-03T09:07:13.456Z</time></trkpt><trkpt lat="42.2538766" lon="13.7238968"><ele>790.0</ele><time>2026-05-03T09:07:14.452Z</time></trkpt><trkpt lat="42.2539057" lon="13.7239839"><ele>790.4999999999999</ele><time>2026-05-03T09:07:15.463Z</time></trkpt><trkpt lat="42.2539431" lon="13.7240638"><ele>791.0</ele><time>2026-05-03T09:07:16.454Z</time></trkpt><trkpt lat="42.2539898" lon="13.7241365"><ele>791.5</ele><time>2026-05-03T09:07:17.452Z</time></trkpt><trkpt lat="42.2540479" lon="13.7241972"><ele>792.0</ele><time>2026-05-03T09:07:18.448Z</time></trkpt><trkpt lat="42.254106" lon="13.7242371"><ele>792.4999999999999</ele><time>2026-05-03T09:07:19.457Z</time></trkpt><trkpt lat="42.2542179" lon="13.7242728"><ele>793.0</ele><time>2026-05-03T09:07:21.461Z</time></trkpt><trkpt lat="42.2542806" lon="13.7242876"><ele>791.7142857142858</ele><time>2026-05-03T09:07:22.455Z</time></trkpt><trkpt lat="42.2543468" lon="13.7243115"><ele>790.4285714285714</ele><time>2026-05-03T09:07:23.461Z</time></trkpt><trkpt lat="42.254411" lon="13.724349"><ele>789.1428571428571</ele><time>2026-05-03T09:07:24.454Z</time></trkpt><trkpt lat="42.2544734" lon="13.7243897"><ele>787.8571428571429</ele><time>2026-05-03T09:07:25.47Z</time></trkpt><trkpt lat="42.2545427" lon="13.7244247"><ele>786.5714285714286</ele><time>2026-05-03T09:07:26.458Z</time></trkpt><trkpt lat="42.2546149" lon="13.7244608"><ele>785.2857142857143</ele><time>2026-05-03T09:07:27.467Z</time></trkpt><trkpt lat="42.2546916" lon="13.7244988"><ele>784.0</ele><time>2026-05-03T09:07:28.459Z</time></trkpt><trkpt lat="42.2547702" lon="13.7245353"><ele>780.9999999999999</ele><time>2026-05-03T09:07:29.466Z</time></trkpt><trkpt lat="42.2548509" lon="13.7245653"><ele>778.0</ele><time>2026-05-03T09:07:30.461Z</time></trkpt><trkpt lat="42.2549332" lon="13.7245963"><ele>775.0</ele><time>2026-05-03T09:07:31.466Z</time></trkpt><trkpt lat="42.2550129" lon="13.7246235"><ele>772.0</ele><time>2026-05-03T09:07:32.456Z</time></trkpt><trkpt lat="42.2550826" lon="13.724651"><ele>769.0</ele><time>2026-05-03T09:07:33.459Z</time></trkpt><trkpt lat="42.2551463" lon="13.7246856"><ele>766.0</ele><time>2026-05-03T09:07:34.456Z</time></trkpt><trkpt lat="42.2552031" lon="13.7247355"><ele>766.0</ele><time>2026-05-03T09:07:35.453Z</time></trkpt><trkpt lat="42.2552568" lon="13.7248089"><ele>766.0</ele><time>2026-05-03T09:07:36.459Z</time></trkpt><trkpt lat="42.2553051" lon="13.7249021"><ele>766.0</ele><time>2026-05-03T09:07:37.451Z</time></trkpt><trkpt lat="42.25534" lon="13.7250241"><ele>766.0</ele><time>2026-05-03T09:07:38.453Z</time></trkpt><trkpt lat="42.2553641" lon="13.725155"><ele>766.0</ele><time>2026-05-03T09:07:39.456Z</time></trkpt><trkpt lat="42.255387" lon="13.7252968"><ele>763.4</ele><time>2026-05-03T09:07:40.452Z</time></trkpt><trkpt lat="42.2554128" lon="13.7254316"><ele>760.8</ele><time>2026-05-03T09:07:41.455Z</time></trkpt><trkpt lat="42.2554409" lon="13.7255676"><ele>758.1999999999999</ele><time>2026-05-03T09:07:42.458Z</time></trkpt><trkpt lat="42.255476" lon="13.7257006"><ele>755.5999999999999</ele><time>2026-05-03T09:07:43.451Z</time></trkpt><trkpt lat="42.2555163" lon="13.7258331"><ele>753.0</ele><time>2026-05-03T09:07:44.462Z</time></trkpt><trkpt lat="42.2555582" lon="13.7259616"><ele>752.8</ele><time>2026-05-03T09:07:45.462Z</time></trkpt><trkpt lat="42.2556036" lon="13.7260869"><ele>752.5999999999999</ele><time>2026-05-03T09:07:46.46Z</time></trkpt><trkpt lat="42.2556465" lon="13.7262057"><ele>752.4000000000001</ele><time>2026-05-03T09:07:47.459Z</time></trkpt><trkpt lat="42.2556845" lon="13.7263249"><ele>752.2</ele><time>2026-05-03T09:07:48.451Z</time></trkpt><trkpt lat="42.2557117" lon="13.7264463"><ele>752.0</ele><time>2026-05-03T09:07:49.44Z</time></trkpt><trkpt lat="42.2557231" lon="13.7265531"><ele>752.0</ele><time>2026-05-03T09:07:50.439Z</time></trkpt><trkpt lat="42.2557117" lon="13.7266368"><ele>752.0</ele><time>2026-05-03T09:07:51.447Z</time></trkpt><trkpt lat="42.2556337" lon="13.726734"><ele>752.0</ele><time>2026-05-03T09:07:53.45Z</time></trkpt><trkpt lat="42.2555774" lon="13.7267836"><ele>752.0</ele><time>2026-05-03T09:07:54.444Z</time></trkpt><trkpt lat="42.2555098" lon="13.7268264"><ele>752.0</ele><time>2026-05-03T09:07:55.451Z</time></trkpt><trkpt lat="42.2554366" lon="13.7269159"><ele>752.0</ele><time>2026-05-03T09:07:57.444Z</time></trkpt><trkpt lat="42.2554384" lon="13.7271178"><ele>751.4000000000001</ele><time>2026-05-03T09:07:59.447Z</time></trkpt><trkpt lat="42.2554376" lon="13.727258"><ele>750.8000000000001</ele><time>2026-05-03T09:08:00.46Z</time></trkpt><trkpt lat="42.2554252" lon="13.7273821"><ele>750.2</ele><time>2026-05-03T09:08:01.446Z</time></trkpt><trkpt lat="42.2554229" lon="13.7274904"><ele>749.6</ele><time>2026-05-03T09:08:02.45Z</time></trkpt><trkpt lat="42.2554715" lon="13.7276118"><ele>749.0</ele><time>2026-05-03T09:08:04.448Z</time></trkpt><trkpt lat="42.2555475" lon="13.7276227"><ele>749.8333333333333</ele><time>2026-05-03T09:08:06.454Z</time></trkpt><trkpt lat="42.2556651" lon="13.7275983"><ele>750.6666666666666</ele><time>2026-05-03T09:08:08.464Z</time></trkpt><trkpt lat="42.2557287" lon="13.7275772"><ele>751.5</ele><time>2026-05-03T09:08:09.453Z</time></trkpt><trkpt lat="42.2557954" lon="13.7275729"><ele>752.3333333333334</ele><time>2026-05-03T09:08:10.462Z</time></trkpt><trkpt lat="42.255859" lon="13.7275833"><ele>753.1666666666667</ele><time>2026-05-03T09:08:11.451Z</time></trkpt><trkpt lat="42.2559646" lon="13.7276308"><ele>754.0</ele><time>2026-05-03T09:08:13.452Z</time></trkpt><trkpt lat="42.2560526" lon="13.7276867"><ele>750.5</ele><time>2026-05-03T09:08:15.456Z</time></trkpt><trkpt lat="42.2561478" lon="13.7277565"><ele>747.0</ele><time>2026-05-03T09:08:17.459Z</time></trkpt><trkpt lat="42.256205" lon="13.7278196"><ele>743.5</ele><time>2026-05-03T09:08:18.453Z</time></trkpt><trkpt lat="42.2562656" lon="13.7278752"><ele>740.0</ele><time>2026-05-03T09:08:19.463Z</time></trkpt><trkpt lat="42.2563309" lon="13.7279298"><ele>736.5</ele><time>2026-05-03T09:08:20.453Z</time></trkpt><trkpt lat="42.2564015" lon="13.7279987"><ele>733.0</ele><time>2026-05-03T09:08:21.457Z</time></trkpt><trkpt lat="42.2564755" lon="13.7280677"><ele>733.0</ele><time>2026-05-03T09:08:22.455Z</time></trkpt><trkpt lat="42.2565492" lon="13.7281325"><ele>733.0</ele><time>2026-05-03T09:08:23.461Z</time></trkpt><trkpt lat="42.2566227" lon="13.7281978"><ele>733.0</ele><time>2026-05-03T09:08:24.451Z</time></trkpt><trkpt lat="42.2566943" lon="13.7282546"><ele>733.0</ele><time>2026-05-03T09:08:25.461Z</time></trkpt><trkpt lat="42.2567638" lon="13.7283185"><ele>733.0</ele><time>2026-05-03T09:08:26.451Z</time></trkpt><trkpt lat="42.256826" lon="13.7283843"><ele>733.0</ele><time>2026-05-03T09:08:27.452Z</time></trkpt><trkpt lat="42.2568814" lon="13.7284536"><ele>732.9999999999999</ele><time>2026-05-03T09:08:28.453Z</time></trkpt><trkpt lat="42.256931" lon="13.728524"><ele>733.0</ele><time>2026-05-03T09:08:29.454Z</time></trkpt><trkpt lat="42.2569818" lon="13.7285935"><ele>733.0</ele><time>2026-05-03T09:08:30.466Z</time></trkpt><trkpt lat="42.2570409" lon="13.7286545"><ele>733.0</ele><time>2026-05-03T09:08:31.457Z</time></trkpt><trkpt lat="42.2570976" lon="13.728713"><ele>733.0</ele><time>2026-05-03T09:08:32.457Z</time></trkpt><trkpt lat="42.2571506" lon="13.7287786"><ele>732.9999999999999</ele><time>2026-05-03T09:08:33.455Z</time></trkpt><trkpt lat="42.2571986" lon="13.7288492"><ele>733.0</ele><time>2026-05-03T09:08:34.455Z</time></trkpt><trkpt lat="42.2572402" lon="13.728921"><ele>730.2</ele><time>2026-05-03T09:08:35.463Z</time></trkpt><trkpt lat="42.2572736" lon="13.7289946"><ele>727.4</ele><time>2026-05-03T09:08:36.455Z</time></trkpt><trkpt lat="42.2573167" lon="13.7291497"><ele>724.6</ele><time>2026-05-03T09:08:38.45Z</time></trkpt><trkpt lat="42.2573367" lon="13.7292306"><ele>721.8000000000001</ele><time>2026-05-03T09:08:39.459Z</time></trkpt><trkpt lat="42.2573882" lon="13.7293692"><ele>719.0</ele><time>2026-05-03T09:08:41.452Z</time></trkpt><trkpt lat="42.2574556" lon="13.7294667"><ele>713.3333333333333</ele><time>2026-05-03T09:08:43.457Z</time></trkpt><trkpt lat="42.2575576" lon="13.729532"><ele>707.6666666666666</ele><time>2026-05-03T09:08:45.459Z</time></trkpt><trkpt lat="42.2576215" lon="13.7295566"><ele>702.0</ele><time>2026-05-03T09:08:46.456Z</time></trkpt><trkpt lat="42.2576914" lon="13.7295742"><ele>696.3333333333334</ele><time>2026-05-03T09:08:47.466Z</time></trkpt><trkpt lat="42.2577624" lon="13.7295891"><ele>690.6666666666667</ele><time>2026-05-03T09:08:48.46Z</time></trkpt><trkpt lat="42.2578323" lon="13.7296"><ele>685.0</ele><time>2026-05-03T09:08:49.468Z</time></trkpt><trkpt lat="42.2579032" lon="13.7296057"><ele>685.0</ele><time>2026-05-03T09:08:50.459Z</time></trkpt><trkpt lat="42.2579849" lon="13.729616"><ele>685.0</ele><time>2026-05-03T09:08:51.465Z</time></trkpt><trkpt lat="42.258069" lon="13.7296309"><ele>685.0</ele><time>2026-05-03T09:08:52.461Z</time></trkpt><trkpt lat="42.2581467" lon="13.729651"><ele>685.0</ele><time>2026-05-03T09:08:53.466Z</time></trkpt><trkpt lat="42.258217" lon="13.7296713"><ele>685.0</ele><time>2026-05-03T09:08:54.461Z</time></trkpt><trkpt lat="42.2582811" lon="13.7296979"><ele>685.0</ele><time>2026-05-03T09:08:55.47Z</time></trkpt><trkpt lat="42.2583456" lon="13.7297348"><ele>686.0</ele><time>2026-05-03T09:08:56.456Z</time></trkpt><trkpt lat="42.2584103" lon="13.7297818"><ele>687.0</ele><time>2026-05-03T09:08:57.464Z</time></trkpt><trkpt lat="42.2584763" lon="13.7298303"><ele>688.0</ele><time>2026-05-03T09:08:58.464Z</time></trkpt><trkpt lat="42.2585423" lon="13.7298829"><ele>689.0</ele><time>2026-05-03T09:08:59.473Z</time></trkpt><trkpt lat="42.2586122" lon="13.7299337"><ele>690.0</ele><time>2026-05-03T09:09:00.464Z</time></trkpt><trkpt lat="42.2586838" lon="13.7299819"><ele>691.0</ele><time>2026-05-03T09:09:01.467Z</time></trkpt><trkpt lat="42.2587515" lon="13.7300269"><ele>691.0</ele><time>2026-05-03T09:09:02.459Z</time></trkpt><trkpt lat="42.2588199" lon="13.730068"><ele>691.0</ele><time>2026-05-03T09:09:03.467Z</time></trkpt><trkpt lat="42.2588979" lon="13.7301043"><ele>691.0</ele><time>2026-05-03T09:09:04.459Z</time></trkpt><trkpt lat="42.2589737" lon="13.7301435"><ele>691.0</ele><time>2026-05-03T09:09:05.466Z</time></trkpt><trkpt lat="42.2590484" lon="13.7301732"><ele>691.0</ele><time>2026-05-03T09:09:06.459Z</time></trkpt><trkpt lat="42.2591235" lon="13.730205"><ele>691.0</ele><time>2026-05-03T09:09:07.467Z</time></trkpt><trkpt lat="42.2591969" lon="13.7302369"><ele>686.9999999999999</ele><time>2026-05-03T09:09:08.459Z</time></trkpt><trkpt lat="42.2592675" lon="13.7302661"><ele>683.0</ele><time>2026-05-03T09:09:09.461Z</time></trkpt><trkpt lat="42.2593394" lon="13.7302926"><ele>679.0</ele><time>2026-05-03T09:09:10.461Z</time></trkpt><trkpt lat="42.2594112" lon="13.730316"><ele>675.0</ele><time>2026-05-03T09:09:11.458Z</time></trkpt><trkpt lat="42.2594797" lon="13.7303514"><ele>671.0</ele><time>2026-05-03T09:09:12.456Z</time></trkpt><trkpt lat="42.2595432" lon="13.7303895"><ele>666.9999999999999</ele><time>2026-05-03T09:09:13.464Z</time></trkpt><trkpt lat="42.2596046" lon="13.7304238"><ele>663.0</ele><time>2026-05-03T09:09:14.455Z</time></trkpt><trkpt lat="42.2597097" lon="13.7304893"><ele>664.1666666666666</ele><time>2026-05-03T09:09:16.456Z</time></trkpt><trkpt lat="42.2598299" lon="13.7305446"><ele>665.3333333333334</ele><time>2026-05-03T09:09:18.458Z</time></trkpt><trkpt lat="42.2598981" lon="13.7305765"><ele>666.5</ele><time>2026-05-03T09:09:19.467Z</time></trkpt><trkpt lat="42.2599645" lon="13.7306182"><ele>667.6666666666667</ele><time>2026-05-03T09:09:20.46Z</time></trkpt><trkpt lat="42.2600252" lon="13.7306599"><ele>668.8333333333334</ele><time>2026-05-03T09:09:21.455Z</time></trkpt><trkpt lat="42.2600849" lon="13.7306986"><ele>670.0</ele><time>2026-05-03T09:09:22.463Z</time></trkpt><trkpt lat="42.2601434" lon="13.7307381"><ele>670.0</ele><time>2026-05-03T09:09:23.458Z</time></trkpt><trkpt lat="42.2601986" lon="13.730779"><ele>670.0</ele><time>2026-05-03T09:09:24.464Z</time></trkpt><trkpt lat="42.2603101" lon="13.7308477"><ele>670.0</ele><time>2026-05-03T09:09:26.466Z</time></trkpt><trkpt lat="42.2603702" lon="13.7308878"><ele>670.0</ele><time>2026-05-03T09:09:27.461Z</time></trkpt><trkpt lat="42.260432" lon="13.7309356"><ele>670.0</ele><time>2026-05-03T09:09:28.466Z</time></trkpt><trkpt lat="42.2604989" lon="13.7309876"><ele>670.0</ele><time>2026-05-03T09:09:29.46Z</time></trkpt><trkpt lat="42.260566" lon="13.7310505"><ele>667.0</ele><time>2026-05-03T09:09:30.464Z</time></trkpt><trkpt lat="42.2606263" lon="13.7311117"><ele>664.0</ele><time>2026-05-03T09:09:31.461Z</time></trkpt><trkpt lat="42.2606843" lon="13.73117"><ele>661.0</ele><time>2026-05-03T09:09:32.465Z</time></trkpt><trkpt lat="42.2607425" lon="13.7312249"><ele>658.0</ele><time>2026-05-03T09:09:33.459Z</time></trkpt><trkpt lat="42.260794" lon="13.7312912"><ele>655.0</ele><time>2026-05-03T09:09:34.46Z</time></trkpt><trkpt lat="42.2608401" lon="13.7313559"><ele>652.0</ele><time>2026-05-03T09:09:35.462Z</time></trkpt><trkpt lat="42.2609064" lon="13.7314908"><ele>652.0</ele><time>2026-05-03T09:09:37.46Z</time></trkpt><trkpt lat="42.2609525" lon="13.7316361"><ele>652.0</ele><time>2026-05-03T09:09:39.449Z</time></trkpt><trkpt lat="42.2610081" lon="13.7317671"><ele>652.0</ele><time>2026-05-03T09:09:41.452Z</time></trkpt><trkpt lat="42.2610559" lon="13.731839"><ele>652.0</ele><time>2026-05-03T09:09:42.461Z</time></trkpt><trkpt lat="42.2611048" lon="13.731912"><ele>652.0</ele><time>2026-05-03T09:09:43.453Z</time></trkpt><trkpt lat="42.2611474" lon="13.7319747"><ele>652.0</ele><time>2026-05-03T09:09:44.453Z</time></trkpt><trkpt lat="42.2612376" lon="13.7320348"><ele>651.4000000000001</ele><time>2026-05-03T09:09:46.46Z</time></trkpt><trkpt lat="42.2613526" lon="13.7320368"><ele>650.8000000000001</ele><time>2026-05-03T09:09:48.46Z</time></trkpt><trkpt lat="42.2614192" lon="13.7320438"><ele>650.2</ele><time>2026-05-03T09:09:49.455Z</time></trkpt><trkpt lat="42.2615234" lon="13.7321073"><ele>649.6</ele><time>2026-05-03T09:09:51.451Z</time></trkpt><trkpt lat="42.2615911" lon="13.7322373"><ele>649.0</ele><time>2026-05-03T09:09:53.449Z</time></trkpt><trkpt lat="42.2615968" lon="13.7323718"><ele>649.0</ele><time>2026-05-03T09:09:55.455Z</time></trkpt><trkpt lat="42.2615714" lon="13.7325215"><ele>649.0</ele><time>2026-05-03T09:09:57.455Z</time></trkpt><trkpt lat="42.2615533" lon="13.7326733"><ele>649.0</ele><time>2026-05-03T09:09:59.452Z</time></trkpt><trkpt lat="42.2615568" lon="13.7328384"><ele>649.0</ele><time>2026-05-03T09:10:01.456Z</time></trkpt><trkpt lat="42.2615759" lon="13.732922"><ele>649.0</ele><time>2026-05-03T09:10:02.452Z</time></trkpt><trkpt lat="42.2615959" lon="13.7330094"><ele>646.5</ele><time>2026-05-03T09:10:03.457Z</time></trkpt><trkpt lat="42.2616099" lon="13.7330966"><ele>644.0</ele><time>2026-05-03T09:10:04.453Z</time></trkpt><trkpt lat="42.2616211" lon="13.733195"><ele>641.5</ele><time>2026-05-03T09:10:05.457Z</time></trkpt><trkpt lat="42.2616292" lon="13.7332991"><ele>639.0</ele><time>2026-05-03T09:10:06.452Z</time></trkpt><trkpt lat="42.2616449" lon="13.7334084"><ele>636.5</ele><time>2026-05-03T09:10:07.454Z</time></trkpt><trkpt lat="42.2616691" lon="13.7335131"><ele>634.0</ele><time>2026-05-03T09:10:08.452Z</time></trkpt><trkpt lat="42.2616941" lon="13.733613"><ele>633.1428571428571</ele><time>2026-05-03T09:10:09.461Z</time></trkpt><trkpt lat="42.261721" lon="13.7337072"><ele>632.2857142857142</ele><time>2026-05-03T09:10:10.453Z</time></trkpt><trkpt lat="42.2617412" lon="13.7338021"><ele>631.4285714285713</ele><time>2026-05-03T09:10:11.457Z</time></trkpt><trkpt lat="42.2617493" lon="13.7339052"><ele>630.5714285714286</ele><time>2026-05-03T09:10:12.451Z</time></trkpt><trkpt lat="42.2617479" lon="13.7340078"><ele>629.7142857142857</ele><time>2026-05-03T09:10:13.454Z</time></trkpt><trkpt lat="42.261744" lon="13.734111"><ele>628.8571428571428</ele><time>2026-05-03T09:10:14.446Z</time></trkpt><trkpt lat="42.2617371" lon="13.7342051"><ele>628.0</ele><time>2026-05-03T09:10:15.445Z</time></trkpt><trkpt lat="42.2617229" lon="13.7342932"><ele>628.0</ele><time>2026-05-03T09:10:16.45Z</time></trkpt><trkpt lat="42.2617026" lon="13.7343763"><ele>628.0</ele><time>2026-05-03T09:10:17.454Z</time></trkpt><trkpt lat="42.2616689" lon="13.7344684"><ele>628.0</ele><time>2026-05-03T09:10:18.46Z</time></trkpt><trkpt lat="42.2616329" lon="13.7345698"><ele>628.0</ele><time>2026-05-03T09:10:19.446Z</time></trkpt><trkpt lat="42.2615957" lon="13.734672"><ele>628.0</ele><time>2026-05-03T09:10:20.454Z</time></trkpt><trkpt lat="42.2615492" lon="13.7347667"><ele>628.0</ele><time>2026-05-03T09:10:21.45Z</time></trkpt><trkpt lat="42.2614938" lon="13.7348504"><ele>624.5</ele><time>2026-05-03T09:10:22.455Z</time></trkpt><trkpt lat="42.2614342" lon="13.7349218"><ele>621.0</ele><time>2026-05-03T09:10:23.446Z</time></trkpt><trkpt lat="42.2613755" lon="13.7349932"><ele>617.5</ele><time>2026-05-03T09:10:24.458Z</time></trkpt><trkpt lat="42.2613227" lon="13.7350613"><ele>614.0</ele><time>2026-05-03T09:10:25.458Z</time></trkpt><trkpt lat="42.2612699" lon="13.7351295"><ele>610.5</ele><time>2026-05-03T09:10:26.451Z</time></trkpt><trkpt lat="42.2612198" lon="13.7351943"><ele>607.0</ele><time>2026-05-03T09:10:27.449Z</time></trkpt><trkpt lat="42.2611516" lon="13.7353063"><ele>606.5</ele><time>2026-05-03T09:10:29.452Z</time></trkpt><trkpt lat="42.26112" lon="13.7354536"><ele>606.0</ele><time>2026-05-03T09:10:31.451Z</time></trkpt><trkpt lat="42.2610949" lon="13.735552"><ele>605.5</ele><time>2026-05-03T09:10:32.457Z</time></trkpt><trkpt lat="42.2610668" lon="13.7356401"><ele>605.0</ele><time>2026-05-03T09:10:33.451Z</time></trkpt><trkpt lat="42.261049" lon="13.7357261"><ele>604.5</ele><time>2026-05-03T09:10:34.456Z</time></trkpt><trkpt lat="42.2610393" lon="13.7358164"><ele>604.0</ele><time>2026-05-03T09:10:35.46Z</time></trkpt><trkpt lat="42.2610307" lon="13.7359024"><ele>602.4</ele><time>2026-05-03T09:10:36.453Z</time></trkpt><trkpt lat="42.2610061" lon="13.7360579"><ele>600.8</ele><time>2026-05-03T09:10:38.457Z</time></trkpt><trkpt lat="42.2609916" lon="13.7361963"><ele>599.2</ele><time>2026-05-03T09:10:40.459Z</time></trkpt><trkpt lat="42.26096" lon="13.7363064"><ele>597.6</ele><time>2026-05-03T09:10:42.449Z</time></trkpt><trkpt lat="42.2609678" lon="13.7364224"><ele>596.0</ele><time>2026-05-03T09:10:45.455Z</time></trkpt><trkpt lat="42.2610334" lon="13.7364962"><ele>596.0</ele><time>2026-05-03T09:10:47.453Z</time></trkpt><trkpt lat="42.2611287" lon="13.7365924"><ele>596.0</ele><time>2026-05-03T09:10:49.456Z</time></trkpt><trkpt lat="42.2612126" lon="13.7367049"><ele>596.0</ele><time>2026-05-03T09:10:51.455Z</time></trkpt><trkpt lat="42.2612571" lon="13.7367707"><ele>596.0</ele><time>2026-05-03T09:10:52.46Z</time></trkpt><trkpt lat="42.2613021" lon="13.7368317"><ele>596.0</ele><time>2026-05-03T09:10:53.457Z</time></trkpt><trkpt lat="42.2613492" lon="13.7368955"><ele>596.0</ele><time>2026-05-03T09:10:54.457Z</time></trkpt><trkpt lat="42.2614038" lon="13.7369484"><ele>593.5</ele><time>2026-05-03T09:10:55.467Z</time></trkpt><trkpt lat="42.2614601" lon="13.736989"><ele>591.0</ele><time>2026-05-03T09:10:56.457Z</time></trkpt><trkpt lat="42.2615606" lon="13.7370482"><ele>588.5</ele><time>2026-05-03T09:10:58.457Z</time></trkpt><trkpt lat="42.2616751" lon="13.7370798"><ele>586.0</ele><time>2026-05-03T09:11:00.463Z</time></trkpt><trkpt lat="42.2617394" lon="13.7371012"><ele>583.5</ele><time>2026-05-03T09:11:01.46Z</time></trkpt><trkpt lat="42.2618024" lon="13.7371221"><ele>581.0</ele><time>2026-05-03T09:11:02.462Z</time></trkpt><trkpt lat="42.2618673" lon="13.7371458"><ele>581.0</ele><time>2026-05-03T09:11:03.457Z</time></trkpt><trkpt lat="42.2619334" lon="13.7371625"><ele>581.0</ele><time>2026-05-03T09:11:04.46Z</time></trkpt><trkpt lat="42.2620006" lon="13.737192"><ele>581.0</ele><time>2026-05-03T09:11:05.459Z</time></trkpt><trkpt lat="42.2620681" lon="13.7372381"><ele>581.0</ele><time>2026-05-03T09:11:06.457Z</time></trkpt><trkpt lat="42.2621388" lon="13.7373012"><ele>581.0</ele><time>2026-05-03T09:11:07.457Z</time></trkpt><trkpt lat="42.2622094" lon="13.7373602"><ele>581.0</ele><time>2026-05-03T09:11:08.462Z</time></trkpt><trkpt lat="42.2622772" lon="13.7374135"><ele>581.8333333333333</ele><time>2026-05-03T09:11:09.464Z</time></trkpt><trkpt lat="42.2623441" lon="13.7374645"><ele>582.6666666666666</ele><time>2026-05-03T09:11:10.462Z</time></trkpt><trkpt lat="42.2624125" lon="13.7375084"><ele>583.5</ele><time>2026-05-03T09:11:11.456Z</time></trkpt><trkpt lat="42.2624805" lon="13.7375516"><ele>584.3333333333334</ele><time>2026-05-03T09:11:12.458Z</time></trkpt><trkpt lat="42.2625406" lon="13.7375868"><ele>585.1666666666667</ele><time>2026-05-03T09:11:13.458Z</time></trkpt><trkpt lat="42.2626715" lon="13.7376154"><ele>586.0</ele><time>2026-05-03T09:11:15.464Z</time></trkpt><trkpt lat="42.2627445" lon="13.7376255"><ele>586.0</ele><time>2026-05-03T09:11:16.458Z</time></trkpt><trkpt lat="42.2628273" lon="13.7376352"><ele>586.0</ele><time>2026-05-03T09:11:17.464Z</time></trkpt><trkpt lat="42.2629118" lon="13.7376501"><ele>586.0</ele><time>2026-05-03T09:11:18.458Z</time></trkpt><trkpt lat="42.2629947" lon="13.737668"><ele>586.0</ele><time>2026-05-03T09:11:19.47Z</time></trkpt><trkpt lat="42.2630775" lon="13.7376846"><ele>586.0</ele><time>2026-05-03T09:11:20.457Z</time></trkpt><trkpt lat="42.2631555" lon="13.7376981"><ele>586.0</ele><time>2026-05-03T09:11:21.46Z</time></trkpt><trkpt lat="42.2632274" lon="13.7377127"><ele>581.6666666666667</ele><time>2026-05-03T09:11:22.458Z</time></trkpt><trkpt lat="42.2632932" lon="13.7377307"><ele>577.3333333333334</ele><time>2026-05-03T09:11:23.459Z</time></trkpt><trkpt lat="42.2633962" lon="13.7377506"><ele>573.0</ele><time>2026-05-03T09:11:25.46Z</time></trkpt><trkpt lat="42.2634648" lon="13.7377726"><ele>568.6666666666666</ele><time>2026-05-03T09:11:27.458Z</time></trkpt><trkpt lat="42.2635413" lon="13.7377885"><ele>564.3333333333333</ele><time>2026-05-03T09:11:57.463Z</time></trkpt><trkpt lat="42.2636207" lon="13.7377981"><ele>560.0</ele><time>2026-05-03T09:11:59.469Z</time></trkpt><trkpt lat="42.263713" lon="13.7378036"><ele>560.0</ele><time>2026-05-03T09:12:01.461Z</time></trkpt><trkpt lat="42.2638022" lon="13.7377981"><ele>560.0</ele><time>2026-05-03T09:12:03.462Z</time></trkpt><trkpt lat="42.2638956" lon="13.7377868"><ele>560.0</ele><time>2026-05-03T09:12:05.468Z</time></trkpt><trkpt lat="42.2639926" lon="13.7377783"><ele>560.0</ele><time>2026-05-03T09:12:07.47Z</time></trkpt><trkpt lat="42.2641027" lon="13.7378147"><ele>560.0</ele><time>2026-05-03T09:12:09.466Z</time></trkpt><trkpt lat="42.2642115" lon="13.7378779"><ele>559.3333333333333</ele><time>2026-05-03T09:12:11.464Z</time></trkpt><trkpt lat="42.2643234" lon="13.7379301"><ele>558.6666666666666</ele><time>2026-05-03T09:12:13.459Z</time></trkpt><trkpt lat="42.2644459" lon="13.7379662"><ele>558.0</ele><time>2026-05-03T09:12:15.459Z</time></trkpt><trkpt lat="42.2645083" lon="13.737982"><ele>557.3333333333334</ele><time>2026-05-03T09:12:16.47Z</time></trkpt><trkpt lat="42.2645733" lon="13.7379921"><ele>556.6666666666667</ele><time>2026-05-03T09:12:17.461Z</time></trkpt><trkpt lat="42.2646387" lon="13.7380066"><ele>556.0</ele><time>2026-05-03T09:12:18.467Z</time></trkpt><trkpt lat="42.2647575" lon="13.7380354"><ele>555.2</ele><time>2026-05-03T09:12:20.469Z</time></trkpt><trkpt lat="42.2648489" lon="13.7380575"><ele>554.4000000000001</ele><time>2026-05-03T09:12:22.462Z</time></trkpt><trkpt lat="42.2649109" lon="13.738106"><ele>553.6</ele><time>2026-05-03T09:12:25.465Z</time></trkpt><trkpt lat="42.2650265" lon="13.7381577"><ele>552.8000000000001</ele><time>2026-05-03T09:12:27.461Z</time></trkpt><trkpt lat="42.2651378" lon="13.738185"><ele>552.0</ele><time>2026-05-03T09:12:28.456Z</time></trkpt><trkpt lat="42.2652818" lon="13.7382096"><ele>552.0</ele><time>2026-05-03T09:12:29.458Z</time></trkpt><trkpt lat="42.2654461" lon="13.7382222"><ele>552.0</ele><time>2026-05-03T09:12:30.468Z</time></trkpt><trkpt lat="42.265658" lon="13.7382201"><ele>552.0</ele><time>2026-05-03T09:12:31.454Z</time></trkpt><trkpt lat="42.2658709" lon="13.7382271"><ele>551.3333333333334</ele><time>2026-05-03T09:12:32.457Z</time></trkpt><trkpt lat="42.2660878" lon="13.7382264"><ele>550.6666666666667</ele><time>2026-05-03T09:12:33.451Z</time></trkpt><trkpt lat="42.2663147" lon="13.7382296"><ele>550.0</ele><time>2026-05-03T09:12:34.458Z</time></trkpt><trkpt lat="42.2665288" lon="13.7382359"><ele>549.0</ele><time>2026-05-03T09:12:35.451Z</time></trkpt><trkpt lat="42.2667165" lon="13.7382475"><ele>548.0</ele><time>2026-05-03T09:12:36.458Z</time></trkpt><trkpt lat="42.2668982" lon="13.7382476"><ele>547.0</ele><time>2026-05-03T09:12:37.454Z</time></trkpt><trkpt lat="42.2670642" lon="13.7382402"><ele>547.0</ele><time>2026-05-03T09:12:38.463Z</time></trkpt><trkpt lat="42.26724" lon="13.7382537"><ele>547.0</ele><time>2026-05-03T09:12:39.461Z</time></trkpt><trkpt lat="42.2674076" lon="13.7382672"><ele>547.0</ele><time>2026-05-03T09:12:40.459Z</time></trkpt><trkpt lat="42.2675872" lon="13.7382689"><ele>545.6666666666667</ele><time>2026-05-03T09:12:41.457Z</time></trkpt><trkpt lat="42.2677848" lon="13.7382651"><ele>544.3333333333334</ele><time>2026-05-03T09:12:42.465Z</time></trkpt><trkpt lat="42.2679665" lon="13.7382831"><ele>543.0</ele><time>2026-05-03T09:12:43.452Z</time></trkpt><trkpt lat="42.268162" lon="13.7382864"><ele>541.75</ele><time>2026-05-03T09:12:44.463Z</time></trkpt><trkpt lat="42.2683418" lon="13.7382867"><ele>540.5</ele><time>2026-05-03T09:12:45.45Z</time></trkpt><trkpt lat="42.2684553" lon="13.7382897"><ele>539.25</ele><time>2026-05-03T09:12:46.461Z</time></trkpt><trkpt lat="42.2685325" lon="13.7383093"><ele>538.0</ele><time>2026-05-03T09:12:47.449Z</time></trkpt><trkpt lat="42.2686112" lon="13.7383169"><ele>538.0</ele><time>2026-05-03T09:12:57.456Z</time></trkpt><trkpt lat="42.2687144" lon="13.7383564"><ele>538.0</ele><time>2026-05-03T09:13:01.465Z</time></trkpt><trkpt lat="42.2688288" lon="13.7384235"><ele>538.0</ele><time>2026-05-03T09:13:03.465Z</time></trkpt><trkpt lat="42.2688997" lon="13.7384645"><ele>538.0</ele><time>2026-05-03T09:13:04.455Z</time></trkpt><trkpt lat="42.2689709" lon="13.7385092"><ele>538.0</ele><time>2026-05-03T09:13:05.463Z</time></trkpt><trkpt lat="42.2690435" lon="13.7385468"><ele>535.6</ele><time>2026-05-03T09:13:06.456Z</time></trkpt><trkpt lat="42.2691127" lon="13.7385966"><ele>533.1999999999999</ele><time>2026-05-03T09:13:07.457Z</time></trkpt><trkpt lat="42.2691741" lon="13.7386453"><ele>530.8</ele><time>2026-05-03T09:13:08.456Z</time></trkpt><trkpt lat="42.2692822" lon="13.7387143"><ele>528.4</ele><time>2026-05-03T09:13:10.457Z</time></trkpt><trkpt lat="42.2693803" lon="13.7387819"><ele>526.0</ele><time>2026-05-03T09:13:12.459Z</time></trkpt><trkpt lat="42.2694239" lon="13.7388575"><ele>526.0</ele><time>2026-05-03T09:13:14.458Z</time></trkpt><trkpt lat="42.2694057" lon="13.7390146"><ele>526.0</ele><time>2026-05-03T09:13:16.456Z</time></trkpt><trkpt lat="42.2693834" lon="13.7391141"><ele>526.0</ele><time>2026-05-03T09:13:17.457Z</time></trkpt><trkpt lat="42.2693561" lon="13.7392255"><ele>526.0</ele><time>2026-05-03T09:13:18.457Z</time></trkpt><trkpt lat="42.269332" lon="13.7393379"><ele>526.0</ele><time>2026-05-03T09:13:19.466Z</time></trkpt><trkpt lat="42.2693156" lon="13.7394359"><ele>526.0</ele><time>2026-05-03T09:13:20.455Z</time></trkpt><trkpt lat="42.2692939" lon="13.7395271"><ele>524.6666666666667</ele><time>2026-05-03T09:13:21.465Z</time></trkpt><trkpt lat="42.2692735" lon="13.7396126"><ele>523.3333333333334</ele><time>2026-05-03T09:13:22.457Z</time></trkpt><trkpt lat="42.2692572" lon="13.739704"><ele>522.0</ele><time>2026-05-03T09:13:23.468Z</time></trkpt><trkpt lat="42.2692348" lon="13.7398008"><ele>520.6666666666666</ele><time>2026-05-03T09:13:24.457Z</time></trkpt><trkpt lat="42.2692098" lon="13.739897"><ele>519.3333333333333</ele><time>2026-05-03T09:13:25.467Z</time></trkpt><trkpt lat="42.2691965" lon="13.7400003"><ele>518.0</ele><time>2026-05-03T09:13:26.457Z</time></trkpt><trkpt lat="42.2691929" lon="13.7401507"><ele>514.6</ele><time>2026-05-03T09:13:28.458Z</time></trkpt><trkpt lat="42.269152" lon="13.740268"><ele>511.19999999999993</ele><time>2026-05-03T09:13:30.457Z</time></trkpt><trkpt lat="42.2690448" lon="13.7403805"><ele>507.8</ele><time>2026-05-03T09:13:32.463Z</time></trkpt><trkpt lat="42.2689735" lon="13.7404309"><ele>504.4</ele><time>2026-05-03T09:13:33.466Z</time></trkpt><trkpt lat="42.2689023" lon="13.7404725"><ele>501.0</ele><time>2026-05-03T09:13:34.465Z</time></trkpt><trkpt lat="42.2688284" lon="13.740511"><ele>501.0</ele><time>2026-05-03T09:13:35.464Z</time></trkpt><trkpt lat="42.2687627" lon="13.7405433"><ele>501.0</ele><time>2026-05-03T09:13:36.465Z</time></trkpt><trkpt lat="42.2686501" lon="13.7405732"><ele>501.0</ele><time>2026-05-03T09:13:38.465Z</time></trkpt><trkpt lat="42.2685751" lon="13.7405561"><ele>501.0</ele><time>2026-05-03T09:13:40.458Z</time></trkpt><trkpt lat="42.2685559" lon="13.7404557"><ele>501.0</ele><time>2026-05-03T09:13:42.452Z</time></trkpt><trkpt lat="42.2685551" lon="13.7402987"><ele>503.0</ele><time>2026-05-03T09:13:44.459Z</time></trkpt><trkpt lat="42.2685592" lon="13.7401439"><ele>505.0</ele><time>2026-05-03T09:13:46.46Z</time></trkpt><trkpt lat="42.2685134" lon="13.7400252"><ele>507.0</ele><time>2026-05-03T09:13:48.453Z</time></trkpt><trkpt lat="42.268431" lon="13.7399926"><ele>509.0</ele><time>2026-05-03T09:13:50.456Z</time></trkpt><trkpt lat="42.2683468" lon="13.7400512"><ele>511.0</ele><time>2026-05-03T09:13:52.452Z</time></trkpt><trkpt lat="42.2682867" lon="13.7401899"><ele>509.33333333333337</ele><time>2026-05-03T09:13:54.463Z</time></trkpt><trkpt lat="42.2682443" lon="13.7402632"><ele>507.6666666666667</ele><time>2026-05-03T09:13:55.461Z</time></trkpt><trkpt lat="42.2681923" lon="13.7403311"><ele>506.0</ele><time>2026-05-03T09:13:56.457Z</time></trkpt><trkpt lat="42.2681233" lon="13.740383"><ele>504.33333333333337</ele><time>2026-05-03T09:13:57.462Z</time></trkpt><trkpt lat="42.268033" lon="13.7404253"><ele>502.6666666666667</ele><time>2026-05-03T09:13:58.457Z</time></trkpt><trkpt lat="42.2679307" lon="13.7404583"><ele>501.0</ele><time>2026-05-03T09:13:59.463Z</time></trkpt><trkpt lat="42.2678328" lon="13.7404891"><ele>499.4</ele><time>2026-05-03T09:14:00.456Z</time></trkpt><trkpt lat="42.2677504" lon="13.7405165"><ele>497.8</ele><time>2026-05-03T09:14:01.458Z</time></trkpt><trkpt lat="42.2676301" lon="13.7405041"><ele>496.19999999999993</ele><time>2026-05-03T09:14:03.461Z</time></trkpt><trkpt lat="42.2675696" lon="13.7404798"><ele>494.59999999999997</ele><time>2026-05-03T09:14:04.455Z</time></trkpt><trkpt lat="42.2674527" lon="13.7404267"><ele>493.0</ele><time>2026-05-03T09:14:06.453Z</time></trkpt><trkpt lat="42.267395" lon="13.7403778"><ele>493.00000000000006</ele><time>2026-05-03T09:14:07.461Z</time></trkpt><trkpt lat="42.2673326" lon="13.7403286"><ele>493.0</ele><time>2026-05-03T09:14:08.455Z</time></trkpt><trkpt lat="42.2672697" lon="13.7402728"><ele>493.0</ele><time>2026-05-03T09:14:09.466Z</time></trkpt><trkpt lat="42.2672086" lon="13.7402142"><ele>493.0</ele><time>2026-05-03T09:14:10.457Z</time></trkpt><trkpt lat="42.2671423" lon="13.7401787"><ele>493.00000000000006</ele><time>2026-05-03T09:14:11.459Z</time></trkpt><trkpt lat="42.2670394" lon="13.7401635"><ele>493.0</ele><time>2026-05-03T09:14:13.46Z</time></trkpt><trkpt lat="42.2669538" lon="13.7401898"><ele>494.59999999999997</ele><time>2026-05-03T09:14:15.46Z</time></trkpt><trkpt lat="42.2668171" lon="13.7401575"><ele>496.19999999999993</ele><time>2026-05-03T09:14:17.457Z</time></trkpt><trkpt lat="42.2667399" lon="13.7401413"><ele>497.8</ele><time>2026-05-03T09:14:18.453Z</time></trkpt><trkpt lat="42.2666602" lon="13.7401519"><ele>499.4</ele><time>2026-05-03T09:14:19.461Z</time></trkpt><trkpt lat="42.2665743" lon="13.7401587"><ele>501.0</ele><time>2026-05-03T09:14:20.455Z</time></trkpt><trkpt lat="42.2664862" lon="13.7401679"><ele>501.0</ele><time>2026-05-03T09:14:21.459Z</time></trkpt><trkpt lat="42.26641" lon="13.7401937"><ele>501.0</ele><time>2026-05-03T09:14:22.449Z</time></trkpt><trkpt lat="42.266341" lon="13.7402152"><ele>501.0</ele><time>2026-05-03T09:14:23.459Z</time></trkpt><trkpt lat="42.2662752" lon="13.7402328"><ele>501.0</ele><time>2026-05-03T09:14:24.458Z</time></trkpt><trkpt lat="42.2661831" lon="13.7402825"><ele>501.0</ele><time>2026-05-03T09:14:26.459Z</time></trkpt><trkpt lat="42.2661059" lon="13.7404057"><ele>501.0</ele><time>2026-05-03T09:14:28.462Z</time></trkpt><trkpt lat="42.2660524" lon="13.740483"><ele>498.6666666666667</ele><time>2026-05-03T09:14:29.455Z</time></trkpt><trkpt lat="42.2659842" lon="13.7405598"><ele>496.33333333333337</ele><time>2026-05-03T09:14:30.465Z</time></trkpt><trkpt lat="42.2659104" lon="13.7406303"><ele>494.0</ele><time>2026-05-03T09:14:31.454Z</time></trkpt><trkpt lat="42.2658395" lon="13.7407036"><ele>491.6666666666667</ele><time>2026-05-03T09:14:32.459Z</time></trkpt><trkpt lat="42.2657748" lon="13.7407819"><ele>489.33333333333337</ele><time>2026-05-03T09:14:33.453Z</time></trkpt><trkpt lat="42.2657063" lon="13.7408512"><ele>487.0</ele><time>2026-05-03T09:14:34.448Z</time></trkpt><trkpt lat="42.2656381" lon="13.7409016"><ele>487.00000000000006</ele><time>2026-05-03T09:14:35.457Z</time></trkpt><trkpt lat="42.2655632" lon="13.7409349"><ele>487.0</ele><time>2026-05-03T09:14:36.454Z</time></trkpt><trkpt lat="42.2654829" lon="13.7409561"><ele>487.0</ele><time>2026-05-03T09:14:37.461Z</time></trkpt><trkpt lat="42.2654045" lon="13.7409645"><ele>487.0</ele><time>2026-05-03T09:14:38.451Z</time></trkpt><trkpt lat="42.265334" lon="13.7409761"><ele>487.00000000000006</ele><time>2026-05-03T09:14:39.461Z</time></trkpt><trkpt lat="42.2652577" lon="13.7409743"><ele>487.0</ele><time>2026-05-03T09:14:40.449Z</time></trkpt><trkpt lat="42.2651753" lon="13.7409701"><ele>487.00000000000006</ele><time>2026-05-03T09:14:41.461Z</time></trkpt><trkpt lat="42.2650875" lon="13.7409592"><ele>487.0</ele><time>2026-05-03T09:14:42.45Z</time></trkpt><trkpt lat="42.2650054" lon="13.7409307"><ele>487.0</ele><time>2026-05-03T09:14:43.46Z</time></trkpt><trkpt lat="42.2649294" lon="13.7409139"><ele>487.0</ele><time>2026-05-03T09:14:44.448Z</time></trkpt><trkpt lat="42.2648526" lon="13.7409216"><ele>487.00000000000006</ele><time>2026-05-03T09:14:45.457Z</time></trkpt><trkpt lat="42.2647724" lon="13.7409394"><ele>487.0</ele><time>2026-05-03T09:14:46.452Z</time></trkpt><trkpt lat="42.2646968" lon="13.7409569"><ele>487.50000000000006</ele><time>2026-05-03T09:14:47.461Z</time></trkpt><trkpt lat="42.2646231" lon="13.7409845"><ele>488.0</ele><time>2026-05-03T09:14:48.455Z</time></trkpt><trkpt lat="42.2645504" lon="13.7410311"><ele>488.5</ele><time>2026-05-03T09:14:49.455Z</time></trkpt><trkpt lat="42.2644681" lon="13.7410823"><ele>489.0</ele><time>2026-05-03T09:14:50.452Z</time></trkpt><trkpt lat="42.2643867" lon="13.7411372"><ele>489.50000000000006</ele><time>2026-05-03T09:14:51.461Z</time></trkpt><trkpt lat="42.2642984" lon="13.7411798"><ele>490.0</ele><time>2026-05-03T09:14:52.454Z</time></trkpt><trkpt lat="42.2642056" lon="13.7412063"><ele>486.8</ele><time>2026-05-03T09:14:53.46Z</time></trkpt><trkpt lat="42.2641174" lon="13.7412259"><ele>483.6</ele><time>2026-05-03T09:14:54.453Z</time></trkpt><trkpt lat="42.2640266" lon="13.7412302"><ele>480.4</ele><time>2026-05-03T09:14:55.465Z</time></trkpt><trkpt lat="42.2639346" lon="13.7412217"><ele>477.2</ele><time>2026-05-03T09:14:56.454Z</time></trkpt><trkpt lat="42.2638425" lon="13.7412177"><ele>474.0</ele><time>2026-05-03T09:14:57.462Z</time></trkpt><trkpt lat="42.2637533" lon="13.7412135"><ele>474.0</ele><time>2026-05-03T09:14:58.452Z</time></trkpt><trkpt lat="42.2636718" lon="13.7412068"><ele>474.0</ele><time>2026-05-03T09:14:59.465Z</time></trkpt><trkpt lat="42.2635998" lon="13.7412041"><ele>474.0</ele><time>2026-05-03T09:15:00.452Z</time></trkpt><trkpt lat="42.2635043" lon="13.7412064"><ele>474.0</ele><time>2026-05-03T09:15:02.45Z</time></trkpt><trkpt lat="42.2634407" lon="13.7412745"><ele>474.0</ele><time>2026-05-03T09:15:04.458Z</time></trkpt><trkpt lat="42.2633797" lon="13.7413812"><ele>474.0</ele><time>2026-05-03T09:15:06.458Z</time></trkpt><trkpt lat="42.2633229" lon="13.7415016"><ele>474.0</ele><time>2026-05-03T09:15:08.453Z</time></trkpt><trkpt lat="42.2633157" lon="13.7416205"><ele>474.0</ele><time>2026-05-03T09:15:10.448Z</time></trkpt><trkpt lat="42.2632395" lon="13.7416924"><ele>474.0</ele><time>2026-05-03T09:15:13.459Z</time></trkpt><trkpt lat="42.2631767" lon="13.7417175"><ele>474.0</ele><time>2026-05-03T09:15:14.454Z</time></trkpt><trkpt lat="42.2630973" lon="13.7417692"><ele>474.0</ele><time>2026-05-03T09:15:16.454Z</time></trkpt><trkpt lat="42.2630938" lon="13.7418888"><ele>474.0</ele><time>2026-05-03T09:15:18.453Z</time></trkpt><trkpt lat="42.2631356" lon="13.7420386"><ele>472.3333333333333</ele><time>2026-05-03T09:15:20.452Z</time></trkpt><trkpt lat="42.2630978" lon="13.7421366"><ele>470.66666666666663</ele><time>2026-05-03T09:15:22.45Z</time></trkpt><trkpt lat="42.263004" lon="13.7421856"><ele>469.0</ele><time>2026-05-03T09:15:24.451Z</time></trkpt><trkpt lat="42.2629733" lon="13.7423019"><ele>467.3333333333333</ele><time>2026-05-03T09:15:26.453Z</time></trkpt><trkpt lat="42.2629858" lon="13.7423951"><ele>465.66666666666663</ele><time>2026-05-03T09:15:27.455Z</time></trkpt><trkpt lat="42.2630015" lon="13.7425153"><ele>464.0</ele><time>2026-05-03T09:15:28.45Z</time></trkpt><trkpt lat="42.2630062" lon="13.7426288"><ele>462.8333333333333</ele><time>2026-05-03T09:15:29.459Z</time></trkpt><trkpt lat="42.2630013" lon="13.7427169"><ele>461.66666666666663</ele><time>2026-05-03T09:15:30.46Z</time></trkpt><trkpt lat="42.2629134" lon="13.7427899"><ele>460.5</ele><time>2026-05-03T09:15:32.458Z</time></trkpt><trkpt lat="42.2628325" lon="13.7428121"><ele>459.33333333333337</ele><time>2026-05-03T09:15:33.456Z</time></trkpt><trkpt lat="42.2627488" lon="13.7428365"><ele>458.1666666666667</ele><time>2026-05-03T09:15:34.454Z</time></trkpt><trkpt lat="42.2626665" lon="13.7428849"><ele>457.0</ele><time>2026-05-03T09:15:35.455Z</time></trkpt><trkpt lat="42.2625869" lon="13.742935"><ele>457.00000000000006</ele><time>2026-05-03T09:15:36.455Z</time></trkpt><trkpt lat="42.2625179" lon="13.7429893"><ele>457.0</ele><time>2026-05-03T09:15:37.46Z</time></trkpt><trkpt lat="42.2624512" lon="13.7430321"><ele>457.0</ele><time>2026-05-03T09:15:38.454Z</time></trkpt><trkpt lat="42.2623865" lon="13.7430616"><ele>457.0</ele><time>2026-05-03T09:15:39.458Z</time></trkpt><trkpt lat="42.2622734" lon="13.743103"><ele>457.00000000000006</ele><time>2026-05-03T09:15:41.458Z</time></trkpt><trkpt lat="42.2622244" lon="13.7431588"><ele>457.0</ele><time>2026-05-03T09:15:42.452Z</time></trkpt><trkpt lat="42.2621832" lon="13.7432358"><ele>457.00000000000006</ele><time>2026-05-03T09:15:43.461Z</time></trkpt><trkpt lat="42.2621483" lon="13.7433252"><ele>457.0</ele><time>2026-05-03T09:15:44.455Z</time></trkpt><trkpt lat="42.2621244" lon="13.7434154"><ele>457.0</ele><time>2026-05-03T09:15:45.46Z</time></trkpt><trkpt lat="42.2621019" lon="13.7434983"><ele>457.0</ele><time>2026-05-03T09:15:46.451Z</time></trkpt><trkpt lat="42.2620454" lon="13.7435891"><ele>457.00000000000006</ele><time>2026-05-03T09:15:48.452Z</time></trkpt><trkpt lat="42.2620668" lon="13.7436979"><ele>457.0</ele><time>2026-05-03T09:15:51.457Z</time></trkpt><trkpt lat="42.2621091" lon="13.7437857"><ele>457.00000000000006</ele><time>2026-05-03T09:15:52.462Z</time></trkpt><trkpt lat="42.2621621" lon="13.7438743"><ele>457.0</ele><time>2026-05-03T09:15:53.455Z</time></trkpt><trkpt lat="42.2622154" lon="13.7439478"><ele>457.0</ele><time>2026-05-03T09:15:54.459Z</time></trkpt><trkpt lat="42.2622781" lon="13.7440021"><ele>457.0</ele><time>2026-05-03T09:15:55.451Z</time></trkpt><trkpt lat="42.2623526" lon="13.7440319"><ele>457.00000000000006</ele><time>2026-05-03T09:15:56.454Z</time></trkpt><trkpt lat="42.2624431" lon="13.7440392"><ele>457.0</ele><time>2026-05-03T09:15:57.448Z</time></trkpt><trkpt lat="42.2625505" lon="13.7440305"><ele>456.0</ele><time>2026-05-03T09:15:58.452Z</time></trkpt><trkpt lat="42.2626677" lon="13.7440164"><ele>455.0</ele><time>2026-05-03T09:15:59.455Z</time></trkpt><trkpt lat="42.2627879" lon="13.7439984"><ele>454.0</ele><time>2026-05-03T09:16:00.463Z</time></trkpt><trkpt lat="42.2629075" lon="13.7439799"><ele>453.0</ele><time>2026-05-03T09:16:01.454Z</time></trkpt><trkpt lat="42.2630301" lon="13.7439712"><ele>452.25</ele><time>2026-05-03T09:16:02.462Z</time></trkpt><trkpt lat="42.2631501" lon="13.7439612"><ele>451.5</ele><time>2026-05-03T09:16:03.455Z</time></trkpt><trkpt lat="42.2632671" lon="13.7439487"><ele>450.75</ele><time>2026-05-03T09:16:04.459Z</time></trkpt><trkpt lat="42.2633847" lon="13.7439377"><ele>450.0</ele><time>2026-05-03T09:16:05.455Z</time></trkpt><trkpt lat="42.2634994" lon="13.7439473"><ele>450.0</ele><time>2026-05-03T09:16:06.465Z</time></trkpt><trkpt lat="42.2636142" lon="13.7439764"><ele>450.0</ele><time>2026-05-03T09:16:07.456Z</time></trkpt><trkpt lat="42.2637248" lon="13.7440113"><ele>450.0</ele><time>2026-05-03T09:16:08.462Z</time></trkpt><trkpt lat="42.2638367" lon="13.7440482"><ele>450.0</ele><time>2026-05-03T09:16:09.456Z</time></trkpt><trkpt lat="42.2639518" lon="13.744082"><ele>449.5</ele><time>2026-05-03T09:16:10.463Z</time></trkpt><trkpt lat="42.2640724" lon="13.744106"><ele>449.0</ele><time>2026-05-03T09:16:11.454Z</time></trkpt><trkpt lat="42.264188" lon="13.7441336"><ele>448.5</ele><time>2026-05-03T09:16:12.463Z</time></trkpt><trkpt lat="42.2643021" lon="13.7441573"><ele>448.0</ele><time>2026-05-03T09:16:13.453Z</time></trkpt><trkpt lat="42.2644179" lon="13.7441782"><ele>448.0</ele><time>2026-05-03T09:16:14.459Z</time></trkpt><trkpt lat="42.2645361" lon="13.744194"><ele>447.99999999999994</ele><time>2026-05-03T09:16:15.454Z</time></trkpt><trkpt lat="42.2646431" lon="13.7441806"><ele>447.99999999999994</ele><time>2026-05-03T09:16:16.448Z</time></trkpt><trkpt lat="42.264738" lon="13.7441427"><ele>448.0</ele><time>2026-05-03T09:16:17.454Z</time></trkpt><trkpt lat="42.2648234" lon="13.7440796"><ele>448.0</ele><time>2026-05-03T09:16:18.454Z</time></trkpt><trkpt lat="42.26491" lon="13.7439959"><ele>448.0</ele><time>2026-05-03T09:16:19.456Z</time></trkpt><trkpt lat="42.2649877" lon="13.7439063"><ele>447.99999999999994</ele><time>2026-05-03T09:16:20.456Z</time></trkpt><trkpt lat="42.2650609" lon="13.743828"><ele>447.99999999999994</ele><time>2026-05-03T09:16:21.462Z</time></trkpt><trkpt lat="42.2651345" lon="13.7437565"><ele>448.0</ele><time>2026-05-03T09:16:22.459Z</time></trkpt><trkpt lat="42.2652182" lon="13.743698"><ele>448.0</ele><time>2026-05-03T09:16:23.449Z</time></trkpt><trkpt lat="42.2653168" lon="13.7436426"><ele>448.0</ele><time>2026-05-03T09:16:24.461Z</time></trkpt><trkpt lat="42.265422" lon="13.7435885"><ele>447.99999999999994</ele><time>2026-05-03T09:16:25.459Z</time></trkpt><trkpt lat="42.2655271" lon="13.7435473"><ele>447.99999999999994</ele><time>2026-05-03T09:16:26.46Z</time></trkpt><trkpt lat="42.2656282" lon="13.7435342"><ele>448.0</ele><time>2026-05-03T09:16:27.458Z</time></trkpt><trkpt lat="42.2657258" lon="13.7435376"><ele>448.0</ele><time>2026-05-03T09:16:28.46Z</time></trkpt><trkpt lat="42.2658309" lon="13.7435506"><ele>448.59999999999997</ele><time>2026-05-03T09:16:29.455Z</time></trkpt><trkpt lat="42.265941" lon="13.7435549"><ele>449.19999999999993</ele><time>2026-05-03T09:16:30.461Z</time></trkpt><trkpt lat="42.2660529" lon="13.7435491"><ele>449.8</ele><time>2026-05-03T09:16:31.455Z</time></trkpt><trkpt lat="42.2661609" lon="13.7435517"><ele>450.4</ele><time>2026-05-03T09:16:32.452Z</time></trkpt><trkpt lat="42.2662747" lon="13.7435726"><ele>451.0</ele><time>2026-05-03T09:16:33.453Z</time></trkpt><trkpt lat="42.2663998" lon="13.7436084"><ele>451.8</ele><time>2026-05-03T09:16:34.451Z</time></trkpt><trkpt lat="42.266517" lon="13.7436327"><ele>452.6</ele><time>2026-05-03T09:16:35.456Z</time></trkpt><trkpt lat="42.2666263" lon="13.7436425"><ele>453.4</ele><time>2026-05-03T09:16:36.447Z</time></trkpt><trkpt lat="42.2667118" lon="13.7436471"><ele>454.2</ele><time>2026-05-03T09:16:37.462Z</time></trkpt><trkpt lat="42.2667867" lon="13.7436486"><ele>455.0</ele><time>2026-05-03T09:16:38.453Z</time></trkpt><trkpt lat="42.2668616" lon="13.7436368"><ele>455.0</ele><time>2026-05-03T09:16:39.451Z</time></trkpt><trkpt lat="42.2669481" lon="13.7436054"><ele>455.0</ele><time>2026-05-03T09:16:40.451Z</time></trkpt><trkpt lat="42.2670433" lon="13.7435577"><ele>455.0</ele><time>2026-05-03T09:16:41.441Z</time></trkpt><trkpt lat="42.2671519" lon="13.7434957"><ele>455.0</ele><time>2026-05-03T09:16:42.446Z</time></trkpt><trkpt lat="42.2672578" lon="13.7434414"><ele>455.0</ele><time>2026-05-03T09:16:43.443Z</time></trkpt><trkpt lat="42.2673635" lon="13.7434095"><ele>452.3333333333333</ele><time>2026-05-03T09:16:44.445Z</time></trkpt><trkpt lat="42.2674585" lon="13.7433848"><ele>449.66666666666663</ele><time>2026-05-03T09:16:45.442Z</time></trkpt><trkpt lat="42.2675358" lon="13.7433647"><ele>447.0</ele><time>2026-05-03T09:16:46.449Z</time></trkpt><trkpt lat="42.2676071" lon="13.7433526"><ele>444.33333333333337</ele><time>2026-05-03T09:16:47.442Z</time></trkpt><trkpt lat="42.2676872" lon="13.7433722"><ele>441.6666666666667</ele><time>2026-05-03T09:16:48.441Z</time></trkpt><trkpt lat="42.2677723" lon="13.7434197"><ele>439.0</ele><time>2026-05-03T09:16:49.447Z</time></trkpt><trkpt lat="42.2678662" lon="13.7434756"><ele>439.0</ele><time>2026-05-03T09:16:50.446Z</time></trkpt><trkpt lat="42.2679579" lon="13.7435288"><ele>439.0</ele><time>2026-05-03T09:16:51.449Z</time></trkpt><trkpt lat="42.2680502" lon="13.7435922"><ele>439.0</ele><time>2026-05-03T09:16:52.45Z</time></trkpt><trkpt lat="42.2681386" lon="13.7436658"><ele>439.0</ele><time>2026-05-03T09:16:53.45Z</time></trkpt><trkpt lat="42.268232" lon="13.743727"><ele>439.0</ele><time>2026-05-03T09:16:54.446Z</time></trkpt><trkpt lat="42.2683065" lon="13.7437697"><ele>439.83333333333337</ele><time>2026-05-03T09:16:55.448Z</time></trkpt><trkpt lat="42.2683758" lon="13.7437967"><ele>440.6666666666667</ele><time>2026-05-03T09:16:56.445Z</time></trkpt><trkpt lat="42.2684536" lon="13.7438089"><ele>441.5</ele><time>2026-05-03T09:16:57.445Z</time></trkpt><trkpt lat="42.2685365" lon="13.7438031"><ele>442.33333333333337</ele><time>2026-05-03T09:16:58.448Z</time></trkpt><trkpt lat="42.2686216" lon="13.7438213"><ele>443.1666666666667</ele><time>2026-05-03T09:16:59.455Z</time></trkpt><trkpt lat="42.2686898" lon="13.7438469"><ele>444.0</ele><time>2026-05-03T09:17:00.45Z</time></trkpt><trkpt lat="42.2687529" lon="13.7438385"><ele>444.0</ele><time>2026-05-03T09:17:01.448Z</time></trkpt><trkpt lat="42.2688211" lon="13.7438057"><ele>444.0</ele><time>2026-05-03T09:17:02.451Z</time></trkpt><trkpt lat="42.2688959" lon="13.7437445"><ele>444.0</ele><time>2026-05-03T09:17:03.453Z</time></trkpt><trkpt lat="42.268961" lon="13.7436625"><ele>444.0</ele><time>2026-05-03T09:17:04.452Z</time></trkpt><trkpt lat="42.2690186" lon="13.743585"><ele>444.0</ele><time>2026-05-03T09:17:05.45Z</time></trkpt><trkpt lat="42.2690618" lon="13.7435121"><ele>444.0</ele><time>2026-05-03T09:17:06.452Z</time></trkpt><trkpt lat="42.2690846" lon="13.7434186"><ele>442.2</ele><time>2026-05-03T09:17:07.46Z</time></trkpt><trkpt lat="42.2691022" lon="13.7433238"><ele>440.4</ele><time>2026-05-03T09:17:08.448Z</time></trkpt><trkpt lat="42.269175" lon="13.7432131"><ele>438.6</ele><time>2026-05-03T09:17:10.452Z</time></trkpt><trkpt lat="42.2692524" lon="13.7432075"><ele>436.8</ele><time>2026-05-03T09:17:11.457Z</time></trkpt><trkpt lat="42.2693464" lon="13.7432158"><ele>435.0</ele><time>2026-05-03T09:17:12.448Z</time></trkpt><trkpt lat="42.2694509" lon="13.7432346"><ele>435.0</ele><time>2026-05-03T09:17:13.456Z</time></trkpt><trkpt lat="42.2695446" lon="13.7432563"><ele>435.0</ele><time>2026-05-03T09:17:14.451Z</time></trkpt><trkpt lat="42.2696393" lon="13.7433021"><ele>435.0</ele><time>2026-05-03T09:17:15.46Z</time></trkpt><trkpt lat="42.2697387" lon="13.7433636"><ele>435.0</ele><time>2026-05-03T09:17:16.453Z</time></trkpt><trkpt lat="42.2698305" lon="13.7434277"><ele>435.0</ele><time>2026-05-03T09:17:17.461Z</time></trkpt><trkpt lat="42.269916" lon="13.7434977"><ele>433.6</ele><time>2026-05-03T09:17:18.459Z</time></trkpt><trkpt lat="42.2699988" lon="13.7435789"><ele>432.2</ele><time>2026-05-03T09:17:19.463Z</time></trkpt><trkpt lat="42.2700747" lon="13.7436526"><ele>430.79999999999995</ele><time>2026-05-03T09:17:20.452Z</time></trkpt><trkpt lat="42.2701481" lon="13.7437119"><ele>429.4</ele><time>2026-05-03T09:17:21.466Z</time></trkpt><trkpt lat="42.2702321" lon="13.7437617"><ele>428.0</ele><time>2026-05-03T09:17:22.452Z</time></trkpt><trkpt lat="42.270317" lon="13.7438214"><ele>428.0</ele><time>2026-05-03T09:17:23.461Z</time></trkpt><trkpt lat="42.2704041" lon="13.7438839"><ele>427.99999999999994</ele><time>2026-05-03T09:17:24.453Z</time></trkpt><trkpt lat="42.2704866" lon="13.7439302"><ele>427.99999999999994</ele><time>2026-05-03T09:17:25.462Z</time></trkpt><trkpt lat="42.2705762" lon="13.7439659"><ele>428.0</ele><time>2026-05-03T09:17:26.453Z</time></trkpt><trkpt lat="42.2706715" lon="13.7439933"><ele>428.0</ele><time>2026-05-03T09:17:27.46Z</time></trkpt><trkpt lat="42.2707651" lon="13.7440315"><ele>427.8333333333333</ele><time>2026-05-03T09:17:28.458Z</time></trkpt><trkpt lat="42.2708437" lon="13.7440701"><ele>427.66666666666663</ele><time>2026-05-03T09:17:29.461Z</time></trkpt><trkpt lat="42.2708991" lon="13.7441107"><ele>427.5</ele><time>2026-05-03T09:17:30.463Z</time></trkpt><trkpt lat="42.2709325" lon="13.7441851"><ele>427.33333333333337</ele><time>2026-05-03T09:17:32.454Z</time></trkpt><trkpt lat="42.2709104" lon="13.7443291"><ele>427.1666666666667</ele><time>2026-05-03T09:17:35.46Z</time></trkpt><trkpt lat="42.2709196" lon="13.7444323"><ele>427.0</ele><time>2026-05-03T09:17:36.457Z</time></trkpt><trkpt lat="42.2709512" lon="13.7445478"><ele>426.25</ele><time>2026-05-03T09:17:37.459Z</time></trkpt><trkpt lat="42.271002" lon="13.7446784"><ele>425.5</ele><time>2026-05-03T09:17:38.463Z</time></trkpt><trkpt lat="42.2710616" lon="13.7448225"><ele>424.75</ele><time>2026-05-03T09:17:39.457Z</time></trkpt><trkpt lat="42.2711234" lon="13.7449742"><ele>424.0</ele><time>2026-05-03T09:17:40.465Z</time></trkpt><trkpt lat="42.2711932" lon="13.7451216"><ele>422.79999999999995</ele><time>2026-05-03T09:17:41.452Z</time></trkpt><trkpt lat="42.2712597" lon="13.7452502"><ele>421.59999999999997</ele><time>2026-05-03T09:17:42.459Z</time></trkpt><trkpt lat="42.271324" lon="13.7453668"><ele>420.4</ele><time>2026-05-03T09:17:43.455Z</time></trkpt><trkpt lat="42.2713764" lon="13.7454797"><ele>419.2</ele><time>2026-05-03T09:17:44.458Z</time></trkpt><trkpt lat="42.2714199" lon="13.7455941"><ele>418.0</ele><time>2026-05-03T09:17:45.453Z</time></trkpt><trkpt lat="42.2714474" lon="13.7457046"><ele>418.00000000000006</ele><time>2026-05-03T09:17:46.462Z</time></trkpt><trkpt lat="42.2714589" lon="13.7458085"><ele>418.0</ele><time>2026-05-03T09:17:47.449Z</time></trkpt><trkpt lat="42.2714588" lon="13.7459244"><ele>418.0</ele><time>2026-05-03T09:17:48.458Z</time></trkpt><trkpt lat="42.2714705" lon="13.7460454"><ele>418.0</ele><time>2026-05-03T09:17:49.46Z</time></trkpt><trkpt lat="42.2714894" lon="13.7461636"><ele>418.00000000000006</ele><time>2026-05-03T09:17:50.461Z</time></trkpt><trkpt lat="42.2715125" lon="13.7462877"><ele>418.0</ele><time>2026-05-03T09:17:51.454Z</time></trkpt><trkpt lat="42.2715481" lon="13.7464097"><ele>419.25</ele><time>2026-05-03T09:17:52.46Z</time></trkpt><trkpt lat="42.271601" lon="13.7465412"><ele>420.5</ele><time>2026-05-03T09:17:53.462Z</time></trkpt><trkpt lat="42.2716594" lon="13.7466774"><ele>421.75</ele><time>2026-05-03T09:17:54.45Z</time></trkpt><trkpt lat="42.271726" lon="13.7468274"><ele>423.0</ele><time>2026-05-03T09:17:55.463Z</time></trkpt><trkpt lat="42.2717954" lon="13.7469648"><ele>424.59999999999997</ele><time>2026-05-03T09:17:56.453Z</time></trkpt><trkpt lat="42.2718636" lon="13.7470828"><ele>426.2</ele><time>2026-05-03T09:17:57.465Z</time></trkpt><trkpt lat="42.2719303" lon="13.7471857"><ele>427.8</ele><time>2026-05-03T09:17:58.456Z</time></trkpt><trkpt lat="42.2719879" lon="13.7472975"><ele>429.4</ele><time>2026-05-03T09:17:59.467Z</time></trkpt><trkpt lat="42.2720515" lon="13.7474234"><ele>431.0</ele><time>2026-05-03T09:18:00.46Z</time></trkpt><trkpt lat="42.2721212" lon="13.7475477"><ele>430.99999999999994</ele><time>2026-05-03T09:18:01.465Z</time></trkpt><trkpt lat="42.2721876" lon="13.7476563"><ele>431.0</ele><time>2026-05-03T09:18:02.45Z</time></trkpt><trkpt lat="42.2722421" lon="13.7477531"><ele>431.0</ele><time>2026-05-03T09:18:03.451Z</time></trkpt><trkpt lat="42.2722905" lon="13.747824"><ele>431.0</ele><time>2026-05-03T09:18:04.451Z</time></trkpt><trkpt lat="42.2723368" lon="13.747883"><ele>430.99999999999994</ele><time>2026-05-03T09:18:05.451Z</time></trkpt><trkpt lat="42.2724413" lon="13.747946"><ele>431.0</ele><time>2026-05-03T09:18:07.457Z</time></trkpt><trkpt lat="42.2725118" lon="13.7479794"><ele>430.0</ele><time>2026-05-03T09:18:08.452Z</time></trkpt><trkpt lat="42.2725877" lon="13.748034"><ele>429.0</ele><time>2026-05-03T09:18:09.449Z</time></trkpt><trkpt lat="42.2726721" lon="13.7481088"><ele>428.0</ele><time>2026-05-03T09:18:10.461Z</time></trkpt><trkpt lat="42.2727578" lon="13.7482032"><ele>427.0</ele><time>2026-05-03T09:18:11.454Z</time></trkpt><trkpt lat="42.2728437" lon="13.7483042"><ele>426.0</ele><time>2026-05-03T09:18:12.458Z</time></trkpt><trkpt lat="42.2729265" lon="13.7484155"><ele>426.0</ele><time>2026-05-03T09:18:13.461Z</time></trkpt><trkpt lat="42.2729976" lon="13.7485286"><ele>426.0</ele><time>2026-05-03T09:18:14.46Z</time></trkpt><trkpt lat="42.2730659" lon="13.7486437"><ele>426.0</ele><time>2026-05-03T09:18:15.464Z</time></trkpt><trkpt lat="42.2731331" lon="13.7487536"><ele>426.0</ele><time>2026-05-03T09:18:16.46Z</time></trkpt><trkpt lat="42.2732057" lon="13.7488582"><ele>426.0</ele><time>2026-05-03T09:18:17.46Z</time></trkpt><trkpt lat="42.2732831" lon="13.7489567"><ele>424.25</ele><time>2026-05-03T09:18:18.466Z</time></trkpt><trkpt lat="42.2733589" lon="13.7490529"><ele>422.5</ele><time>2026-05-03T09:18:19.459Z</time></trkpt><trkpt lat="42.2734421" lon="13.7491525"><ele>420.75</ele><time>2026-05-03T09:18:20.46Z</time></trkpt><trkpt lat="42.2735371" lon="13.7492454"><ele>419.0</ele><time>2026-05-03T09:18:21.46Z</time></trkpt><trkpt lat="42.2736433" lon="13.7493348"><ele>419.0</ele><time>2026-05-03T09:18:22.467Z</time></trkpt><trkpt lat="42.2737484" lon="13.7494078"><ele>419.0</ele><time>2026-05-03T09:18:23.457Z</time></trkpt><trkpt lat="42.2738445" lon="13.7494769"><ele>419.0</ele><time>2026-05-03T09:18:24.46Z</time></trkpt><trkpt lat="42.2739243" lon="13.7495342"><ele>419.0</ele><time>2026-05-03T09:18:25.454Z</time></trkpt><trkpt lat="42.2739744" lon="13.7495928"><ele>419.0</ele><time>2026-05-03T09:18:26.457Z</time></trkpt><trkpt lat="42.2739825" lon="13.7497479"><ele>419.0</ele><time>2026-05-03T09:18:28.454Z</time></trkpt><trkpt lat="42.2739472" lon="13.7498531"><ele>419.0</ele><time>2026-05-03T09:18:29.466Z</time></trkpt><trkpt lat="42.2738934" lon="13.7499823"><ele>419.0</ele><time>2026-05-03T09:18:30.454Z</time></trkpt><trkpt lat="42.2738179" lon="13.7501215"><ele>419.0</ele><time>2026-05-03T09:18:31.458Z</time></trkpt><trkpt lat="42.2737457" lon="13.7502681"><ele>419.0</ele><time>2026-05-03T09:18:32.463Z</time></trkpt><trkpt lat="42.2736837" lon="13.7503961"><ele>419.0</ele><time>2026-05-03T09:18:33.462Z</time></trkpt><trkpt lat="42.2736266" lon="13.7504989"><ele>419.0</ele><time>2026-05-03T09:18:34.453Z</time></trkpt><trkpt lat="42.2735808" lon="13.75058"><ele>419.0</ele><time>2026-05-03T09:18:35.464Z</time></trkpt><trkpt lat="42.2735504" lon="13.7506948"><ele>419.0</ele><time>2026-05-03T09:18:37.464Z</time></trkpt><trkpt lat="42.2735799" lon="13.750855"><ele>419.0</ele><time>2026-05-03T09:18:39.454Z</time></trkpt><trkpt lat="42.2736209" lon="13.7509662"><ele>419.0</ele><time>2026-05-03T09:18:40.457Z</time></trkpt><trkpt lat="42.2736778" lon="13.7510829"><ele>419.0</ele><time>2026-05-03T09:18:41.453Z</time></trkpt><trkpt lat="42.2737423" lon="13.7511713"><ele>419.0</ele><time>2026-05-03T09:18:42.461Z</time></trkpt><trkpt lat="42.2738109" lon="13.7512415"><ele>419.0</ele><time>2026-05-03T09:18:43.458Z</time></trkpt><trkpt lat="42.2738825" lon="13.7512775"><ele>418.0</ele><time>2026-05-03T09:18:44.454Z</time></trkpt><trkpt lat="42.27396" lon="13.7512888"><ele>417.0</ele><time>2026-05-03T09:18:45.46Z</time></trkpt><trkpt lat="42.2740406" lon="13.7512735"><ele>416.0</ele><time>2026-05-03T09:18:46.455Z</time></trkpt><trkpt lat="42.2741311" lon="13.7512371"><ele>415.0</ele><time>2026-05-03T09:18:47.454Z</time></trkpt><trkpt lat="42.2742334" lon="13.7511799"><ele>414.0</ele><time>2026-05-03T09:18:48.465Z</time></trkpt><trkpt lat="42.2743438" lon="13.7511219"><ele>414.0</ele><time>2026-05-03T09:18:49.461Z</time></trkpt><trkpt lat="42.2744595" lon="13.7510726"><ele>414.0</ele><time>2026-05-03T09:18:50.467Z</time></trkpt><trkpt lat="42.2745734" lon="13.7510342"><ele>414.0</ele><time>2026-05-03T09:18:51.459Z</time></trkpt><trkpt lat="42.2746891" lon="13.7510073"><ele>414.0</ele><time>2026-05-03T09:18:52.467Z</time></trkpt><trkpt lat="42.274808" lon="13.7509886"><ele>413.5</ele><time>2026-05-03T09:18:53.461Z</time></trkpt><trkpt lat="42.2749313" lon="13.7509855"><ele>413.0</ele><time>2026-05-03T09:18:54.469Z</time></trkpt><trkpt lat="42.2750572" lon="13.7509904"><ele>412.5</ele><time>2026-05-03T09:18:55.463Z</time></trkpt><trkpt lat="42.2751866" lon="13.7509969"><ele>412.0</ele><time>2026-05-03T09:18:56.464Z</time></trkpt><trkpt lat="42.2753149" lon="13.7510009"><ele>412.0</ele><time>2026-05-03T09:18:57.463Z</time></trkpt><trkpt lat="42.2754355" lon="13.7510204"><ele>412.0</ele><time>2026-05-03T09:18:58.469Z</time></trkpt><trkpt lat="42.2755567" lon="13.7510316"><ele>412.0</ele><time>2026-05-03T09:18:59.461Z</time></trkpt><trkpt lat="42.2756728" lon="13.7510461"><ele>412.0</ele><time>2026-05-03T09:19:00.472Z</time></trkpt><trkpt lat="42.2757821" lon="13.7510663"><ele>410.6</ele><time>2026-05-03T09:19:01.459Z</time></trkpt><trkpt lat="42.2758852" lon="13.7510804"><ele>409.20000000000005</ele><time>2026-05-03T09:19:02.462Z</time></trkpt><trkpt lat="42.2759872" lon="13.7511017"><ele>407.8</ele><time>2026-05-03T09:19:03.453Z</time></trkpt><trkpt lat="42.2760787" lon="13.7511365"><ele>406.4</ele><time>2026-05-03T09:19:04.456Z</time></trkpt><trkpt lat="42.2761644" lon="13.7511903"><ele>405.0</ele><time>2026-05-03T09:19:05.454Z</time></trkpt><trkpt lat="42.2762451" lon="13.7512809"><ele>405.0</ele><time>2026-05-03T09:19:06.46Z</time></trkpt><trkpt lat="42.2763211" lon="13.7514055"><ele>405.0</ele><time>2026-05-03T09:19:07.457Z</time></trkpt><trkpt lat="42.2763958" lon="13.7515155"><ele>405.0</ele><time>2026-05-03T09:19:08.457Z</time></trkpt><trkpt lat="42.2764738" lon="13.7516164"><ele>405.0</ele><time>2026-05-03T09:19:09.452Z</time></trkpt><trkpt lat="42.2765618" lon="13.7516829"><ele>405.0</ele><time>2026-05-03T09:19:10.456Z</time></trkpt><trkpt lat="42.27666" lon="13.751728"><ele>404.4</ele><time>2026-05-03T09:19:11.453Z</time></trkpt><trkpt lat="42.2767754" lon="13.7517555"><ele>403.8</ele><time>2026-05-03T09:19:12.455Z</time></trkpt><trkpt lat="42.2768944" lon="13.7517912"><ele>403.20000000000005</ele><time>2026-05-03T09:19:13.455Z</time></trkpt><trkpt lat="42.2769999" lon="13.7518189"><ele>402.6</ele><time>2026-05-03T09:19:14.457Z</time></trkpt><trkpt lat="42.2770992" lon="13.7518426"><ele>402.0</ele><time>2026-05-03T09:19:15.46Z</time></trkpt><trkpt lat="42.2771987" lon="13.7518581"><ele>401.8333333333333</ele><time>2026-05-03T09:19:16.465Z</time></trkpt><trkpt lat="42.2772938" lon="13.7518733"><ele>401.66666666666663</ele><time>2026-05-03T09:19:17.457Z</time></trkpt><trkpt lat="42.277372" lon="13.7518872"><ele>401.5</ele><time>2026-05-03T09:19:18.462Z</time></trkpt><trkpt lat="42.2774382" lon="13.7519075"><ele>401.3333333333333</ele><time>2026-05-03T09:19:19.458Z</time></trkpt><trkpt lat="42.2775144" lon="13.7519332"><ele>401.16666666666663</ele><time>2026-05-03T09:19:21.462Z</time></trkpt><trkpt lat="42.2775888" lon="13.752006"><ele>401.0</ele><time>2026-05-03T09:19:23.46Z</time></trkpt><trkpt lat="42.2776493" lon="13.7520375"><ele>401.16666666666663</ele><time>2026-05-03T09:19:24.46Z</time></trkpt><trkpt lat="42.2777125" lon="13.7520553"><ele>401.3333333333333</ele><time>2026-05-03T09:19:25.461Z</time></trkpt><trkpt lat="42.277787" lon="13.7520807"><ele>401.5</ele><time>2026-05-03T09:19:26.459Z</time></trkpt><trkpt lat="42.2778751" lon="13.7521116"><ele>401.66666666666663</ele><time>2026-05-03T09:19:27.466Z</time></trkpt><trkpt lat="42.2779698" lon="13.7521452"><ele>401.8333333333333</ele><time>2026-05-03T09:19:28.459Z</time></trkpt><trkpt lat="42.27806" lon="13.7521815"><ele>402.0</ele><time>2026-05-03T09:19:29.467Z</time></trkpt><trkpt lat="42.2781512" lon="13.7522161"><ele>402.0</ele><time>2026-05-03T09:19:30.462Z</time></trkpt><trkpt lat="42.2782377" lon="13.7522416"><ele>402.0</ele><time>2026-05-03T09:19:31.47Z</time></trkpt><trkpt lat="42.2783245" lon="13.75225"><ele>402.0</ele><time>2026-05-03T09:19:32.455Z</time></trkpt><trkpt lat="42.2784007" lon="13.7522524"><ele>402.0</ele><time>2026-05-03T09:19:33.473Z</time></trkpt><trkpt lat="42.278479" lon="13.7522508"><ele>402.0</ele><time>2026-05-03T09:19:34.458Z</time></trkpt><trkpt lat="42.2785625" lon="13.7522524"><ele>402.0</ele><time>2026-05-03T09:19:35.464Z</time></trkpt><trkpt lat="42.2786435" lon="13.752253"><ele>402.0</ele><time>2026-05-03T09:19:36.458Z</time></trkpt><trkpt lat="42.2787221" lon="13.7522533"><ele>402.0</ele><time>2026-05-03T09:19:37.469Z</time></trkpt><trkpt lat="42.2788005" lon="13.7522534"><ele>402.0</ele><time>2026-05-03T09:19:38.459Z</time></trkpt><trkpt lat="42.2788941" lon="13.7522535"><ele>402.0</ele><time>2026-05-03T09:19:39.467Z</time></trkpt><trkpt lat="42.2789837" lon="13.7522531"><ele>402.0</ele><time>2026-05-03T09:19:40.46Z</time></trkpt><trkpt lat="42.2790684" lon="13.7522529"><ele>402.0</ele><time>2026-05-03T09:19:41.463Z</time></trkpt><trkpt lat="42.2791635" lon="13.752253"><ele>401.0</ele><time>2026-05-03T09:19:42.456Z</time></trkpt><trkpt lat="42.2792706" lon="13.7522585"><ele>400.0</ele><time>2026-05-03T09:19:43.462Z</time></trkpt><trkpt lat="42.27939" lon="13.7522559"><ele>399.0</ele><time>2026-05-03T09:19:44.459Z</time></trkpt><trkpt lat="42.2795153" lon="13.7522526"><ele>398.0</ele><time>2026-05-03T09:19:45.458Z</time></trkpt><trkpt lat="42.2796483" lon="13.7522497"><ele>396.25</ele><time>2026-05-03T09:19:46.453Z</time></trkpt><trkpt lat="42.2797844" lon="13.7522422"><ele>394.5</ele><time>2026-05-03T09:19:47.455Z</time></trkpt><trkpt lat="42.2799252" lon="13.7522375"><ele>392.75</ele><time>2026-05-03T09:19:48.455Z</time></trkpt><trkpt lat="42.2800648" lon="13.7522364"><ele>391.0</ele><time>2026-05-03T09:19:49.46Z</time></trkpt><trkpt lat="42.2801994" lon="13.7522391"><ele>391.0</ele><time>2026-05-03T09:19:50.457Z</time></trkpt><trkpt lat="42.2803419" lon="13.752278"><ele>391.0</ele><time>2026-05-03T09:19:51.453Z</time></trkpt><trkpt lat="42.2804874" lon="13.7523318"><ele>391.0</ele><time>2026-05-03T09:19:52.455Z</time></trkpt><trkpt lat="42.2806304" lon="13.7524002"><ele>391.0</ele><time>2026-05-03T09:19:53.458Z</time></trkpt><trkpt lat="42.2807682" lon="13.7524662"><ele>390.5</ele><time>2026-05-03T09:19:54.455Z</time></trkpt><trkpt lat="42.280903" lon="13.7525416"><ele>390.0</ele><time>2026-05-03T09:19:55.465Z</time></trkpt><trkpt lat="42.2810359" lon="13.7526441"><ele>389.5</ele><time>2026-05-03T09:19:56.455Z</time></trkpt><trkpt lat="42.281158" lon="13.7527628"><ele>389.0</ele><time>2026-05-03T09:19:57.462Z</time></trkpt><trkpt lat="42.2812832" lon="13.7529045"><ele>389.0</ele><time>2026-05-03T09:19:58.454Z</time></trkpt><trkpt lat="42.281399" lon="13.7530508"><ele>389.0</ele><time>2026-05-03T09:19:59.464Z</time></trkpt><trkpt lat="42.2815271" lon="13.7531908"><ele>389.0</ele><time>2026-05-03T09:20:00.455Z</time></trkpt><trkpt lat="42.2816455" lon="13.753315"><ele>389.0</ele><time>2026-05-03T09:20:01.462Z</time></trkpt><trkpt lat="42.2817578" lon="13.7534437"><ele>389.0</ele><time>2026-05-03T09:20:02.453Z</time></trkpt><trkpt lat="42.2818708" lon="13.7535926"><ele>389.0</ele><time>2026-05-03T09:20:03.456Z</time></trkpt><trkpt lat="42.2819767" lon="13.7537243"><ele>389.0</ele><time>2026-05-03T09:20:04.457Z</time></trkpt><trkpt lat="42.2821069" lon="13.7538324"><ele>389.66666666666663</ele><time>2026-05-03T09:20:05.454Z</time></trkpt><trkpt lat="42.2822466" lon="13.7539192"><ele>390.33333333333337</ele><time>2026-05-03T09:20:06.456Z</time></trkpt><trkpt lat="42.282385" lon="13.7540096"><ele>391.0</ele><time>2026-05-03T09:20:07.453Z</time></trkpt><trkpt lat="42.2825306" lon="13.7540944"><ele>391.0</ele><time>2026-05-03T09:20:08.46Z</time></trkpt><trkpt lat="42.2826564" lon="13.7541739"><ele>391.0</ele><time>2026-05-03T09:20:09.456Z</time></trkpt><trkpt lat="42.2827849" lon="13.7542483"><ele>391.0</ele><time>2026-05-03T09:20:10.457Z</time></trkpt><trkpt lat="42.2829093" lon="13.7543205"><ele>391.0</ele><time>2026-05-03T09:20:11.449Z</time></trkpt><trkpt lat="42.2830312" lon="13.7544014"><ele>390.20000000000005</ele><time>2026-05-03T09:20:12.456Z</time></trkpt><trkpt lat="42.2831578" lon="13.754451"><ele>389.40000000000003</ele><time>2026-05-03T09:20:13.453Z</time></trkpt><trkpt lat="42.2832604" lon="13.754501"><ele>388.6</ele><time>2026-05-03T09:20:14.453Z</time></trkpt><trkpt lat="42.2833603" lon="13.7545457"><ele>387.8</ele><time>2026-05-03T09:20:15.449Z</time></trkpt><trkpt lat="42.2834418" lon="13.7545712"><ele>387.0</ele><time>2026-05-03T09:20:16.456Z</time></trkpt><trkpt lat="42.2835514" lon="13.7546125"><ele>387.0</ele><time>2026-05-03T09:20:18.453Z</time></trkpt><trkpt lat="42.2836204" lon="13.7545397"><ele>387.0</ele><time>2026-05-03T09:20:21.454Z</time></trkpt><trkpt lat="42.2836407" lon="13.754403"><ele>387.0</ele><time>2026-05-03T09:20:23.446Z</time></trkpt><trkpt lat="42.2836296" lon="13.7543185"><ele>387.0</ele><time>2026-05-03T09:20:24.462Z</time></trkpt><trkpt lat="42.2836061" lon="13.7542099"><ele>387.0</ele><time>2026-05-03T09:20:25.456Z</time></trkpt><trkpt lat="42.2835781" lon="13.754071"><ele>387.0</ele><time>2026-05-03T09:20:26.461Z</time></trkpt><trkpt lat="42.283547" lon="13.7539171"><ele>386.5</ele><time>2026-05-03T09:20:27.446Z</time></trkpt><trkpt lat="42.2835133" lon="13.7537521"><ele>386.0</ele><time>2026-05-03T09:20:28.46Z</time></trkpt><trkpt lat="42.2834847" lon="13.7535744"><ele>385.5</ele><time>2026-05-03T09:20:29.455Z</time></trkpt><trkpt lat="42.2834551" lon="13.7533882"><ele>385.0</ele><time>2026-05-03T09:20:30.464Z</time></trkpt><trkpt lat="42.2834297" lon="13.7532191"><ele>385.0</ele><time>2026-05-03T09:20:31.452Z</time></trkpt><trkpt lat="42.2834137" lon="13.7530617"><ele>385.0</ele><time>2026-05-03T09:20:32.456Z</time></trkpt><trkpt lat="42.2834025" lon="13.7529148"><ele>385.0</ele><time>2026-05-03T09:20:33.453Z</time></trkpt><trkpt lat="42.2833934" lon="13.7527665"><ele>385.0</ele><time>2026-05-03T09:20:34.45Z</time></trkpt><trkpt lat="42.2833941" lon="13.7526092"><ele>385.2</ele><time>2026-05-03T09:20:35.452Z</time></trkpt><trkpt lat="42.2833931" lon="13.7524679"><ele>385.4</ele><time>2026-05-03T09:20:36.453Z</time></trkpt><trkpt lat="42.2833975" lon="13.7523371"><ele>385.6</ele><time>2026-05-03T09:20:37.447Z</time></trkpt><trkpt lat="42.2834045" lon="13.7522301"><ele>385.8</ele><time>2026-05-03T09:20:38.453Z</time></trkpt><trkpt lat="42.2834534" lon="13.7521469"><ele>386.0</ele><time>2026-05-03T09:20:40.453Z</time></trkpt><trkpt lat="42.2835983" lon="13.7521759"><ele>386.0</ele><time>2026-05-03T09:20:42.454Z</time></trkpt><trkpt lat="42.2837058" lon="13.7522157"><ele>386.0</ele><time>2026-05-03T09:20:43.451Z</time></trkpt><trkpt lat="42.2838288" lon="13.7522626"><ele>386.0</ele><time>2026-05-03T09:20:44.465Z</time></trkpt><trkpt lat="42.2839591" lon="13.752309"><ele>386.0</ele><time>2026-05-03T09:20:45.456Z</time></trkpt><trkpt lat="42.2840997" lon="13.7523501"><ele>385.3333333333333</ele><time>2026-05-03T09:20:46.463Z</time></trkpt><trkpt lat="42.2842526" lon="13.7524116"><ele>384.66666666666663</ele><time>2026-05-03T09:20:47.454Z</time></trkpt><trkpt lat="42.2844014" lon="13.7524769"><ele>384.0</ele><time>2026-05-03T09:20:48.462Z</time></trkpt><trkpt lat="42.2845434" lon="13.7525458"><ele>384.0</ele><time>2026-05-03T09:20:49.453Z</time></trkpt><trkpt lat="42.2846886" lon="13.7525899"><ele>384.0</ele><time>2026-05-03T09:20:50.46Z</time></trkpt><trkpt lat="42.2848273" lon="13.7526489"><ele>384.0</ele><time>2026-05-03T09:20:51.449Z</time></trkpt><trkpt lat="42.284948" lon="13.7527036"><ele>384.0</ele><time>2026-05-03T09:20:52.451Z</time></trkpt><trkpt lat="42.2850689" lon="13.7527861"><ele>383.5</ele><time>2026-05-03T09:20:53.457Z</time></trkpt><trkpt lat="42.2851667" lon="13.7528532"><ele>383.0</ele><time>2026-05-03T09:20:54.451Z</time></trkpt><trkpt lat="42.2852711" lon="13.7528902"><ele>382.5</ele><time>2026-05-03T09:20:55.456Z</time></trkpt><trkpt lat="42.285378" lon="13.7529202"><ele>382.0</ele><time>2026-05-03T09:20:56.451Z</time></trkpt><trkpt lat="42.2854989" lon="13.7529751"><ele>381.6</ele><time>2026-05-03T09:20:57.459Z</time></trkpt><trkpt lat="42.2856135" lon="13.7530058"><ele>381.20000000000005</ele><time>2026-05-03T09:20:58.45Z</time></trkpt><trkpt lat="42.2857253" lon="13.7530436"><ele>380.8</ele><time>2026-05-03T09:20:59.463Z</time></trkpt><trkpt lat="42.2858313" lon="13.7530823"><ele>380.4</ele><time>2026-05-03T09:21:00.454Z</time></trkpt><trkpt lat="42.2859291" lon="13.7531149"><ele>380.0</ele><time>2026-05-03T09:21:01.456Z</time></trkpt><trkpt lat="42.286022" lon="13.7531457"><ele>380.0</ele><time>2026-05-03T09:21:02.446Z</time></trkpt><trkpt lat="42.2860981" lon="13.7531685"><ele>380.0</ele><time>2026-05-03T09:21:03.453Z</time></trkpt><trkpt lat="42.2861767" lon="13.7531828"><ele>380.0</ele><time>2026-05-03T09:21:05.454Z</time></trkpt><trkpt lat="42.2862633" lon="13.7531892"><ele>380.0</ele><time>2026-05-03T09:21:08.44Z</time></trkpt><trkpt lat="42.2863488" lon="13.7532016"><ele>380.0</ele><time>2026-05-03T09:21:09.453Z</time></trkpt><trkpt lat="42.2864483" lon="13.7532328"><ele>380.0</ele><time>2026-05-03T09:21:10.445Z</time></trkpt><trkpt lat="42.2865529" lon="13.7532727"><ele>379.5</ele><time>2026-05-03T09:21:11.454Z</time></trkpt><trkpt lat="42.2866681" lon="13.7533108"><ele>379.0</ele><time>2026-05-03T09:21:12.444Z</time></trkpt><trkpt lat="42.2867908" lon="13.7533336"><ele>378.5</ele><time>2026-05-03T09:21:13.453Z</time></trkpt><trkpt lat="42.2869219" lon="13.753361"><ele>378.0</ele><time>2026-05-03T09:21:14.446Z</time></trkpt><trkpt lat="42.2870556" lon="13.7534031"><ele>378.0</ele><time>2026-05-03T09:21:15.446Z</time></trkpt><trkpt lat="42.2871933" lon="13.7534941"><ele>378.0</ele><time>2026-05-03T09:21:16.449Z</time></trkpt><trkpt lat="42.2873219" lon="13.7535604"><ele>378.0</ele><time>2026-05-03T09:21:17.447Z</time></trkpt><trkpt lat="42.2874372" lon="13.7536127"><ele>378.0</ele><time>2026-05-03T09:21:18.456Z</time></trkpt><trkpt lat="42.2875339" lon="13.7536872"><ele>377.4</ele><time>2026-05-03T09:21:19.45Z</time></trkpt><trkpt lat="42.2876372" lon="13.7537517"><ele>376.79999999999995</ele><time>2026-05-03T09:21:20.446Z</time></trkpt><trkpt lat="42.2877104" lon="13.7538216"><ele>376.2</ele><time>2026-05-03T09:21:21.446Z</time></trkpt><trkpt lat="42.2878289" lon="13.7538371"><ele>375.6</ele><time>2026-05-03T09:21:23.438Z</time></trkpt><trkpt lat="42.2878879" lon="13.753802"><ele>375.0</ele><time>2026-05-03T09:21:24.451Z</time></trkpt><trkpt lat="42.2879498" lon="13.7537281"><ele>375.0</ele><time>2026-05-03T09:21:25.447Z</time></trkpt><trkpt lat="42.2880046" lon="13.7536194"><ele>375.0</ele><time>2026-05-03T09:21:26.452Z</time></trkpt><trkpt lat="42.2880754" lon="13.7534965"><ele>375.0</ele><time>2026-05-03T09:21:27.445Z</time></trkpt><trkpt lat="42.2881636" lon="13.7533621"><ele>375.0</ele><time>2026-05-03T09:21:28.452Z</time></trkpt><trkpt lat="42.2882592" lon="13.7532322"><ele>374.75</ele><time>2026-05-03T09:21:29.451Z</time></trkpt><trkpt lat="42.2883526" lon="13.7531058"><ele>374.5</ele><time>2026-05-03T09:21:30.454Z</time></trkpt><trkpt lat="42.2884379" lon="13.7529748"><ele>374.25</ele><time>2026-05-03T09:21:31.449Z</time></trkpt><trkpt lat="42.2885158" lon="13.7528314"><ele>374.0</ele><time>2026-05-03T09:21:32.456Z</time></trkpt><trkpt lat="42.2885954" lon="13.7526892"><ele>374.75</ele><time>2026-05-03T09:21:33.449Z</time></trkpt><trkpt lat="42.2886821" lon="13.7525547"><ele>375.5</ele><time>2026-05-03T09:21:34.455Z</time></trkpt><trkpt lat="42.2887635" lon="13.7524215"><ele>376.25</ele><time>2026-05-03T09:21:35.451Z</time></trkpt><trkpt lat="42.288843" lon="13.7522877"><ele>377.0</ele><time>2026-05-03T09:21:36.452Z</time></trkpt><trkpt lat="42.2889204" lon="13.7521403"><ele>377.0</ele><time>2026-05-03T09:21:37.452Z</time></trkpt><trkpt lat="42.2889936" lon="13.7519949"><ele>377.0</ele><time>2026-05-03T09:21:38.448Z</time></trkpt><trkpt lat="42.28906" lon="13.7518498"><ele>377.0</ele><time>2026-05-03T09:21:39.454Z</time></trkpt><trkpt lat="42.289124" lon="13.7517034"><ele>377.0</ele><time>2026-05-03T09:21:40.445Z</time></trkpt><trkpt lat="42.2891896" lon="13.7515552"><ele>378.25</ele><time>2026-05-03T09:21:41.452Z</time></trkpt><trkpt lat="42.2892522" lon="13.7514001"><ele>379.5</ele><time>2026-05-03T09:21:42.448Z</time></trkpt><trkpt lat="42.2893113" lon="13.7512419"><ele>380.75</ele><time>2026-05-03T09:21:43.453Z</time></trkpt><trkpt lat="42.2893636" lon="13.7510821"><ele>382.0</ele><time>2026-05-03T09:21:44.448Z</time></trkpt><trkpt lat="42.2894214" lon="13.7509431"><ele>382.0</ele><time>2026-05-03T09:21:45.453Z</time></trkpt><trkpt lat="42.2894732" lon="13.7508131"><ele>382.0</ele><time>2026-05-03T09:21:46.444Z</time></trkpt><trkpt lat="42.2895193" lon="13.7506764"><ele>382.0</ele><time>2026-05-03T09:21:47.451Z</time></trkpt><trkpt lat="42.2895801" lon="13.7505396"><ele>382.0</ele><time>2026-05-03T09:21:48.448Z</time></trkpt><trkpt lat="42.289649" lon="13.7504049"><ele>382.0</ele><time>2026-05-03T09:21:49.45Z</time></trkpt><trkpt lat="42.2897159" lon="13.7502947"><ele>382.0</ele><time>2026-05-03T09:21:50.443Z</time></trkpt><trkpt lat="42.2897861" lon="13.750201"><ele>382.0</ele><time>2026-05-03T09:21:51.455Z</time></trkpt><trkpt lat="42.2898601" lon="13.7500967"><ele>382.0</ele><time>2026-05-03T09:21:52.449Z</time></trkpt><trkpt lat="42.289932" lon="13.7499709"><ele>382.0</ele><time>2026-05-03T09:21:53.455Z</time></trkpt><trkpt lat="42.290007" lon="13.7498289"><ele>381.75</ele><time>2026-05-03T09:21:54.457Z</time></trkpt><trkpt lat="42.2900741" lon="13.7496833"><ele>381.5</ele><time>2026-05-03T09:21:55.45Z</time></trkpt><trkpt lat="42.2901403" lon="13.7495417"><ele>381.25</ele><time>2026-05-03T09:21:56.452Z</time></trkpt><trkpt lat="42.2901956" lon="13.7493963"><ele>381.0</ele><time>2026-05-03T09:21:57.451Z</time></trkpt><trkpt lat="42.2902497" lon="13.7492539"><ele>381.75</ele><time>2026-05-03T09:21:58.447Z</time></trkpt><trkpt lat="42.2903151" lon="13.7491229"><ele>382.5</ele><time>2026-05-03T09:21:59.446Z</time></trkpt><trkpt lat="42.2903948" lon="13.7490069"><ele>383.25</ele><time>2026-05-03T09:22:00.457Z</time></trkpt><trkpt lat="42.2904856" lon="13.748882"><ele>384.0</ele><time>2026-05-03T09:22:01.445Z</time></trkpt><trkpt lat="42.2905735" lon="13.7487511"><ele>383.5</ele><time>2026-05-03T09:22:02.452Z</time></trkpt><trkpt lat="42.2906561" lon="13.7486152"><ele>383.0</ele><time>2026-05-03T09:22:03.447Z</time></trkpt><trkpt lat="42.2907303" lon="13.7484769"><ele>382.5</ele><time>2026-05-03T09:22:04.452Z</time></trkpt><trkpt lat="42.2908053" lon="13.7483533"><ele>382.0</ele><time>2026-05-03T09:22:05.449Z</time></trkpt><trkpt lat="42.2908876" lon="13.7482301"><ele>382.0</ele><time>2026-05-03T09:22:06.459Z</time></trkpt><trkpt lat="42.2909612" lon="13.7481015"><ele>382.0</ele><time>2026-05-03T09:22:07.445Z</time></trkpt><trkpt lat="42.2910367" lon="13.7479728"><ele>382.0</ele><time>2026-05-03T09:22:08.458Z</time></trkpt><trkpt lat="42.2911086" lon="13.7478383"><ele>382.0</ele><time>2026-05-03T09:22:09.446Z</time></trkpt><trkpt lat="42.2911805" lon="13.7477065"><ele>382.40000000000003</ele><time>2026-05-03T09:22:10.454Z</time></trkpt><trkpt lat="42.2912495" lon="13.7475784"><ele>382.8</ele><time>2026-05-03T09:22:11.45Z</time></trkpt><trkpt lat="42.2913139" lon="13.7474561"><ele>383.2</ele><time>2026-05-03T09:22:12.452Z</time></trkpt><trkpt lat="42.291367" lon="13.7473533"><ele>383.6</ele><time>2026-05-03T09:22:13.445Z</time></trkpt><trkpt lat="42.2914142" lon="13.7472618"><ele>384.0</ele><time>2026-05-03T09:22:14.449Z</time></trkpt><trkpt lat="42.2914637" lon="13.7471796"><ele>384.1666666666667</ele><time>2026-05-03T09:22:15.446Z</time></trkpt><trkpt lat="42.2915232" lon="13.7470937"><ele>384.33333333333337</ele><time>2026-05-03T09:22:16.455Z</time></trkpt><trkpt lat="42.2915881" lon="13.7470032"><ele>384.5</ele><time>2026-05-03T09:22:17.443Z</time></trkpt><trkpt lat="42.2916467" lon="13.7469156"><ele>384.6666666666667</ele><time>2026-05-03T09:22:18.454Z</time></trkpt><trkpt lat="42.2916923" lon="13.7468307"><ele>384.83333333333337</ele><time>2026-05-03T09:22:19.446Z</time></trkpt><trkpt lat="42.2917331" lon="13.7467429"><ele>385.0</ele><time>2026-05-03T09:22:20.448Z</time></trkpt><trkpt lat="42.2917757" lon="13.7466526"><ele>385.00000000000006</ele><time>2026-05-03T09:22:21.442Z</time></trkpt><trkpt lat="42.2918458" lon="13.746547"><ele>385.0</ele><time>2026-05-03T09:22:23.448Z</time></trkpt><trkpt lat="42.2919076" lon="13.7465697"><ele>385.0</ele><time>2026-05-03T09:22:25.455Z</time></trkpt><trkpt lat="42.2919544" lon="13.7466271"><ele>385.0</ele><time>2026-05-03T09:22:26.445Z</time></trkpt><trkpt lat="42.292028" lon="13.7467099"><ele>385.00000000000006</ele><time>2026-05-03T09:22:27.452Z</time></trkpt><trkpt lat="42.2921233" lon="13.7468085"><ele>385.0</ele><time>2026-05-03T09:22:28.44Z</time></trkpt><trkpt lat="42.2922359" lon="13.7469022"><ele>384.25</ele><time>2026-05-03T09:22:29.457Z</time></trkpt><trkpt lat="42.2923605" lon="13.746999"><ele>383.5</ele><time>2026-05-03T09:22:30.451Z</time></trkpt><trkpt lat="42.2924895" lon="13.7470929"><ele>382.75</ele><time>2026-05-03T09:22:31.451Z</time></trkpt><trkpt lat="42.2926305" lon="13.7471925"><ele>382.0</ele><time>2026-05-03T09:22:32.44Z</time></trkpt><trkpt lat="42.2927764" lon="13.747263"><ele>382.0</ele><time>2026-05-03T09:22:33.45Z</time></trkpt><trkpt lat="42.2929097" lon="13.747324"><ele>382.0</ele><time>2026-05-03T09:22:34.44Z</time></trkpt><trkpt lat="42.2930376" lon="13.7473652"><ele>382.0</ele><time>2026-05-03T09:22:35.45Z</time></trkpt><trkpt lat="42.293149" lon="13.747396"><ele>382.0</ele><time>2026-05-03T09:22:36.447Z</time></trkpt><trkpt lat="42.2932554" lon="13.7474791"><ele>382.0</ele><time>2026-05-03T09:22:37.455Z</time></trkpt><trkpt lat="42.2933683" lon="13.7475665"><ele>382.0</ele><time>2026-05-03T09:22:38.449Z</time></trkpt><trkpt lat="42.2934856" lon="13.7476447"><ele>382.0</ele><time>2026-05-03T09:22:39.456Z</time></trkpt><trkpt lat="42.2936114" lon="13.7477277"><ele>382.0</ele><time>2026-05-03T09:22:40.446Z</time></trkpt><trkpt lat="42.2937444" lon="13.7478071"><ele>382.0</ele><time>2026-05-03T09:22:41.451Z</time></trkpt><trkpt lat="42.2938669" lon="13.7478823"><ele>382.0</ele><time>2026-05-03T09:22:42.447Z</time></trkpt><trkpt lat="42.293992" lon="13.74794"><ele>382.0</ele><time>2026-05-03T09:22:43.456Z</time></trkpt><trkpt lat="42.2941196" lon="13.7479937"><ele>382.0</ele><time>2026-05-03T09:22:44.445Z</time></trkpt><trkpt lat="42.2942297" lon="13.748067"><ele>383.25</ele><time>2026-05-03T09:22:45.454Z</time></trkpt><trkpt lat="42.294353" lon="13.7481262"><ele>384.5</ele><time>2026-05-03T09:22:46.449Z</time></trkpt><trkpt lat="42.2944738" lon="13.7481971"><ele>385.75</ele><time>2026-05-03T09:22:47.459Z</time></trkpt><trkpt lat="42.294594" lon="13.7482727"><ele>387.0</ele><time>2026-05-03T09:22:48.449Z</time></trkpt><trkpt lat="42.2947136" lon="13.7483446"><ele>388.6</ele><time>2026-05-03T09:22:49.456Z</time></trkpt><trkpt lat="42.2948296" lon="13.7484198"><ele>390.20000000000005</ele><time>2026-05-03T09:22:50.449Z</time></trkpt><trkpt lat="42.2949389" lon="13.7484932"><ele>391.8</ele><time>2026-05-03T09:22:51.442Z</time></trkpt><trkpt lat="42.2950306" lon="13.7485597"><ele>393.4</ele><time>2026-05-03T09:22:52.448Z</time></trkpt><trkpt lat="42.2951008" lon="13.7486078"><ele>395.0</ele><time>2026-05-03T09:22:53.439Z</time></trkpt><trkpt lat="42.2951657" lon="13.7486486"><ele>395.4</ele><time>2026-05-03T09:22:55.448Z</time></trkpt><trkpt lat="42.2952273" lon="13.7487199"><ele>395.8</ele><time>2026-05-03T09:23:03.448Z</time></trkpt><trkpt lat="42.2952894" lon="13.7487564"><ele>396.20000000000005</ele><time>2026-05-03T09:23:04.445Z</time></trkpt><trkpt lat="42.2953763" lon="13.7488099"><ele>396.6</ele><time>2026-05-03T09:23:05.451Z</time></trkpt><trkpt lat="42.2954734" lon="13.7488504"><ele>397.0</ele><time>2026-05-03T09:23:06.45Z</time></trkpt><trkpt lat="42.295585" lon="13.7489049"><ele>400.0</ele><time>2026-05-03T09:23:07.457Z</time></trkpt><trkpt lat="42.2957008" lon="13.7489625"><ele>403.0</ele><time>2026-05-03T09:23:08.444Z</time></trkpt><trkpt lat="42.295806" lon="13.7490242"><ele>406.0</ele><time>2026-05-03T09:23:09.445Z</time></trkpt><trkpt lat="42.2959045" lon="13.7490904"><ele>409.0</ele><time>2026-05-03T09:23:10.45Z</time></trkpt><trkpt lat="42.2959933" lon="13.749175"><ele>409.0</ele><time>2026-05-03T09:23:11.447Z</time></trkpt><trkpt lat="42.2960712" lon="13.7492823"><ele>409.0</ele><time>2026-05-03T09:23:12.443Z</time></trkpt><trkpt lat="42.2961476" lon="13.749413"><ele>409.0</ele><time>2026-05-03T09:23:13.448Z</time></trkpt><trkpt lat="42.2962222" lon="13.7495213"><ele>409.0</ele><time>2026-05-03T09:23:14.437Z</time></trkpt><trkpt lat="42.2963072" lon="13.7496031"><ele>409.0</ele><time>2026-05-03T09:23:15.446Z</time></trkpt><trkpt lat="42.2964042" lon="13.7496599"><ele>412.75</ele><time>2026-05-03T09:23:16.448Z</time></trkpt><trkpt lat="42.2965075" lon="13.7497206"><ele>416.5</ele><time>2026-05-03T09:23:17.443Z</time></trkpt><trkpt lat="42.2966104" lon="13.7497961"><ele>420.25</ele><time>2026-05-03T09:23:18.449Z</time></trkpt><trkpt lat="42.2967134" lon="13.7498814"><ele>424.0</ele><time>2026-05-03T09:23:19.445Z</time></trkpt><trkpt lat="42.2968114" lon="13.7499734"><ele>424.0</ele><time>2026-05-03T09:23:20.448Z</time></trkpt><trkpt lat="42.296894" lon="13.7500648"><ele>424.0</ele><time>2026-05-03T09:23:21.442Z</time></trkpt><trkpt lat="42.2969536" lon="13.7501491"><ele>424.0</ele><time>2026-05-03T09:23:22.445Z</time></trkpt><trkpt lat="42.2970007" lon="13.7502245"><ele>424.0</ele><time>2026-05-03T09:23:23.443Z</time></trkpt><trkpt lat="42.2970867" lon="13.7503341"><ele>424.0</ele><time>2026-05-03T09:23:25.445Z</time></trkpt><trkpt lat="42.2971465" lon="13.7503731"><ele>424.1666666666667</ele><time>2026-05-03T09:23:26.456Z</time></trkpt><trkpt lat="42.2972175" lon="13.7504221"><ele>424.33333333333337</ele><time>2026-05-03T09:23:27.453Z</time></trkpt><trkpt lat="42.2972939" lon="13.7504671"><ele>424.5</ele><time>2026-05-03T09:23:28.453Z</time></trkpt><trkpt lat="42.2973679" lon="13.7505058"><ele>424.66666666666663</ele><time>2026-05-03T09:23:29.446Z</time></trkpt><trkpt lat="42.2974277" lon="13.7505344"><ele>424.8333333333333</ele><time>2026-05-03T09:23:30.45Z</time></trkpt><trkpt lat="42.2974897" lon="13.750551"><ele>425.0</ele><time>2026-05-03T09:23:32.446Z</time></trkpt><trkpt lat="42.2975369" lon="13.7504625"><ele>424.99999999999994</ele><time>2026-05-03T09:23:35.446Z</time></trkpt><trkpt lat="42.2975868" lon="13.7503112"><ele>425.0</ele><time>2026-05-03T09:23:37.439Z</time></trkpt><trkpt lat="42.2976275" lon="13.7502255"><ele>425.0</ele><time>2026-05-03T09:23:38.453Z</time></trkpt><trkpt lat="42.2976881" lon="13.7501629"><ele>425.0</ele><time>2026-05-03T09:23:39.442Z</time></trkpt><trkpt lat="42.2977658" lon="13.7501169"><ele>424.99999999999994</ele><time>2026-05-03T09:23:40.46Z</time></trkpt><trkpt lat="42.2978521" lon="13.7500841"><ele>425.0</ele><time>2026-05-03T09:23:41.449Z</time></trkpt><trkpt lat="42.2979484" lon="13.7500441"><ele>425.6</ele><time>2026-05-03T09:23:42.453Z</time></trkpt><trkpt lat="42.2980541" lon="13.7500263"><ele>426.2</ele><time>2026-05-03T09:23:43.447Z</time></trkpt><trkpt lat="42.2981524" lon="13.7500288"><ele>426.79999999999995</ele><time>2026-05-03T09:23:44.455Z</time></trkpt><trkpt lat="42.2982389" lon="13.7500378"><ele>427.4</ele><time>2026-05-03T09:23:45.449Z</time></trkpt><trkpt lat="42.2983302" lon="13.7500476"><ele>428.0</ele><time>2026-05-03T09:23:46.455Z</time></trkpt><trkpt lat="42.2984185" lon="13.7500524"><ele>427.79999999999995</ele><time>2026-05-03T09:23:47.448Z</time></trkpt><trkpt lat="42.2985119" lon="13.7500608"><ele>427.59999999999997</ele><time>2026-05-03T09:23:48.445Z</time></trkpt><trkpt lat="42.2986157" lon="13.7500504"><ele>427.40000000000003</ele><time>2026-05-03T09:23:49.456Z</time></trkpt><trkpt lat="42.2987112" lon="13.750028"><ele>427.20000000000005</ele><time>2026-05-03T09:23:50.444Z</time></trkpt><trkpt lat="42.2988145" lon="13.7500064"><ele>427.0</ele><time>2026-05-03T09:23:51.453Z</time></trkpt><trkpt lat="42.2989227" lon="13.7499816"><ele>427.0</ele><time>2026-05-03T09:23:52.449Z</time></trkpt><trkpt lat="42.2990397" lon="13.7499531"><ele>427.00000000000006</ele><time>2026-05-03T09:23:53.455Z</time></trkpt><trkpt lat="42.2991511" lon="13.7499329"><ele>427.00000000000006</ele><time>2026-05-03T09:23:54.449Z</time></trkpt><trkpt lat="42.2992571" lon="13.7499021"><ele>427.0</ele><time>2026-05-03T09:23:55.455Z</time></trkpt><trkpt lat="42.2993573" lon="13.7498797"><ele>427.0</ele><time>2026-05-03T09:23:56.445Z</time></trkpt><trkpt lat="42.2994513" lon="13.7498708"><ele>427.0</ele><time>2026-05-03T09:23:57.454Z</time></trkpt><trkpt lat="42.2995519" lon="13.7498675"><ele>427.00000000000006</ele><time>2026-05-03T09:23:58.448Z</time></trkpt><trkpt lat="42.2996477" lon="13.7498625"><ele>427.00000000000006</ele><time>2026-05-03T09:23:59.458Z</time></trkpt><trkpt lat="42.2997511" lon="13.7498271"><ele>427.0</ele><time>2026-05-03T09:24:00.45Z</time></trkpt><trkpt lat="42.2998544" lon="13.7497688"><ele>427.0</ele><time>2026-05-03T09:24:01.453Z</time></trkpt><trkpt lat="42.2999659" lon="13.7497119"><ele>426.20000000000005</ele><time>2026-05-03T09:24:02.45Z</time></trkpt><trkpt lat="42.3000782" lon="13.7496625"><ele>425.40000000000003</ele><time>2026-05-03T09:24:03.447Z</time></trkpt><trkpt lat="42.3001869" lon="13.7496298"><ele>424.6</ele><time>2026-05-03T09:24:04.444Z</time></trkpt><trkpt lat="42.3002862" lon="13.7496012"><ele>423.79999999999995</ele><time>2026-05-03T09:24:05.449Z</time></trkpt><trkpt lat="42.3003736" lon="13.74958"><ele>423.0</ele><time>2026-05-03T09:24:06.444Z</time></trkpt><trkpt lat="42.3004672" lon="13.7495559"><ele>423.0</ele><time>2026-05-03T09:24:07.45Z</time></trkpt><trkpt lat="42.3005772" lon="13.7495115"><ele>423.0</ele><time>2026-05-03T09:24:08.448Z</time></trkpt><trkpt lat="42.3007003" lon="13.7494681"><ele>423.0</ele><time>2026-05-03T09:24:09.457Z</time></trkpt><trkpt lat="42.3008226" lon="13.7494354"><ele>423.0</ele><time>2026-05-03T09:24:10.448Z</time></trkpt><trkpt lat="42.3009452" lon="13.74941"><ele>421.79999999999995</ele><time>2026-05-03T09:24:11.46Z</time></trkpt><trkpt lat="42.3010651" lon="13.7493931"><ele>420.6</ele><time>2026-05-03T09:24:12.444Z</time></trkpt><trkpt lat="42.3011752" lon="13.7493654"><ele>419.4</ele><time>2026-05-03T09:24:13.443Z</time></trkpt><trkpt lat="42.3012795" lon="13.7493174"><ele>418.20000000000005</ele><time>2026-05-03T09:24:14.44Z</time></trkpt><trkpt lat="42.301372" lon="13.7492574"><ele>417.0</ele><time>2026-05-03T09:24:15.446Z</time></trkpt><trkpt lat="42.3014481" lon="13.7491829"><ele>419.8</ele><time>2026-05-03T09:24:16.439Z</time></trkpt><trkpt lat="42.3015086" lon="13.7491"><ele>422.6</ele><time>2026-05-03T09:24:17.449Z</time></trkpt><trkpt lat="42.3015588" lon="13.7489912"><ele>425.40000000000003</ele><time>2026-05-03T09:24:18.443Z</time></trkpt><trkpt lat="42.3016116" lon="13.748871"><ele>428.20000000000005</ele><time>2026-05-03T09:24:19.444Z</time></trkpt><trkpt lat="42.3016743" lon="13.7487587"><ele>431.0</ele><time>2026-05-03T09:24:20.439Z</time></trkpt><trkpt lat="42.3017497" lon="13.7486513"><ele>431.0</ele><time>2026-05-03T09:24:21.451Z</time></trkpt><trkpt lat="42.3018263" lon="13.7485436"><ele>431.0</ele><time>2026-05-03T09:24:22.444Z</time></trkpt><trkpt lat="42.3018982" lon="13.7484527"><ele>431.0</ele><time>2026-05-03T09:24:23.442Z</time></trkpt><trkpt lat="42.3019717" lon="13.7483854"><ele>431.0</ele><time>2026-05-03T09:24:24.443Z</time></trkpt><trkpt lat="42.3020611" lon="13.7483212"><ele>431.0</ele><time>2026-05-03T09:24:25.447Z</time></trkpt><trkpt lat="42.302158" lon="13.7482545"><ele>435.75</ele><time>2026-05-03T09:24:26.442Z</time></trkpt><trkpt lat="42.3022573" lon="13.7481788"><ele>440.5</ele><time>2026-05-03T09:24:27.45Z</time></trkpt><trkpt lat="42.3023592" lon="13.7481005"><ele>445.25</ele><time>2026-05-03T09:24:28.442Z</time></trkpt><trkpt lat="42.3024572" lon="13.7480298"><ele>450.0</ele><time>2026-05-03T09:24:29.447Z</time></trkpt><trkpt lat="42.3025607" lon="13.7479721"><ele>450.0</ele><time>2026-05-03T09:24:30.443Z</time></trkpt><trkpt lat="42.3026623" lon="13.7479243"><ele>450.0</ele><time>2026-05-03T09:24:31.446Z</time></trkpt><trkpt lat="42.3027561" lon="13.7478928"><ele>450.0</ele><time>2026-05-03T09:24:32.446Z</time></trkpt><trkpt lat="42.3028437" lon="13.7478791"><ele>450.0</ele><time>2026-05-03T09:24:33.443Z</time></trkpt><trkpt lat="42.302941" lon="13.7478874"><ele>450.0</ele><time>2026-05-03T09:24:34.447Z</time></trkpt><trkpt lat="42.3030493" lon="13.7478918"><ele>451.5</ele><time>2026-05-03T09:24:35.437Z</time></trkpt><trkpt lat="42.3031694" lon="13.7479089"><ele>453.0</ele><time>2026-05-03T09:24:36.446Z</time></trkpt><trkpt lat="42.3032921" lon="13.7479366"><ele>454.5</ele><time>2026-05-03T09:24:37.446Z</time></trkpt><trkpt lat="42.303409" lon="13.7479731"><ele>456.0</ele><time>2026-05-03T09:24:38.446Z</time></trkpt><trkpt lat="42.3035183" lon="13.7480055"><ele>456.0</ele><time>2026-05-03T09:24:39.442Z</time></trkpt><trkpt lat="42.3036271" lon="13.7480364"><ele>456.0</ele><time>2026-05-03T09:24:40.444Z</time></trkpt><trkpt lat="42.3037382" lon="13.7480661"><ele>456.0</ele><time>2026-05-03T09:24:41.442Z</time></trkpt><trkpt lat="42.3038509" lon="13.748092"><ele>456.0</ele><time>2026-05-03T09:24:42.449Z</time></trkpt><trkpt lat="42.3039581" lon="13.7481157"><ele>456.0</ele><time>2026-05-03T09:24:43.44Z</time></trkpt><trkpt lat="42.3040587" lon="13.7481442"><ele>459.20000000000005</ele><time>2026-05-03T09:24:44.445Z</time></trkpt><trkpt lat="42.3041543" lon="13.7481911"><ele>462.40000000000003</ele><time>2026-05-03T09:24:45.444Z</time></trkpt><trkpt lat="42.3042522" lon="13.7482614"><ele>465.6</ele><time>2026-05-03T09:24:46.453Z</time></trkpt><trkpt lat="42.3043556" lon="13.7483344"><ele>468.8</ele><time>2026-05-03T09:24:47.441Z</time></trkpt><trkpt lat="42.304459" lon="13.7483944"><ele>472.0</ele><time>2026-05-03T09:24:48.45Z</time></trkpt><trkpt lat="42.304548" lon="13.7484457"><ele>472.00000000000006</ele><time>2026-05-03T09:24:49.445Z</time></trkpt><trkpt lat="42.3046335" lon="13.7484743"><ele>472.0</ele><time>2026-05-03T09:24:50.454Z</time></trkpt><trkpt lat="42.3047169" lon="13.7484776"><ele>472.0</ele><time>2026-05-03T09:24:51.444Z</time></trkpt><trkpt lat="42.3048028" lon="13.7484619"><ele>472.0</ele><time>2026-05-03T09:24:52.452Z</time></trkpt><trkpt lat="42.3048907" lon="13.748428"><ele>472.00000000000006</ele><time>2026-05-03T09:24:53.449Z</time></trkpt><trkpt lat="42.3049838" lon="13.7483981"><ele>472.0</ele><time>2026-05-03T09:24:54.453Z</time></trkpt><trkpt lat="42.3050722" lon="13.7483819"><ele>475.0</ele><time>2026-05-03T09:24:55.449Z</time></trkpt><trkpt lat="42.3051483" lon="13.7483844"><ele>478.00000000000006</ele><time>2026-05-03T09:24:56.447Z</time></trkpt><trkpt lat="42.3052402" lon="13.7484553"><ele>481.00000000000006</ele><time>2026-05-03T09:24:58.456Z</time></trkpt><trkpt lat="42.3053429" lon="13.7485162"><ele>484.0</ele><time>2026-05-03T09:25:00.453Z</time></trkpt><trkpt lat="42.3054228" lon="13.7485253"><ele>487.0</ele><time>2026-05-03T09:25:01.445Z</time></trkpt><trkpt lat="42.3055307" lon="13.748523"><ele>487.8571428571429</ele><time>2026-05-03T09:25:03.443Z</time></trkpt><trkpt lat="42.3055978" lon="13.7485181"><ele>488.71428571428567</ele><time>2026-05-03T09:25:04.447Z</time></trkpt><trkpt lat="42.3056758" lon="13.7485073"><ele>489.57142857142856</ele><time>2026-05-03T09:25:05.455Z</time></trkpt><trkpt lat="42.3057514" lon="13.748495"><ele>490.42857142857144</ele><time>2026-05-03T09:25:06.449Z</time></trkpt><trkpt lat="42.3058187" lon="13.7484711"><ele>491.28571428571433</ele><time>2026-05-03T09:25:07.452Z</time></trkpt><trkpt lat="42.3058865" lon="13.7484299"><ele>492.1428571428571</ele><time>2026-05-03T09:25:08.448Z</time></trkpt><trkpt lat="42.3059584" lon="13.7483816"><ele>493.0</ele><time>2026-05-03T09:25:09.451Z</time></trkpt><trkpt lat="42.3060459" lon="13.7483245"><ele>493.0</ele><time>2026-05-03T09:25:10.444Z</time></trkpt><trkpt lat="42.3061464" lon="13.7482743"><ele>492.99999999999994</ele><time>2026-05-03T09:25:11.457Z</time></trkpt><trkpt lat="42.3062537" lon="13.7482312"><ele>492.99999999999994</ele><time>2026-05-03T09:25:12.445Z</time></trkpt><trkpt lat="42.3063599" lon="13.7481922"><ele>493.0</ele><time>2026-05-03T09:25:13.458Z</time></trkpt><trkpt lat="42.3064565" lon="13.7481449"><ele>493.0</ele><time>2026-05-03T09:25:14.445Z</time></trkpt><trkpt lat="42.3065458" lon="13.7480979"><ele>492.4</ele><time>2026-05-03T09:25:15.454Z</time></trkpt><trkpt lat="42.3066332" lon="13.7480541"><ele>491.79999999999995</ele><time>2026-05-03T09:25:16.447Z</time></trkpt><trkpt lat="42.3067192" lon="13.7480164"><ele>491.2</ele><time>2026-05-03T09:25:17.448Z</time></trkpt><trkpt lat="42.3068079" lon="13.7479857"><ele>490.6</ele><time>2026-05-03T09:25:18.446Z</time></trkpt><trkpt lat="42.3069047" lon="13.7479611"><ele>490.0</ele><time>2026-05-03T09:25:19.451Z</time></trkpt><trkpt lat="42.3070026" lon="13.7479539"><ele>490.0</ele><time>2026-05-03T09:25:20.445Z</time></trkpt><trkpt lat="42.3070818" lon="13.7479391"><ele>490.0</ele><time>2026-05-03T09:25:21.457Z</time></trkpt><trkpt lat="42.3071524" lon="13.7479342"><ele>490.0</ele><time>2026-05-03T09:25:22.449Z</time></trkpt><trkpt lat="42.3072897" lon="13.7479633"><ele>490.0</ele><time>2026-05-03T09:25:24.449Z</time></trkpt><trkpt lat="42.3073733" lon="13.7479725"><ele>490.0</ele><time>2026-05-03T09:25:25.462Z</time></trkpt><trkpt lat="42.3074667" lon="13.7479676"><ele>489.2</ele><time>2026-05-03T09:25:26.445Z</time></trkpt><trkpt lat="42.3075626" lon="13.7479672"><ele>488.4</ele><time>2026-05-03T09:25:27.455Z</time></trkpt><trkpt lat="42.3076598" lon="13.7479578"><ele>487.6</ele><time>2026-05-03T09:25:28.45Z</time></trkpt><trkpt lat="42.3077553" lon="13.7479515"><ele>486.8</ele><time>2026-05-03T09:25:29.459Z</time></trkpt><trkpt lat="42.3078515" lon="13.7479473"><ele>486.0</ele><time>2026-05-03T09:25:30.452Z</time></trkpt><trkpt lat="42.3079457" lon="13.7479383"><ele>486.0</ele><time>2026-05-03T09:25:31.451Z</time></trkpt><trkpt lat="42.3080412" lon="13.7479217"><ele>486.0</ele><time>2026-05-03T09:25:32.445Z</time></trkpt><trkpt lat="42.3081298" lon="13.7479183"><ele>486.0</ele><time>2026-05-03T09:25:33.451Z</time></trkpt><trkpt lat="42.3082034" lon="13.7479181"><ele>486.0</ele><time>2026-05-03T09:25:34.443Z</time></trkpt><trkpt lat="42.3083158" lon="13.7479014"><ele>486.0</ele><time>2026-05-03T09:25:36.448Z</time></trkpt><trkpt lat="42.308376" lon="13.7478698"><ele>486.0</ele><time>2026-05-03T09:25:37.445Z</time></trkpt><trkpt lat="42.3084589" lon="13.7478539"><ele>486.1428571428571</ele><time>2026-05-03T09:25:39.449Z</time></trkpt><trkpt lat="42.3085321" lon="13.7478472"><ele>486.28571428571433</ele><time>2026-05-03T09:25:48.441Z</time></trkpt><trkpt lat="42.3086103" lon="13.7478564"><ele>486.42857142857144</ele><time>2026-05-03T09:25:50.441Z</time></trkpt><trkpt lat="42.3086795" lon="13.7478577"><ele>486.57142857142856</ele><time>2026-05-03T09:25:51.453Z</time></trkpt><trkpt lat="42.3087645" lon="13.7478452"><ele>486.71428571428567</ele><time>2026-05-03T09:25:52.451Z</time></trkpt><trkpt lat="42.3088348" lon="13.7478307"><ele>486.8571428571429</ele><time>2026-05-03T09:25:53.453Z</time></trkpt><trkpt lat="42.3088975" lon="13.7478161"><ele>487.0</ele><time>2026-05-03T09:25:54.449Z</time></trkpt><trkpt lat="42.3089678" lon="13.7477208"><ele>488.6</ele><time>2026-05-03T09:25:56.452Z</time></trkpt><trkpt lat="42.3089999" lon="13.7475813"><ele>490.20000000000005</ele><time>2026-05-03T09:25:58.447Z</time></trkpt><trkpt lat="42.3090103" lon="13.7474103"><ele>491.8</ele><time>2026-05-03T09:26:00.452Z</time></trkpt><trkpt lat="42.3090274" lon="13.7473244"><ele>493.4</ele><time>2026-05-03T09:26:01.448Z</time></trkpt><trkpt lat="42.309065" lon="13.7472341"><ele>495.0</ele><time>2026-05-03T09:26:02.44Z</time></trkpt><trkpt lat="42.3091335" lon="13.7471292"><ele>495.0</ele><time>2026-05-03T09:26:03.444Z</time></trkpt><trkpt lat="42.3092066" lon="13.7470165"><ele>495.0</ele><time>2026-05-03T09:26:04.442Z</time></trkpt><trkpt lat="42.3092739" lon="13.7469062"><ele>495.0</ele><time>2026-05-03T09:26:05.441Z</time></trkpt><trkpt lat="42.3093443" lon="13.7467981"><ele>495.0</ele><time>2026-05-03T09:26:06.446Z</time></trkpt><trkpt lat="42.3094196" lon="13.7466903"><ele>495.0</ele><time>2026-05-03T09:26:07.444Z</time></trkpt><trkpt lat="42.3094949" lon="13.7465848"><ele>498.5</ele><time>2026-05-03T09:26:08.436Z</time></trkpt><trkpt lat="42.3095528" lon="13.7465085"><ele>502.0</ele><time>2026-05-03T09:26:09.438Z</time></trkpt><trkpt lat="42.3096388" lon="13.7464312"><ele>505.5</ele><time>2026-05-03T09:26:11.445Z</time></trkpt><trkpt lat="42.3097035" lon="13.7463884"><ele>509.0</ele><time>2026-05-03T09:29:59.482Z</time></trkpt><trkpt lat="42.3097857" lon="13.7464069"><ele>512.5</ele><time>2026-05-03T09:30:02.474Z</time></trkpt><trkpt lat="42.3098458" lon="13.7464591"><ele>516.0</ele><time>2026-05-03T09:30:03.475Z</time></trkpt><trkpt lat="42.309913" lon="13.7465325"><ele>516.0</ele><time>2026-05-03T09:30:04.484Z</time></trkpt><trkpt lat="42.309982" lon="13.7466057"><ele>516.0</ele><time>2026-05-03T09:30:05.474Z</time></trkpt><trkpt lat="42.3100501" lon="13.7466704"><ele>516.0</ele><time>2026-05-03T09:30:06.48Z</time></trkpt><trkpt lat="42.3101188" lon="13.746731"><ele>516.0</ele><time>2026-05-03T09:30:07.478Z</time></trkpt><trkpt lat="42.3101866" lon="13.7467921"><ele>516.0</ele><time>2026-05-03T09:30:08.482Z</time></trkpt><trkpt lat="42.3102488" lon="13.7468363"><ele>516.0</ele><time>2026-05-03T09:30:09.487Z</time></trkpt><trkpt lat="42.3103057" lon="13.7468764"><ele>512.5</ele><time>2026-05-03T09:30:10.484Z</time></trkpt><trkpt lat="42.3104199" lon="13.7469415"><ele>509.0</ele><time>2026-05-03T09:30:12.481Z</time></trkpt><trkpt lat="42.3104841" lon="13.7469817"><ele>505.5</ele><time>2026-05-03T09:30:13.482Z</time></trkpt><trkpt lat="42.3105585" lon="13.7470241"><ele>502.0</ele><time>2026-05-03T09:30:14.486Z</time></trkpt><trkpt lat="42.3106384" lon="13.7470708"><ele>498.5</ele><time>2026-05-03T09:30:15.482Z</time></trkpt><trkpt lat="42.3107196" lon="13.7471106"><ele>495.0</ele><time>2026-05-03T09:30:16.481Z</time></trkpt><trkpt lat="42.3108034" lon="13.7471582"><ele>495.0</ele><time>2026-05-03T09:30:17.48Z</time></trkpt><trkpt lat="42.3108897" lon="13.7472066"><ele>495.0</ele><time>2026-05-03T09:30:18.475Z</time></trkpt><trkpt lat="42.3109739" lon="13.7472497"><ele>495.0</ele><time>2026-05-03T09:30:19.482Z</time></trkpt><trkpt lat="42.311056" lon="13.7472935"><ele>495.0</ele><time>2026-05-03T09:30:20.471Z</time></trkpt><trkpt lat="42.3111353" lon="13.7473352"><ele>495.0</ele><time>2026-05-03T09:30:21.483Z</time></trkpt><trkpt lat="42.3112216" lon="13.7473764"><ele>495.0</ele><time>2026-05-03T09:30:22.48Z</time></trkpt><trkpt lat="42.3113124" lon="13.747424"><ele>495.0</ele><time>2026-05-03T09:30:23.483Z</time></trkpt><trkpt lat="42.3113993" lon="13.7474722"><ele>495.0</ele><time>2026-05-03T09:30:24.477Z</time></trkpt><trkpt lat="42.3114875" lon="13.7475204"><ele>495.0</ele><time>2026-05-03T09:30:25.481Z</time></trkpt><trkpt lat="42.3115769" lon="13.7475675"><ele>495.0</ele><time>2026-05-03T09:30:26.475Z</time></trkpt><trkpt lat="42.3116646" lon="13.7476127"><ele>495.0</ele><time>2026-05-03T09:30:27.479Z</time></trkpt><trkpt lat="42.3117582" lon="13.7476575"><ele>497.0</ele><time>2026-05-03T09:30:28.482Z</time></trkpt><trkpt lat="42.3118508" lon="13.747708"><ele>499.0</ele><time>2026-05-03T09:30:29.477Z</time></trkpt><trkpt lat="42.3119376" lon="13.7477617"><ele>501.0</ele><time>2026-05-03T09:30:30.479Z</time></trkpt><trkpt lat="42.3120232" lon="13.7478108"><ele>503.0</ele><time>2026-05-03T09:30:31.484Z</time></trkpt><trkpt lat="42.3121116" lon="13.7478475"><ele>505.0</ele><time>2026-05-03T09:30:32.466Z</time></trkpt><trkpt lat="42.3122051" lon="13.7478842"><ele>498.8</ele><time>2026-05-03T09:30:33.482Z</time></trkpt><trkpt lat="42.3123027" lon="13.7479216"><ele>492.6</ele><time>2026-05-03T09:30:34.48Z</time></trkpt><trkpt lat="42.3123985" lon="13.7479662"><ele>486.4</ele><time>2026-05-03T09:30:35.486Z</time></trkpt><trkpt lat="42.3124938" lon="13.7480103"><ele>480.2</ele><time>2026-05-03T09:30:36.479Z</time></trkpt><trkpt lat="42.3125836" lon="13.7480601"><ele>474.0</ele><time>2026-05-03T09:30:37.488Z</time></trkpt><trkpt lat="42.3126678" lon="13.7481039"><ele>474.0</ele><time>2026-05-03T09:30:38.481Z</time></trkpt><trkpt lat="42.3127505" lon="13.7481496"><ele>474.0</ele><time>2026-05-03T09:30:39.491Z</time></trkpt><trkpt lat="42.3128356" lon="13.7481917"><ele>474.0</ele><time>2026-05-03T09:30:40.473Z</time></trkpt><trkpt lat="42.3129222" lon="13.7482415"><ele>474.0</ele><time>2026-05-03T09:30:41.484Z</time></trkpt><trkpt lat="42.3130098" lon="13.748292"><ele>474.0</ele><time>2026-05-03T09:30:42.481Z</time></trkpt><trkpt lat="42.3130923" lon="13.748345"><ele>473.6</ele><time>2026-05-03T09:30:43.485Z</time></trkpt><trkpt lat="42.313178" lon="13.7483923"><ele>473.2</ele><time>2026-05-03T09:30:44.477Z</time></trkpt><trkpt lat="42.3132665" lon="13.7484421"><ele>472.80000000000007</ele><time>2026-05-03T09:30:45.488Z</time></trkpt><trkpt lat="42.313359" lon="13.7484847"><ele>472.40000000000003</ele><time>2026-05-03T09:30:46.478Z</time></trkpt><trkpt lat="42.3134442" lon="13.7485256"><ele>472.0</ele><time>2026-05-03T09:30:47.478Z</time></trkpt><trkpt lat="42.3135297" lon="13.7485679"><ele>468.1666666666667</ele><time>2026-05-03T09:30:48.477Z</time></trkpt><trkpt lat="42.3136102" lon="13.748612"><ele>464.33333333333337</ele><time>2026-05-03T09:30:49.485Z</time></trkpt><trkpt lat="42.3136899" lon="13.7486467"><ele>460.5</ele><time>2026-05-03T09:30:50.48Z</time></trkpt><trkpt lat="42.3137622" lon="13.748669"><ele>456.66666666666663</ele><time>2026-05-03T09:30:51.48Z</time></trkpt><trkpt lat="42.3138376" lon="13.7486706"><ele>452.8333333333333</ele><time>2026-05-03T09:30:52.481Z</time></trkpt><trkpt lat="42.3139255" lon="13.7486613"><ele>449.0</ele><time>2026-05-03T09:30:53.487Z</time></trkpt><trkpt lat="42.3140208" lon="13.748654"><ele>448.99999999999994</ele><time>2026-05-03T09:30:54.474Z</time></trkpt><trkpt lat="42.3141061" lon="13.7486422"><ele>449.0</ele><time>2026-05-03T09:30:55.492Z</time></trkpt><trkpt lat="42.3141841" lon="13.7486377"><ele>449.0</ele><time>2026-05-03T09:30:56.472Z</time></trkpt><trkpt lat="42.3142581" lon="13.748637"><ele>449.0</ele><time>2026-05-03T09:30:57.49Z</time></trkpt><trkpt lat="42.3143499" lon="13.748642"><ele>448.99999999999994</ele><time>2026-05-03T09:30:58.479Z</time></trkpt><trkpt lat="42.3144594" lon="13.7486541"><ele>449.0</ele><time>2026-05-03T09:30:59.484Z</time></trkpt><trkpt lat="42.3145774" lon="13.748661"><ele>449.0</ele><time>2026-05-03T09:31:00.476Z</time></trkpt><trkpt lat="42.3146851" lon="13.7486554"><ele>449.0</ele><time>2026-05-03T09:31:01.479Z</time></trkpt><trkpt lat="42.3147769" lon="13.748658"><ele>449.0</ele><time>2026-05-03T09:31:02.479Z</time></trkpt><trkpt lat="42.3148715" lon="13.7486675"><ele>449.0</ele><time>2026-05-03T09:31:03.484Z</time></trkpt><trkpt lat="42.3149706" lon="13.748673"><ele>449.0</ele><time>2026-05-03T09:31:04.48Z</time></trkpt><trkpt lat="42.3150804" lon="13.7486729"><ele>448.75</ele><time>2026-05-03T09:31:05.479Z</time></trkpt><trkpt lat="42.3151927" lon="13.7486726"><ele>448.5</ele><time>2026-05-03T09:31:06.481Z</time></trkpt><trkpt lat="42.3153037" lon="13.7486813"><ele>448.25</ele><time>2026-05-03T09:31:07.481Z</time></trkpt><trkpt lat="42.3154125" lon="13.7486812"><ele>448.0</ele><time>2026-05-03T09:31:08.481Z</time></trkpt><trkpt lat="42.3155298" lon="13.7486787"><ele>448.59999999999997</ele><time>2026-05-03T09:31:09.483Z</time></trkpt><trkpt lat="42.3156478" lon="13.7486731"><ele>449.19999999999993</ele><time>2026-05-03T09:31:10.475Z</time></trkpt><trkpt lat="42.315755" lon="13.74866"><ele>449.8</ele><time>2026-05-03T09:31:11.486Z</time></trkpt><trkpt lat="42.3158602" lon="13.7486578"><ele>450.4</ele><time>2026-05-03T09:31:12.47Z</time></trkpt><trkpt lat="42.3159749" lon="13.7486689"><ele>451.0</ele><time>2026-05-03T09:31:13.484Z</time></trkpt><trkpt lat="42.3160797" lon="13.7486766"><ele>451.0</ele><time>2026-05-03T09:31:14.478Z</time></trkpt><trkpt lat="42.3161767" lon="13.7486785"><ele>451.0</ele><time>2026-05-03T09:31:15.48Z</time></trkpt><trkpt lat="42.3162853" lon="13.7486842"><ele>451.0</ele><time>2026-05-03T09:31:16.471Z</time></trkpt><trkpt lat="42.3163798" lon="13.7487049"><ele>451.0</ele><time>2026-05-03T09:31:17.47Z</time></trkpt><trkpt lat="42.3164602" lon="13.7487408"><ele>451.0</ele><time>2026-05-03T09:31:18.481Z</time></trkpt><trkpt lat="42.3165421" lon="13.7487926"><ele>452.20000000000005</ele><time>2026-05-03T09:31:19.478Z</time></trkpt><trkpt lat="42.3166164" lon="13.7488596"><ele>453.40000000000003</ele><time>2026-05-03T09:31:20.474Z</time></trkpt><trkpt lat="42.3166913" lon="13.7489506"><ele>454.6</ele><time>2026-05-03T09:31:21.473Z</time></trkpt><trkpt lat="42.31676" lon="13.7490564"><ele>455.8</ele><time>2026-05-03T09:31:22.479Z</time></trkpt><trkpt lat="42.3168255" lon="13.7491705"><ele>457.0</ele><time>2026-05-03T09:31:23.475Z</time></trkpt><trkpt lat="42.3168897" lon="13.7492799"><ele>457.00000000000006</ele><time>2026-05-03T09:31:24.487Z</time></trkpt><trkpt lat="42.3169534" lon="13.7493617"><ele>457.0</ele><time>2026-05-03T09:31:25.469Z</time></trkpt><trkpt lat="42.3170158" lon="13.7494215"><ele>457.0</ele><time>2026-05-03T09:31:26.476Z</time></trkpt><trkpt lat="42.3170731" lon="13.7494648"><ele>457.0</ele><time>2026-05-03T09:31:27.471Z</time></trkpt><trkpt lat="42.3171425" lon="13.7495127"><ele>457.00000000000006</ele><time>2026-05-03T09:31:28.473Z</time></trkpt><trkpt lat="42.3172321" lon="13.7495769"><ele>457.0</ele><time>2026-05-03T09:31:29.472Z</time></trkpt><trkpt lat="42.3173388" lon="13.7496514"><ele>456.20000000000005</ele><time>2026-05-03T09:31:30.484Z</time></trkpt><trkpt lat="42.3174368" lon="13.7497273"><ele>455.40000000000003</ele><time>2026-05-03T09:31:31.466Z</time></trkpt><trkpt lat="42.3175186" lon="13.749797"><ele>454.59999999999997</ele><time>2026-05-03T09:31:32.471Z</time></trkpt><trkpt lat="42.3175935" lon="13.7498446"><ele>453.79999999999995</ele><time>2026-05-03T09:31:33.461Z</time></trkpt><trkpt lat="42.3176568" lon="13.7498628"><ele>453.0</ele><time>2026-05-03T09:31:34.474Z</time></trkpt><trkpt lat="42.3177549" lon="13.7499158"><ele>453.0</ele><time>2026-05-03T09:31:36.475Z</time></trkpt><trkpt lat="42.3178106" lon="13.7499824"><ele>453.0</ele><time>2026-05-03T09:31:37.469Z</time></trkpt><trkpt lat="42.3178838" lon="13.7500558"><ele>453.0</ele><time>2026-05-03T09:31:38.466Z</time></trkpt><trkpt lat="42.3179632" lon="13.7501196"><ele>453.0</ele><time>2026-05-03T09:31:39.474Z</time></trkpt><trkpt lat="42.3180357" lon="13.7501689"><ele>453.0</ele><time>2026-05-03T09:31:40.469Z</time></trkpt><trkpt lat="42.3181022" lon="13.750217"><ele>453.0</ele><time>2026-05-03T09:31:41.472Z</time></trkpt><trkpt lat="42.3181616" lon="13.7502494"><ele>452.59999999999997</ele><time>2026-05-03T09:31:42.461Z</time></trkpt><trkpt lat="42.3182058" lon="13.7503292"><ele>452.19999999999993</ele><time>2026-05-03T09:31:45.485Z</time></trkpt><trkpt lat="42.3181283" lon="13.7504452"><ele>451.8</ele><time>2026-05-03T09:31:47.476Z</time></trkpt><trkpt lat="42.3180648" lon="13.7505209"><ele>451.4</ele><time>2026-05-03T09:31:48.47Z</time></trkpt><trkpt lat="42.3179946" lon="13.7505965"><ele>451.0</ele><time>2026-05-03T09:31:49.481Z</time></trkpt><trkpt lat="42.3179248" lon="13.750694"><ele>449.4</ele><time>2026-05-03T09:31:50.467Z</time></trkpt><trkpt lat="42.3178697" lon="13.7508113"><ele>447.8</ele><time>2026-05-03T09:31:51.476Z</time></trkpt><trkpt lat="42.3178215" lon="13.7509252"><ele>446.19999999999993</ele><time>2026-05-03T09:31:52.479Z</time></trkpt><trkpt lat="42.3177682" lon="13.7510265"><ele>444.59999999999997</ele><time>2026-05-03T09:31:53.477Z</time></trkpt><trkpt lat="42.3177171" lon="13.7511317"><ele>443.0</ele><time>2026-05-03T09:31:54.476Z</time></trkpt><trkpt lat="42.3176735" lon="13.7512357"><ele>441.99999999999994</ele><time>2026-05-03T09:31:55.488Z</time></trkpt><trkpt lat="42.3176397" lon="13.7513274"><ele>441.0</ele><time>2026-05-03T09:31:56.473Z</time></trkpt><trkpt lat="42.3176031" lon="13.7514598"><ele>440.0</ele><time>2026-05-03T09:31:58.471Z</time></trkpt><trkpt lat="42.3176132" lon="13.7515676"><ele>439.0</ele><time>2026-05-03T09:32:03.473Z</time></trkpt><trkpt lat="42.3176892" lon="13.7516111"><ele>437.99999999999994</ele><time>2026-05-03T09:32:05.482Z</time></trkpt><trkpt lat="42.3177828" lon="13.7516017"><ele>437.0</ele><time>2026-05-03T09:32:06.467Z</time></trkpt><trkpt lat="42.3179105" lon="13.7515867"><ele>437.0</ele><time>2026-05-03T09:32:07.471Z</time></trkpt><trkpt lat="42.3180643" lon="13.7515379"><ele>437.0</ele><time>2026-05-03T09:32:08.47Z</time></trkpt><trkpt lat="42.3182823" lon="13.7514427"><ele>437.0</ele><time>2026-05-03T09:32:09.473Z</time></trkpt><trkpt lat="42.3184565" lon="13.7513603"><ele>437.6</ele><time>2026-05-03T09:32:10.463Z</time></trkpt><trkpt lat="42.318555" lon="13.7513275"><ele>438.20000000000005</ele><time>2026-05-03T09:32:11.467Z</time></trkpt><trkpt lat="42.3186345" lon="13.7513055"><ele>438.8</ele><time>2026-05-03T09:32:12.471Z</time></trkpt><trkpt lat="42.3187505" lon="13.7513398"><ele>439.4</ele><time>2026-05-03T09:32:14.47Z</time></trkpt><trkpt lat="42.3188343" lon="13.7513634"><ele>440.0</ele><time>2026-05-03T09:32:15.471Z</time></trkpt><trkpt lat="42.318932" lon="13.7513889"><ele>441.2</ele><time>2026-05-03T09:32:16.469Z</time></trkpt><trkpt lat="42.3190193" lon="13.7513922"><ele>442.4</ele><time>2026-05-03T09:32:17.461Z</time></trkpt><trkpt lat="42.319092" lon="13.7513998"><ele>443.6</ele><time>2026-05-03T09:32:18.462Z</time></trkpt><trkpt lat="42.3191769" lon="13.7514373"><ele>444.8</ele><time>2026-05-03T09:32:20.471Z</time></trkpt><trkpt lat="42.3192179" lon="13.7515908"><ele>446.0</ele><time>2026-05-03T09:32:22.47Z</time></trkpt><trkpt lat="42.3192451" lon="13.7517042"><ele>446.0</ele><time>2026-05-03T09:32:23.468Z</time></trkpt><trkpt lat="42.3192779" lon="13.7518325"><ele>446.0</ele><time>2026-05-03T09:32:24.478Z</time></trkpt><trkpt lat="42.3193288" lon="13.751957"><ele>446.0</ele><time>2026-05-03T09:32:25.47Z</time></trkpt><trkpt lat="42.3193903" lon="13.7520742"><ele>446.0</ele><time>2026-05-03T09:32:26.485Z</time></trkpt><trkpt lat="42.3194543" lon="13.7521908"><ele>446.0</ele><time>2026-05-03T09:32:27.472Z</time></trkpt><trkpt lat="42.3195106" lon="13.7523012"><ele>443.4</ele><time>2026-05-03T09:32:28.476Z</time></trkpt><trkpt lat="42.3195548" lon="13.7524127"><ele>440.8</ele><time>2026-05-03T09:32:29.472Z</time></trkpt><trkpt lat="42.3195936" lon="13.752538"><ele>438.19999999999993</ele><time>2026-05-03T09:32:30.479Z</time></trkpt><trkpt lat="42.3196215" lon="13.7526624"><ele>435.59999999999997</ele><time>2026-05-03T09:32:31.472Z</time></trkpt><trkpt lat="42.3196418" lon="13.7527795"><ele>433.0</ele><time>2026-05-03T09:32:32.477Z</time></trkpt><trkpt lat="42.3196676" lon="13.7528935"><ele>432.59999999999997</ele><time>2026-05-03T09:32:33.467Z</time></trkpt><trkpt lat="42.3196959" lon="13.7530255"><ele>432.19999999999993</ele><time>2026-05-03T09:32:34.475Z</time></trkpt><trkpt lat="42.3197327" lon="13.7531648"><ele>431.8</ele><time>2026-05-03T09:32:35.474Z</time></trkpt><trkpt lat="42.3197658" lon="13.7533038"><ele>431.4</ele><time>2026-05-03T09:32:36.477Z</time></trkpt><trkpt lat="42.3198024" lon="13.7534515"><ele>431.0</ele><time>2026-05-03T09:32:37.471Z</time></trkpt><trkpt lat="42.3198436" lon="13.7536061"><ele>431.0</ele><time>2026-05-03T09:32:38.479Z</time></trkpt><trkpt lat="42.3198842" lon="13.7537533"><ele>431.0</ele><time>2026-05-03T09:32:39.485Z</time></trkpt><trkpt lat="42.3199227" lon="13.7538981"><ele>431.0</ele><time>2026-05-03T09:32:40.485Z</time></trkpt><trkpt lat="42.3199574" lon="13.7540379"><ele>431.0</ele><time>2026-05-03T09:32:41.474Z</time></trkpt><trkpt lat="42.3199924" lon="13.7541656"><ele>431.0</ele><time>2026-05-03T09:32:42.483Z</time></trkpt><trkpt lat="42.3200309" lon="13.7542778"><ele>430.6</ele><time>2026-05-03T09:32:43.479Z</time></trkpt><trkpt lat="42.3200804" lon="13.7543909"><ele>430.20000000000005</ele><time>2026-05-03T09:32:44.477Z</time></trkpt><trkpt lat="42.3201384" lon="13.7545063"><ele>429.79999999999995</ele><time>2026-05-03T09:32:45.47Z</time></trkpt><trkpt lat="42.3202002" lon="13.7546202"><ele>429.4</ele><time>2026-05-03T09:32:46.478Z</time></trkpt><trkpt lat="42.320256" lon="13.7547401"><ele>429.0</ele><time>2026-05-03T09:32:47.486Z</time></trkpt><trkpt lat="42.320302" lon="13.7548672"><ele>429.0</ele><time>2026-05-03T09:32:48.475Z</time></trkpt><trkpt lat="42.320339" lon="13.7549851"><ele>429.0</ele><time>2026-05-03T09:32:49.482Z</time></trkpt><trkpt lat="42.3203753" lon="13.7550887"><ele>429.0</ele><time>2026-05-03T09:32:50.475Z</time></trkpt><trkpt lat="42.320407" lon="13.7551902"><ele>429.0</ele><time>2026-05-03T09:32:51.478Z</time></trkpt><trkpt lat="42.3204411" lon="13.7552916"><ele>429.0</ele><time>2026-05-03T09:32:52.475Z</time></trkpt><trkpt lat="42.3204788" lon="13.7553951"><ele>429.0</ele><time>2026-05-03T09:32:53.478Z</time></trkpt><trkpt lat="42.3205258" lon="13.7554892"><ele>430.6</ele><time>2026-05-03T09:32:54.471Z</time></trkpt><trkpt lat="42.3205855" lon="13.7555631"><ele>432.2</ele><time>2026-05-03T09:32:55.478Z</time></trkpt><trkpt lat="42.3206581" lon="13.755625"><ele>433.80000000000007</ele><time>2026-05-03T09:32:56.468Z</time></trkpt><trkpt lat="42.3207462" lon="13.7557011"><ele>435.40000000000003</ele><time>2026-05-03T09:32:57.483Z</time></trkpt><trkpt lat="42.3208415" lon="13.7557861"><ele>437.0</ele><time>2026-05-03T09:32:58.469Z</time></trkpt><trkpt lat="42.3209238" lon="13.7558626"><ele>437.0</ele><time>2026-05-03T09:32:59.477Z</time></trkpt><trkpt lat="42.3210008" lon="13.7559186"><ele>437.00000000000006</ele><time>2026-05-03T09:33:00.467Z</time></trkpt><trkpt lat="42.3210819" lon="13.7559636"><ele>437.00000000000006</ele><time>2026-05-03T09:33:01.471Z</time></trkpt><trkpt lat="42.3211602" lon="13.7560318"><ele>437.0</ele><time>2026-05-03T09:33:02.459Z</time></trkpt><trkpt lat="42.3212349" lon="13.7561323"><ele>437.0</ele><time>2026-05-03T09:33:03.476Z</time></trkpt><trkpt lat="42.3212999" lon="13.756236"><ele>437.8</ele><time>2026-05-03T09:33:04.47Z</time></trkpt><trkpt lat="42.3213644" lon="13.7563382"><ele>438.6</ele><time>2026-05-03T09:33:05.484Z</time></trkpt><trkpt lat="42.3214392" lon="13.7564273"><ele>439.40000000000003</ele><time>2026-05-03T09:33:06.47Z</time></trkpt><trkpt lat="42.3215299" lon="13.7565149"><ele>440.20000000000005</ele><time>2026-05-03T09:33:07.478Z</time></trkpt><trkpt lat="42.3216265" lon="13.7566037"><ele>441.0</ele><time>2026-05-03T09:33:08.464Z</time></trkpt><trkpt lat="42.3217185" lon="13.7566983"><ele>442.20000000000005</ele><time>2026-05-03T09:33:09.475Z</time></trkpt><trkpt lat="42.321802" lon="13.7567891"><ele>443.40000000000003</ele><time>2026-05-03T09:33:10.469Z</time></trkpt><trkpt lat="42.3218764" lon="13.7568676"><ele>444.6</ele><time>2026-05-03T09:33:11.471Z</time></trkpt><trkpt lat="42.3219484" lon="13.756934"><ele>445.8</ele><time>2026-05-03T09:33:12.473Z</time></trkpt><trkpt lat="42.3220248" lon="13.7569821"><ele>447.0</ele><time>2026-05-03T09:33:13.472Z</time></trkpt><trkpt lat="42.322113" lon="13.7570187"><ele>447.6666666666667</ele><time>2026-05-03T09:33:14.474Z</time></trkpt><trkpt lat="42.3221999" lon="13.7570483"><ele>448.33333333333337</ele><time>2026-05-03T09:33:15.464Z</time></trkpt><trkpt lat="42.3222745" lon="13.7570998"><ele>449.0</ele><time>2026-05-03T09:33:16.474Z</time></trkpt><trkpt lat="42.3223397" lon="13.7571686"><ele>449.6666666666667</ele><time>2026-05-03T09:33:17.466Z</time></trkpt><trkpt lat="42.3223971" lon="13.757253"><ele>450.33333333333337</ele><time>2026-05-03T09:33:18.482Z</time></trkpt><trkpt lat="42.3224562" lon="13.7573386"><ele>451.0</ele><time>2026-05-03T09:33:19.47Z</time></trkpt><trkpt lat="42.3225053" lon="13.7574363"><ele>452.4</ele><time>2026-05-03T09:33:20.476Z</time></trkpt><trkpt lat="42.322555" lon="13.7575536"><ele>453.8</ele><time>2026-05-03T09:33:21.467Z</time></trkpt><trkpt lat="42.3226003" lon="13.7576832"><ele>455.19999999999993</ele><time>2026-05-03T09:33:22.48Z</time></trkpt><trkpt lat="42.3226396" lon="13.7578239"><ele>456.59999999999997</ele><time>2026-05-03T09:33:23.473Z</time></trkpt><trkpt lat="42.3226718" lon="13.757956"><ele>458.0</ele><time>2026-05-03T09:33:24.475Z</time></trkpt><trkpt lat="42.32269" lon="13.758068"><ele>458.59999999999997</ele><time>2026-05-03T09:33:25.478Z</time></trkpt><trkpt lat="42.3227141" lon="13.758149"><ele>459.19999999999993</ele><time>2026-05-03T09:33:26.471Z</time></trkpt><trkpt lat="42.3227696" lon="13.7582371"><ele>459.8</ele><time>2026-05-03T09:33:28.477Z</time></trkpt><trkpt lat="42.3228871" lon="13.7582759"><ele>460.4</ele><time>2026-05-03T09:33:30.472Z</time></trkpt><trkpt lat="42.3229726" lon="13.7582924"><ele>461.0</ele><time>2026-05-03T09:33:31.474Z</time></trkpt><trkpt lat="42.3230902" lon="13.7583165"><ele>463.5</ele><time>2026-05-03T09:33:32.466Z</time></trkpt><trkpt lat="42.3232127" lon="13.7583607"><ele>466.0</ele><time>2026-05-03T09:33:33.471Z</time></trkpt><trkpt lat="42.3233379" lon="13.7584155"><ele>468.5</ele><time>2026-05-03T09:33:34.471Z</time></trkpt><trkpt lat="42.3234547" lon="13.7584822"><ele>471.0</ele><time>2026-05-03T09:33:35.47Z</time></trkpt><trkpt lat="42.323569" lon="13.75854"><ele>471.6</ele><time>2026-05-03T09:33:36.475Z</time></trkpt><trkpt lat="42.3236678" lon="13.7585849"><ele>472.20000000000005</ele><time>2026-05-03T09:33:37.469Z</time></trkpt><trkpt lat="42.3237586" lon="13.7586449"><ele>472.79999999999995</ele><time>2026-05-03T09:33:38.469Z</time></trkpt><trkpt lat="42.3238335" lon="13.7587342"><ele>473.4</ele><time>2026-05-03T09:33:39.472Z</time></trkpt><trkpt lat="42.3239025" lon="13.7588447"><ele>474.0</ele><time>2026-05-03T09:33:40.469Z</time></trkpt><trkpt lat="42.3239515" lon="13.7589797"><ele>475.2</ele><time>2026-05-03T09:33:41.468Z</time></trkpt><trkpt lat="42.3239807" lon="13.7591209"><ele>476.4</ele><time>2026-05-03T09:33:42.465Z</time></trkpt><trkpt lat="42.3240049" lon="13.7592602"><ele>477.6</ele><time>2026-05-03T09:33:43.463Z</time></trkpt><trkpt lat="42.324003" lon="13.7593898"><ele>478.8</ele><time>2026-05-03T09:33:44.458Z</time></trkpt><trkpt lat="42.3239982" lon="13.7594953"><ele>480.0</ele><time>2026-05-03T09:33:45.471Z</time></trkpt><trkpt lat="42.3240117" lon="13.7596345"><ele>481.4</ele><time>2026-05-03T09:33:47.465Z</time></trkpt><trkpt lat="42.3240444" lon="13.75974"><ele>482.8</ele><time>2026-05-03T09:33:50.467Z</time></trkpt><trkpt lat="42.3240673" lon="13.759856"><ele>484.20000000000005</ele><time>2026-05-03T09:33:52.475Z</time></trkpt><trkpt lat="42.324094" lon="13.7599396"><ele>485.6</ele><time>2026-05-03T09:33:53.464Z</time></trkpt><trkpt lat="42.3241684" lon="13.7600539"><ele>487.0</ele><time>2026-05-03T09:33:55.47Z</time></trkpt><trkpt lat="42.3242662" lon="13.7600309"><ele>487.0</ele><time>2026-05-03T09:33:57.463Z</time></trkpt><trkpt lat="42.3243179" lon="13.759975"><ele>487.00000000000006</ele><time>2026-05-03T09:33:58.462Z</time></trkpt><trkpt lat="42.3243869" lon="13.7598863"><ele>487.00000000000006</ele><time>2026-05-03T09:33:59.466Z</time></trkpt><trkpt lat="42.3244791" lon="13.7597792"><ele>487.0</ele><time>2026-05-03T09:34:00.466Z</time></trkpt><trkpt lat="42.3245725" lon="13.7596881"><ele>487.0</ele><time>2026-05-03T09:34:01.46Z</time></trkpt><trkpt lat="42.3246597" lon="13.7595942"><ele>487.8</ele><time>2026-05-03T09:34:02.462Z</time></trkpt><trkpt lat="42.3247364" lon="13.7594859"><ele>488.6</ele><time>2026-05-03T09:34:03.464Z</time></trkpt><trkpt lat="42.3248106" lon="13.7593588"><ele>489.40000000000003</ele><time>2026-05-03T09:34:04.467Z</time></trkpt><trkpt lat="42.3248777" lon="13.7592381"><ele>490.20000000000005</ele><time>2026-05-03T09:34:05.464Z</time></trkpt><trkpt lat="42.3249139" lon="13.7591164"><ele>491.0</ele><time>2026-05-03T09:34:06.46Z</time></trkpt><trkpt lat="42.3249175" lon="13.758998"><ele>491.0</ele><time>2026-05-03T09:34:07.465Z</time></trkpt><trkpt lat="42.3249239" lon="13.758903"><ele>491.0</ele><time>2026-05-03T09:34:08.463Z</time></trkpt><trkpt lat="42.3249796" lon="13.7588067"><ele>491.0</ele><time>2026-05-03T09:34:10.472Z</time></trkpt><trkpt lat="42.3250432" lon="13.7588673"><ele>491.0</ele><time>2026-05-03T09:34:12.47Z</time></trkpt><trkpt lat="42.3250169" lon="13.7590452"><ele>491.0</ele><time>2026-05-03T09:34:14.474Z</time></trkpt><trkpt lat="42.3249844" lon="13.7591493"><ele>490.99999999999994</ele><time>2026-05-03T09:34:15.456Z</time></trkpt><trkpt lat="42.3249578" lon="13.7592476"><ele>491.0</ele><time>2026-05-03T09:34:16.459Z</time></trkpt><trkpt lat="42.324947" lon="13.7593923"><ele>491.0</ele><time>2026-05-03T09:34:18.465Z</time></trkpt><trkpt lat="42.3249651" lon="13.7595172"><ele>491.0</ele><time>2026-05-03T09:34:20.461Z</time></trkpt><trkpt lat="42.3249819" lon="13.7596095"><ele>490.99999999999994</ele><time>2026-05-03T09:34:22.468Z</time></trkpt><trkpt lat="42.3249693" lon="13.7597032"><ele>491.0</ele><time>2026-05-03T09:34:30.472Z</time></trkpt><trkpt lat="42.325024" lon="13.7597676"><ele>491.66666666666663</ele><time>2026-05-03T09:34:34.472Z</time></trkpt><trkpt lat="42.3250849" lon="13.7597385"><ele>492.3333333333333</ele><time>2026-05-03T09:34:40.464Z</time></trkpt><trkpt lat="42.3252146" lon="13.7596788"><ele>493.0</ele><time>2026-05-03T09:50:14.488Z</time></trkpt><trkpt lat="42.3251544" lon="13.7596208"><ele>493.66666666666663</ele><time>2026-05-03T09:50:32.47Z</time></trkpt><trkpt lat="42.325193" lon="13.7595532"><ele>494.3333333333333</ele><time>2026-05-03T09:50:36.475Z</time></trkpt><trkpt lat="42.3252442" lon="13.759631"><ele>495.0</ele><time>2026-05-03T09:50:40.471Z</time></trkpt><trkpt lat="42.3252774" lon="13.7597344"><ele>494.99999999999994</ele><time>2026-05-03T09:50:42.479Z</time></trkpt><trkpt lat="42.3253112" lon="13.7598202"><ele>495.0</ele><time>2026-05-03T09:50:43.478Z</time></trkpt><trkpt lat="42.3253484" lon="13.7599116"><ele>494.99999999999994</ele><time>2026-05-03T09:50:44.48Z</time></trkpt><trkpt lat="42.325388" lon="13.7600107"><ele>494.99999999999994</ele><time>2026-05-03T09:50:45.477Z</time></trkpt><trkpt lat="42.3254219" lon="13.7600941"><ele>495.0</ele><time>2026-05-03T09:50:46.477Z</time></trkpt><trkpt lat="42.3254553" lon="13.7601779"><ele>494.99999999999994</ele><time>2026-05-03T09:50:47.476Z</time></trkpt><trkpt lat="42.3254907" lon="13.7602601"><ele>494.99999999999994</ele><time>2026-05-03T09:50:48.475Z</time></trkpt><trkpt lat="42.3255379" lon="13.7603645"><ele>496.1428571428571</ele><time>2026-05-03T09:50:50.472Z</time></trkpt><trkpt lat="42.3255784" lon="13.7604327"><ele>497.2857142857143</ele><time>2026-05-03T09:50:56.463Z</time></trkpt><trkpt lat="42.3256263" lon="13.760537"><ele>498.42857142857144</ele><time>2026-05-03T09:50:59.463Z</time></trkpt><trkpt lat="42.3257065" lon="13.7605638"><ele>499.57142857142856</ele><time>2026-05-03T09:51:01.464Z</time></trkpt><trkpt lat="42.3257523" lon="13.7604988"><ele>500.7142857142858</ele><time>2026-05-03T09:51:03.472Z</time></trkpt><trkpt lat="42.3257121" lon="13.7604163"><ele>501.8571428571429</ele><time>2026-05-03T09:51:05.461Z</time></trkpt><trkpt lat="42.3256478" lon="13.7604192"><ele>503.0</ele><time>2026-05-03T09:51:06.462Z</time></trkpt><trkpt lat="42.325566" lon="13.7604508"><ele>502.49999999999994</ele><time>2026-05-03T09:51:07.464Z</time></trkpt><trkpt lat="42.325478" lon="13.7604807"><ele>502.0</ele><time>2026-05-03T09:51:08.467Z</time></trkpt><trkpt lat="42.32539" lon="13.7604911"><ele>501.5</ele><time>2026-05-03T09:51:09.468Z</time></trkpt><trkpt lat="42.3253047" lon="13.7605018"><ele>501.0</ele><time>2026-05-03T09:51:10.46Z</time></trkpt><trkpt lat="42.3252256" lon="13.7605035"><ele>500.49999999999994</ele><time>2026-05-03T09:51:11.475Z</time></trkpt><trkpt lat="42.3251487" lon="13.7604927"><ele>500.0</ele><time>2026-05-03T09:51:12.464Z</time></trkpt><trkpt lat="42.3250805" lon="13.7604744"><ele>500.0</ele><time>2026-05-03T09:51:13.468Z</time></trkpt><trkpt lat="42.3250052" lon="13.7604191"><ele>500.0</ele><time>2026-05-03T09:51:15.467Z</time></trkpt><trkpt lat="42.3249287" lon="13.7604264"><ele>500.0</ele><time>2026-05-03T09:51:17.468Z</time></trkpt><trkpt lat="42.3248199" lon="13.7605434"><ele>500.0</ele><time>2026-05-03T09:51:19.464Z</time></trkpt><trkpt lat="42.3247547" lon="13.7606343"><ele>500.0</ele><time>2026-05-03T09:51:20.458Z</time></trkpt><trkpt lat="42.3246768" lon="13.7607148"><ele>500.0</ele><time>2026-05-03T09:51:21.466Z</time></trkpt><trkpt lat="42.3245907" lon="13.760765"><ele>500.0</ele><time>2026-05-03T09:51:22.467Z</time></trkpt><trkpt lat="42.3244984" lon="13.7608008"><ele>500.0</ele><time>2026-05-03T09:51:23.46Z</time></trkpt><trkpt lat="42.3244031" lon="13.7608238"><ele>500.0</ele><time>2026-05-03T09:51:24.468Z</time></trkpt><trkpt lat="42.3242875" lon="13.7608141"><ele>500.0</ele><time>2026-05-03T09:51:25.476Z</time></trkpt><trkpt lat="42.3241848" lon="13.760801"><ele>500.0</ele><time>2026-05-03T09:51:26.475Z</time></trkpt><trkpt lat="42.3240871" lon="13.7607838"><ele>500.0</ele><time>2026-05-03T09:51:27.474Z</time></trkpt><trkpt lat="42.3239809" lon="13.7607864"><ele>500.0</ele><time>2026-05-03T09:51:28.476Z</time></trkpt><trkpt lat="42.3238694" lon="13.7607868"><ele>500.0</ele><time>2026-05-03T09:51:29.476Z</time></trkpt><trkpt lat="42.3237565" lon="13.7607852"><ele>500.0</ele><time>2026-05-03T09:51:30.505Z</time></trkpt><trkpt lat="42.3236384" lon="13.7607794"><ele>499.8</ele><time>2026-05-03T09:51:31.474Z</time></trkpt><trkpt lat="42.323522" lon="13.7607745"><ele>499.6</ele><time>2026-05-03T09:51:32.481Z</time></trkpt><trkpt lat="42.3234158" lon="13.7607762"><ele>499.4</ele><time>2026-05-03T09:51:33.468Z</time></trkpt><trkpt lat="42.3233147" lon="13.7607829"><ele>499.2</ele><time>2026-05-03T09:51:34.48Z</time></trkpt><trkpt lat="42.3232174" lon="13.7608006"><ele>499.0</ele><time>2026-05-03T09:51:35.469Z</time></trkpt><trkpt lat="42.3231238" lon="13.760817"><ele>498.5</ele><time>2026-05-03T09:51:36.472Z</time></trkpt><trkpt lat="42.3230321" lon="13.7608399"><ele>498.0</ele><time>2026-05-03T09:51:37.471Z</time></trkpt><trkpt lat="42.322932" lon="13.7608788"><ele>497.5</ele><time>2026-05-03T09:51:38.469Z</time></trkpt><trkpt lat="42.3228212" lon="13.7609509"><ele>497.0</ele><time>2026-05-03T09:51:39.478Z</time></trkpt><trkpt lat="42.3227011" lon="13.761039"><ele>497.0</ele><time>2026-05-03T09:51:40.467Z</time></trkpt><trkpt lat="42.3225734" lon="13.7611317"><ele>497.0</ele><time>2026-05-03T09:51:41.478Z</time></trkpt><trkpt lat="42.3224298" lon="13.761244"><ele>497.0</ele><time>2026-05-03T09:51:42.472Z</time></trkpt><trkpt lat="42.3222881" lon="13.7613589"><ele>494.25</ele><time>2026-05-03T09:51:43.479Z</time></trkpt><trkpt lat="42.322157" lon="13.7614527"><ele>491.5</ele><time>2026-05-03T09:51:44.475Z</time></trkpt><trkpt lat="42.322044" lon="13.761527"><ele>488.75</ele><time>2026-05-03T09:51:45.472Z</time></trkpt><trkpt lat="42.3219461" lon="13.7616134"><ele>486.0</ele><time>2026-05-03T09:51:46.484Z</time></trkpt><trkpt lat="42.321859" lon="13.7616702"><ele>486.0</ele><time>2026-05-03T09:51:47.478Z</time></trkpt><trkpt lat="42.3217698" lon="13.7617152"><ele>486.0</ele><time>2026-05-03T09:51:48.475Z</time></trkpt><trkpt lat="42.3216596" lon="13.76175"><ele>486.0</ele><time>2026-05-03T09:51:50.481Z</time></trkpt><trkpt lat="42.3215855" lon="13.7616533"><ele>486.0</ele><time>2026-05-03T09:51:52.489Z</time></trkpt><trkpt lat="42.3215399" lon="13.7615832"><ele>486.0</ele><time>2026-05-03T09:51:53.48Z</time></trkpt><trkpt lat="42.3214895" lon="13.761504"><ele>486.0</ele><time>2026-05-03T09:51:54.484Z</time></trkpt><trkpt lat="42.3214518" lon="13.7614293"><ele>486.0</ele><time>2026-05-03T09:51:55.478Z</time></trkpt><trkpt lat="42.3214309" lon="13.7612575"><ele>486.0</ele><time>2026-05-03T09:51:57.474Z</time></trkpt><trkpt lat="42.3214351" lon="13.7611542"><ele>486.0</ele><time>2026-05-03T09:51:58.484Z</time></trkpt><trkpt lat="42.3214364" lon="13.761056"><ele>486.0</ele><time>2026-05-03T09:51:59.476Z</time></trkpt><trkpt lat="42.3214386" lon="13.7609642"><ele>486.0</ele><time>2026-05-03T09:52:00.483Z</time></trkpt><trkpt lat="42.3214038" lon="13.7608199"><ele>483.3333333333333</ele><time>2026-05-03T09:52:02.464Z</time></trkpt><trkpt lat="42.3213801" lon="13.7607361"><ele>480.66666666666663</ele><time>2026-05-03T09:52:04.466Z</time></trkpt><trkpt lat="42.321331" lon="13.7606304"><ele>478.0</ele><time>2026-05-03T09:52:07.483Z</time></trkpt><trkpt lat="42.3213007" lon="13.7605236"><ele>475.3333333333333</ele><time>2026-05-03T09:52:09.479Z</time></trkpt><trkpt lat="42.3212934" lon="13.7604218"><ele>472.66666666666663</ele><time>2026-05-03T09:52:11.478Z</time></trkpt><trkpt lat="42.3212804" lon="13.7603261"><ele>470.0</ele><time>2026-05-03T09:52:16.488Z</time></trkpt><trkpt lat="42.3211728" lon="13.7603261"><ele>470.0</ele><time>2026-05-03T09:52:19.478Z</time></trkpt><trkpt lat="42.3210813" lon="13.7603959"><ele>470.0</ele><time>2026-05-03T09:52:20.472Z</time></trkpt><trkpt lat="42.3209859" lon="13.7604663"><ele>470.0</ele><time>2026-05-03T09:52:21.483Z</time></trkpt><trkpt lat="42.3208893" lon="13.7605495"><ele>470.0</ele><time>2026-05-03T09:52:22.48Z</time></trkpt><trkpt lat="42.3207946" lon="13.7606284"><ele>470.0</ele><time>2026-05-03T09:52:23.489Z</time></trkpt><trkpt lat="42.3207076" lon="13.7607174"><ele>470.0</ele><time>2026-05-03T09:52:24.477Z</time></trkpt><trkpt lat="42.3206246" lon="13.7607879"><ele>470.0</ele><time>2026-05-03T09:52:25.492Z</time></trkpt><trkpt lat="42.3205331" lon="13.7608562"><ele>470.0</ele><time>2026-05-03T09:52:26.476Z</time></trkpt><trkpt lat="42.3204435" lon="13.7609358"><ele>470.0</ele><time>2026-05-03T09:52:27.49Z</time></trkpt><trkpt lat="42.3203515" lon="13.7610217"><ele>470.0</ele><time>2026-05-03T09:52:28.485Z</time></trkpt><trkpt lat="42.3202497" lon="13.7611109"><ele>469.0</ele><time>2026-05-03T09:52:29.477Z</time></trkpt><trkpt lat="42.3201549" lon="13.7612298"><ele>468.0</ele><time>2026-05-03T09:52:30.479Z</time></trkpt><trkpt lat="42.3200558" lon="13.7613496"><ele>467.0</ele><time>2026-05-03T09:52:31.48Z</time></trkpt><trkpt lat="42.3199499" lon="13.7614577"><ele>466.0</ele><time>2026-05-03T09:52:32.479Z</time></trkpt><trkpt lat="42.3198351" lon="13.7615566"><ele>463.75</ele><time>2026-05-03T09:52:33.477Z</time></trkpt><trkpt lat="42.3197162" lon="13.7616453"><ele>461.5</ele><time>2026-05-03T09:52:34.494Z</time></trkpt><trkpt lat="42.3196073" lon="13.7617197"><ele>459.25</ele><time>2026-05-03T09:52:35.476Z</time></trkpt><trkpt lat="42.3195034" lon="13.7617948"><ele>457.0</ele><time>2026-05-03T09:52:36.493Z</time></trkpt><trkpt lat="42.3194016" lon="13.7618608"><ele>458.75</ele><time>2026-05-03T09:52:37.481Z</time></trkpt><trkpt lat="42.3193021" lon="13.7619344"><ele>460.5</ele><time>2026-05-03T09:52:38.488Z</time></trkpt><trkpt lat="42.3191978" lon="13.7620121"><ele>462.25</ele><time>2026-05-03T09:52:39.482Z</time></trkpt><trkpt lat="42.3190858" lon="13.7620896"><ele>464.0</ele><time>2026-05-03T09:52:40.494Z</time></trkpt><trkpt lat="42.3189733" lon="13.7621729"><ele>461.5</ele><time>2026-05-03T09:52:41.485Z</time></trkpt><trkpt lat="42.3188588" lon="13.7622519"><ele>459.0</ele><time>2026-05-03T09:52:42.485Z</time></trkpt><trkpt lat="42.3187425" lon="13.7623378"><ele>456.5</ele><time>2026-05-03T09:52:43.481Z</time></trkpt><trkpt lat="42.3186262" lon="13.7624291"><ele>454.0</ele><time>2026-05-03T09:52:44.491Z</time></trkpt><trkpt lat="42.3185124" lon="13.7625283"><ele>454.0</ele><time>2026-05-03T09:52:45.48Z</time></trkpt><trkpt lat="42.3184001" lon="13.7626284"><ele>454.0</ele><time>2026-05-03T09:52:46.48Z</time></trkpt><trkpt lat="42.3182939" lon="13.7627258"><ele>454.0</ele><time>2026-05-03T09:52:47.481Z</time></trkpt><trkpt lat="42.318185" lon="13.7628209"><ele>454.0</ele><time>2026-05-03T09:52:48.489Z</time></trkpt><trkpt lat="42.3180859" lon="13.762913"><ele>454.6</ele><time>2026-05-03T09:52:49.48Z</time></trkpt><trkpt lat="42.3179966" lon="13.7629979"><ele>455.2</ele><time>2026-05-03T09:52:50.49Z</time></trkpt><trkpt lat="42.3179134" lon="13.7630758"><ele>455.80000000000007</ele><time>2026-05-03T09:52:51.484Z</time></trkpt><trkpt lat="42.3178357" lon="13.7631469"><ele>456.40000000000003</ele><time>2026-05-03T09:52:52.494Z</time></trkpt><trkpt lat="42.3177551" lon="13.7632126"><ele>457.0</ele><time>2026-05-03T09:52:53.481Z</time></trkpt><trkpt lat="42.3176771" lon="13.7632814"><ele>457.0</ele><time>2026-05-03T09:52:54.485Z</time></trkpt><trkpt lat="42.3176012" lon="13.7633546"><ele>457.00000000000006</ele><time>2026-05-03T09:52:55.489Z</time></trkpt><trkpt lat="42.3175341" lon="13.7634342"><ele>457.00000000000006</ele><time>2026-05-03T09:52:56.483Z</time></trkpt><trkpt lat="42.3174843" lon="13.7635246"><ele>457.0</ele><time>2026-05-03T09:52:57.485Z</time></trkpt><trkpt lat="42.3174371" lon="13.7636278"><ele>457.0</ele><time>2026-05-03T09:52:58.473Z</time></trkpt><trkpt lat="42.317377" lon="13.7637451"><ele>457.5</ele><time>2026-05-03T09:52:59.488Z</time></trkpt><trkpt lat="42.3173159" lon="13.763867"><ele>458.0</ele><time>2026-05-03T09:53:00.479Z</time></trkpt><trkpt lat="42.3172438" lon="13.7639922"><ele>458.5</ele><time>2026-05-03T09:53:01.489Z</time></trkpt><trkpt lat="42.3171654" lon="13.7641307"><ele>459.0</ele><time>2026-05-03T09:53:02.48Z</time></trkpt><trkpt lat="42.3170869" lon="13.7642702"><ele>457.75</ele><time>2026-05-03T09:53:03.487Z</time></trkpt><trkpt lat="42.3170065" lon="13.7644064"><ele>456.5</ele><time>2026-05-03T09:53:04.481Z</time></trkpt><trkpt lat="42.3169225" lon="13.7645379"><ele>455.25</ele><time>2026-05-03T09:53:05.485Z</time></trkpt><trkpt lat="42.3168401" lon="13.7646678"><ele>454.0</ele><time>2026-05-03T09:53:06.483Z</time></trkpt><trkpt lat="42.3167515" lon="13.7647905"><ele>454.0</ele><time>2026-05-03T09:53:07.497Z</time></trkpt><trkpt lat="42.316652" lon="13.7649079"><ele>454.0</ele><time>2026-05-03T09:53:08.484Z</time></trkpt><trkpt lat="42.3165464" lon="13.765013"><ele>454.0</ele><time>2026-05-03T09:53:09.492Z</time></trkpt><trkpt lat="42.3164417" lon="13.7651028"><ele>454.0</ele><time>2026-05-03T09:53:10.485Z</time></trkpt><trkpt lat="42.3163403" lon="13.7651825"><ele>454.75</ele><time>2026-05-03T09:53:11.495Z</time></trkpt><trkpt lat="42.3162447" lon="13.7652503"><ele>455.5</ele><time>2026-05-03T09:53:12.485Z</time></trkpt><trkpt lat="42.3161405" lon="13.7653204"><ele>456.25</ele><time>2026-05-03T09:53:13.488Z</time></trkpt><trkpt lat="42.3160357" lon="13.7654003"><ele>457.0</ele><time>2026-05-03T09:53:14.486Z</time></trkpt><trkpt lat="42.3159319" lon="13.7654838"><ele>457.0</ele><time>2026-05-03T09:53:15.491Z</time></trkpt><trkpt lat="42.3158435" lon="13.7655808"><ele>457.0</ele><time>2026-05-03T09:53:16.482Z</time></trkpt><trkpt lat="42.3157734" lon="13.765702"><ele>457.0</ele><time>2026-05-03T09:53:17.481Z</time></trkpt><trkpt lat="42.3157083" lon="13.7658429"><ele>457.0</ele><time>2026-05-03T09:53:18.481Z</time></trkpt><trkpt lat="42.3156475" lon="13.7659986"><ele>458.0</ele><time>2026-05-03T09:53:19.497Z</time></trkpt><trkpt lat="42.3155833" lon="13.7661479"><ele>459.0</ele><time>2026-05-03T09:53:20.483Z</time></trkpt><trkpt lat="42.3155139" lon="13.7662949"><ele>460.0</ele><time>2026-05-03T09:53:21.493Z</time></trkpt><trkpt lat="42.3154385" lon="13.7664294"><ele>461.0</ele><time>2026-05-03T09:53:22.488Z</time></trkpt><trkpt lat="42.3153558" lon="13.7665598"><ele>461.0</ele><time>2026-05-03T09:53:23.49Z</time></trkpt><trkpt lat="42.315265" lon="13.7666703"><ele>461.0</ele><time>2026-05-03T09:53:24.481Z</time></trkpt><trkpt lat="42.3151658" lon="13.7667685"><ele>461.0</ele><time>2026-05-03T09:53:25.49Z</time></trkpt><trkpt lat="42.3150607" lon="13.7668535"><ele>461.0</ele><time>2026-05-03T09:53:26.482Z</time></trkpt><trkpt lat="42.3149568" lon="13.7669409"><ele>461.75</ele><time>2026-05-03T09:53:27.491Z</time></trkpt><trkpt lat="42.3148589" lon="13.7670428"><ele>462.5</ele><time>2026-05-03T09:53:28.485Z</time></trkpt><trkpt lat="42.3147637" lon="13.7671452"><ele>463.25</ele><time>2026-05-03T09:53:29.497Z</time></trkpt><trkpt lat="42.3146719" lon="13.7672619"><ele>464.0</ele><time>2026-05-03T09:53:30.491Z</time></trkpt><trkpt lat="42.3145853" lon="13.7673823"><ele>464.0</ele><time>2026-05-03T09:53:31.49Z</time></trkpt><trkpt lat="42.3145101" lon="13.7675006"><ele>464.0</ele><time>2026-05-03T09:53:32.481Z</time></trkpt><trkpt lat="42.3144414" lon="13.7676056"><ele>464.0</ele><time>2026-05-03T09:53:33.489Z</time></trkpt><trkpt lat="42.3143915" lon="13.7677174"><ele>464.0</ele><time>2026-05-03T09:53:34.482Z</time></trkpt><trkpt lat="42.3143571" lon="13.7678401"><ele>464.0</ele><time>2026-05-03T09:53:35.483Z</time></trkpt><trkpt lat="42.3143443" lon="13.7679859"><ele>465.25</ele><time>2026-05-03T09:53:36.478Z</time></trkpt><trkpt lat="42.3143346" lon="13.7681544"><ele>466.5</ele><time>2026-05-03T09:53:37.479Z</time></trkpt><trkpt lat="42.3143249" lon="13.7683329"><ele>467.75</ele><time>2026-05-03T09:53:38.477Z</time></trkpt><trkpt lat="42.3143012" lon="13.768516"><ele>469.0</ele><time>2026-05-03T09:53:39.488Z</time></trkpt><trkpt lat="42.3142797" lon="13.7686952"><ele>470.2</ele><time>2026-05-03T09:53:40.478Z</time></trkpt><trkpt lat="42.3142637" lon="13.7688521"><ele>471.4</ele><time>2026-05-03T09:53:41.483Z</time></trkpt><trkpt lat="42.314253" lon="13.7689815"><ele>472.6</ele><time>2026-05-03T09:53:42.482Z</time></trkpt><trkpt lat="42.3142462" lon="13.7690941"><ele>473.8</ele><time>2026-05-03T09:53:43.485Z</time></trkpt><trkpt lat="42.3142389" lon="13.7691985"><ele>475.0</ele><time>2026-05-03T09:53:44.483Z</time></trkpt><trkpt lat="42.3142306" lon="13.7693451"><ele>475.1666666666667</ele><time>2026-05-03T09:53:46.481Z</time></trkpt><trkpt lat="42.3142343" lon="13.7694956"><ele>475.33333333333337</ele><time>2026-05-03T09:53:48.483Z</time></trkpt><trkpt lat="42.3142188" lon="13.7696282"><ele>475.5</ele><time>2026-05-03T09:53:50.474Z</time></trkpt><trkpt lat="42.3142143" lon="13.7697168"><ele>475.66666666666663</ele><time>2026-05-03T09:53:51.485Z</time></trkpt><trkpt lat="42.3142078" lon="13.7698032"><ele>475.8333333333333</ele><time>2026-05-03T09:53:52.485Z</time></trkpt><trkpt lat="42.3141879" lon="13.7699154"><ele>476.0</ele><time>2026-05-03T09:53:54.472Z</time></trkpt><trkpt lat="42.3142425" lon="13.7698119"><ele>476.0</ele><time>2026-05-03T09:54:02.477Z</time></trkpt><trkpt lat="42.3142526" lon="13.7697122"><ele>476.0</ele><time>2026-05-03T09:54:03.47Z</time></trkpt><trkpt lat="42.3142586" lon="13.7695789"><ele>476.0</ele><time>2026-05-03T09:54:04.47Z</time></trkpt><trkpt lat="42.3142679" lon="13.7694166"><ele>476.0</ele><time>2026-05-03T09:54:05.463Z</time></trkpt><trkpt lat="42.3142782" lon="13.7692318"><ele>476.0</ele><time>2026-05-03T09:54:06.468Z</time></trkpt><trkpt lat="42.3142876" lon="13.7690472"><ele>475.75</ele><time>2026-05-03T09:54:07.47Z</time></trkpt><trkpt lat="42.3142992" lon="13.7688793"><ele>475.5</ele><time>2026-05-03T09:54:08.461Z</time></trkpt><trkpt lat="42.3143219" lon="13.7687248"><ele>475.25</ele><time>2026-05-03T09:54:09.465Z</time></trkpt><trkpt lat="42.3143546" lon="13.7685723"><ele>475.0</ele><time>2026-05-03T09:54:10.469Z</time></trkpt><trkpt lat="42.3143819" lon="13.7684196"><ele>474.00000000000006</ele><time>2026-05-03T09:54:11.47Z</time></trkpt><trkpt lat="42.3144032" lon="13.7682863"><ele>473.0</ele><time>2026-05-03T09:54:12.476Z</time></trkpt><trkpt lat="42.3144239" lon="13.7681735"><ele>472.0</ele><time>2026-05-03T09:54:13.468Z</time></trkpt><trkpt lat="42.3144343" lon="13.7680655"><ele>471.0</ele><time>2026-05-03T09:54:14.477Z</time></trkpt><trkpt lat="42.3144422" lon="13.7679632"><ele>470.00000000000006</ele><time>2026-05-03T09:54:15.474Z</time></trkpt><trkpt lat="42.3144554" lon="13.7678688"><ele>469.0</ele><time>2026-05-03T09:54:16.477Z</time></trkpt><trkpt lat="42.3144751" lon="13.767787"><ele>469.0</ele><time>2026-05-03T09:54:17.472Z</time></trkpt><trkpt lat="42.3145057" lon="13.7676632"><ele>469.0</ele><time>2026-05-03T09:54:19.472Z</time></trkpt><trkpt lat="42.3144596" lon="13.7675983"><ele>469.0</ele><time>2026-05-03T09:54:22.479Z</time></trkpt><trkpt lat="42.3143522" lon="13.7676373"><ele>469.0</ele><time>2026-05-03T09:54:24.473Z</time></trkpt><trkpt lat="42.3142604" lon="13.7676723"><ele>469.0</ele><time>2026-05-03T09:54:25.48Z</time></trkpt><trkpt lat="42.3141659" lon="13.767718"><ele>469.0</ele><time>2026-05-03T09:54:26.466Z</time></trkpt><trkpt lat="42.3140764" lon="13.7677884"><ele>469.0</ele><time>2026-05-03T09:54:27.472Z</time></trkpt><trkpt lat="42.3139945" lon="13.767895"><ele>469.0</ele><time>2026-05-03T09:54:28.468Z</time></trkpt><trkpt lat="42.3139254" lon="13.768005"><ele>469.0</ele><time>2026-05-03T09:54:29.475Z</time></trkpt><trkpt lat="42.3138726" lon="13.7681169"><ele>469.0</ele><time>2026-05-03T09:54:30.473Z</time></trkpt><trkpt lat="42.3138317" lon="13.7682299"><ele>464.2</ele><time>2026-05-03T09:54:31.47Z</time></trkpt><trkpt lat="42.3137859" lon="13.7683474"><ele>459.4</ele><time>2026-05-03T09:54:32.468Z</time></trkpt><trkpt lat="42.3137359" lon="13.7684623"><ele>454.6</ele><time>2026-05-03T09:54:33.463Z</time></trkpt><trkpt lat="42.3136825" lon="13.7685767"><ele>449.8</ele><time>2026-05-03T09:54:34.467Z</time></trkpt><trkpt lat="42.3136203" lon="13.7686826"><ele>445.0</ele><time>2026-05-03T09:54:35.467Z</time></trkpt><trkpt lat="42.3135652" lon="13.7687946"><ele>445.0</ele><time>2026-05-03T09:54:36.463Z</time></trkpt><trkpt lat="42.3135194" lon="13.768913"><ele>445.0</ele><time>2026-05-03T09:54:37.462Z</time></trkpt><trkpt lat="42.3134779" lon="13.7690417"><ele>445.0</ele><time>2026-05-03T09:54:38.467Z</time></trkpt><trkpt lat="42.3134281" lon="13.7691707"><ele>445.0</ele><time>2026-05-03T09:54:39.461Z</time></trkpt><trkpt lat="42.3133704" lon="13.769287"><ele>445.0</ele><time>2026-05-03T09:54:40.46Z</time></trkpt><trkpt lat="42.3133114" lon="13.7694025"><ele>445.4</ele><time>2026-05-03T09:54:41.46Z</time></trkpt><trkpt lat="42.3132493" lon="13.7695195"><ele>445.8</ele><time>2026-05-03T09:54:42.468Z</time></trkpt><trkpt lat="42.3131798" lon="13.7696321"><ele>446.20000000000005</ele><time>2026-05-03T09:54:43.473Z</time></trkpt><trkpt lat="42.3131011" lon="13.7697358"><ele>446.6</ele><time>2026-05-03T09:54:44.466Z</time></trkpt><trkpt lat="42.3130047" lon="13.7698163"><ele>447.0</ele><time>2026-05-03T09:54:45.474Z</time></trkpt><trkpt lat="42.3128971" lon="13.7698907"><ele>443.25</ele><time>2026-05-03T09:54:46.474Z</time></trkpt><trkpt lat="42.312777" lon="13.7699588"><ele>439.5</ele><time>2026-05-03T09:54:47.479Z</time></trkpt><trkpt lat="42.3126513" lon="13.7700211"><ele>435.75</ele><time>2026-05-03T09:54:48.481Z</time></trkpt><trkpt lat="42.3125212" lon="13.7700725"><ele>432.0</ele><time>2026-05-03T09:54:49.479Z</time></trkpt><trkpt lat="42.3123911" lon="13.7700973"><ele>432.0</ele><time>2026-05-03T09:54:50.48Z</time></trkpt><trkpt lat="42.3122631" lon="13.770125"><ele>432.0</ele><time>2026-05-03T09:54:51.483Z</time></trkpt><trkpt lat="42.3121359" lon="13.7701531"><ele>432.0</ele><time>2026-05-03T09:54:52.484Z</time></trkpt><trkpt lat="42.3120077" lon="13.7701516"><ele>432.0</ele><time>2026-05-03T09:54:53.483Z</time></trkpt><trkpt lat="42.311896" lon="13.7701552"><ele>431.6666666666667</ele><time>2026-05-03T09:54:54.482Z</time></trkpt><trkpt lat="42.3118074" lon="13.7701812"><ele>431.33333333333337</ele><time>2026-05-03T09:54:55.486Z</time></trkpt><trkpt lat="42.3117263" lon="13.7701881"><ele>431.0</ele><time>2026-05-03T09:54:56.486Z</time></trkpt><trkpt lat="42.3116502" lon="13.7702134"><ele>430.6666666666667</ele><time>2026-05-03T09:54:57.48Z</time></trkpt><trkpt lat="42.3115744" lon="13.770235"><ele>430.33333333333337</ele><time>2026-05-03T09:54:58.481Z</time></trkpt><trkpt lat="42.3115021" lon="13.7702829"><ele>430.0</ele><time>2026-05-03T09:54:59.481Z</time></trkpt><trkpt lat="42.3114127" lon="13.7703508"><ele>431.75</ele><time>2026-05-03T09:55:00.497Z</time></trkpt><trkpt lat="42.3113013" lon="13.770453"><ele>433.5</ele><time>2026-05-03T09:55:01.485Z</time></trkpt><trkpt lat="42.3111911" lon="13.7705547"><ele>435.25</ele><time>2026-05-03T09:55:02.481Z</time></trkpt><trkpt lat="42.3110825" lon="13.7706537"><ele>437.0</ele><time>2026-05-03T09:55:03.492Z</time></trkpt><trkpt lat="42.3109939" lon="13.7707416"><ele>436.99999999999994</ele><time>2026-05-03T09:55:04.481Z</time></trkpt><trkpt lat="42.3109158" lon="13.7707971"><ele>437.0</ele><time>2026-05-03T09:55:05.493Z</time></trkpt><trkpt lat="42.310837" lon="13.7708044"><ele>437.0</ele><time>2026-05-03T09:55:06.481Z</time></trkpt><trkpt lat="42.3107519" lon="13.7707816"><ele>437.0</ele><time>2026-05-03T09:55:07.484Z</time></trkpt><trkpt lat="42.3106604" lon="13.7707491"><ele>436.99999999999994</ele><time>2026-05-03T09:55:08.476Z</time></trkpt><trkpt lat="42.3105761" lon="13.7707246"><ele>437.0</ele><time>2026-05-03T09:55:09.49Z</time></trkpt><trkpt lat="42.3104916" lon="13.7707368"><ele>436.25</ele><time>2026-05-03T09:55:10.483Z</time></trkpt><trkpt lat="42.3103927" lon="13.7707674"><ele>435.5</ele><time>2026-05-03T09:55:11.489Z</time></trkpt><trkpt lat="42.3102798" lon="13.7708064"><ele>434.75</ele><time>2026-05-03T09:55:12.477Z</time></trkpt><trkpt lat="42.3101586" lon="13.7708393"><ele>434.0</ele><time>2026-05-03T09:55:13.494Z</time></trkpt><trkpt lat="42.3100403" lon="13.7708653"><ele>434.0</ele><time>2026-05-03T09:55:14.486Z</time></trkpt><trkpt lat="42.309923" lon="13.7708902"><ele>434.0</ele><time>2026-05-03T09:55:15.492Z</time></trkpt><trkpt lat="42.309805" lon="13.7709243"><ele>434.0</ele><time>2026-05-03T09:55:16.478Z</time></trkpt><trkpt lat="42.3097061" lon="13.7709668"><ele>434.0</ele><time>2026-05-03T09:55:17.48Z</time></trkpt><trkpt lat="42.3096371" lon="13.7710201"><ele>434.0</ele><time>2026-05-03T09:55:18.479Z</time></trkpt><trkpt lat="42.3095928" lon="13.7710876"><ele>435.66666666666663</ele><time>2026-05-03T09:55:19.485Z</time></trkpt><trkpt lat="42.3095623" lon="13.7711633"><ele>437.3333333333333</ele><time>2026-05-03T09:55:20.486Z</time></trkpt><trkpt lat="42.3095318" lon="13.7712572"><ele>439.0</ele><time>2026-05-03T09:55:21.486Z</time></trkpt><trkpt lat="42.3094807" lon="13.7713425"><ele>440.66666666666663</ele><time>2026-05-03T09:55:22.488Z</time></trkpt><trkpt lat="42.3094051" lon="13.7714173"><ele>442.3333333333333</ele><time>2026-05-03T09:55:23.48Z</time></trkpt><trkpt lat="42.3093239" lon="13.7714903"><ele>444.0</ele><time>2026-05-03T09:55:24.479Z</time></trkpt><trkpt lat="42.3092594" lon="13.7715411"><ele>444.0</ele><time>2026-05-03T09:55:25.494Z</time></trkpt><trkpt lat="42.3091812" lon="13.7715823"><ele>444.0</ele><time>2026-05-03T09:55:26.483Z</time></trkpt><trkpt lat="42.3090961" lon="13.7716324"><ele>444.0</ele><time>2026-05-03T09:55:27.487Z</time></trkpt><trkpt lat="42.3090179" lon="13.7716813"><ele>444.0</ele><time>2026-05-03T09:55:28.478Z</time></trkpt><trkpt lat="42.3089508" lon="13.77174"><ele>444.0</ele><time>2026-05-03T09:55:29.494Z</time></trkpt><trkpt lat="42.3088843" lon="13.7718207"><ele>444.0</ele><time>2026-05-03T09:55:30.488Z</time></trkpt><trkpt lat="42.308819" lon="13.7719063"><ele>443.79999999999995</ele><time>2026-05-03T09:55:31.49Z</time></trkpt><trkpt lat="42.3087503" lon="13.7719985"><ele>443.59999999999997</ele><time>2026-05-03T09:55:32.488Z</time></trkpt><trkpt lat="42.3086868" lon="13.772092"><ele>443.4</ele><time>2026-05-03T09:55:33.482Z</time></trkpt><trkpt lat="42.3086225" lon="13.7721725"><ele>443.2</ele><time>2026-05-03T09:55:34.493Z</time></trkpt><trkpt lat="42.3085519" lon="13.7722552"><ele>443.0</ele><time>2026-05-03T09:55:35.494Z</time></trkpt><trkpt lat="42.3084823" lon="13.7723322"><ele>442.99999999999994</ele><time>2026-05-03T09:55:36.482Z</time></trkpt><trkpt lat="42.3084232" lon="13.7724104"><ele>443.0</ele><time>2026-05-03T09:55:37.487Z</time></trkpt><trkpt lat="42.3083624" lon="13.7724944"><ele>443.0</ele><time>2026-05-03T09:55:38.486Z</time></trkpt><trkpt lat="42.3082995" lon="13.772577"><ele>443.0</ele><time>2026-05-03T09:55:39.493Z</time></trkpt><trkpt lat="42.3082375" lon="13.772666"><ele>442.99999999999994</ele><time>2026-05-03T09:55:40.494Z</time></trkpt><trkpt lat="42.3081798" lon="13.772755"><ele>443.0</ele><time>2026-05-03T09:55:41.488Z</time></trkpt><trkpt lat="42.3081201" lon="13.7728335"><ele>440.99999999999994</ele><time>2026-05-03T09:55:42.491Z</time></trkpt><trkpt lat="42.3080622" lon="13.7729086"><ele>439.0</ele><time>2026-05-03T09:55:43.492Z</time></trkpt><trkpt lat="42.3080015" lon="13.7729773"><ele>437.0</ele><time>2026-05-03T09:55:44.487Z</time></trkpt><trkpt lat="42.307935" lon="13.7730466"><ele>435.0</ele><time>2026-05-03T09:55:45.497Z</time></trkpt><trkpt lat="42.3078681" lon="13.7731154"><ele>432.99999999999994</ele><time>2026-05-03T09:55:46.48Z</time></trkpt><trkpt lat="42.3078001" lon="13.7731832"><ele>431.0</ele><time>2026-05-03T09:55:47.49Z</time></trkpt><trkpt lat="42.3077291" lon="13.773234"><ele>431.0</ele><time>2026-05-03T09:55:48.487Z</time></trkpt><trkpt lat="42.3076579" lon="13.7732816"><ele>431.0</ele><time>2026-05-03T09:55:49.491Z</time></trkpt><trkpt lat="42.3075852" lon="13.7733445"><ele>431.0</ele><time>2026-05-03T09:55:50.483Z</time></trkpt><trkpt lat="42.3075094" lon="13.7734223"><ele>431.0</ele><time>2026-05-03T09:55:51.489Z</time></trkpt><trkpt lat="42.3074337" lon="13.7735156"><ele>431.0</ele><time>2026-05-03T09:55:52.487Z</time></trkpt><trkpt lat="42.3073607" lon="13.7736211"><ele>432.0</ele><time>2026-05-03T09:55:53.486Z</time></trkpt><trkpt lat="42.3072723" lon="13.773716"><ele>433.0</ele><time>2026-05-03T09:55:54.493Z</time></trkpt><trkpt lat="42.3071785" lon="13.7738053"><ele>434.0</ele><time>2026-05-03T09:55:55.494Z</time></trkpt><trkpt lat="42.3070906" lon="13.773884"><ele>435.0</ele><time>2026-05-03T09:55:56.493Z</time></trkpt><trkpt lat="42.3070157" lon="13.7739572"><ele>436.0</ele><time>2026-05-03T09:55:57.49Z</time></trkpt><trkpt lat="42.3069452" lon="13.7740421"><ele>434.4</ele><time>2026-05-03T09:55:58.49Z</time></trkpt><trkpt lat="42.3068769" lon="13.7741407"><ele>432.8</ele><time>2026-05-03T09:55:59.489Z</time></trkpt><trkpt lat="42.3068122" lon="13.7742422"><ele>431.19999999999993</ele><time>2026-05-03T09:56:00.496Z</time></trkpt><trkpt lat="42.3067485" lon="13.7743374"><ele>429.59999999999997</ele><time>2026-05-03T09:56:01.491Z</time></trkpt><trkpt lat="42.3066832" lon="13.7744311"><ele>428.0</ele><time>2026-05-03T09:56:02.492Z</time></trkpt><trkpt lat="42.3066181" lon="13.7745299"><ele>428.0</ele><time>2026-05-03T09:56:03.494Z</time></trkpt><trkpt lat="42.3065538" lon="13.7746398"><ele>427.99999999999994</ele><time>2026-05-03T09:56:04.486Z</time></trkpt><trkpt lat="42.3064952" lon="13.7747665"><ele>427.99999999999994</ele><time>2026-05-03T09:56:05.491Z</time></trkpt><trkpt lat="42.3064409" lon="13.7749055"><ele>428.0</ele><time>2026-05-03T09:56:06.484Z</time></trkpt><trkpt lat="42.3063954" lon="13.7750278"><ele>428.0</ele><time>2026-05-03T09:56:07.493Z</time></trkpt><trkpt lat="42.3063561" lon="13.7751415"><ele>427.2</ele><time>2026-05-03T09:56:08.486Z</time></trkpt><trkpt lat="42.30632" lon="13.7752667"><ele>426.4</ele><time>2026-05-03T09:56:09.489Z</time></trkpt><trkpt lat="42.3062866" lon="13.7754113"><ele>425.59999999999997</ele><time>2026-05-03T09:56:10.485Z</time></trkpt><trkpt lat="42.3062528" lon="13.7755568"><ele>424.79999999999995</ele><time>2026-05-03T09:56:11.493Z</time></trkpt><trkpt lat="42.3062184" lon="13.7756913"><ele>424.0</ele><time>2026-05-03T09:56:12.488Z</time></trkpt><trkpt lat="42.3061778" lon="13.7758308"><ele>424.0</ele><time>2026-05-03T09:56:13.494Z</time></trkpt><trkpt lat="42.306146" lon="13.7759753"><ele>424.0</ele><time>2026-05-03T09:56:14.484Z</time></trkpt><trkpt lat="42.3061166" lon="13.776121"><ele>424.0</ele><time>2026-05-03T09:56:15.487Z</time></trkpt><trkpt lat="42.3060928" lon="13.7762592"><ele>424.0</ele><time>2026-05-03T09:56:16.483Z</time></trkpt><trkpt lat="42.3060649" lon="13.7763868"><ele>424.0</ele><time>2026-05-03T09:56:17.488Z</time></trkpt><trkpt lat="42.3060376" lon="13.7765066"><ele>423.83333333333337</ele><time>2026-05-03T09:56:18.489Z</time></trkpt><trkpt lat="42.3060123" lon="13.7766126"><ele>423.6666666666667</ele><time>2026-05-03T09:56:19.485Z</time></trkpt><trkpt lat="42.3059928" lon="13.7767031"><ele>423.5</ele><time>2026-05-03T09:56:20.485Z</time></trkpt><trkpt lat="42.3060056" lon="13.7768455"><ele>423.33333333333337</ele><time>2026-05-03T09:56:22.487Z</time></trkpt><trkpt lat="42.3060319" lon="13.7769478"><ele>423.1666666666667</ele><time>2026-05-03T09:56:23.485Z</time></trkpt><trkpt lat="42.3060725" lon="13.7770648"><ele>423.0</ele><time>2026-05-03T09:56:24.484Z</time></trkpt><trkpt lat="42.3061033" lon="13.777175"><ele>422.8333333333333</ele><time>2026-05-03T09:56:25.494Z</time></trkpt><trkpt lat="42.3061176" lon="13.7772742"><ele>422.66666666666663</ele><time>2026-05-03T09:56:26.479Z</time></trkpt><trkpt lat="42.3060961" lon="13.777426"><ele>422.5</ele><time>2026-05-03T09:56:28.478Z</time></trkpt><trkpt lat="42.3060598" lon="13.7775066"><ele>422.3333333333333</ele><time>2026-05-03T09:56:29.494Z</time></trkpt><trkpt lat="42.3059979" lon="13.7776007"><ele>422.16666666666663</ele><time>2026-05-03T09:56:30.481Z</time></trkpt><trkpt lat="42.3059308" lon="13.7776892"><ele>422.0</ele><time>2026-05-03T09:56:31.482Z</time></trkpt><trkpt lat="42.3058573" lon="13.7777646"><ele>421.8</ele><time>2026-05-03T09:56:32.483Z</time></trkpt><trkpt lat="42.3057795" lon="13.7778262"><ele>421.6</ele><time>2026-05-03T09:56:33.487Z</time></trkpt><trkpt lat="42.3057049" lon="13.7779"><ele>421.40000000000003</ele><time>2026-05-03T09:56:34.481Z</time></trkpt><trkpt lat="42.3056242" lon="13.7779832"><ele>421.20000000000005</ele><time>2026-05-03T09:56:35.488Z</time></trkpt><trkpt lat="42.3055512" lon="13.7780661"><ele>421.0</ele><time>2026-05-03T09:56:36.49Z</time></trkpt><trkpt lat="42.3054752" lon="13.7781271"><ele>419.4</ele><time>2026-05-03T09:56:37.485Z</time></trkpt><trkpt lat="42.3054005" lon="13.7781763"><ele>417.8</ele><time>2026-05-03T09:56:38.498Z</time></trkpt><trkpt lat="42.3053215" lon="13.778233"><ele>416.2</ele><time>2026-05-03T09:56:39.48Z</time></trkpt><trkpt lat="42.3052448" lon="13.7783075"><ele>414.59999999999997</ele><time>2026-05-03T09:56:40.479Z</time></trkpt><trkpt lat="42.3051797" lon="13.778407"><ele>413.0</ele><time>2026-05-03T09:56:41.482Z</time></trkpt><trkpt lat="42.305124" lon="13.7785097"><ele>413.2</ele><time>2026-05-03T09:56:42.49Z</time></trkpt><trkpt lat="42.3050742" lon="13.7786157"><ele>413.4</ele><time>2026-05-03T09:56:43.489Z</time></trkpt><trkpt lat="42.305029" lon="13.778744"><ele>413.59999999999997</ele><time>2026-05-03T09:56:44.485Z</time></trkpt><trkpt lat="42.3049789" lon="13.778874"><ele>413.79999999999995</ele><time>2026-05-03T09:56:45.484Z</time></trkpt><trkpt lat="42.3049229" lon="13.7789931"><ele>414.0</ele><time>2026-05-03T09:56:46.479Z</time></trkpt><trkpt lat="42.3048523" lon="13.7791043"><ele>414.0</ele><time>2026-05-03T09:56:47.491Z</time></trkpt><trkpt lat="42.3047807" lon="13.7792125"><ele>414.0</ele><time>2026-05-03T09:56:48.483Z</time></trkpt><trkpt lat="42.3047071" lon="13.7793122"><ele>414.0</ele><time>2026-05-03T09:56:49.483Z</time></trkpt><trkpt lat="42.3046443" lon="13.7794089"><ele>414.0</ele><time>2026-05-03T09:56:50.487Z</time></trkpt><trkpt lat="42.3045794" lon="13.779501"><ele>414.0</ele><time>2026-05-03T09:56:51.486Z</time></trkpt><trkpt lat="42.3045115" lon="13.7795889"><ele>412.4</ele><time>2026-05-03T09:56:52.487Z</time></trkpt><trkpt lat="42.304437" lon="13.7796655"><ele>410.79999999999995</ele><time>2026-05-03T09:56:53.482Z</time></trkpt><trkpt lat="42.3043573" lon="13.7797159"><ele>409.20000000000005</ele><time>2026-05-03T09:56:54.483Z</time></trkpt><trkpt lat="42.3042695" lon="13.7797493"><ele>407.6</ele><time>2026-05-03T09:56:55.493Z</time></trkpt><trkpt lat="42.3041838" lon="13.7797902"><ele>406.0</ele><time>2026-05-03T09:56:56.485Z</time></trkpt><trkpt lat="42.3041064" lon="13.7798494"><ele>406.00000000000006</ele><time>2026-05-03T09:56:57.481Z</time></trkpt><trkpt lat="42.30403" lon="13.7799406"><ele>406.0</ele><time>2026-05-03T09:56:58.499Z</time></trkpt><trkpt lat="42.3039723" lon="13.7800447"><ele>406.0</ele><time>2026-05-03T09:56:59.488Z</time></trkpt><trkpt lat="42.3039145" lon="13.7801352"><ele>406.0</ele><time>2026-05-03T09:57:00.499Z</time></trkpt><trkpt lat="42.3038621" lon="13.7802057"><ele>406.00000000000006</ele><time>2026-05-03T09:57:01.481Z</time></trkpt><trkpt lat="42.3037964" lon="13.7802652"><ele>406.0</ele><time>2026-05-03T09:57:03.481Z</time></trkpt><trkpt lat="42.3036869" lon="13.7802288"><ele>405.4</ele><time>2026-05-03T09:57:06.492Z</time></trkpt><trkpt lat="42.3035684" lon="13.7802622"><ele>404.8</ele><time>2026-05-03T09:57:08.486Z</time></trkpt><trkpt lat="42.3034824" lon="13.7803584"><ele>404.2</ele><time>2026-05-03T09:57:10.486Z</time></trkpt><trkpt lat="42.3034341" lon="13.7804308"><ele>403.59999999999997</ele><time>2026-05-03T09:57:11.479Z</time></trkpt><trkpt lat="42.3033719" lon="13.7805188"><ele>403.0</ele><time>2026-05-03T09:57:12.493Z</time></trkpt><trkpt lat="42.3032989" lon="13.7806203"><ele>403.0</ele><time>2026-05-03T09:57:13.483Z</time></trkpt><trkpt lat="42.3032338" lon="13.78073"><ele>403.0</ele><time>2026-05-03T09:57:14.488Z</time></trkpt><trkpt lat="42.3031696" lon="13.78084"><ele>403.0</ele><time>2026-05-03T09:57:15.489Z</time></trkpt><trkpt lat="42.3031049" lon="13.7809493"><ele>403.0</ele><time>2026-05-03T09:57:16.491Z</time></trkpt><trkpt lat="42.3030378" lon="13.7810568"><ele>403.0</ele><time>2026-05-03T09:57:17.482Z</time></trkpt><trkpt lat="42.3029736" lon="13.7811591"><ele>401.4</ele><time>2026-05-03T09:57:18.489Z</time></trkpt><trkpt lat="42.3029081" lon="13.7812464"><ele>399.79999999999995</ele><time>2026-05-03T09:57:19.483Z</time></trkpt><trkpt lat="42.3028458" lon="13.7813239"><ele>398.2</ele><time>2026-05-03T09:57:20.489Z</time></trkpt><trkpt lat="42.3027725" lon="13.7813818"><ele>396.6</ele><time>2026-05-03T09:57:21.486Z</time></trkpt><trkpt lat="42.3026907" lon="13.781426"><ele>395.0</ele><time>2026-05-03T09:57:22.48Z</time></trkpt><trkpt lat="42.3025903" lon="13.7814588"><ele>395.0</ele><time>2026-05-03T09:57:23.489Z</time></trkpt><trkpt lat="42.3024791" lon="13.7814905"><ele>395.0</ele><time>2026-05-03T09:57:24.487Z</time></trkpt><trkpt lat="42.3023756" lon="13.781523"><ele>395.0</ele><time>2026-05-03T09:57:25.492Z</time></trkpt><trkpt lat="42.3022728" lon="13.781556"><ele>395.0</ele><time>2026-05-03T09:57:26.485Z</time></trkpt><trkpt lat="42.3021785" lon="13.7815941"><ele>395.0</ele><time>2026-05-03T09:57:27.481Z</time></trkpt><trkpt lat="42.3021046" lon="13.7816285"><ele>392.8</ele><time>2026-05-03T09:57:28.481Z</time></trkpt><trkpt lat="42.3020266" lon="13.7816621"><ele>390.6</ele><time>2026-05-03T09:57:30.495Z</time></trkpt><trkpt lat="42.3019623" lon="13.7817033"><ele>388.4</ele><time>2026-05-03T09:57:34.483Z</time></trkpt><trkpt lat="42.3018977" lon="13.7817321"><ele>386.2</ele><time>2026-05-03T09:57:37.491Z</time></trkpt><trkpt lat="42.3018797" lon="13.7815324"><ele>384.0</ele><time>2026-05-03T09:57:39.496Z</time></trkpt><trkpt lat="42.3018695" lon="13.7813699"><ele>384.0</ele><time>2026-05-03T09:57:40.483Z</time></trkpt><trkpt lat="42.3018683" lon="13.7812211"><ele>384.0</ele><time>2026-05-03T09:57:41.482Z</time></trkpt><trkpt lat="42.3018617" lon="13.7810708"><ele>384.0</ele><time>2026-05-03T09:57:42.48Z</time></trkpt><trkpt lat="42.3018529" lon="13.780918"><ele>384.0</ele><time>2026-05-03T09:57:43.492Z</time></trkpt><trkpt lat="42.3018496" lon="13.7807764"><ele>384.0</ele><time>2026-05-03T09:57:44.488Z</time></trkpt><trkpt lat="42.3018574" lon="13.7806383"><ele>384.0</ele><time>2026-05-03T09:57:45.494Z</time></trkpt><trkpt lat="42.301863" lon="13.7805198"><ele>384.0</ele><time>2026-05-03T09:57:46.484Z</time></trkpt><trkpt lat="42.3018757" lon="13.7804248"><ele>384.0</ele><time>2026-05-03T09:57:47.481Z</time></trkpt><trkpt lat="42.3019246" lon="13.7803025"><ele>384.0</ele><time>2026-05-03T09:57:49.488Z</time></trkpt><trkpt lat="42.3019701" lon="13.7802182"><ele>384.0</ele><time>2026-05-03T09:57:50.479Z</time></trkpt><trkpt lat="42.3020042" lon="13.7801134"><ele>384.0</ele><time>2026-05-03T09:57:51.483Z</time></trkpt><trkpt lat="42.3019937" lon="13.7800146"><ele>383.6</ele><time>2026-05-03T09:57:52.48Z</time></trkpt><trkpt lat="42.3019647" lon="13.779898"><ele>383.2</ele><time>2026-05-03T09:57:53.482Z</time></trkpt><trkpt lat="42.3019161" lon="13.7797597"><ele>382.8</ele><time>2026-05-03T09:57:54.483Z</time></trkpt><trkpt lat="42.3018654" lon="13.7796203"><ele>382.40000000000003</ele><time>2026-05-03T09:57:55.485Z</time></trkpt><trkpt lat="42.3018147" lon="13.7794916"><ele>382.0</ele><time>2026-05-03T09:57:56.489Z</time></trkpt><trkpt lat="42.3017666" lon="13.7793726"><ele>381.40000000000003</ele><time>2026-05-03T09:57:57.479Z</time></trkpt><trkpt lat="42.301727" lon="13.7792634"><ele>380.8</ele><time>2026-05-03T09:57:58.491Z</time></trkpt><trkpt lat="42.3016877" lon="13.7791389"><ele>380.2</ele><time>2026-05-03T09:57:59.482Z</time></trkpt><trkpt lat="42.3016571" lon="13.7790005"><ele>379.6</ele><time>2026-05-03T09:58:00.496Z</time></trkpt><trkpt lat="42.3016267" lon="13.7788438"><ele>379.0</ele><time>2026-05-03T09:58:01.487Z</time></trkpt><trkpt lat="42.3015958" lon="13.7786862"><ele>379.0</ele><time>2026-05-03T09:58:02.492Z</time></trkpt><trkpt lat="42.3015594" lon="13.7785212"><ele>379.0</ele><time>2026-05-03T09:58:03.486Z</time></trkpt><trkpt lat="42.3015233" lon="13.778358"><ele>379.0</ele><time>2026-05-03T09:58:04.488Z</time></trkpt><trkpt lat="42.3014829" lon="13.7782047"><ele>379.0</ele><time>2026-05-03T09:58:05.489Z</time></trkpt><trkpt lat="42.3014359" lon="13.7780498"><ele>376.5</ele><time>2026-05-03T09:58:06.483Z</time></trkpt><trkpt lat="42.3013811" lon="13.7779005"><ele>374.0</ele><time>2026-05-03T09:58:07.489Z</time></trkpt><trkpt lat="42.3013332" lon="13.7777578"><ele>371.5</ele><time>2026-05-03T09:58:08.479Z</time></trkpt><trkpt lat="42.3012976" lon="13.7776218"><ele>369.0</ele><time>2026-05-03T09:58:09.489Z</time></trkpt><trkpt lat="42.3012696" lon="13.7774734"><ele>368.6</ele><time>2026-05-03T09:58:10.488Z</time></trkpt><trkpt lat="42.3012576" lon="13.7773133"><ele>368.2</ele><time>2026-05-03T09:58:11.485Z</time></trkpt><trkpt lat="42.3012567" lon="13.777154"><ele>367.8</ele><time>2026-05-03T09:58:12.48Z</time></trkpt><trkpt lat="42.3012675" lon="13.7770109"><ele>367.40000000000003</ele><time>2026-05-03T09:58:13.495Z</time></trkpt><trkpt lat="42.30128" lon="13.7768899"><ele>367.0</ele><time>2026-05-03T09:58:14.492Z</time></trkpt><trkpt lat="42.301285" lon="13.7767846"><ele>367.0</ele><time>2026-05-03T09:58:15.49Z</time></trkpt><trkpt lat="42.3012649" lon="13.7766832"><ele>367.0</ele><time>2026-05-03T09:58:16.495Z</time></trkpt><trkpt lat="42.3012171" lon="13.7765621"><ele>367.0</ele><time>2026-05-03T09:58:17.497Z</time></trkpt><trkpt lat="42.3011611" lon="13.7764382"><ele>367.0</ele><time>2026-05-03T09:58:18.499Z</time></trkpt><trkpt lat="42.3010945" lon="13.7763234"><ele>367.0</ele><time>2026-05-03T09:58:19.497Z</time></trkpt><trkpt lat="42.3010121" lon="13.776234"><ele>367.0</ele><time>2026-05-03T09:58:20.485Z</time></trkpt><trkpt lat="42.3009319" lon="13.7761752"><ele>367.0</ele><time>2026-05-03T09:58:21.496Z</time></trkpt><trkpt lat="42.3008583" lon="13.7761308"><ele>367.0</ele><time>2026-05-03T09:58:22.492Z</time></trkpt><trkpt lat="42.3008009" lon="13.7760372"><ele>367.0</ele><time>2026-05-03T09:58:24.472Z</time></trkpt><trkpt lat="42.3008386" lon="13.7759007"><ele>367.0</ele><time>2026-05-03T09:58:26.474Z</time></trkpt><trkpt lat="42.3008757" lon="13.7757735"><ele>367.5</ele><time>2026-05-03T09:58:28.487Z</time></trkpt><trkpt lat="42.3007858" lon="13.7756856"><ele>368.0</ele><time>2026-05-03T09:58:30.493Z</time></trkpt><trkpt lat="42.3007241" lon="13.7756405"><ele>368.5</ele><time>2026-05-03T09:58:31.491Z</time></trkpt><trkpt lat="42.3006667" lon="13.775581"><ele>369.0</ele><time>2026-05-03T09:58:32.489Z</time></trkpt><trkpt lat="42.3006036" lon="13.7755533"><ele>369.5</ele><time>2026-05-03T09:58:33.493Z</time></trkpt><trkpt lat="42.3005313" lon="13.7755368"><ele>370.0</ele><time>2026-05-03T09:58:34.489Z</time></trkpt><trkpt lat="42.3004646" lon="13.775488"><ele>368.0</ele><time>2026-05-03T09:58:35.485Z</time></trkpt><trkpt lat="42.3004116" lon="13.7754178"><ele>366.0</ele><time>2026-05-03T09:58:36.494Z</time></trkpt><trkpt lat="42.3003676" lon="13.7753064"><ele>364.0</ele><time>2026-05-03T09:58:37.488Z</time></trkpt><trkpt lat="42.3003024" lon="13.7751989"><ele>362.0</ele><time>2026-05-03T09:58:38.487Z</time></trkpt><trkpt lat="42.3002254" lon="13.7751008"><ele>360.0</ele><time>2026-05-03T09:58:39.492Z</time></trkpt><trkpt lat="42.3001448" lon="13.7750245"><ele>360.0</ele><time>2026-05-03T09:58:40.487Z</time></trkpt><trkpt lat="42.3000839" lon="13.77497"><ele>360.0</ele><time>2026-05-03T09:58:41.49Z</time></trkpt><trkpt lat="42.3000047" lon="13.7749403"><ele>360.0</ele><time>2026-05-03T09:58:43.495Z</time></trkpt><trkpt lat="42.2999275" lon="13.7750278"><ele>360.0</ele><time>2026-05-03T09:58:45.484Z</time></trkpt><trkpt lat="42.2998865" lon="13.7750949"><ele>360.0</ele><time>2026-05-03T09:58:46.487Z</time></trkpt><trkpt lat="42.2998197" lon="13.7751899"><ele>360.0</ele><time>2026-05-03T09:58:47.485Z</time></trkpt><trkpt lat="42.2997415" lon="13.7752819"><ele>359.6666666666667</ele><time>2026-05-03T09:58:48.489Z</time></trkpt><trkpt lat="42.2996669" lon="13.7753695"><ele>359.3333333333333</ele><time>2026-05-03T09:58:49.487Z</time></trkpt><trkpt lat="42.2995942" lon="13.7754431"><ele>359.0</ele><time>2026-05-03T09:58:50.481Z</time></trkpt><trkpt lat="42.2995307" lon="13.7754947"><ele>358.66666666666663</ele><time>2026-05-03T09:58:51.472Z</time></trkpt><trkpt lat="42.2994549" lon="13.7755283"><ele>358.3333333333333</ele><time>2026-05-03T09:58:53.482Z</time></trkpt><trkpt lat="42.2993743" lon="13.7754913"><ele>358.0</ele><time>2026-05-03T09:58:55.489Z</time></trkpt><trkpt lat="42.2993176" lon="13.7754397"><ele>358.0</ele><time>2026-05-03T09:58:56.49Z</time></trkpt><trkpt lat="42.2992525" lon="13.775379"><ele>358.0</ele><time>2026-05-03T09:58:57.492Z</time></trkpt><trkpt lat="42.2991969" lon="13.7753108"><ele>358.0</ele><time>2026-05-03T09:58:58.485Z</time></trkpt><trkpt lat="42.2991437" lon="13.775254"><ele>358.0</ele><time>2026-05-03T09:58:59.479Z</time></trkpt><trkpt lat="42.2990322" lon="13.7752234"><ele>358.0</ele><time>2026-05-03T09:59:01.479Z</time></trkpt><trkpt lat="42.2989431" lon="13.7753212"><ele>357.0</ele><time>2026-05-03T09:59:03.479Z</time></trkpt><trkpt lat="42.2989089" lon="13.7754007"><ele>356.0</ele><time>2026-05-03T09:59:04.479Z</time></trkpt><trkpt lat="42.2988755" lon="13.7755118"><ele>355.0</ele><time>2026-05-03T09:59:05.48Z</time></trkpt><trkpt lat="42.2988361" lon="13.775657"><ele>354.0</ele><time>2026-05-03T09:59:06.486Z</time></trkpt><trkpt lat="42.2987942" lon="13.7758099"><ele>353.0</ele><time>2026-05-03T09:59:07.485Z</time></trkpt><trkpt lat="42.2987567" lon="13.7759818"><ele>354.0</ele><time>2026-05-03T09:59:08.489Z</time></trkpt><trkpt lat="42.2987238" lon="13.776172"><ele>355.0</ele><time>2026-05-03T09:59:09.489Z</time></trkpt><trkpt lat="42.2986984" lon="13.7764074"><ele>356.0</ele><time>2026-05-03T09:59:10.493Z</time></trkpt><trkpt lat="42.2986595" lon="13.7766195"><ele>356.0</ele><time>2026-05-03T09:59:11.485Z</time></trkpt><trkpt lat="42.2986184" lon="13.7767943"><ele>356.0</ele><time>2026-05-03T09:59:12.501Z</time></trkpt><trkpt lat="42.2985585" lon="13.7769399"><ele>356.0</ele><time>2026-05-03T09:59:13.485Z</time></trkpt><trkpt lat="42.2984943" lon="13.7771212"><ele>356.0</ele><time>2026-05-03T09:59:14.49Z</time></trkpt><trkpt lat="42.2984523" lon="13.7772771"><ele>356.1666666666667</ele><time>2026-05-03T09:59:15.485Z</time></trkpt><trkpt lat="42.2984251" lon="13.7774149"><ele>356.33333333333337</ele><time>2026-05-03T09:59:16.479Z</time></trkpt><trkpt lat="42.2983903" lon="13.7775373"><ele>356.5</ele><time>2026-05-03T09:59:17.482Z</time></trkpt><trkpt lat="42.2983652" lon="13.7776427"><ele>356.6666666666667</ele><time>2026-05-03T09:59:18.486Z</time></trkpt><trkpt lat="42.2983457" lon="13.7777303"><ele>356.8333333333333</ele><time>2026-05-03T09:59:19.482Z</time></trkpt><trkpt lat="42.2983114" lon="13.7778348"><ele>357.0</ele><time>2026-05-03T09:59:21.479Z</time></trkpt><trkpt lat="42.2982828" lon="13.7779273"><ele>357.0</ele><time>2026-05-03T09:59:32.496Z</time></trkpt><trkpt lat="42.2982163" lon="13.7779487"><ele>357.0</ele><time>2026-05-03T09:59:35.489Z</time></trkpt><trkpt lat="42.2981326" lon="13.7779815"><ele>357.0</ele><time>2026-05-03T09:59:37.486Z</time></trkpt><trkpt lat="42.2980421" lon="13.7780179"><ele>357.0</ele><time>2026-05-03T09:59:39.493Z</time></trkpt><trkpt lat="42.2979707" lon="13.7780496"><ele>357.0</ele><time>2026-05-03T09:59:41.502Z</time></trkpt><trkpt lat="42.2979232" lon="13.7781104"><ele>357.0</ele><time>2026-05-03T09:59:43.493Z</time></trkpt><trkpt lat="42.2978766" lon="13.7781737"><ele>356.5</ele><time>2026-05-03T09:59:45.497Z</time></trkpt><trkpt lat="42.2978185" lon="13.7782475"><ele>356.0</ele><time>2026-05-03T09:59:47.491Z</time></trkpt><trkpt lat="42.2977492" lon="13.7783251"><ele>355.5</ele><time>2026-05-03T09:59:49.499Z</time></trkpt><trkpt lat="42.2976824" lon="13.7784036"><ele>355.0</ele><time>2026-05-03T09:59:51.49Z</time></trkpt><trkpt lat="42.2976122" lon="13.7784807"><ele>354.5</ele><time>2026-05-03T09:59:53.496Z</time></trkpt><trkpt lat="42.2975433" lon="13.7785659"><ele>354.0</ele><time>2026-05-03T09:59:55.502Z</time></trkpt><trkpt lat="42.2974708" lon="13.7786495"><ele>353.6</ele><time>2026-05-03T09:59:57.497Z</time></trkpt><trkpt lat="42.2973971" lon="13.7787349"><ele>353.2</ele><time>2026-05-03T09:59:59.494Z</time></trkpt><trkpt lat="42.2973125" lon="13.7788141"><ele>352.8</ele><time>2026-05-03T10:00:01.5Z</time></trkpt><trkpt lat="42.2972153" lon="13.7788997"><ele>352.40000000000003</ele><time>2026-05-03T10:00:03.501Z</time></trkpt><trkpt lat="42.2971439" lon="13.7789722"><ele>352.0</ele><time>2026-05-03T10:00:05.495Z</time></trkpt><trkpt lat="42.2970679" lon="13.779044"><ele>351.8</ele><time>2026-05-03T10:00:08.498Z</time></trkpt><trkpt lat="42.2969972" lon="13.7791282"><ele>351.6</ele><time>2026-05-03T10:00:10.507Z</time></trkpt><trkpt lat="42.2969023" lon="13.7792076"><ele>351.40000000000003</ele><time>2026-05-03T10:00:12.507Z</time></trkpt><trkpt lat="42.2968108" lon="13.7793152"><ele>351.20000000000005</ele><time>2026-05-03T10:00:14.507Z</time></trkpt><trkpt lat="42.2967383" lon="13.7794272"><ele>351.0</ele><time>2026-05-03T10:00:16.511Z</time></trkpt><trkpt lat="42.296667" lon="13.7795492"><ele>351.0</ele><time>2026-05-03T10:00:18.51Z</time></trkpt><trkpt lat="42.2965934" lon="13.7796817"><ele>351.0</ele><time>2026-05-03T10:00:20.509Z</time></trkpt><trkpt lat="42.2965202" lon="13.7798069"><ele>351.0</ele><time>2026-05-03T10:00:22.51Z</time></trkpt><trkpt lat="42.2964453" lon="13.7799355"><ele>351.0</ele><time>2026-05-03T10:00:24.507Z</time></trkpt><trkpt lat="42.2964052" lon="13.7800044"><ele>351.0</ele><time>2026-05-03T10:00:25.503Z</time></trkpt><trkpt lat="42.2963097" lon="13.7801391"><ele>351.4</ele><time>2026-05-03T10:00:27.503Z</time></trkpt><trkpt lat="42.2962463" lon="13.780231"><ele>351.8</ele><time>2026-05-03T10:00:28.504Z</time></trkpt><trkpt lat="42.2961867" lon="13.7803381"><ele>352.2</ele><time>2026-05-03T10:00:29.505Z</time></trkpt><trkpt lat="42.2961339" lon="13.7804606"><ele>352.59999999999997</ele><time>2026-05-03T10:00:30.512Z</time></trkpt><trkpt lat="42.2960868" lon="13.7805814"><ele>353.0</ele><time>2026-05-03T10:00:31.506Z</time></trkpt><trkpt lat="42.2960372" lon="13.7807016"><ele>353.0</ele><time>2026-05-03T10:00:32.511Z</time></trkpt><trkpt lat="42.2959757" lon="13.7808202"><ele>353.0</ele><time>2026-05-03T10:00:33.491Z</time></trkpt><trkpt lat="42.2959103" lon="13.780936"><ele>353.0</ele><time>2026-05-03T10:00:34.509Z</time></trkpt><trkpt lat="42.2958381" lon="13.7810456"><ele>353.0</ele><time>2026-05-03T10:00:35.498Z</time></trkpt><trkpt lat="42.2957653" lon="13.7811517"><ele>353.0</ele><time>2026-05-03T10:00:36.502Z</time></trkpt><trkpt lat="42.2956946" lon="13.7812646"><ele>352.75</ele><time>2026-05-03T10:00:37.495Z</time></trkpt><trkpt lat="42.2956203" lon="13.781382"><ele>352.5</ele><time>2026-05-03T10:00:38.511Z</time></trkpt><trkpt lat="42.2955426" lon="13.7814972"><ele>352.25</ele><time>2026-05-03T10:00:39.502Z</time></trkpt><trkpt lat="42.2954586" lon="13.7816054"><ele>352.0</ele><time>2026-05-03T10:00:40.506Z</time></trkpt><trkpt lat="42.2953594" lon="13.7817047"><ele>352.0</ele><time>2026-05-03T10:00:41.496Z</time></trkpt><trkpt lat="42.2952454" lon="13.7817905"><ele>352.0</ele><time>2026-05-03T10:00:42.513Z</time></trkpt><trkpt lat="42.2951329" lon="13.7818784"><ele>352.0</ele><time>2026-05-03T10:00:43.499Z</time></trkpt><trkpt lat="42.2950195" lon="13.7819751"><ele>352.0</ele><time>2026-05-03T10:00:44.505Z</time></trkpt><trkpt lat="42.2949097" lon="13.7820865"><ele>352.0</ele><time>2026-05-03T10:00:45.503Z</time></trkpt><trkpt lat="42.2948032" lon="13.7822086"><ele>352.0</ele><time>2026-05-03T10:00:46.509Z</time></trkpt><trkpt lat="42.2947058" lon="13.7823265"><ele>352.0</ele><time>2026-05-03T10:00:47.51Z</time></trkpt><trkpt lat="42.294622" lon="13.7824395"><ele>352.0</ele><time>2026-05-03T10:00:48.508Z</time></trkpt><trkpt lat="42.2945461" lon="13.7825428"><ele>351.5</ele><time>2026-05-03T10:00:49.501Z</time></trkpt><trkpt lat="42.2944709" lon="13.7826474"><ele>351.0</ele><time>2026-05-03T10:00:50.504Z</time></trkpt><trkpt lat="42.2943955" lon="13.7827597"><ele>350.5</ele><time>2026-05-03T10:00:51.51Z</time></trkpt><trkpt lat="42.2943149" lon="13.7828769"><ele>350.0</ele><time>2026-05-03T10:00:52.496Z</time></trkpt><trkpt lat="42.2942337" lon="13.7829862"><ele>350.0</ele><time>2026-05-03T10:00:53.503Z</time></trkpt><trkpt lat="42.2941672" lon="13.7830743"><ele>350.0</ele><time>2026-05-03T10:00:54.5Z</time></trkpt><trkpt lat="42.2941045" lon="13.7831545"><ele>350.0</ele><time>2026-05-03T10:00:55.509Z</time></trkpt><trkpt lat="42.2940392" lon="13.7832498"><ele>350.0</ele><time>2026-05-03T10:00:56.503Z</time></trkpt><trkpt lat="42.2939661" lon="13.7833631"><ele>350.0</ele><time>2026-05-03T10:00:57.508Z</time></trkpt><trkpt lat="42.2938957" lon="13.7834719"><ele>350.25</ele><time>2026-05-03T10:00:58.5Z</time></trkpt><trkpt lat="42.2938198" lon="13.7835847"><ele>350.5</ele><time>2026-05-03T10:00:59.507Z</time></trkpt><trkpt lat="42.2937476" lon="13.7837107"><ele>350.75</ele><time>2026-05-03T10:01:00.51Z</time></trkpt><trkpt lat="42.2936653" lon="13.7838372"><ele>351.0</ele><time>2026-05-03T10:01:01.499Z</time></trkpt><trkpt lat="42.29357" lon="13.7839556"><ele>351.0</ele><time>2026-05-03T10:01:02.509Z</time></trkpt><trkpt lat="42.2934678" lon="13.7840668"><ele>351.0</ele><time>2026-05-03T10:01:03.494Z</time></trkpt><trkpt lat="42.2933641" lon="13.7841697"><ele>351.0</ele><time>2026-05-03T10:01:04.511Z</time></trkpt><trkpt lat="42.2932546" lon="13.7842758"><ele>351.0</ele><time>2026-05-03T10:01:05.498Z</time></trkpt><trkpt lat="42.293153" lon="13.7843714"><ele>351.25</ele><time>2026-05-03T10:01:06.504Z</time></trkpt><trkpt lat="42.2930617" lon="13.7844544"><ele>351.5</ele><time>2026-05-03T10:01:07.51Z</time></trkpt><trkpt lat="42.2929633" lon="13.7845383"><ele>351.75</ele><time>2026-05-03T10:01:08.501Z</time></trkpt><trkpt lat="42.2928547" lon="13.784619"><ele>352.0</ele><time>2026-05-03T10:01:09.505Z</time></trkpt><trkpt lat="42.2927362" lon="13.7846953"><ele>352.0</ele><time>2026-05-03T10:01:10.505Z</time></trkpt><trkpt lat="42.292627" lon="13.7847605"><ele>352.0</ele><time>2026-05-03T10:01:11.496Z</time></trkpt><trkpt lat="42.2925238" lon="13.7848224"><ele>352.0</ele><time>2026-05-03T10:01:12.503Z</time></trkpt><trkpt lat="42.2924152" lon="13.784876"><ele>352.0</ele><time>2026-05-03T10:01:13.503Z</time></trkpt><trkpt lat="42.2922996" lon="13.7849278"><ele>351.5</ele><time>2026-05-03T10:01:14.505Z</time></trkpt><trkpt lat="42.2921753" lon="13.7849729"><ele>351.0</ele><time>2026-05-03T10:01:15.5Z</time></trkpt><trkpt lat="42.292054" lon="13.7850153"><ele>350.5</ele><time>2026-05-03T10:01:16.507Z</time></trkpt><trkpt lat="42.2919366" lon="13.7850554"><ele>350.0</ele><time>2026-05-03T10:01:17.496Z</time></trkpt><trkpt lat="42.2918344" lon="13.7850984"><ele>350.0</ele><time>2026-05-03T10:01:18.5Z</time></trkpt><trkpt lat="42.291738" lon="13.7851499"><ele>350.0</ele><time>2026-05-03T10:01:19.509Z</time></trkpt><trkpt lat="42.2916435" lon="13.785209"><ele>350.0</ele><time>2026-05-03T10:01:20.501Z</time></trkpt><trkpt lat="42.2915478" lon="13.7852745"><ele>350.0</ele><time>2026-05-03T10:01:21.503Z</time></trkpt><trkpt lat="42.291446" lon="13.7853582"><ele>350.0</ele><time>2026-05-03T10:01:22.502Z</time></trkpt><trkpt lat="42.2913472" lon="13.7854325"><ele>350.25</ele><time>2026-05-03T10:01:23.507Z</time></trkpt><trkpt lat="42.2912486" lon="13.7854999"><ele>350.5</ele><time>2026-05-03T10:01:24.5Z</time></trkpt><trkpt lat="42.2911419" lon="13.7855602"><ele>350.75</ele><time>2026-05-03T10:01:25.508Z</time></trkpt><trkpt lat="42.2910313" lon="13.7856337"><ele>351.0</ele><time>2026-05-03T10:01:26.503Z</time></trkpt><trkpt lat="42.2909265" lon="13.7857101"><ele>351.0</ele><time>2026-05-03T10:01:27.501Z</time></trkpt><trkpt lat="42.2908246" lon="13.7857974"><ele>351.0</ele><time>2026-05-03T10:01:28.509Z</time></trkpt><trkpt lat="42.2907191" lon="13.7858839"><ele>351.0</ele><time>2026-05-03T10:01:29.503Z</time></trkpt><trkpt lat="42.290614" lon="13.7859702"><ele>351.0</ele><time>2026-05-03T10:01:30.511Z</time></trkpt><trkpt lat="42.2905108" lon="13.7860569"><ele>351.20000000000005</ele><time>2026-05-03T10:01:31.513Z</time></trkpt><trkpt lat="42.2904087" lon="13.7861354"><ele>351.40000000000003</ele><time>2026-05-03T10:01:32.504Z</time></trkpt><trkpt lat="42.2903138" lon="13.7862189"><ele>351.6</ele><time>2026-05-03T10:01:33.501Z</time></trkpt><trkpt lat="42.2902304" lon="13.786303"><ele>351.8</ele><time>2026-05-03T10:01:34.509Z</time></trkpt><trkpt lat="42.2901448" lon="13.7863819"><ele>352.0</ele><time>2026-05-03T10:01:35.508Z</time></trkpt><trkpt lat="42.2900567" lon="13.786453"><ele>352.0</ele><time>2026-05-03T10:01:36.509Z</time></trkpt><trkpt lat="42.2899713" lon="13.7865193"><ele>352.0</ele><time>2026-05-03T10:01:37.507Z</time></trkpt><trkpt lat="42.2898806" lon="13.7865885"><ele>352.0</ele><time>2026-05-03T10:01:38.513Z</time></trkpt><trkpt lat="42.2897848" lon="13.786663"><ele>352.0</ele><time>2026-05-03T10:01:39.508Z</time></trkpt><trkpt lat="42.2896854" lon="13.7867278"><ele>352.0</ele><time>2026-05-03T10:01:40.508Z</time></trkpt><trkpt lat="42.2895849" lon="13.7867955"><ele>352.75</ele><time>2026-05-03T10:01:41.507Z</time></trkpt><trkpt lat="42.2894815" lon="13.786875"><ele>353.5</ele><time>2026-05-03T10:01:42.507Z</time></trkpt><trkpt lat="42.2893741" lon="13.7869538"><ele>354.25</ele><time>2026-05-03T10:01:43.512Z</time></trkpt><trkpt lat="42.2892622" lon="13.7870322"><ele>355.0</ele><time>2026-05-03T10:01:44.521Z</time></trkpt><trkpt lat="42.2891464" lon="13.7871173"><ele>355.0</ele><time>2026-05-03T10:01:45.507Z</time></trkpt><trkpt lat="42.2890344" lon="13.7872059"><ele>355.0</ele><time>2026-05-03T10:01:46.515Z</time></trkpt><trkpt lat="42.2889301" lon="13.787303"><ele>355.0</ele><time>2026-05-03T10:01:47.515Z</time></trkpt><trkpt lat="42.2888346" lon="13.7874045"><ele>355.0</ele><time>2026-05-03T10:01:48.506Z</time></trkpt><trkpt lat="42.2887281" lon="13.7875052"><ele>355.0</ele><time>2026-05-03T10:01:49.522Z</time></trkpt><trkpt lat="42.2886106" lon="13.7876004"><ele>355.0</ele><time>2026-05-03T10:01:50.514Z</time></trkpt><trkpt lat="42.2884955" lon="13.7876915"><ele>355.0</ele><time>2026-05-03T10:01:51.517Z</time></trkpt><trkpt lat="42.2883915" lon="13.7877748"><ele>355.0</ele><time>2026-05-03T10:01:52.503Z</time></trkpt><trkpt lat="42.2882928" lon="13.7878551"><ele>356.0</ele><time>2026-05-03T10:01:53.515Z</time></trkpt><trkpt lat="42.2881921" lon="13.7879341"><ele>357.0</ele><time>2026-05-03T10:01:54.508Z</time></trkpt><trkpt lat="42.2880892" lon="13.7879993"><ele>358.0</ele><time>2026-05-03T10:01:55.512Z</time></trkpt><trkpt lat="42.2879954" lon="13.7880425"><ele>359.0</ele><time>2026-05-03T10:01:56.5Z</time></trkpt><trkpt lat="42.2878988" lon="13.7880634"><ele>360.0</ele><time>2026-05-03T10:01:57.503Z</time></trkpt><trkpt lat="42.2877974" lon="13.7880769"><ele>360.4</ele><time>2026-05-03T10:01:58.507Z</time></trkpt><trkpt lat="42.2876995" lon="13.7881041"><ele>360.8</ele><time>2026-05-03T10:01:59.515Z</time></trkpt><trkpt lat="42.2875967" lon="13.788152"><ele>361.20000000000005</ele><time>2026-05-03T10:02:00.514Z</time></trkpt><trkpt lat="42.2874966" lon="13.7882046"><ele>361.6</ele><time>2026-05-03T10:02:01.518Z</time></trkpt><trkpt lat="42.2873948" lon="13.7882523"><ele>362.0</ele><time>2026-05-03T10:02:02.507Z</time></trkpt><trkpt lat="42.2873035" lon="13.7882845"><ele>362.0</ele><time>2026-05-03T10:02:03.507Z</time></trkpt><trkpt lat="42.2872145" lon="13.788316"><ele>362.0</ele><time>2026-05-03T10:02:04.506Z</time></trkpt><trkpt lat="42.2871253" lon="13.7883641"><ele>362.0</ele><time>2026-05-03T10:02:05.511Z</time></trkpt><trkpt lat="42.2870327" lon="13.7884276"><ele>362.0</ele><time>2026-05-03T10:02:06.504Z</time></trkpt><trkpt lat="42.2869372" lon="13.7884909"><ele>362.0</ele><time>2026-05-03T10:02:07.515Z</time></trkpt><trkpt lat="42.2868499" lon="13.7885385"><ele>362.0</ele><time>2026-05-03T10:02:08.505Z</time></trkpt><trkpt lat="42.2867734" lon="13.7885906"><ele>362.0</ele><time>2026-05-03T10:02:09.505Z</time></trkpt><trkpt lat="42.2867054" lon="13.7886522"><ele>362.0</ele><time>2026-05-03T10:02:10.509Z</time></trkpt><trkpt lat="42.2866498" lon="13.7887019"><ele>362.0</ele><time>2026-05-03T10:02:11.501Z</time></trkpt><trkpt lat="42.2865821" lon="13.7887625"><ele>362.0</ele><time>2026-05-03T10:02:13.506Z</time></trkpt><trkpt lat="42.2865645" lon="13.7886435"><ele>362.0</ele><time>2026-05-03T10:02:17.504Z</time></trkpt><trkpt lat="42.2865894" lon="13.7885298"><ele>361.20000000000005</ele><time>2026-05-03T10:02:18.501Z</time></trkpt><trkpt lat="42.2866084" lon="13.7884116"><ele>360.4</ele><time>2026-05-03T10:02:19.513Z</time></trkpt><trkpt lat="42.2866157" lon="13.7882869"><ele>359.6</ele><time>2026-05-03T10:02:20.503Z</time></trkpt><trkpt lat="42.2866125" lon="13.7881451"><ele>358.79999999999995</ele><time>2026-05-03T10:02:21.508Z</time></trkpt><trkpt lat="42.2866051" lon="13.7879826"><ele>358.0</ele><time>2026-05-03T10:02:22.506Z</time></trkpt><trkpt lat="42.2865897" lon="13.7878078"><ele>356.75</ele><time>2026-05-03T10:02:23.512Z</time></trkpt><trkpt lat="42.2865745" lon="13.7876314"><ele>355.5</ele><time>2026-05-03T10:02:24.506Z</time></trkpt><trkpt lat="42.2865539" lon="13.7874482"><ele>354.25</ele><time>2026-05-03T10:02:25.513Z</time></trkpt><trkpt lat="42.2865308" lon="13.7872575"><ele>353.0</ele><time>2026-05-03T10:02:26.51Z</time></trkpt><trkpt lat="42.286515" lon="13.7870366"><ele>351.0</ele><time>2026-05-03T10:02:27.51Z</time></trkpt><trkpt lat="42.2864919" lon="13.786826"><ele>349.0</ele><time>2026-05-03T10:02:28.505Z</time></trkpt><trkpt lat="42.2864735" lon="13.7866095"><ele>347.0</ele><time>2026-05-03T10:02:29.516Z</time></trkpt><trkpt lat="42.2864421" lon="13.7863951"><ele>346.0</ele><time>2026-05-03T10:02:30.511Z</time></trkpt><trkpt lat="42.2864056" lon="13.786195"><ele>345.0</ele><time>2026-05-03T10:02:31.505Z</time></trkpt><trkpt lat="42.2863667" lon="13.7859719"><ele>344.0</ele><time>2026-05-03T10:02:32.508Z</time></trkpt><trkpt lat="42.2863168" lon="13.7857589"><ele>343.6666666666667</ele><time>2026-05-03T10:02:33.503Z</time></trkpt><trkpt lat="42.2862733" lon="13.7855417"><ele>343.3333333333333</ele><time>2026-05-03T10:02:34.504Z</time></trkpt><trkpt lat="42.2862514" lon="13.7853267"><ele>343.0</ele><time>2026-05-03T10:02:35.505Z</time></trkpt><trkpt lat="42.2862308" lon="13.7850843"><ele>343.0</ele><time>2026-05-03T10:02:36.512Z</time></trkpt><trkpt lat="42.2862116" lon="13.7848684"><ele>343.0</ele><time>2026-05-03T10:02:37.508Z</time></trkpt><trkpt lat="42.2861811" lon="13.7846443"><ele>343.0</ele><time>2026-05-03T10:02:38.513Z</time></trkpt><trkpt lat="42.2861579" lon="13.7844294"><ele>343.66666666666663</ele><time>2026-05-03T10:02:39.508Z</time></trkpt><trkpt lat="42.2861338" lon="13.7841968"><ele>344.3333333333333</ele><time>2026-05-03T10:02:40.5Z</time></trkpt><trkpt lat="42.2861199" lon="13.7839747"><ele>345.0</ele><time>2026-05-03T10:02:41.502Z</time></trkpt><trkpt lat="42.2860872" lon="13.7837262"><ele>345.3333333333333</ele><time>2026-05-03T10:02:42.512Z</time></trkpt><trkpt lat="42.2860611" lon="13.7834969"><ele>345.66666666666663</ele><time>2026-05-03T10:02:43.504Z</time></trkpt><trkpt lat="42.2860414" lon="13.7832632"><ele>346.0</ele><time>2026-05-03T10:02:44.512Z</time></trkpt><trkpt lat="42.2860102" lon="13.7830394"><ele>346.0</ele><time>2026-05-03T10:02:45.509Z</time></trkpt><trkpt lat="42.285973" lon="13.7828286"><ele>346.0</ele><time>2026-05-03T10:02:46.511Z</time></trkpt><trkpt lat="42.2859429" lon="13.7826164"><ele>346.0</ele><time>2026-05-03T10:02:47.508Z</time></trkpt><trkpt lat="42.2858871" lon="13.7823976"><ele>345.0</ele><time>2026-05-03T10:02:48.52Z</time></trkpt><trkpt lat="42.2858146" lon="13.7821587"><ele>344.0</ele><time>2026-05-03T10:02:49.506Z</time></trkpt><trkpt lat="42.2857391" lon="13.7819445"><ele>343.0</ele><time>2026-05-03T10:02:50.514Z</time></trkpt><trkpt lat="42.285661" lon="13.7817286"><ele>343.3333333333333</ele><time>2026-05-03T10:02:51.511Z</time></trkpt><trkpt lat="42.2855591" lon="13.7815264"><ele>343.6666666666667</ele><time>2026-05-03T10:02:52.516Z</time></trkpt><trkpt lat="42.2854618" lon="13.7813154"><ele>344.0</ele><time>2026-05-03T10:02:53.512Z</time></trkpt><trkpt lat="42.2853592" lon="13.7810826"><ele>343.6666666666667</ele><time>2026-05-03T10:02:54.516Z</time></trkpt><trkpt lat="42.2852559" lon="13.7808465"><ele>343.3333333333333</ele><time>2026-05-03T10:02:55.519Z</time></trkpt><trkpt lat="42.2851746" lon="13.7806188"><ele>343.0</ele><time>2026-05-03T10:02:56.522Z</time></trkpt><trkpt lat="42.2850748" lon="13.7803826"><ele>343.0</ele><time>2026-05-03T10:02:57.52Z</time></trkpt><trkpt lat="42.2849915" lon="13.7801725"><ele>343.0</ele><time>2026-05-03T10:02:58.516Z</time></trkpt><trkpt lat="42.2849092" lon="13.7799473"><ele>343.0</ele><time>2026-05-03T10:02:59.518Z</time></trkpt><trkpt lat="42.2848166" lon="13.7797044"><ele>343.0</ele><time>2026-05-03T10:03:00.512Z</time></trkpt><trkpt lat="42.284719" lon="13.7794876"><ele>343.0</ele><time>2026-05-03T10:03:01.517Z</time></trkpt><trkpt lat="42.284621" lon="13.7792607"><ele>343.0</ele><time>2026-05-03T10:03:02.517Z</time></trkpt><trkpt lat="42.2845248" lon="13.7790452"><ele>343.0</ele><time>2026-05-03T10:03:03.519Z</time></trkpt><trkpt lat="42.2844363" lon="13.7788122"><ele>343.0</ele><time>2026-05-03T10:03:04.517Z</time></trkpt><trkpt lat="42.2843458" lon="13.7786074"><ele>343.0</ele><time>2026-05-03T10:03:05.518Z</time></trkpt><trkpt lat="42.2842581" lon="13.7783843"><ele>343.3333333333333</ele><time>2026-05-03T10:03:06.519Z</time></trkpt><trkpt lat="42.2841751" lon="13.7781652"><ele>343.6666666666667</ele><time>2026-05-03T10:03:07.516Z</time></trkpt><trkpt lat="42.2840832" lon="13.777943"><ele>344.0</ele><time>2026-05-03T10:03:08.52Z</time></trkpt><trkpt lat="42.28399" lon="13.7777242"><ele>344.33333333333337</ele><time>2026-05-03T10:03:09.526Z</time></trkpt><trkpt lat="42.2839046" lon="13.7774978"><ele>344.6666666666667</ele><time>2026-05-03T10:03:10.515Z</time></trkpt><trkpt lat="42.283819" lon="13.7772648"><ele>345.0</ele><time>2026-05-03T10:03:11.52Z</time></trkpt><trkpt lat="42.2837317" lon="13.7770564"><ele>345.0</ele><time>2026-05-03T10:03:12.513Z</time></trkpt><trkpt lat="42.2836402" lon="13.7768417"><ele>345.0</ele><time>2026-05-03T10:03:13.507Z</time></trkpt><trkpt lat="42.2835501" lon="13.776624"><ele>345.0</ele><time>2026-05-03T10:03:14.521Z</time></trkpt><trkpt lat="42.2834673" lon="13.7763987"><ele>345.0</ele><time>2026-05-03T10:03:15.516Z</time></trkpt><trkpt lat="42.2833745" lon="13.7761864"><ele>345.0</ele><time>2026-05-03T10:03:16.521Z</time></trkpt><trkpt lat="42.2832895" lon="13.7759667"><ele>345.0</ele><time>2026-05-03T10:03:17.521Z</time></trkpt><trkpt lat="42.2831958" lon="13.7757606"><ele>345.0</ele><time>2026-05-03T10:03:18.514Z</time></trkpt><trkpt lat="42.2831184" lon="13.7755676"><ele>345.0</ele><time>2026-05-03T10:03:19.522Z</time></trkpt><trkpt lat="42.2830492" lon="13.7753716"><ele>345.0</ele><time>2026-05-03T10:03:20.513Z</time></trkpt><trkpt lat="42.2829665" lon="13.7751877"><ele>346.0</ele><time>2026-05-03T10:03:21.515Z</time></trkpt><trkpt lat="42.282865" lon="13.7750122"><ele>347.0</ele><time>2026-05-03T10:03:22.51Z</time></trkpt><trkpt lat="42.2827436" lon="13.7748537"><ele>348.0</ele><time>2026-05-03T10:03:23.508Z</time></trkpt><trkpt lat="42.2826172" lon="13.7747426"><ele>348.0</ele><time>2026-05-03T10:03:24.496Z</time></trkpt><trkpt lat="42.2824666" lon="13.7746555"><ele>348.0</ele><time>2026-05-03T10:03:25.505Z</time></trkpt><trkpt lat="42.2823109" lon="13.7746047"><ele>348.0</ele><time>2026-05-03T10:03:26.501Z</time></trkpt><trkpt lat="42.2821407" lon="13.774556"><ele>348.3333333333333</ele><time>2026-05-03T10:03:27.508Z</time></trkpt><trkpt lat="42.2819689" lon="13.7745256"><ele>348.66666666666663</ele><time>2026-05-03T10:03:28.507Z</time></trkpt><trkpt lat="42.281797" lon="13.7745098"><ele>349.0</ele><time>2026-05-03T10:03:29.498Z</time></trkpt><trkpt lat="42.2816623" lon="13.7744389"><ele>349.5</ele><time>2026-05-03T10:03:30.508Z</time></trkpt><trkpt lat="42.2815524" lon="13.7743113"><ele>350.0</ele><time>2026-05-03T10:03:31.508Z</time></trkpt><trkpt lat="42.2814573" lon="13.7741743"><ele>350.5</ele><time>2026-05-03T10:03:32.496Z</time></trkpt><trkpt lat="42.2813504" lon="13.7740223"><ele>351.0</ele><time>2026-05-03T10:03:33.503Z</time></trkpt><trkpt lat="42.2812318" lon="13.7738667"><ele>351.0</ele><time>2026-05-03T10:03:34.506Z</time></trkpt><trkpt lat="42.2811111" lon="13.7737144"><ele>351.0</ele><time>2026-05-03T10:03:35.505Z</time></trkpt><trkpt lat="42.2809857" lon="13.7735497"><ele>351.0</ele><time>2026-05-03T10:03:36.506Z</time></trkpt><trkpt lat="42.2808745" lon="13.7733621"><ele>353.3333333333333</ele><time>2026-05-03T10:03:37.506Z</time></trkpt><trkpt lat="42.2807808" lon="13.7731784"><ele>355.66666666666663</ele><time>2026-05-03T10:03:38.502Z</time></trkpt><trkpt lat="42.2806995" lon="13.7729924"><ele>358.0</ele><time>2026-05-03T10:03:39.512Z</time></trkpt><trkpt lat="42.2806269" lon="13.7727975"><ele>357.0</ele><time>2026-05-03T10:03:40.506Z</time></trkpt><trkpt lat="42.2805097" lon="13.7726123"><ele>356.0</ele><time>2026-05-03T10:03:41.515Z</time></trkpt><trkpt lat="42.2804149" lon="13.7724313"><ele>355.0</ele><time>2026-05-03T10:03:42.506Z</time></trkpt><trkpt lat="42.2803531" lon="13.7722793"><ele>355.0</ele><time>2026-05-03T10:03:43.508Z</time></trkpt><trkpt lat="42.2802595" lon="13.7721641"><ele>355.0</ele><time>2026-05-03T10:03:44.509Z</time></trkpt><trkpt lat="42.2801431" lon="13.772059"><ele>355.0</ele><time>2026-05-03T10:03:45.504Z</time></trkpt><trkpt lat="42.2800006" lon="13.7719825"><ele>355.0</ele><time>2026-05-03T10:03:46.507Z</time></trkpt><trkpt lat="42.2798706" lon="13.7718963"><ele>355.5</ele><time>2026-05-03T10:03:47.512Z</time></trkpt><trkpt lat="42.2797797" lon="13.7717971"><ele>356.0</ele><time>2026-05-03T10:03:48.501Z</time></trkpt><trkpt lat="42.2797164" lon="13.7716568"><ele>356.5</ele><time>2026-05-03T10:03:49.497Z</time></trkpt><trkpt lat="42.2796453" lon="13.7715056"><ele>357.0</ele><time>2026-05-03T10:03:50.498Z</time></trkpt><trkpt lat="42.2795896" lon="13.7713201"><ele>357.0</ele><time>2026-05-03T10:03:51.508Z</time></trkpt><trkpt lat="42.27954" lon="13.7711238"><ele>357.0</ele><time>2026-05-03T10:03:52.513Z</time></trkpt><trkpt lat="42.2794801" lon="13.7709505"><ele>357.0</ele><time>2026-05-03T10:03:53.503Z</time></trkpt><trkpt lat="42.2794126" lon="13.7707568"><ele>357.5</ele><time>2026-05-03T10:03:54.51Z</time></trkpt><trkpt lat="42.279351" lon="13.7705728"><ele>358.0</ele><time>2026-05-03T10:03:55.515Z</time></trkpt><trkpt lat="42.2792728" lon="13.7703932"><ele>358.5</ele><time>2026-05-03T10:03:56.514Z</time></trkpt><trkpt lat="42.2792025" lon="13.7702478"><ele>359.0</ele><time>2026-05-03T10:03:57.508Z</time></trkpt><trkpt lat="42.279155" lon="13.7701211"><ele>359.5</ele><time>2026-05-03T10:03:58.505Z</time></trkpt><trkpt lat="42.2791091" lon="13.7699753"><ele>360.0</ele><time>2026-05-03T10:03:59.506Z</time></trkpt><trkpt lat="42.2790537" lon="13.7698174"><ele>360.5</ele><time>2026-05-03T10:04:00.507Z</time></trkpt><trkpt lat="42.2790134" lon="13.7696795"><ele>361.0</ele><time>2026-05-03T10:04:01.511Z</time></trkpt><trkpt lat="42.2789616" lon="13.7695648"><ele>360.8333333333333</ele><time>2026-05-03T10:04:02.506Z</time></trkpt><trkpt lat="42.2789219" lon="13.7694678"><ele>360.66666666666663</ele><time>2026-05-03T10:04:03.509Z</time></trkpt><trkpt lat="42.2788931" lon="13.7693882"><ele>360.5</ele><time>2026-05-03T10:04:04.49Z</time></trkpt><trkpt lat="42.2788638" lon="13.7692997"><ele>360.3333333333333</ele><time>2026-05-03T10:04:06.501Z</time></trkpt><trkpt lat="42.278777" lon="13.7693053"><ele>360.1666666666667</ele><time>2026-05-03T10:04:08.511Z</time></trkpt><trkpt lat="42.2787066" lon="13.7693569"><ele>360.0</ele><time>2026-05-03T10:04:09.503Z</time></trkpt><trkpt lat="42.2786244" lon="13.7694385"><ele>360.0</ele><time>2026-05-03T10:04:10.507Z</time></trkpt><trkpt lat="42.2785283" lon="13.7695425"><ele>360.0</ele><time>2026-05-03T10:04:11.496Z</time></trkpt><trkpt lat="42.2784211" lon="13.7696602"><ele>360.0</ele><time>2026-05-03T10:04:12.493Z</time></trkpt><trkpt lat="42.2783071" lon="13.7697962"><ele>360.0</ele><time>2026-05-03T10:04:13.499Z</time></trkpt><trkpt lat="42.2781436" lon="13.7699821"><ele>359.3333333333333</ele><time>2026-05-03T10:04:14.494Z</time></trkpt><trkpt lat="42.2779982" lon="13.7701507"><ele>358.66666666666663</ele><time>2026-05-03T10:04:15.502Z</time></trkpt><trkpt lat="42.2778716" lon="13.7702905"><ele>358.0</ele><time>2026-05-03T10:04:16.496Z</time></trkpt><trkpt lat="42.2777604" lon="13.7704206"><ele>357.0</ele><time>2026-05-03T10:04:17.501Z</time></trkpt><trkpt lat="42.2776606" lon="13.7705478"><ele>356.0</ele><time>2026-05-03T10:04:18.492Z</time></trkpt><trkpt lat="42.2775654" lon="13.7706386"><ele>355.0</ele><time>2026-05-03T10:04:19.5Z</time></trkpt><trkpt lat="42.2774655" lon="13.7706806"><ele>354.0</ele><time>2026-05-03T10:04:20.489Z</time></trkpt><trkpt lat="42.2773552" lon="13.770729"><ele>352.5</ele><time>2026-05-03T10:04:21.494Z</time></trkpt><trkpt lat="42.2772127" lon="13.7707013"><ele>351.0</ele><time>2026-05-03T10:04:22.493Z</time></trkpt><trkpt lat="42.2770677" lon="13.7706726"><ele>349.5</ele><time>2026-05-03T10:04:23.495Z</time></trkpt><trkpt lat="42.2769119" lon="13.770663"><ele>348.0</ele><time>2026-05-03T10:04:24.504Z</time></trkpt><trkpt lat="42.2767505" lon="13.7706468"><ele>348.0</ele><time>2026-05-03T10:04:25.505Z</time></trkpt><trkpt lat="42.2765814" lon="13.7706259"><ele>348.0</ele><time>2026-05-03T10:04:26.501Z</time></trkpt><trkpt lat="42.2764115" lon="13.7705961"><ele>348.0</ele><time>2026-05-03T10:04:27.503Z</time></trkpt><trkpt lat="42.2762479" lon="13.7705754"><ele>346.6666666666667</ele><time>2026-05-03T10:04:28.507Z</time></trkpt><trkpt lat="42.2760822" lon="13.7705498"><ele>345.33333333333337</ele><time>2026-05-03T10:04:29.505Z</time></trkpt><trkpt lat="42.2759313" lon="13.7705226"><ele>344.0</ele><time>2026-05-03T10:04:30.504Z</time></trkpt><trkpt lat="42.2757788" lon="13.7704909"><ele>344.0</ele><time>2026-05-03T10:04:31.513Z</time></trkpt><trkpt lat="42.2756365" lon="13.7704643"><ele>344.0</ele><time>2026-05-03T10:04:32.506Z</time></trkpt><trkpt lat="42.2754878" lon="13.7704508"><ele>344.0</ele><time>2026-05-03T10:04:33.498Z</time></trkpt><trkpt lat="42.2753532" lon="13.7704672"><ele>344.0</ele><time>2026-05-03T10:04:34.506Z</time></trkpt><trkpt lat="42.2752122" lon="13.7705077"><ele>346.0</ele><time>2026-05-03T10:04:35.508Z</time></trkpt><trkpt lat="42.2750767" lon="13.7705622"><ele>348.0</ele><time>2026-05-03T10:04:36.505Z</time></trkpt><trkpt lat="42.2749659" lon="13.7706286"><ele>350.0</ele><time>2026-05-03T10:04:37.49Z</time></trkpt><trkpt lat="42.2748828" lon="13.7707338"><ele>352.0</ele><time>2026-05-03T10:04:38.495Z</time></trkpt><trkpt lat="42.2748418" lon="13.7708704"><ele>353.25</ele><time>2026-05-03T10:04:39.502Z</time></trkpt><trkpt lat="42.2748175" lon="13.7710309"><ele>354.5</ele><time>2026-05-03T10:04:40.501Z</time></trkpt><trkpt lat="42.2747872" lon="13.7712013"><ele>355.75</ele><time>2026-05-03T10:04:41.501Z</time></trkpt><trkpt lat="42.274755" lon="13.7713867"><ele>357.0</ele><time>2026-05-03T10:04:42.496Z</time></trkpt><trkpt lat="42.2747279" lon="13.7716025"><ele>357.0</ele><time>2026-05-03T10:04:43.494Z</time></trkpt><trkpt lat="42.2746996" lon="13.7717999"><ele>357.0</ele><time>2026-05-03T10:04:44.493Z</time></trkpt><trkpt lat="42.2746652" lon="13.7719841"><ele>357.0</ele><time>2026-05-03T10:04:45.494Z</time></trkpt><trkpt lat="42.2746346" lon="13.7721485"><ele>357.0</ele><time>2026-05-03T10:04:46.494Z</time></trkpt><trkpt lat="42.2746004" lon="13.7723097"><ele>356.25</ele><time>2026-05-03T10:04:47.504Z</time></trkpt><trkpt lat="42.2745297" lon="13.7724658"><ele>355.5</ele><time>2026-05-03T10:04:48.494Z</time></trkpt><trkpt lat="42.2744426" lon="13.7726315"><ele>354.75</ele><time>2026-05-03T10:04:49.5Z</time></trkpt><trkpt lat="42.274328" lon="13.772772"><ele>354.0</ele><time>2026-05-03T10:04:50.497Z</time></trkpt><trkpt lat="42.2742211" lon="13.7729202"><ele>353.3333333333333</ele><time>2026-05-03T10:04:51.501Z</time></trkpt><trkpt lat="42.2740932" lon="13.7730631"><ele>352.66666666666663</ele><time>2026-05-03T10:04:52.496Z</time></trkpt><trkpt lat="42.2739706" lon="13.7732114"><ele>352.0</ele><time>2026-05-03T10:04:53.499Z</time></trkpt><trkpt lat="42.2738542" lon="13.7733666"><ele>352.66666666666663</ele><time>2026-05-03T10:04:54.496Z</time></trkpt><trkpt lat="42.2737308" lon="13.7735014"><ele>353.3333333333333</ele><time>2026-05-03T10:04:55.492Z</time></trkpt><trkpt lat="42.2736128" lon="13.7736465"><ele>354.0</ele><time>2026-05-03T10:04:56.499Z</time></trkpt><trkpt lat="42.2734811" lon="13.7737776"><ele>354.0</ele><time>2026-05-03T10:04:57.497Z</time></trkpt><trkpt lat="42.2733537" lon="13.7739078"><ele>354.0</ele><time>2026-05-03T10:04:58.498Z</time></trkpt><trkpt lat="42.2732441" lon="13.7740664"><ele>354.0</ele><time>2026-05-03T10:04:59.498Z</time></trkpt><trkpt lat="42.2731375" lon="13.7742288"><ele>355.0</ele><time>2026-05-03T10:05:00.504Z</time></trkpt><trkpt lat="42.2730311" lon="13.7744029"><ele>356.0</ele><time>2026-05-03T10:05:01.493Z</time></trkpt><trkpt lat="42.2729296" lon="13.7745864"><ele>357.0</ele><time>2026-05-03T10:05:02.502Z</time></trkpt><trkpt lat="42.2728304" lon="13.7747813"><ele>357.0</ele><time>2026-05-03T10:05:03.493Z</time></trkpt><trkpt lat="42.2727283" lon="13.7749521"><ele>357.0</ele><time>2026-05-03T10:05:04.501Z</time></trkpt><trkpt lat="42.2726327" lon="13.775107"><ele>357.0</ele><time>2026-05-03T10:05:05.501Z</time></trkpt><trkpt lat="42.2725408" lon="13.7752413"><ele>357.0</ele><time>2026-05-03T10:05:06.495Z</time></trkpt><trkpt lat="42.2724632" lon="13.7753484"><ele>356.8</ele><time>2026-05-03T10:05:07.49Z</time></trkpt><trkpt lat="42.2723933" lon="13.7754566"><ele>356.6</ele><time>2026-05-03T10:05:08.499Z</time></trkpt><trkpt lat="42.2723329" lon="13.7755883"><ele>356.40000000000003</ele><time>2026-05-03T10:05:09.491Z</time></trkpt><trkpt lat="42.2722831" lon="13.7757146"><ele>356.20000000000005</ele><time>2026-05-03T10:05:10.497Z</time></trkpt><trkpt lat="42.2722547" lon="13.7758575"><ele>356.0</ele><time>2026-05-03T10:05:11.497Z</time></trkpt><trkpt lat="42.272223" lon="13.7760049"><ele>354.33333333333337</ele><time>2026-05-03T10:05:12.498Z</time></trkpt><trkpt lat="42.2722055" lon="13.7761911"><ele>352.6666666666667</ele><time>2026-05-03T10:05:13.494Z</time></trkpt><trkpt lat="42.2721938" lon="13.7763946"><ele>351.0</ele><time>2026-05-03T10:05:14.491Z</time></trkpt><trkpt lat="42.2721865" lon="13.7766322"><ele>350.0</ele><time>2026-05-03T10:05:15.5Z</time></trkpt><trkpt lat="42.2721684" lon="13.7768671"><ele>349.0</ele><time>2026-05-03T10:05:16.494Z</time></trkpt><trkpt lat="42.2721376" lon="13.7770896"><ele>348.0</ele><time>2026-05-03T10:05:17.509Z</time></trkpt><trkpt lat="42.2721196" lon="13.7773032"><ele>348.0</ele><time>2026-05-03T10:05:18.501Z</time></trkpt><trkpt lat="42.2721005" lon="13.7775118"><ele>348.0</ele><time>2026-05-03T10:05:19.503Z</time></trkpt><trkpt lat="42.2720783" lon="13.7777232"><ele>348.0</ele><time>2026-05-03T10:05:20.496Z</time></trkpt><trkpt lat="42.2720653" lon="13.7779258"><ele>347.3333333333333</ele><time>2026-05-03T10:05:21.505Z</time></trkpt><trkpt lat="42.2720388" lon="13.7781334"><ele>346.66666666666663</ele><time>2026-05-03T10:05:22.509Z</time></trkpt><trkpt lat="42.27202" lon="13.7783537"><ele>346.0</ele><time>2026-05-03T10:05:23.51Z</time></trkpt><trkpt lat="42.2719961" lon="13.7785831"><ele>345.0</ele><time>2026-05-03T10:05:24.505Z</time></trkpt><trkpt lat="42.2719702" lon="13.7788039"><ele>344.0</ele><time>2026-05-03T10:05:25.509Z</time></trkpt><trkpt lat="42.2719485" lon="13.7790175"><ele>343.0</ele><time>2026-05-03T10:05:26.508Z</time></trkpt><trkpt lat="42.2719246" lon="13.7792145"><ele>342.25</ele><time>2026-05-03T10:05:27.501Z</time></trkpt><trkpt lat="42.2718912" lon="13.7793961"><ele>341.5</ele><time>2026-05-03T10:05:28.507Z</time></trkpt><trkpt lat="42.2718663" lon="13.7795646"><ele>340.75</ele><time>2026-05-03T10:05:29.5Z</time></trkpt><trkpt lat="42.2718198" lon="13.7796988"><ele>340.0</ele><time>2026-05-03T10:05:30.509Z</time></trkpt><trkpt lat="42.2717596" lon="13.7798175"><ele>340.0</ele><time>2026-05-03T10:05:31.5Z</time></trkpt><trkpt lat="42.2716857" lon="13.7799571"><ele>340.0</ele><time>2026-05-03T10:05:32.505Z</time></trkpt><trkpt lat="42.2715955" lon="13.7800994"><ele>340.0</ele><time>2026-05-03T10:05:33.51Z</time></trkpt><trkpt lat="42.2715026" lon="13.7802382"><ele>340.0</ele><time>2026-05-03T10:05:34.511Z</time></trkpt><trkpt lat="42.2714198" lon="13.7803835"><ele>340.25</ele><time>2026-05-03T10:05:35.503Z</time></trkpt><trkpt lat="42.2713248" lon="13.7805007"><ele>340.5</ele><time>2026-05-03T10:05:36.504Z</time></trkpt><trkpt lat="42.2712391" lon="13.7806128"><ele>340.75</ele><time>2026-05-03T10:05:37.503Z</time></trkpt><trkpt lat="42.2711591" lon="13.7807318"><ele>341.0</ele><time>2026-05-03T10:05:38.504Z</time></trkpt><trkpt lat="42.2711004" lon="13.7808501"><ele>341.0</ele><time>2026-05-03T10:05:39.505Z</time></trkpt><trkpt lat="42.2710662" lon="13.7809388"><ele>341.0</ele><time>2026-05-03T10:05:40.496Z</time></trkpt><trkpt lat="42.271009" lon="13.7810499"><ele>341.0</ele><time>2026-05-03T10:05:42.492Z</time></trkpt><trkpt lat="42.2709327" lon="13.7810991"><ele>341.0</ele><time>2026-05-03T10:05:45.5Z</time></trkpt><trkpt lat="42.2708507" lon="13.7812164"><ele>341.0</ele><time>2026-05-03T10:05:47.5Z</time></trkpt><trkpt lat="42.2708014" lon="13.7813031"><ele>339.75</ele><time>2026-05-03T10:05:48.499Z</time></trkpt><trkpt lat="42.2707407" lon="13.7814004"><ele>338.5</ele><time>2026-05-03T10:05:49.493Z</time></trkpt><trkpt lat="42.2706538" lon="13.7814911"><ele>337.25</ele><time>2026-05-03T10:05:50.501Z</time></trkpt><trkpt lat="42.2705357" lon="13.781539"><ele>336.0</ele><time>2026-05-03T10:05:51.501Z</time></trkpt><trkpt lat="42.2704088" lon="13.7815962"><ele>336.0</ele><time>2026-05-03T10:05:52.497Z</time></trkpt><trkpt lat="42.2702762" lon="13.7816786"><ele>336.0</ele><time>2026-05-03T10:05:53.499Z</time></trkpt><trkpt lat="42.2701213" lon="13.7817435"><ele>336.0</ele><time>2026-05-03T10:05:54.497Z</time></trkpt><trkpt lat="42.2699908" lon="13.7818137"><ele>336.0</ele><time>2026-05-03T10:05:55.496Z</time></trkpt><trkpt lat="42.2698851" lon="13.7819112"><ele>335.25</ele><time>2026-05-03T10:05:56.501Z</time></trkpt><trkpt lat="42.2697815" lon="13.7819747"><ele>334.5</ele><time>2026-05-03T10:05:57.505Z</time></trkpt><trkpt lat="42.26967" lon="13.7820211"><ele>333.75</ele><time>2026-05-03T10:05:58.5Z</time></trkpt><trkpt lat="42.2695556" lon="13.7820558"><ele>333.0</ele><time>2026-05-03T10:05:59.502Z</time></trkpt><trkpt lat="42.269456" lon="13.7821283"><ele>334.2</ele><time>2026-05-03T10:06:00.499Z</time></trkpt><trkpt lat="42.2693857" lon="13.7822043"><ele>335.4</ele><time>2026-05-03T10:06:01.493Z</time></trkpt><trkpt lat="42.2693367" lon="13.7823118"><ele>336.59999999999997</ele><time>2026-05-03T10:06:02.498Z</time></trkpt><trkpt lat="42.2692988" lon="13.7824445"><ele>337.79999999999995</ele><time>2026-05-03T10:06:03.496Z</time></trkpt><trkpt lat="42.2692742" lon="13.7826104"><ele>339.0</ele><time>2026-05-03T10:06:04.503Z</time></trkpt><trkpt lat="42.2692588" lon="13.7827921"><ele>339.0</ele><time>2026-05-03T10:06:05.494Z</time></trkpt><trkpt lat="42.269236" lon="13.782979"><ele>339.0</ele><time>2026-05-03T10:06:06.501Z</time></trkpt><trkpt lat="42.269196" lon="13.7831708"><ele>339.0</ele><time>2026-05-03T10:06:07.491Z</time></trkpt><trkpt lat="42.2691582" lon="13.7833447"><ele>339.0</ele><time>2026-05-03T10:06:08.505Z</time></trkpt><trkpt lat="42.2691155" lon="13.7835414"><ele>339.25</ele><time>2026-05-03T10:06:09.498Z</time></trkpt><trkpt lat="42.2690501" lon="13.7837096"><ele>339.5</ele><time>2026-05-03T10:06:10.502Z</time></trkpt><trkpt lat="42.2689863" lon="13.7838755"><ele>339.75</ele><time>2026-05-03T10:06:11.503Z</time></trkpt><trkpt lat="42.2689183" lon="13.7840585"><ele>340.0</ele><time>2026-05-03T10:06:12.506Z</time></trkpt><trkpt lat="42.2688405" lon="13.784212"><ele>341.0</ele><time>2026-05-03T10:06:13.505Z</time></trkpt><trkpt lat="42.2687508" lon="13.7843671"><ele>342.0</ele><time>2026-05-03T10:06:14.507Z</time></trkpt><trkpt lat="42.2686583" lon="13.784536"><ele>343.0</ele><time>2026-05-03T10:06:15.509Z</time></trkpt><trkpt lat="42.2685452" lon="13.7846704"><ele>343.0</ele><time>2026-05-03T10:06:16.508Z</time></trkpt><trkpt lat="42.2684198" lon="13.7847845"><ele>343.0</ele><time>2026-05-03T10:06:17.514Z</time></trkpt><trkpt lat="42.268303" lon="13.7849406"><ele>343.0</ele><time>2026-05-03T10:06:18.508Z</time></trkpt><trkpt lat="42.2681614" lon="13.7850574"><ele>344.0</ele><time>2026-05-03T10:06:19.517Z</time></trkpt><trkpt lat="42.2680364" lon="13.7851869"><ele>345.0</ele><time>2026-05-03T10:06:20.505Z</time></trkpt><trkpt lat="42.2679129" lon="13.7852963"><ele>346.0</ele><time>2026-05-03T10:06:21.504Z</time></trkpt><trkpt lat="42.2677875" lon="13.7853916"><ele>347.0</ele><time>2026-05-03T10:06:22.502Z</time></trkpt><trkpt lat="42.2676634" lon="13.7854782"><ele>347.0</ele><time>2026-05-03T10:06:23.51Z</time></trkpt><trkpt lat="42.2675413" lon="13.7855735"><ele>347.0</ele><time>2026-05-03T10:06:24.505Z</time></trkpt><trkpt lat="42.2674365" lon="13.7857128"><ele>347.0</ele><time>2026-05-03T10:06:25.504Z</time></trkpt><trkpt lat="42.2673106" lon="13.7858412"><ele>347.0</ele><time>2026-05-03T10:06:26.507Z</time></trkpt><trkpt lat="42.2671934" lon="13.7859898"><ele>347.33333333333337</ele><time>2026-05-03T10:06:27.517Z</time></trkpt><trkpt lat="42.2670771" lon="13.7861117"><ele>347.6666666666667</ele><time>2026-05-03T10:06:28.508Z</time></trkpt><trkpt lat="42.2669579" lon="13.7862167"><ele>348.0</ele><time>2026-05-03T10:06:29.515Z</time></trkpt><trkpt lat="42.2668503" lon="13.7863828"><ele>348.0</ele><time>2026-05-03T10:06:30.509Z</time></trkpt><trkpt lat="42.2667332" lon="13.7865509"><ele>348.0</ele><time>2026-05-03T10:06:31.503Z</time></trkpt><trkpt lat="42.2666218" lon="13.7867163"><ele>348.0</ele><time>2026-05-03T10:06:32.512Z</time></trkpt><trkpt lat="42.2665103" lon="13.7868885"><ele>348.6666666666667</ele><time>2026-05-03T10:06:33.504Z</time></trkpt><trkpt lat="42.266412" lon="13.7870849"><ele>349.33333333333337</ele><time>2026-05-03T10:06:34.499Z</time></trkpt><trkpt lat="42.2663039" lon="13.7872493"><ele>350.0</ele><time>2026-05-03T10:06:35.509Z</time></trkpt><trkpt lat="42.2661972" lon="13.7874297"><ele>350.0</ele><time>2026-05-03T10:06:36.506Z</time></trkpt><trkpt lat="42.2661085" lon="13.7876495"><ele>350.0</ele><time>2026-05-03T10:06:37.514Z</time></trkpt><trkpt lat="42.2660187" lon="13.7878527"><ele>350.0</ele><time>2026-05-03T10:06:38.506Z</time></trkpt><trkpt lat="42.2658962" lon="13.7880366"><ele>350.0</ele><time>2026-05-03T10:06:39.512Z</time></trkpt><trkpt lat="42.2657861" lon="13.7882113"><ele>350.0</ele><time>2026-05-03T10:06:40.51Z</time></trkpt><trkpt lat="42.2656799" lon="13.7884009"><ele>350.0</ele><time>2026-05-03T10:06:41.507Z</time></trkpt><trkpt lat="42.2655757" lon="13.7885683"><ele>350.0</ele><time>2026-05-03T10:06:42.507Z</time></trkpt><trkpt lat="42.2654771" lon="13.7887418"><ele>350.0</ele><time>2026-05-03T10:06:43.511Z</time></trkpt><trkpt lat="42.2653912" lon="13.7889288"><ele>350.0</ele><time>2026-05-03T10:06:44.509Z</time></trkpt><trkpt lat="42.2652926" lon="13.7891025"><ele>350.0</ele><time>2026-05-03T10:06:45.512Z</time></trkpt><trkpt lat="42.2652137" lon="13.7892749"><ele>350.0</ele><time>2026-05-03T10:06:46.509Z</time></trkpt><trkpt lat="42.2651573" lon="13.7894695"><ele>350.0</ele><time>2026-05-03T10:06:47.514Z</time></trkpt><trkpt lat="42.2650991" lon="13.7896642"><ele>349.0</ele><time>2026-05-03T10:06:48.505Z</time></trkpt><trkpt lat="42.2650409" lon="13.7898607"><ele>348.0</ele><time>2026-05-03T10:06:49.514Z</time></trkpt><trkpt lat="42.2649577" lon="13.790057"><ele>347.0</ele><time>2026-05-03T10:06:50.511Z</time></trkpt><trkpt lat="42.2648854" lon="13.7902597"><ele>346.33333333333337</ele><time>2026-05-03T10:06:51.512Z</time></trkpt><trkpt lat="42.2648147" lon="13.7904642"><ele>345.6666666666667</ele><time>2026-05-03T10:06:52.508Z</time></trkpt><trkpt lat="42.264748" lon="13.7906793"><ele>345.0</ele><time>2026-05-03T10:06:53.514Z</time></trkpt><trkpt lat="42.2646836" lon="13.7908883"><ele>346.3333333333333</ele><time>2026-05-03T10:06:54.507Z</time></trkpt><trkpt lat="42.2646259" lon="13.7910969"><ele>347.66666666666663</ele><time>2026-05-03T10:06:55.515Z</time></trkpt><trkpt lat="42.2645579" lon="13.7912869"><ele>349.0</ele><time>2026-05-03T10:06:56.508Z</time></trkpt><trkpt lat="42.264491" lon="13.7914967"><ele>349.0</ele><time>2026-05-03T10:06:57.51Z</time></trkpt><trkpt lat="42.2644291" lon="13.7916982"><ele>349.0</ele><time>2026-05-03T10:06:58.511Z</time></trkpt><trkpt lat="42.2643725" lon="13.7918989"><ele>349.0</ele><time>2026-05-03T10:06:59.519Z</time></trkpt><trkpt lat="42.2643184" lon="13.7921277"><ele>348.0</ele><time>2026-05-03T10:07:00.514Z</time></trkpt><trkpt lat="42.264277" lon="13.7923482"><ele>347.0</ele><time>2026-05-03T10:07:01.51Z</time></trkpt><trkpt lat="42.2642316" lon="13.792538"><ele>346.0</ele><time>2026-05-03T10:07:02.514Z</time></trkpt><trkpt lat="42.264191" lon="13.7927644"><ele>345.3333333333333</ele><time>2026-05-03T10:07:03.512Z</time></trkpt><trkpt lat="42.2641279" lon="13.792964"><ele>344.6666666666667</ele><time>2026-05-03T10:07:04.512Z</time></trkpt><trkpt lat="42.2640564" lon="13.7931631"><ele>344.0</ele><time>2026-05-03T10:07:05.509Z</time></trkpt><trkpt lat="42.2639856" lon="13.7933513"><ele>344.6666666666667</ele><time>2026-05-03T10:07:06.513Z</time></trkpt><trkpt lat="42.2639073" lon="13.7935547"><ele>345.3333333333333</ele><time>2026-05-03T10:07:07.511Z</time></trkpt><trkpt lat="42.2638269" lon="13.7937379"><ele>346.0</ele><time>2026-05-03T10:07:08.504Z</time></trkpt><trkpt lat="42.2637714" lon="13.7939449"><ele>346.0</ele><time>2026-05-03T10:07:09.505Z</time></trkpt><trkpt lat="42.2637058" lon="13.7941264"><ele>346.0</ele><time>2026-05-03T10:07:10.498Z</time></trkpt><trkpt lat="42.2636392" lon="13.7942936"><ele>346.0</ele><time>2026-05-03T10:07:11.505Z</time></trkpt><trkpt lat="42.2635664" lon="13.7944709"><ele>346.0</ele><time>2026-05-03T10:07:12.496Z</time></trkpt><trkpt lat="42.263469" lon="13.7946465"><ele>346.0</ele><time>2026-05-03T10:07:13.5Z</time></trkpt><trkpt lat="42.2633617" lon="13.7948144"><ele>346.0</ele><time>2026-05-03T10:07:14.497Z</time></trkpt><trkpt lat="42.2632547" lon="13.7949369"><ele>346.0</ele><time>2026-05-03T10:07:15.501Z</time></trkpt><trkpt lat="42.2631841" lon="13.7950643"><ele>346.0</ele><time>2026-05-03T10:07:16.513Z</time></trkpt><trkpt lat="42.2631098" lon="13.7951818"><ele>346.0</ele><time>2026-05-03T10:07:17.505Z</time></trkpt><trkpt lat="42.2630211" lon="13.7953008"><ele>346.0</ele><time>2026-05-03T10:07:18.507Z</time></trkpt><trkpt lat="42.2629318" lon="13.7954146"><ele>346.0</ele><time>2026-05-03T10:07:19.508Z</time></trkpt><trkpt lat="42.2628607" lon="13.7955628"><ele>346.0</ele><time>2026-05-03T10:07:20.503Z</time></trkpt><trkpt lat="42.2627954" lon="13.7957034"><ele>346.0</ele><time>2026-05-03T10:07:21.516Z</time></trkpt><trkpt lat="42.2627282" lon="13.7958161"><ele>346.0</ele><time>2026-05-03T10:07:22.502Z</time></trkpt><trkpt lat="42.2626647" lon="13.7959223"><ele>346.0</ele><time>2026-05-03T10:07:23.504Z</time></trkpt><trkpt lat="42.2626125" lon="13.7960145"><ele>346.0</ele><time>2026-05-03T10:07:24.501Z</time></trkpt><trkpt lat="42.2625689" lon="13.7960979"><ele>346.0</ele><time>2026-05-03T10:07:25.504Z</time></trkpt><trkpt lat="42.2625199" lon="13.7962131"><ele>345.6</ele><time>2026-05-03T10:07:27.506Z</time></trkpt><trkpt lat="42.2625615" lon="13.7962772"><ele>345.20000000000005</ele><time>2026-05-03T10:07:33.504Z</time></trkpt><trkpt lat="42.2626788" lon="13.7963506"><ele>344.79999999999995</ele><time>2026-05-03T10:07:35.495Z</time></trkpt><trkpt lat="42.2627848" lon="13.796359"><ele>344.4</ele><time>2026-05-03T10:07:36.503Z</time></trkpt><trkpt lat="42.2629072" lon="13.7963645"><ele>344.0</ele><time>2026-05-03T10:07:37.49Z</time></trkpt><trkpt lat="42.2630448" lon="13.7963909"><ele>342.33333333333337</ele><time>2026-05-03T10:07:38.499Z</time></trkpt><trkpt lat="42.2631942" lon="13.7964261"><ele>340.6666666666667</ele><time>2026-05-03T10:07:39.492Z</time></trkpt><trkpt lat="42.263359" lon="13.7964615"><ele>339.0</ele><time>2026-05-03T10:07:40.501Z</time></trkpt><trkpt lat="42.2635635" lon="13.7965351"><ele>339.0</ele><time>2026-05-03T10:07:41.487Z</time></trkpt><trkpt lat="42.2637227" lon="13.796579"><ele>339.0</ele><time>2026-05-03T10:07:42.506Z</time></trkpt><trkpt lat="42.2638636" lon="13.7966076"><ele>339.0</ele><time>2026-05-03T10:07:43.496Z</time></trkpt><trkpt lat="42.2639911" lon="13.7966333"><ele>339.0</ele><time>2026-05-03T10:07:44.505Z</time></trkpt><trkpt lat="42.2641141" lon="13.7966559"><ele>338.2</ele><time>2026-05-03T10:07:45.5Z</time></trkpt><trkpt lat="42.2642263" lon="13.7966794"><ele>337.4</ele><time>2026-05-03T10:07:46.507Z</time></trkpt><trkpt lat="42.2643239" lon="13.7967236"><ele>336.6</ele><time>2026-05-03T10:07:47.501Z</time></trkpt><trkpt lat="42.2644089" lon="13.7967799"><ele>335.8</ele><time>2026-05-03T10:07:48.499Z</time></trkpt><trkpt lat="42.2644906" lon="13.7968523"><ele>335.0</ele><time>2026-05-03T10:07:49.495Z</time></trkpt><trkpt lat="42.2645764" lon="13.7969582"><ele>333.25</ele><time>2026-05-03T10:07:50.504Z</time></trkpt><trkpt lat="42.2646596" lon="13.7970791"><ele>331.5</ele><time>2026-05-03T10:07:51.498Z</time></trkpt><trkpt lat="42.2647265" lon="13.7972043"><ele>329.75</ele><time>2026-05-03T10:07:52.494Z</time></trkpt><trkpt lat="42.2647807" lon="13.7973395"><ele>328.0</ele><time>2026-05-03T10:07:53.49Z</time></trkpt><trkpt lat="42.2648159" lon="13.7974979"><ele>327.5</ele><time>2026-05-03T10:07:54.49Z</time></trkpt><trkpt lat="42.2648364" lon="13.7976695"><ele>327.0</ele><time>2026-05-03T10:07:55.511Z</time></trkpt><trkpt lat="42.2648473" lon="13.7978521"><ele>326.5</ele><time>2026-05-03T10:07:56.502Z</time></trkpt><trkpt lat="42.2648585" lon="13.7980362"><ele>326.0</ele><time>2026-05-03T10:07:57.503Z</time></trkpt><trkpt lat="42.2648531" lon="13.7982225"><ele>326.0</ele><time>2026-05-03T10:07:58.502Z</time></trkpt><trkpt lat="42.2648623" lon="13.7983626"><ele>326.0</ele><time>2026-05-03T10:07:59.504Z</time></trkpt><trkpt lat="42.2649143" lon="13.7985128"><ele>326.0</ele><time>2026-05-03T10:08:00.494Z</time></trkpt><trkpt lat="42.2649531" lon="13.7986373"><ele>326.0</ele><time>2026-05-03T10:08:01.498Z</time></trkpt><trkpt lat="42.2649885" lon="13.7987303"><ele>326.0</ele><time>2026-05-03T10:08:02.493Z</time></trkpt><trkpt lat="42.2650204" lon="13.7988069"><ele>326.5</ele><time>2026-05-03T10:08:03.501Z</time></trkpt><trkpt lat="42.2650568" lon="13.7988893"><ele>327.0</ele><time>2026-05-03T10:08:04.496Z</time></trkpt><trkpt lat="42.265083" lon="13.7989693"><ele>327.5</ele><time>2026-05-03T10:08:05.499Z</time></trkpt><trkpt lat="42.2651204" lon="13.7990993"><ele>328.0</ele><time>2026-05-03T10:08:07.489Z</time></trkpt><trkpt lat="42.265141" lon="13.799184"><ele>328.5</ele><time>2026-05-03T10:08:09.493Z</time></trkpt><trkpt lat="42.2651812" lon="13.7992685"><ele>329.0</ele><time>2026-05-03T10:08:11.49Z</time></trkpt><trkpt lat="42.2652486" lon="13.7993958"><ele>330.1666666666667</ele><time>2026-05-03T10:08:13.493Z</time></trkpt><trkpt lat="42.2652861" lon="13.799479"><ele>331.33333333333337</ele><time>2026-05-03T10:08:14.499Z</time></trkpt><trkpt lat="42.2653223" lon="13.7995601"><ele>332.5</ele><time>2026-05-03T10:08:15.496Z</time></trkpt><trkpt lat="42.2653786" lon="13.7996934"><ele>333.6666666666667</ele><time>2026-05-03T10:08:17.487Z</time></trkpt><trkpt lat="42.2653575" lon="13.7998085"><ele>334.8333333333333</ele><time>2026-05-03T10:08:19.495Z</time></trkpt><trkpt lat="42.2652924" lon="13.7999055"><ele>336.0</ele><time>2026-05-03T10:08:21.494Z</time></trkpt><trkpt lat="42.265249" lon="13.8000271"><ele>336.0</ele><time>2026-05-03T10:08:23.5Z</time></trkpt><trkpt lat="42.2652042" lon="13.8001288"><ele>336.0</ele><time>2026-05-03T10:08:25.499Z</time></trkpt><trkpt lat="42.2651628" lon="13.8001937"><ele>336.0</ele><time>2026-05-03T10:08:29.492Z</time></trkpt><trkpt lat="42.2652233" lon="13.8001201"><ele>336.0</ele><time>2026-05-03T10:08:42.498Z</time></trkpt><trkpt lat="42.2652957" lon="13.800012"><ele>336.0</ele><time>2026-05-03T10:08:44.491Z</time></trkpt><trkpt lat="42.2653426" lon="13.7999454"><ele>336.0</ele><time>2026-05-03T10:08:45.496Z</time></trkpt><trkpt lat="42.265412" lon="13.7998204"><ele>336.0</ele><time>2026-05-03T10:08:47.501Z</time></trkpt><trkpt lat="42.2654468" lon="13.7997219"><ele>336.0</ele><time>2026-05-03T10:08:49.496Z</time></trkpt><trkpt lat="42.2654427" lon="13.7996065"><ele>336.0</ele><time>2026-05-03T10:08:51.502Z</time></trkpt><trkpt lat="42.2654079" lon="13.7994951"><ele>336.0</ele><time>2026-05-03T10:08:53.497Z</time></trkpt><trkpt lat="42.2653604" lon="13.7994017"><ele>336.0</ele><time>2026-05-03T10:08:55.501Z</time></trkpt><trkpt lat="42.2653157" lon="13.7992961"><ele>336.0</ele><time>2026-05-03T10:08:57.506Z</time></trkpt><trkpt lat="42.2652687" lon="13.7991777"><ele>334.6</ele><time>2026-05-03T10:08:59.509Z</time></trkpt><trkpt lat="42.2652016" lon="13.7991124"><ele>333.20000000000005</ele><time>2026-05-03T10:09:01.504Z</time></trkpt><trkpt lat="42.2651063" lon="13.7991602"><ele>331.79999999999995</ele><time>2026-05-03T10:09:03.495Z</time></trkpt><trkpt lat="42.2649839" lon="13.7992438"><ele>330.4</ele><time>2026-05-03T10:09:05.484Z</time></trkpt><trkpt lat="42.2648994" lon="13.7992814"><ele>329.0</ele><time>2026-05-03T10:09:06.486Z</time></trkpt><trkpt lat="42.2648124" lon="13.7992933"><ele>329.4</ele><time>2026-05-03T10:09:07.484Z</time></trkpt><trkpt lat="42.2647255" lon="13.7992737"><ele>329.79999999999995</ele><time>2026-05-03T10:09:08.487Z</time></trkpt><trkpt lat="42.2646328" lon="13.799258"><ele>330.20000000000005</ele><time>2026-05-03T10:09:09.487Z</time></trkpt><trkpt lat="42.264538" lon="13.7992656"><ele>330.6</ele><time>2026-05-03T10:09:10.501Z</time></trkpt><trkpt lat="42.2644438" lon="13.799305"><ele>331.0</ele><time>2026-05-03T10:09:11.489Z</time></trkpt><trkpt lat="42.2643585" lon="13.7993803"><ele>332.20000000000005</ele><time>2026-05-03T10:09:12.502Z</time></trkpt><trkpt lat="42.2642716" lon="13.7994695"><ele>333.40000000000003</ele><time>2026-05-03T10:09:13.491Z</time></trkpt><trkpt lat="42.2641923" lon="13.7995716"><ele>334.6</ele><time>2026-05-03T10:09:14.495Z</time></trkpt><trkpt lat="42.2641112" lon="13.7996633"><ele>335.8</ele><time>2026-05-03T10:09:15.502Z</time></trkpt><trkpt lat="42.2640393" lon="13.7997322"><ele>337.0</ele><time>2026-05-03T10:09:16.488Z</time></trkpt><trkpt lat="42.2639793" lon="13.7997781"><ele>336.5</ele><time>2026-05-03T10:09:17.501Z</time></trkpt><trkpt lat="42.2638952" lon="13.7998052"><ele>336.0</ele><time>2026-05-03T10:09:19.506Z</time></trkpt><trkpt lat="42.2638247" lon="13.7998487"><ele>335.5</ele><time>2026-05-03T10:09:21.506Z</time></trkpt><trkpt lat="42.2637266" lon="13.7999132"><ele>335.0</ele><time>2026-05-03T10:09:24.491Z</time></trkpt><trkpt lat="42.2636639" lon="13.7999421"><ele>334.5</ele><time>2026-05-03T10:09:25.496Z</time></trkpt><trkpt lat="42.2635793" lon="13.799978"><ele>334.0</ele><time>2026-05-03T10:09:26.489Z</time></trkpt><trkpt lat="42.2634775" lon="13.8000186"><ele>334.0</ele><time>2026-05-03T10:09:27.498Z</time></trkpt><trkpt lat="42.263368" lon="13.800055"><ele>334.0</ele><time>2026-05-03T10:09:28.499Z</time></trkpt><trkpt lat="42.2632592" lon="13.8000734"><ele>334.0</ele><time>2026-05-03T10:09:29.5Z</time></trkpt><trkpt lat="42.2631619" lon="13.8000747"><ele>334.0</ele><time>2026-05-03T10:09:30.501Z</time></trkpt><trkpt lat="42.2630765" lon="13.8000586"><ele>334.0</ele><time>2026-05-03T10:09:31.494Z</time></trkpt><trkpt lat="42.2630127" lon="13.8000315"><ele>333.79999999999995</ele><time>2026-05-03T10:09:32.498Z</time></trkpt><trkpt lat="42.2629234" lon="13.799962"><ele>333.59999999999997</ele><time>2026-05-03T10:09:34.501Z</time></trkpt><trkpt lat="42.2628457" lon="13.7999075"><ele>333.4</ele><time>2026-05-03T10:09:36.501Z</time></trkpt><trkpt lat="42.2627453" lon="13.7998589"><ele>333.2</ele><time>2026-05-03T10:09:38.502Z</time></trkpt><trkpt lat="42.2626303" lon="13.7998461"><ele>333.0</ele><time>2026-05-03T10:09:40.512Z</time></trkpt><trkpt lat="42.2625075" lon="13.7998385"><ele>333.0</ele><time>2026-05-03T10:09:42.507Z</time></trkpt><trkpt lat="42.2624364" lon="13.7998267"><ele>333.0</ele><time>2026-05-03T10:09:43.492Z</time></trkpt><trkpt lat="42.2623452" lon="13.799807"><ele>333.0</ele><time>2026-05-03T10:09:44.502Z</time></trkpt><trkpt lat="42.2622388" lon="13.7997931"><ele>333.0</ele><time>2026-05-03T10:09:45.492Z</time></trkpt><trkpt lat="42.2621235" lon="13.7997781"><ele>333.0</ele><time>2026-05-03T10:09:46.502Z</time></trkpt><trkpt lat="42.2620132" lon="13.7997685"><ele>332.79999999999995</ele><time>2026-05-03T10:09:47.497Z</time></trkpt><trkpt lat="42.2619129" lon="13.7997666"><ele>332.6</ele><time>2026-05-03T10:09:48.505Z</time></trkpt><trkpt lat="42.2618201" lon="13.7997778"><ele>332.4</ele><time>2026-05-03T10:09:49.489Z</time></trkpt><trkpt lat="42.2617346" lon="13.7998079"><ele>332.20000000000005</ele><time>2026-05-03T10:09:50.499Z</time></trkpt><trkpt lat="42.261654" lon="13.7998619"><ele>332.0</ele><time>2026-05-03T10:09:51.493Z</time></trkpt><trkpt lat="42.2615665" lon="13.7999327"><ele>332.0</ele><time>2026-05-03T10:09:52.5Z</time></trkpt><trkpt lat="42.2614692" lon="13.8000171"><ele>332.0</ele><time>2026-05-03T10:09:53.491Z</time></trkpt><trkpt lat="42.2613772" lon="13.8000867"><ele>332.0</ele><time>2026-05-03T10:09:54.487Z</time></trkpt><trkpt lat="42.2612917" lon="13.8001519"><ele>332.0</ele><time>2026-05-03T10:09:55.495Z</time></trkpt><trkpt lat="42.2612166" lon="13.8002207"><ele>332.0</ele><time>2026-05-03T10:09:56.495Z</time></trkpt><trkpt lat="42.261142" lon="13.8003013"><ele>332.0</ele><time>2026-05-03T10:09:57.486Z</time></trkpt><trkpt lat="42.2610742" lon="13.8003963"><ele>332.0</ele><time>2026-05-03T10:09:58.488Z</time></trkpt><trkpt lat="42.261013" lon="13.8004912"><ele>332.0</ele><time>2026-05-03T10:09:59.49Z</time></trkpt><trkpt lat="42.2609583" lon="13.8005815"><ele>332.0</ele><time>2026-05-03T10:10:00.491Z</time></trkpt><trkpt lat="42.2609053" lon="13.8006655"><ele>332.0</ele><time>2026-05-03T10:10:01.485Z</time></trkpt><trkpt lat="42.2608393" lon="13.8007499"><ele>332.0</ele><time>2026-05-03T10:10:02.482Z</time></trkpt><trkpt lat="42.2607585" lon="13.8008372"><ele>332.0</ele><time>2026-05-03T10:10:03.488Z</time></trkpt><trkpt lat="42.2606651" lon="13.8009154"><ele>332.0</ele><time>2026-05-03T10:10:04.488Z</time></trkpt><trkpt lat="42.2605666" lon="13.8009886"><ele>332.0</ele><time>2026-05-03T10:10:05.484Z</time></trkpt><trkpt lat="42.2604743" lon="13.8010654"><ele>332.0</ele><time>2026-05-03T10:10:06.487Z</time></trkpt><trkpt lat="42.2603827" lon="13.8011456"><ele>331.75</ele><time>2026-05-03T10:10:07.485Z</time></trkpt><trkpt lat="42.2602876" lon="13.8012339"><ele>331.5</ele><time>2026-05-03T10:10:08.481Z</time></trkpt><trkpt lat="42.260194" lon="13.8013269"><ele>331.25</ele><time>2026-05-03T10:10:09.49Z</time></trkpt><trkpt lat="42.2601013" lon="13.8014243"><ele>331.0</ele><time>2026-05-03T10:10:10.481Z</time></trkpt><trkpt lat="42.2600084" lon="13.8015277"><ele>331.0</ele><time>2026-05-03T10:10:11.489Z</time></trkpt><trkpt lat="42.2599299" lon="13.8016313"><ele>331.0</ele><time>2026-05-03T10:10:12.487Z</time></trkpt><trkpt lat="42.2598579" lon="13.8017366"><ele>331.0</ele><time>2026-05-03T10:10:13.486Z</time></trkpt><trkpt lat="42.2597922" lon="13.8018493"><ele>331.0</ele><time>2026-05-03T10:10:14.492Z</time></trkpt><trkpt lat="42.2597254" lon="13.8019617"><ele>331.0</ele><time>2026-05-03T10:10:15.492Z</time></trkpt><trkpt lat="42.2596523" lon="13.8020623"><ele>331.8</ele><time>2026-05-03T10:10:16.497Z</time></trkpt><trkpt lat="42.2595666" lon="13.8021579"><ele>332.6</ele><time>2026-05-03T10:10:17.492Z</time></trkpt><trkpt lat="42.2594695" lon="13.8022325"><ele>333.4</ele><time>2026-05-03T10:10:18.495Z</time></trkpt><trkpt lat="42.2593756" lon="13.8022993"><ele>334.2</ele><time>2026-05-03T10:10:19.493Z</time></trkpt><trkpt lat="42.2592919" lon="13.8023522"><ele>335.0</ele><time>2026-05-03T10:10:20.498Z</time></trkpt><trkpt lat="42.2592138" lon="13.8023875"><ele>335.0</ele><time>2026-05-03T10:10:21.499Z</time></trkpt><trkpt lat="42.2591361" lon="13.8024092"><ele>335.0</ele><time>2026-05-03T10:10:22.494Z</time></trkpt><trkpt lat="42.2590554" lon="13.8024143"><ele>335.0</ele><time>2026-05-03T10:10:23.495Z</time></trkpt><trkpt lat="42.2589674" lon="13.8023958"><ele>335.0</ele><time>2026-05-03T10:10:24.493Z</time></trkpt><trkpt lat="42.2588708" lon="13.8023681"><ele>335.0</ele><time>2026-05-03T10:10:25.489Z</time></trkpt><trkpt lat="42.2587623" lon="13.8023246"><ele>335.75</ele><time>2026-05-03T10:10:26.498Z</time></trkpt><trkpt lat="42.2586463" lon="13.8022704"><ele>336.5</ele><time>2026-05-03T10:10:27.491Z</time></trkpt><trkpt lat="42.2585378" lon="13.8022145"><ele>337.25</ele><time>2026-05-03T10:10:28.505Z</time></trkpt><trkpt lat="42.2584297" lon="13.8021601"><ele>338.0</ele><time>2026-05-03T10:10:29.498Z</time></trkpt><trkpt lat="42.2583196" lon="13.8021019"><ele>338.0</ele><time>2026-05-03T10:10:30.495Z</time></trkpt><trkpt lat="42.2582135" lon="13.8020381"><ele>338.0</ele><time>2026-05-03T10:10:31.489Z</time></trkpt><trkpt lat="42.2581324" lon="13.8019635"><ele>338.0</ele><time>2026-05-03T10:10:32.504Z</time></trkpt><trkpt lat="42.258068" lon="13.8018686"><ele>338.0</ele><time>2026-05-03T10:10:33.487Z</time></trkpt><trkpt lat="42.2580186" lon="13.8017462"><ele>338.0</ele><time>2026-05-03T10:10:34.491Z</time></trkpt><trkpt lat="42.2579726" lon="13.8016121"><ele>337.2</ele><time>2026-05-03T10:10:35.489Z</time></trkpt><trkpt lat="42.2579228" lon="13.8014832"><ele>336.4</ele><time>2026-05-03T10:10:36.483Z</time></trkpt><trkpt lat="42.2578682" lon="13.8013701"><ele>335.59999999999997</ele><time>2026-05-03T10:10:37.487Z</time></trkpt><trkpt lat="42.257803" lon="13.8012743"><ele>334.79999999999995</ele><time>2026-05-03T10:10:38.494Z</time></trkpt><trkpt lat="42.2577357" lon="13.801192"><ele>334.0</ele><time>2026-05-03T10:10:39.491Z</time></trkpt><trkpt lat="42.2576649" lon="13.8011314"><ele>334.0</ele><time>2026-05-03T10:10:40.492Z</time></trkpt><trkpt lat="42.2575907" lon="13.8011036"><ele>334.0</ele><time>2026-05-03T10:10:41.491Z</time></trkpt><trkpt lat="42.2575093" lon="13.801102"><ele>334.0</ele><time>2026-05-03T10:10:42.496Z</time></trkpt><trkpt lat="42.2574284" lon="13.8011216"><ele>334.0</ele><time>2026-05-03T10:10:43.486Z</time></trkpt><trkpt lat="42.2573435" lon="13.8011745"><ele>334.0</ele><time>2026-05-03T10:10:44.496Z</time></trkpt><trkpt lat="42.2572534" lon="13.8012515"><ele>334.0</ele><time>2026-05-03T10:10:45.49Z</time></trkpt><trkpt lat="42.2571618" lon="13.8013456"><ele>332.25</ele><time>2026-05-03T10:10:46.493Z</time></trkpt><trkpt lat="42.2570694" lon="13.8014427"><ele>330.5</ele><time>2026-05-03T10:10:47.498Z</time></trkpt><trkpt lat="42.2569777" lon="13.8015394"><ele>328.75</ele><time>2026-05-03T10:10:48.502Z</time></trkpt><trkpt lat="42.2568962" lon="13.8016428"><ele>327.0</ele><time>2026-05-03T10:10:49.495Z</time></trkpt><trkpt lat="42.2568232" lon="13.8017502"><ele>328.6</ele><time>2026-05-03T10:10:50.508Z</time></trkpt><trkpt lat="42.2567588" lon="13.8018659"><ele>330.20000000000005</ele><time>2026-05-03T10:10:51.492Z</time></trkpt><trkpt lat="42.2566935" lon="13.8019817"><ele>331.8</ele><time>2026-05-03T10:10:52.503Z</time></trkpt><trkpt lat="42.2566248" lon="13.8020828"><ele>333.4</ele><time>2026-05-03T10:10:53.492Z</time></trkpt><trkpt lat="42.2565501" lon="13.8021742"><ele>335.0</ele><time>2026-05-03T10:10:54.497Z</time></trkpt><trkpt lat="42.2564694" lon="13.8022581"><ele>333.75</ele><time>2026-05-03T10:10:55.498Z</time></trkpt><trkpt lat="42.2563732" lon="13.8023307"><ele>332.5</ele><time>2026-05-03T10:10:56.502Z</time></trkpt><trkpt lat="42.2562639" lon="13.8023906"><ele>331.25</ele><time>2026-05-03T10:10:57.484Z</time></trkpt><trkpt lat="42.2561438" lon="13.8024332"><ele>330.0</ele><time>2026-05-03T10:10:58.492Z</time></trkpt><trkpt lat="42.2560185" lon="13.8024634"><ele>330.0</ele><time>2026-05-03T10:10:59.484Z</time></trkpt><trkpt lat="42.2558872" lon="13.8024835"><ele>330.0</ele><time>2026-05-03T10:11:00.498Z</time></trkpt><trkpt lat="42.2557675" lon="13.8025089"><ele>330.0</ele><time>2026-05-03T10:11:01.493Z</time></trkpt><trkpt lat="42.2556667" lon="13.8025441"><ele>330.0</ele><time>2026-05-03T10:11:02.499Z</time></trkpt><trkpt lat="42.2555651" lon="13.8025751"><ele>329.0</ele><time>2026-05-03T10:11:03.496Z</time></trkpt><trkpt lat="42.2554601" lon="13.8026202"><ele>328.0</ele><time>2026-05-03T10:11:04.5Z</time></trkpt><trkpt lat="42.2553568" lon="13.8026848"><ele>327.0</ele><time>2026-05-03T10:11:05.501Z</time></trkpt><trkpt lat="42.2552428" lon="13.8027642"><ele>326.0</ele><time>2026-05-03T10:11:06.497Z</time></trkpt><trkpt lat="42.2551284" lon="13.8028444"><ele>326.8</ele><time>2026-05-03T10:11:07.504Z</time></trkpt><trkpt lat="42.2550101" lon="13.8029144"><ele>327.6</ele><time>2026-05-03T10:11:08.491Z</time></trkpt><trkpt lat="42.2549017" lon="13.8029596"><ele>328.4</ele><time>2026-05-03T10:11:09.501Z</time></trkpt><trkpt lat="42.2548028" lon="13.8029894"><ele>329.2</ele><time>2026-05-03T10:11:10.493Z</time></trkpt><trkpt lat="42.254702" lon="13.8030018"><ele>330.0</ele><time>2026-05-03T10:11:11.505Z</time></trkpt><trkpt lat="42.2545981" lon="13.8029954"><ele>330.0</ele><time>2026-05-03T10:11:12.499Z</time></trkpt><trkpt lat="42.2544965" lon="13.8029772"><ele>330.0</ele><time>2026-05-03T10:11:13.504Z</time></trkpt><trkpt lat="42.254393" lon="13.8029801"><ele>330.0</ele><time>2026-05-03T10:11:14.488Z</time></trkpt><trkpt lat="42.2542894" lon="13.8030036"><ele>330.0</ele><time>2026-05-03T10:11:15.508Z</time></trkpt><trkpt lat="42.2541806" lon="13.8030407"><ele>330.0</ele><time>2026-05-03T10:11:16.493Z</time></trkpt><trkpt lat="42.254068" lon="13.8030965"><ele>328.25</ele><time>2026-05-03T10:11:17.505Z</time></trkpt><trkpt lat="42.2539545" lon="13.8031578"><ele>326.5</ele><time>2026-05-03T10:11:18.497Z</time></trkpt><trkpt lat="42.2538374" lon="13.8032207"><ele>324.75</ele><time>2026-05-03T10:11:19.502Z</time></trkpt><trkpt lat="42.2537219" lon="13.8032718"><ele>323.0</ele><time>2026-05-03T10:11:20.495Z</time></trkpt><trkpt lat="42.253615" lon="13.8033167"><ele>323.0</ele><time>2026-05-03T10:11:21.502Z</time></trkpt><trkpt lat="42.2535095" lon="13.8033764"><ele>323.0</ele><time>2026-05-03T10:11:22.497Z</time></trkpt><trkpt lat="42.2534167" lon="13.8034428"><ele>323.0</ele><time>2026-05-03T10:11:23.498Z</time></trkpt><trkpt lat="42.2533331" lon="13.8035179"><ele>323.0</ele><time>2026-05-03T10:11:24.495Z</time></trkpt><trkpt lat="42.2532551" lon="13.8035896"><ele>323.0</ele><time>2026-05-03T10:11:25.501Z</time></trkpt><trkpt lat="42.2531893" lon="13.803661"><ele>323.79999999999995</ele><time>2026-05-03T10:11:26.488Z</time></trkpt><trkpt lat="42.2531362" lon="13.8037265"><ele>324.6</ele><time>2026-05-03T10:11:27.491Z</time></trkpt><trkpt lat="42.2530575" lon="13.8038046"><ele>325.4</ele><time>2026-05-03T10:11:29.488Z</time></trkpt><trkpt lat="42.2529744" lon="13.8038462"><ele>326.20000000000005</ele><time>2026-05-03T10:11:31.494Z</time></trkpt><trkpt lat="42.252885" lon="13.8039065"><ele>327.0</ele><time>2026-05-03T10:11:33.497Z</time></trkpt><trkpt lat="42.2527732" lon="13.8039619"><ele>327.0</ele><time>2026-05-03T10:11:35.501Z</time></trkpt><trkpt lat="42.252705" lon="13.803979"><ele>327.0</ele><time>2026-05-03T10:11:36.484Z</time></trkpt><trkpt lat="42.2526256" lon="13.8039931"><ele>327.0</ele><time>2026-05-03T10:11:37.501Z</time></trkpt><trkpt lat="42.2525371" lon="13.8040148"><ele>327.0</ele><time>2026-05-03T10:11:38.495Z</time></trkpt><trkpt lat="42.252446" lon="13.8040418"><ele>327.0</ele><time>2026-05-03T10:11:39.493Z</time></trkpt><trkpt lat="42.2523546" lon="13.8040607"><ele>327.0</ele><time>2026-05-03T10:11:40.495Z</time></trkpt><trkpt lat="42.2522624" lon="13.8040683"><ele>329.0</ele><time>2026-05-03T10:11:41.496Z</time></trkpt><trkpt lat="42.2521638" lon="13.8040543"><ele>331.0</ele><time>2026-05-03T10:11:42.49Z</time></trkpt><trkpt lat="42.2520598" lon="13.8040224"><ele>333.0</ele><time>2026-05-03T10:11:43.494Z</time></trkpt><trkpt lat="42.2519694" lon="13.8039816"><ele>335.0</ele><time>2026-05-03T10:11:44.494Z</time></trkpt><trkpt lat="42.2518948" lon="13.8039197"><ele>337.0</ele><time>2026-05-03T10:11:45.498Z</time></trkpt><trkpt lat="42.2518232" lon="13.8038358"><ele>337.0</ele><time>2026-05-03T10:11:46.491Z</time></trkpt><trkpt lat="42.2517502" lon="13.8037349"><ele>337.0</ele><time>2026-05-03T10:11:47.493Z</time></trkpt><trkpt lat="42.2516887" lon="13.8036529"><ele>337.0</ele><time>2026-05-03T10:11:48.488Z</time></trkpt><trkpt lat="42.2516171" lon="13.8035662"><ele>337.0</ele><time>2026-05-03T10:11:50.489Z</time></trkpt><trkpt lat="42.2515515" lon="13.803474"><ele>337.0</ele><time>2026-05-03T10:11:52.49Z</time></trkpt><trkpt lat="42.2514963" lon="13.8034264"><ele>337.0</ele><time>2026-05-03T10:11:53.496Z</time></trkpt><trkpt lat="42.2514194" lon="13.8033939"><ele>335.6</ele><time>2026-05-03T10:11:54.496Z</time></trkpt><trkpt lat="42.2513347" lon="13.8033732"><ele>334.20000000000005</ele><time>2026-05-03T10:11:55.503Z</time></trkpt><trkpt lat="42.2512392" lon="13.8033473"><ele>332.8</ele><time>2026-05-03T10:11:56.486Z</time></trkpt><trkpt lat="42.2511387" lon="13.803315"><ele>331.4</ele><time>2026-05-03T10:11:57.5Z</time></trkpt><trkpt lat="42.2510429" lon="13.8032752"><ele>330.0</ele><time>2026-05-03T10:11:58.492Z</time></trkpt><trkpt lat="42.2509498" lon="13.8032477"><ele>330.0</ele><time>2026-05-03T10:11:59.5Z</time></trkpt><trkpt lat="42.25085" lon="13.8032348"><ele>330.0</ele><time>2026-05-03T10:12:00.491Z</time></trkpt><trkpt lat="42.2507474" lon="13.8032471"><ele>330.0</ele><time>2026-05-03T10:12:01.494Z</time></trkpt><trkpt lat="42.250639" lon="13.8032753"><ele>330.0</ele><time>2026-05-03T10:12:02.495Z</time></trkpt><trkpt lat="42.2505297" lon="13.8033182"><ele>330.0</ele><time>2026-05-03T10:12:03.491Z</time></trkpt><trkpt lat="42.2504172" lon="13.8033724"><ele>330.0</ele><time>2026-05-03T10:12:04.493Z</time></trkpt><trkpt lat="42.2503031" lon="13.8034434"><ele>330.0</ele><time>2026-05-03T10:12:05.483Z</time></trkpt><trkpt lat="42.2501957" lon="13.8035326"><ele>330.0</ele><time>2026-05-03T10:12:06.488Z</time></trkpt><trkpt lat="42.2500938" lon="13.8036318"><ele>330.0</ele><time>2026-05-03T10:12:07.489Z</time></trkpt><trkpt lat="42.2499983" lon="13.8037252"><ele>330.8</ele><time>2026-05-03T10:12:08.496Z</time></trkpt><trkpt lat="42.2499089" lon="13.8038137"><ele>331.6</ele><time>2026-05-03T10:12:09.485Z</time></trkpt><trkpt lat="42.249824" lon="13.8038974"><ele>332.4</ele><time>2026-05-03T10:12:10.491Z</time></trkpt><trkpt lat="42.2497484" lon="13.8039997"><ele>333.2</ele><time>2026-05-03T10:12:11.487Z</time></trkpt><trkpt lat="42.2496822" lon="13.8041259"><ele>334.0</ele><time>2026-05-03T10:12:12.485Z</time></trkpt><trkpt lat="42.2496175" lon="13.8042724"><ele>334.6</ele><time>2026-05-03T10:12:13.5Z</time></trkpt><trkpt lat="42.2495461" lon="13.8044089"><ele>335.2</ele><time>2026-05-03T10:12:14.484Z</time></trkpt><trkpt lat="42.2494751" lon="13.804526"><ele>335.8</ele><time>2026-05-03T10:12:15.493Z</time></trkpt><trkpt lat="42.2494249" lon="13.8046278"><ele>336.40000000000003</ele><time>2026-05-03T10:12:16.483Z</time></trkpt><trkpt lat="42.2493886" lon="13.8047092"><ele>337.0</ele><time>2026-05-03T10:12:17.498Z</time></trkpt><trkpt lat="42.2492949" lon="13.8048433"><ele>337.0</ele><time>2026-05-03T10:12:19.501Z</time></trkpt><trkpt lat="42.2492263" lon="13.8049271"><ele>337.0</ele><time>2026-05-03T10:12:20.488Z</time></trkpt><trkpt lat="42.249152" lon="13.8050231"><ele>337.0</ele><time>2026-05-03T10:12:21.496Z</time></trkpt><trkpt lat="42.2490703" lon="13.8051117"><ele>337.0</ele><time>2026-05-03T10:12:22.479Z</time></trkpt><trkpt lat="42.2489844" lon="13.805169"><ele>337.0</ele><time>2026-05-03T10:12:23.481Z</time></trkpt><trkpt lat="42.2489098" lon="13.8051973"><ele>336.66666666666663</ele><time>2026-05-03T10:12:24.493Z</time></trkpt><trkpt lat="42.2488267" lon="13.8051901"><ele>336.3333333333333</ele><time>2026-05-03T10:12:25.493Z</time></trkpt><trkpt lat="42.2487309" lon="13.8051886"><ele>336.0</ele><time>2026-05-03T10:12:26.5Z</time></trkpt><trkpt lat="42.2486409" lon="13.8052011"><ele>335.6666666666667</ele><time>2026-05-03T10:12:27.491Z</time></trkpt><trkpt lat="42.2485599" lon="13.8052278"><ele>335.33333333333337</ele><time>2026-05-03T10:12:28.497Z</time></trkpt><trkpt lat="42.248488" lon="13.8052763"><ele>335.0</ele><time>2026-05-03T10:12:29.496Z</time></trkpt><trkpt lat="42.2484152" lon="13.8053377"><ele>335.0</ele><time>2026-05-03T10:12:30.495Z</time></trkpt><trkpt lat="42.2483484" lon="13.8054034"><ele>335.0</ele><time>2026-05-03T10:12:31.486Z</time></trkpt><trkpt lat="42.2482722" lon="13.8055077"><ele>335.0</ele><time>2026-05-03T10:12:33.49Z</time></trkpt><trkpt lat="42.2482246" lon="13.805578"><ele>335.0</ele><time>2026-05-03T10:12:49.492Z</time></trkpt><trkpt lat="42.2481957" lon="13.8056681"><ele>335.0</ele><time>2026-05-03T10:12:51.489Z</time></trkpt><trkpt lat="42.2481181" lon="13.8057989"><ele>333.6</ele><time>2026-05-03T10:12:53.488Z</time></trkpt><trkpt lat="42.2480619" lon="13.8058971"><ele>332.2</ele><time>2026-05-03T10:12:54.49Z</time></trkpt><trkpt lat="42.2480071" lon="13.8060149"><ele>330.79999999999995</ele><time>2026-05-03T10:12:55.49Z</time></trkpt><trkpt lat="42.2479538" lon="13.8061403"><ele>329.4</ele><time>2026-05-03T10:12:56.484Z</time></trkpt><trkpt lat="42.2479048" lon="13.8062655"><ele>328.0</ele><time>2026-05-03T10:12:57.49Z</time></trkpt><trkpt lat="42.2478577" lon="13.8063733"><ele>328.0</ele><time>2026-05-03T10:12:58.483Z</time></trkpt><trkpt lat="42.2478137" lon="13.806474"><ele>328.0</ele><time>2026-05-03T10:12:59.496Z</time></trkpt><trkpt lat="42.2477805" lon="13.8065648"><ele>328.0</ele><time>2026-05-03T10:13:00.49Z</time></trkpt><trkpt lat="42.2477571" lon="13.8066676"><ele>328.0</ele><time>2026-05-03T10:13:01.491Z</time></trkpt><trkpt lat="42.2477393" lon="13.8067929"><ele>328.0</ele><time>2026-05-03T10:13:02.489Z</time></trkpt><trkpt lat="42.2477239" lon="13.8069335"><ele>328.0</ele><time>2026-05-03T10:13:03.486Z</time></trkpt><trkpt lat="42.2477057" lon="13.8070684"><ele>328.0</ele><time>2026-05-03T10:13:04.478Z</time></trkpt><trkpt lat="42.2476818" lon="13.8071876"><ele>328.0</ele><time>2026-05-03T10:13:05.48Z</time></trkpt><trkpt lat="42.2476608" lon="13.8072924"><ele>328.0</ele><time>2026-05-03T10:13:06.48Z</time></trkpt><trkpt lat="42.2476257" lon="13.8073758"><ele>328.0</ele><time>2026-05-03T10:13:07.493Z</time></trkpt><trkpt lat="42.2475708" lon="13.8074532"><ele>328.0</ele><time>2026-05-03T10:13:08.478Z</time></trkpt><trkpt lat="42.2474988" lon="13.8075217"><ele>328.0</ele><time>2026-05-03T10:13:09.485Z</time></trkpt><trkpt lat="42.2474069" lon="13.8075721"><ele>328.0</ele><time>2026-05-03T10:13:10.472Z</time></trkpt><trkpt lat="42.2473147" lon="13.8076304"><ele>328.0</ele><time>2026-05-03T10:13:11.488Z</time></trkpt><trkpt lat="42.2472237" lon="13.8077107"><ele>328.0</ele><time>2026-05-03T10:13:12.472Z</time></trkpt><trkpt lat="42.2471292" lon="13.8077974"><ele>328.0</ele><time>2026-05-03T10:13:13.485Z</time></trkpt><trkpt lat="42.2470462" lon="13.8078884"><ele>328.0</ele><time>2026-05-03T10:13:14.476Z</time></trkpt><trkpt lat="42.2469777" lon="13.8079788"><ele>327.4</ele><time>2026-05-03T10:13:15.48Z</time></trkpt><trkpt lat="42.2469226" lon="13.8080782"><ele>326.79999999999995</ele><time>2026-05-03T10:13:16.476Z</time></trkpt><trkpt lat="42.2468809" lon="13.8081808"><ele>326.2</ele><time>2026-05-03T10:13:17.489Z</time></trkpt><trkpt lat="42.2468386" lon="13.8082982"><ele>325.6</ele><time>2026-05-03T10:13:18.472Z</time></trkpt><trkpt lat="42.2468066" lon="13.8084326"><ele>325.0</ele><time>2026-05-03T10:13:19.479Z</time></trkpt><trkpt lat="42.246786" lon="13.8085776"><ele>324.8</ele><time>2026-05-03T10:13:20.472Z</time></trkpt><trkpt lat="42.246753" lon="13.8087296"><ele>324.6</ele><time>2026-05-03T10:13:21.473Z</time></trkpt><trkpt lat="42.2467125" lon="13.8088829"><ele>324.4</ele><time>2026-05-03T10:13:22.473Z</time></trkpt><trkpt lat="42.2466807" lon="13.8090221"><ele>324.2</ele><time>2026-05-03T10:13:23.477Z</time></trkpt><trkpt lat="42.2466513" lon="13.8091367"><ele>324.0</ele><time>2026-05-03T10:13:24.485Z</time></trkpt><trkpt lat="42.2466298" lon="13.8092215"><ele>324.2</ele><time>2026-05-03T10:13:25.488Z</time></trkpt><trkpt lat="42.2465961" lon="13.8093549"><ele>324.4</ele><time>2026-05-03T10:13:27.49Z</time></trkpt><trkpt lat="42.2465602" lon="13.8094789"><ele>324.6</ele><time>2026-05-03T10:13:29.496Z</time></trkpt><trkpt lat="42.2465204" lon="13.8095927"><ele>324.8</ele><time>2026-05-03T10:13:31.493Z</time></trkpt><trkpt lat="42.2464824" lon="13.8097211"><ele>325.0</ele><time>2026-05-03T10:13:33.484Z</time></trkpt><trkpt lat="42.2464323" lon="13.809871"><ele>325.0</ele><time>2026-05-03T10:13:35.489Z</time></trkpt><trkpt lat="42.2463989" lon="13.8099583"><ele>325.0</ele><time>2026-05-03T10:13:36.491Z</time></trkpt><trkpt lat="42.246361" lon="13.8100598"><ele>325.0</ele><time>2026-05-03T10:13:37.486Z</time></trkpt><trkpt lat="42.2463096" lon="13.8101541"><ele>325.0</ele><time>2026-05-03T10:13:38.497Z</time></trkpt><trkpt lat="42.2462433" lon="13.8102513"><ele>325.0</ele><time>2026-05-03T10:13:39.489Z</time></trkpt><trkpt lat="42.2461703" lon="13.8103496"><ele>325.0</ele><time>2026-05-03T10:13:40.495Z</time></trkpt><trkpt lat="42.2460885" lon="13.8104414"><ele>325.0</ele><time>2026-05-03T10:13:41.491Z</time></trkpt><trkpt lat="42.2460015" lon="13.8105311"><ele>325.0</ele><time>2026-05-03T10:13:42.488Z</time></trkpt><trkpt lat="42.245909" lon="13.8106223"><ele>325.0</ele><time>2026-05-03T10:13:43.491Z</time></trkpt><trkpt lat="42.2458177" lon="13.8107191"><ele>325.0</ele><time>2026-05-03T10:13:44.497Z</time></trkpt><trkpt lat="42.2457326" lon="13.8108334"><ele>325.0</ele><time>2026-05-03T10:13:45.486Z</time></trkpt><trkpt lat="42.2456495" lon="13.8109487"><ele>325.0</ele><time>2026-05-03T10:13:46.499Z</time></trkpt><trkpt lat="42.2455767" lon="13.8110549"><ele>325.0</ele><time>2026-05-03T10:13:47.489Z</time></trkpt><trkpt lat="42.2455113" lon="13.8111473"><ele>325.0</ele><time>2026-05-03T10:13:48.504Z</time></trkpt><trkpt lat="42.2454521" lon="13.8112146"><ele>325.0</ele><time>2026-05-03T10:13:49.489Z</time></trkpt><trkpt lat="42.2453879" lon="13.8112687"><ele>324.8333333333333</ele><time>2026-05-03T10:13:50.496Z</time></trkpt><trkpt lat="42.2453167" lon="13.811326"><ele>324.66666666666663</ele><time>2026-05-03T10:13:51.491Z</time></trkpt><trkpt lat="42.2452437" lon="13.8113913"><ele>324.5</ele><time>2026-05-03T10:13:52.49Z</time></trkpt><trkpt lat="42.2451769" lon="13.811466"><ele>324.3333333333333</ele><time>2026-05-03T10:13:53.485Z</time></trkpt><trkpt lat="42.245122" lon="13.8115354"><ele>324.1666666666667</ele><time>2026-05-03T10:13:54.497Z</time></trkpt><trkpt lat="42.2450759" lon="13.8116246"><ele>324.0</ele><time>2026-05-03T10:13:55.483Z</time></trkpt><trkpt lat="42.2450397" lon="13.8117296"><ele>324.79999999999995</ele><time>2026-05-03T10:13:56.489Z</time></trkpt><trkpt lat="42.245014" lon="13.8118446"><ele>325.59999999999997</ele><time>2026-05-03T10:13:57.487Z</time></trkpt><trkpt lat="42.2449952" lon="13.8119704"><ele>326.4</ele><time>2026-05-03T10:13:58.484Z</time></trkpt><trkpt lat="42.2449814" lon="13.8120976"><ele>327.2</ele><time>2026-05-03T10:13:59.479Z</time></trkpt><trkpt lat="42.2449621" lon="13.8122192"><ele>328.0</ele><time>2026-05-03T10:14:00.488Z</time></trkpt><trkpt lat="42.244939" lon="13.8123249"><ele>328.0</ele><time>2026-05-03T10:14:01.479Z</time></trkpt><trkpt lat="42.2449127" lon="13.8124185"><ele>328.0</ele><time>2026-05-03T10:14:02.479Z</time></trkpt><trkpt lat="42.2448584" lon="13.8124965"><ele>328.0</ele><time>2026-05-03T10:14:03.492Z</time></trkpt><trkpt lat="42.2447791" lon="13.8125656"><ele>328.0</ele><time>2026-05-03T10:14:04.484Z</time></trkpt><trkpt lat="42.2446954" lon="13.8126188"><ele>328.0</ele><time>2026-05-03T10:14:05.493Z</time></trkpt><trkpt lat="42.2446067" lon="13.8126578"><ele>328.0</ele><time>2026-05-03T10:14:06.483Z</time></trkpt><trkpt lat="42.2445167" lon="13.8126788"><ele>328.59999999999997</ele><time>2026-05-03T10:14:07.475Z</time></trkpt><trkpt lat="42.2444119" lon="13.8126897"><ele>329.2</ele><time>2026-05-03T10:14:08.484Z</time></trkpt><trkpt lat="42.2443052" lon="13.8127019"><ele>329.8</ele><time>2026-05-03T10:14:09.484Z</time></trkpt><trkpt lat="42.2442018" lon="13.8127276"><ele>330.4</ele><time>2026-05-03T10:14:10.489Z</time></trkpt><trkpt lat="42.2441035" lon="13.8127712"><ele>331.0</ele><time>2026-05-03T10:14:11.481Z</time></trkpt><trkpt lat="42.2439992" lon="13.8128259"><ele>329.8</ele><time>2026-05-03T10:14:12.476Z</time></trkpt><trkpt lat="42.2438896" lon="13.81287"><ele>328.6</ele><time>2026-05-03T10:14:13.481Z</time></trkpt><trkpt lat="42.2437892" lon="13.8129025"><ele>327.4</ele><time>2026-05-03T10:14:14.481Z</time></trkpt><trkpt lat="42.2436925" lon="13.8129251"><ele>326.2</ele><time>2026-05-03T10:14:15.494Z</time></trkpt><trkpt lat="42.2436018" lon="13.8129626"><ele>325.0</ele><time>2026-05-03T10:14:16.48Z</time></trkpt><trkpt lat="42.2435177" lon="13.813015"><ele>325.0</ele><time>2026-05-03T10:14:17.493Z</time></trkpt><trkpt lat="42.2434388" lon="13.8130737"><ele>325.0</ele><time>2026-05-03T10:14:18.482Z</time></trkpt><trkpt lat="42.2433586" lon="13.8131536"><ele>325.0</ele><time>2026-05-03T10:14:19.485Z</time></trkpt><trkpt lat="42.2432699" lon="13.8132466"><ele>325.0</ele><time>2026-05-03T10:14:20.483Z</time></trkpt><trkpt lat="42.2431815" lon="13.813352"><ele>325.0</ele><time>2026-05-03T10:14:21.487Z</time></trkpt><trkpt lat="42.2430972" lon="13.8134626"><ele>324.0</ele><time>2026-05-03T10:14:22.489Z</time></trkpt><trkpt lat="42.2430174" lon="13.8135742"><ele>323.0</ele><time>2026-05-03T10:14:23.481Z</time></trkpt><trkpt lat="42.2429491" lon="13.8136817"><ele>322.0</ele><time>2026-05-03T10:14:24.478Z</time></trkpt><trkpt lat="42.2428695" lon="13.8137861"><ele>321.0</ele><time>2026-05-03T10:14:25.49Z</time></trkpt><trkpt lat="42.2427801" lon="13.8138848"><ele>320.0</ele><time>2026-05-03T10:14:26.477Z</time></trkpt><trkpt lat="42.2426859" lon="13.8139758"><ele>320.0</ele><time>2026-05-03T10:14:27.486Z</time></trkpt><trkpt lat="42.2425943" lon="13.8140655"><ele>320.0</ele><time>2026-05-03T10:14:28.484Z</time></trkpt><trkpt lat="42.2425072" lon="13.8141511"><ele>320.0</ele><time>2026-05-03T10:14:29.489Z</time></trkpt><trkpt lat="42.2424259" lon="13.8142384"><ele>320.0</ele><time>2026-05-03T10:14:30.484Z</time></trkpt><trkpt lat="42.2423442" lon="13.814315"><ele>320.0</ele><time>2026-05-03T10:14:31.489Z</time></trkpt><trkpt lat="42.2422697" lon="13.814381"><ele>319.83333333333337</ele><time>2026-05-03T10:14:32.486Z</time></trkpt><trkpt lat="42.2422063" lon="13.8144288"><ele>319.6666666666667</ele><time>2026-05-03T10:14:33.484Z</time></trkpt><trkpt lat="42.2421014" lon="13.8144623"><ele>319.5</ele><time>2026-05-03T10:14:35.489Z</time></trkpt><trkpt lat="42.2420272" lon="13.814463"><ele>319.3333333333333</ele><time>2026-05-03T10:14:36.482Z</time></trkpt><trkpt lat="42.2419662" lon="13.8144848"><ele>319.16666666666663</ele><time>2026-05-03T10:14:37.485Z</time></trkpt><trkpt lat="42.2419128" lon="13.8145334"><ele>319.0</ele><time>2026-05-03T10:14:38.481Z</time></trkpt><trkpt lat="42.2418529" lon="13.8146104"><ele>319.0</ele><time>2026-05-03T10:14:40.482Z</time></trkpt><trkpt lat="42.2418147" lon="13.8147548"><ele>319.0</ele><time>2026-05-03T10:14:42.481Z</time></trkpt><trkpt lat="42.2417986" lon="13.8148489"><ele>319.0</ele><time>2026-05-03T10:14:43.492Z</time></trkpt><trkpt lat="42.2417734" lon="13.8149675"><ele>319.0</ele><time>2026-05-03T10:14:44.478Z</time></trkpt><trkpt lat="42.2417401" lon="13.8150962"><ele>319.0</ele><time>2026-05-03T10:14:45.476Z</time></trkpt><trkpt lat="42.2417" lon="13.8152487"><ele>319.4</ele><time>2026-05-03T10:14:46.481Z</time></trkpt><trkpt lat="42.2416593" lon="13.8154069"><ele>319.79999999999995</ele><time>2026-05-03T10:14:47.483Z</time></trkpt><trkpt lat="42.2416295" lon="13.815548"><ele>320.20000000000005</ele><time>2026-05-03T10:14:48.474Z</time></trkpt><trkpt lat="42.2416271" lon="13.8156714"><ele>320.6</ele><time>2026-05-03T10:14:49.49Z</time></trkpt><trkpt lat="42.2416223" lon="13.8157774"><ele>321.0</ele><time>2026-05-03T10:14:50.474Z</time></trkpt><trkpt lat="42.2415966" lon="13.8158747"><ele>321.0</ele><time>2026-05-03T10:14:51.484Z</time></trkpt><trkpt lat="42.2415428" lon="13.8159613"><ele>321.0</ele><time>2026-05-03T10:14:52.482Z</time></trkpt><trkpt lat="42.2414675" lon="13.8160571"><ele>321.0</ele><time>2026-05-03T10:14:53.481Z</time></trkpt><trkpt lat="42.2413715" lon="13.8161506"><ele>321.0</ele><time>2026-05-03T10:14:54.482Z</time></trkpt><trkpt lat="42.241262" lon="13.8162302"><ele>321.0</ele><time>2026-05-03T10:14:55.482Z</time></trkpt><trkpt lat="42.2411512" lon="13.8162881"><ele>323.0</ele><time>2026-05-03T10:14:56.476Z</time></trkpt><trkpt lat="42.2410382" lon="13.8163123"><ele>325.0</ele><time>2026-05-03T10:14:57.48Z</time></trkpt><trkpt lat="42.2409147" lon="13.8163246"><ele>327.0</ele><time>2026-05-03T10:14:58.476Z</time></trkpt><trkpt lat="42.2407798" lon="13.8163236"><ele>329.0</ele><time>2026-05-03T10:14:59.481Z</time></trkpt><trkpt lat="42.24066" lon="13.816315"><ele>328.6</ele><time>2026-05-03T10:15:00.482Z</time></trkpt><trkpt lat="42.2405495" lon="13.8163121"><ele>328.2</ele><time>2026-05-03T10:15:01.477Z</time></trkpt><trkpt lat="42.2404439" lon="13.8163061"><ele>327.8</ele><time>2026-05-03T10:15:02.496Z</time></trkpt><trkpt lat="42.2403332" lon="13.8163005"><ele>327.40000000000003</ele><time>2026-05-03T10:15:03.482Z</time></trkpt><trkpt lat="42.2402187" lon="13.8162956"><ele>327.0</ele><time>2026-05-03T10:15:04.485Z</time></trkpt><trkpt lat="42.2401046" lon="13.8162957"><ele>327.0</ele><time>2026-05-03T10:15:05.483Z</time></trkpt><trkpt lat="42.2399974" lon="13.816303"><ele>327.0</ele><time>2026-05-03T10:15:06.479Z</time></trkpt><trkpt lat="42.2398913" lon="13.8163274"><ele>327.0</ele><time>2026-05-03T10:15:07.488Z</time></trkpt><trkpt lat="42.2397762" lon="13.8163657"><ele>327.0</ele><time>2026-05-03T10:15:08.473Z</time></trkpt><trkpt lat="42.239653" lon="13.8164079"><ele>326.3333333333333</ele><time>2026-05-03T10:15:09.478Z</time></trkpt><trkpt lat="42.239538" lon="13.8164433"><ele>325.6666666666667</ele><time>2026-05-03T10:15:10.489Z</time></trkpt><trkpt lat="42.2394751" lon="13.816449"><ele>325.0</ele><time>2026-05-03T10:15:11.482Z</time></trkpt><trkpt lat="42.2394136" lon="13.8163661"><ele>324.33333333333337</ele><time>2026-05-03T10:15:16.48Z</time></trkpt><trkpt lat="42.2393764" lon="13.8162671"><ele>323.6666666666667</ele><time>2026-05-03T10:15:18.483Z</time></trkpt><trkpt lat="42.2393263" lon="13.8161674"><ele>323.0</ele><time>2026-05-03T10:15:20.486Z</time></trkpt><trkpt lat="42.2392131" lon="13.8161177"><ele>323.0</ele><time>2026-05-03T10:15:22.479Z</time></trkpt><trkpt lat="42.2391277" lon="13.8161118"><ele>323.0</ele><time>2026-05-03T10:15:23.475Z</time></trkpt><trkpt lat="42.2390183" lon="13.8161023"><ele>323.0</ele><time>2026-05-03T10:15:24.48Z</time></trkpt><trkpt lat="42.2389042" lon="13.8160865"><ele>323.0</ele><time>2026-05-03T10:15:25.485Z</time></trkpt><trkpt lat="42.2387836" lon="13.816063"><ele>323.0</ele><time>2026-05-03T10:15:26.491Z</time></trkpt><trkpt lat="42.2386657" lon="13.8160371"><ele>322.0</ele><time>2026-05-03T10:15:27.482Z</time></trkpt><trkpt lat="42.2385424" lon="13.8160304"><ele>321.0</ele><time>2026-05-03T10:15:28.482Z</time></trkpt><trkpt lat="42.238408" lon="13.8160609"><ele>320.0</ele><time>2026-05-03T10:15:29.481Z</time></trkpt><trkpt lat="42.2382669" lon="13.8161303"><ele>319.0</ele><time>2026-05-03T10:15:30.487Z</time></trkpt><trkpt lat="42.238105" lon="13.8162032"><ele>319.0</ele><time>2026-05-03T10:15:31.482Z</time></trkpt><trkpt lat="42.2379645" lon="13.8162644"><ele>319.0</ele><time>2026-05-03T10:15:32.481Z</time></trkpt><trkpt lat="42.2378384" lon="13.8163065"><ele>319.0</ele><time>2026-05-03T10:15:33.482Z</time></trkpt><trkpt lat="42.2377151" lon="13.8163582"><ele>319.0</ele><time>2026-05-03T10:15:34.477Z</time></trkpt><trkpt lat="42.2375955" lon="13.8164335"><ele>319.0</ele><time>2026-05-03T10:15:35.49Z</time></trkpt><trkpt lat="42.2374808" lon="13.8165164"><ele>319.0</ele><time>2026-05-03T10:15:36.478Z</time></trkpt><trkpt lat="42.2373508" lon="13.816579"><ele>319.0</ele><time>2026-05-03T10:15:37.487Z</time></trkpt><trkpt lat="42.2372215" lon="13.8166424"><ele>319.0</ele><time>2026-05-03T10:15:38.48Z</time></trkpt><trkpt lat="42.2370915" lon="13.8166879"><ele>319.25</ele><time>2026-05-03T10:15:39.481Z</time></trkpt><trkpt lat="42.2369512" lon="13.8167105"><ele>319.5</ele><time>2026-05-03T10:15:40.478Z</time></trkpt><trkpt lat="42.2367942" lon="13.8166807"><ele>319.75</ele><time>2026-05-03T10:15:41.478Z</time></trkpt><trkpt lat="42.2366692" lon="13.8166453"><ele>320.0</ele><time>2026-05-03T10:15:42.475Z</time></trkpt><trkpt lat="42.2365362" lon="13.8165908"><ele>320.5</ele><time>2026-05-03T10:15:43.485Z</time></trkpt><trkpt lat="42.2364205" lon="13.8165179"><ele>321.0</ele><time>2026-05-03T10:15:44.476Z</time></trkpt><trkpt lat="42.2363" lon="13.8164222"><ele>321.5</ele><time>2026-05-03T10:15:45.481Z</time></trkpt><trkpt lat="42.2362023" lon="13.816338"><ele>322.0</ele><time>2026-05-03T10:15:46.481Z</time></trkpt><trkpt lat="42.2361024" lon="13.8162512"><ele>322.0</ele><time>2026-05-03T10:15:47.49Z</time></trkpt><trkpt lat="42.2360174" lon="13.8161911"><ele>322.0</ele><time>2026-05-03T10:15:48.478Z</time></trkpt><trkpt lat="42.235927" lon="13.8161504"><ele>322.0</ele><time>2026-05-03T10:15:49.488Z</time></trkpt><trkpt lat="42.2358311" lon="13.8161434"><ele>322.0</ele><time>2026-05-03T10:15:50.476Z</time></trkpt><trkpt lat="42.2357374" lon="13.8161895"><ele>322.0</ele><time>2026-05-03T10:15:51.477Z</time></trkpt><trkpt lat="42.2356351" lon="13.8162335"><ele>321.20000000000005</ele><time>2026-05-03T10:15:52.485Z</time></trkpt><trkpt lat="42.2355358" lon="13.8162831"><ele>320.40000000000003</ele><time>2026-05-03T10:15:53.478Z</time></trkpt><trkpt lat="42.2354477" lon="13.8163541"><ele>319.6</ele><time>2026-05-03T10:15:54.472Z</time></trkpt><trkpt lat="42.2353597" lon="13.8164383"><ele>318.8</ele><time>2026-05-03T10:15:55.477Z</time></trkpt><trkpt lat="42.2352845" lon="13.816545"><ele>318.0</ele><time>2026-05-03T10:15:56.475Z</time></trkpt><trkpt lat="42.2352218" lon="13.8166759"><ele>318.75</ele><time>2026-05-03T10:15:57.483Z</time></trkpt><trkpt lat="42.2351686" lon="13.8168295"><ele>319.5</ele><time>2026-05-03T10:15:58.473Z</time></trkpt><trkpt lat="42.2351021" lon="13.8169928"><ele>320.25</ele><time>2026-05-03T10:15:59.484Z</time></trkpt><trkpt lat="42.2350172" lon="13.8171608"><ele>321.0</ele><time>2026-05-03T10:16:00.481Z</time></trkpt><trkpt lat="42.2348989" lon="13.8173504"><ele>319.3333333333333</ele><time>2026-05-03T10:16:01.488Z</time></trkpt><trkpt lat="42.2348005" lon="13.8175521"><ele>317.66666666666663</ele><time>2026-05-03T10:16:02.478Z</time></trkpt><trkpt lat="42.2346939" lon="13.8177264"><ele>316.0</ele><time>2026-05-03T10:16:03.488Z</time></trkpt><trkpt lat="42.2345641" lon="13.8178992"><ele>319.3333333333333</ele><time>2026-05-03T10:16:04.482Z</time></trkpt><trkpt lat="42.2344376" lon="13.8180483"><ele>322.6666666666667</ele><time>2026-05-03T10:16:05.481Z</time></trkpt><trkpt lat="42.2342972" lon="13.8181727"><ele>326.0</ele><time>2026-05-03T10:16:06.475Z</time></trkpt><trkpt lat="42.2341318" lon="13.8182618"><ele>326.0</ele><time>2026-05-03T10:16:07.48Z</time></trkpt><trkpt lat="42.233974" lon="13.8183686"><ele>326.0</ele><time>2026-05-03T10:16:08.467Z</time></trkpt><trkpt lat="42.2338151" lon="13.818483"><ele>326.0</ele><time>2026-05-03T10:16:09.473Z</time></trkpt><trkpt lat="42.2336434" lon="13.8185921"><ele>327.6666666666667</ele><time>2026-05-03T10:16:10.475Z</time></trkpt><trkpt lat="42.2334884" lon="13.8187117"><ele>329.3333333333333</ele><time>2026-05-03T10:16:11.478Z</time></trkpt><trkpt lat="42.2333117" lon="13.8187909"><ele>331.0</ele><time>2026-05-03T10:16:12.473Z</time></trkpt><trkpt lat="42.2331525" lon="13.8188813"><ele>327.66666666666663</ele><time>2026-05-03T10:16:13.474Z</time></trkpt><trkpt lat="42.2329853" lon="13.8189596"><ele>324.3333333333333</ele><time>2026-05-03T10:16:14.478Z</time></trkpt><trkpt lat="42.2327954" lon="13.8190048"><ele>321.0</ele><time>2026-05-03T10:16:15.489Z</time></trkpt><trkpt lat="42.2326079" lon="13.8190354"><ele>321.0</ele><time>2026-05-03T10:16:16.481Z</time></trkpt><trkpt lat="42.2324423" lon="13.8190341"><ele>321.0</ele><time>2026-05-03T10:16:17.489Z</time></trkpt><trkpt lat="42.2322842" lon="13.8190389"><ele>321.0</ele><time>2026-05-03T10:16:18.479Z</time></trkpt><trkpt lat="42.2321175" lon="13.8190466"><ele>320.75</ele><time>2026-05-03T10:16:19.491Z</time></trkpt><trkpt lat="42.231977" lon="13.8190612"><ele>320.5</ele><time>2026-05-03T10:16:20.482Z</time></trkpt><trkpt lat="42.2318569" lon="13.8190805"><ele>320.25</ele><time>2026-05-03T10:16:21.489Z</time></trkpt><trkpt lat="42.2317372" lon="13.8191051"><ele>320.0</ele><time>2026-05-03T10:16:22.48Z</time></trkpt><trkpt lat="42.2316196" lon="13.8191358"><ele>320.0</ele><time>2026-05-03T10:16:23.481Z</time></trkpt><trkpt lat="42.2314969" lon="13.8191855"><ele>320.0</ele><time>2026-05-03T10:16:24.483Z</time></trkpt><trkpt lat="42.2313745" lon="13.8192464"><ele>320.0</ele><time>2026-05-03T10:16:25.482Z</time></trkpt><trkpt lat="42.2312583" lon="13.8193255"><ele>320.0</ele><time>2026-05-03T10:16:26.487Z</time></trkpt><trkpt lat="42.2311371" lon="13.8194012"><ele>319.5</ele><time>2026-05-03T10:16:27.478Z</time></trkpt><trkpt lat="42.2310134" lon="13.8194789"><ele>319.0</ele><time>2026-05-03T10:16:28.481Z</time></trkpt><trkpt lat="42.2308795" lon="13.8195359"><ele>318.5</ele><time>2026-05-03T10:16:29.473Z</time></trkpt><trkpt lat="42.2307426" lon="13.8195538"><ele>318.0</ele><time>2026-05-03T10:16:30.485Z</time></trkpt><trkpt lat="42.2305959" lon="13.8195595"><ele>318.0</ele><time>2026-05-03T10:16:31.479Z</time></trkpt><trkpt lat="42.2304339" lon="13.8195756"><ele>318.0</ele><time>2026-05-03T10:16:32.493Z</time></trkpt><trkpt lat="42.2302666" lon="13.819594"><ele>318.0</ele><time>2026-05-03T10:16:33.48Z</time></trkpt><trkpt lat="42.2301218" lon="13.8196257"><ele>318.0</ele><time>2026-05-03T10:16:34.486Z</time></trkpt><trkpt lat="42.2299819" lon="13.8196398"><ele>318.0</ele><time>2026-05-03T10:16:35.477Z</time></trkpt><trkpt lat="42.2298475" lon="13.8196203"><ele>318.0</ele><time>2026-05-03T10:16:36.486Z</time></trkpt><trkpt lat="42.2297056" lon="13.8196065"><ele>318.0</ele><time>2026-05-03T10:16:37.485Z</time></trkpt><trkpt lat="42.2295599" lon="13.8196082"><ele>318.0</ele><time>2026-05-03T10:16:38.488Z</time></trkpt><trkpt lat="42.229436" lon="13.8196309"><ele>318.0</ele><time>2026-05-03T10:16:39.479Z</time></trkpt><trkpt lat="42.2292913" lon="13.819661"><ele>318.0</ele><time>2026-05-03T10:16:40.488Z</time></trkpt><trkpt lat="42.2291461" lon="13.8196843"><ele>318.0</ele><time>2026-05-03T10:16:41.481Z</time></trkpt><trkpt lat="42.2290097" lon="13.8197186"><ele>320.3333333333333</ele><time>2026-05-03T10:16:42.491Z</time></trkpt><trkpt lat="42.2288413" lon="13.8197221"><ele>322.66666666666663</ele><time>2026-05-03T10:16:43.48Z</time></trkpt><trkpt lat="42.228686" lon="13.8197312"><ele>325.0</ele><time>2026-05-03T10:16:44.49Z</time></trkpt><trkpt lat="42.2285385" lon="13.8197197"><ele>325.0</ele><time>2026-05-03T10:16:45.478Z</time></trkpt><trkpt lat="42.228373" lon="13.8196844"><ele>325.0</ele><time>2026-05-03T10:16:46.486Z</time></trkpt><trkpt lat="42.2282178" lon="13.8196331"><ele>325.0</ele><time>2026-05-03T10:16:47.478Z</time></trkpt><trkpt lat="42.2280679" lon="13.8195739"><ele>325.0</ele><time>2026-05-03T10:16:48.476Z</time></trkpt><trkpt lat="42.227914" lon="13.8195294"><ele>325.0</ele><time>2026-05-03T10:16:49.489Z</time></trkpt><trkpt lat="42.2277671" lon="13.8194704"><ele>325.0</ele><time>2026-05-03T10:16:50.485Z</time></trkpt><trkpt lat="42.2276178" lon="13.8194774"><ele>325.0</ele><time>2026-05-03T10:16:51.485Z</time></trkpt><trkpt lat="42.2274824" lon="13.8195254"><ele>325.0</ele><time>2026-05-03T10:16:52.481Z</time></trkpt><trkpt lat="42.2273185" lon="13.8195416"><ele>325.0</ele><time>2026-05-03T10:16:53.492Z</time></trkpt><trkpt lat="42.2271649" lon="13.8195603"><ele>324.5</ele><time>2026-05-03T10:16:54.478Z</time></trkpt><trkpt lat="42.2270057" lon="13.819587"><ele>324.0</ele><time>2026-05-03T10:16:55.487Z</time></trkpt><trkpt lat="42.2268721" lon="13.8196247"><ele>323.5</ele><time>2026-05-03T10:16:56.483Z</time></trkpt><trkpt lat="42.2267441" lon="13.819677"><ele>323.0</ele><time>2026-05-03T10:16:57.485Z</time></trkpt><trkpt lat="42.2266292" lon="13.8197526"><ele>323.0</ele><time>2026-05-03T10:16:58.481Z</time></trkpt><trkpt lat="42.2265257" lon="13.819862"><ele>323.0</ele><time>2026-05-03T10:16:59.476Z</time></trkpt><trkpt lat="42.2264043" lon="13.8199798"><ele>323.0</ele><time>2026-05-03T10:17:00.487Z</time></trkpt><trkpt lat="42.2263187" lon="13.8201428"><ele>323.0</ele><time>2026-05-03T10:17:01.474Z</time></trkpt><trkpt lat="42.2262102" lon="13.8202919"><ele>321.33333333333337</ele><time>2026-05-03T10:17:02.486Z</time></trkpt><trkpt lat="42.2261207" lon="13.8204583"><ele>319.6666666666667</ele><time>2026-05-03T10:17:03.474Z</time></trkpt><trkpt lat="42.2260309" lon="13.8206429"><ele>318.0</ele><time>2026-05-03T10:17:04.484Z</time></trkpt><trkpt lat="42.2259469" lon="13.8208209"><ele>318.25</ele><time>2026-05-03T10:17:05.48Z</time></trkpt><trkpt lat="42.2258869" lon="13.8209965"><ele>318.5</ele><time>2026-05-03T10:17:06.485Z</time></trkpt><trkpt lat="42.2258085" lon="13.82116"><ele>318.75</ele><time>2026-05-03T10:17:07.483Z</time></trkpt><trkpt lat="42.2257223" lon="13.821284"><ele>319.0</ele><time>2026-05-03T10:17:08.479Z</time></trkpt><trkpt lat="42.2256001" lon="13.8214044"><ele>319.0</ele><time>2026-05-03T10:17:09.483Z</time></trkpt><trkpt lat="42.2254659" lon="13.8215032"><ele>319.0</ele><time>2026-05-03T10:17:10.484Z</time></trkpt><trkpt lat="42.2253149" lon="13.8215448"><ele>319.0</ele><time>2026-05-03T10:17:11.482Z</time></trkpt><trkpt lat="42.2251733" lon="13.8216039"><ele>319.0</ele><time>2026-05-03T10:17:12.494Z</time></trkpt><trkpt lat="42.2250414" lon="13.8216259"><ele>319.0</ele><time>2026-05-03T10:17:13.491Z</time></trkpt><trkpt lat="42.2249063" lon="13.8216566"><ele>319.0</ele><time>2026-05-03T10:17:14.489Z</time></trkpt><trkpt lat="42.2247697" lon="13.8217079"><ele>319.0</ele><time>2026-05-03T10:17:15.496Z</time></trkpt><trkpt lat="42.2246254" lon="13.8217614"><ele>320.3333333333333</ele><time>2026-05-03T10:17:16.495Z</time></trkpt><trkpt lat="42.224486" lon="13.82184"><ele>321.6666666666667</ele><time>2026-05-03T10:17:17.496Z</time></trkpt><trkpt lat="42.2243521" lon="13.821932"><ele>323.0</ele><time>2026-05-03T10:17:18.49Z</time></trkpt><trkpt lat="42.2242168" lon="13.8220234"><ele>323.0</ele><time>2026-05-03T10:17:19.489Z</time></trkpt><trkpt lat="42.2240807" lon="13.8221237"><ele>323.0</ele><time>2026-05-03T10:17:20.497Z</time></trkpt><trkpt lat="42.2239497" lon="13.8222382"><ele>323.0</ele><time>2026-05-03T10:17:21.493Z</time></trkpt><trkpt lat="42.2238274" lon="13.8223755"><ele>322.0</ele><time>2026-05-03T10:17:22.493Z</time></trkpt><trkpt lat="42.2236845" lon="13.8224579"><ele>321.0</ele><time>2026-05-03T10:17:23.498Z</time></trkpt><trkpt lat="42.2235298" lon="13.8225402"><ele>320.0</ele><time>2026-05-03T10:17:24.502Z</time></trkpt><trkpt lat="42.2234028" lon="13.8226223"><ele>322.0</ele><time>2026-05-03T10:17:25.488Z</time></trkpt><trkpt lat="42.2232701" lon="13.8226818"><ele>324.0</ele><time>2026-05-03T10:17:26.493Z</time></trkpt><trkpt lat="42.2231157" lon="13.8227281"><ele>326.0</ele><time>2026-05-03T10:17:27.486Z</time></trkpt><trkpt lat="42.2229667" lon="13.8227117"><ele>328.0</ele><time>2026-05-03T10:17:28.489Z</time></trkpt><trkpt lat="42.2228102" lon="13.8226774"><ele>325.3333333333333</ele><time>2026-05-03T10:17:29.484Z</time></trkpt><trkpt lat="42.222659" lon="13.822612"><ele>322.6666666666667</ele><time>2026-05-03T10:17:30.49Z</time></trkpt><trkpt lat="42.222523" lon="13.8225741"><ele>320.0</ele><time>2026-05-03T10:17:31.494Z</time></trkpt><trkpt lat="42.2223652" lon="13.8225557"><ele>322.0</ele><time>2026-05-03T10:17:32.493Z</time></trkpt><trkpt lat="42.2222056" lon="13.822522"><ele>324.0</ele><time>2026-05-03T10:17:33.494Z</time></trkpt><trkpt lat="42.222054" lon="13.8224696"><ele>326.0</ele><time>2026-05-03T10:17:34.492Z</time></trkpt><trkpt lat="42.2219013" lon="13.8223984"><ele>326.0</ele><time>2026-05-03T10:17:35.493Z</time></trkpt><trkpt lat="42.221763" lon="13.8223463"><ele>326.0</ele><time>2026-05-03T10:17:36.49Z</time></trkpt><trkpt lat="42.2216183" lon="13.8222843"><ele>326.0</ele><time>2026-05-03T10:17:37.494Z</time></trkpt><trkpt lat="42.2214783" lon="13.8222545"><ele>326.0</ele><time>2026-05-03T10:17:38.49Z</time></trkpt><trkpt lat="42.2213443" lon="13.8222038"><ele>326.75</ele><time>2026-05-03T10:17:39.49Z</time></trkpt><trkpt lat="42.2212088" lon="13.8221799"><ele>327.5</ele><time>2026-05-03T10:17:40.482Z</time></trkpt><trkpt lat="42.2210725" lon="13.8221686"><ele>328.25</ele><time>2026-05-03T10:17:41.49Z</time></trkpt><trkpt lat="42.2209332" lon="13.8221709"><ele>329.0</ele><time>2026-05-03T10:17:42.489Z</time></trkpt><trkpt lat="42.2208163" lon="13.8221926"><ele>329.0</ele><time>2026-05-03T10:17:43.485Z</time></trkpt><trkpt lat="42.220722" lon="13.822275"><ele>329.0</ele><time>2026-05-03T10:17:44.494Z</time></trkpt><trkpt lat="42.2206236" lon="13.8223673"><ele>329.0</ele><time>2026-05-03T10:17:45.481Z</time></trkpt><trkpt lat="42.2205164" lon="13.8224806"><ele>329.0</ele><time>2026-05-03T10:17:46.484Z</time></trkpt><trkpt lat="42.2204145" lon="13.8226264"><ele>327.75</ele><time>2026-05-03T10:17:47.487Z</time></trkpt><trkpt lat="42.2203074" lon="13.8227729"><ele>326.5</ele><time>2026-05-03T10:17:48.485Z</time></trkpt><trkpt lat="42.2202003" lon="13.822901"><ele>325.25</ele><time>2026-05-03T10:17:49.482Z</time></trkpt><trkpt lat="42.2201004" lon="13.8230257"><ele>324.0</ele><time>2026-05-03T10:17:50.487Z</time></trkpt><trkpt lat="42.22001" lon="13.8231448"><ele>324.0</ele><time>2026-05-03T10:17:51.487Z</time></trkpt><trkpt lat="42.2199061" lon="13.8232466"><ele>324.0</ele><time>2026-05-03T10:17:52.487Z</time></trkpt><trkpt lat="42.2198057" lon="13.8233559"><ele>324.0</ele><time>2026-05-03T10:17:53.491Z</time></trkpt><trkpt lat="42.2197001" lon="13.8234653"><ele>324.0</ele><time>2026-05-03T10:17:54.495Z</time></trkpt><trkpt lat="42.2196049" lon="13.8235776"><ele>323.25</ele><time>2026-05-03T10:17:55.492Z</time></trkpt><trkpt lat="42.2194837" lon="13.823674"><ele>322.5</ele><time>2026-05-03T10:17:56.492Z</time></trkpt><trkpt lat="42.2193496" lon="13.8237455"><ele>321.75</ele><time>2026-05-03T10:17:57.483Z</time></trkpt><trkpt lat="42.219214" lon="13.8238188"><ele>321.0</ele><time>2026-05-03T10:17:58.483Z</time></trkpt><trkpt lat="42.2190811" lon="13.8238805"><ele>321.25</ele><time>2026-05-03T10:17:59.487Z</time></trkpt><trkpt lat="42.2189486" lon="13.8239426"><ele>321.5</ele><time>2026-05-03T10:18:00.49Z</time></trkpt><trkpt lat="42.2188163" lon="13.824004"><ele>321.75</ele><time>2026-05-03T10:18:01.491Z</time></trkpt><trkpt lat="42.2187033" lon="13.8240783"><ele>322.0</ele><time>2026-05-03T10:18:02.49Z</time></trkpt><trkpt lat="42.2185882" lon="13.8241315"><ele>322.0</ele><time>2026-05-03T10:18:03.493Z</time></trkpt><trkpt lat="42.218458" lon="13.8241712"><ele>322.0</ele><time>2026-05-03T10:18:04.497Z</time></trkpt><trkpt lat="42.2183484" lon="13.8242203"><ele>322.0</ele><time>2026-05-03T10:18:05.491Z</time></trkpt><trkpt lat="42.2182258" lon="13.8242636"><ele>322.0</ele><time>2026-05-03T10:18:06.494Z</time></trkpt><trkpt lat="42.2181066" lon="13.8243026"><ele>322.40000000000003</ele><time>2026-05-03T10:18:07.496Z</time></trkpt><trkpt lat="42.2179949" lon="13.8243413"><ele>322.8</ele><time>2026-05-03T10:18:08.493Z</time></trkpt><trkpt lat="42.217888" lon="13.8243797"><ele>323.2</ele><time>2026-05-03T10:18:09.497Z</time></trkpt><trkpt lat="42.217786" lon="13.8244177"><ele>323.6</ele><time>2026-05-03T10:18:10.506Z</time></trkpt><trkpt lat="42.2176826" lon="13.8244696"><ele>324.0</ele><time>2026-05-03T10:18:11.491Z</time></trkpt><trkpt lat="42.2175783" lon="13.824532"><ele>324.0</ele><time>2026-05-03T10:18:12.502Z</time></trkpt><trkpt lat="42.2174722" lon="13.8246025"><ele>324.0</ele><time>2026-05-03T10:18:13.484Z</time></trkpt><trkpt lat="42.2173738" lon="13.8246757"><ele>324.0</ele><time>2026-05-03T10:18:14.488Z</time></trkpt><trkpt lat="42.2172828" lon="13.8247461"><ele>324.0</ele><time>2026-05-03T10:18:15.489Z</time></trkpt><trkpt lat="42.2171981" lon="13.8248041"><ele>324.0</ele><time>2026-05-03T10:18:16.488Z</time></trkpt><trkpt lat="42.2171235" lon="13.824849"><ele>323.6</ele><time>2026-05-03T10:18:17.483Z</time></trkpt><trkpt lat="42.2170565" lon="13.8248734"><ele>323.2</ele><time>2026-05-03T10:18:18.492Z</time></trkpt><trkpt lat="42.21695" lon="13.8247887"><ele>322.8</ele><time>2026-05-03T10:18:20.487Z</time></trkpt><trkpt lat="42.2169189" lon="13.8246823"><ele>322.40000000000003</ele><time>2026-05-03T10:18:21.481Z</time></trkpt><trkpt lat="42.2168802" lon="13.8245489"><ele>322.0</ele><time>2026-05-03T10:18:22.478Z</time></trkpt><trkpt lat="42.2168281" lon="13.8244017"><ele>321.25</ele><time>2026-05-03T10:18:23.481Z</time></trkpt><trkpt lat="42.2167641" lon="13.8242396"><ele>320.5</ele><time>2026-05-03T10:18:24.488Z</time></trkpt><trkpt lat="42.2166959" lon="13.8240719"><ele>319.75</ele><time>2026-05-03T10:18:25.491Z</time></trkpt><trkpt lat="42.2166279" lon="13.8238952"><ele>319.0</ele><time>2026-05-03T10:18:26.496Z</time></trkpt><trkpt lat="42.2165554" lon="13.823704"><ele>319.0</ele><time>2026-05-03T10:18:27.486Z</time></trkpt><trkpt lat="42.2164933" lon="13.8235657"><ele>319.0</ele><time>2026-05-03T10:18:28.493Z</time></trkpt><trkpt lat="42.2164448" lon="13.8234228"><ele>319.0</ele><time>2026-05-03T10:18:29.486Z</time></trkpt><trkpt lat="42.2163823" lon="13.8232929"><ele>319.0</ele><time>2026-05-03T10:18:30.501Z</time></trkpt><trkpt lat="42.2163294" lon="13.8231515"><ele>318.0</ele><time>2026-05-03T10:18:31.488Z</time></trkpt><trkpt lat="42.2162729" lon="13.8230169"><ele>317.0</ele><time>2026-05-03T10:18:32.491Z</time></trkpt><trkpt lat="42.2162067" lon="13.8228778"><ele>316.0</ele><time>2026-05-03T10:18:33.487Z</time></trkpt><trkpt lat="42.216147" lon="13.8227451"><ele>315.0</ele><time>2026-05-03T10:18:34.492Z</time></trkpt><trkpt lat="42.2160939" lon="13.8226189"><ele>315.0</ele><time>2026-05-03T10:18:35.485Z</time></trkpt><trkpt lat="42.216035" lon="13.8225064"><ele>315.0</ele><time>2026-05-03T10:18:36.489Z</time></trkpt><trkpt lat="42.2159749" lon="13.8223998"><ele>315.0</ele><time>2026-05-03T10:18:37.494Z</time></trkpt><trkpt lat="42.2159114" lon="13.8223177"><ele>315.0</ele><time>2026-05-03T10:18:38.489Z</time></trkpt><trkpt lat="42.2158299" lon="13.8222625"><ele>315.0</ele><time>2026-05-03T10:18:39.482Z</time></trkpt><trkpt lat="42.2157221" lon="13.8222389"><ele>315.4</ele><time>2026-05-03T10:18:40.483Z</time></trkpt><trkpt lat="42.2156124" lon="13.8222312"><ele>315.8</ele><time>2026-05-03T10:18:41.481Z</time></trkpt><trkpt lat="42.2154962" lon="13.8222395"><ele>316.2</ele><time>2026-05-03T10:18:42.484Z</time></trkpt><trkpt lat="42.2153908" lon="13.8222694"><ele>316.6</ele><time>2026-05-03T10:18:43.482Z</time></trkpt><trkpt lat="42.2152873" lon="13.8223133"><ele>317.0</ele><time>2026-05-03T10:18:44.491Z</time></trkpt><trkpt lat="42.2151846" lon="13.822376"><ele>317.0</ele><time>2026-05-03T10:18:45.486Z</time></trkpt><trkpt lat="42.2150838" lon="13.8224438"><ele>317.0</ele><time>2026-05-03T10:18:46.493Z</time></trkpt><trkpt lat="42.2149858" lon="13.8225125"><ele>317.0</ele><time>2026-05-03T10:18:47.48Z</time></trkpt><trkpt lat="42.2148865" lon="13.8225762"><ele>317.0</ele><time>2026-05-03T10:18:48.49Z</time></trkpt><trkpt lat="42.2147911" lon="13.8226421"><ele>317.0</ele><time>2026-05-03T10:18:49.494Z</time></trkpt><trkpt lat="42.2146936" lon="13.8226985"><ele>317.0</ele><time>2026-05-03T10:18:50.484Z</time></trkpt><trkpt lat="42.2145957" lon="13.8227423"><ele>317.0</ele><time>2026-05-03T10:18:51.493Z</time></trkpt><trkpt lat="42.2145013" lon="13.8227717"><ele>317.0</ele><time>2026-05-03T10:18:52.486Z</time></trkpt><trkpt lat="42.2144144" lon="13.8227754"><ele>317.0</ele><time>2026-05-03T10:18:53.485Z</time></trkpt><trkpt lat="42.2143379" lon="13.8227503"><ele>317.0</ele><time>2026-05-03T10:18:54.488Z</time></trkpt><trkpt lat="42.2142516" lon="13.8226374"><ele>317.0</ele><time>2026-05-03T10:18:56.489Z</time></trkpt><trkpt lat="42.2141875" lon="13.8225242"><ele>317.0</ele><time>2026-05-03T10:18:58.488Z</time></trkpt><trkpt lat="42.214153" lon="13.822405"><ele>317.0</ele><time>2026-05-03T10:19:00.483Z</time></trkpt><trkpt lat="42.2141081" lon="13.8223004"><ele>317.0</ele><time>2026-05-03T10:19:02.485Z</time></trkpt><trkpt lat="42.2140768" lon="13.8222074"><ele>317.0</ele><time>2026-05-03T10:19:04.483Z</time></trkpt><trkpt lat="42.2140719" lon="13.8221184"><ele>317.0</ele><time>2026-05-03T10:19:06.491Z</time></trkpt><trkpt lat="42.2140691" lon="13.8220324"><ele>317.0</ele><time>2026-05-03T10:19:08.482Z</time></trkpt><trkpt lat="42.2141349" lon="13.8219471"><ele>317.0</ele><time>2026-05-03T10:19:10.478Z</time></trkpt><trkpt lat="42.2141889" lon="13.8218948"><ele>317.0</ele><time>2026-05-03T10:19:11.489Z</time></trkpt><trkpt lat="42.2142474" lon="13.821846"><ele>317.0</ele><time>2026-05-03T10:19:12.485Z</time></trkpt><trkpt lat="42.2142957" lon="13.8217914"><ele>317.0</ele><time>2026-05-03T10:19:13.48Z</time></trkpt><trkpt lat="42.2143457" lon="13.8217342"><ele>317.0</ele><time>2026-05-03T10:19:14.483Z</time></trkpt><trkpt lat="42.2143932" lon="13.8216722"><ele>317.0</ele><time>2026-05-03T10:19:15.489Z</time></trkpt><trkpt lat="42.2144437" lon="13.8216134"><ele>317.0</ele><time>2026-05-03T10:19:16.485Z</time></trkpt><trkpt lat="42.2144951" lon="13.8215487"><ele>317.0</ele><time>2026-05-03T10:19:17.487Z</time></trkpt><trkpt lat="42.2145424" lon="13.8214859"><ele>317.0</ele><time>2026-05-03T10:19:18.492Z</time></trkpt><trkpt lat="42.2146304" lon="13.8213816"><ele>317.0</ele><time>2026-05-03T10:19:20.49Z</time></trkpt><trkpt lat="42.2147203" lon="13.8212618"><ele>317.0</ele><time>2026-05-03T10:19:22.493Z</time></trkpt><trkpt lat="42.214767" lon="13.8211988"><ele>317.0</ele><time>2026-05-03T10:19:23.481Z</time></trkpt><trkpt lat="42.2148542" lon="13.8210793"><ele>317.4</ele><time>2026-05-03T10:19:25.485Z</time></trkpt><trkpt lat="42.2149281" lon="13.8209632"><ele>317.79999999999995</ele><time>2026-05-03T10:19:27.487Z</time></trkpt><trkpt lat="42.2149952" lon="13.8208744"><ele>318.2</ele><time>2026-05-03T10:19:29.491Z</time></trkpt><trkpt lat="42.2150471" lon="13.8207894"><ele>318.59999999999997</ele><time>2026-05-03T10:19:31.482Z</time></trkpt><trkpt lat="42.2150486" lon="13.8206866"><ele>319.0</ele><time>2026-05-03T10:19:33.487Z</time></trkpt><trkpt lat="42.2150057" lon="13.8205775"><ele>319.0</ele><time>2026-05-03T10:19:35.49Z</time></trkpt><trkpt lat="42.2149613" lon="13.8204731"><ele>319.0</ele><time>2026-05-03T10:19:37.492Z</time></trkpt><trkpt lat="42.2149099" lon="13.8204055"><ele>319.0</ele><time>2026-05-03T10:19:39.489Z</time></trkpt><trkpt lat="42.2149663" lon="13.8204516"><ele>319.0</ele><time>2026-05-03T10:23:43.485Z</time></trkpt><trkpt lat="42.2149869" lon="13.8205579"><ele>319.0</ele><time>2026-05-03T10:23:46.495Z</time></trkpt><trkpt lat="42.2150056" lon="13.8206503"><ele>319.0</ele><time>2026-05-03T10:23:49.489Z</time></trkpt><trkpt lat="42.2149574" lon="13.8207563"><ele>319.0</ele><time>2026-05-03T10:23:57.489Z</time></trkpt><trkpt lat="42.2149084" lon="13.8208357"><ele>319.0</ele><time>2026-05-03T10:23:58.485Z</time></trkpt><trkpt lat="42.2148528" lon="13.8209224"><ele>319.0</ele><time>2026-05-03T10:23:59.494Z</time></trkpt><trkpt lat="42.214789" lon="13.8210118"><ele>319.0</ele><time>2026-05-03T10:24:00.486Z</time></trkpt><trkpt lat="42.2147226" lon="13.8211059"><ele>319.0</ele><time>2026-05-03T10:24:01.495Z</time></trkpt><trkpt lat="42.2146499" lon="13.8212084"><ele>319.0</ele><time>2026-05-03T10:24:02.49Z</time></trkpt><trkpt lat="42.214582" lon="13.8213075"><ele>319.0</ele><time>2026-05-03T10:24:03.497Z</time></trkpt><trkpt lat="42.2145238" lon="13.8213987"><ele>319.0</ele><time>2026-05-03T10:24:04.486Z</time></trkpt><trkpt lat="42.2144663" lon="13.8214868"><ele>319.0</ele><time>2026-05-03T10:24:05.492Z</time></trkpt><trkpt lat="42.2144038" lon="13.8215755"><ele>319.0</ele><time>2026-05-03T10:24:06.484Z</time></trkpt><trkpt lat="42.2143362" lon="13.8216651"><ele>319.0</ele><time>2026-05-03T10:24:07.488Z</time></trkpt><trkpt lat="42.2142703" lon="13.8217465"><ele>319.0</ele><time>2026-05-03T10:24:08.48Z</time></trkpt><trkpt lat="42.2142055" lon="13.8218184"><ele>319.0</ele><time>2026-05-03T10:24:09.489Z</time></trkpt><trkpt lat="42.2141455" lon="13.821883"><ele>319.0</ele><time>2026-05-03T10:24:10.486Z</time></trkpt><trkpt lat="42.2140793" lon="13.8219452"><ele>319.0</ele><time>2026-05-03T10:24:11.488Z</time></trkpt><trkpt lat="42.2140109" lon="13.8219945"><ele>319.0</ele><time>2026-05-03T10:24:12.478Z</time></trkpt><trkpt lat="42.2139501" lon="13.8220336"><ele>318.66666666666663</ele><time>2026-05-03T10:24:13.491Z</time></trkpt><trkpt lat="42.2138512" lon="13.8220689"><ele>318.3333333333333</ele><time>2026-05-03T10:24:15.483Z</time></trkpt><trkpt lat="42.2137727" lon="13.822068"><ele>318.0</ele><time>2026-05-03T10:24:17.493Z</time></trkpt><trkpt lat="42.213671" lon="13.8221167"><ele>317.6666666666667</ele><time>2026-05-03T10:24:19.492Z</time></trkpt><trkpt lat="42.2136004" lon="13.822146"><ele>317.33333333333337</ele><time>2026-05-03T10:24:20.488Z</time></trkpt><trkpt lat="42.2135214" lon="13.822173"><ele>317.0</ele><time>2026-05-03T10:24:21.483Z</time></trkpt><trkpt lat="42.2134362" lon="13.8221921"><ele>317.0</ele><time>2026-05-03T10:24:22.487Z</time></trkpt><trkpt lat="42.2133556" lon="13.8222163"><ele>317.0</ele><time>2026-05-03T10:24:23.48Z</time></trkpt><trkpt lat="42.2132823" lon="13.8222379"><ele>317.0</ele><time>2026-05-03T10:24:24.487Z</time></trkpt><trkpt lat="42.2132162" lon="13.8222524"><ele>317.0</ele><time>2026-05-03T10:24:25.482Z</time></trkpt><trkpt lat="42.2131249" lon="13.8222137"><ele>317.0</ele><time>2026-05-03T10:24:27.477Z</time></trkpt><trkpt lat="42.2131176" lon="13.8220395"><ele>317.0</ele><time>2026-05-03T10:24:29.476Z</time></trkpt><trkpt lat="42.213136" lon="13.8219322"><ele>317.0</ele><time>2026-05-03T10:24:30.49Z</time></trkpt><trkpt lat="42.2131589" lon="13.8218204"><ele>317.0</ele><time>2026-05-03T10:24:31.48Z</time></trkpt><trkpt lat="42.2131757" lon="13.821691"><ele>317.0</ele><time>2026-05-03T10:24:32.488Z</time></trkpt><trkpt lat="42.2131893" lon="13.8215447"><ele>317.0</ele><time>2026-05-03T10:24:33.481Z</time></trkpt><trkpt lat="42.2132107" lon="13.8214005"><ele>317.0</ele><time>2026-05-03T10:24:34.481Z</time></trkpt><trkpt lat="42.2132288" lon="13.8212636"><ele>317.2</ele><time>2026-05-03T10:24:35.49Z</time></trkpt><trkpt lat="42.2132411" lon="13.8211296"><ele>317.4</ele><time>2026-05-03T10:24:36.48Z</time></trkpt><trkpt lat="42.2132564" lon="13.8209948"><ele>317.6</ele><time>2026-05-03T10:24:37.487Z</time></trkpt><trkpt lat="42.2132693" lon="13.8208601"><ele>317.8</ele><time>2026-05-03T10:24:38.481Z</time></trkpt><trkpt lat="42.21327" lon="13.8207295"><ele>318.0</ele><time>2026-05-03T10:24:39.481Z</time></trkpt><trkpt lat="42.2132595" lon="13.8205883"><ele>317.4</ele><time>2026-05-03T10:24:40.483Z</time></trkpt><trkpt lat="42.2132457" lon="13.8204501"><ele>316.8</ele><time>2026-05-03T10:24:41.481Z</time></trkpt><trkpt lat="42.2132338" lon="13.8203105"><ele>316.2</ele><time>2026-05-03T10:24:42.48Z</time></trkpt><trkpt lat="42.2132329" lon="13.820191"><ele>315.6</ele><time>2026-05-03T10:24:43.484Z</time></trkpt><trkpt lat="42.2132442" lon="13.8200836"><ele>315.0</ele><time>2026-05-03T10:24:44.476Z</time></trkpt><trkpt lat="42.2132738" lon="13.81999"><ele>315.0</ele><time>2026-05-03T10:24:45.488Z</time></trkpt><trkpt lat="42.2133413" lon="13.8199374"><ele>315.0</ele><time>2026-05-03T10:24:46.484Z</time></trkpt><trkpt lat="42.2134333" lon="13.8199362"><ele>315.0</ele><time>2026-05-03T10:24:47.484Z</time></trkpt><trkpt lat="42.213519" lon="13.8199829"><ele>315.0</ele><time>2026-05-03T10:24:48.483Z</time></trkpt><trkpt lat="42.2135786" lon="13.8200718"><ele>315.0</ele><time>2026-05-03T10:24:49.491Z</time></trkpt><trkpt lat="42.2136022" lon="13.8201904"><ele>315.0</ele><time>2026-05-03T10:24:50.473Z</time></trkpt><trkpt lat="42.2136074" lon="13.8203032"><ele>315.0</ele><time>2026-05-03T10:24:51.489Z</time></trkpt><trkpt lat="42.2135848" lon="13.8203991"><ele>315.0</ele><time>2026-05-03T10:24:52.48Z</time></trkpt><trkpt lat="42.2135253" lon="13.8204853"><ele>315.0</ele><time>2026-05-03T10:24:53.477Z</time></trkpt><trkpt lat="42.2134377" lon="13.8205622"><ele>315.0</ele><time>2026-05-03T10:24:54.487Z</time></trkpt><trkpt lat="42.2133218" lon="13.8206433"><ele>315.0</ele><time>2026-05-03T10:24:55.492Z</time></trkpt><trkpt lat="42.2131863" lon="13.8207249"><ele>315.0</ele><time>2026-05-03T10:24:56.479Z</time></trkpt><trkpt lat="42.2130101" lon="13.8208162"><ele>315.0</ele><time>2026-05-03T10:24:57.482Z</time></trkpt><trkpt lat="42.2128376" lon="13.8209095"><ele>315.0</ele><time>2026-05-03T10:24:58.475Z</time></trkpt><trkpt lat="42.2126635" lon="13.8210116"><ele>315.0</ele><time>2026-05-03T10:24:59.49Z</time></trkpt><trkpt lat="42.2124939" lon="13.8211221"><ele>315.0</ele><time>2026-05-03T10:25:00.481Z</time></trkpt><trkpt lat="42.2123207" lon="13.8212349"><ele>315.0</ele><time>2026-05-03T10:25:01.489Z</time></trkpt><trkpt lat="42.2121389" lon="13.8213506"><ele>315.3333333333333</ele><time>2026-05-03T10:25:02.485Z</time></trkpt><trkpt lat="42.2119588" lon="13.8214668"><ele>315.66666666666663</ele><time>2026-05-03T10:25:03.494Z</time></trkpt><trkpt lat="42.2117644" lon="13.8215948"><ele>316.0</ele><time>2026-05-03T10:25:04.484Z</time></trkpt><trkpt lat="42.2115574" lon="13.821725"><ele>314.66666666666663</ele><time>2026-05-03T10:25:05.485Z</time></trkpt><trkpt lat="42.2113497" lon="13.8218405"><ele>313.3333333333333</ele><time>2026-05-03T10:25:06.484Z</time></trkpt><trkpt lat="42.2111495" lon="13.8219645"><ele>312.0</ele><time>2026-05-03T10:25:07.487Z</time></trkpt><trkpt lat="42.2109532" lon="13.82209"><ele>312.0</ele><time>2026-05-03T10:25:08.49Z</time></trkpt><trkpt lat="42.2107582" lon="13.8222102"><ele>312.0</ele><time>2026-05-03T10:25:09.487Z</time></trkpt><trkpt lat="42.2105524" lon="13.8223372"><ele>312.0</ele><time>2026-05-03T10:25:10.493Z</time></trkpt><trkpt lat="42.2103589" lon="13.8224732"><ele>311.6666666666667</ele><time>2026-05-03T10:25:11.483Z</time></trkpt><trkpt lat="42.2101582" lon="13.8225924"><ele>311.33333333333337</ele><time>2026-05-03T10:25:12.491Z</time></trkpt><trkpt lat="42.2099607" lon="13.8227326"><ele>311.0</ele><time>2026-05-03T10:25:13.48Z</time></trkpt><trkpt lat="42.2097658" lon="13.8228615"><ele>313.0</ele><time>2026-05-03T10:25:14.487Z</time></trkpt><trkpt lat="42.2095791" lon="13.8230037"><ele>315.0</ele><time>2026-05-03T10:25:15.492Z</time></trkpt><trkpt lat="42.2093817" lon="13.8231322"><ele>317.0</ele><time>2026-05-03T10:25:16.484Z</time></trkpt><trkpt lat="42.2092003" lon="13.82327"><ele>317.0</ele><time>2026-05-03T10:25:17.499Z</time></trkpt><trkpt lat="42.2090334" lon="13.8234119"><ele>317.0</ele><time>2026-05-03T10:25:18.483Z</time></trkpt><trkpt lat="42.2088617" lon="13.8235496"><ele>317.0</ele><time>2026-05-03T10:25:19.495Z</time></trkpt><trkpt lat="42.2086963" lon="13.8236903"><ele>317.6666666666667</ele><time>2026-05-03T10:25:20.486Z</time></trkpt><trkpt lat="42.2085366" lon="13.8238373"><ele>318.3333333333333</ele><time>2026-05-03T10:25:21.492Z</time></trkpt><trkpt lat="42.2083729" lon="13.8239911"><ele>319.0</ele><time>2026-05-03T10:25:22.484Z</time></trkpt><trkpt lat="42.2082218" lon="13.8241529"><ele>322.3333333333333</ele><time>2026-05-03T10:25:23.49Z</time></trkpt><trkpt lat="42.2080815" lon="13.8243175"><ele>325.6666666666667</ele><time>2026-05-03T10:25:24.472Z</time></trkpt><trkpt lat="42.2079577" lon="13.824492"><ele>329.0</ele><time>2026-05-03T10:25:25.487Z</time></trkpt><trkpt lat="42.2078469" lon="13.824663"><ele>329.0</ele><time>2026-05-03T10:25:26.475Z</time></trkpt><trkpt lat="42.2077457" lon="13.8248348"><ele>329.0</ele><time>2026-05-03T10:25:27.485Z</time></trkpt><trkpt lat="42.207645" lon="13.8250209"><ele>329.0</ele><time>2026-05-03T10:25:28.481Z</time></trkpt><trkpt lat="42.2075387" lon="13.8252219"><ele>332.6666666666667</ele><time>2026-05-03T10:25:29.482Z</time></trkpt><trkpt lat="42.2074163" lon="13.8254427"><ele>336.3333333333333</ele><time>2026-05-03T10:25:30.487Z</time></trkpt><trkpt lat="42.2073079" lon="13.825668"><ele>340.0</ele><time>2026-05-03T10:25:31.49Z</time></trkpt><trkpt lat="42.2072001" lon="13.825899"><ele>331.0</ele><time>2026-05-03T10:25:32.479Z</time></trkpt><trkpt lat="42.2070799" lon="13.8261332"><ele>322.0</ele><time>2026-05-03T10:25:33.482Z</time></trkpt><trkpt lat="42.2069644" lon="13.8263603"><ele>313.0</ele><time>2026-05-03T10:25:34.474Z</time></trkpt><trkpt lat="42.2068119" lon="13.8265647"><ele>313.0</ele><time>2026-05-03T10:25:35.485Z</time></trkpt><trkpt lat="42.2066517" lon="13.8267411"><ele>313.0</ele><time>2026-05-03T10:25:36.478Z</time></trkpt><trkpt lat="42.2064802" lon="13.8269233"><ele>313.0</ele><time>2026-05-03T10:25:37.484Z</time></trkpt><trkpt lat="42.2063338" lon="13.8271289"><ele>310.3333333333333</ele><time>2026-05-03T10:25:38.477Z</time></trkpt><trkpt lat="42.2061872" lon="13.8273435"><ele>307.6666666666667</ele><time>2026-05-03T10:25:39.485Z</time></trkpt><trkpt lat="42.2060527" lon="13.8275696"><ele>305.0</ele><time>2026-05-03T10:25:40.482Z</time></trkpt><trkpt lat="42.2059434" lon="13.827823"><ele>305.0</ele><time>2026-05-03T10:25:41.482Z</time></trkpt><trkpt lat="42.2058705" lon="13.8280927"><ele>305.0</ele><time>2026-05-03T10:25:42.476Z</time></trkpt><trkpt lat="42.2058243" lon="13.8283737"><ele>305.0</ele><time>2026-05-03T10:25:43.484Z</time></trkpt><trkpt lat="42.2057846" lon="13.8286723"><ele>308.0</ele><time>2026-05-03T10:25:44.48Z</time></trkpt><trkpt lat="42.2057415" lon="13.828951"><ele>311.0</ele><time>2026-05-03T10:25:45.482Z</time></trkpt><trkpt lat="42.2056861" lon="13.8292483"><ele>314.0</ele><time>2026-05-03T10:25:46.476Z</time></trkpt><trkpt lat="42.2056338" lon="13.8295509"><ele>314.0</ele><time>2026-05-03T10:25:47.485Z</time></trkpt><trkpt lat="42.2055904" lon="13.829841"><ele>314.0</ele><time>2026-05-03T10:25:48.481Z</time></trkpt><trkpt lat="42.2055671" lon="13.8301222"><ele>314.0</ele><time>2026-05-03T10:25:49.491Z</time></trkpt><trkpt lat="42.2055151" lon="13.8304024"><ele>310.6666666666667</ele><time>2026-05-03T10:25:50.488Z</time></trkpt><trkpt lat="42.2054687" lon="13.8306884"><ele>307.3333333333333</ele><time>2026-05-03T10:25:51.486Z</time></trkpt><trkpt lat="42.2054134" lon="13.830962"><ele>304.0</ele><time>2026-05-03T10:25:52.488Z</time></trkpt><trkpt lat="42.205348" lon="13.8312629"><ele>301.3333333333333</ele><time>2026-05-03T10:25:53.482Z</time></trkpt><trkpt lat="42.2052972" lon="13.831541"><ele>298.6666666666667</ele><time>2026-05-03T10:25:54.484Z</time></trkpt><trkpt lat="42.2052327" lon="13.831844"><ele>296.0</ele><time>2026-05-03T10:25:55.48Z</time></trkpt><trkpt lat="42.2051495" lon="13.8321349"><ele>289.0</ele><time>2026-05-03T10:25:56.489Z</time></trkpt><trkpt lat="42.2050511" lon="13.8324143"><ele>282.0</ele><time>2026-05-03T10:25:57.477Z</time></trkpt><trkpt lat="42.2049571" lon="13.8326997"><ele>275.0</ele><time>2026-05-03T10:25:58.487Z</time></trkpt><trkpt lat="42.2048467" lon="13.83296"><ele>268.0</ele><time>2026-05-03T10:25:59.478Z</time></trkpt><trkpt lat="42.2047236" lon="13.8332265"><ele>275.0</ele><time>2026-05-03T10:26:00.492Z</time></trkpt><trkpt lat="42.2045961" lon="13.8334912"><ele>282.0</ele><time>2026-05-03T10:26:01.485Z</time></trkpt><trkpt lat="42.2044838" lon="13.8337617"><ele>282.0</ele><time>2026-05-03T10:26:02.491Z</time></trkpt><trkpt lat="42.2043608" lon="13.8340273"><ele>282.0</ele><time>2026-05-03T10:26:03.481Z</time></trkpt><trkpt lat="42.2042574" lon="13.8342806"><ele>282.0</ele><time>2026-05-03T10:26:04.482Z</time></trkpt><trkpt lat="42.2041607" lon="13.8345459"><ele>279.6666666666667</ele><time>2026-05-03T10:26:05.481Z</time></trkpt><trkpt lat="42.204064" lon="13.8348037"><ele>277.33333333333337</ele><time>2026-05-03T10:26:06.485Z</time></trkpt><trkpt lat="42.2039858" lon="13.8350396"><ele>275.0</ele><time>2026-05-03T10:26:07.478Z</time></trkpt><trkpt lat="42.2038909" lon="13.8352732"><ele>275.0</ele><time>2026-05-03T10:26:08.489Z</time></trkpt><trkpt lat="42.2038065" lon="13.835518"><ele>275.0</ele><time>2026-05-03T10:26:09.482Z</time></trkpt><trkpt lat="42.2037099" lon="13.8357457"><ele>275.0</ele><time>2026-05-03T10:26:10.488Z</time></trkpt><trkpt lat="42.2036102" lon="13.8359534"><ele>271.33333333333337</ele><time>2026-05-03T10:26:11.481Z</time></trkpt><trkpt lat="42.2034987" lon="13.8361246"><ele>267.6666666666667</ele><time>2026-05-03T10:26:12.486Z</time></trkpt><trkpt lat="42.2033306" lon="13.8362772"><ele>264.0</ele><time>2026-05-03T10:26:13.482Z</time></trkpt><trkpt lat="42.2031392" lon="13.8364542"><ele>264.0</ele><time>2026-05-03T10:26:14.495Z</time></trkpt><trkpt lat="42.2029614" lon="13.8366462"><ele>264.0</ele><time>2026-05-03T10:26:15.482Z</time></trkpt><trkpt lat="42.2027828" lon="13.8368095"><ele>264.0</ele><time>2026-05-03T10:26:16.49Z</time></trkpt><trkpt lat="42.2025888" lon="13.8369365"><ele>260.6666666666667</ele><time>2026-05-03T10:26:17.481Z</time></trkpt><trkpt lat="42.202398" lon="13.8370352"><ele>257.33333333333337</ele><time>2026-05-03T10:26:18.491Z</time></trkpt><trkpt lat="42.2021977" lon="13.8371028"><ele>254.0</ele><time>2026-05-03T10:26:19.486Z</time></trkpt><trkpt lat="42.2019845" lon="13.8371627"><ele>254.0</ele><time>2026-05-03T10:26:20.489Z</time></trkpt><trkpt lat="42.2017823" lon="13.8372191"><ele>254.0</ele><time>2026-05-03T10:26:21.485Z</time></trkpt><trkpt lat="42.2015785" lon="13.8372542"><ele>254.0</ele><time>2026-05-03T10:26:22.484Z</time></trkpt><trkpt lat="42.2013741" lon="13.8372858"><ele>255.0</ele><time>2026-05-03T10:26:23.492Z</time></trkpt><trkpt lat="42.2011737" lon="13.8373167"><ele>256.0</ele><time>2026-05-03T10:26:24.486Z</time></trkpt><trkpt lat="42.2009708" lon="13.8373388"><ele>257.0</ele><time>2026-05-03T10:26:25.492Z</time></trkpt><trkpt lat="42.2007713" lon="13.8373637"><ele>259.0</ele><time>2026-05-03T10:26:26.485Z</time></trkpt><trkpt lat="42.2005699" lon="13.8374096"><ele>261.0</ele><time>2026-05-03T10:26:27.493Z</time></trkpt><trkpt lat="42.2003608" lon="13.8374449"><ele>263.0</ele><time>2026-05-03T10:26:28.486Z</time></trkpt><trkpt lat="42.2001348" lon="13.8374859"><ele>263.0</ele><time>2026-05-03T10:26:29.495Z</time></trkpt><trkpt lat="42.1999093" lon="13.8375385"><ele>263.0</ele><time>2026-05-03T10:26:30.485Z</time></trkpt><trkpt lat="42.1996889" lon="13.8375782"><ele>265.0</ele><time>2026-05-03T10:26:31.491Z</time></trkpt><trkpt lat="42.1994714" lon="13.8376121"><ele>267.0</ele><time>2026-05-03T10:26:32.482Z</time></trkpt><trkpt lat="42.1992648" lon="13.8376522"><ele>269.0</ele><time>2026-05-03T10:26:33.491Z</time></trkpt><trkpt lat="42.1990596" lon="13.8376648"><ele>268.0</ele><time>2026-05-03T10:26:34.479Z</time></trkpt><trkpt lat="42.198855" lon="13.8376624"><ele>267.0</ele><time>2026-05-03T10:26:35.483Z</time></trkpt><trkpt lat="42.1986402" lon="13.8376137"><ele>266.0</ele><time>2026-05-03T10:26:36.477Z</time></trkpt><trkpt lat="42.1984431" lon="13.8375433"><ele>266.0</ele><time>2026-05-03T10:26:37.483Z</time></trkpt><trkpt lat="42.1982383" lon="13.8375113"><ele>266.0</ele><time>2026-05-03T10:26:38.472Z</time></trkpt><trkpt lat="42.1980266" lon="13.8374836"><ele>266.0</ele><time>2026-05-03T10:26:39.479Z</time></trkpt><trkpt lat="42.1978158" lon="13.8374778"><ele>265.33333333333337</ele><time>2026-05-03T10:26:40.48Z</time></trkpt><trkpt lat="42.1976217" lon="13.8375097"><ele>264.6666666666667</ele><time>2026-05-03T10:26:41.488Z</time></trkpt><trkpt lat="42.197437" lon="13.8375789"><ele>264.0</ele><time>2026-05-03T10:26:42.482Z</time></trkpt><trkpt lat="42.1972568" lon="13.8376864"><ele>265.6666666666667</ele><time>2026-05-03T10:26:43.479Z</time></trkpt><trkpt lat="42.1970701" lon="13.8377854"><ele>267.33333333333337</ele><time>2026-05-03T10:26:44.484Z</time></trkpt><trkpt lat="42.1968995" lon="13.8379169"><ele>269.0</ele><time>2026-05-03T10:26:45.483Z</time></trkpt><trkpt lat="42.1967453" lon="13.8381009"><ele>269.0</ele><time>2026-05-03T10:26:46.487Z</time></trkpt><trkpt lat="42.1966037" lon="13.8383152"><ele>269.0</ele><time>2026-05-03T10:26:47.494Z</time></trkpt><trkpt lat="42.1964618" lon="13.8385413"><ele>269.0</ele><time>2026-05-03T10:26:48.481Z</time></trkpt><trkpt lat="42.196325" lon="13.8387876"><ele>275.0</ele><time>2026-05-03T10:26:49.482Z</time></trkpt><trkpt lat="42.1962093" lon="13.8390484"><ele>281.0</ele><time>2026-05-03T10:26:50.475Z</time></trkpt><trkpt lat="42.1961128" lon="13.8393286"><ele>281.0</ele><time>2026-05-03T10:26:51.477Z</time></trkpt><trkpt lat="42.1960452" lon="13.8396069"><ele>281.0</ele><time>2026-05-03T10:26:52.483Z</time></trkpt><trkpt lat="42.1959899" lon="13.8399044"><ele>281.0</ele><time>2026-05-03T10:26:53.475Z</time></trkpt><trkpt lat="42.1959759" lon="13.8402091"><ele>279.0</ele><time>2026-05-03T10:26:54.478Z</time></trkpt><trkpt lat="42.1959753" lon="13.8405014"><ele>277.0</ele><time>2026-05-03T10:26:55.477Z</time></trkpt><trkpt lat="42.19599" lon="13.8407699"><ele>275.0</ele><time>2026-05-03T10:26:56.475Z</time></trkpt><trkpt lat="42.1959922" lon="13.8410473"><ele>272.33333333333337</ele><time>2026-05-03T10:26:57.473Z</time></trkpt><trkpt lat="42.1959806" lon="13.8413205"><ele>269.6666666666667</ele><time>2026-05-03T10:26:58.469Z</time></trkpt><trkpt lat="42.1959367" lon="13.8415706"><ele>267.0</ele><time>2026-05-03T10:26:59.47Z</time></trkpt><trkpt lat="42.1958692" lon="13.841821"><ele>263.3333333333333</ele><time>2026-05-03T10:27:00.471Z</time></trkpt><trkpt lat="42.1957754" lon="13.8420381"><ele>259.66666666666663</ele><time>2026-05-03T10:27:01.474Z</time></trkpt><trkpt lat="42.1956987" lon="13.8422655"><ele>256.0</ele><time>2026-05-03T10:27:02.475Z</time></trkpt><trkpt lat="42.1955758" lon="13.8424502"><ele>280.66666666666663</ele><time>2026-05-03T10:27:03.465Z</time></trkpt><trkpt lat="42.1954644" lon="13.8426531"><ele>305.3333333333333</ele><time>2026-05-03T10:27:04.473Z</time></trkpt><trkpt lat="42.1953542" lon="13.8428297"><ele>330.0</ele><time>2026-05-03T10:27:05.466Z</time></trkpt><trkpt lat="42.1951498" lon="13.8429961"><ele>330.0</ele><time>2026-05-03T10:27:06.47Z</time></trkpt><trkpt lat="42.1949816" lon="13.8432116"><ele>330.0</ele><time>2026-05-03T10:27:07.461Z</time></trkpt><trkpt lat="42.1948111" lon="13.84339"><ele>330.0</ele><time>2026-05-03T10:27:08.455Z</time></trkpt><trkpt lat="42.194639" lon="13.8435713"><ele>345.0</ele><time>2026-05-03T10:27:09.443Z</time></trkpt><trkpt lat="42.1944665" lon="13.8437535"><ele>360.0</ele><time>2026-05-03T10:27:10.438Z</time></trkpt><trkpt lat="42.1914444" lon="13.8467665"><ele>331.0</ele><time>2026-05-03T10:27:27.462Z</time></trkpt><trkpt lat="42.1913236" lon="13.8468727"><ele>302.0</ele><time>2026-05-03T10:27:28.494Z</time></trkpt><trkpt lat="42.1912208" lon="13.8469722"><ele>273.0</ele><time>2026-05-03T10:27:29.495Z</time></trkpt><trkpt lat="42.1911046" lon="13.8470468"><ele>244.0</ele><time>2026-05-03T10:27:30.495Z</time></trkpt><trkpt lat="42.1909764" lon="13.8471641"><ele>244.0</ele><time>2026-05-03T10:27:31.494Z</time></trkpt><trkpt lat="42.1908407" lon="13.8472616"><ele>244.0</ele><time>2026-05-03T10:27:32.49Z</time></trkpt><trkpt lat="42.190744" lon="13.847362"><ele>244.0</ele><time>2026-05-03T10:27:33.49Z</time></trkpt><trkpt lat="42.1906395" lon="13.8474434"><ele>244.0</ele><time>2026-05-03T10:27:34.493Z</time></trkpt><trkpt lat="42.1905428" lon="13.8475101"><ele>244.2</ele><time>2026-05-03T10:27:35.487Z</time></trkpt><trkpt lat="42.1904254" lon="13.8475466"><ele>244.39999999999998</ele><time>2026-05-03T10:27:36.489Z</time></trkpt><trkpt lat="42.190316" lon="13.8475735"><ele>244.6</ele><time>2026-05-03T10:27:37.489Z</time></trkpt><trkpt lat="42.1902132" lon="13.8476159"><ele>244.8</ele><time>2026-05-03T10:27:38.488Z</time></trkpt><trkpt lat="42.1901283" lon="13.8476855"><ele>245.0</ele><time>2026-05-03T10:27:39.498Z</time></trkpt><trkpt lat="42.1900933" lon="13.847789"><ele>246.6</ele><time>2026-05-03T10:27:40.495Z</time></trkpt><trkpt lat="42.190095" lon="13.847904"><ele>248.2</ele><time>2026-05-03T10:27:41.485Z</time></trkpt><trkpt lat="42.1901272" lon="13.8480152"><ele>249.8</ele><time>2026-05-03T10:27:42.493Z</time></trkpt><trkpt lat="42.1902082" lon="13.8481209"><ele>251.4</ele><time>2026-05-03T10:27:43.486Z</time></trkpt><trkpt lat="42.1903136" lon="13.8482179"><ele>253.0</ele><time>2026-05-03T10:27:44.489Z</time></trkpt><trkpt lat="42.1904267" lon="13.8483097"><ele>253.0</ele><time>2026-05-03T10:27:45.484Z</time></trkpt><trkpt lat="42.1905472" lon="13.8484305"><ele>253.0</ele><time>2026-05-03T10:27:46.488Z</time></trkpt><trkpt lat="42.1906792" lon="13.8486557"><ele>253.0</ele><time>2026-05-03T10:27:47.482Z</time></trkpt><trkpt lat="42.1908003" lon="13.8488811"><ele>251.0</ele><time>2026-05-03T10:27:48.487Z</time></trkpt><trkpt lat="42.1908988" lon="13.8491043"><ele>249.0</ele><time>2026-05-03T10:27:49.493Z</time></trkpt><trkpt lat="42.1910096" lon="13.849305"><ele>247.0</ele><time>2026-05-03T10:27:50.495Z</time></trkpt><trkpt lat="42.1911186" lon="13.849517"><ele>254.66666666666666</ele><time>2026-05-03T10:27:51.494Z</time></trkpt><trkpt lat="42.1912294" lon="13.8497211"><ele>262.3333333333333</ele><time>2026-05-03T10:27:52.498Z</time></trkpt><trkpt lat="42.1913542" lon="13.8499177"><ele>270.0</ele><time>2026-05-03T10:27:53.496Z</time></trkpt><trkpt lat="42.1914929" lon="13.8501001"><ele>267.3333333333333</ele><time>2026-05-03T10:27:54.491Z</time></trkpt><trkpt lat="42.1916392" lon="13.8502969"><ele>264.66666666666663</ele><time>2026-05-03T10:27:55.496Z</time></trkpt><trkpt lat="42.1917841" lon="13.8504729"><ele>262.0</ele><time>2026-05-03T10:27:56.487Z</time></trkpt><trkpt lat="42.1919338" lon="13.850636"><ele>262.0</ele><time>2026-05-03T10:27:57.493Z</time></trkpt><trkpt lat="42.1921039" lon="13.8507904"><ele>262.0</ele><time>2026-05-03T10:27:58.48Z</time></trkpt><trkpt lat="42.1922312" lon="13.8509546"><ele>262.0</ele><time>2026-05-03T10:27:59.492Z</time></trkpt><trkpt lat="42.1923643" lon="13.8511456"><ele>262.3333333333333</ele><time>2026-05-03T10:28:00.484Z</time></trkpt><trkpt lat="42.1924977" lon="13.8512662"><ele>262.6666666666667</ele><time>2026-05-03T10:28:01.485Z</time></trkpt><trkpt lat="42.1926461" lon="13.8513831"><ele>263.0</ele><time>2026-05-03T10:28:02.486Z</time></trkpt><trkpt lat="42.1928001" lon="13.8515047"><ele>263.0</ele><time>2026-05-03T10:28:03.482Z</time></trkpt><trkpt lat="42.1929237" lon="13.8516609"><ele>263.0</ele><time>2026-05-03T10:28:04.486Z</time></trkpt><trkpt lat="42.1930308" lon="13.8517903"><ele>263.0</ele><time>2026-05-03T10:28:05.482Z</time></trkpt><trkpt lat="42.1931702" lon="13.8518961"><ele>268.33333333333337</ele><time>2026-05-03T10:28:06.478Z</time></trkpt><trkpt lat="42.1933292" lon="13.8519577"><ele>273.6666666666667</ele><time>2026-05-03T10:28:07.476Z</time></trkpt><trkpt lat="42.193496" lon="13.8520044"><ele>279.0</ele><time>2026-05-03T10:28:08.473Z</time></trkpt><trkpt lat="42.1936645" lon="13.8520225"><ele>279.0</ele><time>2026-05-03T10:28:09.47Z</time></trkpt><trkpt lat="42.1938304" lon="13.852026"><ele>279.0</ele><time>2026-05-03T10:28:10.477Z</time></trkpt><trkpt lat="42.1940049" lon="13.8520325"><ele>279.0</ele><time>2026-05-03T10:28:11.469Z</time></trkpt><trkpt lat="42.1941693" lon="13.8520647"><ele>274.0</ele><time>2026-05-03T10:28:12.48Z</time></trkpt><trkpt lat="42.1943297" lon="13.8521274"><ele>269.0</ele><time>2026-05-03T10:28:13.476Z</time></trkpt><trkpt lat="42.1944615" lon="13.852165"><ele>264.0</ele><time>2026-05-03T10:28:14.483Z</time></trkpt><trkpt lat="42.1945948" lon="13.8522044"><ele>259.0</ele><time>2026-05-03T10:28:15.479Z</time></trkpt><trkpt lat="42.1947301" lon="13.8522919"><ele>261.0</ele><time>2026-05-03T10:28:16.479Z</time></trkpt><trkpt lat="42.1948699" lon="13.8523982"><ele>263.0</ele><time>2026-05-03T10:28:17.478Z</time></trkpt><trkpt lat="42.1950087" lon="13.8525404"><ele>265.0</ele><time>2026-05-03T10:28:18.487Z</time></trkpt><trkpt lat="42.1951043" lon="13.8527215"><ele>265.0</ele><time>2026-05-03T10:28:19.488Z</time></trkpt><trkpt lat="42.1952028" lon="13.852888"><ele>265.0</ele><time>2026-05-03T10:28:20.481Z</time></trkpt><trkpt lat="42.1953127" lon="13.8530437"><ele>265.0</ele><time>2026-05-03T10:28:21.48Z</time></trkpt><trkpt lat="42.1954023" lon="13.8532153"><ele>265.0</ele><time>2026-05-03T10:28:22.473Z</time></trkpt><trkpt lat="42.1954958" lon="13.8534018"><ele>265.0</ele><time>2026-05-03T10:28:23.485Z</time></trkpt><trkpt lat="42.1955507" lon="13.8535968"><ele>265.0</ele><time>2026-05-03T10:28:24.479Z</time></trkpt><trkpt lat="42.1956276" lon="13.8538034"><ele>259.66666666666663</ele><time>2026-05-03T10:28:25.475Z</time></trkpt><trkpt lat="42.19569" lon="13.8539987"><ele>254.33333333333331</ele><time>2026-05-03T10:28:26.478Z</time></trkpt><trkpt lat="42.195741" lon="13.8541997"><ele>249.0</ele><time>2026-05-03T10:28:27.476Z</time></trkpt><trkpt lat="42.1957853" lon="13.8543844"><ele>249.0</ele><time>2026-05-03T10:28:28.469Z</time></trkpt><trkpt lat="42.1958368" lon="13.8545497"><ele>249.0</ele><time>2026-05-03T10:28:29.479Z</time></trkpt><trkpt lat="42.1958699" lon="13.854724"><ele>249.0</ele><time>2026-05-03T10:28:30.479Z</time></trkpt><trkpt lat="42.1959063" lon="13.8548957"><ele>249.0</ele><time>2026-05-03T10:28:31.475Z</time></trkpt><trkpt lat="42.1959647" lon="13.8550837"><ele>249.0</ele><time>2026-05-03T10:28:32.464Z</time></trkpt><trkpt lat="42.1960042" lon="13.8552808"><ele>249.0</ele><time>2026-05-03T10:28:33.471Z</time></trkpt><trkpt lat="42.1960344" lon="13.8555014"><ele>249.0</ele><time>2026-05-03T10:28:34.458Z</time></trkpt><trkpt lat="42.1959721" lon="13.8557457"><ele>248.33333333333331</ele><time>2026-05-03T10:28:35.463Z</time></trkpt><trkpt lat="42.1959137" lon="13.8560197"><ele>247.66666666666666</ele><time>2026-05-03T10:28:36.462Z</time></trkpt><trkpt lat="42.1958764" lon="13.8562977"><ele>247.0</ele><time>2026-05-03T10:28:37.458Z</time></trkpt><trkpt lat="42.1958529" lon="13.8565787"><ele>247.33333333333331</ele><time>2026-05-03T10:28:38.463Z</time></trkpt><trkpt lat="42.1958387" lon="13.8568545"><ele>247.66666666666669</ele><time>2026-05-03T10:28:39.473Z</time></trkpt><trkpt lat="42.1958446" lon="13.8571057"><ele>248.0</ele><time>2026-05-03T10:28:40.471Z</time></trkpt><trkpt lat="42.1958412" lon="13.8573603"><ele>248.0</ele><time>2026-05-03T10:28:41.475Z</time></trkpt><trkpt lat="42.1958144" lon="13.8575954"><ele>248.0</ele><time>2026-05-03T10:28:42.468Z</time></trkpt><trkpt lat="42.1957844" lon="13.8578268"><ele>248.0</ele><time>2026-05-03T10:28:43.47Z</time></trkpt><trkpt lat="42.1957632" lon="13.8580544"><ele>247.0</ele><time>2026-05-03T10:28:44.474Z</time></trkpt><trkpt lat="42.1957439" lon="13.8582915"><ele>246.0</ele><time>2026-05-03T10:28:45.466Z</time></trkpt><trkpt lat="42.1957404" lon="13.8585342"><ele>245.0</ele><time>2026-05-03T10:28:46.471Z</time></trkpt><trkpt lat="42.1957127" lon="13.8587604"><ele>244.0</ele><time>2026-05-03T10:28:47.463Z</time></trkpt><trkpt lat="42.1956863" lon="13.8589499"><ele>243.0</ele><time>2026-05-03T10:28:48.471Z</time></trkpt><trkpt lat="42.1956503" lon="13.8591426"><ele>242.0</ele><time>2026-05-03T10:28:49.469Z</time></trkpt><trkpt lat="42.1956012" lon="13.8593189"><ele>241.0</ele><time>2026-05-03T10:28:50.468Z</time></trkpt><trkpt lat="42.1955875" lon="13.8594883"><ele>249.25</ele><time>2026-05-03T10:28:51.47Z</time></trkpt><trkpt lat="42.1955672" lon="13.8596623"><ele>257.5</ele><time>2026-05-03T10:28:52.467Z</time></trkpt><trkpt lat="42.1955591" lon="13.8598561"><ele>265.75</ele><time>2026-05-03T10:28:53.465Z</time></trkpt><trkpt lat="42.1955415" lon="13.8600501"><ele>274.0</ele><time>2026-05-03T10:28:54.464Z</time></trkpt><trkpt lat="42.1955287" lon="13.8602638"><ele>274.0</ele><time>2026-05-03T10:28:55.47Z</time></trkpt><trkpt lat="42.1955339" lon="13.860465"><ele>274.0</ele><time>2026-05-03T10:28:56.464Z</time></trkpt><trkpt lat="42.1955377" lon="13.8606773"><ele>274.0</ele><time>2026-05-03T10:28:57.473Z</time></trkpt><trkpt lat="42.1955366" lon="13.8608669"><ele>274.0</ele><time>2026-05-03T10:28:58.467Z</time></trkpt><trkpt lat="42.1955547" lon="13.8610524"><ele>273.8</ele><time>2026-05-03T10:28:59.477Z</time></trkpt><trkpt lat="42.1955589" lon="13.861232"><ele>273.59999999999997</ele><time>2026-05-03T10:29:00.464Z</time></trkpt><trkpt lat="42.1955518" lon="13.8613771"><ele>273.4</ele><time>2026-05-03T10:29:01.469Z</time></trkpt><trkpt lat="42.1955628" lon="13.8615079"><ele>273.2</ele><time>2026-05-03T10:29:02.466Z</time></trkpt><trkpt lat="42.1955656" lon="13.8616325"><ele>273.0</ele><time>2026-05-03T10:29:03.474Z</time></trkpt><trkpt lat="42.1955663" lon="13.8617218"><ele>274.1666666666667</ele><time>2026-05-03T10:29:04.464Z</time></trkpt><trkpt lat="42.1955562" lon="13.8618107"><ele>275.3333333333333</ele><time>2026-05-03T10:29:05.462Z</time></trkpt><trkpt lat="42.1955264" lon="13.8619034"><ele>276.5</ele><time>2026-05-03T10:29:06.461Z</time></trkpt><trkpt lat="42.1955111" lon="13.8620104"><ele>277.66666666666663</ele><time>2026-05-03T10:29:07.477Z</time></trkpt><trkpt lat="42.1955333" lon="13.8621291"><ele>278.8333333333333</ele><time>2026-05-03T10:29:08.466Z</time></trkpt><trkpt lat="42.1955676" lon="13.8622686"><ele>280.0</ele><time>2026-05-03T10:29:09.477Z</time></trkpt><trkpt lat="42.1956041" lon="13.862453"><ele>286.66666666666663</ele><time>2026-05-03T10:29:10.472Z</time></trkpt><trkpt lat="42.1956451" lon="13.8626537"><ele>293.3333333333333</ele><time>2026-05-03T10:29:11.472Z</time></trkpt><trkpt lat="42.1957163" lon="13.8628873"><ele>300.0</ele><time>2026-05-03T10:29:12.471Z</time></trkpt><trkpt lat="42.1958204" lon="13.8631345"><ele>287.3333333333333</ele><time>2026-05-03T10:29:13.478Z</time></trkpt><trkpt lat="42.1959359" lon="13.8633793"><ele>274.66666666666663</ele><time>2026-05-03T10:29:14.467Z</time></trkpt><trkpt lat="42.1960279" lon="13.8636319"><ele>262.0</ele><time>2026-05-03T10:29:15.477Z</time></trkpt><trkpt lat="42.1961388" lon="13.8638877"><ele>262.0</ele><time>2026-05-03T10:29:16.466Z</time></trkpt><trkpt lat="42.1962393" lon="13.8641402"><ele>262.0</ele><time>2026-05-03T10:29:17.482Z</time></trkpt><trkpt lat="42.1963311" lon="13.8644003"><ele>262.0</ele><time>2026-05-03T10:29:18.47Z</time></trkpt><trkpt lat="42.1964186" lon="13.8646548"><ele>256.3333333333333</ele><time>2026-05-03T10:29:19.485Z</time></trkpt><trkpt lat="42.1965197" lon="13.8649074"><ele>250.66666666666669</ele><time>2026-05-03T10:29:20.474Z</time></trkpt><trkpt lat="42.1966087" lon="13.8651779"><ele>245.0</ele><time>2026-05-03T10:29:21.477Z</time></trkpt><trkpt lat="42.1966933" lon="13.8654394"><ele>245.0</ele><time>2026-05-03T10:29:22.473Z</time></trkpt><trkpt lat="42.1967789" lon="13.8656998"><ele>245.0</ele><time>2026-05-03T10:29:23.482Z</time></trkpt><trkpt lat="42.196859" lon="13.8659565"><ele>245.0</ele><time>2026-05-03T10:29:24.476Z</time></trkpt><trkpt lat="42.1969325" lon="13.8662173"><ele>248.33333333333334</ele><time>2026-05-03T10:29:25.487Z</time></trkpt><trkpt lat="42.1970078" lon="13.8664916"><ele>251.66666666666669</ele><time>2026-05-03T10:29:26.478Z</time></trkpt><trkpt lat="42.1970937" lon="13.8667588"><ele>255.0</ele><time>2026-05-03T10:29:27.479Z</time></trkpt><trkpt lat="42.1971382" lon="13.8670232"><ele>257.6666666666667</ele><time>2026-05-03T10:29:28.48Z</time></trkpt><trkpt lat="42.1971826" lon="13.8672959"><ele>260.33333333333337</ele><time>2026-05-03T10:29:29.48Z</time></trkpt><trkpt lat="42.197236" lon="13.8675581"><ele>263.0</ele><time>2026-05-03T10:29:30.477Z</time></trkpt><trkpt lat="42.1972886" lon="13.8678216"><ele>264.0</ele><time>2026-05-03T10:29:31.475Z</time></trkpt><trkpt lat="42.1973334" lon="13.8680956"><ele>265.0</ele><time>2026-05-03T10:29:32.475Z</time></trkpt><trkpt lat="42.1973864" lon="13.868358"><ele>266.0</ele><time>2026-05-03T10:29:33.476Z</time></trkpt><trkpt lat="42.197435" lon="13.8686233"><ele>257.0</ele><time>2026-05-03T10:29:34.469Z</time></trkpt><trkpt lat="42.1974619" lon="13.8689189"><ele>248.0</ele><time>2026-05-03T10:29:35.471Z</time></trkpt><trkpt lat="42.197509" lon="13.8691994"><ele>239.0</ele><time>2026-05-03T10:29:36.471Z</time></trkpt><trkpt lat="42.1975514" lon="13.8694925"><ele>238.33333333333334</ele><time>2026-05-03T10:29:37.474Z</time></trkpt><trkpt lat="42.1975745" lon="13.8697804"><ele>237.66666666666669</ele><time>2026-05-03T10:29:38.474Z</time></trkpt><trkpt lat="42.1975903" lon="13.8700804"><ele>237.0</ele><time>2026-05-03T10:29:39.472Z</time></trkpt><trkpt lat="42.1976239" lon="13.8703684"><ele>237.0</ele><time>2026-05-03T10:29:40.468Z</time></trkpt><trkpt lat="42.1976813" lon="13.8706641"><ele>237.0</ele><time>2026-05-03T10:29:41.477Z</time></trkpt><trkpt lat="42.1977096" lon="13.8709566"><ele>237.0</ele><time>2026-05-03T10:29:42.467Z</time></trkpt><trkpt lat="42.19775" lon="13.8712433"><ele>238.0</ele><time>2026-05-03T10:29:43.467Z</time></trkpt><trkpt lat="42.1977835" lon="13.871531"><ele>239.0</ele><time>2026-05-03T10:29:44.468Z</time></trkpt><trkpt lat="42.1978212" lon="13.8718075"><ele>240.0</ele><time>2026-05-03T10:29:45.465Z</time></trkpt><trkpt lat="42.1978542" lon="13.8721005"><ele>242.0</ele><time>2026-05-03T10:29:46.473Z</time></trkpt><trkpt lat="42.1978884" lon="13.8723868"><ele>244.0</ele><time>2026-05-03T10:29:47.466Z</time></trkpt><trkpt lat="42.1979233" lon="13.872678"><ele>246.0</ele><time>2026-05-03T10:29:48.464Z</time></trkpt><trkpt lat="42.1979778" lon="13.8729777"><ele>246.0</ele><time>2026-05-03T10:29:49.469Z</time></trkpt><trkpt lat="42.198038" lon="13.8732637"><ele>246.0</ele><time>2026-05-03T10:29:50.46Z</time></trkpt><trkpt lat="42.1980951" lon="13.8735475"><ele>246.0</ele><time>2026-05-03T10:29:51.473Z</time></trkpt><trkpt lat="42.1981368" lon="13.8738279"><ele>241.33333333333331</ele><time>2026-05-03T10:29:52.46Z</time></trkpt><trkpt lat="42.1981722" lon="13.8740771"><ele>236.66666666666666</ele><time>2026-05-03T10:29:53.471Z</time></trkpt><trkpt lat="42.1982111" lon="13.8743187"><ele>232.0</ele><time>2026-05-03T10:29:54.473Z</time></trkpt><trkpt lat="42.1982457" lon="13.8745422"><ele>232.0</ele><time>2026-05-03T10:29:55.469Z</time></trkpt><trkpt lat="42.1982846" lon="13.8747633"><ele>232.0</ele><time>2026-05-03T10:29:56.481Z</time></trkpt><trkpt lat="42.1983112" lon="13.8749764"><ele>232.0</ele><time>2026-05-03T10:29:57.467Z</time></trkpt><trkpt lat="42.1983366" lon="13.8752075"><ele>229.33333333333331</ele><time>2026-05-03T10:29:58.478Z</time></trkpt><trkpt lat="42.1983484" lon="13.8754403"><ele>226.66666666666669</ele><time>2026-05-03T10:29:59.471Z</time></trkpt><trkpt lat="42.1983324" lon="13.8756782"><ele>224.0</ele><time>2026-05-03T10:30:00.472Z</time></trkpt><trkpt lat="42.198277" lon="13.8759088"><ele>223.66666666666669</ele><time>2026-05-03T10:30:01.474Z</time></trkpt><trkpt lat="42.198242" lon="13.8761358"><ele>223.33333333333331</ele><time>2026-05-03T10:30:02.476Z</time></trkpt><trkpt lat="42.1981956" lon="13.8763793"><ele>223.0</ele><time>2026-05-03T10:30:03.487Z</time></trkpt><trkpt lat="42.1981165" lon="13.8766135"><ele>236.33333333333331</ele><time>2026-05-03T10:30:04.478Z</time></trkpt><trkpt lat="42.1980573" lon="13.8768487"><ele>249.66666666666669</ele><time>2026-05-03T10:30:05.482Z</time></trkpt><trkpt lat="42.1979931" lon="13.8770879"><ele>263.0</ele><time>2026-05-03T10:30:06.482Z</time></trkpt><trkpt lat="42.1979516" lon="13.8773469"><ele>263.0</ele><time>2026-05-03T10:30:07.482Z</time></trkpt><trkpt lat="42.197961" lon="13.8775995"><ele>263.0</ele><time>2026-05-03T10:30:08.48Z</time></trkpt><trkpt lat="42.1980059" lon="13.8778348"><ele>263.0</ele><time>2026-05-03T10:30:09.486Z</time></trkpt><trkpt lat="42.1980756" lon="13.878051"><ele>255.0</ele><time>2026-05-03T10:30:10.483Z</time></trkpt><trkpt lat="42.1981698" lon="13.8782748"><ele>247.0</ele><time>2026-05-03T10:30:11.477Z</time></trkpt><trkpt lat="42.1982668" lon="13.8785197"><ele>239.0</ele><time>2026-05-03T10:30:12.476Z</time></trkpt><trkpt lat="42.1983897" lon="13.8787233"><ele>239.0</ele><time>2026-05-03T10:30:13.479Z</time></trkpt><trkpt lat="42.1985179" lon="13.8789269"><ele>239.0</ele><time>2026-05-03T10:30:14.476Z</time></trkpt><trkpt lat="42.1986677" lon="13.8790899"><ele>239.0</ele><time>2026-05-03T10:30:15.478Z</time></trkpt><trkpt lat="42.198832" lon="13.8792366"><ele>236.0</ele><time>2026-05-03T10:30:16.473Z</time></trkpt><trkpt lat="42.1989838" lon="13.8793685"><ele>233.0</ele><time>2026-05-03T10:30:17.474Z</time></trkpt><trkpt lat="42.1991224" lon="13.879528"><ele>230.0</ele><time>2026-05-03T10:30:18.474Z</time></trkpt><trkpt lat="42.199253" lon="13.8796978"><ele>230.0</ele><time>2026-05-03T10:30:19.471Z</time></trkpt><trkpt lat="42.1993181" lon="13.8799093"><ele>230.0</ele><time>2026-05-03T10:30:20.476Z</time></trkpt><trkpt lat="42.1993658" lon="13.8801597"><ele>230.0</ele><time>2026-05-03T10:30:21.474Z</time></trkpt><trkpt lat="42.1993555" lon="13.880399"><ele>229.0</ele><time>2026-05-03T10:30:22.474Z</time></trkpt><trkpt lat="42.1993419" lon="13.8806461"><ele>228.0</ele><time>2026-05-03T10:30:23.468Z</time></trkpt><trkpt lat="42.1993262" lon="13.8809134"><ele>227.0</ele><time>2026-05-03T10:30:24.472Z</time></trkpt><trkpt lat="42.1992933" lon="13.8811205"><ele>227.0</ele><time>2026-05-03T10:30:25.479Z</time></trkpt><trkpt lat="42.1992894" lon="13.8813564"><ele>227.0</ele><time>2026-05-03T10:30:26.479Z</time></trkpt><trkpt lat="42.1992652" lon="13.881536"><ele>227.0</ele><time>2026-05-03T10:30:27.469Z</time></trkpt><trkpt lat="42.1993012" lon="13.8817387"><ele>229.0</ele><time>2026-05-03T10:30:28.475Z</time></trkpt><trkpt lat="42.1993704" lon="13.8819646"><ele>231.0</ele><time>2026-05-03T10:30:29.465Z</time></trkpt><trkpt lat="42.1994528" lon="13.8821813"><ele>233.0</ele><time>2026-05-03T10:30:30.486Z</time></trkpt><trkpt lat="42.1995296" lon="13.8824131"><ele>239.66666666666669</ele><time>2026-05-03T10:30:31.478Z</time></trkpt><trkpt lat="42.1995922" lon="13.8826603"><ele>246.33333333333331</ele><time>2026-05-03T10:30:32.486Z</time></trkpt><trkpt lat="42.1996619" lon="13.8829166"><ele>253.0</ele><time>2026-05-03T10:30:33.472Z</time></trkpt><trkpt lat="42.1997756" lon="13.8831235"><ele>248.33333333333331</ele><time>2026-05-03T10:30:34.478Z</time></trkpt><trkpt lat="42.1999206" lon="13.8833171"><ele>243.66666666666669</ele><time>2026-05-03T10:30:35.472Z</time></trkpt><trkpt lat="42.2000667" lon="13.8834986"><ele>239.0</ele><time>2026-05-03T10:30:36.476Z</time></trkpt><trkpt lat="42.2002051" lon="13.8836607"><ele>239.0</ele><time>2026-05-03T10:30:37.47Z</time></trkpt><trkpt lat="42.2003214" lon="13.8838145"><ele>239.0</ele><time>2026-05-03T10:30:38.478Z</time></trkpt><trkpt lat="42.2004506" lon="13.8839822"><ele>239.0</ele><time>2026-05-03T10:30:39.472Z</time></trkpt><trkpt lat="42.2005518" lon="13.8841659"><ele>243.66666666666669</ele><time>2026-05-03T10:30:40.48Z</time></trkpt><trkpt lat="42.2006079" lon="13.884394"><ele>248.33333333333331</ele><time>2026-05-03T10:30:41.477Z</time></trkpt><trkpt lat="42.200663" lon="13.8846593"><ele>253.0</ele><time>2026-05-03T10:30:42.473Z</time></trkpt><trkpt lat="42.2007095" lon="13.8848949"><ele>247.0</ele><time>2026-05-03T10:30:43.476Z</time></trkpt><trkpt lat="42.2007662" lon="13.8851202"><ele>241.0</ele><time>2026-05-03T10:30:44.479Z</time></trkpt><trkpt lat="42.2008539" lon="13.8853414"><ele>235.0</ele><time>2026-05-03T10:30:45.476Z</time></trkpt><trkpt lat="42.200972" lon="13.8855321"><ele>235.0</ele><time>2026-05-03T10:30:46.479Z</time></trkpt><trkpt lat="42.2011123" lon="13.8856991"><ele>235.0</ele><time>2026-05-03T10:30:47.472Z</time></trkpt><trkpt lat="42.2012531" lon="13.8858874"><ele>235.0</ele><time>2026-05-03T10:30:48.473Z</time></trkpt><trkpt lat="42.2014" lon="13.8860523"><ele>233.0</ele><time>2026-05-03T10:30:49.469Z</time></trkpt><trkpt lat="42.2015725" lon="13.8862131"><ele>231.0</ele><time>2026-05-03T10:30:50.475Z</time></trkpt><trkpt lat="42.2017587" lon="13.8863774"><ele>229.0</ele><time>2026-05-03T10:30:51.468Z</time></trkpt><trkpt lat="42.2019359" lon="13.8865355"><ele>229.0</ele><time>2026-05-03T10:30:52.477Z</time></trkpt><trkpt lat="42.2020909" lon="13.8867019"><ele>229.0</ele><time>2026-05-03T10:30:53.473Z</time></trkpt><trkpt lat="42.2022503" lon="13.8868705"><ele>229.0</ele><time>2026-05-03T10:30:54.482Z</time></trkpt><trkpt lat="42.202413" lon="13.8870407"><ele>226.33333333333331</ele><time>2026-05-03T10:30:55.48Z</time></trkpt><trkpt lat="42.2025573" lon="13.8872093"><ele>223.66666666666669</ele><time>2026-05-03T10:30:56.483Z</time></trkpt><trkpt lat="42.202709" lon="13.887373"><ele>221.0</ele><time>2026-05-03T10:30:57.478Z</time></trkpt><trkpt lat="42.2028471" lon="13.8875059"><ele>224.33333333333334</ele><time>2026-05-03T10:30:58.483Z</time></trkpt><trkpt lat="42.2029988" lon="13.8876453"><ele>227.66666666666669</ele><time>2026-05-03T10:30:59.484Z</time></trkpt><trkpt lat="42.2031476" lon="13.8877866"><ele>231.0</ele><time>2026-05-03T10:31:00.483Z</time></trkpt><trkpt lat="42.2032911" lon="13.8879409"><ele>231.0</ele><time>2026-05-03T10:31:01.48Z</time></trkpt><trkpt lat="42.2034371" lon="13.8880917"><ele>231.0</ele><time>2026-05-03T10:31:02.484Z</time></trkpt><trkpt lat="42.2035868" lon="13.8882444"><ele>231.0</ele><time>2026-05-03T10:31:03.486Z</time></trkpt><trkpt lat="42.203741" lon="13.8883896"><ele>235.0</ele><time>2026-05-03T10:31:04.487Z</time></trkpt><trkpt lat="42.2038842" lon="13.888567"><ele>239.0</ele><time>2026-05-03T10:31:05.486Z</time></trkpt><trkpt lat="42.2040321" lon="13.8887605"><ele>243.0</ele><time>2026-05-03T10:31:06.485Z</time></trkpt><trkpt lat="42.2041476" lon="13.8889388"><ele>235.33333333333331</ele><time>2026-05-03T10:31:07.484Z</time></trkpt><trkpt lat="42.2042504" lon="13.889108"><ele>227.66666666666666</ele><time>2026-05-03T10:31:08.493Z</time></trkpt><trkpt lat="42.2043412" lon="13.8892983"><ele>220.0</ele><time>2026-05-03T10:31:09.488Z</time></trkpt><trkpt lat="42.2044199" lon="13.8895001"><ele>220.0</ele><time>2026-05-03T10:31:10.49Z</time></trkpt><trkpt lat="42.2044686" lon="13.8897384"><ele>220.0</ele><time>2026-05-03T10:31:11.503Z</time></trkpt><trkpt lat="42.2045148" lon="13.8899732"><ele>220.0</ele><time>2026-05-03T10:31:12.492Z</time></trkpt><trkpt lat="42.2045639" lon="13.8901882"><ele>222.66666666666666</ele><time>2026-05-03T10:31:13.494Z</time></trkpt><trkpt lat="42.2046293" lon="13.8904272"><ele>225.33333333333331</ele><time>2026-05-03T10:31:14.502Z</time></trkpt><trkpt lat="42.2047044" lon="13.8906452"><ele>228.0</ele><time>2026-05-03T10:31:15.492Z</time></trkpt><trkpt lat="42.2047898" lon="13.8908398"><ele>227.33333333333331</ele><time>2026-05-03T10:31:16.487Z</time></trkpt><trkpt lat="42.2049096" lon="13.8910328"><ele>226.66666666666666</ele><time>2026-05-03T10:31:17.496Z</time></trkpt><trkpt lat="42.2050326" lon="13.89121"><ele>226.0</ele><time>2026-05-03T10:31:18.494Z</time></trkpt><trkpt lat="42.2051717" lon="13.8913675"><ele>226.0</ele><time>2026-05-03T10:31:19.501Z</time></trkpt><trkpt lat="42.2053091" lon="13.8915249"><ele>226.0</ele><time>2026-05-03T10:31:20.496Z</time></trkpt><trkpt lat="42.205437" lon="13.8916898"><ele>226.0</ele><time>2026-05-03T10:31:21.5Z</time></trkpt><trkpt lat="42.2055803" lon="13.8918434"><ele>226.0</ele><time>2026-05-03T10:31:22.493Z</time></trkpt><trkpt lat="42.2057097" lon="13.8919973"><ele>226.0</ele><time>2026-05-03T10:31:23.499Z</time></trkpt><trkpt lat="42.205814" lon="13.8921602"><ele>226.0</ele><time>2026-05-03T10:31:24.493Z</time></trkpt><trkpt lat="42.2059284" lon="13.8923104"><ele>226.0</ele><time>2026-05-03T10:31:25.502Z</time></trkpt><trkpt lat="42.2060458" lon="13.8924811"><ele>226.0</ele><time>2026-05-03T10:31:26.487Z</time></trkpt><trkpt lat="42.2061673" lon="13.8926367"><ele>226.0</ele><time>2026-05-03T10:31:27.5Z</time></trkpt><trkpt lat="42.2062987" lon="13.8928019"><ele>227.0</ele><time>2026-05-03T10:31:28.494Z</time></trkpt><trkpt lat="42.206436" lon="13.8929236"><ele>228.0</ele><time>2026-05-03T10:31:29.495Z</time></trkpt><trkpt lat="42.2065687" lon="13.8930878"><ele>229.0</ele><time>2026-05-03T10:31:30.491Z</time></trkpt><trkpt lat="42.2067059" lon="13.8932163"><ele>229.0</ele><time>2026-05-03T10:31:31.492Z</time></trkpt><trkpt lat="42.2068422" lon="13.8933464"><ele>229.0</ele><time>2026-05-03T10:31:32.496Z</time></trkpt><trkpt lat="42.2069758" lon="13.8934713"><ele>229.0</ele><time>2026-05-03T10:31:33.492Z</time></trkpt><trkpt lat="42.2070975" lon="13.893572"><ele>231.33333333333331</ele><time>2026-05-03T10:31:34.492Z</time></trkpt><trkpt lat="42.207229" lon="13.8937233"><ele>233.66666666666669</ele><time>2026-05-03T10:31:35.492Z</time></trkpt><trkpt lat="42.2073784" lon="13.8938843"><ele>236.0</ele><time>2026-05-03T10:31:36.493Z</time></trkpt><trkpt lat="42.207526" lon="13.8940587"><ele>232.33333333333334</ele><time>2026-05-03T10:31:37.484Z</time></trkpt><trkpt lat="42.2076809" lon="13.894221"><ele>228.66666666666669</ele><time>2026-05-03T10:31:38.488Z</time></trkpt><trkpt lat="42.2078427" lon="13.894391"><ele>225.0</ele><time>2026-05-03T10:31:39.492Z</time></trkpt><trkpt lat="42.2080024" lon="13.8945508"><ele>225.0</ele><time>2026-05-03T10:31:40.496Z</time></trkpt><trkpt lat="42.208159" lon="13.8946987"><ele>225.0</ele><time>2026-05-03T10:31:41.49Z</time></trkpt><trkpt lat="42.2082866" lon="13.8948377"><ele>225.0</ele><time>2026-05-03T10:31:42.494Z</time></trkpt><trkpt lat="42.2084052" lon="13.8949625"><ele>224.66666666666669</ele><time>2026-05-03T10:31:43.494Z</time></trkpt><trkpt lat="42.2085321" lon="13.895101"><ele>224.33333333333334</ele><time>2026-05-03T10:31:44.494Z</time></trkpt><trkpt lat="42.2086674" lon="13.8952322"><ele>224.0</ele><time>2026-05-03T10:31:45.495Z</time></trkpt><trkpt lat="42.2088141" lon="13.8953732"><ele>224.0</ele><time>2026-05-03T10:31:46.492Z</time></trkpt><trkpt lat="42.2089733" lon="13.8955285"><ele>224.0</ele><time>2026-05-03T10:31:47.498Z</time></trkpt><trkpt lat="42.2091603" lon="13.8956908"><ele>224.0</ele><time>2026-05-03T10:31:48.492Z</time></trkpt><trkpt lat="42.2093345" lon="13.8958569"><ele>224.66666666666669</ele><time>2026-05-03T10:31:49.496Z</time></trkpt><trkpt lat="42.2094888" lon="13.8960157"><ele>225.33333333333331</ele><time>2026-05-03T10:31:50.503Z</time></trkpt><trkpt lat="42.2096189" lon="13.8961588"><ele>226.0</ele><time>2026-05-03T10:31:51.492Z</time></trkpt><trkpt lat="42.2097433" lon="13.8963067"><ele>224.0</ele><time>2026-05-03T10:31:52.5Z</time></trkpt><trkpt lat="42.2098568" lon="13.8964506"><ele>222.0</ele><time>2026-05-03T10:31:53.498Z</time></trkpt><trkpt lat="42.2099779" lon="13.8965758"><ele>220.0</ele><time>2026-05-03T10:31:54.497Z</time></trkpt><trkpt lat="42.2101064" lon="13.8966783"><ele>221.75</ele><time>2026-05-03T10:31:55.492Z</time></trkpt><trkpt lat="42.2102128" lon="13.8967893"><ele>223.5</ele><time>2026-05-03T10:31:56.494Z</time></trkpt><trkpt lat="42.2103084" lon="13.8968834"><ele>225.25</ele><time>2026-05-03T10:31:57.497Z</time></trkpt><trkpt lat="42.2103976" lon="13.8970064"><ele>227.0</ele><time>2026-05-03T10:31:58.495Z</time></trkpt><trkpt lat="42.2104589" lon="13.8971292"><ele>227.0</ele><time>2026-05-03T10:31:59.495Z</time></trkpt><trkpt lat="42.2105101" lon="13.8972777"><ele>227.0</ele><time>2026-05-03T10:32:00.493Z</time></trkpt><trkpt lat="42.2105588" lon="13.8974433"><ele>227.0</ele><time>2026-05-03T10:32:01.499Z</time></trkpt><trkpt lat="42.2106098" lon="13.8976034"><ele>227.0</ele><time>2026-05-03T10:32:02.492Z</time></trkpt><trkpt lat="42.2106601" lon="13.8977648"><ele>225.75</ele><time>2026-05-03T10:32:03.498Z</time></trkpt><trkpt lat="42.2107134" lon="13.8979397"><ele>224.5</ele><time>2026-05-03T10:32:04.494Z</time></trkpt><trkpt lat="42.2107613" lon="13.8981223"><ele>223.25</ele><time>2026-05-03T10:32:05.498Z</time></trkpt><trkpt lat="42.2108149" lon="13.8983063"><ele>222.0</ele><time>2026-05-03T10:32:06.493Z</time></trkpt><trkpt lat="42.2108692" lon="13.8984897"><ele>222.0</ele><time>2026-05-03T10:32:07.498Z</time></trkpt><trkpt lat="42.2109304" lon="13.8986624"><ele>222.0</ele><time>2026-05-03T10:32:08.491Z</time></trkpt><trkpt lat="42.2110116" lon="13.8988468"><ele>222.0</ele><time>2026-05-03T10:32:09.489Z</time></trkpt><trkpt lat="42.2110754" lon="13.8990561"><ele>222.0</ele><time>2026-05-03T10:32:10.484Z</time></trkpt><trkpt lat="42.2111322" lon="13.8992249"><ele>222.0</ele><time>2026-05-03T10:32:11.488Z</time></trkpt><trkpt lat="42.2111776" lon="13.8993524"><ele>222.0</ele><time>2026-05-03T10:32:12.484Z</time></trkpt><trkpt lat="42.2112332" lon="13.8994855"><ele>222.0</ele><time>2026-05-03T10:32:13.491Z</time></trkpt><trkpt lat="42.2112783" lon="13.899615"><ele>222.25</ele><time>2026-05-03T10:32:14.491Z</time></trkpt><trkpt lat="42.2113128" lon="13.8997508"><ele>222.5</ele><time>2026-05-03T10:32:15.487Z</time></trkpt><trkpt lat="42.211366" lon="13.899892"><ele>222.75</ele><time>2026-05-03T10:32:16.488Z</time></trkpt><trkpt lat="42.2114097" lon="13.9000298"><ele>223.0</ele><time>2026-05-03T10:32:17.494Z</time></trkpt><trkpt lat="42.2114545" lon="13.9001736"><ele>222.2</ele><time>2026-05-03T10:32:18.492Z</time></trkpt><trkpt lat="42.2114961" lon="13.900309"><ele>221.4</ele><time>2026-05-03T10:32:19.502Z</time></trkpt><trkpt lat="42.2115342" lon="13.9004361"><ele>220.59999999999997</ele><time>2026-05-03T10:32:20.499Z</time></trkpt><trkpt lat="42.2115711" lon="13.9005681"><ele>219.79999999999998</ele><time>2026-05-03T10:32:21.502Z</time></trkpt><trkpt lat="42.211619" lon="13.9007037"><ele>219.0</ele><time>2026-05-03T10:32:22.497Z</time></trkpt><trkpt lat="42.211668" lon="13.900847"><ele>220.0</ele><time>2026-05-03T10:32:23.502Z</time></trkpt><trkpt lat="42.2117092" lon="13.9009849"><ele>220.99999999999997</ele><time>2026-05-03T10:32:24.499Z</time></trkpt><trkpt lat="42.2117476" lon="13.9011115"><ele>221.99999999999997</ele><time>2026-05-03T10:32:25.498Z</time></trkpt><trkpt lat="42.2117909" lon="13.9012232"><ele>223.0</ele><time>2026-05-03T10:32:26.496Z</time></trkpt><trkpt lat="42.2118367" lon="13.9013144"><ele>224.0</ele><time>2026-05-03T10:32:27.492Z</time></trkpt><trkpt lat="42.2118929" lon="13.9014072"><ele>224.00000000000003</ele><time>2026-05-03T10:32:29.489Z</time></trkpt><trkpt lat="42.2118099" lon="13.901317"><ele>224.0</ele><time>2026-05-03T10:32:34.488Z</time></trkpt><trkpt lat="42.2117754" lon="13.9012298"><ele>224.0</ele><time>2026-05-03T10:32:35.492Z</time></trkpt><trkpt lat="42.2117451" lon="13.9011463"><ele>224.0</ele><time>2026-05-03T10:32:36.487Z</time></trkpt><trkpt lat="42.211701" lon="13.901015"><ele>224.00000000000003</ele><time>2026-05-03T10:32:38.483Z</time></trkpt><trkpt lat="42.2116266" lon="13.9010074"><ele>224.0</ele><time>2026-05-03T10:32:40.484Z</time></trkpt><trkpt lat="42.2115235" lon="13.9010892"><ele>227.33333333333334</ele><time>2026-05-03T10:32:42.484Z</time></trkpt><trkpt lat="42.2114567" lon="13.9011793"><ele>230.66666666666669</ele><time>2026-05-03T10:32:44.483Z</time></trkpt><trkpt lat="42.2114071" lon="13.9012437"><ele>234.0</ele><time>2026-05-03T10:33:34.494Z</time></trkpt><trkpt lat="42.2114155" lon="13.9013632"><ele>237.33333333333331</ele><time>2026-05-03T10:33:37.489Z</time></trkpt><trkpt lat="42.2114003" lon="13.9014542"><ele>240.66666666666666</ele><time>2026-05-03T10:33:39.496Z</time></trkpt><trkpt lat="42.2113548" lon="13.901383"><ele>244.0</ele><time>2026-05-03T10:33:42.488Z</time></trkpt><trkpt lat="42.2112985" lon="13.9013039"><ele>243.99999999999997</ele><time>2026-05-03T10:33:44.491Z</time></trkpt><trkpt lat="42.2112123" lon="13.9012626"><ele>244.0</ele><time>2026-05-03T10:33:46.497Z</time></trkpt><trkpt lat="42.2111073" lon="13.9012533"><ele>244.0</ele><time>2026-05-03T10:33:48.501Z</time></trkpt><trkpt lat="42.2110442" lon="13.9012538"><ele>244.0</ele><time>2026-05-03T10:33:49.496Z</time></trkpt><trkpt lat="42.2109311" lon="13.9012599"><ele>243.99999999999997</ele><time>2026-05-03T10:33:51.492Z</time></trkpt><trkpt lat="42.2108725" lon="13.9013174"><ele>244.0</ele><time>2026-05-03T10:33:53.493Z</time></trkpt><trkpt lat="42.2108609" lon="13.9014071"><ele>243.99999999999997</ele><time>2026-05-03T10:33:56.488Z</time></trkpt><trkpt lat="42.2108995" lon="13.9014745"><ele>244.0</ele><time>2026-05-03T10:33:59.495Z</time></trkpt><trkpt lat="42.2109499" lon="13.9015697"><ele>244.0</ele><time>2026-05-03T10:34:02.486Z</time></trkpt><trkpt lat="42.2110203" lon="13.9016477"><ele>244.0</ele><time>2026-05-03T10:34:04.485Z</time></trkpt><trkpt lat="42.2110909" lon="13.901738"><ele>243.99999999999997</ele><time>2026-05-03T10:34:06.49Z</time></trkpt><trkpt lat="42.2111333" lon="13.9018151"><ele>244.0</ele><time>2026-05-03T10:34:08.488Z</time></trkpt><trkpt lat="42.2111582" lon="13.9019016"><ele>243.99999999999997</ele><time>2026-05-03T10:34:19.493Z</time></trkpt><trkpt lat="42.2111353" lon="13.9019851"><ele>244.0</ele><time>2026-05-03T10:34:21.488Z</time></trkpt><trkpt lat="42.2110484" lon="13.9019609"><ele>244.0</ele><time>2026-05-03T10:34:24.487Z</time></trkpt><trkpt lat="42.2109699" lon="13.9018637"><ele>244.0</ele><time>2026-05-03T10:34:26.489Z</time></trkpt><trkpt lat="42.2109176" lon="13.901802"><ele>243.99999999999997</ele><time>2026-05-03T10:34:27.486Z</time></trkpt><trkpt lat="42.2108655" lon="13.9017541"><ele>244.0</ele><time>2026-05-03T10:34:28.485Z</time></trkpt><trkpt lat="42.2107794" lon="13.9017147"><ele>248.2</ele><time>2026-05-03T10:34:30.496Z</time></trkpt><trkpt lat="42.2107155" lon="13.901762"><ele>252.39999999999998</ele><time>2026-05-03T10:34:33.497Z</time></trkpt><trkpt lat="42.210758" lon="13.9018662"><ele>256.6</ele><time>2026-05-03T10:34:37.489Z</time></trkpt><trkpt lat="42.2108306" lon="13.9019688"><ele>260.8</ele><time>2026-05-03T10:34:39.488Z</time></trkpt><trkpt lat="42.2108788" lon="13.9020907"><ele>265.0</ele><time>2026-05-03T10:34:41.485Z</time></trkpt><trkpt lat="42.2108978" lon="13.9022265"><ele>265.0</ele><time>2026-05-03T10:34:43.494Z</time></trkpt><trkpt lat="42.210907" lon="13.9023478"><ele>265.0</ele><time>2026-05-03T10:34:45.488Z</time></trkpt><trkpt lat="42.2109355" lon="13.9024502"><ele>265.0</ele><time>2026-05-03T10:34:47.486Z</time></trkpt><trkpt lat="42.2109398" lon="13.9025816"><ele>265.0</ele><time>2026-05-03T10:34:49.49Z</time></trkpt><trkpt lat="42.2109247" lon="13.9027257"><ele>265.0</ele><time>2026-05-03T10:34:51.486Z</time></trkpt><trkpt lat="42.2109231" lon="13.9028713"><ele>268.2</ele><time>2026-05-03T10:34:53.484Z</time></trkpt><trkpt lat="42.210926" lon="13.902993"><ele>271.4</ele><time>2026-05-03T10:34:55.495Z</time></trkpt><trkpt lat="42.2109627" lon="13.9031683"><ele>274.6</ele><time>2026-05-03T10:34:57.492Z</time></trkpt><trkpt lat="42.2109914" lon="13.9032558"><ele>277.8</ele><time>2026-05-03T10:34:58.486Z</time></trkpt><trkpt lat="42.2110596" lon="13.9033906"><ele>281.0</ele><time>2026-05-03T10:35:00.494Z</time></trkpt><trkpt lat="42.2111122" lon="13.9035265"><ele>283.0</ele><time>2026-05-03T10:35:02.487Z</time></trkpt><trkpt lat="42.2111395" lon="13.9036102"><ele>285.0</ele><time>2026-05-03T10:35:03.497Z</time></trkpt><trkpt lat="42.2111602" lon="13.9037082"><ele>287.0</ele><time>2026-05-03T10:35:04.491Z</time></trkpt><trkpt lat="42.2111807" lon="13.9038262"><ele>289.0</ele><time>2026-05-03T10:35:05.496Z</time></trkpt><trkpt lat="42.2112029" lon="13.9039518"><ele>291.0</ele><time>2026-05-03T10:35:06.489Z</time></trkpt><trkpt lat="42.2112242" lon="13.9040623"><ele>293.0</ele><time>2026-05-03T10:35:07.497Z</time></trkpt><trkpt lat="42.2112451" lon="13.904161"><ele>295.0</ele><time>2026-05-03T10:35:08.49Z</time></trkpt><trkpt lat="42.2112619" lon="13.9042624"><ele>297.0</ele><time>2026-05-03T10:35:09.495Z</time></trkpt><trkpt lat="42.2112797" lon="13.9043679"><ele>299.0</ele><time>2026-05-03T10:35:10.493Z</time></trkpt><trkpt lat="42.2113008" lon="13.9044683"><ele>301.0</ele><time>2026-05-03T10:35:11.493Z</time></trkpt><trkpt lat="42.2113196" lon="13.9045663"><ele>303.0</ele><time>2026-05-03T10:35:12.475Z</time></trkpt><trkpt lat="42.21134" lon="13.9046727"><ele>305.0</ele><time>2026-05-03T10:35:13.491Z</time></trkpt><trkpt lat="42.2113643" lon="13.9047821"><ele>305.0</ele><time>2026-05-03T10:35:14.482Z</time></trkpt><trkpt lat="42.2113835" lon="13.9049039"><ele>305.0</ele><time>2026-05-03T10:35:15.494Z</time></trkpt><trkpt lat="42.2114053" lon="13.9050284"><ele>305.0</ele><time>2026-05-03T10:35:16.484Z</time></trkpt><trkpt lat="42.2114275" lon="13.9051475"><ele>305.0</ele><time>2026-05-03T10:35:17.493Z</time></trkpt><trkpt lat="42.2114448" lon="13.9052527"><ele>305.0</ele><time>2026-05-03T10:35:18.485Z</time></trkpt><trkpt lat="42.2114537" lon="13.9053481"><ele>305.0</ele><time>2026-05-03T10:35:19.5Z</time></trkpt><trkpt lat="42.2114657" lon="13.9054382"><ele>305.33333333333337</ele><time>2026-05-03T10:35:20.484Z</time></trkpt><trkpt lat="42.2114841" lon="13.9055206"><ele>305.6666666666667</ele><time>2026-05-03T10:35:21.491Z</time></trkpt><trkpt lat="42.2115023" lon="13.9056117"><ele>306.0</ele><time>2026-05-03T10:35:22.483Z</time></trkpt><trkpt lat="42.2115219" lon="13.9057074"><ele>306.3333333333333</ele><time>2026-05-03T10:35:23.495Z</time></trkpt><trkpt lat="42.2115471" lon="13.9058055"><ele>306.66666666666663</ele><time>2026-05-03T10:35:24.48Z</time></trkpt><trkpt lat="42.2115733" lon="13.9059126"><ele>307.0</ele><time>2026-05-03T10:35:25.491Z</time></trkpt><trkpt lat="42.2115923" lon="13.9060299"><ele>308.3333333333333</ele><time>2026-05-03T10:35:26.485Z</time></trkpt><trkpt lat="42.2116196" lon="13.9061436"><ele>309.66666666666663</ele><time>2026-05-03T10:35:27.483Z</time></trkpt><trkpt lat="42.2116514" lon="13.906249"><ele>311.0</ele><time>2026-05-03T10:35:28.482Z</time></trkpt><trkpt lat="42.2116801" lon="13.9063491"><ele>312.3333333333333</ele><time>2026-05-03T10:35:29.478Z</time></trkpt><trkpt lat="42.211719" lon="13.906449"><ele>313.6666666666667</ele><time>2026-05-03T10:35:30.488Z</time></trkpt><trkpt lat="42.2117532" lon="13.9065546"><ele>315.0</ele><time>2026-05-03T10:35:31.487Z</time></trkpt><trkpt lat="42.2117841" lon="13.9066601"><ele>316.8333333333333</ele><time>2026-05-03T10:35:32.496Z</time></trkpt><trkpt lat="42.2118127" lon="13.9067637"><ele>318.6666666666667</ele><time>2026-05-03T10:35:33.485Z</time></trkpt><trkpt lat="42.211828" lon="13.9068626"><ele>320.5</ele><time>2026-05-03T10:35:34.49Z</time></trkpt><trkpt lat="42.2118424" lon="13.9069625"><ele>322.33333333333337</ele><time>2026-05-03T10:35:35.497Z</time></trkpt><trkpt lat="42.2118646" lon="13.907055"><ele>324.1666666666667</ele><time>2026-05-03T10:35:36.489Z</time></trkpt><trkpt lat="42.2118841" lon="13.9071601"><ele>326.0</ele><time>2026-05-03T10:35:37.495Z</time></trkpt><trkpt lat="42.211913" lon="13.9072619"><ele>326.0</ele><time>2026-05-03T10:35:38.48Z</time></trkpt><trkpt lat="42.2119479" lon="13.9073628"><ele>326.0</ele><time>2026-05-03T10:35:39.491Z</time></trkpt><trkpt lat="42.2119754" lon="13.9074524"><ele>326.0</ele><time>2026-05-03T10:35:40.479Z</time></trkpt><trkpt lat="42.2120007" lon="13.9075329"><ele>326.0</ele><time>2026-05-03T10:35:41.485Z</time></trkpt><trkpt lat="42.2120279" lon="13.9076154"><ele>326.0</ele><time>2026-05-03T10:35:42.478Z</time></trkpt><trkpt lat="42.2120537" lon="13.9077112"><ele>326.0</ele><time>2026-05-03T10:35:43.487Z</time></trkpt><trkpt lat="42.2120718" lon="13.9078221"><ele>326.0</ele><time>2026-05-03T10:35:44.477Z</time></trkpt><trkpt lat="42.2120847" lon="13.9079325"><ele>326.5</ele><time>2026-05-03T10:35:45.478Z</time></trkpt><trkpt lat="42.2120959" lon="13.9080392"><ele>327.0</ele><time>2026-05-03T10:35:46.485Z</time></trkpt><trkpt lat="42.2121028" lon="13.9081478"><ele>327.5</ele><time>2026-05-03T10:35:47.478Z</time></trkpt><trkpt lat="42.2121138" lon="13.9082512"><ele>328.0</ele><time>2026-05-03T10:35:48.486Z</time></trkpt><trkpt lat="42.2121222" lon="13.9083471"><ele>328.5</ele><time>2026-05-03T10:35:49.479Z</time></trkpt><trkpt lat="42.2121235" lon="13.9084536"><ele>329.0</ele><time>2026-05-03T10:35:50.482Z</time></trkpt><trkpt lat="42.212116" lon="13.9085479"><ele>329.5</ele><time>2026-05-03T10:35:51.478Z</time></trkpt><trkpt lat="42.2121196" lon="13.9087035"><ele>330.0</ele><time>2026-05-03T10:35:53.489Z</time></trkpt><trkpt lat="42.2121106" lon="13.9087894"><ele>330.5</ele><time>2026-05-03T10:35:54.477Z</time></trkpt><trkpt lat="42.2120947" lon="13.908883"><ele>331.0</ele><time>2026-05-03T10:35:55.482Z</time></trkpt><trkpt lat="42.2120631" lon="13.9089853"><ele>331.5</ele><time>2026-05-03T10:35:56.474Z</time></trkpt><trkpt lat="42.212019" lon="13.9090769"><ele>332.0</ele><time>2026-05-03T10:35:57.48Z</time></trkpt><trkpt lat="42.2119714" lon="13.9091774"><ele>332.6666666666667</ele><time>2026-05-03T10:35:58.467Z</time></trkpt><trkpt lat="42.2119224" lon="13.9092826"><ele>333.33333333333337</ele><time>2026-05-03T10:35:59.478Z</time></trkpt><trkpt lat="42.2118683" lon="13.9093772"><ele>334.0</ele><time>2026-05-03T10:36:00.478Z</time></trkpt><trkpt lat="42.2118189" lon="13.9094665"><ele>334.6666666666667</ele><time>2026-05-03T10:36:01.481Z</time></trkpt><trkpt lat="42.2117773" lon="13.9095433"><ele>335.3333333333333</ele><time>2026-05-03T10:36:02.478Z</time></trkpt><trkpt lat="42.2117466" lon="13.9096232"><ele>336.0</ele><time>2026-05-03T10:36:03.475Z</time></trkpt><trkpt lat="42.2117403" lon="13.9097158"><ele>336.0</ele><time>2026-05-03T10:36:04.48Z</time></trkpt><trkpt lat="42.2117505" lon="13.9098218"><ele>336.0</ele><time>2026-05-03T10:36:05.472Z</time></trkpt><trkpt lat="42.211769" lon="13.9099359"><ele>336.0</ele><time>2026-05-03T10:36:06.475Z</time></trkpt><trkpt lat="42.2117843" lon="13.9100534"><ele>336.0</ele><time>2026-05-03T10:36:07.473Z</time></trkpt><trkpt lat="42.211808" lon="13.9101578"><ele>336.0</ele><time>2026-05-03T10:36:08.483Z</time></trkpt><trkpt lat="42.211838" lon="13.9102657"><ele>336.0</ele><time>2026-05-03T10:36:09.476Z</time></trkpt><trkpt lat="42.2118578" lon="13.9103709"><ele>336.0</ele><time>2026-05-03T10:36:10.476Z</time></trkpt><trkpt lat="42.2118586" lon="13.9104804"><ele>336.0</ele><time>2026-05-03T10:36:11.479Z</time></trkpt><trkpt lat="42.2118625" lon="13.9105994"><ele>336.0</ele><time>2026-05-03T10:36:12.472Z</time></trkpt><trkpt lat="42.2118621" lon="13.9107148"><ele>336.0</ele><time>2026-05-03T10:36:13.475Z</time></trkpt><trkpt lat="42.211845" lon="13.9108341"><ele>336.0</ele><time>2026-05-03T10:36:14.486Z</time></trkpt><trkpt lat="42.2118269" lon="13.9109491"><ele>336.0</ele><time>2026-05-03T10:36:15.475Z</time></trkpt><trkpt lat="42.2118138" lon="13.9110635"><ele>336.0</ele><time>2026-05-03T10:36:16.48Z</time></trkpt><trkpt lat="42.2117978" lon="13.9111703"><ele>336.0</ele><time>2026-05-03T10:36:17.486Z</time></trkpt><trkpt lat="42.2117861" lon="13.9112692"><ele>336.0</ele><time>2026-05-03T10:36:18.48Z</time></trkpt><trkpt lat="42.2117823" lon="13.9114455"><ele>336.0</ele><time>2026-05-03T10:36:20.49Z</time></trkpt><trkpt lat="42.2117785" lon="13.9115504"><ele>336.0</ele><time>2026-05-03T10:36:21.482Z</time></trkpt><trkpt lat="42.2117683" lon="13.9116639"><ele>336.0</ele><time>2026-05-03T10:36:22.481Z</time></trkpt><trkpt lat="42.2117627" lon="13.9117732"><ele>335.5</ele><time>2026-05-03T10:36:23.477Z</time></trkpt><trkpt lat="42.2117703" lon="13.9118714"><ele>335.0</ele><time>2026-05-03T10:36:24.482Z</time></trkpt><trkpt lat="42.2117943" lon="13.9119625"><ele>334.5</ele><time>2026-05-03T10:36:25.484Z</time></trkpt><trkpt lat="42.2118434" lon="13.912045"><ele>334.0</ele><time>2026-05-03T10:36:26.483Z</time></trkpt><trkpt lat="42.2118912" lon="13.9121321"><ele>333.5</ele><time>2026-05-03T10:36:27.478Z</time></trkpt><trkpt lat="42.2119399" lon="13.9122184"><ele>333.0</ele><time>2026-05-03T10:36:28.481Z</time></trkpt><trkpt lat="42.2119905" lon="13.9123014"><ele>333.0</ele><time>2026-05-03T10:36:29.47Z</time></trkpt><trkpt lat="42.2120549" lon="13.9123907"><ele>333.0</ele><time>2026-05-03T10:36:30.484Z</time></trkpt><trkpt lat="42.2121193" lon="13.9124795"><ele>333.0</ele><time>2026-05-03T10:36:31.471Z</time></trkpt><trkpt lat="42.2121807" lon="13.9125695"><ele>333.0</ele><time>2026-05-03T10:36:32.484Z</time></trkpt><trkpt lat="42.2122486" lon="13.9126642"><ele>333.0</ele><time>2026-05-03T10:36:33.481Z</time></trkpt><trkpt lat="42.2123144" lon="13.9127489"><ele>333.6666666666667</ele><time>2026-05-03T10:36:34.478Z</time></trkpt><trkpt lat="42.2123846" lon="13.9128123"><ele>334.3333333333333</ele><time>2026-05-03T10:36:35.478Z</time></trkpt><trkpt lat="42.2124585" lon="13.9128723"><ele>335.0</ele><time>2026-05-03T10:36:36.475Z</time></trkpt><trkpt lat="42.2125324" lon="13.9129293"><ele>335.66666666666663</ele><time>2026-05-03T10:36:37.474Z</time></trkpt><trkpt lat="42.212607" lon="13.9129826"><ele>336.3333333333333</ele><time>2026-05-03T10:36:38.472Z</time></trkpt><trkpt lat="42.2126874" lon="13.9130349"><ele>337.0</ele><time>2026-05-03T10:36:39.466Z</time></trkpt><trkpt lat="42.2127594" lon="13.9130896"><ele>337.0</ele><time>2026-05-03T10:36:40.468Z</time></trkpt><trkpt lat="42.2128194" lon="13.9131369"><ele>337.0</ele><time>2026-05-03T10:36:41.46Z</time></trkpt><trkpt lat="42.2129281" lon="13.9132173"><ele>337.0</ele><time>2026-05-03T10:36:43.468Z</time></trkpt><trkpt lat="42.213004" lon="13.9132464"><ele>337.0</ele><time>2026-05-03T10:36:44.47Z</time></trkpt><trkpt lat="42.2130798" lon="13.9132727"><ele>337.0</ele><time>2026-05-03T10:36:45.467Z</time></trkpt><trkpt lat="42.2131589" lon="13.9133001"><ele>337.0</ele><time>2026-05-03T10:36:46.469Z</time></trkpt><trkpt lat="42.2132348" lon="13.9133328"><ele>337.66666666666663</ele><time>2026-05-03T10:36:47.479Z</time></trkpt><trkpt lat="42.21331" lon="13.9133416"><ele>338.3333333333333</ele><time>2026-05-03T10:36:48.474Z</time></trkpt><trkpt lat="42.2133949" lon="13.9133349"><ele>339.0</ele><time>2026-05-03T10:36:49.488Z</time></trkpt><trkpt lat="42.2134839" lon="13.9133345"><ele>339.6666666666667</ele><time>2026-05-03T10:36:50.479Z</time></trkpt><trkpt lat="42.2135745" lon="13.9133455"><ele>340.33333333333337</ele><time>2026-05-03T10:36:51.493Z</time></trkpt><trkpt lat="42.213655" lon="13.913371"><ele>341.0</ele><time>2026-05-03T10:36:52.481Z</time></trkpt><trkpt lat="42.2137302" lon="13.9133798"><ele>341.0</ele><time>2026-05-03T10:36:53.492Z</time></trkpt><trkpt lat="42.2138065" lon="13.913377"><ele>341.0</ele><time>2026-05-03T10:36:54.484Z</time></trkpt><trkpt lat="42.2138855" lon="13.913372"><ele>341.0</ele><time>2026-05-03T10:36:55.492Z</time></trkpt><trkpt lat="42.2139671" lon="13.9133659"><ele>341.0</ele><time>2026-05-03T10:36:56.485Z</time></trkpt><trkpt lat="42.2140572" lon="13.9133564"><ele>341.0</ele><time>2026-05-03T10:36:57.488Z</time></trkpt><trkpt lat="42.2141565" lon="13.9133506"><ele>341.0</ele><time>2026-05-03T10:36:58.488Z</time></trkpt><trkpt lat="42.2142426" lon="13.9133382"><ele>341.33333333333337</ele><time>2026-05-03T10:36:59.496Z</time></trkpt><trkpt lat="42.2143255" lon="13.9133118"><ele>341.6666666666667</ele><time>2026-05-03T10:37:00.493Z</time></trkpt><trkpt lat="42.2144051" lon="13.9132689"><ele>342.0</ele><time>2026-05-03T10:37:01.494Z</time></trkpt><trkpt lat="42.2144838" lon="13.9132163"><ele>342.3333333333333</ele><time>2026-05-03T10:37:02.488Z</time></trkpt><trkpt lat="42.2145594" lon="13.9131633"><ele>342.66666666666663</ele><time>2026-05-03T10:37:03.494Z</time></trkpt><trkpt lat="42.2146366" lon="13.9131182"><ele>343.0</ele><time>2026-05-03T10:37:04.483Z</time></trkpt><trkpt lat="42.2147079" lon="13.913086"><ele>343.0</ele><time>2026-05-03T10:37:05.486Z</time></trkpt><trkpt lat="42.2147792" lon="13.9130596"><ele>343.0</ele><time>2026-05-03T10:37:06.479Z</time></trkpt><trkpt lat="42.2148513" lon="13.9130448"><ele>343.0</ele><time>2026-05-03T10:37:07.484Z</time></trkpt><trkpt lat="42.2149245" lon="13.9130518"><ele>343.0</ele><time>2026-05-03T10:37:08.481Z</time></trkpt><trkpt lat="42.2150238" lon="13.9130925"><ele>343.0</ele><time>2026-05-03T10:37:09.491Z</time></trkpt><trkpt lat="42.2151298" lon="13.9131731"><ele>343.0</ele><time>2026-05-03T10:37:10.474Z</time></trkpt><trkpt lat="42.2152376" lon="13.9132662"><ele>342.0</ele><time>2026-05-03T10:37:11.487Z</time></trkpt><trkpt lat="42.2153456" lon="13.9133575"><ele>341.0</ele><time>2026-05-03T10:37:12.48Z</time></trkpt><trkpt lat="42.2154575" lon="13.9134459"><ele>340.0</ele><time>2026-05-03T10:37:13.49Z</time></trkpt><trkpt lat="42.2155722" lon="13.9135377"><ele>339.0</ele><time>2026-05-03T10:37:14.493Z</time></trkpt><trkpt lat="42.2156837" lon="13.9136219"><ele>338.2</ele><time>2026-05-03T10:37:15.486Z</time></trkpt><trkpt lat="42.2157873" lon="13.9136993"><ele>337.4</ele><time>2026-05-03T10:37:16.504Z</time></trkpt><trkpt lat="42.2158856" lon="13.9137795"><ele>336.6</ele><time>2026-05-03T10:37:17.49Z</time></trkpt><trkpt lat="42.2159786" lon="13.913854"><ele>335.8</ele><time>2026-05-03T10:37:18.509Z</time></trkpt><trkpt lat="42.2160623" lon="13.9139265"><ele>335.0</ele><time>2026-05-03T10:37:19.499Z</time></trkpt><trkpt lat="42.2161367" lon="13.9139863"><ele>335.0</ele><time>2026-05-03T10:37:20.501Z</time></trkpt><trkpt lat="42.2161993" lon="13.9140414"><ele>335.0</ele><time>2026-05-03T10:37:21.491Z</time></trkpt><trkpt lat="42.2162824" lon="13.914122"><ele>335.0</ele><time>2026-05-03T10:37:23.499Z</time></trkpt><trkpt lat="42.2162217" lon="13.9142365"><ele>335.0</ele><time>2026-05-03T10:37:26.487Z</time></trkpt><trkpt lat="42.2161609" lon="13.9143028"><ele>335.0</ele><time>2026-05-03T10:37:27.496Z</time></trkpt><trkpt lat="42.2161" lon="13.9143684"><ele>335.0</ele><time>2026-05-03T10:37:28.48Z</time></trkpt><trkpt lat="42.2160393" lon="13.9144227"><ele>334.5</ele><time>2026-05-03T10:37:29.49Z</time></trkpt><trkpt lat="42.2159812" lon="13.914477"><ele>334.0</ele><time>2026-05-03T10:37:30.489Z</time></trkpt><trkpt lat="42.2159126" lon="13.9145295"><ele>333.5</ele><time>2026-05-03T10:37:31.476Z</time></trkpt><trkpt lat="42.2158318" lon="13.9145654"><ele>333.0</ele><time>2026-05-03T10:37:32.482Z</time></trkpt><trkpt lat="42.2157441" lon="13.9146054"><ele>332.5</ele><time>2026-05-03T10:37:33.482Z</time></trkpt><trkpt lat="42.2156617" lon="13.9146468"><ele>332.0</ele><time>2026-05-03T10:37:34.483Z</time></trkpt><trkpt lat="42.2155898" lon="13.9147075"><ele>332.0</ele><time>2026-05-03T10:37:35.478Z</time></trkpt><trkpt lat="42.2155159" lon="13.9147727"><ele>332.0</ele><time>2026-05-03T10:37:36.486Z</time></trkpt><trkpt lat="42.2154394" lon="13.9148329"><ele>332.0</ele><time>2026-05-03T10:37:37.481Z</time></trkpt><trkpt lat="42.2153593" lon="13.9148923"><ele>332.0</ele><time>2026-05-03T10:37:38.489Z</time></trkpt><trkpt lat="42.2152879" lon="13.914932"><ele>332.0</ele><time>2026-05-03T10:37:39.479Z</time></trkpt><trkpt lat="42.2152178" lon="13.9149596"><ele>332.0</ele><time>2026-05-03T10:37:40.492Z</time></trkpt><trkpt lat="42.215152" lon="13.9149915"><ele>330.6</ele><time>2026-05-03T10:37:41.489Z</time></trkpt><trkpt lat="42.2150498" lon="13.9150831"><ele>329.20000000000005</ele><time>2026-05-03T10:37:43.489Z</time></trkpt><trkpt lat="42.2150086" lon="13.915151"><ele>327.8</ele><time>2026-05-03T10:37:44.485Z</time></trkpt><trkpt lat="42.2149484" lon="13.9152166"><ele>326.4</ele><time>2026-05-03T10:37:45.481Z</time></trkpt><trkpt lat="42.2148692" lon="13.915285"><ele>325.0</ele><time>2026-05-03T10:37:46.489Z</time></trkpt><trkpt lat="42.2147884" lon="13.9153656"><ele>325.0</ele><time>2026-05-03T10:37:47.483Z</time></trkpt><trkpt lat="42.2147083" lon="13.9154389"><ele>325.0</ele><time>2026-05-03T10:37:48.489Z</time></trkpt><trkpt lat="42.214626" lon="13.9154988"><ele>325.0</ele><time>2026-05-03T10:37:49.485Z</time></trkpt><trkpt lat="42.2145377" lon="13.9155492"><ele>325.0</ele><time>2026-05-03T10:37:50.489Z</time></trkpt><trkpt lat="42.2144504" lon="13.9156"><ele>325.0</ele><time>2026-05-03T10:37:51.481Z</time></trkpt><trkpt lat="42.2143635" lon="13.9156713"><ele>325.0</ele><time>2026-05-03T10:37:52.478Z</time></trkpt><trkpt lat="42.2142785" lon="13.9157554"><ele>325.0</ele><time>2026-05-03T10:37:53.487Z</time></trkpt><trkpt lat="42.2142013" lon="13.9158498"><ele>325.0</ele><time>2026-05-03T10:37:54.484Z</time></trkpt><trkpt lat="42.2141252" lon="13.9159494"><ele>325.0</ele><time>2026-05-03T10:37:55.495Z</time></trkpt><trkpt lat="42.2140458" lon="13.9160443"><ele>325.0</ele><time>2026-05-03T10:37:56.487Z</time></trkpt><trkpt lat="42.2139601" lon="13.9161326"><ele>323.8</ele><time>2026-05-03T10:37:57.493Z</time></trkpt><trkpt lat="42.2138698" lon="13.9162082"><ele>322.6</ele><time>2026-05-03T10:37:58.488Z</time></trkpt><trkpt lat="42.2137754" lon="13.9162752"><ele>321.4</ele><time>2026-05-03T10:37:59.495Z</time></trkpt><trkpt lat="42.2136798" lon="13.9163365"><ele>320.2</ele><time>2026-05-03T10:38:00.492Z</time></trkpt><trkpt lat="42.2135874" lon="13.916398"><ele>319.0</ele><time>2026-05-03T10:38:01.493Z</time></trkpt><trkpt lat="42.2135071" lon="13.9164924"><ele>319.0</ele><time>2026-05-03T10:38:02.481Z</time></trkpt><trkpt lat="42.2134324" lon="13.9166035"><ele>319.0</ele><time>2026-05-03T10:38:03.496Z</time></trkpt><trkpt lat="42.2133803" lon="13.9167317"><ele>319.0</ele><time>2026-05-03T10:38:04.485Z</time></trkpt><trkpt lat="42.2133635" lon="13.9168881"><ele>319.0</ele><time>2026-05-03T10:38:05.489Z</time></trkpt><trkpt lat="42.2133787" lon="13.9170515"><ele>319.5</ele><time>2026-05-03T10:38:06.481Z</time></trkpt><trkpt lat="42.2134026" lon="13.9172176"><ele>320.0</ele><time>2026-05-03T10:38:07.488Z</time></trkpt><trkpt lat="42.2134206" lon="13.9173822"><ele>320.5</ele><time>2026-05-03T10:38:08.486Z</time></trkpt><trkpt lat="42.2134293" lon="13.9175441"><ele>321.0</ele><time>2026-05-03T10:38:09.489Z</time></trkpt><trkpt lat="42.2134273" lon="13.9176951"><ele>321.6666666666667</ele><time>2026-05-03T10:38:10.488Z</time></trkpt><trkpt lat="42.2134247" lon="13.917828"><ele>322.3333333333333</ele><time>2026-05-03T10:38:11.496Z</time></trkpt><trkpt lat="42.2134171" lon="13.9179398"><ele>323.0</ele><time>2026-05-03T10:38:12.486Z</time></trkpt><trkpt lat="42.213401" lon="13.9180347"><ele>323.66666666666663</ele><time>2026-05-03T10:38:13.491Z</time></trkpt><trkpt lat="42.2133613" lon="13.918152"><ele>324.3333333333333</ele><time>2026-05-03T10:38:15.488Z</time></trkpt><trkpt lat="42.213301" lon="13.9182229"><ele>325.0</ele><time>2026-05-03T10:38:18.48Z</time></trkpt><trkpt lat="42.2132862" lon="13.9183072"><ele>325.0</ele><time>2026-05-03T10:38:19.502Z</time></trkpt><trkpt lat="42.2132808" lon="13.9184177"><ele>325.0</ele><time>2026-05-03T10:38:20.482Z</time></trkpt><trkpt lat="42.2132846" lon="13.9185289"><ele>325.0</ele><time>2026-05-03T10:38:21.493Z</time></trkpt><trkpt lat="42.2132995" lon="13.9186161"><ele>325.0</ele><time>2026-05-03T10:38:22.487Z</time></trkpt><trkpt lat="42.2133277" lon="13.9187162"><ele>325.0</ele><time>2026-05-03T10:38:24.493Z</time></trkpt><trkpt lat="42.2133518" lon="13.9188411"><ele>325.0</ele><time>2026-05-03T10:38:27.499Z</time></trkpt><trkpt lat="42.2133853" lon="13.9190154"><ele>325.0</ele><time>2026-05-03T10:38:29.503Z</time></trkpt><trkpt lat="42.2134045" lon="13.9191344"><ele>325.0</ele><time>2026-05-03T10:38:30.501Z</time></trkpt><trkpt lat="42.2134205" lon="13.9192318"><ele>325.0</ele><time>2026-05-03T10:38:31.499Z</time></trkpt><trkpt lat="42.2134482" lon="13.9193465"><ele>325.0</ele><time>2026-05-03T10:38:33.497Z</time></trkpt><trkpt lat="42.2134497" lon="13.9192148"><ele>325.0</ele><time>2026-05-03T10:38:40.494Z</time></trkpt><trkpt lat="42.2134322" lon="13.9190922"><ele>325.0</ele><time>2026-05-03T10:38:41.491Z</time></trkpt><trkpt lat="42.2134127" lon="13.9189515"><ele>325.0</ele><time>2026-05-03T10:38:42.502Z</time></trkpt><trkpt lat="42.2133967" lon="13.9187995"><ele>325.0</ele><time>2026-05-03T10:38:43.497Z</time></trkpt><trkpt lat="42.2133863" lon="13.9186539"><ele>325.0</ele><time>2026-05-03T10:38:44.5Z</time></trkpt><trkpt lat="42.2133799" lon="13.9185297"><ele>325.0</ele><time>2026-05-03T10:38:45.497Z</time></trkpt><trkpt lat="42.213378" lon="13.9184191"><ele>325.0</ele><time>2026-05-03T10:38:46.498Z</time></trkpt><trkpt lat="42.2133844" lon="13.9183214"><ele>325.0</ele><time>2026-05-03T10:38:47.506Z</time></trkpt><trkpt lat="42.2133997" lon="13.9182344"><ele>325.0</ele><time>2026-05-03T10:38:48.494Z</time></trkpt><trkpt lat="42.2134744" lon="13.9181194"><ele>325.0</ele><time>2026-05-03T10:38:50.504Z</time></trkpt><trkpt lat="42.2135433" lon="13.9181093"><ele>325.0</ele><time>2026-05-03T10:38:51.497Z</time></trkpt><trkpt lat="42.213633" lon="13.918151"><ele>325.0</ele><time>2026-05-03T10:38:52.499Z</time></trkpt><trkpt lat="42.2137232" lon="13.9182129"><ele>325.0</ele><time>2026-05-03T10:38:53.496Z</time></trkpt><trkpt lat="42.2138138" lon="13.9183187"><ele>325.0</ele><time>2026-05-03T10:38:54.493Z</time></trkpt><trkpt lat="42.2139033" lon="13.9184506"><ele>325.0</ele><time>2026-05-03T10:38:55.506Z</time></trkpt><trkpt lat="42.2139882" lon="13.9185909"><ele>325.0</ele><time>2026-05-03T10:38:56.498Z</time></trkpt><trkpt lat="42.2140639" lon="13.9187273"><ele>325.0</ele><time>2026-05-03T10:38:57.501Z</time></trkpt><trkpt lat="42.214145" lon="13.9188543"><ele>324.75</ele><time>2026-05-03T10:38:58.495Z</time></trkpt><trkpt lat="42.2142417" lon="13.918977"><ele>324.5</ele><time>2026-05-03T10:38:59.5Z</time></trkpt><trkpt lat="42.2143456" lon="13.9190992"><ele>324.25</ele><time>2026-05-03T10:39:00.498Z</time></trkpt><trkpt lat="42.2144538" lon="13.9192044"><ele>324.0</ele><time>2026-05-03T10:39:01.505Z</time></trkpt><trkpt lat="42.2145614" lon="13.9193011"><ele>323.75</ele><time>2026-05-03T10:39:02.496Z</time></trkpt><trkpt lat="42.2146695" lon="13.9193935"><ele>323.5</ele><time>2026-05-03T10:39:03.502Z</time></trkpt><trkpt lat="42.2147768" lon="13.9194828"><ele>323.25</ele><time>2026-05-03T10:39:04.495Z</time></trkpt><trkpt lat="42.2148866" lon="13.9195741"><ele>323.0</ele><time>2026-05-03T10:39:05.51Z</time></trkpt><trkpt lat="42.2149991" lon="13.9196669"><ele>323.0</ele><time>2026-05-03T10:39:06.494Z</time></trkpt><trkpt lat="42.215118" lon="13.9197573"><ele>323.0</ele><time>2026-05-03T10:39:07.497Z</time></trkpt><trkpt lat="42.2152301" lon="13.9198781"><ele>323.0</ele><time>2026-05-03T10:39:08.496Z</time></trkpt><trkpt lat="42.2153447" lon="13.9199981"><ele>323.0</ele><time>2026-05-03T10:39:09.496Z</time></trkpt><trkpt lat="42.2154606" lon="13.920107"><ele>322.75</ele><time>2026-05-03T10:39:10.507Z</time></trkpt><trkpt lat="42.2155839" lon="13.9202322"><ele>322.5</ele><time>2026-05-03T10:39:11.496Z</time></trkpt><trkpt lat="42.2157014" lon="13.9203506"><ele>322.25</ele><time>2026-05-03T10:39:12.502Z</time></trkpt><trkpt lat="42.2158061" lon="13.9204835"><ele>322.0</ele><time>2026-05-03T10:39:13.5Z</time></trkpt><trkpt lat="42.2159221" lon="13.9206144"><ele>321.5</ele><time>2026-05-03T10:39:14.502Z</time></trkpt><trkpt lat="42.2160256" lon="13.9207253"><ele>321.0</ele><time>2026-05-03T10:39:15.495Z</time></trkpt><trkpt lat="42.2161353" lon="13.9208512"><ele>320.5</ele><time>2026-05-03T10:39:16.496Z</time></trkpt><trkpt lat="42.2162339" lon="13.9209839"><ele>320.0</ele><time>2026-05-03T10:39:17.502Z</time></trkpt><trkpt lat="42.2163344" lon="13.9211172"><ele>319.75</ele><time>2026-05-03T10:39:18.492Z</time></trkpt><trkpt lat="42.2164288" lon="13.9212732"><ele>319.5</ele><time>2026-05-03T10:39:19.502Z</time></trkpt><trkpt lat="42.2165284" lon="13.9214105"><ele>319.25</ele><time>2026-05-03T10:39:20.493Z</time></trkpt><trkpt lat="42.2166217" lon="13.9215418"><ele>319.0</ele><time>2026-05-03T10:39:21.499Z</time></trkpt><trkpt lat="42.2167235" lon="13.9216666"><ele>318.5</ele><time>2026-05-03T10:39:22.492Z</time></trkpt><trkpt lat="42.2168206" lon="13.9217703"><ele>318.0</ele><time>2026-05-03T10:39:23.501Z</time></trkpt><trkpt lat="42.2169107" lon="13.9218805"><ele>317.5</ele><time>2026-05-03T10:39:24.49Z</time></trkpt><trkpt lat="42.21699" lon="13.9219862"><ele>317.0</ele><time>2026-05-03T10:39:25.497Z</time></trkpt><trkpt lat="42.2170528" lon="13.9221114"><ele>317.0</ele><time>2026-05-03T10:39:26.492Z</time></trkpt><trkpt lat="42.2171027" lon="13.9222428"><ele>317.0</ele><time>2026-05-03T10:39:27.501Z</time></trkpt><trkpt lat="42.217146" lon="13.9223844"><ele>317.0</ele><time>2026-05-03T10:39:28.491Z</time></trkpt><trkpt lat="42.2171879" lon="13.9225404"><ele>317.0</ele><time>2026-05-03T10:39:29.5Z</time></trkpt><trkpt lat="42.2172376" lon="13.9226975"><ele>316.2</ele><time>2026-05-03T10:39:30.498Z</time></trkpt><trkpt lat="42.2172865" lon="13.9228538"><ele>315.4</ele><time>2026-05-03T10:39:31.504Z</time></trkpt><trkpt lat="42.217336" lon="13.9229965"><ele>314.6</ele><time>2026-05-03T10:39:32.493Z</time></trkpt><trkpt lat="42.217384" lon="13.923117"><ele>313.8</ele><time>2026-05-03T10:39:33.489Z</time></trkpt><trkpt lat="42.2174331" lon="13.9232142"><ele>313.0</ele><time>2026-05-03T10:39:34.485Z</time></trkpt><trkpt lat="42.2174819" lon="13.9232953"><ele>312.6</ele><time>2026-05-03T10:39:35.493Z</time></trkpt><trkpt lat="42.2175436" lon="13.9233572"><ele>312.20000000000005</ele><time>2026-05-03T10:39:36.486Z</time></trkpt><trkpt lat="42.2176209" lon="13.9234189"><ele>311.8</ele><time>2026-05-03T10:39:37.489Z</time></trkpt><trkpt lat="42.2177188" lon="13.9234893"><ele>311.40000000000003</ele><time>2026-05-03T10:39:38.488Z</time></trkpt><trkpt lat="42.2178323" lon="13.9235682"><ele>311.0</ele><time>2026-05-03T10:39:39.497Z</time></trkpt><trkpt lat="42.2179552" lon="13.923645"><ele>310.25</ele><time>2026-05-03T10:39:40.496Z</time></trkpt><trkpt lat="42.2180795" lon="13.923727"><ele>309.5</ele><time>2026-05-03T10:39:41.502Z</time></trkpt><trkpt lat="42.2181933" lon="13.9238216"><ele>308.75</ele><time>2026-05-03T10:39:42.495Z</time></trkpt><trkpt lat="42.218302" lon="13.9239295"><ele>308.0</ele><time>2026-05-03T10:39:43.499Z</time></trkpt><trkpt lat="42.2184221" lon="13.9240358"><ele>308.0</ele><time>2026-05-03T10:39:44.508Z</time></trkpt><trkpt lat="42.2185473" lon="13.9241512"><ele>308.0</ele><time>2026-05-03T10:39:45.503Z</time></trkpt><trkpt lat="42.2186547" lon="13.9242373"><ele>308.0</ele><time>2026-05-03T10:39:46.5Z</time></trkpt><trkpt lat="42.2187473" lon="13.9242931"><ele>308.0</ele><time>2026-05-03T10:39:47.497Z</time></trkpt><trkpt lat="42.2188307" lon="13.9243574"><ele>307.4</ele><time>2026-05-03T10:39:48.494Z</time></trkpt><trkpt lat="42.2189319" lon="13.9244055"><ele>306.8</ele><time>2026-05-03T10:39:49.508Z</time></trkpt><trkpt lat="42.2190427" lon="13.9244471"><ele>306.2</ele><time>2026-05-03T10:39:50.5Z</time></trkpt><trkpt lat="42.2191519" lon="13.9245115"><ele>305.6</ele><time>2026-05-03T10:39:51.51Z</time></trkpt><trkpt lat="42.2192463" lon="13.9245731"><ele>305.0</ele><time>2026-05-03T10:39:52.499Z</time></trkpt><trkpt lat="42.2193316" lon="13.9246451"><ele>304.4</ele><time>2026-05-03T10:39:53.499Z</time></trkpt><trkpt lat="42.2194132" lon="13.924745"><ele>303.8</ele><time>2026-05-03T10:39:54.489Z</time></trkpt><trkpt lat="42.2194896" lon="13.9248541"><ele>303.2</ele><time>2026-05-03T10:39:55.503Z</time></trkpt><trkpt lat="42.2195616" lon="13.9249574"><ele>302.6</ele><time>2026-05-03T10:39:56.496Z</time></trkpt><trkpt lat="42.2196321" lon="13.9250558"><ele>302.0</ele><time>2026-05-03T10:39:57.505Z</time></trkpt><trkpt lat="42.2197048" lon="13.9251492"><ele>301.6</ele><time>2026-05-03T10:39:58.493Z</time></trkpt><trkpt lat="42.2197782" lon="13.9252466"><ele>301.2</ele><time>2026-05-03T10:39:59.502Z</time></trkpt><trkpt lat="42.2198514" lon="13.925345"><ele>300.8</ele><time>2026-05-03T10:40:00.498Z</time></trkpt><trkpt lat="42.219927" lon="13.9254367"><ele>300.4</ele><time>2026-05-03T10:40:01.502Z</time></trkpt><trkpt lat="42.2200055" lon="13.9255152"><ele>300.0</ele><time>2026-05-03T10:40:02.497Z</time></trkpt><trkpt lat="42.2200795" lon="13.9255882"><ele>299.6666666666667</ele><time>2026-05-03T10:40:03.505Z</time></trkpt><trkpt lat="42.2201569" lon="13.9256371"><ele>299.3333333333333</ele><time>2026-05-03T10:40:04.494Z</time></trkpt><trkpt lat="42.2202393" lon="13.9256533"><ele>299.0</ele><time>2026-05-03T10:40:05.507Z</time></trkpt><trkpt lat="42.2203268" lon="13.925661"><ele>298.66666666666663</ele><time>2026-05-03T10:40:06.499Z</time></trkpt><trkpt lat="42.2204093" lon="13.9256612"><ele>298.3333333333333</ele><time>2026-05-03T10:40:07.508Z</time></trkpt><trkpt lat="42.2204789" lon="13.9256627"><ele>298.0</ele><time>2026-05-03T10:40:08.501Z</time></trkpt><trkpt lat="42.2205993" lon="13.9256689"><ele>297.0</ele><time>2026-05-03T10:40:10.499Z</time></trkpt><trkpt lat="42.2207241" lon="13.9256209"><ele>296.0</ele><time>2026-05-03T10:40:12.504Z</time></trkpt><trkpt lat="42.220802" lon="13.9255784"><ele>295.0</ele><time>2026-05-03T10:40:13.511Z</time></trkpt><trkpt lat="42.2208864" lon="13.9255451"><ele>294.0</ele><time>2026-05-03T10:40:14.505Z</time></trkpt><trkpt lat="42.2209563" lon="13.9255304"><ele>293.0</ele><time>2026-05-03T10:40:15.503Z</time></trkpt><trkpt lat="42.2210218" lon="13.9255226"><ele>292.0</ele><time>2026-05-03T10:40:16.501Z</time></trkpt><trkpt lat="42.2210873" lon="13.925533"><ele>292.0</ele><time>2026-05-03T10:40:17.512Z</time></trkpt><trkpt lat="42.2211547" lon="13.9255425"><ele>292.0</ele><time>2026-05-03T10:40:18.502Z</time></trkpt><trkpt lat="42.221223" lon="13.9255488"><ele>292.0</ele><time>2026-05-03T10:40:19.512Z</time></trkpt><trkpt lat="42.221296" lon="13.9255609"><ele>292.0</ele><time>2026-05-03T10:40:20.508Z</time></trkpt><trkpt lat="42.2213748" lon="13.9255724"><ele>292.0</ele><time>2026-05-03T10:40:21.509Z</time></trkpt><trkpt lat="42.2214601" lon="13.9255784"><ele>292.0</ele><time>2026-05-03T10:40:22.507Z</time></trkpt><trkpt lat="42.2215428" lon="13.9255922"><ele>290.3333333333333</ele><time>2026-05-03T10:40:23.509Z</time></trkpt><trkpt lat="42.2216207" lon="13.9256098"><ele>288.66666666666663</ele><time>2026-05-03T10:40:24.506Z</time></trkpt><trkpt lat="42.2216985" lon="13.9256228"><ele>287.0</ele><time>2026-05-03T10:40:25.509Z</time></trkpt><trkpt lat="42.2217741" lon="13.9256382"><ele>285.3333333333333</ele><time>2026-05-03T10:40:26.493Z</time></trkpt><trkpt lat="42.2218546" lon="13.9256508"><ele>283.6666666666667</ele><time>2026-05-03T10:40:27.504Z</time></trkpt><trkpt lat="42.2219316" lon="13.9256696"><ele>282.0</ele><time>2026-05-03T10:40:28.498Z</time></trkpt><trkpt lat="42.2220059" lon="13.9256864"><ele>282.0</ele><time>2026-05-03T10:40:29.503Z</time></trkpt><trkpt lat="42.2221059" lon="13.925727"><ele>282.0</ele><time>2026-05-03T10:40:31.502Z</time></trkpt><trkpt lat="42.222161" lon="13.9257722"><ele>282.0</ele><time>2026-05-03T10:40:34.506Z</time></trkpt><trkpt lat="42.2222486" lon="13.9257955"><ele>282.0</ele><time>2026-05-03T10:40:54.5Z</time></trkpt><trkpt lat="42.2223554" lon="13.9258606"><ele>282.0</ele><time>2026-05-03T10:40:56.498Z</time></trkpt><trkpt lat="42.2224246" lon="13.9258912"><ele>282.0</ele><time>2026-05-03T10:40:57.504Z</time></trkpt><trkpt lat="42.2225002" lon="13.9259177"><ele>277.8333333333333</ele><time>2026-05-03T10:40:58.492Z</time></trkpt><trkpt lat="42.2225733" lon="13.9259274"><ele>273.6666666666667</ele><time>2026-05-03T10:40:59.495Z</time></trkpt><trkpt lat="42.2226497" lon="13.9259138"><ele>269.5</ele><time>2026-05-03T10:41:00.494Z</time></trkpt><trkpt lat="42.2227214" lon="13.9259016"><ele>265.33333333333337</ele><time>2026-05-03T10:41:01.497Z</time></trkpt><trkpt lat="42.2228288" lon="13.9259"><ele>261.1666666666667</ele><time>2026-05-03T10:41:03.499Z</time></trkpt><trkpt lat="42.2229043" lon="13.9259346"><ele>257.0</ele><time>2026-05-03T10:41:05.498Z</time></trkpt><trkpt lat="42.2229749" lon="13.9259799"><ele>257.0</ele><time>2026-05-03T10:41:07.499Z</time></trkpt><trkpt lat="42.2229764" lon="13.9261031"><ele>257.0</ele><time>2026-05-03T10:41:10.494Z</time></trkpt><trkpt lat="42.222935" lon="13.9262452"><ele>257.0</ele><time>2026-05-03T10:41:12.496Z</time></trkpt><trkpt lat="42.2228984" lon="13.9263216"><ele>257.0</ele><time>2026-05-03T10:41:13.499Z</time></trkpt><trkpt lat="42.2228625" lon="13.9264063"><ele>257.0</ele><time>2026-05-03T10:41:14.498Z</time></trkpt><trkpt lat="42.2228266" lon="13.9264998"><ele>257.0</ele><time>2026-05-03T10:41:15.503Z</time></trkpt><trkpt lat="42.2227889" lon="13.9266045"><ele>257.0</ele><time>2026-05-03T10:41:16.505Z</time></trkpt><trkpt lat="42.2227485" lon="13.9267043"><ele>257.0</ele><time>2026-05-03T10:41:17.498Z</time></trkpt><trkpt lat="42.2227203" lon="13.9267995"><ele>257.0</ele><time>2026-05-03T10:41:18.503Z</time></trkpt><trkpt lat="42.2226976" lon="13.9268989"><ele>257.0</ele><time>2026-05-03T10:41:19.501Z</time></trkpt><trkpt lat="42.2226675" lon="13.9269913"><ele>257.0</ele><time>2026-05-03T10:41:20.503Z</time></trkpt><trkpt lat="42.2226242" lon="13.9270767"><ele>257.0</ele><time>2026-05-03T10:41:21.498Z</time></trkpt><trkpt lat="42.2225736" lon="13.9271681"><ele>255.33333333333334</ele><time>2026-05-03T10:41:22.503Z</time></trkpt><trkpt lat="42.2225333" lon="13.9272675"><ele>253.66666666666669</ele><time>2026-05-03T10:41:23.496Z</time></trkpt><trkpt lat="42.2225013" lon="13.9273747"><ele>252.0</ele><time>2026-05-03T10:41:24.502Z</time></trkpt><trkpt lat="42.2224657" lon="13.9274725"><ele>250.33333333333331</ele><time>2026-05-03T10:41:25.504Z</time></trkpt><trkpt lat="42.2224258" lon="13.9275643"><ele>248.66666666666666</ele><time>2026-05-03T10:41:26.495Z</time></trkpt><trkpt lat="42.2223965" lon="13.9276564"><ele>247.0</ele><time>2026-05-03T10:41:27.503Z</time></trkpt><trkpt lat="42.2223734" lon="13.9277375"><ele>247.66666666666666</ele><time>2026-05-03T10:41:28.504Z</time></trkpt><trkpt lat="42.2223419" lon="13.9278169"><ele>248.33333333333331</ele><time>2026-05-03T10:41:29.505Z</time></trkpt><trkpt lat="42.222311" lon="13.9279015"><ele>249.0</ele><time>2026-05-03T10:41:30.5Z</time></trkpt><trkpt lat="42.2222905" lon="13.927995"><ele>249.66666666666669</ele><time>2026-05-03T10:41:31.502Z</time></trkpt><trkpt lat="42.2222626" lon="13.928091"><ele>250.33333333333334</ele><time>2026-05-03T10:41:32.494Z</time></trkpt><trkpt lat="42.2222217" lon="13.9281915"><ele>251.0</ele><time>2026-05-03T10:41:33.499Z</time></trkpt><trkpt lat="42.2221745" lon="13.9283014"><ele>250.20000000000002</ele><time>2026-05-03T10:41:34.495Z</time></trkpt><trkpt lat="42.2221226" lon="13.9284284"><ele>249.40000000000003</ele><time>2026-05-03T10:41:35.503Z</time></trkpt><trkpt lat="42.222076" lon="13.9285512"><ele>248.6</ele><time>2026-05-03T10:41:36.497Z</time></trkpt><trkpt lat="42.2220275" lon="13.9286658"><ele>247.8</ele><time>2026-05-03T10:41:37.504Z</time></trkpt><trkpt lat="42.221971" lon="13.9287861"><ele>247.0</ele><time>2026-05-03T10:41:38.495Z</time></trkpt><trkpt lat="42.2219029" lon="13.9289374"><ele>247.0</ele><time>2026-05-03T10:41:39.502Z</time></trkpt><trkpt lat="42.2218297" lon="13.9291143"><ele>247.0</ele><time>2026-05-03T10:41:40.498Z</time></trkpt><trkpt lat="42.2217417" lon="13.9293195"><ele>247.0</ele><time>2026-05-03T10:41:41.502Z</time></trkpt><trkpt lat="42.2216652" lon="13.92952"><ele>246.5</ele><time>2026-05-03T10:41:42.499Z</time></trkpt><trkpt lat="42.2215835" lon="13.929704"><ele>246.0</ele><time>2026-05-03T10:41:43.505Z</time></trkpt><trkpt lat="42.2215105" lon="13.929872"><ele>245.5</ele><time>2026-05-03T10:41:44.504Z</time></trkpt><trkpt lat="42.2214438" lon="13.9300479"><ele>245.0</ele><time>2026-05-03T10:41:45.5Z</time></trkpt><trkpt lat="42.221379" lon="13.9301747"><ele>249.25</ele><time>2026-05-03T10:41:46.498Z</time></trkpt><trkpt lat="42.221307" lon="13.9302996"><ele>253.5</ele><time>2026-05-03T10:41:47.501Z</time></trkpt><trkpt lat="42.2212236" lon="13.9304392"><ele>257.75</ele><time>2026-05-03T10:41:48.501Z</time></trkpt><trkpt lat="42.2211386" lon="13.9305485"><ele>262.0</ele><time>2026-05-03T10:41:49.494Z</time></trkpt><trkpt lat="42.2210396" lon="13.930664"><ele>262.0</ele><time>2026-05-03T10:41:50.503Z</time></trkpt><trkpt lat="42.2209221" lon="13.9307392"><ele>262.0</ele><time>2026-05-03T10:41:51.494Z</time></trkpt><trkpt lat="42.2208241" lon="13.9308008"><ele>262.0</ele><time>2026-05-03T10:41:52.498Z</time></trkpt><trkpt lat="42.2207313" lon="13.9308439"><ele>262.0</ele><time>2026-05-03T10:41:53.49Z</time></trkpt><trkpt lat="42.2206525" lon="13.9308574"><ele>262.0</ele><time>2026-05-03T10:41:54.491Z</time></trkpt><trkpt lat="42.2205405" lon="13.9308762"><ele>260.8</ele><time>2026-05-03T10:41:56.489Z</time></trkpt><trkpt lat="42.220502" lon="13.9310252"><ele>259.6</ele><time>2026-05-03T10:41:58.49Z</time></trkpt><trkpt lat="42.2205215" lon="13.9311098"><ele>258.40000000000003</ele><time>2026-05-03T10:41:59.484Z</time></trkpt><trkpt lat="42.2205683" lon="13.9311992"><ele>257.2</ele><time>2026-05-03T10:42:00.497Z</time></trkpt><trkpt lat="42.2206121" lon="13.9313034"><ele>256.0</ele><time>2026-05-03T10:42:01.481Z</time></trkpt><trkpt lat="42.2206439" lon="13.9314443"><ele>256.25</ele><time>2026-05-03T10:42:02.488Z</time></trkpt><trkpt lat="42.2206818" lon="13.9316134"><ele>256.5</ele><time>2026-05-03T10:42:03.482Z</time></trkpt><trkpt lat="42.2207224" lon="13.9317829"><ele>256.75</ele><time>2026-05-03T10:42:04.498Z</time></trkpt><trkpt lat="42.2207617" lon="13.9319432"><ele>257.0</ele><time>2026-05-03T10:42:05.483Z</time></trkpt><trkpt lat="42.2207985" lon="13.9320978"><ele>255.0</ele><time>2026-05-03T10:42:06.493Z</time></trkpt><trkpt lat="42.22084" lon="13.9322552"><ele>253.0</ele><time>2026-05-03T10:42:07.49Z</time></trkpt><trkpt lat="42.2208852" lon="13.932405"><ele>251.0</ele><time>2026-05-03T10:42:08.496Z</time></trkpt><trkpt lat="42.2209388" lon="13.9325437"><ele>249.0</ele><time>2026-05-03T10:42:09.487Z</time></trkpt><trkpt lat="42.221015" lon="13.9326743"><ele>246.75</ele><time>2026-05-03T10:42:10.491Z</time></trkpt><trkpt lat="42.2211104" lon="13.9327979"><ele>244.5</ele><time>2026-05-03T10:42:11.486Z</time></trkpt><trkpt lat="42.221222" lon="13.9329219"><ele>242.25</ele><time>2026-05-03T10:42:12.496Z</time></trkpt><trkpt lat="42.221324" lon="13.9330433"><ele>240.0</ele><time>2026-05-03T10:42:13.492Z</time></trkpt><trkpt lat="42.2214179" lon="13.9331678"><ele>238.5</ele><time>2026-05-03T10:42:14.493Z</time></trkpt><trkpt lat="42.2215059" lon="13.9332969"><ele>237.0</ele><time>2026-05-03T10:42:15.492Z</time></trkpt><trkpt lat="42.2215825" lon="13.9334318"><ele>235.5</ele><time>2026-05-03T10:42:16.499Z</time></trkpt><trkpt lat="42.2216566" lon="13.9335622"><ele>234.0</ele><time>2026-05-03T10:42:17.489Z</time></trkpt><trkpt lat="42.2217397" lon="13.9336856"><ele>232.5</ele><time>2026-05-03T10:42:18.489Z</time></trkpt><trkpt lat="42.2218355" lon="13.9337791"><ele>231.0</ele><time>2026-05-03T10:42:19.482Z</time></trkpt><trkpt lat="42.2219438" lon="13.9338328"><ele>229.5</ele><time>2026-05-03T10:42:20.483Z</time></trkpt><trkpt lat="42.2220575" lon="13.9338551"><ele>228.0</ele><time>2026-05-03T10:42:21.493Z</time></trkpt><trkpt lat="42.2221777" lon="13.9338686"><ele>228.0</ele><time>2026-05-03T10:42:22.481Z</time></trkpt><trkpt lat="42.2222837" lon="13.9339086"><ele>228.0</ele><time>2026-05-03T10:42:23.489Z</time></trkpt><trkpt lat="42.2223582" lon="13.9339903"><ele>228.0</ele><time>2026-05-03T10:42:24.492Z</time></trkpt><trkpt lat="42.222392" lon="13.9341014"><ele>228.0</ele><time>2026-05-03T10:42:25.492Z</time></trkpt><trkpt lat="42.2223963" lon="13.9342424"><ele>228.0</ele><time>2026-05-03T10:42:26.487Z</time></trkpt><trkpt lat="42.2223925" lon="13.9344199"><ele>225.2</ele><time>2026-05-03T10:42:27.488Z</time></trkpt><trkpt lat="42.2223956" lon="13.9345839"><ele>222.4</ele><time>2026-05-03T10:42:28.486Z</time></trkpt><trkpt lat="42.222404" lon="13.9347304"><ele>219.59999999999997</ele><time>2026-05-03T10:42:29.49Z</time></trkpt><trkpt lat="42.2224236" lon="13.9348632"><ele>216.79999999999998</ele><time>2026-05-03T10:42:30.485Z</time></trkpt><trkpt lat="42.2224782" lon="13.9349705"><ele>214.0</ele><time>2026-05-03T10:42:31.495Z</time></trkpt><trkpt lat="42.222586" lon="13.9350425"><ele>212.5</ele><time>2026-05-03T10:42:32.487Z</time></trkpt><trkpt lat="42.2227192" lon="13.9350952"><ele>211.0</ele><time>2026-05-03T10:42:33.491Z</time></trkpt><trkpt lat="42.2228603" lon="13.9351377"><ele>209.5</ele><time>2026-05-03T10:42:34.49Z</time></trkpt><trkpt lat="42.2229989" lon="13.935191"><ele>208.0</ele><time>2026-05-03T10:42:35.487Z</time></trkpt><trkpt lat="42.2231341" lon="13.9352929"><ele>207.0</ele><time>2026-05-03T10:42:36.495Z</time></trkpt><trkpt lat="42.2232526" lon="13.9354189"><ele>206.0</ele><time>2026-05-03T10:42:37.487Z</time></trkpt><trkpt lat="42.2233494" lon="13.9355711"><ele>205.0</ele><time>2026-05-03T10:42:38.49Z</time></trkpt><trkpt lat="42.2234347" lon="13.9357124"><ele>204.0</ele><time>2026-05-03T10:42:39.485Z</time></trkpt><trkpt lat="42.2235001" lon="13.9358442"><ele>203.6</ele><time>2026-05-03T10:42:40.488Z</time></trkpt><trkpt lat="42.2235403" lon="13.9359747"><ele>203.2</ele><time>2026-05-03T10:42:41.489Z</time></trkpt><trkpt lat="42.2235771" lon="13.9360994"><ele>202.79999999999998</ele><time>2026-05-03T10:42:42.495Z</time></trkpt><trkpt lat="42.2236029" lon="13.9362179"><ele>202.39999999999998</ele><time>2026-05-03T10:42:43.486Z</time></trkpt><trkpt lat="42.2236759" lon="13.9362904"><ele>202.0</ele><time>2026-05-03T10:42:44.495Z</time></trkpt><trkpt lat="42.2237557" lon="13.9363461"><ele>202.0</ele><time>2026-05-03T10:42:45.486Z</time></trkpt><trkpt lat="42.2238514" lon="13.9363903"><ele>202.0</ele><time>2026-05-03T10:42:46.486Z</time></trkpt><trkpt lat="42.2239422" lon="13.9363961"><ele>202.0</ele><time>2026-05-03T10:42:47.487Z</time></trkpt><trkpt lat="42.2240376" lon="13.9363978"><ele>202.0</ele><time>2026-05-03T10:42:48.483Z</time></trkpt><trkpt lat="42.2241255" lon="13.9364263"><ele>202.0</ele><time>2026-05-03T10:42:49.5Z</time></trkpt><trkpt lat="42.2242148" lon="13.9365045"><ele>201.0</ele><time>2026-05-03T10:42:50.483Z</time></trkpt><trkpt lat="42.2243173" lon="13.9365895"><ele>200.0</ele><time>2026-05-03T10:42:51.489Z</time></trkpt><trkpt lat="42.2244426" lon="13.9366491"><ele>199.0</ele><time>2026-05-03T10:42:52.49Z</time></trkpt><trkpt lat="42.2245827" lon="13.9366934"><ele>198.0</ele><time>2026-05-03T10:42:53.489Z</time></trkpt><trkpt lat="42.2247306" lon="13.9367556"><ele>197.5</ele><time>2026-05-03T10:42:54.495Z</time></trkpt><trkpt lat="42.2248813" lon="13.9368202"><ele>197.0</ele><time>2026-05-03T10:42:55.494Z</time></trkpt><trkpt lat="42.2250175" lon="13.9368595"><ele>196.5</ele><time>2026-05-03T10:42:56.493Z</time></trkpt><trkpt lat="42.2251572" lon="13.9368977"><ele>196.0</ele><time>2026-05-03T10:42:57.501Z</time></trkpt><trkpt lat="42.2252911" lon="13.9369342"><ele>196.0</ele><time>2026-05-03T10:42:58.494Z</time></trkpt><trkpt lat="42.2254054" lon="13.9369832"><ele>196.0</ele><time>2026-05-03T10:42:59.492Z</time></trkpt><trkpt lat="42.2254959" lon="13.9370525"><ele>196.0</ele><time>2026-05-03T10:43:00.498Z</time></trkpt><trkpt lat="42.2255635" lon="13.9371286"><ele>196.0</ele><time>2026-05-03T10:43:01.491Z</time></trkpt><trkpt lat="42.2256262" lon="13.937223"><ele>196.0</ele><time>2026-05-03T10:43:02.497Z</time></trkpt><trkpt lat="42.2256751" lon="13.9373118"><ele>195.8</ele><time>2026-05-03T10:43:03.49Z</time></trkpt><trkpt lat="42.2257192" lon="13.9373785"><ele>195.60000000000002</ele><time>2026-05-03T10:43:04.492Z</time></trkpt><trkpt lat="42.225739" lon="13.9374605"><ele>195.4</ele><time>2026-05-03T10:43:05.492Z</time></trkpt><trkpt lat="42.2257498" lon="13.9375657"><ele>195.2</ele><time>2026-05-03T10:43:06.496Z</time></trkpt><trkpt lat="42.2257451" lon="13.9377233"><ele>195.0</ele><time>2026-05-03T10:43:07.502Z</time></trkpt><trkpt lat="42.2257309" lon="13.9379367"><ele>195.0</ele><time>2026-05-03T10:43:08.49Z</time></trkpt><trkpt lat="42.2257167" lon="13.9382214"><ele>195.0</ele><time>2026-05-03T10:43:09.492Z</time></trkpt><trkpt lat="42.2257131" lon="13.9384962"><ele>195.0</ele><time>2026-05-03T10:43:10.485Z</time></trkpt><trkpt lat="42.2257123" lon="13.9387891"><ele>195.0</ele><time>2026-05-03T10:43:11.489Z</time></trkpt><trkpt lat="42.2257075" lon="13.9390976"><ele>195.0</ele><time>2026-05-03T10:43:12.484Z</time></trkpt><trkpt lat="42.2257012" lon="13.9394115"><ele>195.0</ele><time>2026-05-03T10:43:13.494Z</time></trkpt><trkpt lat="42.2256957" lon="13.9397153"><ele>195.0</ele><time>2026-05-03T10:43:14.491Z</time></trkpt><trkpt lat="42.2256864" lon="13.9400106"><ele>195.0</ele><time>2026-05-03T10:43:15.499Z</time></trkpt><trkpt lat="42.225688" lon="13.9402852"><ele>194.66666666666669</ele><time>2026-05-03T10:43:16.488Z</time></trkpt><trkpt lat="42.2256957" lon="13.9405632"><ele>194.33333333333334</ele><time>2026-05-03T10:43:17.484Z</time></trkpt><trkpt lat="42.2257416" lon="13.9408716"><ele>194.0</ele><time>2026-05-03T10:43:18.487Z</time></trkpt><trkpt lat="42.2258101" lon="13.9411788"><ele>193.5</ele><time>2026-05-03T10:43:19.488Z</time></trkpt><trkpt lat="42.225898" lon="13.9414768"><ele>193.0</ele><time>2026-05-03T10:43:20.495Z</time></trkpt><trkpt lat="42.2259844" lon="13.9417834"><ele>193.0</ele><time>2026-05-03T10:43:21.487Z</time></trkpt><trkpt lat="42.2260605" lon="13.9420953"><ele>193.0</ele><time>2026-05-03T10:43:22.5Z</time></trkpt><trkpt lat="42.226149" lon="13.9423912"><ele>193.0</ele><time>2026-05-03T10:43:23.493Z</time></trkpt><trkpt lat="42.2262283" lon="13.9426921"><ele>193.0</ele><time>2026-05-03T10:43:24.493Z</time></trkpt><trkpt lat="42.226315" lon="13.9429762"><ele>193.0</ele><time>2026-05-03T10:43:25.495Z</time></trkpt><trkpt lat="42.2263987" lon="13.9432512"><ele>193.0</ele><time>2026-05-03T10:43:26.494Z</time></trkpt><trkpt lat="42.2264767" lon="13.9435364"><ele>193.0</ele><time>2026-05-03T10:43:27.493Z</time></trkpt><trkpt lat="42.2265576" lon="13.9438209"><ele>194.5</ele><time>2026-05-03T10:43:28.495Z</time></trkpt><trkpt lat="42.2266366" lon="13.9441062"><ele>196.0</ele><time>2026-05-03T10:43:29.496Z</time></trkpt><trkpt lat="42.2267233" lon="13.9443875"><ele>197.0</ele><time>2026-05-03T10:43:30.5Z</time></trkpt><trkpt lat="42.226811" lon="13.9446697"><ele>198.0</ele><time>2026-05-03T10:43:31.496Z</time></trkpt><trkpt lat="42.2268856" lon="13.9449565"><ele>198.0</ele><time>2026-05-03T10:43:32.496Z</time></trkpt><trkpt lat="42.2269641" lon="13.9452404"><ele>198.0</ele><time>2026-05-03T10:43:33.495Z</time></trkpt><trkpt lat="42.2270398" lon="13.9455153"><ele>198.0</ele><time>2026-05-03T10:43:34.5Z</time></trkpt><trkpt lat="42.2271215" lon="13.9457846"><ele>198.66666666666669</ele><time>2026-05-03T10:43:35.493Z</time></trkpt><trkpt lat="42.227199" lon="13.9460488"><ele>199.33333333333334</ele><time>2026-05-03T10:43:36.501Z</time></trkpt><trkpt lat="42.2272868" lon="13.946315"><ele>200.0</ele><time>2026-05-03T10:43:37.496Z</time></trkpt><trkpt lat="42.2273757" lon="13.9465883"><ele>201.33333333333334</ele><time>2026-05-03T10:43:38.497Z</time></trkpt><trkpt lat="42.2274581" lon="13.9468657"><ele>202.66666666666669</ele><time>2026-05-03T10:43:39.499Z</time></trkpt><trkpt lat="42.2275379" lon="13.9471435"><ele>204.0</ele><time>2026-05-03T10:43:40.496Z</time></trkpt><trkpt lat="42.2276079" lon="13.9474256"><ele>205.0</ele><time>2026-05-03T10:43:41.498Z</time></trkpt><trkpt lat="42.2276802" lon="13.9476842"><ele>206.0</ele><time>2026-05-03T10:43:42.488Z</time></trkpt><trkpt lat="42.2277399" lon="13.9479253"><ele>207.0</ele><time>2026-05-03T10:43:43.495Z</time></trkpt><trkpt lat="42.2278192" lon="13.9481177"><ele>207.0</ele><time>2026-05-03T10:43:44.493Z</time></trkpt><trkpt lat="42.2279175" lon="13.9483001"><ele>207.0</ele><time>2026-05-03T10:43:45.491Z</time></trkpt><trkpt lat="42.2280502" lon="13.9484678"><ele>207.0</ele><time>2026-05-03T10:43:46.49Z</time></trkpt><trkpt lat="42.2282045" lon="13.9486306"><ele>208.0</ele><time>2026-05-03T10:43:47.499Z</time></trkpt><trkpt lat="42.2283595" lon="13.9487976"><ele>209.0</ele><time>2026-05-03T10:43:48.495Z</time></trkpt><trkpt lat="42.2285553" lon="13.9489378"><ele>210.0</ele><time>2026-05-03T10:43:49.494Z</time></trkpt><trkpt lat="42.2287401" lon="13.9490955"><ele>211.33333333333331</ele><time>2026-05-03T10:43:50.495Z</time></trkpt><trkpt lat="42.2289193" lon="13.9492566"><ele>212.66666666666666</ele><time>2026-05-03T10:43:51.499Z</time></trkpt><trkpt lat="42.2290883" lon="13.9494167"><ele>214.0</ele><time>2026-05-03T10:43:52.493Z</time></trkpt><trkpt lat="42.2292647" lon="13.9495907"><ele>216.0</ele><time>2026-05-03T10:43:53.492Z</time></trkpt><trkpt lat="42.2294461" lon="13.9497382"><ele>218.0</ele><time>2026-05-03T10:43:54.492Z</time></trkpt><trkpt lat="42.2296202" lon="13.9498854"><ele>220.0</ele><time>2026-05-03T10:43:55.502Z</time></trkpt><trkpt lat="42.229769" lon="13.9500259"><ele>223.0</ele><time>2026-05-03T10:43:56.491Z</time></trkpt><trkpt lat="42.2299503" lon="13.9501067"><ele>226.0</ele><time>2026-05-03T10:43:57.491Z</time></trkpt><trkpt lat="42.2301501" lon="13.9501535"><ele>229.0</ele><time>2026-05-03T10:43:58.491Z</time></trkpt><trkpt lat="42.2303525" lon="13.9501881"><ele>229.0</ele><time>2026-05-03T10:43:59.496Z</time></trkpt><trkpt lat="42.2305273" lon="13.9502218"><ele>229.0</ele><time>2026-05-03T10:44:00.488Z</time></trkpt><trkpt lat="42.2307042" lon="13.9502492"><ele>229.0</ele><time>2026-05-03T10:44:01.497Z</time></trkpt><trkpt lat="42.2308791" lon="13.9502862"><ele>233.0</ele><time>2026-05-03T10:44:02.492Z</time></trkpt><trkpt lat="42.231064" lon="13.9503281"><ele>237.0</ele><time>2026-05-03T10:44:03.495Z</time></trkpt><trkpt lat="42.2312504" lon="13.9503835"><ele>241.0</ele><time>2026-05-03T10:44:04.487Z</time></trkpt><trkpt lat="42.2314498" lon="13.9504512"><ele>242.0</ele><time>2026-05-03T10:44:05.496Z</time></trkpt><trkpt lat="42.2316436" lon="13.9505245"><ele>243.0</ele><time>2026-05-03T10:44:06.491Z</time></trkpt><trkpt lat="42.2318387" lon="13.9505883"><ele>244.0</ele><time>2026-05-03T10:44:07.499Z</time></trkpt><trkpt lat="42.2320336" lon="13.9506427"><ele>244.0</ele><time>2026-05-03T10:44:08.488Z</time></trkpt><trkpt lat="42.2322046" lon="13.950683"><ele>244.0</ele><time>2026-05-03T10:44:09.498Z</time></trkpt><trkpt lat="42.2323635" lon="13.9507381"><ele>244.0</ele><time>2026-05-03T10:44:10.485Z</time></trkpt><trkpt lat="42.2324911" lon="13.9507689"><ele>244.16666666666666</ele><time>2026-05-03T10:44:11.492Z</time></trkpt><trkpt lat="42.2325941" lon="13.9507994"><ele>244.33333333333331</ele><time>2026-05-03T10:44:12.488Z</time></trkpt><trkpt lat="42.2326729" lon="13.9508052"><ele>244.5</ele><time>2026-05-03T10:44:13.484Z</time></trkpt><trkpt lat="42.2327374" lon="13.9508117"><ele>244.66666666666669</ele><time>2026-05-03T10:44:14.484Z</time></trkpt><trkpt lat="42.2328075" lon="13.9508179"><ele>244.83333333333334</ele><time>2026-05-03T10:44:16.489Z</time></trkpt><trkpt lat="42.2328917" lon="13.9507881"><ele>245.0</ele><time>2026-05-03T10:44:19.494Z</time></trkpt><trkpt lat="42.2329631" lon="13.9507464"><ele>245.0</ele><time>2026-05-03T10:44:21.493Z</time></trkpt><trkpt lat="42.2330671" lon="13.9507703"><ele>245.0</ele><time>2026-05-03T10:44:26.495Z</time></trkpt><trkpt lat="42.2332107" lon="13.9507998"><ele>245.0</ele><time>2026-05-03T10:44:28.494Z</time></trkpt><trkpt lat="42.2333143" lon="13.950803"><ele>245.0</ele><time>2026-05-03T10:44:29.493Z</time></trkpt><trkpt lat="42.2334222" lon="13.9507823"><ele>244.75</ele><time>2026-05-03T10:44:30.496Z</time></trkpt><trkpt lat="42.2335304" lon="13.9507305"><ele>244.5</ele><time>2026-05-03T10:44:31.49Z</time></trkpt><trkpt lat="42.2336191" lon="13.9506516"><ele>244.25</ele><time>2026-05-03T10:44:32.497Z</time></trkpt><trkpt lat="42.2336981" lon="13.9505393"><ele>244.0</ele><time>2026-05-03T10:44:33.489Z</time></trkpt><trkpt lat="42.2337707" lon="13.9504072"><ele>244.0</ele><time>2026-05-03T10:44:34.494Z</time></trkpt><trkpt lat="42.2338479" lon="13.9502553"><ele>244.0</ele><time>2026-05-03T10:44:35.496Z</time></trkpt><trkpt lat="42.2339292" lon="13.9501015"><ele>244.0</ele><time>2026-05-03T10:44:36.495Z</time></trkpt><trkpt lat="42.2340072" lon="13.9499594"><ele>244.0</ele><time>2026-05-03T10:44:37.497Z</time></trkpt><trkpt lat="42.2340837" lon="13.9498264"><ele>245.0</ele><time>2026-05-03T10:44:38.501Z</time></trkpt><trkpt lat="42.2341608" lon="13.9497008"><ele>245.99999999999997</ele><time>2026-05-03T10:44:39.496Z</time></trkpt><trkpt lat="42.2342251" lon="13.9495914"><ele>246.99999999999997</ele><time>2026-05-03T10:44:40.498Z</time></trkpt><trkpt lat="42.2342738" lon="13.9495018"><ele>248.0</ele><time>2026-05-03T10:44:41.501Z</time></trkpt><trkpt lat="42.2343211" lon="13.9494297"><ele>249.0</ele><time>2026-05-03T10:44:42.502Z</time></trkpt><trkpt lat="42.2343787" lon="13.9493198"><ele>249.0</ele><time>2026-05-03T10:44:44.499Z</time></trkpt><trkpt lat="42.2343216" lon="13.949376"><ele>249.0</ele><time>2026-05-03T10:45:08.493Z</time></trkpt><trkpt lat="42.2342603" lon="13.9494951"><ele>249.0</ele><time>2026-05-03T10:45:10.496Z</time></trkpt><trkpt lat="42.2342091" lon="13.9495573"><ele>249.0</ele><time>2026-05-03T10:45:11.502Z</time></trkpt><trkpt lat="42.2341598" lon="13.94962"><ele>249.0</ele><time>2026-05-03T10:45:12.499Z</time></trkpt><trkpt lat="42.2341161" lon="13.9496824"><ele>249.0</ele><time>2026-05-03T10:45:13.499Z</time></trkpt><trkpt lat="42.2340367" lon="13.9498087"><ele>248.0</ele><time>2026-05-03T10:45:15.496Z</time></trkpt><trkpt lat="42.2339627" lon="13.9499288"><ele>246.99999999999997</ele><time>2026-05-03T10:45:17.5Z</time></trkpt><trkpt lat="42.2339036" lon="13.9500331"><ele>245.99999999999997</ele><time>2026-05-03T10:45:19.499Z</time></trkpt><trkpt lat="42.2338341" lon="13.9501465"><ele>245.0</ele><time>2026-05-03T10:45:21.492Z</time></trkpt><trkpt lat="42.2337864" lon="13.9502258"><ele>244.0</ele><time>2026-05-03T10:45:22.492Z</time></trkpt><trkpt lat="42.2337355" lon="13.9503211"><ele>243.99999999999997</ele><time>2026-05-03T10:45:23.501Z</time></trkpt><trkpt lat="42.2336821" lon="13.9504178"><ele>244.0</ele><time>2026-05-03T10:45:24.495Z</time></trkpt><trkpt lat="42.2336263" lon="13.9505086"><ele>244.0</ele><time>2026-05-03T10:45:25.502Z</time></trkpt><trkpt lat="42.2335697" lon="13.9505927"><ele>244.0</ele><time>2026-05-03T10:45:26.495Z</time></trkpt><trkpt lat="42.2335069" lon="13.9506615"><ele>243.99999999999997</ele><time>2026-05-03T10:45:27.497Z</time></trkpt><trkpt lat="42.2334347" lon="13.950717"><ele>244.0</ele><time>2026-05-03T10:45:28.492Z</time></trkpt><trkpt lat="42.2333588" lon="13.9507617"><ele>243.99999999999997</ele><time>2026-05-03T10:45:29.497Z</time></trkpt><trkpt lat="42.2332892" lon="13.9507833"><ele>244.0</ele><time>2026-05-03T10:45:30.5Z</time></trkpt><trkpt lat="42.2332138" lon="13.9507815"><ele>244.0</ele><time>2026-05-03T10:45:31.497Z</time></trkpt><trkpt lat="42.2331274" lon="13.9507697"><ele>244.0</ele><time>2026-05-03T10:45:32.494Z</time></trkpt><trkpt lat="42.2330439" lon="13.9507573"><ele>243.99999999999997</ele><time>2026-05-03T10:45:33.494Z</time></trkpt><trkpt lat="42.2329709" lon="13.9507376"><ele>244.0</ele><time>2026-05-03T10:45:34.509Z</time></trkpt><trkpt lat="42.2329068" lon="13.9507218"><ele>244.2</ele><time>2026-05-03T10:45:35.494Z</time></trkpt><trkpt lat="42.2329258" lon="13.9508174"><ele>244.39999999999998</ele><time>2026-05-03T10:45:46.501Z</time></trkpt><trkpt lat="42.2330175" lon="13.9508689"><ele>244.6</ele><time>2026-05-03T10:45:47.495Z</time></trkpt><trkpt lat="42.2331411" lon="13.9509258"><ele>244.8</ele><time>2026-05-03T10:45:48.487Z</time></trkpt><trkpt lat="42.2332745" lon="13.950982"><ele>245.0</ele><time>2026-05-03T10:45:49.489Z</time></trkpt><trkpt lat="42.233421" lon="13.9510403"><ele>244.0</ele><time>2026-05-03T10:45:50.49Z</time></trkpt><trkpt lat="42.2335947" lon="13.9510919"><ele>243.0</ele><time>2026-05-03T10:45:51.49Z</time></trkpt><trkpt lat="42.2338133" lon="13.9511839"><ele>242.0</ele><time>2026-05-03T10:45:52.493Z</time></trkpt><trkpt lat="42.2340155" lon="13.9512443"><ele>239.0</ele><time>2026-05-03T10:45:53.505Z</time></trkpt><trkpt lat="42.2342264" lon="13.9513083"><ele>236.0</ele><time>2026-05-03T10:45:54.497Z</time></trkpt><trkpt lat="42.2344336" lon="13.9513548"><ele>233.0</ele><time>2026-05-03T10:45:55.508Z</time></trkpt><trkpt lat="42.234626" lon="13.9514134"><ele>231.0</ele><time>2026-05-03T10:45:56.493Z</time></trkpt><trkpt lat="42.2348046" lon="13.9514694"><ele>229.0</ele><time>2026-05-03T10:45:57.504Z</time></trkpt><trkpt lat="42.2349748" lon="13.9515225"><ele>227.0</ele><time>2026-05-03T10:45:58.497Z</time></trkpt><trkpt lat="42.2351371" lon="13.9515764"><ele>227.0</ele><time>2026-05-03T10:45:59.503Z</time></trkpt><trkpt lat="42.2353064" lon="13.9516304"><ele>227.0</ele><time>2026-05-03T10:46:00.502Z</time></trkpt><trkpt lat="42.235477" lon="13.951701"><ele>227.0</ele><time>2026-05-03T10:46:01.494Z</time></trkpt><trkpt lat="42.2356237" lon="13.9518148"><ele>225.66666666666669</ele><time>2026-05-03T10:46:02.49Z</time></trkpt><trkpt lat="42.2357616" lon="13.9519538"><ele>224.33333333333331</ele><time>2026-05-03T10:46:03.493Z</time></trkpt><trkpt lat="42.235898" lon="13.9521263"><ele>223.0</ele><time>2026-05-03T10:46:04.49Z</time></trkpt><trkpt lat="42.2360242" lon="13.9522972"><ele>223.0</ele><time>2026-05-03T10:46:05.492Z</time></trkpt><trkpt lat="42.2361463" lon="13.9524579"><ele>223.0</ele><time>2026-05-03T10:46:06.489Z</time></trkpt><trkpt lat="42.236264" lon="13.9525992"><ele>223.0</ele><time>2026-05-03T10:46:07.494Z</time></trkpt><trkpt lat="42.2363983" lon="13.9527143"><ele>224.66666666666666</ele><time>2026-05-03T10:46:08.482Z</time></trkpt><trkpt lat="42.2365608" lon="13.9527985"><ele>226.33333333333331</ele><time>2026-05-03T10:46:09.485Z</time></trkpt><trkpt lat="42.236736" lon="13.9528557"><ele>228.0</ele><time>2026-05-03T10:46:10.485Z</time></trkpt><trkpt lat="42.2369209" lon="13.9528997"><ele>228.0</ele><time>2026-05-03T10:46:11.5Z</time></trkpt><trkpt lat="42.2371047" lon="13.9529561"><ele>228.0</ele><time>2026-05-03T10:46:12.488Z</time></trkpt><trkpt lat="42.2372931" lon="13.9530188"><ele>228.0</ele><time>2026-05-03T10:46:13.5Z</time></trkpt><trkpt lat="42.2374777" lon="13.9530796"><ele>224.33333333333331</ele><time>2026-05-03T10:46:14.495Z</time></trkpt><trkpt lat="42.2376593" lon="13.9531355"><ele>220.66666666666666</ele><time>2026-05-03T10:46:15.499Z</time></trkpt><trkpt lat="42.2378463" lon="13.9531934"><ele>217.0</ele><time>2026-05-03T10:46:16.492Z</time></trkpt><trkpt lat="42.2380271" lon="13.9532599"><ele>217.33333333333331</ele><time>2026-05-03T10:46:17.502Z</time></trkpt><trkpt lat="42.2381974" lon="13.9533097"><ele>217.66666666666669</ele><time>2026-05-03T10:46:18.487Z</time></trkpt><trkpt lat="42.2383426" lon="13.9533619"><ele>218.0</ele><time>2026-05-03T10:46:19.494Z</time></trkpt><trkpt lat="42.2384801" lon="13.9534021"><ele>218.0</ele><time>2026-05-03T10:46:20.49Z</time></trkpt><trkpt lat="42.2386363" lon="13.953391"><ele>218.0</ele><time>2026-05-03T10:46:21.487Z</time></trkpt><trkpt lat="42.2387934" lon="13.9533543"><ele>218.0</ele><time>2026-05-03T10:46:22.494Z</time></trkpt><trkpt lat="42.2389544" lon="13.9532765"><ele>217.0</ele><time>2026-05-03T10:46:23.492Z</time></trkpt><trkpt lat="42.2390965" lon="13.953138"><ele>216.0</ele><time>2026-05-03T10:46:24.488Z</time></trkpt><trkpt lat="42.2392344" lon="13.9529739"><ele>215.0</ele><time>2026-05-03T10:46:25.502Z</time></trkpt><trkpt lat="42.2393355" lon="13.9527759"><ele>213.0</ele><time>2026-05-03T10:46:26.485Z</time></trkpt><trkpt lat="42.2394004" lon="13.9525365"><ele>211.0</ele><time>2026-05-03T10:46:27.487Z</time></trkpt><trkpt lat="42.2394649" lon="13.952297"><ele>209.0</ele><time>2026-05-03T10:46:28.485Z</time></trkpt><trkpt lat="42.2395061" lon="13.9520537"><ele>209.0</ele><time>2026-05-03T10:46:29.503Z</time></trkpt><trkpt lat="42.239534" lon="13.9517831"><ele>209.0</ele><time>2026-05-03T10:46:30.487Z</time></trkpt><trkpt lat="42.2395609" lon="13.951572"><ele>209.0</ele><time>2026-05-03T10:46:31.503Z</time></trkpt><trkpt lat="42.2395951" lon="13.9513788"><ele>207.25</ele><time>2026-05-03T10:46:32.486Z</time></trkpt><trkpt lat="42.2396135" lon="13.9512117"><ele>205.5</ele><time>2026-05-03T10:46:33.488Z</time></trkpt><trkpt lat="42.2396637" lon="13.9510762"><ele>203.75</ele><time>2026-05-03T10:46:34.496Z</time></trkpt><trkpt lat="42.239748" lon="13.9509612"><ele>202.0</ele><time>2026-05-03T10:46:35.496Z</time></trkpt><trkpt lat="42.2398575" lon="13.9508708"><ele>200.0</ele><time>2026-05-03T10:46:36.499Z</time></trkpt><trkpt lat="42.2400122" lon="13.9508041"><ele>198.0</ele><time>2026-05-03T10:46:37.485Z</time></trkpt><trkpt lat="42.240164" lon="13.9507684"><ele>196.0</ele><time>2026-05-03T10:46:38.489Z</time></trkpt><trkpt lat="42.2403087" lon="13.9507595"><ele>196.0</ele><time>2026-05-03T10:46:39.481Z</time></trkpt><trkpt lat="42.240494" lon="13.9507735"><ele>196.0</ele><time>2026-05-03T10:46:40.498Z</time></trkpt><trkpt lat="42.2406505" lon="13.9508103"><ele>196.0</ele><time>2026-05-03T10:46:41.489Z</time></trkpt><trkpt lat="42.2408339" lon="13.9508302"><ele>197.66666666666666</ele><time>2026-05-03T10:46:42.494Z</time></trkpt><trkpt lat="42.2410171" lon="13.950892"><ele>199.33333333333331</ele><time>2026-05-03T10:46:43.495Z</time></trkpt><trkpt lat="42.2411821" lon="13.9509601"><ele>201.0</ele><time>2026-05-03T10:46:44.497Z</time></trkpt><trkpt lat="42.241364" lon="13.9510227"><ele>198.0</ele><time>2026-05-03T10:46:45.496Z</time></trkpt><trkpt lat="42.2415588" lon="13.9510835"><ele>195.0</ele><time>2026-05-03T10:46:46.497Z</time></trkpt><trkpt lat="42.2417553" lon="13.9511406"><ele>192.0</ele><time>2026-05-03T10:46:47.505Z</time></trkpt><trkpt lat="42.2419301" lon="13.951214"><ele>192.0</ele><time>2026-05-03T10:46:48.494Z</time></trkpt><trkpt lat="42.2421018" lon="13.9512677"><ele>192.0</ele><time>2026-05-03T10:46:49.502Z</time></trkpt><trkpt lat="42.242272" lon="13.9513056"><ele>192.0</ele><time>2026-05-03T10:46:50.492Z</time></trkpt><trkpt lat="42.2424606" lon="13.9513031"><ele>189.66666666666666</ele><time>2026-05-03T10:46:51.498Z</time></trkpt><trkpt lat="42.2426636" lon="13.9512468"><ele>187.33333333333331</ele><time>2026-05-03T10:46:52.489Z</time></trkpt><trkpt lat="42.2428761" lon="13.9511778"><ele>185.0</ele><time>2026-05-03T10:46:53.501Z</time></trkpt><trkpt lat="42.2430776" lon="13.9510776"><ele>184.33333333333331</ele><time>2026-05-03T10:46:54.49Z</time></trkpt><trkpt lat="42.2432718" lon="13.950984"><ele>183.66666666666666</ele><time>2026-05-03T10:46:55.501Z</time></trkpt><trkpt lat="42.24346" lon="13.9508846"><ele>183.0</ele><time>2026-05-03T10:46:56.494Z</time></trkpt><trkpt lat="42.2436416" lon="13.9508085"><ele>179.33333333333334</ele><time>2026-05-03T10:46:57.504Z</time></trkpt><trkpt lat="42.2438145" lon="13.9507284"><ele>175.66666666666669</ele><time>2026-05-03T10:46:58.497Z</time></trkpt><trkpt lat="42.2439967" lon="13.9506743"><ele>172.0</ele><time>2026-05-03T10:46:59.502Z</time></trkpt><trkpt lat="42.2441839" lon="13.9506458"><ele>170.66666666666669</ele><time>2026-05-03T10:47:00.489Z</time></trkpt><trkpt lat="42.2443851" lon="13.9506317"><ele>169.33333333333334</ele><time>2026-05-03T10:47:01.501Z</time></trkpt><trkpt lat="42.2445844" lon="13.9506291"><ele>168.0</ele><time>2026-05-03T10:47:02.497Z</time></trkpt><trkpt lat="42.2447604" lon="13.9506437"><ele>165.66666666666666</ele><time>2026-05-03T10:47:03.506Z</time></trkpt><trkpt lat="42.2449211" lon="13.9506609"><ele>163.33333333333331</ele><time>2026-05-03T10:47:04.496Z</time></trkpt><trkpt lat="42.2450965" lon="13.9506915"><ele>161.0</ele><time>2026-05-03T10:47:05.499Z</time></trkpt><trkpt lat="42.2452743" lon="13.9507587"><ele>161.0</ele><time>2026-05-03T10:47:06.491Z</time></trkpt><trkpt lat="42.2454403" lon="13.9508455"><ele>161.0</ele><time>2026-05-03T10:47:07.505Z</time></trkpt><trkpt lat="42.2456171" lon="13.9509099"><ele>161.0</ele><time>2026-05-03T10:47:08.494Z</time></trkpt><trkpt lat="42.2457728" lon="13.9509993"><ele>158.66666666666666</ele><time>2026-05-03T10:47:09.502Z</time></trkpt><trkpt lat="42.2459213" lon="13.9510913"><ele>156.33333333333334</ele><time>2026-05-03T10:47:10.492Z</time></trkpt><trkpt lat="42.2460379" lon="13.9512381"><ele>154.0</ele><time>2026-05-03T10:47:11.496Z</time></trkpt><trkpt lat="42.2461376" lon="13.9514159"><ele>154.0</ele><time>2026-05-03T10:47:12.496Z</time></trkpt><trkpt lat="42.2462466" lon="13.9515901"><ele>154.0</ele><time>2026-05-03T10:47:13.503Z</time></trkpt><trkpt lat="42.246346" lon="13.9517428"><ele>154.0</ele><time>2026-05-03T10:47:14.497Z</time></trkpt><trkpt lat="42.2464561" lon="13.9518849"><ele>151.0</ele><time>2026-05-03T10:47:15.497Z</time></trkpt><trkpt lat="42.2465602" lon="13.9520129"><ele>148.0</ele><time>2026-05-03T10:47:16.485Z</time></trkpt><trkpt lat="42.2467012" lon="13.9521"><ele>145.0</ele><time>2026-05-03T10:47:17.494Z</time></trkpt><trkpt lat="42.2468788" lon="13.9521283"><ele>145.0</ele><time>2026-05-03T10:47:18.497Z</time></trkpt><trkpt lat="42.2470502" lon="13.9521508"><ele>145.0</ele><time>2026-05-03T10:47:19.495Z</time></trkpt><trkpt lat="42.2472176" lon="13.9521413"><ele>145.0</ele><time>2026-05-03T10:47:20.487Z</time></trkpt><trkpt lat="42.2474065" lon="13.9521189"><ele>143.33333333333334</ele><time>2026-05-03T10:47:21.498Z</time></trkpt><trkpt lat="42.2476043" lon="13.9521071"><ele>141.66666666666666</ele><time>2026-05-03T10:47:22.482Z</time></trkpt><trkpt lat="42.2478099" lon="13.9520835"><ele>140.0</ele><time>2026-05-03T10:47:23.494Z</time></trkpt><trkpt lat="42.2479943" lon="13.9520664"><ele>139.33333333333331</ele><time>2026-05-03T10:47:24.491Z</time></trkpt><trkpt lat="42.2481717" lon="13.9520346"><ele>138.66666666666666</ele><time>2026-05-03T10:47:25.5Z</time></trkpt><trkpt lat="42.2483212" lon="13.9519871"><ele>138.0</ele><time>2026-05-03T10:47:26.49Z</time></trkpt><trkpt lat="42.248459" lon="13.9519752"><ele>138.0</ele><time>2026-05-03T10:47:27.497Z</time></trkpt><trkpt lat="42.2485886" lon="13.9519486"><ele>138.0</ele><time>2026-05-03T10:47:28.498Z</time></trkpt><trkpt lat="42.2487035" lon="13.9519244"><ele>138.0</ele><time>2026-05-03T10:47:29.491Z</time></trkpt><trkpt lat="42.2488467" lon="13.9519198"><ele>138.0</ele><time>2026-05-03T10:47:30.495Z</time></trkpt><trkpt lat="42.2489798" lon="13.951901"><ele>138.75</ele><time>2026-05-03T10:47:31.496Z</time></trkpt><trkpt lat="42.2491217" lon="13.9518969"><ele>139.5</ele><time>2026-05-03T10:47:32.487Z</time></trkpt><trkpt lat="42.2492644" lon="13.9518678"><ele>140.25</ele><time>2026-05-03T10:47:33.488Z</time></trkpt><trkpt lat="42.2493976" lon="13.9518433"><ele>141.0</ele><time>2026-05-03T10:47:34.487Z</time></trkpt><trkpt lat="42.2495383" lon="13.9518224"><ele>141.0</ele><time>2026-05-03T10:47:35.494Z</time></trkpt><trkpt lat="42.24969" lon="13.9518276"><ele>141.0</ele><time>2026-05-03T10:47:36.491Z</time></trkpt><trkpt lat="42.2498283" lon="13.9518302"><ele>141.0</ele><time>2026-05-03T10:47:37.496Z</time></trkpt><trkpt lat="42.2499689" lon="13.9518282"><ele>141.0</ele><time>2026-05-03T10:47:38.49Z</time></trkpt><trkpt lat="42.2500993" lon="13.9518221"><ele>140.4</ele><time>2026-05-03T10:47:39.485Z</time></trkpt><trkpt lat="42.2502182" lon="13.9518006"><ele>139.8</ele><time>2026-05-03T10:47:40.487Z</time></trkpt><trkpt lat="42.2503207" lon="13.9517962"><ele>139.20000000000002</ele><time>2026-05-03T10:47:41.493Z</time></trkpt><trkpt lat="42.250429" lon="13.9517814"><ele>138.6</ele><time>2026-05-03T10:47:42.491Z</time></trkpt><trkpt lat="42.2505413" lon="13.9517685"><ele>138.0</ele><time>2026-05-03T10:47:43.493Z</time></trkpt><trkpt lat="42.2506514" lon="13.9517595"><ele>138.0</ele><time>2026-05-03T10:47:44.499Z</time></trkpt><trkpt lat="42.2507674" lon="13.9517495"><ele>138.0</ele><time>2026-05-03T10:47:45.493Z</time></trkpt><trkpt lat="42.2508859" lon="13.9517353"><ele>138.0</ele><time>2026-05-03T10:47:46.498Z</time></trkpt><trkpt lat="42.2510035" lon="13.9517157"><ele>138.0</ele><time>2026-05-03T10:47:47.494Z</time></trkpt><trkpt lat="42.2511217" lon="13.9516974"><ele>137.8</ele><time>2026-05-03T10:47:48.495Z</time></trkpt><trkpt lat="42.2512373" lon="13.9516921"><ele>137.60000000000002</ele><time>2026-05-03T10:47:49.492Z</time></trkpt><trkpt lat="42.2513476" lon="13.9516962"><ele>137.39999999999998</ele><time>2026-05-03T10:47:50.492Z</time></trkpt><trkpt lat="42.25146" lon="13.9517218"><ele>137.2</ele><time>2026-05-03T10:47:51.501Z</time></trkpt><trkpt lat="42.2515566" lon="13.9517553"><ele>137.0</ele><time>2026-05-03T10:47:52.49Z</time></trkpt><trkpt lat="42.2516501" lon="13.9517893"><ele>136.16666666666666</ele><time>2026-05-03T10:47:53.494Z</time></trkpt><trkpt lat="42.2517364" lon="13.9518216"><ele>135.33333333333331</ele><time>2026-05-03T10:47:54.485Z</time></trkpt><trkpt lat="42.2518203" lon="13.9518542"><ele>134.5</ele><time>2026-05-03T10:47:55.493Z</time></trkpt><trkpt lat="42.2519001" lon="13.9518885"><ele>133.66666666666666</ele><time>2026-05-03T10:47:56.496Z</time></trkpt><trkpt lat="42.2519757" lon="13.9519146"><ele>132.83333333333334</ele><time>2026-05-03T10:47:57.489Z</time></trkpt><trkpt lat="42.2520441" lon="13.9519315"><ele>132.0</ele><time>2026-05-03T10:47:58.496Z</time></trkpt><trkpt lat="42.2521518" lon="13.9519335"><ele>132.0</ele><time>2026-05-03T10:48:00.499Z</time></trkpt><trkpt lat="42.2522229" lon="13.9519352"><ele>132.0</ele><time>2026-05-03T10:49:43.488Z</time></trkpt><trkpt lat="42.2523347" lon="13.9519464"><ele>132.0</ele><time>2026-05-03T10:49:46.492Z</time></trkpt><trkpt lat="42.2524059" lon="13.9519539"><ele>132.0</ele><time>2026-05-03T10:49:47.487Z</time></trkpt><trkpt lat="42.2525015" lon="13.951971"><ele>132.0</ele><time>2026-05-03T10:49:48.494Z</time></trkpt><trkpt lat="42.2526049" lon="13.95199"><ele>131.79999999999998</ele><time>2026-05-03T10:49:49.5Z</time></trkpt><trkpt lat="42.2527131" lon="13.952003"><ele>131.6</ele><time>2026-05-03T10:49:50.495Z</time></trkpt><trkpt lat="42.2528253" lon="13.952018"><ele>131.39999999999998</ele><time>2026-05-03T10:49:51.5Z</time></trkpt><trkpt lat="42.2529386" lon="13.9520301"><ele>131.2</ele><time>2026-05-03T10:49:52.492Z</time></trkpt><trkpt lat="42.2530512" lon="13.9520439"><ele>131.0</ele><time>2026-05-03T10:49:53.501Z</time></trkpt><trkpt lat="42.2531662" lon="13.9520632"><ele>131.0</ele><time>2026-05-03T10:49:54.491Z</time></trkpt><trkpt lat="42.2532788" lon="13.9520884"><ele>131.0</ele><time>2026-05-03T10:49:55.499Z</time></trkpt><trkpt lat="42.2533882" lon="13.9521195"><ele>131.0</ele><time>2026-05-03T10:49:56.49Z</time></trkpt><trkpt lat="42.2534981" lon="13.9521278"><ele>131.0</ele><time>2026-05-03T10:49:57.499Z</time></trkpt><trkpt lat="42.2536105" lon="13.952095"><ele>131.0</ele><time>2026-05-03T10:49:58.487Z</time></trkpt><trkpt lat="42.2537246" lon="13.9520402"><ele>131.0</ele><time>2026-05-03T10:49:59.493Z</time></trkpt><trkpt lat="42.2538395" lon="13.9519832"><ele>131.0</ele><time>2026-05-03T10:50:00.492Z</time></trkpt><trkpt lat="42.2539515" lon="13.9519278"><ele>131.0</ele><time>2026-05-03T10:50:01.493Z</time></trkpt><trkpt lat="42.2540735" lon="13.9518735"><ele>132.25</ele><time>2026-05-03T10:50:02.492Z</time></trkpt><trkpt lat="42.2541988" lon="13.9518195"><ele>133.5</ele><time>2026-05-03T10:50:03.487Z</time></trkpt><trkpt lat="42.2543235" lon="13.951765"><ele>134.75</ele><time>2026-05-03T10:50:04.486Z</time></trkpt><trkpt lat="42.2544534" lon="13.9517222"><ele>136.0</ele><time>2026-05-03T10:50:05.482Z</time></trkpt><trkpt lat="42.2545928" lon="13.951679"><ele>136.0</ele><time>2026-05-03T10:50:06.493Z</time></trkpt><trkpt lat="42.2547547" lon="13.9516114"><ele>136.0</ele><time>2026-05-03T10:50:07.481Z</time></trkpt><trkpt lat="42.2549202" lon="13.9515817"><ele>136.0</ele><time>2026-05-03T10:50:08.489Z</time></trkpt><trkpt lat="42.2550916" lon="13.9515587"><ele>137.66666666666669</ele><time>2026-05-03T10:50:09.484Z</time></trkpt><trkpt lat="42.2552533" lon="13.9515248"><ele>139.33333333333334</ele><time>2026-05-03T10:50:10.49Z</time></trkpt><trkpt lat="42.2554295" lon="13.9514787"><ele>141.0</ele><time>2026-05-03T10:50:11.484Z</time></trkpt><trkpt lat="42.255607" lon="13.9514293"><ele>141.66666666666666</ele><time>2026-05-03T10:50:12.49Z</time></trkpt><trkpt lat="42.2557689" lon="13.9513812"><ele>142.33333333333331</ele><time>2026-05-03T10:50:13.482Z</time></trkpt><trkpt lat="42.2559345" lon="13.9513277"><ele>143.0</ele><time>2026-05-03T10:50:14.489Z</time></trkpt><trkpt lat="42.2560873" lon="13.9512798"><ele>143.0</ele><time>2026-05-03T10:50:15.484Z</time></trkpt><trkpt lat="42.2562381" lon="13.9512283"><ele>143.0</ele><time>2026-05-03T10:50:16.494Z</time></trkpt><trkpt lat="42.2563757" lon="13.9511908"><ele>143.0</ele><time>2026-05-03T10:50:17.488Z</time></trkpt><trkpt lat="42.2565128" lon="13.9511491"><ele>143.0</ele><time>2026-05-03T10:50:18.494Z</time></trkpt><trkpt lat="42.2566753" lon="13.9511356"><ele>143.33333333333331</ele><time>2026-05-03T10:50:19.483Z</time></trkpt><trkpt lat="42.2568423" lon="13.9511317"><ele>143.66666666666666</ele><time>2026-05-03T10:50:20.494Z</time></trkpt><trkpt lat="42.2570047" lon="13.9511409"><ele>144.0</ele><time>2026-05-03T10:50:21.49Z</time></trkpt><trkpt lat="42.2571827" lon="13.9511585"><ele>143.66666666666666</ele><time>2026-05-03T10:50:22.494Z</time></trkpt><trkpt lat="42.2573471" lon="13.95118"><ele>143.33333333333331</ele><time>2026-05-03T10:50:23.486Z</time></trkpt><trkpt lat="42.2575097" lon="13.9512044"><ele>143.0</ele><time>2026-05-03T10:50:24.495Z</time></trkpt><trkpt lat="42.2576933" lon="13.9512188"><ele>143.0</ele><time>2026-05-03T10:50:25.489Z</time></trkpt><trkpt lat="42.2578752" lon="13.9512289"><ele>143.0</ele><time>2026-05-03T10:50:26.496Z</time></trkpt><trkpt lat="42.2580573" lon="13.9512499"><ele>143.0</ele><time>2026-05-03T10:50:27.485Z</time></trkpt><trkpt lat="42.2582501" lon="13.9512829"><ele>143.66666666666666</ele><time>2026-05-03T10:50:28.491Z</time></trkpt><trkpt lat="42.2584331" lon="13.9513471"><ele>144.33333333333334</ele><time>2026-05-03T10:50:29.49Z</time></trkpt><trkpt lat="42.2586093" lon="13.9514159"><ele>145.0</ele><time>2026-05-03T10:50:30.497Z</time></trkpt><trkpt lat="42.2587696" lon="13.9515081"><ele>145.0</ele><time>2026-05-03T10:50:31.486Z</time></trkpt><trkpt lat="42.2589074" lon="13.9516114"><ele>145.0</ele><time>2026-05-03T10:50:32.491Z</time></trkpt><trkpt lat="42.2590697" lon="13.9516962"><ele>145.0</ele><time>2026-05-03T10:50:33.49Z</time></trkpt><trkpt lat="42.2592293" lon="13.9518027"><ele>146.0</ele><time>2026-05-03T10:50:34.495Z</time></trkpt><trkpt lat="42.2593846" lon="13.9519259"><ele>147.0</ele><time>2026-05-03T10:50:35.485Z</time></trkpt><trkpt lat="42.2595167" lon="13.9520569"><ele>148.0</ele><time>2026-05-03T10:50:36.492Z</time></trkpt><trkpt lat="42.2596425" lon="13.9522017"><ele>148.0</ele><time>2026-05-03T10:50:37.49Z</time></trkpt><trkpt lat="42.2597681" lon="13.9523515"><ele>148.0</ele><time>2026-05-03T10:50:38.492Z</time></trkpt><trkpt lat="42.2599002" lon="13.9525073"><ele>148.0</ele><time>2026-05-03T10:50:39.489Z</time></trkpt><trkpt lat="42.2600175" lon="13.9526535"><ele>147.66666666666669</ele><time>2026-05-03T10:50:40.493Z</time></trkpt><trkpt lat="42.2601162" lon="13.9528183"><ele>147.33333333333334</ele><time>2026-05-03T10:50:41.486Z</time></trkpt><trkpt lat="42.260217" lon="13.9529851"><ele>147.0</ele><time>2026-05-03T10:50:42.495Z</time></trkpt><trkpt lat="42.2603058" lon="13.9531672"><ele>147.0</ele><time>2026-05-03T10:50:43.488Z</time></trkpt><trkpt lat="42.2603913" lon="13.9533524"><ele>147.0</ele><time>2026-05-03T10:50:44.492Z</time></trkpt><trkpt lat="42.2604793" lon="13.9535379"><ele>147.0</ele><time>2026-05-03T10:50:45.484Z</time></trkpt><trkpt lat="42.2605559" lon="13.9537413"><ele>144.0</ele><time>2026-05-03T10:50:46.49Z</time></trkpt><trkpt lat="42.2606169" lon="13.9539439"><ele>141.0</ele><time>2026-05-03T10:50:47.491Z</time></trkpt><trkpt lat="42.2606707" lon="13.9541551"><ele>138.0</ele><time>2026-05-03T10:50:48.486Z</time></trkpt><trkpt lat="42.260718" lon="13.9543768"><ele>138.0</ele><time>2026-05-03T10:50:49.485Z</time></trkpt><trkpt lat="42.2607598" lon="13.9545793"><ele>138.0</ele><time>2026-05-03T10:50:50.487Z</time></trkpt><trkpt lat="42.2607971" lon="13.9547609"><ele>138.0</ele><time>2026-05-03T10:50:51.474Z</time></trkpt><trkpt lat="42.260825" lon="13.9549239"><ele>138.0</ele><time>2026-05-03T10:50:52.488Z</time></trkpt><trkpt lat="42.2608567" lon="13.9550883"><ele>138.0</ele><time>2026-05-03T10:50:53.488Z</time></trkpt><trkpt lat="42.2608985" lon="13.9552437"><ele>138.0</ele><time>2026-05-03T10:50:54.487Z</time></trkpt><trkpt lat="42.2609269" lon="13.9554061"><ele>138.0</ele><time>2026-05-03T10:50:55.491Z</time></trkpt><trkpt lat="42.2609623" lon="13.9555788"><ele>138.0</ele><time>2026-05-03T10:50:56.494Z</time></trkpt><trkpt lat="42.2609985" lon="13.9557587"><ele>138.5</ele><time>2026-05-03T10:50:57.492Z</time></trkpt><trkpt lat="42.2610406" lon="13.9559355"><ele>139.0</ele><time>2026-05-03T10:50:58.485Z</time></trkpt><trkpt lat="42.2610898" lon="13.9561044"><ele>139.5</ele><time>2026-05-03T10:50:59.495Z</time></trkpt><trkpt lat="42.261121" lon="13.9562761"><ele>140.0</ele><time>2026-05-03T10:51:00.486Z</time></trkpt><trkpt lat="42.2611463" lon="13.9564334"><ele>140.0</ele><time>2026-05-03T10:51:01.499Z</time></trkpt><trkpt lat="42.2611779" lon="13.956566"><ele>140.0</ele><time>2026-05-03T10:51:02.485Z</time></trkpt><trkpt lat="42.2612121" lon="13.9566913"><ele>140.0</ele><time>2026-05-03T10:51:03.497Z</time></trkpt><trkpt lat="42.261236" lon="13.9568008"><ele>140.0</ele><time>2026-05-03T10:51:04.489Z</time></trkpt><trkpt lat="42.2612591" lon="13.9568916"><ele>140.0</ele><time>2026-05-03T10:51:05.498Z</time></trkpt><trkpt lat="42.261223" lon="13.9570264"><ele>141.2</ele><time>2026-05-03T10:51:07.498Z</time></trkpt><trkpt lat="42.261162" lon="13.9570729"><ele>142.4</ele><time>2026-05-03T10:51:08.482Z</time></trkpt><trkpt lat="42.2610737" lon="13.9571182"><ele>143.6</ele><time>2026-05-03T10:51:09.494Z</time></trkpt><trkpt lat="42.2609663" lon="13.9571816"><ele>144.8</ele><time>2026-05-03T10:51:10.481Z</time></trkpt><trkpt lat="42.2608442" lon="13.9572598"><ele>146.0</ele><time>2026-05-03T10:51:11.492Z</time></trkpt><trkpt lat="42.2607135" lon="13.9573372"><ele>149.0</ele><time>2026-05-03T10:51:12.487Z</time></trkpt><trkpt lat="42.2605502" lon="13.9573909"><ele>152.0</ele><time>2026-05-03T10:51:13.492Z</time></trkpt><trkpt lat="42.2604161" lon="13.9574673"><ele>155.0</ele><time>2026-05-03T10:51:14.489Z</time></trkpt><trkpt lat="42.260267" lon="13.9575413"><ele>156.66666666666666</ele><time>2026-05-03T10:51:15.493Z</time></trkpt><trkpt lat="42.2601109" lon="13.9576472"><ele>158.33333333333334</ele><time>2026-05-03T10:51:16.483Z</time></trkpt><trkpt lat="42.2599628" lon="13.9577506"><ele>160.0</ele><time>2026-05-03T10:51:17.494Z</time></trkpt><trkpt lat="42.2598077" lon="13.9578631"><ele>162.66666666666669</ele><time>2026-05-03T10:51:18.485Z</time></trkpt><trkpt lat="42.2596645" lon="13.9579716"><ele>165.33333333333334</ele><time>2026-05-03T10:51:19.492Z</time></trkpt><trkpt lat="42.2595086" lon="13.9580857"><ele>168.0</ele><time>2026-05-03T10:51:20.485Z</time></trkpt><trkpt lat="42.2593723" lon="13.958182"><ele>168.0</ele><time>2026-05-03T10:51:21.493Z</time></trkpt><trkpt lat="42.2592348" lon="13.958295"><ele>168.0</ele><time>2026-05-03T10:51:22.486Z</time></trkpt><trkpt lat="42.2590932" lon="13.9583982"><ele>168.0</ele><time>2026-05-03T10:51:23.493Z</time></trkpt><trkpt lat="42.2589422" lon="13.9584922"><ele>173.0</ele><time>2026-05-03T10:51:24.487Z</time></trkpt><trkpt lat="42.2587935" lon="13.9585811"><ele>178.0</ele><time>2026-05-03T10:51:25.497Z</time></trkpt><trkpt lat="42.2586474" lon="13.9586743"><ele>183.0</ele><time>2026-05-03T10:51:26.491Z</time></trkpt><trkpt lat="42.2585035" lon="13.958759"><ele>183.0</ele><time>2026-05-03T10:51:27.496Z</time></trkpt><trkpt lat="42.2583591" lon="13.9588547"><ele>183.0</ele><time>2026-05-03T10:51:28.493Z</time></trkpt><trkpt lat="42.2582034" lon="13.9589349"><ele>183.0</ele><time>2026-05-03T10:51:29.499Z</time></trkpt><trkpt lat="42.258054" lon="13.9590164"><ele>186.0</ele><time>2026-05-03T10:51:30.491Z</time></trkpt><trkpt lat="42.2579069" lon="13.9591007"><ele>189.0</ele><time>2026-05-03T10:51:31.499Z</time></trkpt><trkpt lat="42.257785" lon="13.9591844"><ele>192.0</ele><time>2026-05-03T10:51:32.488Z</time></trkpt><trkpt lat="42.2576814" lon="13.9592489"><ele>195.0</ele><time>2026-05-03T10:51:33.495Z</time></trkpt><trkpt lat="42.2575658" lon="13.9593128"><ele>195.6</ele><time>2026-05-03T10:51:34.494Z</time></trkpt><trkpt lat="42.2574607" lon="13.9593845"><ele>196.2</ele><time>2026-05-03T10:51:35.494Z</time></trkpt><trkpt lat="42.2573689" lon="13.9594408"><ele>196.8</ele><time>2026-05-03T10:51:36.494Z</time></trkpt><trkpt lat="42.2572745" lon="13.9594897"><ele>197.4</ele><time>2026-05-03T10:51:37.496Z</time></trkpt><trkpt lat="42.2571827" lon="13.9595381"><ele>198.0</ele><time>2026-05-03T10:51:38.489Z</time></trkpt><trkpt lat="42.257112" lon="13.9595683"><ele>198.0</ele><time>2026-05-03T10:51:39.498Z</time></trkpt><trkpt lat="42.2570499" lon="13.9596074"><ele>198.0</ele><time>2026-05-03T10:51:40.489Z</time></trkpt><trkpt lat="42.256958" lon="13.9596803"><ele>198.0</ele><time>2026-05-03T10:51:42.487Z</time></trkpt><trkpt lat="42.2569172" lon="13.9598255"><ele>198.0</ele><time>2026-05-03T10:51:44.489Z</time></trkpt><trkpt lat="42.256935" lon="13.9599204"><ele>198.0</ele><time>2026-05-03T10:51:45.491Z</time></trkpt><trkpt lat="42.2569728" lon="13.960022"><ele>198.0</ele><time>2026-05-03T10:51:46.485Z</time></trkpt><trkpt lat="42.2570197" lon="13.9601336"><ele>197.5</ele><time>2026-05-03T10:51:47.494Z</time></trkpt><trkpt lat="42.2570809" lon="13.9602621"><ele>197.0</ele><time>2026-05-03T10:51:48.486Z</time></trkpt><trkpt lat="42.2571425" lon="13.9604085"><ele>196.5</ele><time>2026-05-03T10:51:49.494Z</time></trkpt><trkpt lat="42.257211" lon="13.9605733"><ele>196.0</ele><time>2026-05-03T10:51:50.49Z</time></trkpt><trkpt lat="42.2572778" lon="13.9607555"><ele>197.33333333333331</ele><time>2026-05-03T10:51:51.502Z</time></trkpt><trkpt lat="42.2573562" lon="13.9609564"><ele>198.66666666666669</ele><time>2026-05-03T10:51:52.491Z</time></trkpt><trkpt lat="42.2574281" lon="13.9611501"><ele>200.0</ele><time>2026-05-03T10:51:53.497Z</time></trkpt><trkpt lat="42.2575026" lon="13.9613461"><ele>200.0</ele><time>2026-05-03T10:51:54.495Z</time></trkpt><trkpt lat="42.2575759" lon="13.9615404"><ele>200.0</ele><time>2026-05-03T10:51:55.502Z</time></trkpt><trkpt lat="42.2576601" lon="13.9617363"><ele>200.0</ele><time>2026-05-03T10:51:56.497Z</time></trkpt><trkpt lat="42.2577348" lon="13.9619324"><ele>199.75</ele><time>2026-05-03T10:51:57.499Z</time></trkpt><trkpt lat="42.2578126" lon="13.9621086"><ele>199.5</ele><time>2026-05-03T10:51:58.493Z</time></trkpt><trkpt lat="42.2578713" lon="13.9622947"><ele>199.25</ele><time>2026-05-03T10:51:59.504Z</time></trkpt><trkpt lat="42.2579359" lon="13.9624686"><ele>199.0</ele><time>2026-05-03T10:52:00.496Z</time></trkpt><trkpt lat="42.2579971" lon="13.9626242"><ele>198.5</ele><time>2026-05-03T10:52:01.504Z</time></trkpt><trkpt lat="42.2580587" lon="13.9627975"><ele>198.0</ele><time>2026-05-03T10:52:02.496Z</time></trkpt><trkpt lat="42.2581244" lon="13.962957"><ele>197.5</ele><time>2026-05-03T10:52:03.502Z</time></trkpt><trkpt lat="42.2581914" lon="13.9631032"><ele>197.0</ele><time>2026-05-03T10:52:04.493Z</time></trkpt><trkpt lat="42.2582515" lon="13.9632445"><ele>198.6</ele><time>2026-05-03T10:52:05.502Z</time></trkpt><trkpt lat="42.2582896" lon="13.9633792"><ele>200.2</ele><time>2026-05-03T10:52:06.496Z</time></trkpt><trkpt lat="42.2583375" lon="13.9635103"><ele>201.8</ele><time>2026-05-03T10:52:07.499Z</time></trkpt><trkpt lat="42.2583857" lon="13.9636238"><ele>203.4</ele><time>2026-05-03T10:52:08.495Z</time></trkpt><trkpt lat="42.2584217" lon="13.9637196"><ele>205.0</ele><time>2026-05-03T10:52:09.495Z</time></trkpt><trkpt lat="42.258441" lon="13.9638142"><ele>204.99999999999997</ele><time>2026-05-03T10:52:10.486Z</time></trkpt><trkpt lat="42.2584533" lon="13.9638994"><ele>205.0</ele><time>2026-05-03T10:52:11.497Z</time></trkpt><trkpt lat="42.2584514" lon="13.9639856"><ele>205.0</ele><time>2026-05-03T10:52:13.498Z</time></trkpt><trkpt lat="42.2584675" lon="13.9640975"><ele>205.0</ele><time>2026-05-03T10:52:23.498Z</time></trkpt><trkpt lat="42.2584542" lon="13.9639637"><ele>204.99999999999997</ele><time>2026-05-03T10:52:28.489Z</time></trkpt><trkpt lat="42.2584478" lon="13.963871"><ele>205.0</ele><time>2026-05-03T10:52:43.497Z</time></trkpt><trkpt lat="42.2585472" lon="13.9639335"><ele>205.0</ele><time>2026-05-03T10:52:47.485Z</time></trkpt><trkpt lat="42.258603" lon="13.9640352"><ele>205.0</ele><time>2026-05-03T10:52:48.493Z</time></trkpt><trkpt lat="42.2586734" lon="13.964178"><ele>205.0</ele><time>2026-05-03T10:52:49.487Z</time></trkpt><trkpt lat="42.2587494" lon="13.9643402"><ele>205.0</ele><time>2026-05-03T10:52:50.498Z</time></trkpt><trkpt lat="42.2588336" lon="13.9645096"><ele>205.33333333333331</ele><time>2026-05-03T10:52:51.492Z</time></trkpt><trkpt lat="42.2589234" lon="13.9647074"><ele>205.66666666666669</ele><time>2026-05-03T10:52:52.494Z</time></trkpt><trkpt lat="42.2590187" lon="13.96487"><ele>206.0</ele><time>2026-05-03T10:52:53.485Z</time></trkpt><trkpt lat="42.2590999" lon="13.9650311"><ele>206.4</ele><time>2026-05-03T10:52:54.497Z</time></trkpt><trkpt lat="42.2591789" lon="13.9651659"><ele>206.8</ele><time>2026-05-03T10:52:55.491Z</time></trkpt><trkpt lat="42.2592466" lon="13.9652885"><ele>207.20000000000002</ele><time>2026-05-03T10:52:56.491Z</time></trkpt><trkpt lat="42.2593007" lon="13.9653967"><ele>207.60000000000002</ele><time>2026-05-03T10:52:57.486Z</time></trkpt><trkpt lat="42.2593559" lon="13.9654933"><ele>208.0</ele><time>2026-05-03T10:52:58.506Z</time></trkpt><trkpt lat="42.2593979" lon="13.9655963"><ele>207.99999999999997</ele><time>2026-05-03T10:52:59.492Z</time></trkpt><trkpt lat="42.2594338" lon="13.9656938"><ele>208.0</ele><time>2026-05-03T10:53:00.505Z</time></trkpt><trkpt lat="42.2594703" lon="13.965776"><ele>208.0</ele><time>2026-05-03T10:53:01.501Z</time></trkpt><trkpt lat="42.2594995" lon="13.9658527"><ele>208.0</ele><time>2026-05-03T10:53:02.5Z</time></trkpt><trkpt lat="42.2595267" lon="13.9659756"><ele>207.99999999999997</ele><time>2026-05-03T10:53:04.491Z</time></trkpt><trkpt lat="42.2595225" lon="13.9660861"><ele>208.0</ele><time>2026-05-03T10:53:06.488Z</time></trkpt><trkpt lat="42.2595684" lon="13.9661521"><ele>208.33333333333331</ele><time>2026-05-03T10:53:40.5Z</time></trkpt><trkpt lat="42.2595637" lon="13.9662473"><ele>208.66666666666666</ele><time>2026-05-03T10:55:44.509Z</time></trkpt><trkpt lat="42.2595618" lon="13.9663415"><ele>209.0</ele><time>2026-05-03T10:55:46.495Z</time></trkpt><trkpt lat="42.2595597" lon="13.9664268"><ele>209.33333333333331</ele><time>2026-05-03T10:55:47.505Z</time></trkpt><trkpt lat="42.2595653" lon="13.9665184"><ele>209.66666666666666</ele><time>2026-05-03T10:55:48.502Z</time></trkpt><trkpt lat="42.2595781" lon="13.9666056"><ele>210.0</ele><time>2026-05-03T10:55:49.508Z</time></trkpt><trkpt lat="42.2595694" lon="13.9667572"><ele>210.57142857142858</ele><time>2026-05-03T10:55:51.501Z</time></trkpt><trkpt lat="42.2595473" lon="13.966844"><ele>211.14285714285714</ele><time>2026-05-03T10:55:52.493Z</time></trkpt><trkpt lat="42.2595422" lon="13.9669438"><ele>211.71428571428572</ele><time>2026-05-03T10:55:54.498Z</time></trkpt><trkpt lat="42.2595866" lon="13.9670552"><ele>212.28571428571428</ele><time>2026-05-03T10:55:56.505Z</time></trkpt><trkpt lat="42.2596232" lon="13.9671249"><ele>212.85714285714286</ele><time>2026-05-03T10:55:57.513Z</time></trkpt><trkpt lat="42.259659" lon="13.9671979"><ele>213.42857142857144</ele><time>2026-05-03T10:55:58.507Z</time></trkpt><trkpt lat="42.259699" lon="13.967286"><ele>214.0</ele><time>2026-05-03T10:55:59.509Z</time></trkpt><trkpt lat="42.2597381" lon="13.9673887"><ele>213.99999999999997</ele><time>2026-05-03T10:56:00.499Z</time></trkpt><trkpt lat="42.2597728" lon="13.9674929"><ele>214.0</ele><time>2026-05-03T10:56:01.51Z</time></trkpt><trkpt lat="42.2598061" lon="13.9675935"><ele>214.0</ele><time>2026-05-03T10:56:02.508Z</time></trkpt><trkpt lat="42.2598339" lon="13.9676895"><ele>214.0</ele><time>2026-05-03T10:56:03.508Z</time></trkpt><trkpt lat="42.2598553" lon="13.9677951"><ele>213.99999999999997</ele><time>2026-05-03T10:56:04.497Z</time></trkpt><trkpt lat="42.2598758" lon="13.9678898"><ele>214.0</ele><time>2026-05-03T10:56:05.503Z</time></trkpt><trkpt lat="42.2599192" lon="13.9680074"><ele>209.25</ele><time>2026-05-03T10:56:07.506Z</time></trkpt><trkpt lat="42.2600056" lon="13.9681641"><ele>204.5</ele><time>2026-05-03T10:56:09.493Z</time></trkpt><trkpt lat="42.2600603" lon="13.9682836"><ele>199.75</ele><time>2026-05-03T10:56:10.492Z</time></trkpt><trkpt lat="42.2601148" lon="13.9684244"><ele>195.0</ele><time>2026-05-03T10:56:11.498Z</time></trkpt><trkpt lat="42.2601639" lon="13.9685644"><ele>194.75</ele><time>2026-05-03T10:56:12.495Z</time></trkpt><trkpt lat="42.2602196" lon="13.9686988"><ele>194.5</ele><time>2026-05-03T10:56:13.504Z</time></trkpt><trkpt lat="42.2602793" lon="13.9688408"><ele>194.25</ele><time>2026-05-03T10:56:14.496Z</time></trkpt><trkpt lat="42.2603388" lon="13.9689868"><ele>194.0</ele><time>2026-05-03T10:56:15.509Z</time></trkpt><trkpt lat="42.2603903" lon="13.9691232"><ele>194.75</ele><time>2026-05-03T10:56:16.504Z</time></trkpt><trkpt lat="42.2604427" lon="13.9692635"><ele>195.5</ele><time>2026-05-03T10:56:17.51Z</time></trkpt><trkpt lat="42.2604965" lon="13.9694199"><ele>196.25</ele><time>2026-05-03T10:56:18.497Z</time></trkpt><trkpt lat="42.2605504" lon="13.9695856"><ele>197.0</ele><time>2026-05-03T10:56:19.51Z</time></trkpt><trkpt lat="42.2606131" lon="13.9697575"><ele>196.75</ele><time>2026-05-03T10:56:20.5Z</time></trkpt><trkpt lat="42.2606757" lon="13.9699317"><ele>196.5</ele><time>2026-05-03T10:56:21.506Z</time></trkpt><trkpt lat="42.2607282" lon="13.9700998"><ele>196.25</ele><time>2026-05-03T10:56:22.501Z</time></trkpt><trkpt lat="42.2607917" lon="13.9702472"><ele>196.0</ele><time>2026-05-03T10:56:23.5Z</time></trkpt><trkpt lat="42.2608335" lon="13.9703899"><ele>196.0</ele><time>2026-05-03T10:56:24.495Z</time></trkpt><trkpt lat="42.2608837" lon="13.9705012"><ele>196.0</ele><time>2026-05-03T10:56:25.505Z</time></trkpt><trkpt lat="42.2609265" lon="13.9706203"><ele>196.0</ele><time>2026-05-03T10:56:26.491Z</time></trkpt><trkpt lat="42.2609713" lon="13.9707587"><ele>196.0</ele><time>2026-05-03T10:56:27.496Z</time></trkpt><trkpt lat="42.2610279" lon="13.9708936"><ele>196.0</ele><time>2026-05-03T10:56:28.498Z</time></trkpt><trkpt lat="42.2610841" lon="13.9710287"><ele>196.83333333333331</ele><time>2026-05-03T10:56:29.5Z</time></trkpt><trkpt lat="42.26113" lon="13.9711518"><ele>197.66666666666666</ele><time>2026-05-03T10:56:30.491Z</time></trkpt><trkpt lat="42.2611641" lon="13.9712562"><ele>198.5</ele><time>2026-05-03T10:56:31.503Z</time></trkpt><trkpt lat="42.2611836" lon="13.9713483"><ele>199.33333333333331</ele><time>2026-05-03T10:56:32.489Z</time></trkpt><trkpt lat="42.2611965" lon="13.9714322"><ele>200.16666666666666</ele><time>2026-05-03T10:56:33.5Z</time></trkpt><trkpt lat="42.261239" lon="13.9715674"><ele>201.0</ele><time>2026-05-03T10:56:35.49Z</time></trkpt><trkpt lat="42.2612846" lon="13.9716562"><ele>201.5</ele><time>2026-05-03T10:56:36.488Z</time></trkpt><trkpt lat="42.2613425" lon="13.9717655"><ele>202.0</ele><time>2026-05-03T10:56:37.496Z</time></trkpt><trkpt lat="42.261394" lon="13.9718688"><ele>202.5</ele><time>2026-05-03T10:56:38.487Z</time></trkpt><trkpt lat="42.2614358" lon="13.9719593"><ele>203.0</ele><time>2026-05-03T10:56:39.499Z</time></trkpt><trkpt lat="42.2614642" lon="13.9720497"><ele>203.5</ele><time>2026-05-03T10:56:40.494Z</time></trkpt><trkpt lat="42.2614874" lon="13.9721375"><ele>204.0</ele><time>2026-05-03T10:56:41.489Z</time></trkpt><trkpt lat="42.2615183" lon="13.9722191"><ele>202.33333333333334</ele><time>2026-05-03T10:56:42.486Z</time></trkpt><trkpt lat="42.2615483" lon="13.9722982"><ele>200.66666666666669</ele><time>2026-05-03T10:56:43.497Z</time></trkpt><trkpt lat="42.2615788" lon="13.9723745"><ele>199.0</ele><time>2026-05-03T10:56:44.496Z</time></trkpt><trkpt lat="42.2616425" lon="13.9725288"><ele>197.33333333333334</ele><time>2026-05-03T10:56:46.493Z</time></trkpt><trkpt lat="42.2616851" lon="13.9726206"><ele>195.66666666666669</ele><time>2026-05-03T10:56:47.505Z</time></trkpt><trkpt lat="42.2617241" lon="13.9727016"><ele>194.0</ele><time>2026-05-03T10:56:48.493Z</time></trkpt><trkpt lat="42.2617665" lon="13.9727832"><ele>193.83333333333334</ele><time>2026-05-03T10:56:49.506Z</time></trkpt><trkpt lat="42.2618044" lon="13.9728636"><ele>193.66666666666669</ele><time>2026-05-03T10:56:50.49Z</time></trkpt><trkpt lat="42.2618288" lon="13.9729424"><ele>193.5</ele><time>2026-05-03T10:56:51.493Z</time></trkpt><trkpt lat="42.2618517" lon="13.9730357"><ele>193.33333333333331</ele><time>2026-05-03T10:56:52.489Z</time></trkpt><trkpt lat="42.2618832" lon="13.9731394"><ele>193.16666666666666</ele><time>2026-05-03T10:56:53.501Z</time></trkpt><trkpt lat="42.2619257" lon="13.9732513"><ele>193.0</ele><time>2026-05-03T10:56:54.491Z</time></trkpt><trkpt lat="42.2619676" lon="13.9733514"><ele>193.8</ele><time>2026-05-03T10:56:55.494Z</time></trkpt><trkpt lat="42.2620023" lon="13.9734324"><ele>194.60000000000002</ele><time>2026-05-03T10:56:56.485Z</time></trkpt><trkpt lat="42.2620216" lon="13.9735815"><ele>195.39999999999998</ele><time>2026-05-03T10:56:58.501Z</time></trkpt><trkpt lat="42.2620768" lon="13.9737414"><ele>196.2</ele><time>2026-05-03T10:57:00.496Z</time></trkpt><trkpt lat="42.2621239" lon="13.9738295"><ele>197.0</ele><time>2026-05-03T10:57:01.5Z</time></trkpt><trkpt lat="42.2621756" lon="13.9739302"><ele>197.0</ele><time>2026-05-03T10:57:02.493Z</time></trkpt><trkpt lat="42.2622284" lon="13.9740344"><ele>197.0</ele><time>2026-05-03T10:57:03.497Z</time></trkpt><trkpt lat="42.262274" lon="13.9741424"><ele>197.0</ele><time>2026-05-03T10:57:04.495Z</time></trkpt><trkpt lat="42.2623115" lon="13.9742586"><ele>197.0</ele><time>2026-05-03T10:57:05.494Z</time></trkpt><trkpt lat="42.2623566" lon="13.974385"><ele>197.0</ele><time>2026-05-03T10:57:06.494Z</time></trkpt><trkpt lat="42.2623989" lon="13.9745271"><ele>198.0</ele><time>2026-05-03T10:57:07.491Z</time></trkpt><trkpt lat="42.2624241" lon="13.9746788"><ele>199.0</ele><time>2026-05-03T10:57:08.485Z</time></trkpt><trkpt lat="42.2624479" lon="13.9748653"><ele>200.0</ele><time>2026-05-03T10:57:09.491Z</time></trkpt><trkpt lat="42.2624773" lon="13.9750758"><ele>201.0</ele><time>2026-05-03T10:57:10.497Z</time></trkpt><trkpt lat="42.2624884" lon="13.9752908"><ele>201.0</ele><time>2026-05-03T10:57:11.498Z</time></trkpt><trkpt lat="42.262527" lon="13.9754356"><ele>201.0</ele><time>2026-05-03T10:57:12.483Z</time></trkpt><trkpt lat="42.2625678" lon="13.9755686"><ele>201.0</ele><time>2026-05-03T10:57:13.501Z</time></trkpt><trkpt lat="42.2625982" lon="13.9756889"><ele>201.0</ele><time>2026-05-03T10:57:14.503Z</time></trkpt><trkpt lat="42.2626101" lon="13.9757971"><ele>201.0</ele><time>2026-05-03T10:57:15.497Z</time></trkpt><trkpt lat="42.2625771" lon="13.9759175"><ele>202.60000000000002</ele><time>2026-05-03T10:57:17.493Z</time></trkpt><trkpt lat="42.2625185" lon="13.9760154"><ele>204.2</ele><time>2026-05-03T10:57:19.49Z</time></trkpt><trkpt lat="42.2624361" lon="13.9761121"><ele>205.8</ele><time>2026-05-03T10:57:21.492Z</time></trkpt><trkpt lat="42.2624232" lon="13.9762218"><ele>207.39999999999998</ele><time>2026-05-03T10:57:23.494Z</time></trkpt><trkpt lat="42.2624429" lon="13.9764308"><ele>209.0</ele><time>2026-05-03T10:57:25.494Z</time></trkpt><trkpt lat="42.2624703" lon="13.9766003"><ele>210.75</ele><time>2026-05-03T10:57:26.502Z</time></trkpt><trkpt lat="42.2625219" lon="13.9767776"><ele>212.5</ele><time>2026-05-03T10:57:27.498Z</time></trkpt><trkpt lat="42.2625826" lon="13.9769572"><ele>214.25</ele><time>2026-05-03T10:57:28.502Z</time></trkpt><trkpt lat="42.262648" lon="13.977149"><ele>216.0</ele><time>2026-05-03T10:57:29.497Z</time></trkpt><trkpt lat="42.2627025" lon="13.9773406"><ele>216.0</ele><time>2026-05-03T10:57:30.5Z</time></trkpt><trkpt lat="42.2627483" lon="13.9774912"><ele>216.00000000000003</ele><time>2026-05-03T10:57:31.498Z</time></trkpt><trkpt lat="42.2627801" lon="13.9776286"><ele>216.00000000000003</ele><time>2026-05-03T10:57:32.505Z</time></trkpt><trkpt lat="42.2628002" lon="13.9777659"><ele>216.0</ele><time>2026-05-03T10:57:33.502Z</time></trkpt><trkpt lat="42.2628302" lon="13.9779144"><ele>216.0</ele><time>2026-05-03T10:57:34.522Z</time></trkpt><trkpt lat="42.2628658" lon="13.9780644"><ele>218.0</ele><time>2026-05-03T10:57:35.504Z</time></trkpt><trkpt lat="42.2628978" lon="13.9782243"><ele>220.0</ele><time>2026-05-03T10:57:36.51Z</time></trkpt><trkpt lat="42.2629227" lon="13.9783881"><ele>222.0</ele><time>2026-05-03T10:57:37.508Z</time></trkpt><trkpt lat="42.2629501" lon="13.9785534"><ele>224.0</ele><time>2026-05-03T10:57:38.51Z</time></trkpt><trkpt lat="42.2629766" lon="13.9787122"><ele>225.2</ele><time>2026-05-03T10:57:39.501Z</time></trkpt><trkpt lat="42.2629964" lon="13.9788627"><ele>226.39999999999998</ele><time>2026-05-03T10:57:40.508Z</time></trkpt><trkpt lat="42.2630125" lon="13.9790067"><ele>227.6</ele><time>2026-05-03T10:57:41.5Z</time></trkpt><trkpt lat="42.2630227" lon="13.9791451"><ele>228.8</ele><time>2026-05-03T10:57:42.496Z</time></trkpt><trkpt lat="42.2630313" lon="13.9792721"><ele>230.0</ele><time>2026-05-03T10:57:43.486Z</time></trkpt><trkpt lat="42.2630333" lon="13.9793743"><ele>230.16666666666669</ele><time>2026-05-03T10:57:44.491Z</time></trkpt><trkpt lat="42.2629965" lon="13.9794818"><ele>230.33333333333334</ele><time>2026-05-03T10:57:46.493Z</time></trkpt><trkpt lat="42.2629511" lon="13.9795415"><ele>230.5</ele><time>2026-05-03T10:57:50.505Z</time></trkpt><trkpt lat="42.2629044" lon="13.9796076"><ele>230.66666666666669</ele><time>2026-05-03T10:57:52.513Z</time></trkpt><trkpt lat="42.2628323" lon="13.9796649"><ele>230.83333333333334</ele><time>2026-05-03T10:57:54.5Z</time></trkpt><trkpt lat="42.2627685" lon="13.9797344"><ele>231.0</ele><time>2026-05-03T10:57:56.494Z</time></trkpt><trkpt lat="42.2628656" lon="13.9797188"><ele>231.0</ele><time>2026-05-03T10:58:00.502Z</time></trkpt><trkpt lat="42.2629383" lon="13.9796291"><ele>231.0</ele><time>2026-05-03T10:58:02.493Z</time></trkpt><trkpt lat="42.2629939" lon="13.9795597"><ele>231.0</ele><time>2026-05-03T10:58:04.486Z</time></trkpt><trkpt lat="42.2630637" lon="13.9795966"><ele>231.0</ele><time>2026-05-03T10:58:07.503Z</time></trkpt><trkpt lat="42.2631164" lon="13.979661"><ele>231.0</ele><time>2026-05-03T10:58:09.504Z</time></trkpt><trkpt lat="42.2631672" lon="13.9797233"><ele>231.0</ele><time>2026-05-03T10:58:11.511Z</time></trkpt><trkpt lat="42.2632211" lon="13.9797795"><ele>228.66666666666666</ele><time>2026-05-03T10:58:13.511Z</time></trkpt><trkpt lat="42.2632763" lon="13.9798523"><ele>226.33333333333331</ele><time>2026-05-03T10:58:15.506Z</time></trkpt><trkpt lat="42.2633261" lon="13.9799292"><ele>224.0</ele><time>2026-05-03T10:58:17.505Z</time></trkpt><trkpt lat="42.2633619" lon="13.9800279"><ele>221.66666666666666</ele><time>2026-05-03T10:58:19.506Z</time></trkpt><trkpt lat="42.2633839" lon="13.9801452"><ele>219.33333333333331</ele><time>2026-05-03T10:58:21.5Z</time></trkpt><trkpt lat="42.2634086" lon="13.9802811"><ele>217.0</ele><time>2026-05-03T10:58:23.507Z</time></trkpt><trkpt lat="42.2634226" lon="13.980368"><ele>217.0</ele><time>2026-05-03T10:58:24.499Z</time></trkpt><trkpt lat="42.2634286" lon="13.9805296"><ele>217.0</ele><time>2026-05-03T10:58:26.499Z</time></trkpt><trkpt lat="42.2634126" lon="13.9806992"><ele>217.0</ele><time>2026-05-03T10:58:28.514Z</time></trkpt><trkpt lat="42.2633865" lon="13.9807971"><ele>217.0</ele><time>2026-05-03T10:58:29.509Z</time></trkpt><trkpt lat="42.2633657" lon="13.9808995"><ele>217.0</ele><time>2026-05-03T10:58:30.499Z</time></trkpt><trkpt lat="42.2633533" lon="13.9810036"><ele>217.2</ele><time>2026-05-03T10:58:31.503Z</time></trkpt><trkpt lat="42.2633642" lon="13.9811184"><ele>217.39999999999998</ele><time>2026-05-03T10:58:32.504Z</time></trkpt><trkpt lat="42.2633828" lon="13.9812186"><ele>217.60000000000002</ele><time>2026-05-03T10:58:33.504Z</time></trkpt><trkpt lat="42.2634246" lon="13.9813473"><ele>217.8</ele><time>2026-05-03T10:58:35.501Z</time></trkpt><trkpt lat="42.2635204" lon="13.981373"><ele>218.0</ele><time>2026-05-03T10:58:38.497Z</time></trkpt><trkpt lat="42.2636344" lon="13.9812615"><ele>218.00000000000003</ele><time>2026-05-03T10:58:40.493Z</time></trkpt><trkpt lat="42.2636906" lon="13.9811863"><ele>218.0</ele><time>2026-05-03T10:58:41.493Z</time></trkpt><trkpt lat="42.2637418" lon="13.9811241"><ele>218.0</ele><time>2026-05-03T10:58:42.495Z</time></trkpt><trkpt lat="42.2637975" lon="13.9810623"><ele>218.0</ele><time>2026-05-03T10:58:43.494Z</time></trkpt><trkpt lat="42.2638557" lon="13.9810113"><ele>218.00000000000003</ele><time>2026-05-03T10:58:44.499Z</time></trkpt><trkpt lat="42.263929" lon="13.9809873"><ele>218.0</ele><time>2026-05-03T10:58:45.495Z</time></trkpt><trkpt lat="42.2640331" lon="13.9809894"><ele>215.4</ele><time>2026-05-03T10:58:47.501Z</time></trkpt><trkpt lat="42.2641068" lon="13.981093"><ele>212.8</ele><time>2026-05-03T10:58:49.498Z</time></trkpt><trkpt lat="42.2641535" lon="13.9811908"><ele>210.2</ele><time>2026-05-03T10:58:50.498Z</time></trkpt><trkpt lat="42.2641954" lon="13.9813048"><ele>207.6</ele><time>2026-05-03T10:58:51.502Z</time></trkpt><trkpt lat="42.2642456" lon="13.9814057"><ele>205.0</ele><time>2026-05-03T10:58:52.5Z</time></trkpt><trkpt lat="42.2642991" lon="13.9814958"><ele>205.0</ele><time>2026-05-03T10:58:53.504Z</time></trkpt><trkpt lat="42.2643496" lon="13.9815643"><ele>205.0</ele><time>2026-05-03T10:58:54.504Z</time></trkpt><trkpt lat="42.2644059" lon="13.9816116"><ele>205.0</ele><time>2026-05-03T10:58:55.513Z</time></trkpt><trkpt lat="42.2644661" lon="13.981646"><ele>205.0</ele><time>2026-05-03T10:58:56.51Z</time></trkpt><trkpt lat="42.2645292" lon="13.9816847"><ele>205.0</ele><time>2026-05-03T10:58:57.507Z</time></trkpt><trkpt lat="42.2645904" lon="13.9817355"><ele>205.0</ele><time>2026-05-03T10:58:58.511Z</time></trkpt><trkpt lat="42.264644" lon="13.9818096"><ele>205.0</ele><time>2026-05-03T10:58:59.51Z</time></trkpt><trkpt lat="42.2646899" lon="13.9819003"><ele>205.0</ele><time>2026-05-03T10:59:00.52Z</time></trkpt><trkpt lat="42.2647234" lon="13.9820138"><ele>205.0</ele><time>2026-05-03T10:59:01.511Z</time></trkpt><trkpt lat="42.2647556" lon="13.9821343"><ele>205.0</ele><time>2026-05-03T10:59:02.511Z</time></trkpt><trkpt lat="42.264775" lon="13.9822651"><ele>205.0</ele><time>2026-05-03T10:59:03.515Z</time></trkpt><trkpt lat="42.2647906" lon="13.9823939"><ele>205.0</ele><time>2026-05-03T10:59:04.511Z</time></trkpt><trkpt lat="42.2648092" lon="13.9825062"><ele>201.8</ele><time>2026-05-03T10:59:05.508Z</time></trkpt><trkpt lat="42.2648285" lon="13.9826275"><ele>198.6</ele><time>2026-05-03T10:59:06.51Z</time></trkpt><trkpt lat="42.2648477" lon="13.9827625"><ele>195.39999999999998</ele><time>2026-05-03T10:59:07.502Z</time></trkpt><trkpt lat="42.2648616" lon="13.9828936"><ele>192.2</ele><time>2026-05-03T10:59:08.514Z</time></trkpt><trkpt lat="42.2648761" lon="13.9830129"><ele>189.0</ele><time>2026-05-03T10:59:09.505Z</time></trkpt><trkpt lat="42.2648899" lon="13.9831349"><ele>189.0</ele><time>2026-05-03T10:59:10.508Z</time></trkpt><trkpt lat="42.2648944" lon="13.9832536"><ele>189.0</ele><time>2026-05-03T10:59:11.508Z</time></trkpt><trkpt lat="42.2649006" lon="13.9833653"><ele>189.0</ele><time>2026-05-03T10:59:12.505Z</time></trkpt><trkpt lat="42.2649079" lon="13.9834732"><ele>189.0</ele><time>2026-05-03T10:59:13.51Z</time></trkpt><trkpt lat="42.2649223" lon="13.9835753"><ele>189.0</ele><time>2026-05-03T10:59:14.503Z</time></trkpt><trkpt lat="42.2649329" lon="13.9836663"><ele>189.0</ele><time>2026-05-03T10:59:15.501Z</time></trkpt><trkpt lat="42.2649549" lon="13.9838088"><ele>188.2</ele><time>2026-05-03T10:59:17.499Z</time></trkpt><trkpt lat="42.2649934" lon="13.983943"><ele>187.39999999999998</ele><time>2026-05-03T10:59:19.499Z</time></trkpt><trkpt lat="42.2650827" lon="13.9839675"><ele>186.6</ele><time>2026-05-03T10:59:21.496Z</time></trkpt><trkpt lat="42.2651937" lon="13.9838651"><ele>185.8</ele><time>2026-05-03T10:59:23.508Z</time></trkpt><trkpt lat="42.2652405" lon="13.9837781"><ele>185.0</ele><time>2026-05-03T10:59:24.518Z</time></trkpt><trkpt lat="42.2652769" lon="13.9836601"><ele>185.0</ele><time>2026-05-03T10:59:25.501Z</time></trkpt><trkpt lat="42.2652918" lon="13.9835307"><ele>185.0</ele><time>2026-05-03T10:59:26.501Z</time></trkpt><trkpt lat="42.2652776" lon="13.9833852"><ele>185.0</ele><time>2026-05-03T10:59:27.501Z</time></trkpt><trkpt lat="42.2652563" lon="13.9832369"><ele>185.0</ele><time>2026-05-03T10:59:28.506Z</time></trkpt><trkpt lat="42.2652388" lon="13.9831035"><ele>185.0</ele><time>2026-05-03T10:59:29.499Z</time></trkpt><trkpt lat="42.2652319" lon="13.9829781"><ele>185.66666666666666</ele><time>2026-05-03T10:59:30.5Z</time></trkpt><trkpt lat="42.2652387" lon="13.9828553"><ele>186.33333333333331</ele><time>2026-05-03T10:59:31.495Z</time></trkpt><trkpt lat="42.2652571" lon="13.9827434"><ele>187.0</ele><time>2026-05-03T10:59:32.504Z</time></trkpt><trkpt lat="42.2652914" lon="13.9826377"><ele>187.66666666666666</ele><time>2026-05-03T10:59:33.495Z</time></trkpt><trkpt lat="42.2653309" lon="13.9825417"><ele>188.33333333333334</ele><time>2026-05-03T10:59:34.503Z</time></trkpt><trkpt lat="42.2653714" lon="13.9824451"><ele>189.0</ele><time>2026-05-03T10:59:35.495Z</time></trkpt><trkpt lat="42.2654105" lon="13.9823475"><ele>189.0</ele><time>2026-05-03T10:59:36.497Z</time></trkpt><trkpt lat="42.2654465" lon="13.9822511"><ele>189.0</ele><time>2026-05-03T10:59:37.494Z</time></trkpt><trkpt lat="42.2654849" lon="13.9821724"><ele>189.0</ele><time>2026-05-03T10:59:38.502Z</time></trkpt><trkpt lat="42.2655768" lon="13.982099"><ele>189.0</ele><time>2026-05-03T10:59:40.511Z</time></trkpt><trkpt lat="42.2656883" lon="13.9821558"><ele>189.0</ele><time>2026-05-03T10:59:42.504Z</time></trkpt><trkpt lat="42.2657455" lon="13.982221"><ele>186.16666666666666</ele><time>2026-05-03T10:59:43.502Z</time></trkpt><trkpt lat="42.2657996" lon="13.9822966"><ele>183.33333333333334</ele><time>2026-05-03T10:59:44.509Z</time></trkpt><trkpt lat="42.265843" lon="13.9823811"><ele>180.5</ele><time>2026-05-03T10:59:45.503Z</time></trkpt><trkpt lat="42.2658936" lon="13.9824702"><ele>177.66666666666669</ele><time>2026-05-03T10:59:46.511Z</time></trkpt><trkpt lat="42.2659556" lon="13.9825649"><ele>174.83333333333334</ele><time>2026-05-03T10:59:47.502Z</time></trkpt><trkpt lat="42.2660311" lon="13.9826766"><ele>172.0</ele><time>2026-05-03T10:59:48.511Z</time></trkpt><trkpt lat="42.2661206" lon="13.9827858"><ele>172.0</ele><time>2026-05-03T10:59:49.505Z</time></trkpt><trkpt lat="42.2662204" lon="13.9828695"><ele>172.0</ele><time>2026-05-03T10:59:50.509Z</time></trkpt><trkpt lat="42.2663197" lon="13.9829166"><ele>172.0</ele><time>2026-05-03T10:59:51.508Z</time></trkpt><trkpt lat="42.2664205" lon="13.9829257"><ele>172.0</ele><time>2026-05-03T10:59:52.501Z</time></trkpt><trkpt lat="42.2665216" lon="13.9829238"><ele>172.0</ele><time>2026-05-03T10:59:53.5Z</time></trkpt><trkpt lat="42.2666198" lon="13.9829173"><ele>170.33333333333334</ele><time>2026-05-03T10:59:54.509Z</time></trkpt><trkpt lat="42.2667118" lon="13.9829144"><ele>168.66666666666669</ele><time>2026-05-03T10:59:55.51Z</time></trkpt><trkpt lat="42.2667935" lon="13.9829302"><ele>167.0</ele><time>2026-05-03T10:59:56.485Z</time></trkpt><trkpt lat="42.2668589" lon="13.9829622"><ele>165.33333333333334</ele><time>2026-05-03T10:59:57.482Z</time></trkpt><trkpt lat="42.2669285" lon="13.9830632"><ele>163.66666666666666</ele><time>2026-05-03T10:59:59.499Z</time></trkpt><trkpt lat="42.2669546" lon="13.9831584"><ele>162.0</ele><time>2026-05-03T11:00:00.505Z</time></trkpt><trkpt lat="42.2669607" lon="13.9832954"><ele>162.5</ele><time>2026-05-03T11:00:01.506Z</time></trkpt><trkpt lat="42.2669535" lon="13.9834593"><ele>163.0</ele><time>2026-05-03T11:00:02.489Z</time></trkpt><trkpt lat="42.2669467" lon="13.9836498"><ele>163.5</ele><time>2026-05-03T11:00:03.498Z</time></trkpt><trkpt lat="42.2669504" lon="13.9838483"><ele>164.0</ele><time>2026-05-03T11:00:04.499Z</time></trkpt><trkpt lat="42.2669447" lon="13.9840742"><ele>162.33333333333331</ele><time>2026-05-03T11:00:05.499Z</time></trkpt><trkpt lat="42.2669541" lon="13.9842931"><ele>160.66666666666666</ele><time>2026-05-03T11:00:06.509Z</time></trkpt><trkpt lat="42.2669838" lon="13.9845149"><ele>159.0</ele><time>2026-05-03T11:00:07.501Z</time></trkpt><trkpt lat="42.2670167" lon="13.9847211"><ele>159.0</ele><time>2026-05-03T11:00:08.504Z</time></trkpt><trkpt lat="42.2670407" lon="13.9849159"><ele>159.0</ele><time>2026-05-03T11:00:09.496Z</time></trkpt><trkpt lat="42.2670659" lon="13.9851048"><ele>159.0</ele><time>2026-05-03T11:00:10.503Z</time></trkpt><trkpt lat="42.2670854" lon="13.9852718"><ele>159.0</ele><time>2026-05-03T11:00:11.504Z</time></trkpt><trkpt lat="42.2670854" lon="13.9854768"><ele>157.5</ele><time>2026-05-03T11:00:12.5Z</time></trkpt><trkpt lat="42.2670749" lon="13.9856667"><ele>156.0</ele><time>2026-05-03T11:00:13.497Z</time></trkpt><trkpt lat="42.26706" lon="13.9858575"><ele>154.5</ele><time>2026-05-03T11:00:14.5Z</time></trkpt><trkpt lat="42.2670425" lon="13.9860486"><ele>153.0</ele><time>2026-05-03T11:00:15.495Z</time></trkpt><trkpt lat="42.2670004" lon="13.9862517"><ele>151.33333333333334</ele><time>2026-05-03T11:00:16.501Z</time></trkpt><trkpt lat="42.2669449" lon="13.9864636"><ele>149.66666666666669</ele><time>2026-05-03T11:00:17.496Z</time></trkpt><trkpt lat="42.2668958" lon="13.9866718"><ele>148.0</ele><time>2026-05-03T11:00:18.5Z</time></trkpt><trkpt lat="42.26686" lon="13.9868794"><ele>146.5</ele><time>2026-05-03T11:00:19.504Z</time></trkpt><trkpt lat="42.2668159" lon="13.9870916"><ele>145.0</ele><time>2026-05-03T11:00:20.506Z</time></trkpt><trkpt lat="42.266788" lon="13.9872925"><ele>143.5</ele><time>2026-05-03T11:00:21.493Z</time></trkpt><trkpt lat="42.2667668" lon="13.987466"><ele>142.0</ele><time>2026-05-03T11:00:22.507Z</time></trkpt><trkpt lat="42.2667456" lon="13.9876398"><ele>140.75</ele><time>2026-05-03T11:00:23.498Z</time></trkpt><trkpt lat="42.2667076" lon="13.987805"><ele>139.5</ele><time>2026-05-03T11:00:24.509Z</time></trkpt><trkpt lat="42.26666" lon="13.9879616"><ele>138.25</ele><time>2026-05-03T11:00:25.503Z</time></trkpt><trkpt lat="42.2666168" lon="13.9881281"><ele>137.0</ele><time>2026-05-03T11:00:26.505Z</time></trkpt><trkpt lat="42.2665716" lon="13.9883032"><ele>135.33333333333331</ele><time>2026-05-03T11:00:27.498Z</time></trkpt><trkpt lat="42.2665436" lon="13.988514"><ele>133.66666666666666</ele><time>2026-05-03T11:00:28.501Z</time></trkpt><trkpt lat="42.2665341" lon="13.9887252"><ele>132.0</ele><time>2026-05-03T11:00:29.5Z</time></trkpt><trkpt lat="42.2665366" lon="13.9889596"><ele>132.0</ele><time>2026-05-03T11:00:30.503Z</time></trkpt><trkpt lat="42.266571" lon="13.9891909"><ele>132.0</ele><time>2026-05-03T11:00:31.502Z</time></trkpt><trkpt lat="42.2666103" lon="13.9894211"><ele>132.0</ele><time>2026-05-03T11:00:32.498Z</time></trkpt><trkpt lat="42.2666538" lon="13.9896562"><ele>132.0</ele><time>2026-05-03T11:00:33.498Z</time></trkpt><trkpt lat="42.2666971" lon="13.9898821"><ele>132.0</ele><time>2026-05-03T11:00:34.507Z</time></trkpt><trkpt lat="42.266739" lon="13.9900874"><ele>132.0</ele><time>2026-05-03T11:00:35.497Z</time></trkpt><trkpt lat="42.266789" lon="13.9903172"><ele>131.66666666666666</ele><time>2026-05-03T11:00:36.501Z</time></trkpt><trkpt lat="42.2668245" lon="13.9905231"><ele>131.33333333333331</ele><time>2026-05-03T11:00:37.498Z</time></trkpt><trkpt lat="42.2668424" lon="13.9907374"><ele>131.0</ele><time>2026-05-03T11:00:38.496Z</time></trkpt><trkpt lat="42.2668468" lon="13.9909442"><ele>129.0</ele><time>2026-05-03T11:00:39.508Z</time></trkpt><trkpt lat="42.2668248" lon="13.9911472"><ele>127.0</ele><time>2026-05-03T11:00:40.502Z</time></trkpt><trkpt lat="42.2667977" lon="13.991376"><ele>125.0</ele><time>2026-05-03T11:00:41.503Z</time></trkpt><trkpt lat="42.2667444" lon="13.9915874"><ele>123.33333333333333</ele><time>2026-05-03T11:00:42.498Z</time></trkpt><trkpt lat="42.266699" lon="13.9917964"><ele>121.66666666666666</ele><time>2026-05-03T11:00:43.502Z</time></trkpt><trkpt lat="42.2666502" lon="13.9920315"><ele>120.0</ele><time>2026-05-03T11:00:44.498Z</time></trkpt><trkpt lat="42.2666095" lon="13.9922448"><ele>120.0</ele><time>2026-05-03T11:00:45.493Z</time></trkpt><trkpt lat="42.2665718" lon="13.9924194"><ele>120.0</ele><time>2026-05-03T11:00:46.498Z</time></trkpt><trkpt lat="42.2665487" lon="13.9926038"><ele>120.0</ele><time>2026-05-03T11:00:47.505Z</time></trkpt><trkpt lat="42.2665334" lon="13.9927689"><ele>120.0</ele><time>2026-05-03T11:00:48.497Z</time></trkpt><trkpt lat="42.2665007" lon="13.9929308"><ele>119.5</ele><time>2026-05-03T11:00:49.509Z</time></trkpt><trkpt lat="42.2664557" lon="13.9931122"><ele>119.0</ele><time>2026-05-03T11:00:50.497Z</time></trkpt><trkpt lat="42.2664245" lon="13.9932956"><ele>118.5</ele><time>2026-05-03T11:00:51.508Z</time></trkpt><trkpt lat="42.2663947" lon="13.993477"><ele>118.0</ele><time>2026-05-03T11:00:52.502Z</time></trkpt><trkpt lat="42.2663584" lon="13.9936432"><ele>119.5</ele><time>2026-05-03T11:00:53.505Z</time></trkpt><trkpt lat="42.2663188" lon="13.9938238"><ele>121.0</ele><time>2026-05-03T11:00:54.506Z</time></trkpt><trkpt lat="42.266279" lon="13.9940114"><ele>122.5</ele><time>2026-05-03T11:00:55.505Z</time></trkpt><trkpt lat="42.2662521" lon="13.9941899"><ele>124.0</ele><time>2026-05-03T11:00:56.503Z</time></trkpt><trkpt lat="42.2662168" lon="13.994347"><ele>124.0</ele><time>2026-05-03T11:00:57.508Z</time></trkpt><trkpt lat="42.2661972" lon="13.994488"><ele>124.0</ele><time>2026-05-03T11:00:58.501Z</time></trkpt><trkpt lat="42.2661862" lon="13.9946467"><ele>124.0</ele><time>2026-05-03T11:00:59.505Z</time></trkpt><trkpt lat="42.2661722" lon="13.9947856"><ele>124.0</ele><time>2026-05-03T11:01:00.501Z</time></trkpt><trkpt lat="42.2661204" lon="13.9949109"><ele>124.0</ele><time>2026-05-03T11:01:01.507Z</time></trkpt><trkpt lat="42.2660659" lon="13.9950115"><ele>123.6</ele><time>2026-05-03T11:01:02.497Z</time></trkpt><trkpt lat="42.2659922" lon="13.9951118"><ele>123.2</ele><time>2026-05-03T11:01:03.506Z</time></trkpt><trkpt lat="42.2659541" lon="13.995213"><ele>122.79999999999998</ele><time>2026-05-03T11:01:04.497Z</time></trkpt><trkpt lat="42.2659522" lon="13.995337"><ele>122.39999999999999</ele><time>2026-05-03T11:01:05.498Z</time></trkpt><trkpt lat="42.2659738" lon="13.9954794"><ele>122.0</ele><time>2026-05-03T11:01:06.497Z</time></trkpt><trkpt lat="42.2659966" lon="13.9956424"><ele>122.0</ele><time>2026-05-03T11:01:07.505Z</time></trkpt><trkpt lat="42.2659893" lon="13.9958151"><ele>122.0</ele><time>2026-05-03T11:01:08.491Z</time></trkpt><trkpt lat="42.265966" lon="13.995985"><ele>122.0</ele><time>2026-05-03T11:01:09.509Z</time></trkpt><trkpt lat="42.2659394" lon="13.9961666"><ele>122.0</ele><time>2026-05-03T11:01:10.495Z</time></trkpt><trkpt lat="42.2659068" lon="13.99636"><ele>121.33333333333333</ele><time>2026-05-03T11:01:11.513Z</time></trkpt><trkpt lat="42.2658614" lon="13.996571"><ele>120.66666666666666</ele><time>2026-05-03T11:01:12.504Z</time></trkpt><trkpt lat="42.2658257" lon="13.9967811"><ele>120.0</ele><time>2026-05-03T11:01:13.508Z</time></trkpt><trkpt lat="42.2658032" lon="13.9969901"><ele>120.0</ele><time>2026-05-03T11:01:14.492Z</time></trkpt><trkpt lat="42.2657684" lon="13.997205"><ele>120.0</ele><time>2026-05-03T11:01:15.497Z</time></trkpt><trkpt lat="42.2657298" lon="13.9973995"><ele>120.0</ele><time>2026-05-03T11:01:16.49Z</time></trkpt><trkpt lat="42.2656955" lon="13.9975904"><ele>119.5</ele><time>2026-05-03T11:01:17.505Z</time></trkpt><trkpt lat="42.2656519" lon="13.9977903"><ele>119.0</ele><time>2026-05-03T11:01:18.501Z</time></trkpt><trkpt lat="42.2656079" lon="13.9979792"><ele>118.5</ele><time>2026-05-03T11:01:19.518Z</time></trkpt><trkpt lat="42.2655552" lon="13.9981639"><ele>118.0</ele><time>2026-05-03T11:01:20.497Z</time></trkpt><trkpt lat="42.26547" lon="13.9983427"><ele>117.66666666666667</ele><time>2026-05-03T11:01:21.511Z</time></trkpt><trkpt lat="42.265377" lon="13.9985044"><ele>117.33333333333334</ele><time>2026-05-03T11:01:22.498Z</time></trkpt><trkpt lat="42.2652708" lon="13.9986494"><ele>117.0</ele><time>2026-05-03T11:01:23.504Z</time></trkpt><trkpt lat="42.2651396" lon="13.9987724"><ele>117.0</ele><time>2026-05-03T11:01:24.509Z</time></trkpt><trkpt lat="42.265024" lon="13.9989098"><ele>117.0</ele><time>2026-05-03T11:01:25.499Z</time></trkpt><trkpt lat="42.2648865" lon="13.9990299"><ele>117.0</ele><time>2026-05-03T11:01:26.501Z</time></trkpt><trkpt lat="42.2647534" lon="13.9991481"><ele>117.33333333333334</ele><time>2026-05-03T11:01:27.504Z</time></trkpt><trkpt lat="42.2646144" lon="13.999278"><ele>117.66666666666667</ele><time>2026-05-03T11:01:28.503Z</time></trkpt><trkpt lat="42.2644787" lon="13.999413"><ele>118.0</ele><time>2026-05-03T11:01:29.517Z</time></trkpt><trkpt lat="42.2643267" lon="13.9995296"><ele>118.0</ele><time>2026-05-03T11:01:30.506Z</time></trkpt><trkpt lat="42.2641905" lon="13.9996692"><ele>118.0</ele><time>2026-05-03T11:01:31.511Z</time></trkpt><trkpt lat="42.2640609" lon="13.9998168"><ele>118.0</ele><time>2026-05-03T11:01:32.504Z</time></trkpt><trkpt lat="42.26394" lon="13.9999632"><ele>119.66666666666667</ele><time>2026-05-03T11:01:33.511Z</time></trkpt><trkpt lat="42.2638122" lon="14.0000874"><ele>121.33333333333334</ele><time>2026-05-03T11:01:34.493Z</time></trkpt><trkpt lat="42.2636597" lon="14.0002118"><ele>123.0</ele><time>2026-05-03T11:01:35.506Z</time></trkpt><trkpt lat="42.263529" lon="14.0003561"><ele>123.0</ele><time>2026-05-03T11:01:36.497Z</time></trkpt><trkpt lat="42.2634243" lon="14.0005252"><ele>123.0</ele><time>2026-05-03T11:01:37.501Z</time></trkpt><trkpt lat="42.2633223" lon="14.0006884"><ele>123.0</ele><time>2026-05-03T11:01:38.494Z</time></trkpt><trkpt lat="42.2632293" lon="14.0008831"><ele>120.66666666666666</ele><time>2026-05-03T11:01:39.499Z</time></trkpt><trkpt lat="42.2631773" lon="14.0010924"><ele>118.33333333333333</ele><time>2026-05-03T11:01:40.496Z</time></trkpt><trkpt lat="42.2631382" lon="14.0013171"><ele>116.0</ele><time>2026-05-03T11:01:41.492Z</time></trkpt><trkpt lat="42.2631336" lon="14.0015459"><ele>114.33333333333333</ele><time>2026-05-03T11:01:42.493Z</time></trkpt><trkpt lat="42.2631486" lon="14.0017736"><ele>112.66666666666666</ele><time>2026-05-03T11:01:43.495Z</time></trkpt><trkpt lat="42.2632076" lon="14.0020073"><ele>111.0</ele><time>2026-05-03T11:01:44.492Z</time></trkpt><trkpt lat="42.2633037" lon="14.0022269"><ele>111.0</ele><time>2026-05-03T11:01:45.496Z</time></trkpt><trkpt lat="42.2634061" lon="14.0024147"><ele>111.0</ele><time>2026-05-03T11:01:46.487Z</time></trkpt><trkpt lat="42.2635016" lon="14.0025738"><ele>111.0</ele><time>2026-05-03T11:01:47.494Z</time></trkpt><trkpt lat="42.2635789" lon="14.0027328"><ele>110.5</ele><time>2026-05-03T11:01:48.49Z</time></trkpt><trkpt lat="42.2636568" lon="14.0028677"><ele>110.0</ele><time>2026-05-03T11:01:49.506Z</time></trkpt><trkpt lat="42.2637246" lon="14.0030102"><ele>109.5</ele><time>2026-05-03T11:01:50.495Z</time></trkpt><trkpt lat="42.2637878" lon="14.0031389"><ele>109.0</ele><time>2026-05-03T11:01:51.51Z</time></trkpt><trkpt lat="42.2638537" lon="14.0032691"><ele>109.00000000000001</ele><time>2026-05-03T11:01:52.505Z</time></trkpt><trkpt lat="42.263909" lon="14.0033893"><ele>109.0</ele><time>2026-05-03T11:01:53.504Z</time></trkpt><trkpt lat="42.2639375" lon="14.0035017"><ele>109.0</ele><time>2026-05-03T11:01:54.5Z</time></trkpt><trkpt lat="42.263953" lon="14.0035945"><ele>109.0</ele><time>2026-05-03T11:01:55.509Z</time></trkpt><trkpt lat="42.2639582" lon="14.0036793"><ele>109.00000000000001</ele><time>2026-05-03T11:01:56.499Z</time></trkpt><trkpt lat="42.2639526" lon="14.0037733"><ele>109.0</ele><time>2026-05-03T11:01:57.499Z</time></trkpt><trkpt lat="42.2639405" lon="14.0038666"><ele>109.00000000000001</ele><time>2026-05-03T11:01:58.505Z</time></trkpt><trkpt lat="42.2639323" lon="14.0039541"><ele>109.0</ele><time>2026-05-03T11:01:59.505Z</time></trkpt><trkpt lat="42.2639781" lon="14.0041011"><ele>109.0</ele><time>2026-05-03T11:02:01.5Z</time></trkpt><trkpt lat="42.2640345" lon="14.0041579"><ele>109.0</ele><time>2026-05-03T11:02:02.498Z</time></trkpt><trkpt lat="42.2641116" lon="14.0042098"><ele>109.00000000000001</ele><time>2026-05-03T11:02:03.492Z</time></trkpt><trkpt lat="42.2642005" lon="14.004268"><ele>109.0</ele><time>2026-05-03T11:02:04.506Z</time></trkpt><trkpt lat="42.2642736" lon="14.0043571"><ele>109.16666666666667</ele><time>2026-05-03T11:02:05.489Z</time></trkpt><trkpt lat="42.2643285" lon="14.0044485"><ele>109.33333333333334</ele><time>2026-05-03T11:02:06.497Z</time></trkpt><trkpt lat="42.2643736" lon="14.0045347"><ele>109.5</ele><time>2026-05-03T11:02:07.502Z</time></trkpt><trkpt lat="42.2644134" lon="14.0046125"><ele>109.66666666666666</ele><time>2026-05-03T11:02:08.508Z</time></trkpt><trkpt lat="42.2644599" lon="14.0046995"><ele>109.83333333333333</ele><time>2026-05-03T11:02:09.498Z</time></trkpt><trkpt lat="42.2645029" lon="14.0047939"><ele>110.0</ele><time>2026-05-03T11:02:10.496Z</time></trkpt><trkpt lat="42.2645414" lon="14.0048792"><ele>110.0</ele><time>2026-05-03T11:02:11.504Z</time></trkpt><trkpt lat="42.2645838" lon="14.0049666"><ele>110.0</ele><time>2026-05-03T11:02:12.492Z</time></trkpt><trkpt lat="42.2646349" lon="14.00507"><ele>110.0</ele><time>2026-05-03T11:02:13.506Z</time></trkpt><trkpt lat="42.2646915" lon="14.0051942"><ele>110.0</ele><time>2026-05-03T11:02:14.498Z</time></trkpt><trkpt lat="42.2647395" lon="14.0053272"><ele>110.0</ele><time>2026-05-03T11:02:15.509Z</time></trkpt><trkpt lat="42.2647856" lon="14.0054505"><ele>109.0</ele><time>2026-05-03T11:02:16.5Z</time></trkpt><trkpt lat="42.2648342" lon="14.0055716"><ele>108.0</ele><time>2026-05-03T11:02:17.51Z</time></trkpt><trkpt lat="42.2648801" lon="14.0056763"><ele>107.0</ele><time>2026-05-03T11:02:18.502Z</time></trkpt><trkpt lat="42.2649256" lon="14.0057797"><ele>106.0</ele><time>2026-05-03T11:02:19.503Z</time></trkpt><trkpt lat="42.2649737" lon="14.005889"><ele>105.0</ele><time>2026-05-03T11:02:20.497Z</time></trkpt><trkpt lat="42.265021" lon="14.0059985"><ele>104.4</ele><time>2026-05-03T11:02:21.51Z</time></trkpt><trkpt lat="42.265072" lon="14.0061093"><ele>103.8</ele><time>2026-05-03T11:02:22.499Z</time></trkpt><trkpt lat="42.2651189" lon="14.0062258"><ele>103.19999999999999</ele><time>2026-05-03T11:02:23.508Z</time></trkpt><trkpt lat="42.2651688" lon="14.0063387"><ele>102.6</ele><time>2026-05-03T11:02:24.504Z</time></trkpt><trkpt lat="42.2652108" lon="14.0064407"><ele>102.0</ele><time>2026-05-03T11:02:25.51Z</time></trkpt><trkpt lat="42.265248" lon="14.0065239"><ele>102.0</ele><time>2026-05-03T11:02:26.5Z</time></trkpt><trkpt lat="42.2652854" lon="14.0066064"><ele>102.0</ele><time>2026-05-03T11:02:27.502Z</time></trkpt><trkpt lat="42.2653277" lon="14.0066969"><ele>102.0</ele><time>2026-05-03T11:02:28.513Z</time></trkpt><trkpt lat="42.265369" lon="14.0068073"><ele>102.0</ele><time>2026-05-03T11:02:29.501Z</time></trkpt><trkpt lat="42.2654175" lon="14.0069355"><ele>102.0</ele><time>2026-05-03T11:02:30.516Z</time></trkpt><trkpt lat="42.265478" lon="14.0070667"><ele>102.0</ele><time>2026-05-03T11:02:31.506Z</time></trkpt><trkpt lat="42.2655395" lon="14.0071939"><ele>102.0</ele><time>2026-05-03T11:02:32.505Z</time></trkpt><trkpt lat="42.2656008" lon="14.0073125"><ele>102.0</ele><time>2026-05-03T11:02:33.502Z</time></trkpt><trkpt lat="42.2656685" lon="14.0074414"><ele>102.0</ele><time>2026-05-03T11:02:34.506Z</time></trkpt><trkpt lat="42.2657459" lon="14.0075823"><ele>101.75</ele><time>2026-05-03T11:02:35.503Z</time></trkpt><trkpt lat="42.2658376" lon="14.0077162"><ele>101.5</ele><time>2026-05-03T11:02:36.509Z</time></trkpt><trkpt lat="42.2659374" lon="14.0078417"><ele>101.25</ele><time>2026-05-03T11:02:37.503Z</time></trkpt><trkpt lat="42.2660389" lon="14.0079611"><ele>101.0</ele><time>2026-05-03T11:02:38.512Z</time></trkpt><trkpt lat="42.2661401" lon="14.0080764"><ele>101.0</ele><time>2026-05-03T11:02:39.503Z</time></trkpt><trkpt lat="42.2662425" lon="14.0081828"><ele>101.0</ele><time>2026-05-03T11:02:40.507Z</time></trkpt><trkpt lat="42.2663403" lon="14.008292"><ele>101.0</ele><time>2026-05-03T11:02:41.502Z</time></trkpt><trkpt lat="42.2664287" lon="14.0084011"><ele>101.0</ele><time>2026-05-03T11:02:42.504Z</time></trkpt><trkpt lat="42.2665042" lon="14.008505"><ele>100.5</ele><time>2026-05-03T11:02:43.507Z</time></trkpt><trkpt lat="42.266574" lon="14.0086163"><ele>100.0</ele><time>2026-05-03T11:02:44.499Z</time></trkpt><trkpt lat="42.2666433" lon="14.0087337"><ele>99.5</ele><time>2026-05-03T11:02:45.516Z</time></trkpt><trkpt lat="42.26671" lon="14.0088641"><ele>99.0</ele><time>2026-05-03T11:02:46.502Z</time></trkpt><trkpt lat="42.2667703" lon="14.0090069"><ele>99.0</ele><time>2026-05-03T11:02:47.508Z</time></trkpt><trkpt lat="42.2668281" lon="14.0091392"><ele>99.0</ele><time>2026-05-03T11:02:48.504Z</time></trkpt><trkpt lat="42.2668851" lon="14.0092696"><ele>99.0</ele><time>2026-05-03T11:02:49.5Z</time></trkpt><trkpt lat="42.2669418" lon="14.0093916"><ele>99.0</ele><time>2026-05-03T11:02:50.512Z</time></trkpt><trkpt lat="42.2669935" lon="14.0095072"><ele>99.0</ele><time>2026-05-03T11:02:51.502Z</time></trkpt><trkpt lat="42.2670437" lon="14.0096279"><ele>99.2</ele><time>2026-05-03T11:02:52.514Z</time></trkpt><trkpt lat="42.2670936" lon="14.0097465"><ele>99.4</ele><time>2026-05-03T11:02:53.502Z</time></trkpt><trkpt lat="42.2671425" lon="14.009857"><ele>99.6</ele><time>2026-05-03T11:02:54.513Z</time></trkpt><trkpt lat="42.2671848" lon="14.0099478"><ele>99.8</ele><time>2026-05-03T11:02:55.506Z</time></trkpt><trkpt lat="42.2672203" lon="14.0100254"><ele>100.0</ele><time>2026-05-03T11:02:56.51Z</time></trkpt><trkpt lat="42.267255" lon="14.0101639"><ele>100.0</ele><time>2026-05-03T11:02:58.512Z</time></trkpt><trkpt lat="42.2672234" lon="14.0103283"><ele>100.0</ele><time>2026-05-03T11:03:00.507Z</time></trkpt><trkpt lat="42.2671964" lon="14.0104405"><ele>100.0</ele><time>2026-05-03T11:03:01.504Z</time></trkpt><trkpt lat="42.2671616" lon="14.0105454"><ele>100.0</ele><time>2026-05-03T11:03:02.51Z</time></trkpt><trkpt lat="42.267101" lon="14.0106222"><ele>100.0</ele><time>2026-05-03T11:03:03.508Z</time></trkpt><trkpt lat="42.2670386" lon="14.0106612"><ele>100.0</ele><time>2026-05-03T11:03:04.5Z</time></trkpt><trkpt lat="42.2669645" lon="14.0106891"><ele>100.0</ele><time>2026-05-03T11:03:06.502Z</time></trkpt><trkpt lat="42.266859" lon="14.0107727"><ele>100.0</ele><time>2026-05-03T11:03:08.495Z</time></trkpt><trkpt lat="42.2667755" lon="14.0108509"><ele>100.0</ele><time>2026-05-03T11:03:09.504Z</time></trkpt><trkpt lat="42.2666749" lon="14.0109365"><ele>100.0</ele><time>2026-05-03T11:03:10.501Z</time></trkpt><trkpt lat="42.2665679" lon="14.0110215"><ele>99.75</ele><time>2026-05-03T11:03:11.506Z</time></trkpt><trkpt lat="42.2664621" lon="14.0111072"><ele>99.5</ele><time>2026-05-03T11:03:12.502Z</time></trkpt><trkpt lat="42.2663671" lon="14.0111962"><ele>99.25</ele><time>2026-05-03T11:03:13.509Z</time></trkpt><trkpt lat="42.26627" lon="14.0112856"><ele>99.0</ele><time>2026-05-03T11:03:14.504Z</time></trkpt><trkpt lat="42.2661657" lon="14.0113692"><ele>99.25</ele><time>2026-05-03T11:03:15.508Z</time></trkpt><trkpt lat="42.2660628" lon="14.0114517"><ele>99.5</ele><time>2026-05-03T11:03:16.501Z</time></trkpt><trkpt lat="42.2659613" lon="14.0115342"><ele>99.75</ele><time>2026-05-03T11:03:17.516Z</time></trkpt><trkpt lat="42.2658583" lon="14.0116142"><ele>100.0</ele><time>2026-05-03T11:03:18.5Z</time></trkpt><trkpt lat="42.265751" lon="14.0116927"><ele>100.0</ele><time>2026-05-03T11:03:19.515Z</time></trkpt><trkpt lat="42.2656494" lon="14.0117624"><ele>100.0</ele><time>2026-05-03T11:03:20.499Z</time></trkpt><trkpt lat="42.2655538" lon="14.0118373"><ele>100.0</ele><time>2026-05-03T11:03:21.516Z</time></trkpt><trkpt lat="42.2654539" lon="14.0119177"><ele>100.0</ele><time>2026-05-03T11:03:22.505Z</time></trkpt><trkpt lat="42.2653425" lon="14.0120078"><ele>101.75</ele><time>2026-05-03T11:03:23.517Z</time></trkpt><trkpt lat="42.2652305" lon="14.0120993"><ele>103.5</ele><time>2026-05-03T11:03:24.507Z</time></trkpt><trkpt lat="42.2651288" lon="14.0121969"><ele>105.25</ele><time>2026-05-03T11:03:25.506Z</time></trkpt><trkpt lat="42.2650385" lon="14.0122886"><ele>107.0</ele><time>2026-05-03T11:03:26.507Z</time></trkpt><trkpt lat="42.2649595" lon="14.0123939"><ele>101.0</ele><time>2026-05-03T11:03:27.511Z</time></trkpt><trkpt lat="42.2648954" lon="14.0125296"><ele>95.0</ele><time>2026-05-03T11:03:28.507Z</time></trkpt><trkpt lat="42.2652563" lon="13.9832369"><ele>113.8</ele><time>2026-05-03T10:59:28.506Z</time></trkpt><trkpt lat="42.2652388" lon="13.9831035"><ele>132.6</ele><time>2026-05-03T10:59:29.499Z</time></trkpt><trkpt lat="42.2652319" lon="13.9829781"><ele>151.39999999999998</ele><time>2026-05-03T10:59:30.5Z</time></trkpt><trkpt lat="42.2652387" lon="13.9828553"><ele>170.2</ele><time>2026-05-03T10:59:31.495Z</time></trkpt><trkpt lat="42.2652571" lon="13.9827434"><ele>189.0</ele><time>2026-05-03T10:59:32.504Z</time></trkpt><trkpt lat="42.2652914" lon="13.9826377"><ele>189.0</ele><time>2026-05-03T10:59:33.495Z</time></trkpt><trkpt lat="42.2653309" lon="13.9825417"><ele>189.0</ele><time>2026-05-03T10:59:34.503Z</time></trkpt><trkpt lat="42.2653714" lon="13.9824451"><ele>189.0</ele><time>2026-05-03T10:59:35.495Z</time></trkpt><trkpt lat="42.2654105" lon="13.9823475"><ele>189.0</ele><time>2026-05-03T10:59:36.497Z</time></trkpt><trkpt lat="42.2654465" lon="13.9822511"><ele>189.0</ele><time>2026-05-03T10:59:37.494Z</time></trkpt><trkpt lat="42.2654849" lon="13.9821724"><ele>189.0</ele><time>2026-05-03T10:59:38.502Z</time></trkpt><trkpt lat="42.2655768" lon="13.982099"><ele>186.16666666666666</ele><time>2026-05-03T10:59:40.511Z</time></trkpt><trkpt lat="42.2656883" lon="13.9821558"><ele>183.33333333333334</ele><time>2026-05-03T10:59:42.504Z</time></trkpt><trkpt lat="42.2657455" lon="13.982221"><ele>180.5</ele><time>2026-05-03T10:59:43.502Z</time></trkpt><trkpt lat="42.2657996" lon="13.9822966"><ele>177.66666666666669</ele><time>2026-05-03T10:59:44.509Z</time></trkpt><trkpt lat="42.265843" lon="13.9823811"><ele>174.83333333333334</ele><time>2026-05-03T10:59:45.503Z</time></trkpt><trkpt lat="42.2658936" lon="13.9824702"><ele>172.0</ele><time>2026-05-03T10:59:46.511Z</time></trkpt><trkpt lat="42.2659556" lon="13.9825649"><ele>172.0</ele><time>2026-05-03T10:59:47.502Z</time></trkpt><trkpt lat="42.2660311" lon="13.9826766"><ele>172.0</ele><time>2026-05-03T10:59:48.511Z</time></trkpt><trkpt lat="42.2661206" lon="13.9827858"><ele>172.0</ele><time>2026-05-03T10:59:49.505Z</time></trkpt><trkpt lat="42.2662204" lon="13.9828695"><ele>172.0</ele><time>2026-05-03T10:59:50.509Z</time></trkpt><trkpt lat="42.2663197" lon="13.9829166"><ele>172.0</ele><time>2026-05-03T10:59:51.508Z</time></trkpt><trkpt lat="42.2664205" lon="13.9829257"><ele>172.0</ele><time>2026-05-03T10:59:52.501Z</time></trkpt><trkpt lat="42.2665216" lon="13.9829238"><ele>172.0</ele><time>2026-05-03T10:59:53.5Z</time></trkpt><trkpt lat="42.2666198" lon="13.9829173"><ele>172.0</ele><time>2026-05-03T10:59:54.509Z</time></trkpt><trkpt lat="42.2667118" lon="13.9829144"><ele>172.0</ele><time>2026-05-03T10:59:55.51Z</time></trkpt><trkpt lat="42.2667935" lon="13.9829302"><ele>170.39999999999998</ele><time>2026-05-03T10:59:56.485Z</time></trkpt><trkpt lat="42.2668589" lon="13.9829622"><ele>168.79999999999998</ele><time>2026-05-03T10:59:57.482Z</time></trkpt><trkpt lat="42.2669285" lon="13.9830632"><ele>167.2</ele><time>2026-05-03T10:59:59.499Z</time></trkpt><trkpt lat="42.2669546" lon="13.9831584"><ele>165.6</ele><time>2026-05-03T11:00:00.505Z</time></trkpt><trkpt lat="42.2669607" lon="13.9832954"><ele>164.0</ele><time>2026-05-03T11:00:01.506Z</time></trkpt><trkpt lat="42.2669535" lon="13.9834593"><ele>164.0</ele><time>2026-05-03T11:00:02.489Z</time></trkpt><trkpt lat="42.2669467" lon="13.9836498"><ele>164.0</ele><time>2026-05-03T11:00:03.498Z</time></trkpt><trkpt lat="42.2669504" lon="13.9838483"><ele>164.0</ele><time>2026-05-03T11:00:04.499Z</time></trkpt><trkpt lat="42.2669447" lon="13.9840742"><ele>162.33333333333331</ele><time>2026-05-03T11:00:05.499Z</time></trkpt><trkpt lat="42.2669541" lon="13.9842931"><ele>160.66666666666666</ele><time>2026-05-03T11:00:06.509Z</time></trkpt><trkpt lat="42.2669838" lon="13.9845149"><ele>159.0</ele><time>2026-05-03T11:00:07.501Z</time></trkpt><trkpt lat="42.2670167" lon="13.9847211"><ele>159.0</ele><time>2026-05-03T11:00:08.504Z</time></trkpt><trkpt lat="42.2670407" lon="13.9849159"><ele>159.0</ele><time>2026-05-03T11:00:09.496Z</time></trkpt><trkpt lat="42.2670659" lon="13.9851048"><ele>159.0</ele><time>2026-05-03T11:00:10.503Z</time></trkpt><trkpt lat="42.2670854" lon="13.9852718"><ele>159.0</ele><time>2026-05-03T11:00:11.504Z</time></trkpt><trkpt lat="42.2670854" lon="13.9854768"><ele>157.5</ele><time>2026-05-03T11:00:12.5Z</time></trkpt><trkpt lat="42.2670749" lon="13.9856667"><ele>156.0</ele><time>2026-05-03T11:00:13.497Z</time></trkpt><trkpt lat="42.26706" lon="13.9858575"><ele>154.5</ele><time>2026-05-03T11:00:14.5Z</time></trkpt><trkpt lat="42.2670425" lon="13.9860486"><ele>153.0</ele><time>2026-05-03T11:00:15.495Z</time></trkpt><trkpt lat="42.2670004" lon="13.9862517"><ele>151.33333333333334</ele><time>2026-05-03T11:00:16.501Z</time></trkpt><trkpt lat="42.2669449" lon="13.9864636"><ele>149.66666666666669</ele><time>2026-05-03T11:00:17.496Z</time></trkpt><trkpt lat="42.2668958" lon="13.9866718"><ele>148.0</ele><time>2026-05-03T11:00:18.5Z</time></trkpt><trkpt lat="42.26686" lon="13.9868794"><ele>146.5</ele><time>2026-05-03T11:00:19.504Z</time></trkpt><trkpt lat="42.2668159" lon="13.9870916"><ele>145.0</ele><time>2026-05-03T11:00:20.506Z</time></trkpt><trkpt lat="42.266788" lon="13.9872925"><ele>143.5</ele><time>2026-05-03T11:00:21.493Z</time></trkpt><trkpt lat="42.2667668" lon="13.987466"><ele>142.0</ele><time>2026-05-03T11:00:22.507Z</time></trkpt><trkpt lat="42.2667456" lon="13.9876398"><ele>140.75</ele><time>2026-05-03T11:00:23.498Z</time></trkpt><trkpt lat="42.2667076" lon="13.987805"><ele>139.5</ele><time>2026-05-03T11:00:24.509Z</time></trkpt><trkpt lat="42.26666" lon="13.9879616"><ele>138.25</ele><time>2026-05-03T11:00:25.503Z</time></trkpt><trkpt lat="42.2666168" lon="13.9881281"><ele>137.0</ele><time>2026-05-03T11:00:26.505Z</time></trkpt><trkpt lat="42.2665716" lon="13.9883032"><ele>135.33333333333331</ele><time>2026-05-03T11:00:27.498Z</time></trkpt><trkpt lat="42.2665436" lon="13.988514"><ele>133.66666666666666</ele><time>2026-05-03T11:00:28.501Z</time></trkpt><trkpt lat="42.2665341" lon="13.9887252"><ele>132.0</ele><time>2026-05-03T11:00:29.5Z</time></trkpt><trkpt lat="42.2665366" lon="13.9889596"><ele>132.0</ele><time>2026-05-03T11:00:30.503Z</time></trkpt><trkpt lat="42.266571" lon="13.9891909"><ele>132.0</ele><time>2026-05-03T11:00:31.502Z</time></trkpt><trkpt lat="42.2666103" lon="13.9894211"><ele>132.0</ele><time>2026-05-03T11:00:32.498Z</time></trkpt><trkpt lat="42.2666538" lon="13.9896562"><ele>132.0</ele><time>2026-05-03T11:00:33.498Z</time></trkpt><trkpt lat="42.2666971" lon="13.9898821"><ele>132.0</ele><time>2026-05-03T11:00:34.507Z</time></trkpt><trkpt lat="42.266739" lon="13.9900874"><ele>132.0</ele><time>2026-05-03T11:00:35.497Z</time></trkpt><trkpt lat="42.266789" lon="13.9903172"><ele>131.66666666666666</ele><time>2026-05-03T11:00:36.501Z</time></trkpt><trkpt lat="42.2668245" lon="13.9905231"><ele>131.33333333333331</ele><time>2026-05-03T11:00:37.498Z</time></trkpt><trkpt lat="42.2668424" lon="13.9907374"><ele>131.0</ele><time>2026-05-03T11:00:38.496Z</time></trkpt><trkpt lat="42.2668468" lon="13.9909442"><ele>129.0</ele><time>2026-05-03T11:00:39.508Z</time></trkpt><trkpt lat="42.2668248" lon="13.9911472"><ele>127.0</ele><time>2026-05-03T11:00:40.502Z</time></trkpt><trkpt lat="42.2667977" lon="13.991376"><ele>125.0</ele><time>2026-05-03T11:00:41.503Z</time></trkpt><trkpt lat="42.2667444" lon="13.9915874"><ele>123.33333333333333</ele><time>2026-05-03T11:00:42.498Z</time></trkpt><trkpt lat="42.266699" lon="13.9917964"><ele>121.66666666666666</ele><time>2026-05-03T11:00:43.502Z</time></trkpt><trkpt lat="42.2666502" lon="13.9920315"><ele>120.0</ele><time>2026-05-03T11:00:44.498Z</time></trkpt><trkpt lat="42.2666095" lon="13.9922448"><ele>120.0</ele><time>2026-05-03T11:00:45.493Z</time></trkpt><trkpt lat="42.2665718" lon="13.9924194"><ele>120.0</ele><time>2026-05-03T11:00:46.498Z</time></trkpt><trkpt lat="42.2665487" lon="13.9926038"><ele>120.0</ele><time>2026-05-03T11:00:47.505Z</time></trkpt><trkpt lat="42.2665334" lon="13.9927689"><ele>120.0</ele><time>2026-05-03T11:00:48.497Z</time></trkpt><trkpt lat="42.2665007" lon="13.9929308"><ele>119.5</ele><time>2026-05-03T11:00:49.509Z</time></trkpt><trkpt lat="42.2664557" lon="13.9931122"><ele>119.0</ele><time>2026-05-03T11:00:50.497Z</time></trkpt><trkpt lat="42.2664245" lon="13.9932956"><ele>118.5</ele><time>2026-05-03T11:00:51.508Z</time></trkpt><trkpt lat="42.2663947" lon="13.993477"><ele>118.0</ele><time>2026-05-03T11:00:52.502Z</time></trkpt><trkpt lat="42.2663584" lon="13.9936432"><ele>119.5</ele><time>2026-05-03T11:00:53.505Z</time></trkpt><trkpt lat="42.2663188" lon="13.9938238"><ele>121.0</ele><time>2026-05-03T11:00:54.506Z</time></trkpt><trkpt lat="42.266279" lon="13.9940114"><ele>122.5</ele><time>2026-05-03T11:00:55.505Z</time></trkpt><trkpt lat="42.2662521" lon="13.9941899"><ele>124.0</ele><time>2026-05-03T11:00:56.503Z</time></trkpt><trkpt lat="42.2662168" lon="13.994347"><ele>124.0</ele><time>2026-05-03T11:00:57.508Z</time></trkpt><trkpt lat="42.2661972" lon="13.994488"><ele>124.0</ele><time>2026-05-03T11:00:58.501Z</time></trkpt><trkpt lat="42.2661862" lon="13.9946467"><ele>124.0</ele><time>2026-05-03T11:00:59.505Z</time></trkpt><trkpt lat="42.2661722" lon="13.9947856"><ele>124.0</ele><time>2026-05-03T11:01:00.501Z</time></trkpt><trkpt lat="42.2661204" lon="13.9949109"><ele>124.0</ele><time>2026-05-03T11:01:01.507Z</time></trkpt><trkpt lat="42.2660659" lon="13.9950115"><ele>123.6</ele><time>2026-05-03T11:01:02.497Z</time></trkpt><trkpt lat="42.2659922" lon="13.9951118"><ele>123.2</ele><time>2026-05-03T11:01:03.506Z</time></trkpt><trkpt lat="42.2659541" lon="13.995213"><ele>122.79999999999998</ele><time>2026-05-03T11:01:04.497Z</time></trkpt><trkpt lat="42.2659522" lon="13.995337"><ele>122.39999999999999</ele><time>2026-05-03T11:01:05.498Z</time></trkpt><trkpt lat="42.2659738" lon="13.9954794"><ele>122.0</ele><time>2026-05-03T11:01:06.497Z</time></trkpt><trkpt lat="42.2659966" lon="13.9956424"><ele>122.0</ele><time>2026-05-03T11:01:07.505Z</time></trkpt><trkpt lat="42.2659893" lon="13.9958151"><ele>122.0</ele><time>2026-05-03T11:01:08.491Z</time></trkpt><trkpt lat="42.265966" lon="13.995985"><ele>122.0</ele><time>2026-05-03T11:01:09.509Z</time></trkpt><trkpt lat="42.2659394" lon="13.9961666"><ele>122.0</ele><time>2026-05-03T11:01:10.495Z</time></trkpt><trkpt lat="42.2659068" lon="13.99636"><ele>121.33333333333333</ele><time>2026-05-03T11:01:11.513Z</time></trkpt><trkpt lat="42.2658614" lon="13.996571"><ele>120.66666666666666</ele><time>2026-05-03T11:01:12.504Z</time></trkpt><trkpt lat="42.2658257" lon="13.9967811"><ele>120.0</ele><time>2026-05-03T11:01:13.508Z</time></trkpt><trkpt lat="42.2658032" lon="13.9969901"><ele>120.0</ele><time>2026-05-03T11:01:14.492Z</time></trkpt><trkpt lat="42.2657684" lon="13.997205"><ele>120.0</ele><time>2026-05-03T11:01:15.497Z</time></trkpt><trkpt lat="42.2657298" lon="13.9973995"><ele>120.0</ele><time>2026-05-03T11:01:16.49Z</time></trkpt><trkpt lat="42.2656955" lon="13.9975904"><ele>119.5</ele><time>2026-05-03T11:01:17.505Z</time></trkpt><trkpt lat="42.2656519" lon="13.9977903"><ele>119.0</ele><time>2026-05-03T11:01:18.501Z</time></trkpt><trkpt lat="42.2656079" lon="13.9979792"><ele>118.5</ele><time>2026-05-03T11:01:19.518Z</time></trkpt><trkpt lat="42.2655552" lon="13.9981639"><ele>118.0</ele><time>2026-05-03T11:01:20.497Z</time></trkpt><trkpt lat="42.26547" lon="13.9983427"><ele>117.66666666666667</ele><time>2026-05-03T11:01:21.511Z</time></trkpt><trkpt lat="42.265377" lon="13.9985044"><ele>117.33333333333334</ele><time>2026-05-03T11:01:22.498Z</time></trkpt><trkpt lat="42.2652708" lon="13.9986494"><ele>117.0</ele><time>2026-05-03T11:01:23.504Z</time></trkpt><trkpt lat="42.2651396" lon="13.9987724"><ele>117.0</ele><time>2026-05-03T11:01:24.509Z</time></trkpt><trkpt lat="42.265024" lon="13.9989098"><ele>117.0</ele><time>2026-05-03T11:01:25.499Z</time></trkpt><trkpt lat="42.2648865" lon="13.9990299"><ele>117.0</ele><time>2026-05-03T11:01:26.501Z</time></trkpt><trkpt lat="42.2647534" lon="13.9991481"><ele>117.33333333333334</ele><time>2026-05-03T11:01:27.504Z</time></trkpt><trkpt lat="42.2646144" lon="13.999278"><ele>117.66666666666667</ele><time>2026-05-03T11:01:28.503Z</time></trkpt><trkpt lat="42.2644787" lon="13.999413"><ele>118.0</ele><time>2026-05-03T11:01:29.517Z</time></trkpt><trkpt lat="42.2643267" lon="13.9995296"><ele>118.0</ele><time>2026-05-03T11:01:30.506Z</time></trkpt><trkpt lat="42.2641905" lon="13.9996692"><ele>118.0</ele><time>2026-05-03T11:01:31.511Z</time></trkpt><trkpt lat="42.2640609" lon="13.9998168"><ele>118.0</ele><time>2026-05-03T11:01:32.504Z</time></trkpt><trkpt lat="42.26394" lon="13.9999632"><ele>119.66666666666667</ele><time>2026-05-03T11:01:33.511Z</time></trkpt><trkpt lat="42.2638122" lon="14.0000874"><ele>121.33333333333334</ele><time>2026-05-03T11:01:34.493Z</time></trkpt><trkpt lat="42.2636597" lon="14.0002118"><ele>123.0</ele><time>2026-05-03T11:01:35.506Z</time></trkpt><trkpt lat="42.263529" lon="14.0003561"><ele>123.0</ele><time>2026-05-03T11:01:36.497Z</time></trkpt><trkpt lat="42.2634243" lon="14.0005252"><ele>123.0</ele><time>2026-05-03T11:01:37.501Z</time></trkpt><trkpt lat="42.2633223" lon="14.0006884"><ele>123.0</ele><time>2026-05-03T11:01:38.494Z</time></trkpt><trkpt lat="42.2632293" lon="14.0008831"><ele>120.66666666666666</ele><time>2026-05-03T11:01:39.499Z</time></trkpt><trkpt lat="42.2631773" lon="14.0010924"><ele>118.33333333333333</ele><time>2026-05-03T11:01:40.496Z</time></trkpt><trkpt lat="42.2631382" lon="14.0013171"><ele>116.0</ele><time>2026-05-03T11:01:41.492Z</time></trkpt><trkpt lat="42.2631336" lon="14.0015459"><ele>114.33333333333333</ele><time>2026-05-03T11:01:42.493Z</time></trkpt><trkpt lat="42.2631486" lon="14.0017736"><ele>112.66666666666666</ele><time>2026-05-03T11:01:43.495Z</time></trkpt><trkpt lat="42.2632076" lon="14.0020073"><ele>111.0</ele><time>2026-05-03T11:01:44.492Z</time></trkpt><trkpt lat="42.2633037" lon="14.0022269"><ele>111.0</ele><time>2026-05-03T11:01:45.496Z</time></trkpt><trkpt lat="42.2634061" lon="14.0024147"><ele>111.0</ele><time>2026-05-03T11:01:46.487Z</time></trkpt><trkpt lat="42.2635016" lon="14.0025738"><ele>111.0</ele><time>2026-05-03T11:01:47.494Z</time></trkpt><trkpt lat="42.2635789" lon="14.0027328"><ele>110.5</ele><time>2026-05-03T11:01:48.49Z</time></trkpt><trkpt lat="42.2636568" lon="14.0028677"><ele>110.0</ele><time>2026-05-03T11:01:49.506Z</time></trkpt><trkpt lat="42.2637246" lon="14.0030102"><ele>109.5</ele><time>2026-05-03T11:01:50.495Z</time></trkpt><trkpt lat="42.2637878" lon="14.0031389"><ele>109.0</ele><time>2026-05-03T11:01:51.51Z</time></trkpt><trkpt lat="42.2638537" lon="14.0032691"><ele>109.00000000000001</ele><time>2026-05-03T11:01:52.505Z</time></trkpt><trkpt lat="42.263909" lon="14.0033893"><ele>109.0</ele><time>2026-05-03T11:01:53.504Z</time></trkpt><trkpt lat="42.2639375" lon="14.0035017"><ele>109.0</ele><time>2026-05-03T11:01:54.5Z</time></trkpt><trkpt lat="42.263953" lon="14.0035945"><ele>109.0</ele><time>2026-05-03T11:01:55.509Z</time></trkpt><trkpt lat="42.2639582" lon="14.0036793"><ele>109.00000000000001</ele><time>2026-05-03T11:01:56.499Z</time></trkpt><trkpt lat="42.2639526" lon="14.0037733"><ele>109.0</ele><time>2026-05-03T11:01:57.499Z</time></trkpt><trkpt lat="42.2639405" lon="14.0038666"><ele>109.00000000000001</ele><time>2026-05-03T11:01:58.505Z</time></trkpt><trkpt lat="42.2639323" lon="14.0039541"><ele>109.0</ele><time>2026-05-03T11:01:59.505Z</time></trkpt><trkpt lat="42.2639781" lon="14.0041011"><ele>109.0</ele><time>2026-05-03T11:02:01.5Z</time></trkpt><trkpt lat="42.2640345" lon="14.0041579"><ele>109.0</ele><time>2026-05-03T11:02:02.498Z</time></trkpt><trkpt lat="42.2641116" lon="14.0042098"><ele>109.00000000000001</ele><time>2026-05-03T11:02:03.492Z</time></trkpt><trkpt lat="42.2642005" lon="14.004268"><ele>109.0</ele><time>2026-05-03T11:02:04.506Z</time></trkpt><trkpt lat="42.2642736" lon="14.0043571"><ele>109.16666666666667</ele><time>2026-05-03T11:02:05.489Z</time></trkpt><trkpt lat="42.2643285" lon="14.0044485"><ele>109.33333333333334</ele><time>2026-05-03T11:02:06.497Z</time></trkpt><trkpt lat="42.2643736" lon="14.0045347"><ele>109.5</ele><time>2026-05-03T11:02:07.502Z</time></trkpt><trkpt lat="42.2644134" lon="14.0046125"><ele>109.66666666666666</ele><time>2026-05-03T11:02:08.508Z</time></trkpt><trkpt lat="42.2644599" lon="14.0046995"><ele>109.83333333333333</ele><time>2026-05-03T11:02:09.498Z</time></trkpt><trkpt lat="42.2645029" lon="14.0047939"><ele>110.0</ele><time>2026-05-03T11:02:10.496Z</time></trkpt><trkpt lat="42.2645414" lon="14.0048792"><ele>110.0</ele><time>2026-05-03T11:02:11.504Z</time></trkpt><trkpt lat="42.2645838" lon="14.0049666"><ele>110.0</ele><time>2026-05-03T11:02:12.492Z</time></trkpt><trkpt lat="42.2646349" lon="14.00507"><ele>110.0</ele><time>2026-05-03T11:02:13.506Z</time></trkpt><trkpt lat="42.2646915" lon="14.0051942"><ele>110.0</ele><time>2026-05-03T11:02:14.498Z</time></trkpt><trkpt lat="42.2647395" lon="14.0053272"><ele>110.0</ele><time>2026-05-03T11:02:15.509Z</time></trkpt><trkpt lat="42.2647856" lon="14.0054505"><ele>109.0</ele><time>2026-05-03T11:02:16.5Z</time></trkpt><trkpt lat="42.2648342" lon="14.0055716"><ele>108.0</ele><time>2026-05-03T11:02:17.51Z</time></trkpt><trkpt lat="42.2648801" lon="14.0056763"><ele>107.0</ele><time>2026-05-03T11:02:18.502Z</time></trkpt><trkpt lat="42.2649256" lon="14.0057797"><ele>106.0</ele><time>2026-05-03T11:02:19.503Z</time></trkpt><trkpt lat="42.2649737" lon="14.005889"><ele>105.0</ele><time>2026-05-03T11:02:20.497Z</time></trkpt><trkpt lat="42.265021" lon="14.0059985"><ele>104.4</ele><time>2026-05-03T11:02:21.51Z</time></trkpt><trkpt lat="42.265072" lon="14.0061093"><ele>103.8</ele><time>2026-05-03T11:02:22.499Z</time></trkpt><trkpt lat="42.2651189" lon="14.0062258"><ele>103.19999999999999</ele><time>2026-05-03T11:02:23.508Z</time></trkpt><trkpt lat="42.2651688" lon="14.0063387"><ele>102.6</ele><time>2026-05-03T11:02:24.504Z</time></trkpt><trkpt lat="42.2652108" lon="14.0064407"><ele>102.0</ele><time>2026-05-03T11:02:25.51Z</time></trkpt><trkpt lat="42.265248" lon="14.0065239"><ele>102.0</ele><time>2026-05-03T11:02:26.5Z</time></trkpt><trkpt lat="42.2652854" lon="14.0066064"><ele>102.0</ele><time>2026-05-03T11:02:27.502Z</time></trkpt><trkpt lat="42.2653277" lon="14.0066969"><ele>102.0</ele><time>2026-05-03T11:02:28.513Z</time></trkpt><trkpt lat="42.265369" lon="14.0068073"><ele>102.0</ele><time>2026-05-03T11:02:29.501Z</time></trkpt><trkpt lat="42.2654175" lon="14.0069355"><ele>102.0</ele><time>2026-05-03T11:02:30.516Z</time></trkpt><trkpt lat="42.265478" lon="14.0070667"><ele>102.0</ele><time>2026-05-03T11:02:31.506Z</time></trkpt><trkpt lat="42.2655395" lon="14.0071939"><ele>102.0</ele><time>2026-05-03T11:02:32.505Z</time></trkpt><trkpt lat="42.2656008" lon="14.0073125"><ele>102.0</ele><time>2026-05-03T11:02:33.502Z</time></trkpt><trkpt lat="42.2656685" lon="14.0074414"><ele>102.0</ele><time>2026-05-03T11:02:34.506Z</time></trkpt><trkpt lat="42.2657459" lon="14.0075823"><ele>101.75</ele><time>2026-05-03T11:02:35.503Z</time></trkpt><trkpt lat="42.2658376" lon="14.0077162"><ele>101.5</ele><time>2026-05-03T11:02:36.509Z</time></trkpt><trkpt lat="42.2659374" lon="14.0078417"><ele>101.25</ele><time>2026-05-03T11:02:37.503Z</time></trkpt><trkpt lat="42.2660389" lon="14.0079611"><ele>101.0</ele><time>2026-05-03T11:02:38.512Z</time></trkpt><trkpt lat="42.2661401" lon="14.0080764"><ele>101.0</ele><time>2026-05-03T11:02:39.503Z</time></trkpt><trkpt lat="42.2662425" lon="14.0081828"><ele>101.0</ele><time>2026-05-03T11:02:40.507Z</time></trkpt><trkpt lat="42.2663403" lon="14.008292"><ele>101.0</ele><time>2026-05-03T11:02:41.502Z</time></trkpt><trkpt lat="42.2664287" lon="14.0084011"><ele>101.0</ele><time>2026-05-03T11:02:42.504Z</time></trkpt><trkpt lat="42.2665042" lon="14.008505"><ele>100.5</ele><time>2026-05-03T11:02:43.507Z</time></trkpt><trkpt lat="42.266574" lon="14.0086163"><ele>100.0</ele><time>2026-05-03T11:02:44.499Z</time></trkpt><trkpt lat="42.2666433" lon="14.0087337"><ele>99.5</ele><time>2026-05-03T11:02:45.516Z</time></trkpt><trkpt lat="42.26671" lon="14.0088641"><ele>99.0</ele><time>2026-05-03T11:02:46.502Z</time></trkpt><trkpt lat="42.2667703" lon="14.0090069"><ele>99.0</ele><time>2026-05-03T11:02:47.508Z</time></trkpt><trkpt lat="42.2668281" lon="14.0091392"><ele>99.0</ele><time>2026-05-03T11:02:48.504Z</time></trkpt><trkpt lat="42.2668851" lon="14.0092696"><ele>99.0</ele><time>2026-05-03T11:02:49.5Z</time></trkpt><trkpt lat="42.2669418" lon="14.0093916"><ele>99.0</ele><time>2026-05-03T11:02:50.512Z</time></trkpt><trkpt lat="42.2669935" lon="14.0095072"><ele>99.0</ele><time>2026-05-03T11:02:51.502Z</time></trkpt><trkpt lat="42.2670437" lon="14.0096279"><ele>99.2</ele><time>2026-05-03T11:02:52.514Z</time></trkpt><trkpt lat="42.2670936" lon="14.0097465"><ele>99.4</ele><time>2026-05-03T11:02:53.502Z</time></trkpt><trkpt lat="42.2671425" lon="14.009857"><ele>99.6</ele><time>2026-05-03T11:02:54.513Z</time></trkpt><trkpt lat="42.2671848" lon="14.0099478"><ele>99.8</ele><time>2026-05-03T11:02:55.506Z</time></trkpt><trkpt lat="42.2672203" lon="14.0100254"><ele>100.0</ele><time>2026-05-03T11:02:56.51Z</time></trkpt><trkpt lat="42.267255" lon="14.0101639"><ele>100.0</ele><time>2026-05-03T11:02:58.512Z</time></trkpt><trkpt lat="42.2672234" lon="14.0103283"><ele>100.0</ele><time>2026-05-03T11:03:00.507Z</time></trkpt><trkpt lat="42.2671964" lon="14.0104405"><ele>100.0</ele><time>2026-05-03T11:03:01.504Z</time></trkpt><trkpt lat="42.2671616" lon="14.0105454"><ele>100.0</ele><time>2026-05-03T11:03:02.51Z</time></trkpt><trkpt lat="42.267101" lon="14.0106222"><ele>100.0</ele><time>2026-05-03T11:03:03.508Z</time></trkpt><trkpt lat="42.2670386" lon="14.0106612"><ele>100.0</ele><time>2026-05-03T11:03:04.5Z</time></trkpt><trkpt lat="42.2669645" lon="14.0106891"><ele>100.0</ele><time>2026-05-03T11:03:06.502Z</time></trkpt><trkpt lat="42.266859" lon="14.0107727"><ele>100.0</ele><time>2026-05-03T11:03:08.495Z</time></trkpt><trkpt lat="42.2667755" lon="14.0108509"><ele>100.0</ele><time>2026-05-03T11:03:09.504Z</time></trkpt><trkpt lat="42.2666749" lon="14.0109365"><ele>100.0</ele><time>2026-05-03T11:03:10.501Z</time></trkpt><trkpt lat="42.2665679" lon="14.0110215"><ele>99.75</ele><time>2026-05-03T11:03:11.506Z</time></trkpt><trkpt lat="42.2664621" lon="14.0111072"><ele>99.5</ele><time>2026-05-03T11:03:12.502Z</time></trkpt><trkpt lat="42.2663671" lon="14.0111962"><ele>99.25</ele><time>2026-05-03T11:03:13.509Z</time></trkpt><trkpt lat="42.26627" lon="14.0112856"><ele>99.0</ele><time>2026-05-03T11:03:14.504Z</time></trkpt><trkpt lat="42.2661657" lon="14.0113692"><ele>99.25</ele><time>2026-05-03T11:03:15.508Z</time></trkpt><trkpt lat="42.2660628" lon="14.0114517"><ele>99.5</ele><time>2026-05-03T11:03:16.501Z</time></trkpt><trkpt lat="42.2659613" lon="14.0115342"><ele>99.75</ele><time>2026-05-03T11:03:17.516Z</time></trkpt><trkpt lat="42.2658583" lon="14.0116142"><ele>100.0</ele><time>2026-05-03T11:03:18.5Z</time></trkpt><trkpt lat="42.265751" lon="14.0116927"><ele>100.0</ele><time>2026-05-03T11:03:19.515Z</time></trkpt><trkpt lat="42.2656494" lon="14.0117624"><ele>100.0</ele><time>2026-05-03T11:03:20.499Z</time></trkpt><trkpt lat="42.2655538" lon="14.0118373"><ele>100.0</ele><time>2026-05-03T11:03:21.516Z</time></trkpt><trkpt lat="42.2654539" lon="14.0119177"><ele>100.0</ele><time>2026-05-03T11:03:22.505Z</time></trkpt><trkpt lat="42.2653425" lon="14.0120078"><ele>101.75</ele><time>2026-05-03T11:03:23.517Z</time></trkpt><trkpt lat="42.2652305" lon="14.0120993"><ele>103.5</ele><time>2026-05-03T11:03:24.507Z</time></trkpt><trkpt lat="42.2651288" lon="14.0121969"><ele>105.25</ele><time>2026-05-03T11:03:25.506Z</time></trkpt><trkpt lat="42.2650385" lon="14.0122886"><ele>107.0</ele><time>2026-05-03T11:03:26.507Z</time></trkpt><trkpt lat="42.2649595" lon="14.0123939"><ele>104.0</ele><time>2026-05-03T11:03:27.511Z</time></trkpt><trkpt lat="42.2648954" lon="14.0125296"><ele>101.0</ele><time>2026-05-03T11:03:28.507Z</time></trkpt><trkpt lat="42.2648566" lon="14.0126926"><ele>98.0</ele><time>2026-05-03T11:03:29.498Z</time></trkpt><trkpt lat="42.2648341" lon="14.0128728"><ele>95.0</ele><time>2026-05-03T11:03:30.509Z</time></trkpt><trkpt lat="42.2648446" lon="14.0130542"><ele>95.0</ele><time>2026-05-03T11:03:31.501Z</time></trkpt><trkpt lat="42.2648823" lon="14.0132232"><ele>95.0</ele><time>2026-05-03T11:03:32.494Z</time></trkpt><trkpt lat="42.26495" lon="14.0133896"><ele>95.0</ele><time>2026-05-03T11:03:33.492Z</time></trkpt><trkpt lat="42.2650411" lon="14.0135537"><ele>95.0</ele><time>2026-05-03T11:03:34.5Z</time></trkpt><trkpt lat="42.2651756" lon="14.0137308"><ele>94.0</ele><time>2026-05-03T11:03:35.498Z</time></trkpt><trkpt lat="42.2652936" lon="14.0138735"><ele>93.0</ele><time>2026-05-03T11:03:36.497Z</time></trkpt><trkpt lat="42.2653739" lon="14.0140091"><ele>92.0</ele><time>2026-05-03T11:03:37.502Z</time></trkpt><trkpt lat="42.2654393" lon="14.0141399"><ele>91.0</ele><time>2026-05-03T11:03:38.499Z</time></trkpt><trkpt lat="42.2655065" lon="14.0142604"><ele>91.0</ele><time>2026-05-03T11:03:39.501Z</time></trkpt><trkpt lat="42.2655802" lon="14.0143916"><ele>91.0</ele><time>2026-05-03T11:03:40.497Z</time></trkpt><trkpt lat="42.2656523" lon="14.0145143"><ele>91.0</ele><time>2026-05-03T11:03:41.501Z</time></trkpt><trkpt lat="42.265722" lon="14.0146285"><ele>91.0</ele><time>2026-05-03T11:03:42.499Z</time></trkpt><trkpt lat="42.2657881" lon="14.0147309"><ele>91.0</ele><time>2026-05-03T11:03:43.502Z</time></trkpt><trkpt lat="42.2658504" lon="14.0148293"><ele>90.66666666666666</ele><time>2026-05-03T11:03:44.496Z</time></trkpt><trkpt lat="42.2659009" lon="14.0149191"><ele>90.33333333333333</ele><time>2026-05-03T11:03:45.499Z</time></trkpt><trkpt lat="42.2659501" lon="14.015009"><ele>90.0</ele><time>2026-05-03T11:03:46.503Z</time></trkpt><trkpt lat="42.2660004" lon="14.0150983"><ele>89.66666666666667</ele><time>2026-05-03T11:03:47.495Z</time></trkpt><trkpt lat="42.2660485" lon="14.0151747"><ele>89.33333333333334</ele><time>2026-05-03T11:03:48.505Z</time></trkpt><trkpt lat="42.2660875" lon="14.0152426"><ele>89.0</ele><time>2026-05-03T11:03:49.501Z</time></trkpt><trkpt lat="42.2661438" lon="14.0153349"><ele>89.0</ele><time>2026-05-03T11:03:51.5Z</time></trkpt><trkpt lat="42.2662363" lon="14.0153152"><ele>89.0</ele><time>2026-05-03T11:03:57.503Z</time></trkpt><trkpt lat="42.2663382" lon="14.0152188"><ele>89.0</ele><time>2026-05-03T11:03:59.505Z</time></trkpt><trkpt lat="42.2663987" lon="14.0151655"><ele>89.0</ele><time>2026-05-03T11:04:00.535Z</time></trkpt><trkpt lat="42.2664517" lon="14.0151188"><ele>89.0</ele><time>2026-05-03T11:04:01.506Z</time></trkpt><trkpt lat="42.2665278" lon="14.0150352"><ele>88.83333333333334</ele><time>2026-05-03T11:04:03.508Z</time></trkpt><trkpt lat="42.2665824" lon="14.0149533"><ele>88.66666666666667</ele><time>2026-05-03T11:04:05.5Z</time></trkpt><trkpt lat="42.2666268" lon="14.0148801"><ele>88.5</ele><time>2026-05-03T11:04:07.496Z</time></trkpt><trkpt lat="42.2667119" lon="14.0147861"><ele>88.33333333333333</ele><time>2026-05-03T11:04:09.5Z</time></trkpt><trkpt lat="42.2668034" lon="14.014712"><ele>88.16666666666666</ele><time>2026-05-03T11:04:11.501Z</time></trkpt><trkpt lat="42.2667409" lon="14.0146836"><ele>88.0</ele><time>2026-05-03T11:04:17.496Z</time></trkpt><trkpt lat="42.2666992" lon="14.0147893"><ele>88.0</ele><time>2026-05-03T11:19:04.505Z</time></trkpt><trkpt lat="42.2666205" lon="14.0148751"><ele>88.0</ele><time>2026-05-03T11:19:06.508Z</time></trkpt><trkpt lat="42.2665517" lon="14.0149347"><ele>88.0</ele><time>2026-05-03T11:19:08.504Z</time></trkpt><trkpt lat="42.2664749" lon="14.0150094"><ele>88.0</ele><time>2026-05-03T11:19:11.504Z</time></trkpt><trkpt lat="42.2663975" lon="14.0150981"><ele>88.0</ele><time>2026-05-03T11:19:13.499Z</time></trkpt><trkpt lat="42.2663222" lon="14.0151901"><ele>88.16666666666666</ele><time>2026-05-03T11:19:15.511Z</time></trkpt><trkpt lat="42.2662535" lon="14.0152284"><ele>88.33333333333333</ele><time>2026-05-03T11:19:17.517Z</time></trkpt><trkpt lat="42.2661969" lon="14.015276"><ele>88.5</ele><time>2026-05-03T11:19:19.511Z</time></trkpt><trkpt lat="42.266184" lon="14.0153721"><ele>88.66666666666667</ele><time>2026-05-03T11:19:21.509Z</time></trkpt><trkpt lat="42.2662225" lon="14.0154683"><ele>88.83333333333334</ele><time>2026-05-03T11:19:23.51Z</time></trkpt><trkpt lat="42.2662749" lon="14.0155578"><ele>89.0</ele><time>2026-05-03T11:19:25.501Z</time></trkpt><trkpt lat="42.2663415" lon="14.0156559"><ele>89.0</ele><time>2026-05-03T11:19:27.497Z</time></trkpt><trkpt lat="42.2664138" lon="14.0157645"><ele>89.0</ele><time>2026-05-03T11:19:29.494Z</time></trkpt><trkpt lat="42.2664774" lon="14.0158654"><ele>89.0</ele><time>2026-05-03T11:19:31.494Z</time></trkpt><trkpt lat="42.2665219" lon="14.0159602"><ele>89.0</ele><time>2026-05-03T11:19:33.487Z</time></trkpt><trkpt lat="42.2665917" lon="14.0160754"><ele>89.0</ele><time>2026-05-03T11:19:35.494Z</time></trkpt><trkpt lat="42.2666652" lon="14.0162314"><ele>88.80000000000001</ele><time>2026-05-03T11:19:37.499Z</time></trkpt><trkpt lat="42.2667145" lon="14.0163315"><ele>88.60000000000001</ele><time>2026-05-03T11:19:38.493Z</time></trkpt><trkpt lat="42.2667744" lon="14.0164429"><ele>88.4</ele><time>2026-05-03T11:19:39.5Z</time></trkpt><trkpt lat="42.2668413" lon="14.0165521"><ele>88.2</ele><time>2026-05-03T11:19:40.495Z</time></trkpt><trkpt lat="42.2669129" lon="14.0166628"><ele>88.0</ele><time>2026-05-03T11:19:41.499Z</time></trkpt><trkpt lat="42.2669813" lon="14.0167789"><ele>87.80000000000001</ele><time>2026-05-03T11:19:42.491Z</time></trkpt><trkpt lat="42.2670486" lon="14.0168912"><ele>87.6</ele><time>2026-05-03T11:19:43.493Z</time></trkpt><trkpt lat="42.2671167" lon="14.0170052"><ele>87.4</ele><time>2026-05-03T11:19:44.487Z</time></trkpt><trkpt lat="42.2671819" lon="14.0171286"><ele>87.19999999999999</ele><time>2026-05-03T11:19:45.493Z</time></trkpt><trkpt lat="42.2672489" lon="14.0172486"><ele>87.0</ele><time>2026-05-03T11:19:46.493Z</time></trkpt><trkpt lat="42.2673174" lon="14.0173668"><ele>87.0</ele><time>2026-05-03T11:19:47.496Z</time></trkpt><trkpt lat="42.2673807" lon="14.0174821"><ele>87.0</ele><time>2026-05-03T11:19:48.496Z</time></trkpt><trkpt lat="42.2674486" lon="14.0175908"><ele>87.0</ele><time>2026-05-03T11:19:49.496Z</time></trkpt><trkpt lat="42.2675209" lon="14.0177062"><ele>87.0</ele><time>2026-05-03T11:19:50.498Z</time></trkpt><trkpt lat="42.267602" lon="14.017827"><ele>87.0</ele><time>2026-05-03T11:19:51.494Z</time></trkpt><trkpt lat="42.2676785" lon="14.0179444"><ele>87.0</ele><time>2026-05-03T11:19:52.493Z</time></trkpt><trkpt lat="42.2677661" lon="14.0180462"><ele>87.0</ele><time>2026-05-03T11:19:53.491Z</time></trkpt><trkpt lat="42.2678739" lon="14.0181284"><ele>87.0</ele><time>2026-05-03T11:19:54.49Z</time></trkpt><trkpt lat="42.2680056" lon="14.0181874"><ele>87.0</ele><time>2026-05-03T11:19:55.491Z</time></trkpt><trkpt lat="42.2681528" lon="14.0182313"><ele>87.0</ele><time>2026-05-03T11:19:56.491Z</time></trkpt><trkpt lat="42.2683486" lon="14.0182621"><ele>87.0</ele><time>2026-05-03T11:19:57.492Z</time></trkpt><trkpt lat="42.2685296" lon="14.0183043"><ele>87.0</ele><time>2026-05-03T11:19:58.494Z</time></trkpt><trkpt lat="42.2686904" lon="14.0183236"><ele>88.0</ele><time>2026-05-03T11:19:59.494Z</time></trkpt><trkpt lat="42.2688674" lon="14.0183665"><ele>89.0</ele><time>2026-05-03T11:20:00.499Z</time></trkpt><trkpt lat="42.2690204" lon="14.0184242"><ele>90.0</ele><time>2026-05-03T11:20:01.489Z</time></trkpt><trkpt lat="42.2691825" lon="14.0184499"><ele>90.66666666666667</ele><time>2026-05-03T11:20:02.489Z</time></trkpt><trkpt lat="42.2693307" lon="14.0184742"><ele>91.33333333333334</ele><time>2026-05-03T11:20:03.5Z</time></trkpt><trkpt lat="42.2694724" lon="14.0185242"><ele>92.0</ele><time>2026-05-03T11:20:04.495Z</time></trkpt><trkpt lat="42.2696404" lon="14.0186013"><ele>92.0</ele><time>2026-05-03T11:20:05.496Z</time></trkpt><trkpt lat="42.2697853" lon="14.0186699"><ele>92.0</ele><time>2026-05-03T11:20:06.489Z</time></trkpt><trkpt lat="42.2699096" lon="14.0187555"><ele>92.0</ele><time>2026-05-03T11:20:07.489Z</time></trkpt><trkpt lat="42.2700217" lon="14.0188349"><ele>92.0</ele><time>2026-05-03T11:20:08.506Z</time></trkpt><trkpt lat="42.2701393" lon="14.0189096"><ele>92.0</ele><time>2026-05-03T11:20:09.495Z</time></trkpt><trkpt lat="42.2702623" lon="14.0189872"><ele>92.0</ele><time>2026-05-03T11:20:10.496Z</time></trkpt><trkpt lat="42.2703848" lon="14.0190718"><ele>92.0</ele><time>2026-05-03T11:20:11.493Z</time></trkpt><trkpt lat="42.2705123" lon="14.0191666"><ele>92.0</ele><time>2026-05-03T11:20:12.497Z</time></trkpt><trkpt lat="42.2706396" lon="14.0192353"><ele>93.39999999999999</ele><time>2026-05-03T11:20:13.485Z</time></trkpt><trkpt lat="42.2707253" lon="14.0193111"><ele>94.8</ele><time>2026-05-03T11:20:14.496Z</time></trkpt><trkpt lat="42.2708117" lon="14.0193553"><ele>96.2</ele><time>2026-05-03T11:20:15.487Z</time></trkpt><trkpt lat="42.2708801" lon="14.0194126"><ele>97.6</ele><time>2026-05-03T11:20:16.5Z</time></trkpt><trkpt lat="42.270949" lon="14.0195017"><ele>99.0</ele><time>2026-05-03T11:20:18.483Z</time></trkpt><trkpt lat="42.2708999" lon="14.0196297"><ele>99.0</ele><time>2026-05-03T11:20:20.49Z</time></trkpt><trkpt lat="42.2708562" lon="14.019695"><ele>99.0</ele><time>2026-05-03T11:20:21.485Z</time></trkpt><trkpt lat="42.2708111" lon="14.0197654"><ele>99.0</ele><time>2026-05-03T11:20:22.493Z</time></trkpt><trkpt lat="42.2707666" lon="14.0198729"><ele>99.0</ele><time>2026-05-03T11:20:24.495Z</time></trkpt><trkpt lat="42.2707899" lon="14.0199981"><ele>99.0</ele><time>2026-05-03T11:20:26.499Z</time></trkpt><trkpt lat="42.2708349" lon="14.0200625"><ele>99.0</ele><time>2026-05-03T11:20:27.491Z</time></trkpt><trkpt lat="42.2708803" lon="14.0201243"><ele>100.14285714285715</ele><time>2026-05-03T11:20:28.496Z</time></trkpt><trkpt lat="42.2709246" lon="14.0201916"><ele>101.28571428571428</ele><time>2026-05-03T11:20:29.491Z</time></trkpt><trkpt lat="42.2709794" lon="14.0202715"><ele>102.42857142857143</ele><time>2026-05-03T11:20:30.499Z</time></trkpt><trkpt lat="42.2710301" lon="14.0203583"><ele>103.57142857142858</ele><time>2026-05-03T11:20:31.491Z</time></trkpt><trkpt lat="42.2710692" lon="14.0204301"><ele>104.71428571428572</ele><time>2026-05-03T11:20:32.496Z</time></trkpt><trkpt lat="42.2711104" lon="14.0205314"><ele>105.85714285714286</ele><time>2026-05-03T11:20:34.496Z</time></trkpt><trkpt lat="42.2711509" lon="14.0206063"><ele>107.0</ele><time>2026-05-03T11:20:54.49Z</time></trkpt><trkpt lat="42.2711257" lon="14.0204745"><ele>107.0</ele><time>2026-05-03T11:21:04.492Z</time></trkpt><trkpt lat="42.2710769" lon="14.0203777"><ele>106.99999999999999</ele><time>2026-05-03T11:21:05.493Z</time></trkpt><trkpt lat="42.2710197" lon="14.0202549"><ele>106.99999999999999</ele><time>2026-05-03T11:21:06.491Z</time></trkpt><trkpt lat="42.2709609" lon="14.0201418"><ele>107.0</ele><time>2026-05-03T11:21:07.492Z</time></trkpt><trkpt lat="42.2709052" lon="14.0200372"><ele>107.0</ele><time>2026-05-03T11:21:08.49Z</time></trkpt><trkpt lat="42.2708647" lon="14.0199411"><ele>106.0</ele><time>2026-05-03T11:21:09.482Z</time></trkpt><trkpt lat="42.2708166" lon="14.0198222"><ele>104.99999999999999</ele><time>2026-05-03T11:21:11.484Z</time></trkpt><trkpt lat="42.270694" lon="14.0197876"><ele>104.0</ele><time>2026-05-03T11:21:13.485Z</time></trkpt><trkpt lat="42.2705989" lon="14.0197663"><ele>103.0</ele><time>2026-05-03T11:21:14.491Z</time></trkpt><trkpt lat="42.2704878" lon="14.0197404"><ele>102.0</ele><time>2026-05-03T11:21:15.482Z</time></trkpt><trkpt lat="42.2703741" lon="14.0197083"><ele>102.0</ele><time>2026-05-03T11:21:16.483Z</time></trkpt><trkpt lat="42.2702732" lon="14.0196679"><ele>102.0</ele><time>2026-05-03T11:21:17.487Z</time></trkpt><trkpt lat="42.2701759" lon="14.0196175"><ele>102.0</ele><time>2026-05-03T11:21:18.484Z</time></trkpt><trkpt lat="42.2700718" lon="14.0195693"><ele>102.0</ele><time>2026-05-03T11:21:19.484Z</time></trkpt><trkpt lat="42.2699802" lon="14.0195286"><ele>102.0</ele><time>2026-05-03T11:21:20.484Z</time></trkpt><trkpt lat="42.2698972" lon="14.0194833"><ele>102.0</ele><time>2026-05-03T11:21:21.487Z</time></trkpt><trkpt lat="42.2698124" lon="14.0194452"><ele>102.0</ele><time>2026-05-03T11:21:22.484Z</time></trkpt><trkpt lat="42.2697136" lon="14.0194093"><ele>102.0</ele><time>2026-05-03T11:21:23.488Z</time></trkpt><trkpt lat="42.269616" lon="14.0193868"><ele>102.0</ele><time>2026-05-03T11:21:24.487Z</time></trkpt><trkpt lat="42.2695224" lon="14.0193856"><ele>102.0</ele><time>2026-05-03T11:21:25.493Z</time></trkpt><trkpt lat="42.2694357" lon="14.0193966"><ele>102.66666666666667</ele><time>2026-05-03T11:21:26.493Z</time></trkpt><trkpt lat="42.2693521" lon="14.0194126"><ele>103.33333333333334</ele><time>2026-05-03T11:21:27.492Z</time></trkpt><trkpt lat="42.2692676" lon="14.0194423"><ele>104.0</ele><time>2026-05-03T11:21:28.497Z</time></trkpt><trkpt lat="42.2691867" lon="14.0194735"><ele>104.66666666666667</ele><time>2026-05-03T11:21:29.492Z</time></trkpt><trkpt lat="42.2691076" lon="14.0195182"><ele>105.33333333333334</ele><time>2026-05-03T11:21:30.492Z</time></trkpt><trkpt lat="42.2690458" lon="14.0195814"><ele>106.0</ele><time>2026-05-03T11:21:31.491Z</time></trkpt><trkpt lat="42.2690026" lon="14.0196614"><ele>106.00000000000001</ele><time>2026-05-03T11:21:32.495Z</time></trkpt><trkpt lat="42.2689817" lon="14.0197626"><ele>106.0</ele><time>2026-05-03T11:21:33.49Z</time></trkpt><trkpt lat="42.2689808" lon="14.0198489"><ele>106.0</ele><time>2026-05-03T11:21:34.492Z</time></trkpt><trkpt lat="42.2689949" lon="14.0199542"><ele>106.0</ele><time>2026-05-03T11:21:39.496Z</time></trkpt><trkpt lat="42.2690137" lon="14.0200841"><ele>106.00000000000001</ele><time>2026-05-03T11:25:07.497Z</time></trkpt><trkpt lat="42.2690625" lon="14.0202289"><ele>106.0</ele><time>2026-05-03T11:25:09.495Z</time></trkpt><trkpt lat="42.26908" lon="14.0203221"><ele>108.6</ele><time>2026-05-03T11:25:10.495Z</time></trkpt><trkpt lat="42.2690912" lon="14.0204225"><ele>111.19999999999999</ele><time>2026-05-03T11:25:11.495Z</time></trkpt><trkpt lat="42.2691051" lon="14.0205057"><ele>113.80000000000001</ele><time>2026-05-03T11:25:12.493Z</time></trkpt><trkpt lat="42.269113" lon="14.0206366"><ele>116.4</ele><time>2026-05-03T11:25:14.495Z</time></trkpt><trkpt lat="42.2691212" lon="14.0207947"><ele>119.0</ele><time>2026-05-03T11:25:16.49Z</time></trkpt><trkpt lat="42.2691013" lon="14.0209755"><ele>120.99999999999999</ele><time>2026-05-03T11:25:18.491Z</time></trkpt><trkpt lat="42.2690818" lon="14.0210793"><ele>123.0</ele><time>2026-05-03T11:25:19.491Z</time></trkpt><trkpt lat="42.2690625" lon="14.0211862"><ele>125.0</ele><time>2026-05-03T11:25:20.49Z</time></trkpt><trkpt lat="42.269046" lon="14.0212926"><ele>127.0</ele><time>2026-05-03T11:25:21.488Z</time></trkpt><trkpt lat="42.2690356" lon="14.0213791"><ele>129.0</ele><time>2026-05-03T11:25:22.483Z</time></trkpt><trkpt lat="42.2690658" lon="14.0214939"><ele>131.0</ele><time>2026-05-03T11:25:24.487Z</time></trkpt><trkpt lat="42.2691401" lon="14.0215569"><ele>131.0</ele><time>2026-05-03T11:25:26.487Z</time></trkpt><trkpt lat="42.2692497" lon="14.0216214"><ele>131.0</ele><time>2026-05-03T11:25:28.495Z</time></trkpt><trkpt lat="42.2693682" lon="14.0216708"><ele>131.0</ele><time>2026-05-03T11:25:30.488Z</time></trkpt><trkpt lat="42.2694406" lon="14.0217027"><ele>131.0</ele><time>2026-05-03T11:25:31.491Z</time></trkpt><trkpt lat="42.2695094" lon="14.0217538"><ele>131.0</ele><time>2026-05-03T11:25:32.486Z</time></trkpt><trkpt lat="42.269571" lon="14.0218124"><ele>132.6</ele><time>2026-05-03T11:25:33.488Z</time></trkpt><trkpt lat="42.2696253" lon="14.0218857"><ele>134.2</ele><time>2026-05-03T11:25:34.486Z</time></trkpt><trkpt lat="42.2696905" lon="14.0219616"><ele>135.8</ele><time>2026-05-03T11:25:35.489Z</time></trkpt><trkpt lat="42.2697611" lon="14.0220505"><ele>137.4</ele><time>2026-05-03T11:25:36.49Z</time></trkpt><trkpt lat="42.2698318" lon="14.0221486"><ele>139.0</ele><time>2026-05-03T11:25:37.49Z</time></trkpt><trkpt lat="42.2699006" lon="14.0222536"><ele>139.0</ele><time>2026-05-03T11:25:38.488Z</time></trkpt><trkpt lat="42.2699704" lon="14.0223685"><ele>139.0</ele><time>2026-05-03T11:25:39.487Z</time></trkpt><trkpt lat="42.2700432" lon="14.0224808"><ele>139.0</ele><time>2026-05-03T11:25:40.489Z</time></trkpt><trkpt lat="42.2701137" lon="14.0225832"><ele>139.0</ele><time>2026-05-03T11:25:41.487Z</time></trkpt><trkpt lat="42.2701803" lon="14.0226779"><ele>139.0</ele><time>2026-05-03T11:25:42.479Z</time></trkpt><trkpt lat="42.2702423" lon="14.0227454"><ele>139.85714285714286</ele><time>2026-05-03T11:25:43.485Z</time></trkpt><trkpt lat="42.2703021" lon="14.0228002"><ele>140.71428571428572</ele><time>2026-05-03T11:25:44.491Z</time></trkpt><trkpt lat="42.2703632" lon="14.022847"><ele>141.57142857142858</ele><time>2026-05-03T11:25:45.485Z</time></trkpt><trkpt lat="42.2704241" lon="14.0228967"><ele>142.42857142857144</ele><time>2026-05-03T11:25:46.494Z</time></trkpt><trkpt lat="42.2704757" lon="14.0229541"><ele>143.2857142857143</ele><time>2026-05-03T11:25:47.487Z</time></trkpt><trkpt lat="42.2705204" lon="14.0230237"><ele>144.14285714285714</ele><time>2026-05-03T11:25:48.492Z</time></trkpt><trkpt lat="42.27057" lon="14.0231015"><ele>145.0</ele><time>2026-05-03T11:25:49.487Z</time></trkpt><trkpt lat="42.2706316" lon="14.023194"><ele>145.0</ele><time>2026-05-03T11:25:50.49Z</time></trkpt><trkpt lat="42.2706997" lon="14.0233003"><ele>145.0</ele><time>2026-05-03T11:25:51.485Z</time></trkpt><trkpt lat="42.2707627" lon="14.0233993"><ele>145.0</ele><time>2026-05-03T11:25:52.48Z</time></trkpt><trkpt lat="42.2708134" lon="14.0234754"><ele>145.0</ele><time>2026-05-03T11:25:53.485Z</time></trkpt><trkpt lat="42.2708591" lon="14.0235371"><ele>145.0</ele><time>2026-05-03T11:25:54.482Z</time></trkpt><trkpt lat="42.2709256" lon="14.0236744"><ele>147.6</ele><time>2026-05-03T11:25:56.483Z</time></trkpt><trkpt lat="42.2709673" lon="14.0238206"><ele>150.2</ele><time>2026-05-03T11:25:58.486Z</time></trkpt><trkpt lat="42.2709625" lon="14.0239707"><ele>152.8</ele><time>2026-05-03T11:26:00.489Z</time></trkpt><trkpt lat="42.270905" lon="14.0240946"><ele>155.4</ele><time>2026-05-03T11:26:02.48Z</time></trkpt><trkpt lat="42.2708062" lon="14.0241479"><ele>158.0</ele><time>2026-05-03T11:26:04.483Z</time></trkpt><trkpt lat="42.2707098" lon="14.0241538"><ele>158.0</ele><time>2026-05-03T11:26:06.478Z</time></trkpt><trkpt lat="42.2706139" lon="14.0241328"><ele>158.0</ele><time>2026-05-03T11:26:08.472Z</time></trkpt><trkpt lat="42.2705438" lon="14.0241244"><ele>158.0</ele><time>2026-05-03T11:26:09.469Z</time></trkpt><trkpt lat="42.2704541" lon="14.0241277"><ele>158.0</ele><time>2026-05-03T11:26:10.475Z</time></trkpt><trkpt lat="42.2703584" lon="14.0241267"><ele>158.0</ele><time>2026-05-03T11:26:11.468Z</time></trkpt><trkpt lat="42.2702579" lon="14.0241275"><ele>159.33333333333331</ele><time>2026-05-03T11:26:12.465Z</time></trkpt><trkpt lat="42.2701576" lon="14.0241294"><ele>160.66666666666666</ele><time>2026-05-03T11:26:13.466Z</time></trkpt><trkpt lat="42.2700692" lon="14.0241213"><ele>162.0</ele><time>2026-05-03T11:26:14.473Z</time></trkpt><trkpt lat="42.269984" lon="14.0241124"><ele>163.33333333333334</ele><time>2026-05-03T11:26:15.468Z</time></trkpt><trkpt lat="42.2698972" lon="14.0241202"><ele>164.66666666666669</ele><time>2026-05-03T11:26:16.469Z</time></trkpt><trkpt lat="42.2698205" lon="14.024135"><ele>166.0</ele><time>2026-05-03T11:26:17.471Z</time></trkpt><trkpt lat="42.269755" lon="14.0241657"><ele>168.8</ele><time>2026-05-03T11:26:18.473Z</time></trkpt><trkpt lat="42.2696893" lon="14.0242004"><ele>171.60000000000002</ele><time>2026-05-03T11:26:19.472Z</time></trkpt><trkpt lat="42.2695754" lon="14.0242202"><ele>174.4</ele><time>2026-05-03T11:26:21.468Z</time></trkpt><trkpt lat="42.269437" lon="14.0241815"><ele>177.2</ele><time>2026-05-03T11:26:23.462Z</time></trkpt><trkpt lat="42.2693448" lon="14.0241508"><ele>180.0</ele><time>2026-05-03T11:26:24.465Z</time></trkpt><trkpt lat="42.269266" lon="14.0241098"><ele>180.0</ele><time>2026-05-03T11:26:25.463Z</time></trkpt><trkpt lat="42.2691985" lon="14.0240702"><ele>180.0</ele><time>2026-05-03T11:26:26.461Z</time></trkpt><trkpt lat="42.2691165" lon="14.0240495"><ele>180.0</ele><time>2026-05-03T11:26:28.472Z</time></trkpt><trkpt lat="42.2690515" lon="14.0240611"><ele>180.0</ele><time>2026-05-03T11:26:38.468Z</time></trkpt><trkpt lat="42.2689743" lon="14.0240999"><ele>180.0</ele><time>2026-05-03T11:26:40.471Z</time></trkpt><trkpt lat="42.2688793" lon="14.0241643"><ele>180.0</ele><time>2026-05-03T11:26:42.472Z</time></trkpt><trkpt lat="42.2688095" lon="14.024196"><ele>183.16666666666666</ele><time>2026-05-03T11:26:43.467Z</time></trkpt><trkpt lat="42.2687341" lon="14.0242277"><ele>186.33333333333331</ele><time>2026-05-03T11:26:44.472Z</time></trkpt><trkpt lat="42.2686491" lon="14.0242548"><ele>189.5</ele><time>2026-05-03T11:26:45.468Z</time></trkpt><trkpt lat="42.2685672" lon="14.0242878"><ele>192.66666666666666</ele><time>2026-05-03T11:26:46.472Z</time></trkpt><trkpt lat="42.2684864" lon="14.024328"><ele>195.83333333333331</ele><time>2026-05-03T11:26:47.466Z</time></trkpt><trkpt lat="42.2683992" lon="14.0243758"><ele>199.0</ele><time>2026-05-03T11:26:48.47Z</time></trkpt><trkpt lat="42.2683148" lon="14.0244226"><ele>198.99999999999997</ele><time>2026-05-03T11:26:49.471Z</time></trkpt><trkpt lat="42.2682369" lon="14.0244729"><ele>199.0</ele><time>2026-05-03T11:26:50.468Z</time></trkpt><trkpt lat="42.2681601" lon="14.0245329"><ele>199.0</ele><time>2026-05-03T11:26:51.472Z</time></trkpt><trkpt lat="42.2680826" lon="14.0245965"><ele>199.0</ele><time>2026-05-03T11:26:52.466Z</time></trkpt><trkpt lat="42.2680164" lon="14.0246548"><ele>198.99999999999997</ele><time>2026-05-03T11:26:53.465Z</time></trkpt><trkpt lat="42.2679652" lon="14.0247079"><ele>199.0</ele><time>2026-05-03T11:26:54.467Z</time></trkpt><trkpt lat="42.2678673" lon="14.0248042"><ele>199.16666666666666</ele><time>2026-05-03T11:26:56.467Z</time></trkpt><trkpt lat="42.2677983" lon="14.0248579"><ele>199.33333333333331</ele><time>2026-05-03T11:26:57.46Z</time></trkpt><trkpt lat="42.2677241" lon="14.024901"><ele>199.5</ele><time>2026-05-03T11:26:58.467Z</time></trkpt><trkpt lat="42.267645" lon="14.0249537"><ele>199.66666666666669</ele><time>2026-05-03T11:26:59.46Z</time></trkpt><trkpt lat="42.2675709" lon="14.025003"><ele>199.83333333333334</ele><time>2026-05-03T11:27:00.466Z</time></trkpt><trkpt lat="42.2675081" lon="14.0250375"><ele>200.0</ele><time>2026-05-03T11:27:01.462Z</time></trkpt><trkpt lat="42.2674013" lon="14.0251099"><ele>205.50000000000003</ele><time>2026-05-03T11:27:03.463Z</time></trkpt><trkpt lat="42.2673384" lon="14.0251695"><ele>211.0</ele><time>2026-05-03T11:27:04.461Z</time></trkpt><trkpt lat="42.2672725" lon="14.0252277"><ele>216.5</ele><time>2026-05-03T11:27:05.457Z</time></trkpt><trkpt lat="42.2671655" lon="14.0252755"><ele>222.0</ele><time>2026-05-03T11:27:07.46Z</time></trkpt><trkpt lat="42.2670767" lon="14.025193"><ele>227.50000000000003</ele><time>2026-05-03T11:27:09.458Z</time></trkpt><trkpt lat="42.2670322" lon="14.0251297"><ele>233.0</ele><time>2026-05-03T11:27:10.463Z</time></trkpt><trkpt lat="42.2669739" lon="14.0250563"><ele>234.50000000000003</ele><time>2026-05-03T11:27:11.455Z</time></trkpt><trkpt lat="42.2669188" lon="14.0249802"><ele>236.0</ele><time>2026-05-03T11:27:12.466Z</time></trkpt><trkpt lat="42.2668613" lon="14.0249124"><ele>237.5</ele><time>2026-05-03T11:27:13.465Z</time></trkpt><trkpt lat="42.2668014" lon="14.0248418"><ele>239.0</ele><time>2026-05-03T11:27:14.469Z</time></trkpt><trkpt lat="42.2667434" lon="14.0247658"><ele>240.50000000000003</ele><time>2026-05-03T11:27:15.47Z</time></trkpt><trkpt lat="42.2666864" lon="14.0246964"><ele>242.0</ele><time>2026-05-03T11:27:16.469Z</time></trkpt><trkpt lat="42.2666244" lon="14.024627"><ele>237.39999999999998</ele><time>2026-05-03T11:27:17.474Z</time></trkpt><trkpt lat="42.2665637" lon="14.0245625"><ele>232.79999999999998</ele><time>2026-05-03T11:27:18.473Z</time></trkpt><trkpt lat="42.2665064" lon="14.0245017"><ele>228.2</ele><time>2026-05-03T11:27:19.476Z</time></trkpt><trkpt lat="42.2664114" lon="14.0244204"><ele>223.6</ele><time>2026-05-03T11:27:21.48Z</time></trkpt><trkpt lat="42.2663351" lon="14.0243641"><ele>219.0</ele><time>2026-05-03T11:27:23.485Z</time></trkpt><trkpt lat="42.2662204" lon="14.0243233"><ele>219.0</ele><time>2026-05-03T11:27:25.48Z</time></trkpt><trkpt lat="42.2661608" lon="14.0242181"><ele>219.0</ele><time>2026-05-03T11:27:27.475Z</time></trkpt><trkpt lat="42.2661002" lon="14.0241939"><ele>219.0</ele><time>2026-05-03T11:27:29.477Z</time></trkpt><trkpt lat="42.266027" lon="14.0242551"><ele>219.0</ele><time>2026-05-03T11:27:31.482Z</time></trkpt><trkpt lat="42.2659468" lon="14.0243404"><ele>219.0</ele><time>2026-05-03T11:27:33.479Z</time></trkpt><trkpt lat="42.2658754" lon="14.0243828"><ele>219.0</ele><time>2026-05-03T11:27:35.478Z</time></trkpt><trkpt lat="42.2657608" lon="14.0244228"><ele>219.0</ele><time>2026-05-03T11:27:37.478Z</time></trkpt><trkpt lat="42.2656904" lon="14.024448"><ele>219.0</ele><time>2026-05-03T11:27:38.481Z</time></trkpt><trkpt lat="42.2656159" lon="14.0244571"><ele>219.0</ele><time>2026-05-03T11:27:39.481Z</time></trkpt><trkpt lat="42.2655412" lon="14.0244637"><ele>219.0</ele><time>2026-05-03T11:27:40.479Z</time></trkpt><trkpt lat="42.2654641" lon="14.0244724"><ele>219.0</ele><time>2026-05-03T11:27:41.484Z</time></trkpt><trkpt lat="42.2653814" lon="14.0244914"><ele>219.0</ele><time>2026-05-03T11:27:42.479Z</time></trkpt><trkpt lat="42.2653013" lon="14.0245129"><ele>216.66666666666666</ele><time>2026-05-03T11:27:43.48Z</time></trkpt><trkpt lat="42.2652279" lon="14.0245301"><ele>214.33333333333331</ele><time>2026-05-03T11:27:44.481Z</time></trkpt><trkpt lat="42.2651479" lon="14.0245273"><ele>212.0</ele><time>2026-05-03T11:27:45.475Z</time></trkpt><trkpt lat="42.2650827" lon="14.024529"><ele>209.66666666666666</ele><time>2026-05-03T11:27:46.475Z</time></trkpt><trkpt lat="42.2649843" lon="14.0245979"><ele>207.33333333333331</ele><time>2026-05-03T11:27:48.473Z</time></trkpt><trkpt lat="42.2649339" lon="14.0247154"><ele>205.0</ele><time>2026-05-03T11:27:50.472Z</time></trkpt><trkpt lat="42.2649111" lon="14.0248044"><ele>204.99999999999997</ele><time>2026-05-03T11:27:51.469Z</time></trkpt><trkpt lat="42.2648743" lon="14.024888"><ele>205.0</ele><time>2026-05-03T11:27:52.469Z</time></trkpt><trkpt lat="42.2647995" lon="14.0249933"><ele>205.0</ele><time>2026-05-03T11:27:54.467Z</time></trkpt><trkpt lat="42.2647175" lon="14.0250191"><ele>205.0</ele><time>2026-05-03T11:27:56.464Z</time></trkpt><trkpt lat="42.2646491" lon="14.0250055"><ele>204.99999999999997</ele><time>2026-05-03T11:27:57.465Z</time></trkpt><trkpt lat="42.2645693" lon="14.0250059"><ele>205.0</ele><time>2026-05-03T11:27:58.47Z</time></trkpt><trkpt lat="42.2644818" lon="14.0250186"><ele>205.33333333333331</ele><time>2026-05-03T11:27:59.463Z</time></trkpt><trkpt lat="42.264396" lon="14.0250343"><ele>205.66666666666666</ele><time>2026-05-03T11:28:00.466Z</time></trkpt><trkpt lat="42.2643114" lon="14.0250278"><ele>206.0</ele><time>2026-05-03T11:28:01.463Z</time></trkpt><trkpt lat="42.2642312" lon="14.0249989"><ele>206.33333333333331</ele><time>2026-05-03T11:28:02.461Z</time></trkpt><trkpt lat="42.2641453" lon="14.0249589"><ele>206.66666666666666</ele><time>2026-05-03T11:28:03.459Z</time></trkpt><trkpt lat="42.2640623" lon="14.0249288"><ele>207.0</ele><time>2026-05-03T11:28:04.459Z</time></trkpt><trkpt lat="42.2639851" lon="14.0248951"><ele>209.2857142857143</ele><time>2026-05-03T11:28:05.462Z</time></trkpt><trkpt lat="42.2639114" lon="14.024873"><ele>211.57142857142858</ele><time>2026-05-03T11:28:06.466Z</time></trkpt><trkpt lat="42.2638394" lon="14.024854"><ele>213.85714285714286</ele><time>2026-05-03T11:28:07.464Z</time></trkpt><trkpt lat="42.2637715" lon="14.0248287"><ele>216.14285714285717</ele><time>2026-05-03T11:28:08.466Z</time></trkpt><trkpt lat="42.2637125" lon="14.0247875"><ele>218.42857142857142</ele><time>2026-05-03T11:28:09.468Z</time></trkpt><trkpt lat="42.2636494" lon="14.0247688"><ele>220.71428571428572</ele><time>2026-05-03T11:28:10.467Z</time></trkpt><trkpt lat="42.2635789" lon="14.0247588"><ele>223.0</ele><time>2026-05-03T11:28:11.465Z</time></trkpt><trkpt lat="42.2634815" lon="14.0247132"><ele>223.0</ele><time>2026-05-03T11:28:13.466Z</time></trkpt><trkpt lat="42.2634447" lon="14.0245765"><ele>223.0</ele><time>2026-05-03T11:28:15.468Z</time></trkpt><trkpt lat="42.2634114" lon="14.0244854"><ele>223.0</ele><time>2026-05-03T11:28:16.472Z</time></trkpt><trkpt lat="42.2633537" lon="14.0243621"><ele>223.0</ele><time>2026-05-03T11:28:17.464Z</time></trkpt><trkpt lat="42.2632943" lon="14.0242347"><ele>223.0</ele><time>2026-05-03T11:28:18.472Z</time></trkpt><trkpt lat="42.2632459" lon="14.0241052"><ele>224.16666666666666</ele><time>2026-05-03T11:28:19.472Z</time></trkpt><trkpt lat="42.263187" lon="14.0240068"><ele>225.33333333333331</ele><time>2026-05-03T11:28:20.469Z</time></trkpt><trkpt lat="42.2631224" lon="14.0239425"><ele>226.5</ele><time>2026-05-03T11:28:21.472Z</time></trkpt><trkpt lat="42.2630536" lon="14.0239123"><ele>227.66666666666669</ele><time>2026-05-03T11:28:22.472Z</time></trkpt><trkpt lat="42.2629849" lon="14.0238913"><ele>228.83333333333334</ele><time>2026-05-03T11:28:23.475Z</time></trkpt><trkpt lat="42.2629063" lon="14.0238898"><ele>230.0</ele><time>2026-05-03T11:28:24.475Z</time></trkpt><trkpt lat="42.2628276" lon="14.0239033"><ele>230.00000000000003</ele><time>2026-05-03T11:28:25.486Z</time></trkpt><trkpt lat="42.2627519" lon="14.0239188"><ele>230.0</ele><time>2026-05-03T11:28:26.485Z</time></trkpt><trkpt lat="42.2626839" lon="14.0239212"><ele>230.0</ele><time>2026-05-03T11:28:27.483Z</time></trkpt><trkpt lat="42.2625704" lon="14.0238734"><ele>230.0</ele><time>2026-05-03T11:28:29.483Z</time></trkpt><trkpt lat="42.2624966" lon="14.0238422"><ele>230.00000000000003</ele><time>2026-05-03T11:28:30.491Z</time></trkpt><trkpt lat="42.2624205" lon="14.0238202"><ele>230.0</ele><time>2026-05-03T11:28:31.485Z</time></trkpt><trkpt lat="42.2623392" lon="14.0237936"><ele>232.00000000000003</ele><time>2026-05-03T11:28:32.486Z</time></trkpt><trkpt lat="42.2622597" lon="14.0237721"><ele>234.0</ele><time>2026-05-03T11:28:33.486Z</time></trkpt><trkpt lat="42.2621738" lon="14.0237606"><ele>236.0</ele><time>2026-05-03T11:28:34.483Z</time></trkpt><trkpt lat="42.2620946" lon="14.0237488"><ele>238.0</ele><time>2026-05-03T11:28:35.486Z</time></trkpt><trkpt lat="42.2620121" lon="14.023722"><ele>240.00000000000003</ele><time>2026-05-03T11:28:36.482Z</time></trkpt><trkpt lat="42.2619313" lon="14.0236812"><ele>242.0</ele><time>2026-05-03T11:28:37.48Z</time></trkpt><trkpt lat="42.2618613" lon="14.0236324"><ele>242.00000000000003</ele><time>2026-05-03T11:28:38.482Z</time></trkpt><trkpt lat="42.2618002" lon="14.0235739"><ele>242.0</ele><time>2026-05-03T11:28:40.479Z</time></trkpt><trkpt lat="42.2617603" lon="14.0236556"><ele>242.0</ele><time>2026-05-03T11:28:45.481Z</time></trkpt><trkpt lat="42.2618002" lon="14.0237603"><ele>242.0</ele><time>2026-05-03T11:28:47.482Z</time></trkpt><trkpt lat="42.2618252" lon="14.0238476"><ele>242.00000000000003</ele><time>2026-05-03T11:28:48.479Z</time></trkpt><trkpt lat="42.2617775" lon="14.0239359"><ele>242.0</ele><time>2026-05-03T11:28:50.479Z</time></trkpt><trkpt lat="42.261664" lon="14.0238243"><ele>242.0</ele><time>2026-05-03T11:28:52.485Z</time></trkpt><trkpt lat="42.2615967" lon="14.023762"><ele>242.0</ele><time>2026-05-03T11:28:53.473Z</time></trkpt><trkpt lat="42.2615269" lon="14.0237405"><ele>242.0</ele><time>2026-05-03T11:28:54.48Z</time></trkpt><trkpt lat="42.2614249" lon="14.0237917"><ele>242.0</ele><time>2026-05-03T11:28:56.475Z</time></trkpt><trkpt lat="42.2613785" lon="14.0239066"><ele>242.0</ele><time>2026-05-03T11:28:58.483Z</time></trkpt><trkpt lat="42.2614278" lon="14.0240302"><ele>242.00000000000003</ele><time>2026-05-03T11:29:01.483Z</time></trkpt><trkpt lat="42.2614764" lon="14.0240887"><ele>242.0</ele><time>2026-05-03T11:29:02.484Z</time></trkpt><trkpt lat="42.2615445" lon="14.024153"><ele>242.0</ele><time>2026-05-03T11:29:03.482Z</time></trkpt><trkpt lat="42.2616217" lon="14.0242265"><ele>242.0</ele><time>2026-05-03T11:29:04.484Z</time></trkpt><trkpt lat="42.2617038" lon="14.0242946"><ele>242.00000000000003</ele><time>2026-05-03T11:29:05.477Z</time></trkpt><trkpt lat="42.2617612" lon="14.02436"><ele>242.0</ele><time>2026-05-03T11:29:06.483Z</time></trkpt><trkpt lat="42.2617485" lon="14.0244621"><ele>241.8</ele><time>2026-05-03T11:29:08.48Z</time></trkpt><trkpt lat="42.2616734" lon="14.0245006"><ele>241.6</ele><time>2026-05-03T11:29:10.482Z</time></trkpt><trkpt lat="42.2615344" lon="14.0245277"><ele>241.40000000000003</ele><time>2026-05-03T11:29:12.479Z</time></trkpt><trkpt lat="42.2614515" lon="14.0245713"><ele>241.20000000000002</ele><time>2026-05-03T11:29:13.477Z</time></trkpt><trkpt lat="42.2613773" lon="14.0246425"><ele>241.0</ele><time>2026-05-03T11:29:14.483Z</time></trkpt><trkpt lat="42.2612959" lon="14.0247496"><ele>241.0</ele><time>2026-05-03T11:29:15.482Z</time></trkpt><trkpt lat="42.2612086" lon="14.0248715"><ele>241.0</ele><time>2026-05-03T11:29:16.483Z</time></trkpt><trkpt lat="42.2611316" lon="14.024997"><ele>241.0</ele><time>2026-05-03T11:29:17.476Z</time></trkpt><trkpt lat="42.2610708" lon="14.0251371"><ele>241.0</ele><time>2026-05-03T11:29:18.48Z</time></trkpt><trkpt lat="42.2610385" lon="14.0252804"><ele>246.0</ele><time>2026-05-03T11:29:19.477Z</time></trkpt><trkpt lat="42.2610354" lon="14.0254341"><ele>251.0</ele><time>2026-05-03T11:29:20.475Z</time></trkpt><trkpt lat="42.261052" lon="14.0255951"><ele>256.0</ele><time>2026-05-03T11:29:21.481Z</time></trkpt><trkpt lat="42.2610681" lon="14.0257547"><ele>261.0</ele><time>2026-05-03T11:29:22.476Z</time></trkpt><trkpt lat="42.2610739" lon="14.0258916"><ele>264.2</ele><time>2026-05-03T11:29:23.477Z</time></trkpt><trkpt lat="42.2610478" lon="14.0259787"><ele>267.40000000000003</ele><time>2026-05-03T11:29:24.475Z</time></trkpt><trkpt lat="42.2610031" lon="14.0260428"><ele>270.6</ele><time>2026-05-03T11:29:25.483Z</time></trkpt><trkpt lat="42.2609664" lon="14.0261636"><ele>273.8</ele><time>2026-05-03T11:29:27.49Z</time></trkpt><trkpt lat="42.2609726" lon="14.0262796"><ele>277.0</ele><time>2026-05-03T11:29:29.49Z</time></trkpt><trkpt lat="42.2610158" lon="14.0264699"><ele>277.0</ele><time>2026-05-03T11:29:31.493Z</time></trkpt><trkpt lat="42.2610595" lon="14.0265986"><ele>277.0</ele><time>2026-05-03T11:29:32.487Z</time></trkpt><trkpt lat="42.2611163" lon="14.0267421"><ele>277.0</ele><time>2026-05-03T11:29:33.499Z</time></trkpt><trkpt lat="42.2611907" lon="14.0268941"><ele>277.0</ele><time>2026-05-03T11:29:34.492Z</time></trkpt><trkpt lat="42.2612604" lon="14.027056"><ele>279.5</ele><time>2026-05-03T11:29:35.495Z</time></trkpt><trkpt lat="42.2613181" lon="14.0272235"><ele>282.0</ele><time>2026-05-03T11:29:36.49Z</time></trkpt><trkpt lat="42.261365" lon="14.0273888"><ele>284.5</ele><time>2026-05-03T11:29:37.49Z</time></trkpt><trkpt lat="42.2613963" lon="14.0275465"><ele>287.0</ele><time>2026-05-03T11:29:38.488Z</time></trkpt><trkpt lat="42.2614172" lon="14.0276836"><ele>290.2</ele><time>2026-05-03T11:29:39.489Z</time></trkpt><trkpt lat="42.2614476" lon="14.0278044"><ele>293.4</ele><time>2026-05-03T11:29:40.486Z</time></trkpt><trkpt lat="42.2614935" lon="14.027911"><ele>296.6</ele><time>2026-05-03T11:29:41.493Z</time></trkpt><trkpt lat="42.2615561" lon="14.0280055"><ele>299.8</ele><time>2026-05-03T11:29:42.489Z</time></trkpt><trkpt lat="42.2616358" lon="14.0280825"><ele>303.0</ele><time>2026-05-03T11:29:43.488Z</time></trkpt><trkpt lat="42.2617171" lon="14.0281647"><ele>303.4</ele><time>2026-05-03T11:29:44.482Z</time></trkpt><trkpt lat="42.2617925" lon="14.0282682"><ele>303.8</ele><time>2026-05-03T11:29:45.488Z</time></trkpt><trkpt lat="42.2618528" lon="14.0283866"><ele>304.2</ele><time>2026-05-03T11:29:46.489Z</time></trkpt><trkpt lat="42.2619078" lon="14.0285105"><ele>304.6</ele><time>2026-05-03T11:29:47.497Z</time></trkpt><trkpt lat="42.2619581" lon="14.0286227"><ele>305.0</ele><time>2026-05-03T11:29:48.491Z</time></trkpt><trkpt lat="42.2620029" lon="14.0287199"><ele>305.6666666666667</ele><time>2026-05-03T11:29:49.49Z</time></trkpt><trkpt lat="42.2620335" lon="14.0288053"><ele>306.33333333333337</ele><time>2026-05-03T11:29:50.496Z</time></trkpt><trkpt lat="42.2620943" lon="14.0288935"><ele>307.0</ele><time>2026-05-03T11:29:52.493Z</time></trkpt><trkpt lat="42.2621986" lon="14.0288731"><ele>307.6666666666667</ele><time>2026-05-03T11:29:54.498Z</time></trkpt><trkpt lat="42.2622567" lon="14.0287955"><ele>308.3333333333333</ele><time>2026-05-03T11:29:55.493Z</time></trkpt><trkpt lat="42.262319" lon="14.0286891"><ele>309.0</ele><time>2026-05-03T11:29:56.488Z</time></trkpt><trkpt lat="42.2623779" lon="14.02858"><ele>309.0</ele><time>2026-05-03T11:29:57.489Z</time></trkpt><trkpt lat="42.2624346" lon="14.0284865"><ele>309.0</ele><time>2026-05-03T11:29:58.494Z</time></trkpt><trkpt lat="42.2624821" lon="14.0284271"><ele>309.0</ele><time>2026-05-03T11:29:59.485Z</time></trkpt><trkpt lat="42.2626105" lon="14.0284389"><ele>309.0</ele><time>2026-05-03T11:30:01.479Z</time></trkpt><trkpt lat="42.2626812" lon="14.0285011"><ele>309.0</ele><time>2026-05-03T11:30:02.483Z</time></trkpt><trkpt lat="42.2627581" lon="14.028566"><ele>309.0</ele><time>2026-05-03T11:30:03.482Z</time></trkpt><trkpt lat="42.2628436" lon="14.0286337"><ele>309.0</ele><time>2026-05-03T11:30:04.485Z</time></trkpt><trkpt lat="42.2629407" lon="14.028687"><ele>309.0</ele><time>2026-05-03T11:30:05.485Z</time></trkpt><trkpt lat="42.2630378" lon="14.0287637"><ele>309.0</ele><time>2026-05-03T11:30:06.482Z</time></trkpt><trkpt lat="42.2631369" lon="14.0288443"><ele>309.0</ele><time>2026-05-03T11:30:07.48Z</time></trkpt><trkpt lat="42.2632376" lon="14.0289134"><ele>308.75</ele><time>2026-05-03T11:30:08.483Z</time></trkpt><trkpt lat="42.2633447" lon="14.0289754"><ele>308.5</ele><time>2026-05-03T11:30:09.487Z</time></trkpt><trkpt lat="42.2634466" lon="14.0290401"><ele>308.25</ele><time>2026-05-03T11:30:10.488Z</time></trkpt><trkpt lat="42.2635511" lon="14.0291108"><ele>308.0</ele><time>2026-05-03T11:30:11.485Z</time></trkpt><trkpt lat="42.263665" lon="14.0291744"><ele>308.0</ele><time>2026-05-03T11:30:12.487Z</time></trkpt><trkpt lat="42.2637839" lon="14.0292446"><ele>308.0</ele><time>2026-05-03T11:30:13.488Z</time></trkpt><trkpt lat="42.263907" lon="14.029316"><ele>308.0</ele><time>2026-05-03T11:30:14.493Z</time></trkpt><trkpt lat="42.2640348" lon="14.0293835"><ele>308.0</ele><time>2026-05-03T11:30:15.486Z</time></trkpt><trkpt lat="42.2641935" lon="14.0294262"><ele>307.5</ele><time>2026-05-03T11:30:16.487Z</time></trkpt><trkpt lat="42.2643293" lon="14.029454"><ele>307.0</ele><time>2026-05-03T11:30:17.491Z</time></trkpt><trkpt lat="42.2644648" lon="14.029468"><ele>306.5</ele><time>2026-05-03T11:30:18.494Z</time></trkpt><trkpt lat="42.2645957" lon="14.0294527"><ele>306.0</ele><time>2026-05-03T11:30:19.489Z</time></trkpt><trkpt lat="42.2647213" lon="14.0293957"><ele>306.0</ele><time>2026-05-03T11:30:20.492Z</time></trkpt><trkpt lat="42.2648491" lon="14.0293446"><ele>306.0</ele><time>2026-05-03T11:30:21.494Z</time></trkpt><trkpt lat="42.2649355" lon="14.0292997"><ele>306.0</ele><time>2026-05-03T11:30:22.491Z</time></trkpt><trkpt lat="42.2650165" lon="14.0292813"><ele>306.0</ele><time>2026-05-03T11:30:23.489Z</time></trkpt><trkpt lat="42.2650773" lon="14.0292577"><ele>306.0</ele><time>2026-05-03T11:30:24.491Z</time></trkpt><trkpt lat="42.2651936" lon="14.0292304"><ele>306.0</ele><time>2026-05-03T11:30:26.487Z</time></trkpt><trkpt lat="42.2652948" lon="14.0292119"><ele>306.0</ele><time>2026-05-03T11:30:28.489Z</time></trkpt><trkpt lat="42.2653891" lon="14.0292065"><ele>306.0</ele><time>2026-05-03T11:30:30.482Z</time></trkpt><trkpt lat="42.2654574" lon="14.0291511"><ele>306.0</ele><time>2026-05-03T11:30:33.484Z</time></trkpt><trkpt lat="42.2653973" lon="14.0290755"><ele>306.0</ele><time>2026-05-03T11:30:36.485Z</time></trkpt><trkpt lat="42.265281" lon="14.0291347"><ele>306.0</ele><time>2026-05-03T11:30:38.486Z</time></trkpt><trkpt lat="42.2652005" lon="14.0291657"><ele>306.0</ele><time>2026-05-03T11:30:39.49Z</time></trkpt><trkpt lat="42.2651197" lon="14.0291846"><ele>306.0</ele><time>2026-05-03T11:30:40.487Z</time></trkpt><trkpt lat="42.2650443" lon="14.0292097"><ele>306.0</ele><time>2026-05-03T11:30:41.487Z</time></trkpt><trkpt lat="42.2649756" lon="14.0293032"><ele>306.0</ele><time>2026-05-03T11:30:43.482Z</time></trkpt><trkpt lat="42.265014" lon="14.0294337"><ele>306.0</ele><time>2026-05-03T11:30:45.498Z</time></trkpt><trkpt lat="42.2650685" lon="14.0295368"><ele>306.0</ele><time>2026-05-03T11:30:46.489Z</time></trkpt><trkpt lat="42.2651297" lon="14.0296465"><ele>306.0</ele><time>2026-05-03T11:30:47.481Z</time></trkpt><trkpt lat="42.2651616" lon="14.0297718"><ele>306.0</ele><time>2026-05-03T11:30:48.484Z</time></trkpt><trkpt lat="42.2651739" lon="14.0298992"><ele>306.0</ele><time>2026-05-03T11:30:49.496Z</time></trkpt><trkpt lat="42.265174" lon="14.0300375"><ele>306.0</ele><time>2026-05-03T11:30:50.484Z</time></trkpt><trkpt lat="42.2651725" lon="14.0301881"><ele>306.3333333333333</ele><time>2026-05-03T11:30:51.488Z</time></trkpt><trkpt lat="42.2651635" lon="14.0303328"><ele>306.6666666666667</ele><time>2026-05-03T11:30:52.483Z</time></trkpt><trkpt lat="42.2651518" lon="14.0304366"><ele>307.0</ele><time>2026-05-03T11:30:53.493Z</time></trkpt><trkpt lat="42.2651155" lon="14.0305186"><ele>307.33333333333337</ele><time>2026-05-03T11:31:13.493Z</time></trkpt><trkpt lat="42.2650882" lon="14.0306133"><ele>307.6666666666667</ele><time>2026-05-03T11:31:27.494Z</time></trkpt><trkpt lat="42.265036" lon="14.0306871"><ele>308.0</ele><time>2026-05-03T11:31:29.482Z</time></trkpt><trkpt lat="42.2649665" lon="14.0307772"><ele>308.0</ele><time>2026-05-03T11:31:38.494Z</time></trkpt><trkpt lat="42.2650138" lon="14.0306614"><ele>308.0</ele><time>2026-05-03T11:31:42.479Z</time></trkpt><trkpt lat="42.2650909" lon="14.0305644"><ele>308.0</ele><time>2026-05-03T11:31:43.476Z</time></trkpt><trkpt lat="42.2651712" lon="14.030457"><ele>308.0</ele><time>2026-05-03T11:31:44.48Z</time></trkpt><trkpt lat="42.2652381" lon="14.0304921"><ele>308.0</ele><time>2026-05-03T11:31:49.489Z</time></trkpt><trkpt lat="42.2653294" lon="14.0305787"><ele>308.0</ele><time>2026-05-03T11:31:51.496Z</time></trkpt><trkpt lat="42.2653982" lon="14.0306763"><ele>308.0</ele><time>2026-05-03T11:31:53.492Z</time></trkpt><trkpt lat="42.2654302" lon="14.0307938"><ele>308.0</ele><time>2026-05-03T11:31:55.492Z</time></trkpt><trkpt lat="42.2654338" lon="14.0309271"><ele>308.0</ele><time>2026-05-03T11:31:57.492Z</time></trkpt><trkpt lat="42.2654529" lon="14.0310159"><ele>308.0</ele><time>2026-05-03T11:31:58.503Z</time></trkpt><trkpt lat="42.2654833" lon="14.0311099"><ele>308.0</ele><time>2026-05-03T11:31:59.491Z</time></trkpt><trkpt lat="42.2655234" lon="14.0312047"><ele>308.0</ele><time>2026-05-03T11:32:00.499Z</time></trkpt><trkpt lat="42.2655663" lon="14.0312962"><ele>308.0</ele><time>2026-05-03T11:32:01.489Z</time></trkpt><trkpt lat="42.265601" lon="14.0313863"><ele>308.0</ele><time>2026-05-03T11:32:02.49Z</time></trkpt><trkpt lat="42.2656295" lon="14.0314735"><ele>308.0</ele><time>2026-05-03T11:32:03.488Z</time></trkpt><trkpt lat="42.2656581" lon="14.0315579"><ele>308.0</ele><time>2026-05-03T11:32:04.497Z</time></trkpt><trkpt lat="42.2656922" lon="14.0316471"><ele>308.0</ele><time>2026-05-03T11:32:05.488Z</time></trkpt><trkpt lat="42.2657195" lon="14.0317398"><ele>308.0</ele><time>2026-05-03T11:32:06.491Z</time></trkpt><trkpt lat="42.2657408" lon="14.0318329"><ele>304.83333333333337</ele><time>2026-05-03T11:32:07.49Z</time></trkpt><trkpt lat="42.2657535" lon="14.0319254"><ele>301.6666666666667</ele><time>2026-05-03T11:32:08.491Z</time></trkpt><trkpt lat="42.2657682" lon="14.0320247"><ele>298.5</ele><time>2026-05-03T11:32:09.489Z</time></trkpt><trkpt lat="42.2657904" lon="14.0321228"><ele>295.3333333333333</ele><time>2026-05-03T11:32:10.489Z</time></trkpt><trkpt lat="42.2658223" lon="14.0322249"><ele>292.16666666666663</ele><time>2026-05-03T11:32:11.488Z</time></trkpt><trkpt lat="42.2658635" lon="14.0323302"><ele>289.0</ele><time>2026-05-03T11:32:12.491Z</time></trkpt><trkpt lat="42.2659123" lon="14.0324269"><ele>287.66666666666663</ele><time>2026-05-03T11:32:13.483Z</time></trkpt><trkpt lat="42.2659682" lon="14.0325104"><ele>286.3333333333333</ele><time>2026-05-03T11:32:14.492Z</time></trkpt><trkpt lat="42.2660292" lon="14.0325891"><ele>285.0</ele><time>2026-05-03T11:32:15.488Z</time></trkpt><trkpt lat="42.2660811" lon="14.0326722"><ele>283.6666666666667</ele><time>2026-05-03T11:32:16.49Z</time></trkpt><trkpt lat="42.2661338" lon="14.032754"><ele>282.33333333333337</ele><time>2026-05-03T11:32:17.489Z</time></trkpt><trkpt lat="42.2661891" lon="14.0328269"><ele>281.0</ele><time>2026-05-03T11:32:18.491Z</time></trkpt><trkpt lat="42.2662446" lon="14.03289"><ele>281.0</ele><time>2026-05-03T11:32:19.489Z</time></trkpt><trkpt lat="42.2662959" lon="14.0329424"><ele>281.0</ele><time>2026-05-03T11:32:20.481Z</time></trkpt><trkpt lat="42.2663963" lon="14.0329987"><ele>281.0</ele><time>2026-05-03T11:32:22.488Z</time></trkpt><trkpt lat="42.2664836" lon="14.0330269"><ele>281.0</ele><time>2026-05-03T11:32:24.48Z</time></trkpt><trkpt lat="42.2665431" lon="14.0329698"><ele>281.0</ele><time>2026-05-03T11:32:26.481Z</time></trkpt><trkpt lat="42.2666267" lon="14.0328712"><ele>281.0</ele><time>2026-05-03T11:32:28.48Z</time></trkpt><trkpt lat="42.2667011" lon="14.0327667"><ele>279.00000000000006</ele><time>2026-05-03T11:32:30.484Z</time></trkpt><trkpt lat="42.2667467" lon="14.0326923"><ele>277.0</ele><time>2026-05-03T11:32:34.481Z</time></trkpt><trkpt lat="42.2668249" lon="14.032704"><ele>275.0</ele><time>2026-05-03T11:32:41.474Z</time></trkpt><trkpt lat="42.2668242" lon="14.032812"><ele>273.0</ele><time>2026-05-03T11:32:43.474Z</time></trkpt><trkpt lat="42.2668128" lon="14.0329076"><ele>271.0</ele><time>2026-05-03T11:32:44.478Z</time></trkpt><trkpt lat="42.2668099" lon="14.033"><ele>269.00000000000006</ele><time>2026-05-03T11:32:45.475Z</time></trkpt><trkpt lat="42.266807" lon="14.033101"><ele>267.0</ele><time>2026-05-03T11:32:46.476Z</time></trkpt><trkpt lat="42.2667978" lon="14.0332123"><ele>265.0</ele><time>2026-05-03T11:32:47.477Z</time></trkpt><trkpt lat="42.2667951" lon="14.0333282"><ele>263.0</ele><time>2026-05-03T11:32:48.48Z</time></trkpt><trkpt lat="42.2667892" lon="14.0334459"><ele>261.0</ele><time>2026-05-03T11:32:49.48Z</time></trkpt><trkpt lat="42.2667775" lon="14.0335543"><ele>259.0</ele><time>2026-05-03T11:32:50.475Z</time></trkpt><trkpt lat="42.2667627" lon="14.0336536"><ele>257.0</ele><time>2026-05-03T11:32:51.478Z</time></trkpt><trkpt lat="42.2667447" lon="14.0337368"><ele>255.0</ele><time>2026-05-03T11:32:52.478Z</time></trkpt><trkpt lat="42.2667205" lon="14.0338984"><ele>255.0</ele><time>2026-05-03T11:32:54.472Z</time></trkpt><trkpt lat="42.2668008" lon="14.0339859"><ele>255.0</ele><time>2026-05-03T11:33:12.478Z</time></trkpt><trkpt lat="42.2668431" lon="14.0340636"><ele>255.0</ele><time>2026-05-03T11:33:13.473Z</time></trkpt><trkpt lat="42.2669082" lon="14.0341576"><ele>255.0</ele><time>2026-05-03T11:33:14.479Z</time></trkpt><trkpt lat="42.2669709" lon="14.0342516"><ele>255.0</ele><time>2026-05-03T11:33:15.474Z</time></trkpt><trkpt lat="42.2670321" lon="14.0343496"><ele>253.5</ele><time>2026-05-03T11:33:16.479Z</time></trkpt><trkpt lat="42.2670921" lon="14.0344496"><ele>252.0</ele><time>2026-05-03T11:33:17.475Z</time></trkpt><trkpt lat="42.2671507" lon="14.0345395"><ele>250.5</ele><time>2026-05-03T11:33:18.477Z</time></trkpt><trkpt lat="42.2672003" lon="14.0346256"><ele>249.0</ele><time>2026-05-03T11:33:19.475Z</time></trkpt><trkpt lat="42.267245" lon="14.0347015"><ele>247.5</ele><time>2026-05-03T11:33:20.48Z</time></trkpt><trkpt lat="42.2672883" lon="14.0347764"><ele>246.0</ele><time>2026-05-03T11:33:21.477Z</time></trkpt><trkpt lat="42.2673258" lon="14.0348607"><ele>246.0</ele><time>2026-05-03T11:33:22.475Z</time></trkpt><trkpt lat="42.2673557" lon="14.0349452"><ele>246.00000000000003</ele><time>2026-05-03T11:33:23.472Z</time></trkpt><trkpt lat="42.2673854" lon="14.0350841"><ele>246.00000000000003</ele><time>2026-05-03T11:33:25.479Z</time></trkpt><trkpt lat="42.2673853" lon="14.0352254"><ele>246.0</ele><time>2026-05-03T11:33:27.477Z</time></trkpt><trkpt lat="42.2673791" lon="14.0353795"><ele>246.0</ele><time>2026-05-03T11:33:29.479Z</time></trkpt><trkpt lat="42.2673749" lon="14.035537"><ele>244.20000000000002</ele><time>2026-05-03T11:33:31.478Z</time></trkpt><trkpt lat="42.2673736" lon="14.0357021"><ele>242.40000000000003</ele><time>2026-05-03T11:33:33.473Z</time></trkpt><trkpt lat="42.2673516" lon="14.0358591"><ele>240.6</ele><time>2026-05-03T11:33:35.471Z</time></trkpt><trkpt lat="42.2673197" lon="14.0359589"><ele>238.8</ele><time>2026-05-03T11:33:37.478Z</time></trkpt><trkpt lat="42.2673068" lon="14.0360646"><ele>237.0</ele><time>2026-05-03T11:33:40.473Z</time></trkpt><trkpt lat="42.2673586" lon="14.036158"><ele>234.6</ele><time>2026-05-03T11:33:42.465Z</time></trkpt><trkpt lat="42.267442" lon="14.0362444"><ele>232.2</ele><time>2026-05-03T11:33:44.471Z</time></trkpt><trkpt lat="42.2675304" lon="14.0363517"><ele>229.8</ele><time>2026-05-03T11:33:46.471Z</time></trkpt><trkpt lat="42.2675724" lon="14.0364183"><ele>227.4</ele><time>2026-05-03T11:33:47.466Z</time></trkpt><trkpt lat="42.2676308" lon="14.0365411"><ele>225.0</ele><time>2026-05-03T11:33:49.467Z</time></trkpt><trkpt lat="42.2676675" lon="14.036612"><ele>225.0</ele><time>2026-05-03T11:33:51.47Z</time></trkpt><trkpt lat="42.2677017" lon="14.0366855"><ele>225.0</ele><time>2026-05-03T11:34:27.481Z</time></trkpt><trkpt lat="42.2677589" lon="14.0367222"><ele>225.0</ele><time>2026-05-03T11:34:41.482Z</time></trkpt><trkpt lat="42.2678203" lon="14.0366536"><ele>225.0</ele><time>2026-05-03T11:34:44.487Z</time></trkpt><trkpt lat="42.2678827" lon="14.0366093"><ele>225.0</ele><time>2026-05-03T11:34:46.479Z</time></trkpt><trkpt lat="42.2679656" lon="14.0365689"><ele>225.0</ele><time>2026-05-03T11:34:48.482Z</time></trkpt><trkpt lat="42.2680606" lon="14.0365029"><ele>227.66666666666666</ele><time>2026-05-03T11:34:50.484Z</time></trkpt><trkpt lat="42.2681387" lon="14.0363926"><ele>230.33333333333331</ele><time>2026-05-03T11:34:52.483Z</time></trkpt><trkpt lat="42.2682123" lon="14.0363768"><ele>233.0</ele><time>2026-05-03T11:35:48.488Z</time></trkpt><trkpt lat="42.2682977" lon="14.036315"><ele>235.66666666666666</ele><time>2026-05-03T11:35:50.489Z</time></trkpt><trkpt lat="42.2683519" lon="14.0362533"><ele>238.33333333333331</ele><time>2026-05-03T11:38:07.488Z</time></trkpt><trkpt lat="42.2684127" lon="14.0362198"><ele>241.0</ele><time>2026-05-03T11:38:10.484Z</time></trkpt><trkpt lat="42.2685052" lon="14.0361736"><ele>240.99999999999997</ele><time>2026-05-03T11:38:12.484Z</time></trkpt><trkpt lat="42.2685697" lon="14.0361366"><ele>241.0</ele><time>2026-05-03T11:38:13.486Z</time></trkpt><trkpt lat="42.2686328" lon="14.0361118"><ele>241.0</ele><time>2026-05-03T11:38:14.499Z</time></trkpt><trkpt lat="42.2687083" lon="14.0360816"><ele>241.0</ele><time>2026-05-03T11:38:15.493Z</time></trkpt><trkpt lat="42.2687894" lon="14.0360663"><ele>240.99999999999997</ele><time>2026-05-03T11:38:16.486Z</time></trkpt><trkpt lat="42.2688713" lon="14.0360395"><ele>241.0</ele><time>2026-05-03T11:38:17.489Z</time></trkpt><trkpt lat="42.2689544" lon="14.0360129"><ele>242.16666666666666</ele><time>2026-05-03T11:38:18.488Z</time></trkpt><trkpt lat="42.2690215" lon="14.0359818"><ele>243.33333333333331</ele><time>2026-05-03T11:38:19.499Z</time></trkpt><trkpt lat="42.2690873" lon="14.0359518"><ele>244.5</ele><time>2026-05-03T11:38:20.492Z</time></trkpt><trkpt lat="42.2691917" lon="14.0359189"><ele>245.66666666666669</ele><time>2026-05-03T11:38:22.491Z</time></trkpt><trkpt lat="42.2693077" lon="14.0359504"><ele>246.83333333333334</ele><time>2026-05-03T11:38:24.491Z</time></trkpt><trkpt lat="42.2693897" lon="14.0359705"><ele>248.0</ele><time>2026-05-03T11:38:25.495Z</time></trkpt><trkpt lat="42.2694662" lon="14.0359932"><ele>248.0</ele><time>2026-05-03T11:38:26.495Z</time></trkpt><trkpt lat="42.2695457" lon="14.0360102"><ele>248.00000000000003</ele><time>2026-05-03T11:38:27.492Z</time></trkpt><trkpt lat="42.2696244" lon="14.0360475"><ele>248.0</ele><time>2026-05-03T11:38:28.5Z</time></trkpt><trkpt lat="42.2696976" lon="14.0360805"><ele>248.0</ele><time>2026-05-03T11:38:29.491Z</time></trkpt><trkpt lat="42.2697664" lon="14.0361051"><ele>248.00000000000003</ele><time>2026-05-03T11:38:30.502Z</time></trkpt><trkpt lat="42.2698287" lon="14.0361201"><ele>248.0</ele><time>2026-05-03T11:38:31.5Z</time></trkpt><trkpt lat="42.2698957" lon="14.0361341"><ele>248.0</ele><time>2026-05-03T11:38:32.496Z</time></trkpt><trkpt lat="42.2699602" lon="14.0361417"><ele>250.60000000000002</ele><time>2026-05-03T11:38:33.499Z</time></trkpt><trkpt lat="42.2700637" lon="14.0361877"><ele>253.20000000000002</ele><time>2026-05-03T11:38:35.496Z</time></trkpt><trkpt lat="42.2701672" lon="14.0362406"><ele>255.8</ele><time>2026-05-03T11:38:37.493Z</time></trkpt><trkpt lat="42.2702704" lon="14.0362795"><ele>258.40000000000003</ele><time>2026-05-03T11:38:39.5Z</time></trkpt><trkpt lat="42.2703822" lon="14.0362491"><ele>261.0</ele><time>2026-05-03T11:38:41.503Z</time></trkpt><trkpt lat="42.2704838" lon="14.0361906"><ele>261.0</ele><time>2026-05-03T11:38:43.497Z</time></trkpt><trkpt lat="42.2705783" lon="14.0361447"><ele>261.0</ele><time>2026-05-03T11:38:45.499Z</time></trkpt><trkpt lat="42.2706853" lon="14.0361246"><ele>261.0</ele><time>2026-05-03T11:38:47.494Z</time></trkpt><trkpt lat="42.2707876" lon="14.0361412"><ele>261.0</ele><time>2026-05-03T11:38:49.494Z</time></trkpt><trkpt lat="42.2709139" lon="14.036192"><ele>261.0</ele><time>2026-05-03T11:38:51.49Z</time></trkpt><trkpt lat="42.2709917" lon="14.0362193"><ele>259.6666666666667</ele><time>2026-05-03T11:38:52.49Z</time></trkpt><trkpt lat="42.2710646" lon="14.0362471"><ele>258.3333333333333</ele><time>2026-05-03T11:38:53.483Z</time></trkpt><trkpt lat="42.2711657" lon="14.036284"><ele>257.0</ele><time>2026-05-03T11:38:55.49Z</time></trkpt><trkpt lat="42.2712413" lon="14.0363029"><ele>255.66666666666666</ele><time>2026-05-03T11:38:58.495Z</time></trkpt><trkpt lat="42.2712962" lon="14.0362113"><ele>254.33333333333331</ele><time>2026-05-03T11:39:02.5Z</time></trkpt><trkpt lat="42.2713016" lon="14.0361102"><ele>253.0</ele><time>2026-05-03T11:39:04.501Z</time></trkpt><trkpt lat="42.2713296" lon="14.0360156"><ele>253.0</ele><time>2026-05-03T11:39:06.498Z</time></trkpt><trkpt lat="42.2713701" lon="14.0358381"><ele>253.0</ele><time>2026-05-03T11:39:08.49Z</time></trkpt><trkpt lat="42.2713929" lon="14.0357358"><ele>253.0</ele><time>2026-05-03T11:39:09.501Z</time></trkpt><trkpt lat="42.2714046" lon="14.0356311"><ele>253.0</ele><time>2026-05-03T11:39:10.5Z</time></trkpt><trkpt lat="42.2713977" lon="14.0355158"><ele>253.0</ele><time>2026-05-03T11:39:11.5Z</time></trkpt><trkpt lat="42.2713834" lon="14.0353825"><ele>253.16666666666666</ele><time>2026-05-03T11:39:12.5Z</time></trkpt><trkpt lat="42.2713774" lon="14.0352509"><ele>253.33333333333331</ele><time>2026-05-03T11:39:13.497Z</time></trkpt><trkpt lat="42.2713875" lon="14.0351239"><ele>253.5</ele><time>2026-05-03T11:39:14.496Z</time></trkpt><trkpt lat="42.2714055" lon="14.0350077"><ele>253.66666666666669</ele><time>2026-05-03T11:39:15.496Z</time></trkpt><trkpt lat="42.2714256" lon="14.0349117"><ele>253.83333333333334</ele><time>2026-05-03T11:39:16.499Z</time></trkpt><trkpt lat="42.2714558" lon="14.0348244"><ele>254.0</ele><time>2026-05-03T11:39:17.502Z</time></trkpt><trkpt lat="42.2714998" lon="14.034724"><ele>254.0</ele><time>2026-05-03T11:39:18.496Z</time></trkpt><trkpt lat="42.2715462" lon="14.0346001"><ele>253.99999999999997</ele><time>2026-05-03T11:39:19.497Z</time></trkpt><trkpt lat="42.2715904" lon="14.0344551"><ele>253.99999999999997</ele><time>2026-05-03T11:39:20.497Z</time></trkpt><trkpt lat="42.2716258" lon="14.0343127"><ele>254.0</ele><time>2026-05-03T11:39:21.496Z</time></trkpt><trkpt lat="42.271658" lon="14.0341691"><ele>254.0</ele><time>2026-05-03T11:39:22.494Z</time></trkpt><trkpt lat="42.2716807" lon="14.0340457"><ele>256.1666666666667</ele><time>2026-05-03T11:39:23.494Z</time></trkpt><trkpt lat="42.2716909" lon="14.0339441"><ele>258.33333333333337</ele><time>2026-05-03T11:39:24.497Z</time></trkpt><trkpt lat="42.2717101" lon="14.0338364"><ele>260.5</ele><time>2026-05-03T11:39:25.499Z</time></trkpt><trkpt lat="42.2717423" lon="14.033727"><ele>262.6666666666667</ele><time>2026-05-03T11:39:26.493Z</time></trkpt><trkpt lat="42.2717822" lon="14.0336123"><ele>264.8333333333333</ele><time>2026-05-03T11:39:27.493Z</time></trkpt><trkpt lat="42.2718141" lon="14.0334832"><ele>267.0</ele><time>2026-05-03T11:39:28.499Z</time></trkpt><trkpt lat="42.2718411" lon="14.0333689"><ele>269.1666666666667</ele><time>2026-05-03T11:39:29.489Z</time></trkpt><trkpt lat="42.2718504" lon="14.0332758"><ele>271.3333333333333</ele><time>2026-05-03T11:39:30.484Z</time></trkpt><trkpt lat="42.2718272" lon="14.033103"><ele>273.5</ele><time>2026-05-03T11:39:32.489Z</time></trkpt><trkpt lat="42.2718078" lon="14.0329994"><ele>275.66666666666663</ele><time>2026-05-03T11:39:33.481Z</time></trkpt><trkpt lat="42.2718101" lon="14.032902"><ele>277.8333333333333</ele><time>2026-05-03T11:39:34.478Z</time></trkpt><trkpt lat="42.271858" lon="14.0328056"><ele>280.0</ele><time>2026-05-03T11:39:36.487Z</time></trkpt><trkpt lat="42.2719669" lon="14.0328163"><ele>280.0</ele><time>2026-05-03T11:39:38.485Z</time></trkpt><trkpt lat="42.2720024" lon="14.0327142"><ele>280.0</ele><time>2026-05-03T11:39:41.489Z</time></trkpt><trkpt lat="42.2720048" lon="14.0325629"><ele>280.0</ele><time>2026-05-03T11:39:43.497Z</time></trkpt><trkpt lat="42.2720136" lon="14.032431"><ele>280.0</ele><time>2026-05-03T11:39:44.498Z</time></trkpt><trkpt lat="42.2720315" lon="14.0322723"><ele>280.0</ele><time>2026-05-03T11:39:45.498Z</time></trkpt><trkpt lat="42.2720517" lon="14.0321238"><ele>282.0</ele><time>2026-05-03T11:39:46.497Z</time></trkpt><trkpt lat="42.2720693" lon="14.0319943"><ele>284.0</ele><time>2026-05-03T11:39:47.498Z</time></trkpt><trkpt lat="42.2720857" lon="14.0318844"><ele>286.0</ele><time>2026-05-03T11:39:48.495Z</time></trkpt><trkpt lat="42.2721057" lon="14.0317115"><ele>288.0</ele><time>2026-05-03T11:39:50.512Z</time></trkpt><trkpt lat="42.2721092" lon="14.0316078"><ele>290.0</ele><time>2026-05-03T11:39:51.512Z</time></trkpt><trkpt lat="42.2721211" lon="14.0314638"><ele>289.8</ele><time>2026-05-03T11:39:53.506Z</time></trkpt><trkpt lat="42.2721476" lon="14.0313284"><ele>289.6</ele><time>2026-05-03T11:39:55.505Z</time></trkpt><trkpt lat="42.2721898" lon="14.0311879"><ele>289.4</ele><time>2026-05-03T11:39:57.503Z</time></trkpt><trkpt lat="42.272231" lon="14.0310209"><ele>289.2</ele><time>2026-05-03T11:39:59.498Z</time></trkpt><trkpt lat="42.2722693" lon="14.0309029"><ele>289.0</ele><time>2026-05-03T11:40:01.497Z</time></trkpt><trkpt lat="42.2723608" lon="14.0308737"><ele>289.0</ele><time>2026-05-03T11:40:06.491Z</time></trkpt><trkpt lat="42.2724367" lon="14.0308649"><ele>289.0</ele><time>2026-05-03T11:40:07.485Z</time></trkpt><trkpt lat="42.2725296" lon="14.0308568"><ele>289.0</ele><time>2026-05-03T11:40:08.49Z</time></trkpt><trkpt lat="42.2726354" lon="14.0308405"><ele>289.0</ele><time>2026-05-03T11:40:09.494Z</time></trkpt><trkpt lat="42.2727627" lon="14.0308189"><ele>289.0</ele><time>2026-05-03T11:40:10.491Z</time></trkpt><trkpt lat="42.2728771" lon="14.0308025"><ele>287.4</ele><time>2026-05-03T11:40:11.494Z</time></trkpt><trkpt lat="42.2729895" lon="14.0307789"><ele>285.79999999999995</ele><time>2026-05-03T11:40:12.488Z</time></trkpt><trkpt lat="42.2730959" lon="14.0307718"><ele>284.20000000000005</ele><time>2026-05-03T11:40:13.482Z</time></trkpt><trkpt lat="42.2732078" lon="14.0307785"><ele>282.6</ele><time>2026-05-03T11:40:14.479Z</time></trkpt><trkpt lat="42.2733211" lon="14.030815"><ele>281.0</ele><time>2026-05-03T11:40:15.48Z</time></trkpt><trkpt lat="42.2734278" lon="14.0308667"><ele>281.0</ele><time>2026-05-03T11:40:16.48Z</time></trkpt><trkpt lat="42.2735409" lon="14.0309316"><ele>281.0</ele><time>2026-05-03T11:40:17.481Z</time></trkpt><trkpt lat="42.2736535" lon="14.0310122"><ele>281.0</ele><time>2026-05-03T11:40:18.48Z</time></trkpt><trkpt lat="42.2737575" lon="14.031092"><ele>281.0</ele><time>2026-05-03T11:40:19.48Z</time></trkpt><trkpt lat="42.2738637" lon="14.0311908"><ele>280.25</ele><time>2026-05-03T11:40:20.476Z</time></trkpt><trkpt lat="42.2739744" lon="14.0313093"><ele>279.5</ele><time>2026-05-03T11:40:21.475Z</time></trkpt><trkpt lat="42.2740762" lon="14.0314367"><ele>278.75</ele><time>2026-05-03T11:40:22.475Z</time></trkpt><trkpt lat="42.2741698" lon="14.0315583"><ele>278.0</ele><time>2026-05-03T11:40:23.473Z</time></trkpt><trkpt lat="42.2742554" lon="14.0316687"><ele>278.0</ele><time>2026-05-03T11:40:24.479Z</time></trkpt><trkpt lat="42.2743424" lon="14.0317602"><ele>278.0</ele><time>2026-05-03T11:40:25.473Z</time></trkpt><trkpt lat="42.2744307" lon="14.0318438"><ele>278.0</ele><time>2026-05-03T11:40:26.472Z</time></trkpt><trkpt lat="42.2745275" lon="14.0318785"><ele>278.0</ele><time>2026-05-03T11:40:27.475Z</time></trkpt><trkpt lat="42.2746431" lon="14.0318415"><ele>278.0</ele><time>2026-05-03T11:40:28.47Z</time></trkpt><trkpt lat="42.274778" lon="14.0317721"><ele>277.25</ele><time>2026-05-03T11:40:29.468Z</time></trkpt><trkpt lat="42.2749096" lon="14.0317001"><ele>276.5</ele><time>2026-05-03T11:40:30.476Z</time></trkpt><trkpt lat="42.2750347" lon="14.0316262"><ele>275.75</ele><time>2026-05-03T11:40:31.467Z</time></trkpt><trkpt lat="42.2751532" lon="14.0315576"><ele>275.0</ele><time>2026-05-03T11:40:32.464Z</time></trkpt><trkpt lat="42.275268" lon="14.0314863"><ele>269.25</ele><time>2026-05-03T11:40:33.468Z</time></trkpt><trkpt lat="42.2753826" lon="14.0314146"><ele>263.5</ele><time>2026-05-03T11:40:34.472Z</time></trkpt><trkpt lat="42.2755005" lon="14.0313388"><ele>257.75</ele><time>2026-05-03T11:40:35.466Z</time></trkpt><trkpt lat="42.275618" lon="14.0312607"><ele>252.0</ele><time>2026-05-03T11:40:36.474Z</time></trkpt><trkpt lat="42.2757378" lon="14.0311834"><ele>252.0</ele><time>2026-05-03T11:40:37.469Z</time></trkpt><trkpt lat="42.2758576" lon="14.0311084"><ele>252.0</ele><time>2026-05-03T11:40:38.471Z</time></trkpt><trkpt lat="42.2759744" lon="14.0310393"><ele>252.0</ele><time>2026-05-03T11:40:39.467Z</time></trkpt><trkpt lat="42.2760874" lon="14.030977"><ele>252.0</ele><time>2026-05-03T11:40:40.47Z</time></trkpt><trkpt lat="42.2761962" lon="14.0309393"><ele>252.0</ele><time>2026-05-03T11:40:41.472Z</time></trkpt><trkpt lat="42.2763067" lon="14.0309409"><ele>252.0</ele><time>2026-05-03T11:40:42.472Z</time></trkpt><trkpt lat="42.2764134" lon="14.0309815"><ele>252.0</ele><time>2026-05-03T11:40:43.474Z</time></trkpt><trkpt lat="42.2765142" lon="14.0310598"><ele>252.0</ele><time>2026-05-03T11:40:44.484Z</time></trkpt><trkpt lat="42.276608" lon="14.0311795"><ele>253.0</ele><time>2026-05-03T11:40:45.476Z</time></trkpt><trkpt lat="42.2766949" lon="14.0313371"><ele>254.0</ele><time>2026-05-03T11:40:46.472Z</time></trkpt><trkpt lat="42.2767722" lon="14.0315447"><ele>255.0</ele><time>2026-05-03T11:40:47.481Z</time></trkpt><trkpt lat="42.27685" lon="14.0317482"><ele>255.0</ele><time>2026-05-03T11:40:48.483Z</time></trkpt><trkpt lat="42.2769484" lon="14.0319616"><ele>255.0</ele><time>2026-05-03T11:40:49.476Z</time></trkpt><trkpt lat="42.2770316" lon="14.0321506"><ele>255.0</ele><time>2026-05-03T11:40:50.482Z</time></trkpt><trkpt lat="42.2771293" lon="14.0323222"><ele>255.0</ele><time>2026-05-03T11:40:51.485Z</time></trkpt><trkpt lat="42.2772444" lon="14.0324696"><ele>255.0</ele><time>2026-05-03T11:40:52.481Z</time></trkpt><trkpt lat="42.2773478" lon="14.0326019"><ele>255.0</ele><time>2026-05-03T11:40:53.488Z</time></trkpt><trkpt lat="42.2774346" lon="14.0327462"><ele>255.0</ele><time>2026-05-03T11:40:54.487Z</time></trkpt><trkpt lat="42.277518" lon="14.0328863"><ele>252.25</ele><time>2026-05-03T11:40:55.494Z</time></trkpt><trkpt lat="42.2775991" lon="14.033021"><ele>249.5</ele><time>2026-05-03T11:40:56.489Z</time></trkpt><trkpt lat="42.2776858" lon="14.0331645"><ele>246.75</ele><time>2026-05-03T11:40:57.494Z</time></trkpt><trkpt lat="42.2777626" lon="14.0332828"><ele>244.0</ele><time>2026-05-03T11:40:58.495Z</time></trkpt><trkpt lat="42.2778366" lon="14.0333967"><ele>244.0</ele><time>2026-05-03T11:40:59.492Z</time></trkpt><trkpt lat="42.2778947" lon="14.03349"><ele>243.99999999999997</ele><time>2026-05-03T11:41:00.497Z</time></trkpt><trkpt lat="42.2779744" lon="14.0336087"><ele>243.99999999999997</ele><time>2026-05-03T11:41:02.483Z</time></trkpt><trkpt lat="42.2780148" lon="14.0336907"><ele>244.0</ele><time>2026-05-03T11:41:14.499Z</time></trkpt><trkpt lat="42.2780874" lon="14.0338427"><ele>244.0</ele><time>2026-05-03T11:41:16.495Z</time></trkpt><trkpt lat="42.2781436" lon="14.0339741"><ele>240.5</ele><time>2026-05-03T11:41:17.491Z</time></trkpt><trkpt lat="42.278199" lon="14.0341168"><ele>237.0</ele><time>2026-05-03T11:41:18.486Z</time></trkpt><trkpt lat="42.2782669" lon="14.0342635"><ele>233.5</ele><time>2026-05-03T11:41:19.499Z</time></trkpt><trkpt lat="42.2783365" lon="14.0344022"><ele>230.0</ele><time>2026-05-03T11:41:20.496Z</time></trkpt><trkpt lat="42.2783995" lon="14.0345313"><ele>230.0</ele><time>2026-05-03T11:41:21.495Z</time></trkpt><trkpt lat="42.2784591" lon="14.0346657"><ele>230.0</ele><time>2026-05-03T11:41:22.495Z</time></trkpt><trkpt lat="42.2785143" lon="14.0348007"><ele>230.0</ele><time>2026-05-03T11:41:23.497Z</time></trkpt><trkpt lat="42.278581" lon="14.0349195"><ele>230.0</ele><time>2026-05-03T11:41:24.492Z</time></trkpt><trkpt lat="42.2786602" lon="14.0350297"><ele>230.5</ele><time>2026-05-03T11:41:25.491Z</time></trkpt><trkpt lat="42.2787598" lon="14.0351366"><ele>231.0</ele><time>2026-05-03T11:41:26.495Z</time></trkpt><trkpt lat="42.2788685" lon="14.0352458"><ele>231.5</ele><time>2026-05-03T11:41:27.503Z</time></trkpt><trkpt lat="42.2789698" lon="14.035369"><ele>232.0</ele><time>2026-05-03T11:41:28.501Z</time></trkpt><trkpt lat="42.2790686" lon="14.035499"><ele>230.0</ele><time>2026-05-03T11:41:29.5Z</time></trkpt><trkpt lat="42.2791658" lon="14.0356293"><ele>228.0</ele><time>2026-05-03T11:41:30.498Z</time></trkpt><trkpt lat="42.2792585" lon="14.0357758"><ele>226.0</ele><time>2026-05-03T11:41:31.492Z</time></trkpt><trkpt lat="42.2793204" lon="14.0359591"><ele>224.0</ele><time>2026-05-03T11:41:32.495Z</time></trkpt><trkpt lat="42.2793883" lon="14.0361145"><ele>224.0</ele><time>2026-05-03T11:41:33.501Z</time></trkpt><trkpt lat="42.2794521" lon="14.0363014"><ele>224.0</ele><time>2026-05-03T11:41:34.503Z</time></trkpt><trkpt lat="42.2795366" lon="14.0364633"><ele>224.0</ele><time>2026-05-03T11:41:35.5Z</time></trkpt><trkpt lat="42.2796165" lon="14.0366484"><ele>224.0</ele><time>2026-05-03T11:41:36.505Z</time></trkpt><trkpt lat="42.2796864" lon="14.0368038"><ele>224.0</ele><time>2026-05-03T11:41:37.5Z</time></trkpt><trkpt lat="42.2797732" lon="14.0369468"><ele>224.0</ele><time>2026-05-03T11:41:38.509Z</time></trkpt><trkpt lat="42.2798468" lon="14.0370859"><ele>224.0</ele><time>2026-05-03T11:41:39.509Z</time></trkpt><trkpt lat="42.2799165" lon="14.0372126"><ele>223.25</ele><time>2026-05-03T11:41:40.509Z</time></trkpt><trkpt lat="42.2799869" lon="14.0373521"><ele>222.5</ele><time>2026-05-03T11:41:41.5Z</time></trkpt><trkpt lat="42.280045" lon="14.0374974"><ele>221.75</ele><time>2026-05-03T11:41:42.503Z</time></trkpt><trkpt lat="42.2801087" lon="14.0376426"><ele>221.0</ele><time>2026-05-03T11:41:43.51Z</time></trkpt><trkpt lat="42.280179" lon="14.0377823"><ele>221.0</ele><time>2026-05-03T11:41:44.506Z</time></trkpt><trkpt lat="42.2802551" lon="14.0379288"><ele>221.0</ele><time>2026-05-03T11:41:45.513Z</time></trkpt><trkpt lat="42.2803394" lon="14.0380789"><ele>221.0</ele><time>2026-05-03T11:41:46.505Z</time></trkpt><trkpt lat="42.2804509" lon="14.0382184"><ele>221.0</ele><time>2026-05-03T11:41:47.504Z</time></trkpt><trkpt lat="42.2805506" lon="14.0383903"><ele>219.0</ele><time>2026-05-03T11:41:48.507Z</time></trkpt><trkpt lat="42.2806648" lon="14.0385324"><ele>217.0</ele><time>2026-05-03T11:41:49.505Z</time></trkpt><trkpt lat="42.2807678" lon="14.038659"><ele>215.0</ele><time>2026-05-03T11:41:50.508Z</time></trkpt><trkpt lat="42.2808642" lon="14.0387921"><ele>213.0</ele><time>2026-05-03T11:41:51.507Z</time></trkpt><trkpt lat="42.2809609" lon="14.0389129"><ele>213.0</ele><time>2026-05-03T11:41:52.504Z</time></trkpt><trkpt lat="42.2810756" lon="14.0390389"><ele>213.0</ele><time>2026-05-03T11:41:53.506Z</time></trkpt><trkpt lat="42.2812033" lon="14.0391705"><ele>213.0</ele><time>2026-05-03T11:41:54.507Z</time></trkpt><trkpt lat="42.2813368" lon="14.0392885"><ele>212.66666666666669</ele><time>2026-05-03T11:41:55.511Z</time></trkpt><trkpt lat="42.2814753" lon="14.0393858"><ele>212.33333333333334</ele><time>2026-05-03T11:41:56.506Z</time></trkpt><trkpt lat="42.2816345" lon="14.0394768"><ele>212.0</ele><time>2026-05-03T11:41:57.504Z</time></trkpt><trkpt lat="42.281788" lon="14.0395641"><ele>212.0</ele><time>2026-05-03T11:41:58.51Z</time></trkpt><trkpt lat="42.2819313" lon="14.0396356"><ele>212.0</ele><time>2026-05-03T11:41:59.501Z</time></trkpt><trkpt lat="42.2820618" lon="14.0397088"><ele>212.0</ele><time>2026-05-03T11:42:00.505Z</time></trkpt><trkpt lat="42.2821912" lon="14.0397914"><ele>212.0</ele><time>2026-05-03T11:42:01.505Z</time></trkpt><trkpt lat="42.2823268" lon="14.0399128"><ele>211.0</ele><time>2026-05-03T11:42:02.503Z</time></trkpt><trkpt lat="42.2824259" lon="14.040055"><ele>210.0</ele><time>2026-05-03T11:42:03.503Z</time></trkpt><trkpt lat="42.2825286" lon="14.0401849"><ele>209.0</ele><time>2026-05-03T11:42:04.496Z</time></trkpt><trkpt lat="42.2826149" lon="14.0403278"><ele>208.0</ele><time>2026-05-03T11:42:05.505Z</time></trkpt><trkpt lat="42.2827086" lon="14.0404568"><ele>208.0</ele><time>2026-05-03T11:42:06.507Z</time></trkpt><trkpt lat="42.282792" lon="14.0405884"><ele>208.0</ele><time>2026-05-03T11:42:07.507Z</time></trkpt><trkpt lat="42.2828586" lon="14.0407344"><ele>208.0</ele><time>2026-05-03T11:42:08.504Z</time></trkpt><trkpt lat="42.282916" lon="14.0408889"><ele>208.0</ele><time>2026-05-03T11:42:09.503Z</time></trkpt><trkpt lat="42.2829552" lon="14.0410395"><ele>207.0</ele><time>2026-05-03T11:42:10.502Z</time></trkpt><trkpt lat="42.2829957" lon="14.0411985"><ele>206.0</ele><time>2026-05-03T11:42:11.508Z</time></trkpt><trkpt lat="42.2830581" lon="14.0413439"><ele>205.0</ele><time>2026-05-03T11:42:12.496Z</time></trkpt><trkpt lat="42.2831348" lon="14.0414404"><ele>204.0</ele><time>2026-05-03T11:42:13.505Z</time></trkpt><trkpt lat="42.2832094" lon="14.0415226"><ele>204.0</ele><time>2026-05-03T11:42:14.505Z</time></trkpt><trkpt lat="42.2833047" lon="14.0415804"><ele>204.0</ele><time>2026-05-03T11:42:15.507Z</time></trkpt><trkpt lat="42.2834261" lon="14.0416035"><ele>204.0</ele><time>2026-05-03T11:42:16.51Z</time></trkpt><trkpt lat="42.283569" lon="14.0416101"><ele>204.0</ele><time>2026-05-03T11:42:17.504Z</time></trkpt><trkpt lat="42.2837099" lon="14.0416168"><ele>204.0</ele><time>2026-05-03T11:42:18.5Z</time></trkpt><trkpt lat="42.2838592" lon="14.0416265"><ele>204.0</ele><time>2026-05-03T11:42:19.493Z</time></trkpt><trkpt lat="42.2840221" lon="14.0416942"><ele>204.0</ele><time>2026-05-03T11:42:20.485Z</time></trkpt><trkpt lat="42.2841628" lon="14.0417605"><ele>201.75</ele><time>2026-05-03T11:42:21.501Z</time></trkpt><trkpt lat="42.2842988" lon="14.0418345"><ele>199.5</ele><time>2026-05-03T11:42:22.503Z</time></trkpt><trkpt lat="42.2844453" lon="14.0418774"><ele>197.25</ele><time>2026-05-03T11:42:23.5Z</time></trkpt><trkpt lat="42.284588" lon="14.0419241"><ele>195.0</ele><time>2026-05-03T11:42:24.498Z</time></trkpt><trkpt lat="42.2847325" lon="14.0419773"><ele>192.75</ele><time>2026-05-03T11:42:25.502Z</time></trkpt><trkpt lat="42.2848761" lon="14.042004"><ele>190.5</ele><time>2026-05-03T11:42:26.5Z</time></trkpt><trkpt lat="42.2850102" lon="14.0420514"><ele>188.25</ele><time>2026-05-03T11:42:27.499Z</time></trkpt><trkpt lat="42.285146" lon="14.0421189"><ele>186.0</ele><time>2026-05-03T11:42:28.504Z</time></trkpt><trkpt lat="42.2852868" lon="14.0421752"><ele>186.0</ele><time>2026-05-03T11:42:29.5Z</time></trkpt><trkpt lat="42.285426" lon="14.0422334"><ele>186.0</ele><time>2026-05-03T11:42:30.501Z</time></trkpt><trkpt lat="42.285565" lon="14.0422944"><ele>186.0</ele><time>2026-05-03T11:42:31.499Z</time></trkpt><trkpt lat="42.2857459" lon="14.042321"><ele>185.25</ele><time>2026-05-03T11:42:32.501Z</time></trkpt><trkpt lat="42.2858948" lon="14.0423056"><ele>184.5</ele><time>2026-05-03T11:42:33.501Z</time></trkpt><trkpt lat="42.2860454" lon="14.0423221"><ele>183.75</ele><time>2026-05-03T11:42:34.495Z</time></trkpt><trkpt lat="42.2861713" lon="14.042352"><ele>183.0</ele><time>2026-05-03T11:42:35.498Z</time></trkpt><trkpt lat="42.2863052" lon="14.0423696"><ele>183.0</ele><time>2026-05-03T11:42:36.496Z</time></trkpt><trkpt lat="42.286419" lon="14.0424133"><ele>183.0</ele><time>2026-05-03T11:42:37.496Z</time></trkpt><trkpt lat="42.2865508" lon="14.0424524"><ele>183.0</ele><time>2026-05-03T11:42:38.5Z</time></trkpt><trkpt lat="42.2867012" lon="14.0424964"><ele>183.0</ele><time>2026-05-03T11:42:39.495Z</time></trkpt><trkpt lat="42.2868353" lon="14.042541"><ele>179.75</ele><time>2026-05-03T11:42:40.494Z</time></trkpt><trkpt lat="42.2869653" lon="14.0425983"><ele>176.5</ele><time>2026-05-03T11:42:41.497Z</time></trkpt><trkpt lat="42.2870937" lon="14.042654"><ele>173.25</ele><time>2026-05-03T11:42:42.491Z</time></trkpt><trkpt lat="42.2872342" lon="14.0426891"><ele>170.0</ele><time>2026-05-03T11:42:43.492Z</time></trkpt><trkpt lat="42.2873896" lon="14.0427288"><ele>168.66666666666666</ele><time>2026-05-03T11:42:44.496Z</time></trkpt><trkpt lat="42.2875515" lon="14.0427611"><ele>167.33333333333334</ele><time>2026-05-03T11:42:45.501Z</time></trkpt><trkpt lat="42.28771" lon="14.0427847"><ele>166.0</ele><time>2026-05-03T11:42:46.495Z</time></trkpt><trkpt lat="42.2878701" lon="14.0428075"><ele>166.0</ele><time>2026-05-03T11:42:47.501Z</time></trkpt><trkpt lat="42.2880238" lon="14.0428073"><ele>166.0</ele><time>2026-05-03T11:42:48.501Z</time></trkpt><trkpt lat="42.2881885" lon="14.0428158"><ele>166.0</ele><time>2026-05-03T11:42:49.495Z</time></trkpt><trkpt lat="42.2883308" lon="14.0428477"><ele>164.0</ele><time>2026-05-03T11:42:50.489Z</time></trkpt><trkpt lat="42.2884742" lon="14.0428679"><ele>162.0</ele><time>2026-05-03T11:42:51.494Z</time></trkpt><trkpt lat="42.2886303" lon="14.0428478"><ele>160.0</ele><time>2026-05-03T11:42:52.497Z</time></trkpt><trkpt lat="42.2887773" lon="14.0428378"><ele>158.0</ele><time>2026-05-03T11:42:53.491Z</time></trkpt><trkpt lat="42.2889186" lon="14.0428285"><ele>156.5</ele><time>2026-05-03T11:42:54.492Z</time></trkpt><trkpt lat="42.2890358" lon="14.0428199"><ele>155.0</ele><time>2026-05-03T11:42:55.488Z</time></trkpt><trkpt lat="42.2891208" lon="14.0428068"><ele>153.5</ele><time>2026-05-03T11:42:56.486Z</time></trkpt><trkpt lat="42.2891964" lon="14.0427897"><ele>152.0</ele><time>2026-05-03T11:42:57.491Z</time></trkpt><trkpt lat="42.2892821" lon="14.0428174"><ele>150.5</ele><time>2026-05-03T11:42:58.493Z</time></trkpt><trkpt lat="42.2893301" lon="14.0428773"><ele>149.0</ele><time>2026-05-03T11:42:59.487Z</time></trkpt><trkpt lat="42.2893149" lon="14.0429847"><ele>149.0</ele><time>2026-05-03T11:43:01.489Z</time></trkpt><trkpt lat="42.2892212" lon="14.0430389"><ele>149.0</ele><time>2026-05-03T11:43:03.487Z</time></trkpt><trkpt lat="42.2891079" lon="14.0430598"><ele>149.0</ele><time>2026-05-03T11:43:05.491Z</time></trkpt><trkpt lat="42.2890693" lon="14.0431758"><ele>149.0</ele><time>2026-05-03T11:43:07.494Z</time></trkpt><trkpt lat="42.2891782" lon="14.0432682"><ele>149.0</ele><time>2026-05-03T11:43:09.484Z</time></trkpt><trkpt lat="42.2892882" lon="14.0432957"><ele>149.0</ele><time>2026-05-03T11:43:10.482Z</time></trkpt><trkpt lat="42.2894174" lon="14.0432873"><ele>149.0</ele><time>2026-05-03T11:43:11.48Z</time></trkpt><trkpt lat="42.2895585" lon="14.0432652"><ele>149.0</ele><time>2026-05-03T11:43:12.484Z</time></trkpt><trkpt lat="42.2897117" lon="14.0432181"><ele>149.0</ele><time>2026-05-03T11:43:13.483Z</time></trkpt><trkpt lat="42.2898864" lon="14.0431485"><ele>145.75</ele><time>2026-05-03T11:43:14.49Z</time></trkpt><trkpt lat="42.2900351" lon="14.0431026"><ele>142.5</ele><time>2026-05-03T11:43:15.486Z</time></trkpt><trkpt lat="42.2901576" lon="14.043082"><ele>139.25</ele><time>2026-05-03T11:43:16.481Z</time></trkpt><trkpt lat="42.2902547" lon="14.0430756"><ele>136.0</ele><time>2026-05-03T11:43:17.485Z</time></trkpt><trkpt lat="42.290353" lon="14.0430527"><ele>136.0</ele><time>2026-05-03T11:43:18.49Z</time></trkpt><trkpt lat="42.2904407" lon="14.0430288"><ele>136.0</ele><time>2026-05-03T11:43:19.489Z</time></trkpt><trkpt lat="42.290513" lon="14.0430338"><ele>136.0</ele><time>2026-05-03T11:43:20.487Z</time></trkpt><trkpt lat="42.2905934" lon="14.043101"><ele>136.0</ele><time>2026-05-03T11:43:22.491Z</time></trkpt><trkpt lat="42.2905504" lon="14.0432321"><ele>136.0</ele><time>2026-05-03T11:43:24.48Z</time></trkpt><trkpt lat="42.2904808" lon="14.0433084"><ele>132.2</ele><time>2026-05-03T11:43:25.484Z</time></trkpt><trkpt lat="42.2903767" lon="14.0433648"><ele>128.39999999999998</ele><time>2026-05-03T11:43:26.484Z</time></trkpt><trkpt lat="42.2902721" lon="14.0434238"><ele>124.6</ele><time>2026-05-03T11:43:27.49Z</time></trkpt><trkpt lat="42.2901856" lon="14.0434909"><ele>120.8</ele><time>2026-05-03T11:43:28.496Z</time></trkpt><trkpt lat="42.2901064" lon="14.0435637"><ele>117.0</ele><time>2026-05-03T11:43:29.49Z</time></trkpt><trkpt lat="42.2900302" lon="14.043649"><ele>117.0</ele><time>2026-05-03T11:43:30.488Z</time></trkpt><trkpt lat="42.2899698" lon="14.0437232"><ele>116.99999999999999</ele><time>2026-05-03T11:43:31.483Z</time></trkpt><trkpt lat="42.2899332" lon="14.0437997"><ele>116.99999999999999</ele><time>2026-05-03T11:43:32.484Z</time></trkpt><trkpt lat="42.2899901" lon="14.0439268"><ele>117.0</ele><time>2026-05-03T11:43:34.477Z</time></trkpt><trkpt lat="42.2901046" lon="14.0439582"><ele>117.0</ele><time>2026-05-03T11:43:36.483Z</time></trkpt><trkpt lat="42.290212" lon="14.0439857"><ele>117.0</ele><time>2026-05-03T11:43:38.481Z</time></trkpt><trkpt lat="42.2901607" lon="14.0440765"><ele>116.99999999999999</ele><time>2026-05-03T11:43:41.484Z</time></trkpt><trkpt lat="42.2900911" lon="14.0440803"><ele>116.99999999999999</ele><time>2026-05-03T11:43:42.486Z</time></trkpt><trkpt lat="42.289995" lon="14.0441026"><ele>117.0</ele><time>2026-05-03T11:43:43.488Z</time></trkpt><trkpt lat="42.2898718" lon="14.0441343"><ele>117.0</ele><time>2026-05-03T11:43:44.484Z</time></trkpt><trkpt lat="42.289739" lon="14.0441789"><ele>113.33333333333334</ele><time>2026-05-03T11:43:45.482Z</time></trkpt><trkpt lat="42.2895986" lon="14.0442315"><ele>109.66666666666667</ele><time>2026-05-03T11:43:46.484Z</time></trkpt><trkpt lat="42.2894245" lon="14.0443064"><ele>106.0</ele><time>2026-05-03T11:43:47.487Z</time></trkpt><trkpt lat="42.2892868" lon="14.0443632"><ele>106.0</ele><time>2026-05-03T11:43:48.49Z</time></trkpt><trkpt lat="42.2891923" lon="14.0444212"><ele>106.0</ele><time>2026-05-03T11:43:49.483Z</time></trkpt><trkpt lat="42.2890962" lon="14.0444825"><ele>106.0</ele><time>2026-05-03T11:43:50.485Z</time></trkpt><trkpt lat="42.288991" lon="14.0445491"><ele>106.0</ele><time>2026-05-03T11:43:51.478Z</time></trkpt><trkpt lat="42.2888917" lon="14.0446754"><ele>105.5</ele><time>2026-05-03T11:43:52.478Z</time></trkpt><trkpt lat="42.2887982" lon="14.0447867"><ele>105.0</ele><time>2026-05-03T11:43:53.479Z</time></trkpt><trkpt lat="42.2887337" lon="14.0449215"><ele>104.5</ele><time>2026-05-03T11:43:54.49Z</time></trkpt><trkpt lat="42.2886728" lon="14.0450586"><ele>104.0</ele><time>2026-05-03T11:43:55.488Z</time></trkpt><trkpt lat="42.2885981" lon="14.0451832"><ele>104.0</ele><time>2026-05-03T11:43:56.483Z</time></trkpt><trkpt lat="42.2885089" lon="14.0452876"><ele>104.0</ele><time>2026-05-03T11:43:57.476Z</time></trkpt><trkpt lat="42.2884068" lon="14.0453682"><ele>104.0</ele><time>2026-05-03T11:43:58.476Z</time></trkpt><trkpt lat="42.2882918" lon="14.0454195"><ele>104.0</ele><time>2026-05-03T11:43:59.474Z</time></trkpt><trkpt lat="42.288157" lon="14.0454326"><ele>108.33333333333333</ele><time>2026-05-03T11:44:00.475Z</time></trkpt><trkpt lat="42.2879969" lon="14.0454311"><ele>112.66666666666666</ele><time>2026-05-03T11:44:01.473Z</time></trkpt><trkpt lat="42.2878277" lon="14.0454294"><ele>117.0</ele><time>2026-05-03T11:44:02.474Z</time></trkpt><trkpt lat="42.2876705" lon="14.0454851"><ele>117.0</ele><time>2026-05-03T11:44:03.469Z</time></trkpt><trkpt lat="42.2875255" lon="14.045579"><ele>117.0</ele><time>2026-05-03T11:44:04.473Z</time></trkpt><trkpt lat="42.2874002" lon="14.0456391"><ele>117.0</ele><time>2026-05-03T11:44:05.473Z</time></trkpt><trkpt lat="42.2872629" lon="14.0457243"><ele>117.0</ele><time>2026-05-03T11:44:06.471Z</time></trkpt><trkpt lat="42.2871174" lon="14.0457817"><ele>114.66666666666667</ele><time>2026-05-03T11:44:07.475Z</time></trkpt><trkpt lat="42.2870079" lon="14.0458066"><ele>112.33333333333334</ele><time>2026-05-03T11:44:08.471Z</time></trkpt><trkpt lat="42.2869054" lon="14.045855"><ele>110.0</ele><time>2026-05-03T11:44:09.467Z</time></trkpt><trkpt lat="42.2868262" lon="14.0458478"><ele>107.66666666666667</ele><time>2026-05-03T11:44:10.467Z</time></trkpt><trkpt lat="42.2867663" lon="14.0458907"><ele>105.33333333333334</ele><time>2026-05-03T11:44:11.469Z</time></trkpt><trkpt lat="42.2867269" lon="14.0459583"><ele>103.0</ele><time>2026-05-03T11:44:12.467Z</time></trkpt><trkpt lat="42.2867083" lon="14.0461246"><ele>103.00000000000001</ele><time>2026-05-03T11:44:14.474Z</time></trkpt><trkpt lat="42.2867197" lon="14.0462106"><ele>103.0</ele><time>2026-05-03T11:44:15.469Z</time></trkpt><trkpt lat="42.2867439" lon="14.0462901"><ele>103.0</ele><time>2026-05-03T11:44:16.469Z</time></trkpt><trkpt lat="42.286773" lon="14.0464162"><ele>103.0</ele><time>2026-05-03T11:44:18.476Z</time></trkpt><trkpt lat="42.2867143" lon="14.0464965"><ele>103.00000000000001</ele><time>2026-05-03T11:44:21.483Z</time></trkpt><trkpt lat="42.2866351" lon="14.046536"><ele>103.0</ele><time>2026-05-03T11:44:22.48Z</time></trkpt><trkpt lat="42.2865249" lon="14.0465791"><ele>100.33333333333334</ele><time>2026-05-03T11:44:23.473Z</time></trkpt><trkpt lat="42.2863971" lon="14.0466459"><ele>97.66666666666667</ele><time>2026-05-03T11:44:24.473Z</time></trkpt><trkpt lat="42.2862606" lon="14.0467214"><ele>95.0</ele><time>2026-05-03T11:44:25.481Z</time></trkpt><trkpt lat="42.2860855" lon="14.0468125"><ele>95.0</ele><time>2026-05-03T11:44:26.477Z</time></trkpt><trkpt lat="42.2859289" lon="14.0469037"><ele>95.0</ele><time>2026-05-03T11:44:27.47Z</time></trkpt><trkpt lat="42.2857551" lon="14.0469986"><ele>95.0</ele><time>2026-05-03T11:44:28.489Z</time></trkpt><trkpt lat="42.2855855" lon="14.0470928"><ele>95.0</ele><time>2026-05-03T11:44:29.479Z</time></trkpt><trkpt lat="42.2854318" lon="14.0471861"><ele>95.0</ele><time>2026-05-03T11:44:30.482Z</time></trkpt><trkpt lat="42.2852643" lon="14.047293"><ele>95.0</ele><time>2026-05-03T11:44:31.475Z</time></trkpt><trkpt lat="42.2851145" lon="14.047351"><ele>95.0</ele><time>2026-05-03T11:44:32.479Z</time></trkpt><trkpt lat="42.2849839" lon="14.0474361"><ele>95.0</ele><time>2026-05-03T11:44:33.474Z</time></trkpt><trkpt lat="42.2848947" lon="14.0474634"><ele>95.0</ele><time>2026-05-03T11:44:34.479Z</time></trkpt><trkpt lat="42.2848324" lon="14.0475097"><ele>95.0</ele><time>2026-05-03T11:44:35.472Z</time></trkpt><trkpt lat="42.2847677" lon="14.0475451"><ele>95.0</ele><time>2026-05-03T11:44:36.476Z</time></trkpt><trkpt lat="42.2846773" lon="14.0475869"><ele>95.66666666666667</ele><time>2026-05-03T11:44:38.47Z</time></trkpt><trkpt lat="42.2846754" lon="14.0476739"><ele>96.33333333333334</ele><time>2026-05-03T11:44:40.474Z</time></trkpt><trkpt lat="42.2847628" lon="14.0477252"><ele>97.0</ele><time>2026-05-03T11:44:42.476Z</time></trkpt><trkpt lat="42.2848336" lon="14.0477147"><ele>97.66666666666667</ele><time>2026-05-03T11:44:43.479Z</time></trkpt><trkpt lat="42.2849213" lon="14.0476808"><ele>98.33333333333333</ele><time>2026-05-03T11:44:44.472Z</time></trkpt><trkpt lat="42.2850187" lon="14.0476525"><ele>99.0</ele><time>2026-05-03T11:44:45.474Z</time></trkpt><trkpt lat="42.2851079" lon="14.0476504"><ele>99.33333333333333</ele><time>2026-05-03T11:44:46.472Z</time></trkpt><trkpt lat="42.2851856" lon="14.047699"><ele>99.66666666666666</ele><time>2026-05-03T11:44:47.48Z</time></trkpt><trkpt lat="42.2852517" lon="14.0477826"><ele>100.0</ele><time>2026-05-03T11:44:48.474Z</time></trkpt><trkpt lat="42.2853254" lon="14.0478552"><ele>100.33333333333333</ele><time>2026-05-03T11:44:49.481Z</time></trkpt><trkpt lat="42.2854074" lon="14.0478923"><ele>100.66666666666666</ele><time>2026-05-03T11:44:50.48Z</time></trkpt><trkpt lat="42.2854863" lon="14.0478643"><ele>101.0</ele><time>2026-05-03T11:44:51.473Z</time></trkpt><trkpt lat="42.285575" lon="14.0478146"><ele>102.0</ele><time>2026-05-03T11:44:52.475Z</time></trkpt><trkpt lat="42.285671" lon="14.0477391"><ele>103.0</ele><time>2026-05-03T11:44:53.471Z</time></trkpt><trkpt lat="42.2857927" lon="14.0476427"><ele>104.0</ele><time>2026-05-03T11:44:54.475Z</time></trkpt><trkpt lat="42.285916" lon="14.0475588"><ele>105.0</ele><time>2026-05-03T11:44:55.474Z</time></trkpt><trkpt lat="42.2860284" lon="14.0475199"><ele>105.0</ele><time>2026-05-03T11:44:56.475Z</time></trkpt><trkpt lat="42.2861357" lon="14.0474953"><ele>105.0</ele><time>2026-05-03T11:44:57.474Z</time></trkpt><trkpt lat="42.2862409" lon="14.0474925"><ele>105.0</ele><time>2026-05-03T11:44:58.485Z</time></trkpt><trkpt lat="42.2863426" lon="14.0475129"><ele>105.0</ele><time>2026-05-03T11:44:59.477Z</time></trkpt><trkpt lat="42.2864558" lon="14.0475484"><ele>105.0</ele><time>2026-05-03T11:45:00.478Z</time></trkpt><trkpt lat="42.286588" lon="14.0476263"><ele>106.66666666666666</ele><time>2026-05-03T11:45:01.468Z</time></trkpt><trkpt lat="42.286721" lon="14.047789"><ele>108.33333333333333</ele><time>2026-05-03T11:45:02.463Z</time></trkpt><trkpt lat="42.2868646" lon="14.0479027"><ele>110.0</ele><time>2026-05-03T11:45:03.471Z</time></trkpt><trkpt lat="42.286994" lon="14.0479404"><ele>110.0</ele><time>2026-05-03T11:45:04.461Z</time></trkpt><trkpt lat="42.2871338" lon="14.0479699"><ele>110.0</ele><time>2026-05-03T11:45:05.461Z</time></trkpt><trkpt lat="42.2873023" lon="14.047988"><ele>110.0</ele><time>2026-05-03T11:45:06.463Z</time></trkpt><trkpt lat="42.2874462" lon="14.0480219"><ele>109.0</ele><time>2026-05-03T11:45:07.47Z</time></trkpt><trkpt lat="42.2876083" lon="14.0479914"><ele>108.0</ele><time>2026-05-03T11:45:08.468Z</time></trkpt><trkpt lat="42.2877533" lon="14.0479455"><ele>107.0</ele><time>2026-05-03T11:45:09.464Z</time></trkpt><trkpt lat="42.2878997" lon="14.0479123"><ele>107.0</ele><time>2026-05-03T11:45:10.466Z</time></trkpt><trkpt lat="42.2880526" lon="14.0478812"><ele>107.0</ele><time>2026-05-03T11:45:11.464Z</time></trkpt><trkpt lat="42.2881803" lon="14.0478988"><ele>107.0</ele><time>2026-05-03T11:45:12.47Z</time></trkpt><trkpt lat="42.2883134" lon="14.0478955"><ele>107.0</ele><time>2026-05-03T11:45:13.467Z</time></trkpt><trkpt lat="42.2884499" lon="14.0479096"><ele>109.33333333333333</ele><time>2026-05-03T11:45:14.471Z</time></trkpt><trkpt lat="42.2886112" lon="14.0479144"><ele>111.66666666666666</ele><time>2026-05-03T11:45:15.472Z</time></trkpt><trkpt lat="42.2887632" lon="14.04793"><ele>114.0</ele><time>2026-05-03T11:45:16.476Z</time></trkpt><trkpt lat="42.2889383" lon="14.0479657"><ele>115.66666666666666</ele><time>2026-05-03T11:45:17.472Z</time></trkpt><trkpt lat="42.2891008" lon="14.0479818"><ele>117.33333333333333</ele><time>2026-05-03T11:45:18.465Z</time></trkpt><trkpt lat="42.2892608" lon="14.0480085"><ele>119.0</ele><time>2026-05-03T11:45:19.473Z</time></trkpt><trkpt lat="42.2893978" lon="14.0480314"><ele>119.0</ele><time>2026-05-03T11:45:20.471Z</time></trkpt><trkpt lat="42.2895302" lon="14.0480684"><ele>119.0</ele><time>2026-05-03T11:45:21.468Z</time></trkpt><trkpt lat="42.2896765" lon="14.0481026"><ele>119.0</ele><time>2026-05-03T11:45:22.467Z</time></trkpt><trkpt lat="42.2897843" lon="14.0481151"><ele>119.0</ele><time>2026-05-03T11:45:23.475Z</time></trkpt><trkpt lat="42.2899054" lon="14.0481272"><ele>119.49999999999999</ele><time>2026-05-03T11:45:24.474Z</time></trkpt><trkpt lat="42.2900193" lon="14.0481209"><ele>120.0</ele><time>2026-05-03T11:45:25.48Z</time></trkpt><trkpt lat="42.2901105" lon="14.04814"><ele>120.5</ele><time>2026-05-03T11:45:26.47Z</time></trkpt><trkpt lat="42.2901806" lon="14.0481743"><ele>121.0</ele><time>2026-05-03T11:45:27.468Z</time></trkpt><trkpt lat="42.2902526" lon="14.0482543"><ele>121.49999999999999</ele><time>2026-05-03T11:45:28.471Z</time></trkpt><trkpt lat="42.2902969" lon="14.0483191"><ele>122.0</ele><time>2026-05-03T11:45:29.472Z</time></trkpt><trkpt lat="42.2903188" lon="14.0484099"><ele>129.0</ele><time>2026-05-03T11:45:30.469Z</time></trkpt><trkpt lat="42.2903635" lon="14.0485547"><ele>136.0</ele><time>2026-05-03T11:45:31.475Z</time></trkpt><trkpt lat="42.2904242" lon="14.0487135"><ele>143.0</ele><time>2026-05-03T11:45:32.467Z</time></trkpt><trkpt lat="42.2904893" lon="14.0488799"><ele>150.0</ele><time>2026-05-03T11:45:33.469Z</time></trkpt><trkpt lat="42.2905752" lon="14.0490441"><ele>150.33333333333334</ele><time>2026-05-03T11:45:34.47Z</time></trkpt><trkpt lat="42.2906853" lon="14.049217"><ele>150.66666666666669</ele><time>2026-05-03T11:45:35.471Z</time></trkpt><trkpt lat="42.2907798" lon="14.0493803"><ele>151.0</ele><time>2026-05-03T11:45:36.467Z</time></trkpt><trkpt lat="42.2908868" lon="14.0495391"><ele>151.0</ele><time>2026-05-03T11:45:37.472Z</time></trkpt><trkpt lat="42.2909842" lon="14.0496886"><ele>151.0</ele><time>2026-05-03T11:45:38.474Z</time></trkpt><trkpt lat="42.2910854" lon="14.0498414"><ele>151.0</ele><time>2026-05-03T11:45:39.472Z</time></trkpt><trkpt lat="42.2911831" lon="14.0499913"><ele>151.0</ele><time>2026-05-03T11:45:40.473Z</time></trkpt><trkpt lat="42.2912784" lon="14.0501066"><ele>152.75</ele><time>2026-05-03T11:45:41.471Z</time></trkpt><trkpt lat="42.2913733" lon="14.0502158"><ele>154.5</ele><time>2026-05-03T11:45:42.466Z</time></trkpt><trkpt lat="42.29148" lon="14.0502945"><ele>156.25</ele><time>2026-05-03T11:45:43.472Z</time></trkpt><trkpt lat="42.2916046" lon="14.0503369"><ele>158.0</ele><time>2026-05-03T11:45:44.469Z</time></trkpt><trkpt lat="42.2917199" lon="14.0503686"><ele>158.0</ele><time>2026-05-03T11:45:45.474Z</time></trkpt><trkpt lat="42.2918186" lon="14.0503859"><ele>158.0</ele><time>2026-05-03T11:45:46.474Z</time></trkpt><trkpt lat="42.291901" lon="14.050424"><ele>158.0</ele><time>2026-05-03T11:45:47.478Z</time></trkpt><trkpt lat="42.2919609" lon="14.0504928"><ele>158.0</ele><time>2026-05-03T11:45:48.481Z</time></trkpt><trkpt lat="42.2919967" lon="14.050604"><ele>158.0</ele><time>2026-05-03T11:45:49.478Z</time></trkpt><trkpt lat="42.2920142" lon="14.0507509"><ele>161.0</ele><time>2026-05-03T11:45:50.484Z</time></trkpt><trkpt lat="42.2920306" lon="14.0509219"><ele>164.0</ele><time>2026-05-03T11:45:51.485Z</time></trkpt><trkpt lat="42.2920538" lon="14.0510987"><ele>167.0</ele><time>2026-05-03T11:45:52.484Z</time></trkpt><trkpt lat="42.2920928" lon="14.051286"><ele>170.0</ele><time>2026-05-03T11:45:53.485Z</time></trkpt><trkpt lat="42.2921408" lon="14.0514834"><ele>170.75</ele><time>2026-05-03T11:45:54.494Z</time></trkpt><trkpt lat="42.292197" lon="14.0516975"><ele>171.5</ele><time>2026-05-03T11:45:55.489Z</time></trkpt><trkpt lat="42.2922576" lon="14.051891"><ele>172.25</ele><time>2026-05-03T11:45:56.485Z</time></trkpt><trkpt lat="42.292318" lon="14.0520299"><ele>173.0</ele><time>2026-05-03T11:45:57.483Z</time></trkpt><trkpt lat="42.292371" lon="14.0521283"><ele>173.0</ele><time>2026-05-03T11:45:58.491Z</time></trkpt><trkpt lat="42.292394" lon="14.0522252"><ele>173.0</ele><time>2026-05-03T11:45:59.483Z</time></trkpt><trkpt lat="42.2924183" lon="14.0523711"><ele>173.0</ele><time>2026-05-03T11:46:01.484Z</time></trkpt><trkpt lat="42.2924173" lon="14.0524697"><ele>173.0</ele><time>2026-05-03T11:46:03.488Z</time></trkpt><trkpt lat="42.2924543" lon="14.0525436"><ele>173.0</ele><time>2026-05-03T11:46:06.489Z</time></trkpt><trkpt lat="42.2925343" lon="14.0525594"><ele>173.0</ele><time>2026-05-03T11:46:08.484Z</time></trkpt><trkpt lat="42.2926526" lon="14.0525162"><ele>173.2</ele><time>2026-05-03T11:46:10.489Z</time></trkpt><trkpt lat="42.2927837" lon="14.0525183"><ele>173.4</ele><time>2026-05-03T11:46:12.484Z</time></trkpt><trkpt lat="42.292857" lon="14.0525467"><ele>173.6</ele><time>2026-05-03T11:46:13.484Z</time></trkpt><trkpt lat="42.2929307" lon="14.0525879"><ele>173.79999999999998</ele><time>2026-05-03T11:46:14.483Z</time></trkpt><trkpt lat="42.2930238" lon="14.0526495"><ele>174.0</ele><time>2026-05-03T11:46:15.477Z</time></trkpt><trkpt lat="42.2931262" lon="14.0527265"><ele>173.6</ele><time>2026-05-03T11:46:16.48Z</time></trkpt><trkpt lat="42.2932163" lon="14.0527846"><ele>173.2</ele><time>2026-05-03T11:46:17.479Z</time></trkpt><trkpt lat="42.29329" lon="14.052835"><ele>172.79999999999998</ele><time>2026-05-03T11:46:18.481Z</time></trkpt><trkpt lat="42.2933535" lon="14.0529108"><ele>172.39999999999998</ele><time>2026-05-03T11:46:19.483Z</time></trkpt><trkpt lat="42.2934122" lon="14.0530083"><ele>172.0</ele><time>2026-05-03T11:46:20.473Z</time></trkpt><trkpt lat="42.2934749" lon="14.0531263"><ele>172.0</ele><time>2026-05-03T11:46:21.483Z</time></trkpt><trkpt lat="42.2935436" lon="14.0532539"><ele>172.0</ele><time>2026-05-03T11:46:22.488Z</time></trkpt><trkpt lat="42.2936188" lon="14.053387"><ele>172.0</ele><time>2026-05-03T11:46:23.491Z</time></trkpt><trkpt lat="42.2937012" lon="14.0535235"><ele>172.0</ele><time>2026-05-03T11:46:24.488Z</time></trkpt><trkpt lat="42.2937736" lon="14.0536429"><ele>172.0</ele><time>2026-05-03T11:46:25.492Z</time></trkpt><trkpt lat="42.2938491" lon="14.0537653"><ele>172.0</ele><time>2026-05-03T11:46:26.489Z</time></trkpt><trkpt lat="42.293921" lon="14.0538863"><ele>172.0</ele><time>2026-05-03T11:46:27.485Z</time></trkpt><trkpt lat="42.293984" lon="14.0539939"><ele>172.0</ele><time>2026-05-03T11:46:28.497Z</time></trkpt><trkpt lat="42.2940406" lon="14.054088"><ele>172.0</ele><time>2026-05-03T11:46:29.489Z</time></trkpt><trkpt lat="42.2941116" lon="14.0541729"><ele>173.0</ele><time>2026-05-03T11:46:30.495Z</time></trkpt><trkpt lat="42.2941947" lon="14.0542607"><ele>174.0</ele><time>2026-05-03T11:46:31.492Z</time></trkpt><trkpt lat="42.2942835" lon="14.0543546"><ele>175.0</ele><time>2026-05-03T11:46:32.493Z</time></trkpt><trkpt lat="42.2943671" lon="14.0544413"><ele>176.0</ele><time>2026-05-03T11:46:33.492Z</time></trkpt><trkpt lat="42.2944392" lon="14.0545217"><ele>177.0</ele><time>2026-05-03T11:46:34.496Z</time></trkpt><trkpt lat="42.2945086" lon="14.0545902"><ele>177.0</ele><time>2026-05-03T11:46:35.497Z</time></trkpt><trkpt lat="42.2945778" lon="14.0546559"><ele>177.0</ele><time>2026-05-03T11:46:36.497Z</time></trkpt><trkpt lat="42.2946436" lon="14.0547197"><ele>177.0</ele><time>2026-05-03T11:46:37.489Z</time></trkpt><trkpt lat="42.2947107" lon="14.0547892"><ele>177.0</ele><time>2026-05-03T11:46:38.496Z</time></trkpt><trkpt lat="42.2947816" lon="14.0548511"><ele>177.0</ele><time>2026-05-03T11:46:39.494Z</time></trkpt><trkpt lat="42.2948586" lon="14.0549225"><ele>177.0</ele><time>2026-05-03T11:46:40.495Z</time></trkpt><trkpt lat="42.2949286" lon="14.0549968"><ele>176.57142857142858</ele><time>2026-05-03T11:46:41.492Z</time></trkpt><trkpt lat="42.294991" lon="14.0550647"><ele>176.14285714285714</ele><time>2026-05-03T11:46:42.493Z</time></trkpt><trkpt lat="42.2950508" lon="14.0551235"><ele>175.71428571428572</ele><time>2026-05-03T11:46:43.495Z</time></trkpt><trkpt lat="42.2951135" lon="14.0551628"><ele>175.28571428571428</ele><time>2026-05-03T11:46:44.495Z</time></trkpt><trkpt lat="42.2951761" lon="14.0551887"><ele>174.85714285714286</ele><time>2026-05-03T11:46:45.493Z</time></trkpt><trkpt lat="42.2952409" lon="14.0551999"><ele>174.42857142857142</ele><time>2026-05-03T11:46:46.489Z</time></trkpt><trkpt lat="42.2953188" lon="14.0551989"><ele>174.0</ele><time>2026-05-03T11:46:47.491Z</time></trkpt><trkpt lat="42.2954035" lon="14.0551952"><ele>174.0</ele><time>2026-05-03T11:46:48.483Z</time></trkpt><trkpt lat="42.2954883" lon="14.0552001"><ele>174.0</ele><time>2026-05-03T11:46:49.476Z</time></trkpt><trkpt lat="42.2955607" lon="14.0552007"><ele>174.0</ele><time>2026-05-03T11:46:50.485Z</time></trkpt><trkpt lat="42.2956662" lon="14.0552101"><ele>174.0</ele><time>2026-05-03T11:46:52.488Z</time></trkpt><trkpt lat="42.2957445" lon="14.0552226"><ele>174.0</ele><time>2026-05-03T11:46:55.493Z</time></trkpt><trkpt lat="42.2958341" lon="14.0552329"><ele>174.0</ele><time>2026-05-03T11:46:57.487Z</time></trkpt><trkpt lat="42.2959539" lon="14.0552485"><ele>172.83333333333334</ele><time>2026-05-03T11:46:59.492Z</time></trkpt><trkpt lat="42.296027" lon="14.055248"><ele>171.66666666666666</ele><time>2026-05-03T11:47:00.492Z</time></trkpt><trkpt lat="42.2961275" lon="14.0552281"><ele>170.5</ele><time>2026-05-03T11:47:02.489Z</time></trkpt><trkpt lat="42.2961944" lon="14.055211"><ele>169.33333333333331</ele><time>2026-05-03T11:47:04.494Z</time></trkpt><trkpt lat="42.2962783" lon="14.0551899"><ele>168.16666666666666</ele><time>2026-05-03T11:47:07.493Z</time></trkpt><trkpt lat="42.2963501" lon="14.0551687"><ele>167.0</ele><time>2026-05-03T11:47:09.491Z</time></trkpt><trkpt lat="42.2964475" lon="14.0551043"><ele>165.6</ele><time>2026-05-03T11:47:11.488Z</time></trkpt><trkpt lat="42.2965628" lon="14.0550213"><ele>164.2</ele><time>2026-05-03T11:47:13.488Z</time></trkpt><trkpt lat="42.2966369" lon="14.0549746"><ele>162.8</ele><time>2026-05-03T11:47:14.494Z</time></trkpt><trkpt lat="42.296716" lon="14.0549191"><ele>161.4</ele><time>2026-05-03T11:47:15.496Z</time></trkpt><trkpt lat="42.2967989" lon="14.0548646"><ele>160.0</ele><time>2026-05-03T11:47:16.489Z</time></trkpt><trkpt lat="42.2968782" lon="14.0548158"><ele>159.5</ele><time>2026-05-03T11:47:17.49Z</time></trkpt><trkpt lat="42.2969487" lon="14.0547741"><ele>159.0</ele><time>2026-05-03T11:47:18.495Z</time></trkpt><trkpt lat="42.2970198" lon="14.0547243"><ele>158.5</ele><time>2026-05-03T11:47:19.498Z</time></trkpt><trkpt lat="42.2970863" lon="14.0546818"><ele>158.0</ele><time>2026-05-03T11:47:20.488Z</time></trkpt><trkpt lat="42.2971419" lon="14.054641"><ele>157.5</ele><time>2026-05-03T11:47:21.49Z</time></trkpt><trkpt lat="42.2972184" lon="14.0545878"><ele>157.0</ele><time>2026-05-03T11:47:23.494Z</time></trkpt><trkpt lat="42.2972463" lon="14.0544994"><ele>157.0</ele><time>2026-05-03T11:47:26.488Z</time></trkpt><trkpt lat="42.2971631" lon="14.0545775"><ele>157.0</ele><time>2026-05-03T11:47:30.494Z</time></trkpt><trkpt lat="42.2971136" lon="14.0546407"><ele>157.0</ele><time>2026-05-03T11:47:31.491Z</time></trkpt><trkpt lat="42.2970484" lon="14.0546884"><ele>157.0</ele><time>2026-05-03T11:47:32.487Z</time></trkpt><trkpt lat="42.2969694" lon="14.0547359"><ele>157.0</ele><time>2026-05-03T11:47:33.495Z</time></trkpt><trkpt lat="42.2968672" lon="14.054783"><ele>157.0</ele><time>2026-05-03T11:47:34.488Z</time></trkpt><trkpt lat="42.2967473" lon="14.054853"><ele>157.0</ele><time>2026-05-03T11:47:35.491Z</time></trkpt><trkpt lat="42.2966321" lon="14.0549192"><ele>157.0</ele><time>2026-05-03T11:47:36.479Z</time></trkpt><trkpt lat="42.2965276" lon="14.0549838"><ele>157.0</ele><time>2026-05-03T11:47:37.488Z</time></trkpt><trkpt lat="42.2964313" lon="14.0550421"><ele>157.0</ele><time>2026-05-03T11:47:38.495Z</time></trkpt><trkpt lat="42.2963419" lon="14.0550965"><ele>157.0</ele><time>2026-05-03T11:47:39.492Z</time></trkpt><trkpt lat="42.2962428" lon="14.0551342"><ele>159.0</ele><time>2026-05-03T11:47:40.493Z</time></trkpt><trkpt lat="42.2961373" lon="14.0551548"><ele>161.0</ele><time>2026-05-03T11:47:41.495Z</time></trkpt><trkpt lat="42.2960441" lon="14.0551693"><ele>163.0</ele><time>2026-05-03T11:47:42.495Z</time></trkpt><trkpt lat="42.2959631" lon="14.0551727"><ele>165.0</ele><time>2026-05-03T11:47:43.494Z</time></trkpt><trkpt lat="42.2958923" lon="14.0551678"><ele>167.0</ele><time>2026-05-03T11:47:44.497Z</time></trkpt><trkpt lat="42.2957904" lon="14.0551489"><ele>167.0</ele><time>2026-05-03T11:47:46.499Z</time></trkpt><trkpt lat="42.2957298" lon="14.0551765"><ele>167.0</ele><time>2026-05-03T11:47:48.49Z</time></trkpt><trkpt lat="42.2957053" lon="14.0552932"><ele>167.0</ele><time>2026-05-03T11:47:50.489Z</time></trkpt><trkpt lat="42.2957641" lon="14.0554305"><ele>167.0</ele><time>2026-05-03T11:47:52.489Z</time></trkpt><trkpt lat="42.2958295" lon="14.0554931"><ele>167.0</ele><time>2026-05-03T11:47:53.493Z</time></trkpt><trkpt lat="42.2958933" lon="14.0555741"><ele>167.0</ele><time>2026-05-03T11:47:54.486Z</time></trkpt><trkpt lat="42.2959512" lon="14.05568"><ele>167.6</ele><time>2026-05-03T11:47:55.491Z</time></trkpt><trkpt lat="42.2960111" lon="14.0558095"><ele>168.2</ele><time>2026-05-03T11:47:56.493Z</time></trkpt><trkpt lat="42.2960638" lon="14.0559433"><ele>168.8</ele><time>2026-05-03T11:47:57.496Z</time></trkpt><trkpt lat="42.2961147" lon="14.0560598"><ele>169.4</ele><time>2026-05-03T11:47:58.499Z</time></trkpt><trkpt lat="42.2961611" lon="14.0561654"><ele>170.0</ele><time>2026-05-03T11:47:59.491Z</time></trkpt><trkpt lat="42.2962088" lon="14.0562709"><ele>170.0</ele><time>2026-05-03T11:48:00.492Z</time></trkpt><trkpt lat="42.2962626" lon="14.056387"><ele>170.0</ele><time>2026-05-03T11:48:01.495Z</time></trkpt><trkpt lat="42.2963146" lon="14.0565063"><ele>170.0</ele><time>2026-05-03T11:48:02.49Z</time></trkpt><trkpt lat="42.2963736" lon="14.0566285"><ele>170.0</ele><time>2026-05-03T11:48:03.489Z</time></trkpt><trkpt lat="42.2964372" lon="14.0567483"><ele>170.0</ele><time>2026-05-03T11:48:04.496Z</time></trkpt><trkpt lat="42.2965006" lon="14.0568651"><ele>168.8</ele><time>2026-05-03T11:48:05.493Z</time></trkpt><trkpt lat="42.296566" lon="14.056975"><ele>167.6</ele><time>2026-05-03T11:48:06.498Z</time></trkpt><trkpt lat="42.296629" lon="14.0570915"><ele>166.39999999999998</ele><time>2026-05-03T11:48:07.494Z</time></trkpt><trkpt lat="42.296697" lon="14.0572175"><ele>165.2</ele><time>2026-05-03T11:48:08.494Z</time></trkpt><trkpt lat="42.2967667" lon="14.0573432"><ele>164.0</ele><time>2026-05-03T11:48:09.494Z</time></trkpt><trkpt lat="42.2968405" lon="14.0574759"><ele>163.39999999999998</ele><time>2026-05-03T11:48:10.494Z</time></trkpt><trkpt lat="42.2969076" lon="14.0576132"><ele>162.8</ele><time>2026-05-03T11:48:11.494Z</time></trkpt><trkpt lat="42.2969674" lon="14.0577434"><ele>162.2</ele><time>2026-05-03T11:48:12.494Z</time></trkpt><trkpt lat="42.297023" lon="14.0578624"><ele>161.60000000000002</ele><time>2026-05-03T11:48:13.496Z</time></trkpt><trkpt lat="42.2970723" lon="14.0579731"><ele>161.0</ele><time>2026-05-03T11:48:14.5Z</time></trkpt><trkpt lat="42.2971256" lon="14.058082"><ele>161.0</ele><time>2026-05-03T11:48:15.495Z</time></trkpt><trkpt lat="42.2971786" lon="14.0581866"><ele>161.0</ele><time>2026-05-03T11:48:16.494Z</time></trkpt><trkpt lat="42.2972184" lon="14.0582678"><ele>161.0</ele><time>2026-05-03T11:48:17.497Z</time></trkpt><trkpt lat="42.2972793" lon="14.0583879"><ele>161.0</ele><time>2026-05-03T11:48:19.496Z</time></trkpt><trkpt lat="42.2973192" lon="14.0584726"><ele>161.0</ele><time>2026-05-03T11:48:21.495Z</time></trkpt><trkpt lat="42.2974243" lon="14.0585642"><ele>160.25</ele><time>2026-05-03T11:48:23.488Z</time></trkpt><trkpt lat="42.2975084" lon="14.0586158"><ele>159.5</ele><time>2026-05-03T11:48:24.492Z</time></trkpt><trkpt lat="42.2976187" lon="14.0586669"><ele>158.75</ele><time>2026-05-03T11:48:25.489Z</time></trkpt><trkpt lat="42.2977688" lon="14.0587255"><ele>158.0</ele><time>2026-05-03T11:48:26.49Z</time></trkpt><trkpt lat="42.2979935" lon="14.0588169"><ele>157.0</ele><time>2026-05-03T11:48:27.49Z</time></trkpt><trkpt lat="42.2981664" lon="14.0588957"><ele>156.0</ele><time>2026-05-03T11:48:28.497Z</time></trkpt><trkpt lat="42.2983351" lon="14.0589779"><ele>155.0</ele><time>2026-05-03T11:48:29.494Z</time></trkpt><trkpt lat="42.2985028" lon="14.0590876"><ele>154.5</ele><time>2026-05-03T11:48:30.496Z</time></trkpt><trkpt lat="42.2986586" lon="14.0591517"><ele>154.0</ele><time>2026-05-03T11:48:31.485Z</time></trkpt><trkpt lat="42.2987876" lon="14.059199"><ele>153.5</ele><time>2026-05-03T11:48:32.486Z</time></trkpt><trkpt lat="42.298893" lon="14.0592538"><ele>153.0</ele><time>2026-05-03T11:48:33.484Z</time></trkpt><trkpt lat="42.2989706" lon="14.0592815"><ele>153.0</ele><time>2026-05-03T11:48:34.485Z</time></trkpt><trkpt lat="42.2990397" lon="14.0593424"><ele>153.0</ele><time>2026-05-03T11:48:36.489Z</time></trkpt><trkpt lat="42.299015" lon="14.0594357"><ele>153.0</ele><time>2026-05-03T11:48:38.485Z</time></trkpt><trkpt lat="42.2988833" lon="14.0594709"><ele>153.0</ele><time>2026-05-03T11:48:40.487Z</time></trkpt><trkpt lat="42.2987601" lon="14.0594675"><ele>153.0</ele><time>2026-05-03T11:48:41.486Z</time></trkpt><trkpt lat="42.2986163" lon="14.0594454"><ele>153.0</ele><time>2026-05-03T11:48:42.493Z</time></trkpt><trkpt lat="42.2984652" lon="14.0593863"><ele>153.0</ele><time>2026-05-03T11:48:43.486Z</time></trkpt><trkpt lat="42.2983283" lon="14.0592455"><ele>153.0</ele><time>2026-05-03T11:48:44.492Z</time></trkpt><trkpt lat="42.2982432" lon="14.0591061"><ele>153.33333333333334</ele><time>2026-05-03T11:48:45.485Z</time></trkpt><trkpt lat="42.2981727" lon="14.0590292"><ele>153.66666666666666</ele><time>2026-05-03T11:48:46.492Z</time></trkpt><trkpt lat="42.298091" lon="14.0590032"><ele>154.0</ele><time>2026-05-03T11:48:47.484Z</time></trkpt><trkpt lat="42.2980053" lon="14.0590133"><ele>154.33333333333331</ele><time>2026-05-03T11:48:48.488Z</time></trkpt><trkpt lat="42.2979112" lon="14.0590604"><ele>154.66666666666666</ele><time>2026-05-03T11:48:49.487Z</time></trkpt><trkpt lat="42.297862" lon="14.0591452"><ele>155.0</ele><time>2026-05-03T11:48:50.48Z</time></trkpt><trkpt lat="42.2978411" lon="14.0592431"><ele>154.6</ele><time>2026-05-03T11:48:51.479Z</time></trkpt><trkpt lat="42.2978513" lon="14.0593629"><ele>154.2</ele><time>2026-05-03T11:48:52.484Z</time></trkpt><trkpt lat="42.297908" lon="14.0594677"><ele>153.8</ele><time>2026-05-03T11:48:53.482Z</time></trkpt><trkpt lat="42.2980044" lon="14.0595561"><ele>153.4</ele><time>2026-05-03T11:48:54.484Z</time></trkpt><trkpt lat="42.2981154" lon="14.0596464"><ele>153.0</ele><time>2026-05-03T11:48:55.489Z</time></trkpt><trkpt lat="42.2982554" lon="14.0597582"><ele>153.0</ele><time>2026-05-03T11:48:56.491Z</time></trkpt><trkpt lat="42.2984318" lon="14.0599185"><ele>153.0</ele><time>2026-05-03T11:48:57.482Z</time></trkpt><trkpt lat="42.298604" lon="14.0600824"><ele>153.0</ele><time>2026-05-03T11:48:58.495Z</time></trkpt><trkpt lat="42.2987774" lon="14.0602285"><ele>149.66666666666666</ele><time>2026-05-03T11:48:59.497Z</time></trkpt><trkpt lat="42.298942" lon="14.060396"><ele>146.33333333333331</ele><time>2026-05-03T11:49:00.496Z</time></trkpt><trkpt lat="42.2991026" lon="14.0605608"><ele>143.0</ele><time>2026-05-03T11:49:01.488Z</time></trkpt><trkpt lat="42.299232" lon="14.0607299"><ele>137.66666666666666</ele><time>2026-05-03T11:49:02.49Z</time></trkpt><trkpt lat="42.2993857" lon="14.060931"><ele>132.33333333333334</ele><time>2026-05-03T11:49:03.484Z</time></trkpt><trkpt lat="42.2995324" lon="14.0611346"><ele>127.0</ele><time>2026-05-03T11:49:04.48Z</time></trkpt><trkpt lat="42.2996604" lon="14.0613811"><ele>122.0</ele><time>2026-05-03T11:49:05.483Z</time></trkpt><trkpt lat="42.2998153" lon="14.0616189"><ele>117.0</ele><time>2026-05-03T11:49:06.484Z</time></trkpt><trkpt lat="42.2999791" lon="14.0618624"><ele>117.0</ele><time>2026-05-03T11:49:07.486Z</time></trkpt><trkpt lat="42.3001359" lon="14.0621005"><ele>117.0</ele><time>2026-05-03T11:49:08.487Z</time></trkpt><trkpt lat="42.3002811" lon="14.06231"><ele>117.0</ele><time>2026-05-03T11:49:09.491Z</time></trkpt><trkpt lat="42.300428" lon="14.0625101"><ele>115.0</ele><time>2026-05-03T11:49:10.493Z</time></trkpt><trkpt lat="42.300575" lon="14.062741"><ele>113.0</ele><time>2026-05-03T11:49:11.488Z</time></trkpt><trkpt lat="42.3007337" lon="14.0629789"><ele>113.0</ele><time>2026-05-03T11:49:12.493Z</time></trkpt><trkpt lat="42.3009094" lon="14.0631949"><ele>113.0</ele><time>2026-05-03T11:49:13.487Z</time></trkpt><trkpt lat="42.301076" lon="14.0633885"><ele>113.0</ele><time>2026-05-03T11:49:14.493Z</time></trkpt><trkpt lat="42.3012546" lon="14.0635594"><ele>113.0</ele><time>2026-05-03T11:49:15.489Z</time></trkpt><trkpt lat="42.3014197" lon="14.0637331"><ele>113.0</ele><time>2026-05-03T11:49:16.49Z</time></trkpt><trkpt lat="42.3015969" lon="14.0638747"><ele>113.0</ele><time>2026-05-03T11:49:17.487Z</time></trkpt><trkpt lat="42.3017713" lon="14.0639989"><ele>113.0</ele><time>2026-05-03T11:49:18.49Z</time></trkpt><trkpt lat="42.3019394" lon="14.0641476"><ele>113.0</ele><time>2026-05-03T11:49:19.487Z</time></trkpt><trkpt lat="42.3021088" lon="14.0642761"><ele>108.33333333333333</ele><time>2026-05-03T11:49:20.476Z</time></trkpt><trkpt lat="42.3022716" lon="14.0644302"><ele>103.66666666666666</ele><time>2026-05-03T11:49:21.474Z</time></trkpt><trkpt lat="42.3024487" lon="14.0645624"><ele>99.0</ele><time>2026-05-03T11:49:22.479Z</time></trkpt><trkpt lat="42.3026507" lon="14.0646723"><ele>99.0</ele><time>2026-05-03T11:49:23.473Z</time></trkpt><trkpt lat="42.3028393" lon="14.0647818"><ele>99.0</ele><time>2026-05-03T11:49:24.48Z</time></trkpt><trkpt lat="42.303027" lon="14.0648848"><ele>99.0</ele><time>2026-05-03T11:49:25.485Z</time></trkpt><trkpt lat="42.3031904" lon="14.0649601"><ele>94.66666666666667</ele><time>2026-05-03T11:49:26.482Z</time></trkpt><trkpt lat="42.3033644" lon="14.0650311"><ele>90.33333333333334</ele><time>2026-05-03T11:49:27.485Z</time></trkpt><trkpt lat="42.3035104" lon="14.0651069"><ele>86.0</ele><time>2026-05-03T11:49:28.487Z</time></trkpt><trkpt lat="42.3036648" lon="14.065128"><ele>86.0</ele><time>2026-05-03T11:49:29.473Z</time></trkpt><trkpt lat="42.3038105" lon="14.0651586"><ele>86.0</ele><time>2026-05-03T11:49:30.489Z</time></trkpt><trkpt lat="42.3039447" lon="14.0651854"><ele>86.0</ele><time>2026-05-03T11:49:31.476Z</time></trkpt><trkpt lat="42.3040739" lon="14.0651969"><ele>86.0</ele><time>2026-05-03T11:49:32.478Z</time></trkpt><trkpt lat="42.3041759" lon="14.0652176"><ele>85.83333333333334</ele><time>2026-05-03T11:49:33.473Z</time></trkpt><trkpt lat="42.3042563" lon="14.0652357"><ele>85.66666666666667</ele><time>2026-05-03T11:49:34.473Z</time></trkpt><trkpt lat="42.3043386" lon="14.0652594"><ele>85.5</ele><time>2026-05-03T11:49:35.478Z</time></trkpt><trkpt lat="42.3044169" lon="14.0652912"><ele>85.33333333333333</ele><time>2026-05-03T11:49:36.48Z</time></trkpt><trkpt lat="42.3044896" lon="14.0653282"><ele>85.16666666666666</ele><time>2026-05-03T11:49:37.482Z</time></trkpt><trkpt lat="42.304571" lon="14.0653581"><ele>85.0</ele><time>2026-05-03T11:49:38.479Z</time></trkpt><trkpt lat="42.3046684" lon="14.0653793"><ele>84.75</ele><time>2026-05-03T11:49:39.471Z</time></trkpt><trkpt lat="42.3047845" lon="14.0653795"><ele>84.5</ele><time>2026-05-03T11:49:40.478Z</time></trkpt><trkpt lat="42.3049171" lon="14.0653837"><ele>84.25</ele><time>2026-05-03T11:49:41.478Z</time></trkpt><trkpt lat="42.3050476" lon="14.0653889"><ele>84.0</ele><time>2026-05-03T11:49:42.48Z</time></trkpt><trkpt lat="42.3051715" lon="14.0653741"><ele>84.0</ele><time>2026-05-03T11:49:43.473Z</time></trkpt><trkpt lat="42.3052821" lon="14.0653167"><ele>84.0</ele><time>2026-05-03T11:49:44.477Z</time></trkpt><trkpt lat="42.3053877" lon="14.0652316"><ele>84.0</ele><time>2026-05-03T11:49:45.472Z</time></trkpt><trkpt lat="42.305489" lon="14.0651125"><ele>84.0</ele><time>2026-05-03T11:49:46.474Z</time></trkpt><trkpt lat="42.3055802" lon="14.064973"><ele>83.25</ele><time>2026-05-03T11:49:47.477Z</time></trkpt><trkpt lat="42.3056757" lon="14.0648262"><ele>82.5</ele><time>2026-05-03T11:49:48.476Z</time></trkpt><trkpt lat="42.3057626" lon="14.0646887"><ele>81.75</ele><time>2026-05-03T11:49:49.476Z</time></trkpt><trkpt lat="42.3058509" lon="14.0645488"><ele>81.0</ele><time>2026-05-03T11:49:50.486Z</time></trkpt><trkpt lat="42.3059472" lon="14.0644107"><ele>81.0</ele><time>2026-05-03T11:49:51.481Z</time></trkpt><trkpt lat="42.3060513" lon="14.0642757"><ele>81.0</ele><time>2026-05-03T11:49:52.489Z</time></trkpt><trkpt lat="42.3061602" lon="14.0641196"><ele>81.0</ele><time>2026-05-03T11:49:53.488Z</time></trkpt><trkpt lat="42.3062643" lon="14.063962"><ele>80.5</ele><time>2026-05-03T11:49:54.489Z</time></trkpt><trkpt lat="42.3063769" lon="14.0638047"><ele>80.0</ele><time>2026-05-03T11:49:55.489Z</time></trkpt><trkpt lat="42.3064747" lon="14.0636632"><ele>79.5</ele><time>2026-05-03T11:49:56.5Z</time></trkpt><trkpt lat="42.3065603" lon="14.0635252"><ele>79.0</ele><time>2026-05-03T11:49:57.496Z</time></trkpt><trkpt lat="42.3066746" lon="14.0634218"><ele>77.75</ele><time>2026-05-03T11:49:58.502Z</time></trkpt><trkpt lat="42.3067531" lon="14.0633111"><ele>76.5</ele><time>2026-05-03T11:49:59.492Z</time></trkpt><trkpt lat="42.3068391" lon="14.0632012"><ele>75.25</ele><time>2026-05-03T11:50:00.499Z</time></trkpt><trkpt lat="42.3069282" lon="14.063093"><ele>74.0</ele><time>2026-05-03T11:50:01.499Z</time></trkpt><trkpt lat="42.3070211" lon="14.0629825"><ele>73.8</ele><time>2026-05-03T11:50:02.5Z</time></trkpt><trkpt lat="42.307102" lon="14.0628704"><ele>73.60000000000001</ele><time>2026-05-03T11:50:03.501Z</time></trkpt><trkpt lat="42.3071886" lon="14.0627773"><ele>73.4</ele><time>2026-05-03T11:50:04.5Z</time></trkpt><trkpt lat="42.3072708" lon="14.0626806"><ele>73.2</ele><time>2026-05-03T11:50:05.496Z</time></trkpt><trkpt lat="42.3073443" lon="14.0625818"><ele>73.0</ele><time>2026-05-03T11:50:06.499Z</time></trkpt><trkpt lat="42.3074204" lon="14.0624809"><ele>72.8</ele><time>2026-05-03T11:50:07.494Z</time></trkpt><trkpt lat="42.3074966" lon="14.0623811"><ele>72.6</ele><time>2026-05-03T11:50:08.493Z</time></trkpt><trkpt lat="42.3075787" lon="14.0622725"><ele>72.4</ele><time>2026-05-03T11:50:09.488Z</time></trkpt><trkpt lat="42.3076581" lon="14.0621649"><ele>72.2</ele><time>2026-05-03T11:50:10.486Z</time></trkpt><trkpt lat="42.3077275" lon="14.0620664"><ele>72.0</ele><time>2026-05-03T11:50:11.479Z</time></trkpt><trkpt lat="42.3077986" lon="14.0619743"><ele>72.0</ele><time>2026-05-03T11:50:12.48Z</time></trkpt><trkpt lat="42.3078603" lon="14.061894"><ele>72.0</ele><time>2026-05-03T11:50:13.483Z</time></trkpt><trkpt lat="42.3079155" lon="14.0618263"><ele>72.0</ele><time>2026-05-03T11:50:14.49Z</time></trkpt><trkpt lat="42.3080142" lon="14.061741"><ele>72.0</ele><time>2026-05-03T11:50:16.485Z</time></trkpt><trkpt lat="42.3081148" lon="14.0617514"><ele>72.0</ele><time>2026-05-03T11:50:18.476Z</time></trkpt><trkpt lat="42.308169" lon="14.0618094"><ele>72.0</ele><time>2026-05-03T11:50:19.479Z</time></trkpt><trkpt lat="42.3082249" lon="14.0618977"><ele>72.0</ele><time>2026-05-03T11:50:20.478Z</time></trkpt><trkpt lat="42.3082722" lon="14.0620183"><ele>72.0</ele><time>2026-05-03T11:50:21.487Z</time></trkpt><trkpt lat="42.3083214" lon="14.0621479"><ele>72.0</ele><time>2026-05-03T11:50:22.489Z</time></trkpt><trkpt lat="42.308371" lon="14.0622659"><ele>72.0</ele><time>2026-05-03T11:50:23.485Z</time></trkpt><trkpt lat="42.3084162" lon="14.0623821"><ele>72.0</ele><time>2026-05-03T11:50:24.491Z</time></trkpt><trkpt lat="42.3084678" lon="14.0624907"><ele>72.2</ele><time>2026-05-03T11:50:25.489Z</time></trkpt><trkpt lat="42.3085185" lon="14.0626033"><ele>72.4</ele><time>2026-05-03T11:50:26.484Z</time></trkpt><trkpt lat="42.3085752" lon="14.0627247"><ele>72.6</ele><time>2026-05-03T11:50:27.487Z</time></trkpt><trkpt lat="42.3086352" lon="14.0628606"><ele>72.8</ele><time>2026-05-03T11:50:28.491Z</time></trkpt><trkpt lat="42.3087036" lon="14.0630057"><ele>73.0</ele><time>2026-05-03T11:50:29.49Z</time></trkpt><trkpt lat="42.3087738" lon="14.063157"><ele>73.0</ele><time>2026-05-03T11:50:30.492Z</time></trkpt><trkpt lat="42.3088505" lon="14.0633161"><ele>73.0</ele><time>2026-05-03T11:50:31.489Z</time></trkpt><trkpt lat="42.3089327" lon="14.0635169"><ele>73.0</ele><time>2026-05-03T11:50:32.498Z</time></trkpt><trkpt lat="42.3090217" lon="14.0636639"><ele>73.0</ele><time>2026-05-03T11:50:33.487Z</time></trkpt><trkpt lat="42.3090881" lon="14.0638062"><ele>73.0</ele><time>2026-05-03T11:50:34.489Z</time></trkpt><trkpt lat="42.3091577" lon="14.0639441"><ele>73.0</ele><time>2026-05-03T11:50:35.489Z</time></trkpt><trkpt lat="42.309222" lon="14.0640828"><ele>73.0</ele><time>2026-05-03T11:50:36.489Z</time></trkpt><trkpt lat="42.3093043" lon="14.064233"><ele>71.75</ele><time>2026-05-03T11:50:37.49Z</time></trkpt><trkpt lat="42.3093697" lon="14.064395"><ele>70.5</ele><time>2026-05-03T11:50:38.489Z</time></trkpt><trkpt lat="42.3094348" lon="14.0645582"><ele>69.25</ele><time>2026-05-03T11:50:39.491Z</time></trkpt><trkpt lat="42.3095142" lon="14.0647233"><ele>68.0</ele><time>2026-05-03T11:50:40.493Z</time></trkpt><trkpt lat="42.3095922" lon="14.06488"><ele>68.75</ele><time>2026-05-03T11:50:41.492Z</time></trkpt><trkpt lat="42.3096683" lon="14.0650503"><ele>69.5</ele><time>2026-05-03T11:50:42.49Z</time></trkpt><trkpt lat="42.3097486" lon="14.0652255"><ele>70.25</ele><time>2026-05-03T11:50:43.489Z</time></trkpt><trkpt lat="42.3098223" lon="14.0653564"><ele>71.0</ele><time>2026-05-03T11:50:44.495Z</time></trkpt><trkpt lat="42.3098799" lon="14.0654883"><ele>71.0</ele><time>2026-05-03T11:50:45.49Z</time></trkpt><trkpt lat="42.3099554" lon="14.0656035"><ele>71.0</ele><time>2026-05-03T11:50:46.486Z</time></trkpt><trkpt lat="42.3100274" lon="14.0657481"><ele>71.0</ele><time>2026-05-03T11:50:47.489Z</time></trkpt><trkpt lat="42.3101045" lon="14.0659045"><ele>71.0</ele><time>2026-05-03T11:50:48.493Z</time></trkpt><trkpt lat="42.3101766" lon="14.0660643"><ele>71.0</ele><time>2026-05-03T11:50:49.495Z</time></trkpt><trkpt lat="42.3102306" lon="14.0661978"><ele>71.0</ele><time>2026-05-03T11:50:50.491Z</time></trkpt><trkpt lat="42.3102888" lon="14.0663219"><ele>71.0</ele><time>2026-05-03T11:50:51.492Z</time></trkpt><trkpt lat="42.3103479" lon="14.0664446"><ele>71.0</ele><time>2026-05-03T11:50:52.493Z</time></trkpt><trkpt lat="42.3104116" lon="14.0665617"><ele>71.0</ele><time>2026-05-03T11:50:53.49Z</time></trkpt><trkpt lat="42.3104713" lon="14.0666758"><ele>71.0</ele><time>2026-05-03T11:50:54.489Z</time></trkpt><trkpt lat="42.3105341" lon="14.0667767"><ele>71.0</ele><time>2026-05-03T11:50:55.492Z</time></trkpt><trkpt lat="42.3105891" lon="14.0668847"><ele>71.0</ele><time>2026-05-03T11:50:56.487Z</time></trkpt><trkpt lat="42.3106227" lon="14.0670143"><ele>71.0</ele><time>2026-05-03T11:50:57.48Z</time></trkpt><trkpt lat="42.310643" lon="14.0671556"><ele>71.0</ele><time>2026-05-03T11:50:58.488Z</time></trkpt><trkpt lat="42.3106878" lon="14.0673037"><ele>71.0</ele><time>2026-05-03T11:50:59.481Z</time></trkpt><trkpt lat="42.3107653" lon="14.0674412"><ele>71.0</ele><time>2026-05-03T11:51:00.491Z</time></trkpt><trkpt lat="42.3108587" lon="14.0675849"><ele>71.0</ele><time>2026-05-03T11:51:01.488Z</time></trkpt><trkpt lat="42.310941" lon="14.0677584"><ele>71.0</ele><time>2026-05-03T11:51:02.484Z</time></trkpt><trkpt lat="42.3110248" lon="14.0679486"><ele>71.33333333333334</ele><time>2026-05-03T11:51:03.487Z</time></trkpt><trkpt lat="42.3111099" lon="14.0681337"><ele>71.66666666666667</ele><time>2026-05-03T11:51:04.492Z</time></trkpt><trkpt lat="42.3111935" lon="14.0683308"><ele>72.0</ele><time>2026-05-03T11:51:05.485Z</time></trkpt><trkpt lat="42.3112915" lon="14.0685208"><ele>72.0</ele><time>2026-05-03T11:51:06.492Z</time></trkpt><trkpt lat="42.3113805" lon="14.068684"><ele>72.0</ele><time>2026-05-03T11:51:07.488Z</time></trkpt><trkpt lat="42.311466" lon="14.0688763"><ele>72.0</ele><time>2026-05-03T11:51:08.491Z</time></trkpt><trkpt lat="42.3115659" lon="14.0690612"><ele>72.0</ele><time>2026-05-03T11:51:09.491Z</time></trkpt><trkpt lat="42.311656" lon="14.0692417"><ele>72.0</ele><time>2026-05-03T11:51:10.493Z</time></trkpt><trkpt lat="42.3117359" lon="14.069406"><ele>72.0</ele><time>2026-05-03T11:51:11.492Z</time></trkpt><trkpt lat="42.3118154" lon="14.0696089"><ele>72.0</ele><time>2026-05-03T11:51:12.492Z</time></trkpt><trkpt lat="42.3118921" lon="14.0697768"><ele>72.0</ele><time>2026-05-03T11:51:13.489Z</time></trkpt><trkpt lat="42.3119768" lon="14.0699565"><ele>72.0</ele><time>2026-05-03T11:51:14.498Z</time></trkpt><trkpt lat="42.3120526" lon="14.0701311"><ele>71.75</ele><time>2026-05-03T11:51:15.493Z</time></trkpt><trkpt lat="42.3121243" lon="14.0702828"><ele>71.5</ele><time>2026-05-03T11:51:16.489Z</time></trkpt><trkpt lat="42.3121942" lon="14.0704349"><ele>71.25</ele><time>2026-05-03T11:51:17.486Z</time></trkpt><trkpt lat="42.3122668" lon="14.0705791"><ele>71.0</ele><time>2026-05-03T11:51:18.485Z</time></trkpt><trkpt lat="42.3123388" lon="14.0707107"><ele>70.5</ele><time>2026-05-03T11:51:19.485Z</time></trkpt><trkpt lat="42.3124091" lon="14.0708573"><ele>70.0</ele><time>2026-05-03T11:51:20.492Z</time></trkpt><trkpt lat="42.3124845" lon="14.0710088"><ele>69.5</ele><time>2026-05-03T11:51:21.491Z</time></trkpt><trkpt lat="42.3125647" lon="14.0711606"><ele>69.0</ele><time>2026-05-03T11:51:22.491Z</time></trkpt><trkpt lat="42.312641" lon="14.0713333"><ele>69.0</ele><time>2026-05-03T11:51:23.49Z</time></trkpt><trkpt lat="42.3127188" lon="14.0714726"><ele>69.0</ele><time>2026-05-03T11:51:24.491Z</time></trkpt><trkpt lat="42.3127986" lon="14.0716312"><ele>69.0</ele><time>2026-05-03T11:51:25.493Z</time></trkpt><trkpt lat="42.3128819" lon="14.071801"><ele>69.0</ele><time>2026-05-03T11:51:26.492Z</time></trkpt><trkpt lat="42.3129711" lon="14.071983"><ele>69.25</ele><time>2026-05-03T11:51:27.491Z</time></trkpt><trkpt lat="42.3130502" lon="14.0721545"><ele>69.5</ele><time>2026-05-03T11:51:28.494Z</time></trkpt><trkpt lat="42.3131212" lon="14.0723253"><ele>69.75</ele><time>2026-05-03T11:51:29.485Z</time></trkpt><trkpt lat="42.3132009" lon="14.0724766"><ele>70.0</ele><time>2026-05-03T11:51:30.493Z</time></trkpt><trkpt lat="42.3132587" lon="14.0726173"><ele>69.0</ele><time>2026-05-03T11:51:31.49Z</time></trkpt><trkpt lat="42.3133317" lon="14.072744"><ele>68.0</ele><time>2026-05-03T11:51:32.487Z</time></trkpt><trkpt lat="42.3133987" lon="14.0728935"><ele>67.0</ele><time>2026-05-03T11:51:33.493Z</time></trkpt><trkpt lat="42.3134684" lon="14.07305"><ele>66.0</ele><time>2026-05-03T11:51:34.491Z</time></trkpt><trkpt lat="42.3135522" lon="14.0732197"><ele>67.0</ele><time>2026-05-03T11:51:35.488Z</time></trkpt><trkpt lat="42.3136307" lon="14.0733969"><ele>68.0</ele><time>2026-05-03T11:51:36.493Z</time></trkpt><trkpt lat="42.3137206" lon="14.073566"><ele>69.0</ele><time>2026-05-03T11:51:37.496Z</time></trkpt><trkpt lat="42.313809" lon="14.0737434"><ele>69.0</ele><time>2026-05-03T11:51:38.494Z</time></trkpt><trkpt lat="42.313895" lon="14.0739025"><ele>69.0</ele><time>2026-05-03T11:51:39.494Z</time></trkpt><trkpt lat="42.3139638" lon="14.0740805"><ele>69.0</ele><time>2026-05-03T11:51:40.494Z</time></trkpt><trkpt lat="42.3140508" lon="14.0742293"><ele>69.0</ele><time>2026-05-03T11:51:41.488Z</time></trkpt><trkpt lat="42.3141384" lon="14.0743924"><ele>68.75</ele><time>2026-05-03T11:51:42.487Z</time></trkpt><trkpt lat="42.3142205" lon="14.0745437"><ele>68.5</ele><time>2026-05-03T11:51:43.492Z</time></trkpt><trkpt lat="42.3142773" lon="14.0746755"><ele>68.25</ele><time>2026-05-03T11:51:44.493Z</time></trkpt><trkpt lat="42.3143294" lon="14.0747947"><ele>68.0</ele><time>2026-05-03T11:51:45.491Z</time></trkpt><trkpt lat="42.3143776" lon="14.0749165"><ele>68.0</ele><time>2026-05-03T11:51:46.491Z</time></trkpt><trkpt lat="42.3144355" lon="14.0750115"><ele>68.0</ele><time>2026-05-03T11:51:47.496Z</time></trkpt><trkpt lat="42.3144864" lon="14.0750863"><ele>68.0</ele><time>2026-05-03T11:51:48.496Z</time></trkpt><trkpt lat="42.3145432" lon="14.0751985"><ele>68.0</ele><time>2026-05-03T11:51:49.495Z</time></trkpt><trkpt lat="42.3145973" lon="14.0753181"><ele>68.0</ele><time>2026-05-03T11:51:50.486Z</time></trkpt><trkpt lat="42.3146513" lon="14.0754535"><ele>68.0</ele><time>2026-05-03T11:51:51.497Z</time></trkpt><trkpt lat="42.3147056" lon="14.0755889"><ele>68.0</ele><time>2026-05-03T11:51:52.497Z</time></trkpt><trkpt lat="42.3147658" lon="14.0757171"><ele>68.0</ele><time>2026-05-03T11:51:53.499Z</time></trkpt><trkpt lat="42.3148331" lon="14.07585"><ele>68.0</ele><time>2026-05-03T11:51:54.501Z</time></trkpt><trkpt lat="42.3149046" lon="14.0759917"><ele>68.25</ele><time>2026-05-03T11:51:55.5Z</time></trkpt><trkpt lat="42.3149744" lon="14.076138"><ele>68.5</ele><time>2026-05-03T11:51:56.497Z</time></trkpt><trkpt lat="42.3150436" lon="14.0762839"><ele>68.75</ele><time>2026-05-03T11:51:57.496Z</time></trkpt><trkpt lat="42.3151116" lon="14.0764376"><ele>69.0</ele><time>2026-05-03T11:51:58.499Z</time></trkpt><trkpt lat="42.3151783" lon="14.0765803"><ele>69.0</ele><time>2026-05-03T11:51:59.495Z</time></trkpt><trkpt lat="42.3152386" lon="14.0767101"><ele>69.0</ele><time>2026-05-03T11:52:00.499Z</time></trkpt><trkpt lat="42.3152975" lon="14.0768291"><ele>69.0</ele><time>2026-05-03T11:52:01.492Z</time></trkpt><trkpt lat="42.3153533" lon="14.0769503"><ele>69.0</ele><time>2026-05-03T11:52:02.495Z</time></trkpt><trkpt lat="42.3154138" lon="14.0770746"><ele>69.0</ele><time>2026-05-03T11:52:03.494Z</time></trkpt><trkpt lat="42.3154714" lon="14.0772065"><ele>69.0</ele><time>2026-05-03T11:52:04.499Z</time></trkpt><trkpt lat="42.3155295" lon="14.0773423"><ele>69.0</ele><time>2026-05-03T11:52:05.492Z</time></trkpt><trkpt lat="42.3155921" lon="14.0774797"><ele>69.0</ele><time>2026-05-03T11:52:06.498Z</time></trkpt><trkpt lat="42.315654" lon="14.0776248"><ele>69.0</ele><time>2026-05-03T11:52:07.496Z</time></trkpt><trkpt lat="42.3160767" lon="14.0784736"><ele>68.66666666666667</ele><time>2026-05-03T11:52:14.497Z</time></trkpt><trkpt lat="42.31613" lon="14.0785673"><ele>68.33333333333334</ele><time>2026-05-03T11:52:15.498Z</time></trkpt><trkpt lat="42.3162899" lon="14.0788941"><ele>68.0</ele><time>2026-05-03T11:52:18.492Z</time></trkpt><trkpt lat="42.3163522" lon="14.0790216"><ele>67.75</ele><time>2026-05-03T11:52:19.493Z</time></trkpt><trkpt lat="42.3164163" lon="14.0791525"><ele>67.5</ele><time>2026-05-03T11:52:20.495Z</time></trkpt><trkpt lat="42.3164815" lon="14.0792912"><ele>67.25</ele><time>2026-05-03T11:52:21.496Z</time></trkpt><trkpt lat="42.3165538" lon="14.0794399"><ele>67.0</ele><time>2026-05-03T11:52:22.497Z</time></trkpt><trkpt lat="42.3166277" lon="14.0795954"><ele>67.0</ele><time>2026-05-03T11:52:23.494Z</time></trkpt><trkpt lat="42.3166996" lon="14.0797449"><ele>67.0</ele><time>2026-05-03T11:52:24.493Z</time></trkpt><trkpt lat="42.3167691" lon="14.0798964"><ele>67.0</ele><time>2026-05-03T11:52:25.497Z</time></trkpt><trkpt lat="42.3168387" lon="14.0800541"><ele>67.0</ele><time>2026-05-03T11:52:26.497Z</time></trkpt><trkpt lat="42.3169136" lon="14.0802161"><ele>67.0</ele><time>2026-05-03T11:52:27.492Z</time></trkpt><trkpt lat="42.3169893" lon="14.0803677"><ele>67.0</ele><time>2026-05-03T11:52:28.502Z</time></trkpt><trkpt lat="42.3170605" lon="14.0805205"><ele>67.0</ele><time>2026-05-03T11:52:29.493Z</time></trkpt><trkpt lat="42.3171197" lon="14.0806848"><ele>67.0</ele><time>2026-05-03T11:52:30.499Z</time></trkpt><trkpt lat="42.3171928" lon="14.0808641"><ele>66.33333333333333</ele><time>2026-05-03T11:52:31.497Z</time></trkpt><trkpt lat="42.3172822" lon="14.0810189"><ele>65.66666666666667</ele><time>2026-05-03T11:52:32.496Z</time></trkpt><trkpt lat="42.3173765" lon="14.0811983"><ele>65.0</ele><time>2026-05-03T11:52:33.494Z</time></trkpt><trkpt lat="42.3174673" lon="14.0813531"><ele>65.0</ele><time>2026-05-03T11:52:34.496Z</time></trkpt><trkpt lat="42.3175517" lon="14.0815303"><ele>65.0</ele><time>2026-05-03T11:52:35.501Z</time></trkpt><trkpt lat="42.3176393" lon="14.0816974"><ele>65.0</ele><time>2026-05-03T11:52:36.495Z</time></trkpt><trkpt lat="42.3177158" lon="14.0819022"><ele>64.66666666666667</ele><time>2026-05-03T11:52:37.499Z</time></trkpt><trkpt lat="42.3178121" lon="14.0820732"><ele>64.33333333333333</ele><time>2026-05-03T11:52:38.495Z</time></trkpt><trkpt lat="42.3178909" lon="14.0822554"><ele>64.0</ele><time>2026-05-03T11:52:39.494Z</time></trkpt><trkpt lat="42.3179812" lon="14.0824521"><ele>64.0</ele><time>2026-05-03T11:52:40.496Z</time></trkpt><trkpt lat="42.3180727" lon="14.0826297"><ele>64.0</ele><time>2026-05-03T11:52:41.489Z</time></trkpt><trkpt lat="42.3181486" lon="14.0827827"><ele>64.0</ele><time>2026-05-03T11:52:42.492Z</time></trkpt><trkpt lat="42.3182212" lon="14.0829432"><ele>64.0</ele><time>2026-05-03T11:52:43.489Z</time></trkpt><trkpt lat="42.3182998" lon="14.0831178"><ele>63.666666666666664</ele><time>2026-05-03T11:52:44.496Z</time></trkpt><trkpt lat="42.3183868" lon="14.0832782"><ele>63.33333333333333</ele><time>2026-05-03T11:52:45.491Z</time></trkpt><trkpt lat="42.3184688" lon="14.083459"><ele>63.0</ele><time>2026-05-03T11:52:46.495Z</time></trkpt><trkpt lat="42.3185568" lon="14.0836275"><ele>63.0</ele><time>2026-05-03T11:52:47.492Z</time></trkpt><trkpt lat="42.3186419" lon="14.0837928"><ele>63.0</ele><time>2026-05-03T11:52:48.495Z</time></trkpt><trkpt lat="42.3187172" lon="14.0839591"><ele>63.0</ele><time>2026-05-03T11:52:49.491Z</time></trkpt><trkpt lat="42.318788" lon="14.0841082"><ele>63.0</ele><time>2026-05-03T11:52:50.495Z</time></trkpt><trkpt lat="42.318866" lon="14.0842668"><ele>63.0</ele><time>2026-05-03T11:52:51.496Z</time></trkpt><trkpt lat="42.3189394" lon="14.0844316"><ele>63.0</ele><time>2026-05-03T11:52:52.492Z</time></trkpt><trkpt lat="42.3190116" lon="14.0845862"><ele>63.0</ele><time>2026-05-03T11:52:53.496Z</time></trkpt><trkpt lat="42.3190891" lon="14.0847257"><ele>63.0</ele><time>2026-05-03T11:52:54.493Z</time></trkpt><trkpt lat="42.3191621" lon="14.084884"><ele>62.75</ele><time>2026-05-03T11:52:55.497Z</time></trkpt><trkpt lat="42.3192415" lon="14.0850216"><ele>62.5</ele><time>2026-05-03T11:52:56.492Z</time></trkpt><trkpt lat="42.319314" lon="14.0851597"><ele>62.25</ele><time>2026-05-03T11:52:57.498Z</time></trkpt><trkpt lat="42.3193887" lon="14.0853048"><ele>62.0</ele><time>2026-05-03T11:52:58.497Z</time></trkpt><trkpt lat="42.3194526" lon="14.0854522"><ele>62.0</ele><time>2026-05-03T11:52:59.502Z</time></trkpt><trkpt lat="42.3195245" lon="14.0856034"><ele>62.0</ele><time>2026-05-03T11:53:00.498Z</time></trkpt><trkpt lat="42.3195994" lon="14.0857636"><ele>62.0</ele><time>2026-05-03T11:53:01.498Z</time></trkpt><trkpt lat="42.3196742" lon="14.0859349"><ele>62.0</ele><time>2026-05-03T11:53:02.494Z</time></trkpt><trkpt lat="42.3197513" lon="14.0860957"><ele>61.75</ele><time>2026-05-03T11:53:03.496Z</time></trkpt><trkpt lat="42.3198253" lon="14.0862588"><ele>61.5</ele><time>2026-05-03T11:53:04.498Z</time></trkpt><trkpt lat="42.3199004" lon="14.0864186"><ele>61.25</ele><time>2026-05-03T11:53:05.49Z</time></trkpt><trkpt lat="42.3199742" lon="14.086591"><ele>61.0</ele><time>2026-05-03T11:53:06.497Z</time></trkpt><trkpt lat="42.3200471" lon="14.0867731"><ele>61.0</ele><time>2026-05-03T11:53:07.497Z</time></trkpt><trkpt lat="42.3201366" lon="14.0869338"><ele>61.0</ele><time>2026-05-03T11:53:08.491Z</time></trkpt><trkpt lat="42.3202203" lon="14.087103"><ele>61.0</ele><time>2026-05-03T11:53:09.493Z</time></trkpt><trkpt lat="42.3203012" lon="14.0872737"><ele>61.0</ele><time>2026-05-03T11:53:10.493Z</time></trkpt><trkpt lat="42.3203807" lon="14.0874394"><ele>61.0</ele><time>2026-05-03T11:53:11.496Z</time></trkpt><trkpt lat="42.3204628" lon="14.0876137"><ele>61.0</ele><time>2026-05-03T11:53:12.497Z</time></trkpt><trkpt lat="42.3205573" lon="14.0877756"><ele>61.0</ele><time>2026-05-03T11:53:13.494Z</time></trkpt><trkpt lat="42.3206357" lon="14.0879411"><ele>60.666666666666664</ele><time>2026-05-03T11:53:14.498Z</time></trkpt><trkpt lat="42.3207199" lon="14.0881082"><ele>60.33333333333333</ele><time>2026-05-03T11:53:15.495Z</time></trkpt><trkpt lat="42.3208031" lon="14.0882815"><ele>60.0</ele><time>2026-05-03T11:53:16.492Z</time></trkpt><trkpt lat="42.3208775" lon="14.0884596"><ele>60.0</ele><time>2026-05-03T11:53:17.492Z</time></trkpt><trkpt lat="42.320972" lon="14.0886223"><ele>60.0</ele><time>2026-05-03T11:53:18.492Z</time></trkpt><trkpt lat="42.3210621" lon="14.0888096"><ele>60.0</ele><time>2026-05-03T11:53:19.494Z</time></trkpt><trkpt lat="42.3211559" lon="14.089003"><ele>59.66666666666667</ele><time>2026-05-03T11:53:20.492Z</time></trkpt><trkpt lat="42.3212446" lon="14.08918"><ele>59.333333333333336</ele><time>2026-05-03T11:53:21.497Z</time></trkpt><trkpt lat="42.3213281" lon="14.089359"><ele>59.0</ele><time>2026-05-03T11:53:22.493Z</time></trkpt><trkpt lat="42.321406" lon="14.0895257"><ele>59.0</ele><time>2026-05-03T11:53:23.494Z</time></trkpt><trkpt lat="42.321467" lon="14.089704"><ele>59.0</ele><time>2026-05-03T11:53:24.494Z</time></trkpt><trkpt lat="42.3215444" lon="14.0898766"><ele>59.0</ele><time>2026-05-03T11:53:25.494Z</time></trkpt><trkpt lat="42.321626" lon="14.090036"><ele>59.0</ele><time>2026-05-03T11:53:26.486Z</time></trkpt><trkpt lat="42.3217073" lon="14.090211"><ele>58.75</ele><time>2026-05-03T11:53:27.489Z</time></trkpt><trkpt lat="42.3217894" lon="14.0903446"><ele>58.5</ele><time>2026-05-03T11:53:28.492Z</time></trkpt><trkpt lat="42.321857" lon="14.0905068"><ele>58.25</ele><time>2026-05-03T11:53:29.496Z</time></trkpt><trkpt lat="42.3219381" lon="14.0906435"><ele>58.0</ele><time>2026-05-03T11:53:30.494Z</time></trkpt><trkpt lat="42.322017" lon="14.0907786"><ele>58.0</ele><time>2026-05-03T11:53:31.492Z</time></trkpt><trkpt lat="42.3220864" lon="14.0909426"><ele>58.0</ele><time>2026-05-03T11:53:32.493Z</time></trkpt><trkpt lat="42.32215" lon="14.091091"><ele>58.0</ele><time>2026-05-03T11:53:33.491Z</time></trkpt><trkpt lat="42.3222266" lon="14.09124"><ele>58.0</ele><time>2026-05-03T11:53:34.492Z</time></trkpt><trkpt lat="42.3223027" lon="14.0914052"><ele>58.25</ele><time>2026-05-03T11:53:35.494Z</time></trkpt><trkpt lat="42.3223837" lon="14.0915478"><ele>58.5</ele><time>2026-05-03T11:53:36.492Z</time></trkpt><trkpt lat="42.3224613" lon="14.0916941"><ele>58.75</ele><time>2026-05-03T11:53:37.492Z</time></trkpt><trkpt lat="42.3225389" lon="14.0918474"><ele>59.0</ele><time>2026-05-03T11:53:38.492Z</time></trkpt><trkpt lat="42.3226145" lon="14.0920047"><ele>59.0</ele><time>2026-05-03T11:53:39.488Z</time></trkpt><trkpt lat="42.3226823" lon="14.0921633"><ele>59.0</ele><time>2026-05-03T11:53:40.49Z</time></trkpt><trkpt lat="42.3227471" lon="14.0923172"><ele>59.0</ele><time>2026-05-03T11:53:41.486Z</time></trkpt><trkpt lat="42.322817" lon="14.092471"><ele>59.0</ele><time>2026-05-03T11:53:42.487Z</time></trkpt><trkpt lat="42.3228708" lon="14.0926271"><ele>58.75</ele><time>2026-05-03T11:53:43.49Z</time></trkpt><trkpt lat="42.3229459" lon="14.092776"><ele>58.5</ele><time>2026-05-03T11:53:44.487Z</time></trkpt><trkpt lat="42.3230301" lon="14.0929314"><ele>58.25</ele><time>2026-05-03T11:53:45.489Z</time></trkpt><trkpt lat="42.3230953" lon="14.0930953"><ele>58.0</ele><time>2026-05-03T11:53:46.487Z</time></trkpt><trkpt lat="42.3231636" lon="14.0932464"><ele>58.0</ele><time>2026-05-03T11:53:47.487Z</time></trkpt><trkpt lat="42.3232606" lon="14.0933951"><ele>58.0</ele><time>2026-05-03T11:53:48.487Z</time></trkpt><trkpt lat="42.3233276" lon="14.0935567"><ele>58.0</ele><time>2026-05-03T11:53:49.495Z</time></trkpt><trkpt lat="42.3233897" lon="14.0937119"><ele>58.0</ele><time>2026-05-03T11:53:50.495Z</time></trkpt><trkpt lat="42.3234574" lon="14.0938849"><ele>58.0</ele><time>2026-05-03T11:53:51.497Z</time></trkpt><trkpt lat="42.3235227" lon="14.0940585"><ele>58.0</ele><time>2026-05-03T11:53:52.493Z</time></trkpt><trkpt lat="42.3235747" lon="14.0942179"><ele>58.0</ele><time>2026-05-03T11:53:53.499Z</time></trkpt><trkpt lat="42.3236155" lon="14.0943869"><ele>58.0</ele><time>2026-05-03T11:53:54.491Z</time></trkpt><trkpt lat="42.3236679" lon="14.0945834"><ele>58.0</ele><time>2026-05-03T11:53:55.494Z</time></trkpt><trkpt lat="42.3237" lon="14.094787"><ele>58.0</ele><time>2026-05-03T11:53:56.492Z</time></trkpt><trkpt lat="42.323731" lon="14.0949768"><ele>58.0</ele><time>2026-05-03T11:53:57.493Z</time></trkpt><trkpt lat="42.3237693" lon="14.0951704"><ele>58.0</ele><time>2026-05-03T11:53:58.494Z</time></trkpt><trkpt lat="42.3238048" lon="14.0953516"><ele>58.0</ele><time>2026-05-03T11:53:59.486Z</time></trkpt><trkpt lat="42.3238391" lon="14.0955459"><ele>58.0</ele><time>2026-05-03T11:54:00.491Z</time></trkpt><trkpt lat="42.3238643" lon="14.0957547"><ele>58.0</ele><time>2026-05-03T11:54:01.484Z</time></trkpt><trkpt lat="42.3239076" lon="14.0959359"><ele>58.0</ele><time>2026-05-03T11:54:02.485Z</time></trkpt><trkpt lat="42.3239445" lon="14.0961126"><ele>58.0</ele><time>2026-05-03T11:54:03.491Z</time></trkpt><trkpt lat="42.3240001" lon="14.0962863"><ele>58.0</ele><time>2026-05-03T11:54:04.488Z</time></trkpt><trkpt lat="42.3240406" lon="14.0964726"><ele>58.0</ele><time>2026-05-03T11:54:05.491Z</time></trkpt><trkpt lat="42.3240808" lon="14.0966603"><ele>58.0</ele><time>2026-05-03T11:54:06.488Z</time></trkpt><trkpt lat="42.324133" lon="14.0968522"><ele>58.0</ele><time>2026-05-03T11:54:07.49Z</time></trkpt><trkpt lat="42.3241667" lon="14.0970547"><ele>58.0</ele><time>2026-05-03T11:54:08.492Z</time></trkpt><trkpt lat="42.324229" lon="14.0972452"><ele>58.0</ele><time>2026-05-03T11:54:09.488Z</time></trkpt><trkpt lat="42.3242632" lon="14.0974153"><ele>58.0</ele><time>2026-05-03T11:54:10.49Z</time></trkpt><trkpt lat="42.3242838" lon="14.0976372"><ele>57.75</ele><time>2026-05-03T11:54:11.491Z</time></trkpt><trkpt lat="42.3243363" lon="14.0978163"><ele>57.5</ele><time>2026-05-03T11:54:12.49Z</time></trkpt><trkpt lat="42.324395" lon="14.0980094"><ele>57.25</ele><time>2026-05-03T11:54:13.49Z</time></trkpt><trkpt lat="42.3244684" lon="14.0981631"><ele>57.0</ele><time>2026-05-03T11:54:14.486Z</time></trkpt><trkpt lat="42.324545" lon="14.0983051"><ele>57.75</ele><time>2026-05-03T11:54:15.491Z</time></trkpt><trkpt lat="42.3246313" lon="14.098453"><ele>58.5</ele><time>2026-05-03T11:54:16.489Z</time></trkpt><trkpt lat="42.3247285" lon="14.0986083"><ele>59.25</ele><time>2026-05-03T11:54:17.491Z</time></trkpt><trkpt lat="42.3248372" lon="14.0987665"><ele>60.0</ele><time>2026-05-03T11:54:18.488Z</time></trkpt><trkpt lat="42.3249488" lon="14.0989176"><ele>59.0</ele><time>2026-05-03T11:54:19.488Z</time></trkpt><trkpt lat="42.3250546" lon="14.0990738"><ele>58.0</ele><time>2026-05-03T11:54:20.485Z</time></trkpt><trkpt lat="42.3251448" lon="14.0992144"><ele>57.0</ele><time>2026-05-03T11:54:21.483Z</time></trkpt><trkpt lat="42.325226" lon="14.0993381"><ele>56.0</ele><time>2026-05-03T11:54:22.486Z</time></trkpt><trkpt lat="42.3253115" lon="14.0994716"><ele>56.0</ele><time>2026-05-03T11:54:23.484Z</time></trkpt><trkpt lat="42.3254012" lon="14.0996162"><ele>56.0</ele><time>2026-05-03T11:54:24.491Z</time></trkpt><trkpt lat="42.3254895" lon="14.0997551"><ele>56.0</ele><time>2026-05-03T11:54:25.485Z</time></trkpt><trkpt lat="42.32557" lon="14.0998885"><ele>56.0</ele><time>2026-05-03T11:54:26.484Z</time></trkpt><trkpt lat="42.325658" lon="14.1000251"><ele>55.25</ele><time>2026-05-03T11:54:27.485Z</time></trkpt><trkpt lat="42.3257477" lon="14.1001549"><ele>54.5</ele><time>2026-05-03T11:54:28.492Z</time></trkpt><trkpt lat="42.3258296" lon="14.1002726"><ele>53.75</ele><time>2026-05-03T11:54:29.488Z</time></trkpt><trkpt lat="42.3258944" lon="14.1004101"><ele>53.0</ele><time>2026-05-03T11:54:30.492Z</time></trkpt><trkpt lat="42.325961" lon="14.1005221"><ele>53.0</ele><time>2026-05-03T11:54:31.49Z</time></trkpt><trkpt lat="42.3260238" lon="14.1006259"><ele>53.0</ele><time>2026-05-03T11:54:32.489Z</time></trkpt><trkpt lat="42.3260792" lon="14.1007319"><ele>53.0</ele><time>2026-05-03T11:54:33.483Z</time></trkpt><trkpt lat="42.3261154" lon="14.1008401"><ele>53.0</ele><time>2026-05-03T11:54:34.485Z</time></trkpt><trkpt lat="42.326138" lon="14.1009534"><ele>53.0</ele><time>2026-05-03T11:54:35.482Z</time></trkpt><trkpt lat="42.32615" lon="14.1010654"><ele>53.4</ele><time>2026-05-03T11:54:36.486Z</time></trkpt><trkpt lat="42.3261619" lon="14.1011669"><ele>53.8</ele><time>2026-05-03T11:54:37.485Z</time></trkpt><trkpt lat="42.3262087" lon="14.1012437"><ele>54.2</ele><time>2026-05-03T11:54:38.489Z</time></trkpt><trkpt lat="42.326284" lon="14.1013052"><ele>54.6</ele><time>2026-05-03T11:54:39.489Z</time></trkpt><trkpt lat="42.3263789" lon="14.1013527"><ele>55.0</ele><time>2026-05-03T11:54:40.484Z</time></trkpt><trkpt lat="42.3264826" lon="14.1014085"><ele>55.0</ele><time>2026-05-03T11:54:41.482Z</time></trkpt><trkpt lat="42.3265826" lon="14.1015033"><ele>55.0</ele><time>2026-05-03T11:54:42.482Z</time></trkpt><trkpt lat="42.3266748" lon="14.1016308"><ele>55.0</ele><time>2026-05-03T11:54:43.48Z</time></trkpt><trkpt lat="42.3267605" lon="14.1017808"><ele>55.0</ele><time>2026-05-03T11:54:44.491Z</time></trkpt><trkpt lat="42.3268508" lon="14.1019476"><ele>55.0</ele><time>2026-05-03T11:54:45.48Z</time></trkpt><trkpt lat="42.3269536" lon="14.1021159"><ele>55.0</ele><time>2026-05-03T11:54:46.488Z</time></trkpt><trkpt lat="42.3270293" lon="14.1022678"><ele>55.0</ele><time>2026-05-03T11:54:47.486Z</time></trkpt><trkpt lat="42.3271096" lon="14.1024174"><ele>55.0</ele><time>2026-05-03T11:54:48.485Z</time></trkpt><trkpt lat="42.3271862" lon="14.1025699"><ele>53.5</ele><time>2026-05-03T11:54:49.482Z</time></trkpt><trkpt lat="42.3272495" lon="14.1027373"><ele>52.0</ele><time>2026-05-03T11:54:50.488Z</time></trkpt><trkpt lat="42.327295" lon="14.1029017"><ele>50.5</ele><time>2026-05-03T11:54:51.492Z</time></trkpt><trkpt lat="42.3273495" lon="14.1030822"><ele>49.0</ele><time>2026-05-03T11:54:52.489Z</time></trkpt><trkpt lat="42.3274016" lon="14.1032588"><ele>49.0</ele><time>2026-05-03T11:54:53.49Z</time></trkpt><trkpt lat="42.3274539" lon="14.1034296"><ele>49.0</ele><time>2026-05-03T11:54:54.489Z</time></trkpt><trkpt lat="42.3275089" lon="14.1035991"><ele>49.0</ele><time>2026-05-03T11:54:55.488Z</time></trkpt><trkpt lat="42.3275707" lon="14.1037686"><ele>49.0</ele><time>2026-05-03T11:54:56.491Z</time></trkpt><trkpt lat="42.3276293" lon="14.1039278"><ele>48.5</ele><time>2026-05-03T11:54:57.481Z</time></trkpt><trkpt lat="42.3276889" lon="14.104095"><ele>48.0</ele><time>2026-05-03T11:54:58.493Z</time></trkpt><trkpt lat="42.3277329" lon="14.1042609"><ele>47.5</ele><time>2026-05-03T11:54:59.491Z</time></trkpt><trkpt lat="42.3277748" lon="14.1044375"><ele>47.0</ele><time>2026-05-03T11:55:00.494Z</time></trkpt><trkpt lat="42.3278296" lon="14.1045992"><ele>47.0</ele><time>2026-05-03T11:55:01.497Z</time></trkpt><trkpt lat="42.3278839" lon="14.1047821"><ele>47.0</ele><time>2026-05-03T11:55:02.497Z</time></trkpt><trkpt lat="42.327946" lon="14.1049564"><ele>47.0</ele><time>2026-05-03T11:55:03.498Z</time></trkpt><trkpt lat="42.3280037" lon="14.1051349"><ele>47.0</ele><time>2026-05-03T11:55:04.488Z</time></trkpt><trkpt lat="42.3280591" lon="14.1052933"><ele>46.75</ele><time>2026-05-03T11:55:05.49Z</time></trkpt><trkpt lat="42.3281055" lon="14.1054743"><ele>46.5</ele><time>2026-05-03T11:55:06.483Z</time></trkpt><trkpt lat="42.3281595" lon="14.105648"><ele>46.25</ele><time>2026-05-03T11:55:07.49Z</time></trkpt><trkpt lat="42.3282285" lon="14.1058149"><ele>46.0</ele><time>2026-05-03T11:55:08.487Z</time></trkpt><trkpt lat="42.3282579" lon="14.1059784"><ele>46.0</ele><time>2026-05-03T11:55:09.484Z</time></trkpt><trkpt lat="42.3283003" lon="14.1061468"><ele>46.0</ele><time>2026-05-03T11:55:10.486Z</time></trkpt><trkpt lat="42.3283483" lon="14.1063272"><ele>46.0</ele><time>2026-05-03T11:55:11.492Z</time></trkpt><trkpt lat="42.3283854" lon="14.1064991"><ele>46.0</ele><time>2026-05-03T11:55:12.488Z</time></trkpt><trkpt lat="42.3284245" lon="14.106656"><ele>46.0</ele><time>2026-05-03T11:55:13.493Z</time></trkpt><trkpt lat="42.328471" lon="14.106809"><ele>46.0</ele><time>2026-05-03T11:55:14.493Z</time></trkpt><trkpt lat="42.3285172" lon="14.1069793"><ele>46.0</ele><time>2026-05-03T11:55:15.485Z</time></trkpt><trkpt lat="42.3285646" lon="14.1071537"><ele>46.0</ele><time>2026-05-03T11:55:16.487Z</time></trkpt><trkpt lat="42.3286113" lon="14.1073102"><ele>46.0</ele><time>2026-05-03T11:55:17.486Z</time></trkpt><trkpt lat="42.3286599" lon="14.1074716"><ele>46.0</ele><time>2026-05-03T11:55:18.488Z</time></trkpt><trkpt lat="42.3287161" lon="14.1076327"><ele>46.0</ele><time>2026-05-03T11:55:19.481Z</time></trkpt><trkpt lat="42.32877" lon="14.1077863"><ele>46.0</ele><time>2026-05-03T11:55:20.489Z</time></trkpt><trkpt lat="42.3288272" lon="14.1079404"><ele>46.0</ele><time>2026-05-03T11:55:21.491Z</time></trkpt><trkpt lat="42.3288779" lon="14.1080954"><ele>46.0</ele><time>2026-05-03T11:55:22.487Z</time></trkpt><trkpt lat="42.328929" lon="14.1082432"><ele>46.0</ele><time>2026-05-03T11:55:23.489Z</time></trkpt><trkpt lat="42.3289836" lon="14.1083848"><ele>46.0</ele><time>2026-05-03T11:55:24.493Z</time></trkpt><trkpt lat="42.3290335" lon="14.1085251"><ele>45.25</ele><time>2026-05-03T11:55:25.489Z</time></trkpt><trkpt lat="42.3290776" lon="14.1086618"><ele>44.5</ele><time>2026-05-03T11:55:26.487Z</time></trkpt><trkpt lat="42.32912" lon="14.1088102"><ele>43.75</ele><time>2026-05-03T11:55:27.493Z</time></trkpt><trkpt lat="42.3291716" lon="14.1089537"><ele>43.0</ele><time>2026-05-03T11:55:28.495Z</time></trkpt><trkpt lat="42.3292224" lon="14.1090945"><ele>43.0</ele><time>2026-05-03T11:55:29.49Z</time></trkpt><trkpt lat="42.329271" lon="14.1092389"><ele>43.0</ele><time>2026-05-03T11:55:30.489Z</time></trkpt><trkpt lat="42.3293169" lon="14.1093917"><ele>43.0</ele><time>2026-05-03T11:55:31.487Z</time></trkpt><trkpt lat="42.3293664" lon="14.1095478"><ele>43.0</ele><time>2026-05-03T11:55:32.489Z</time></trkpt><trkpt lat="42.3294184" lon="14.1097107"><ele>43.0</ele><time>2026-05-03T11:55:33.496Z</time></trkpt><trkpt lat="42.3294663" lon="14.1098781"><ele>43.0</ele><time>2026-05-03T11:55:34.488Z</time></trkpt><trkpt lat="42.3295106" lon="14.1100479"><ele>43.0</ele><time>2026-05-03T11:55:35.489Z</time></trkpt><trkpt lat="42.3295591" lon="14.1102114"><ele>43.0</ele><time>2026-05-03T11:55:36.493Z</time></trkpt><trkpt lat="42.3296099" lon="14.1103629"><ele>43.25</ele><time>2026-05-03T11:55:37.484Z</time></trkpt><trkpt lat="42.3296575" lon="14.110515"><ele>43.5</ele><time>2026-05-03T11:55:38.497Z</time></trkpt><trkpt lat="42.3297053" lon="14.1106766"><ele>43.75</ele><time>2026-05-03T11:55:39.488Z</time></trkpt><trkpt lat="42.3297571" lon="14.1108424"><ele>44.0</ele><time>2026-05-03T11:55:40.484Z</time></trkpt><trkpt lat="42.3298167" lon="14.1109957"><ele>43.75</ele><time>2026-05-03T11:55:41.497Z</time></trkpt><trkpt lat="42.329877" lon="14.1111435"><ele>43.5</ele><time>2026-05-03T11:55:42.494Z</time></trkpt><trkpt lat="42.3299307" lon="14.1112834"><ele>43.25</ele><time>2026-05-03T11:55:43.494Z</time></trkpt><trkpt lat="42.3299748" lon="14.1114333"><ele>43.0</ele><time>2026-05-03T11:55:44.492Z</time></trkpt><trkpt lat="42.3300182" lon="14.1115826"><ele>43.0</ele><time>2026-05-03T11:55:45.492Z</time></trkpt><trkpt lat="42.3300651" lon="14.1117312"><ele>43.0</ele><time>2026-05-03T11:55:46.498Z</time></trkpt><trkpt lat="42.3301185" lon="14.1118714"><ele>43.0</ele><time>2026-05-03T11:55:47.491Z</time></trkpt><trkpt lat="42.3301677" lon="14.1120135"><ele>43.0</ele><time>2026-05-03T11:55:48.489Z</time></trkpt><trkpt lat="42.3302117" lon="14.1121482"><ele>43.0</ele><time>2026-05-03T11:55:49.485Z</time></trkpt><trkpt lat="42.3302518" lon="14.1122761"><ele>43.0</ele><time>2026-05-03T11:55:50.488Z</time></trkpt><trkpt lat="42.3302836" lon="14.1123962"><ele>43.0</ele><time>2026-05-03T11:55:51.485Z</time></trkpt><trkpt lat="42.3303217" lon="14.1125178"><ele>43.0</ele><time>2026-05-03T11:55:52.485Z</time></trkpt><trkpt lat="42.3303619" lon="14.1126399"><ele>43.0</ele><time>2026-05-03T11:55:53.488Z</time></trkpt><trkpt lat="42.3303966" lon="14.1127448"><ele>43.0</ele><time>2026-05-03T11:55:54.489Z</time></trkpt><trkpt lat="42.3304213" lon="14.1128477"><ele>43.0</ele><time>2026-05-03T11:55:55.485Z</time></trkpt><trkpt lat="42.33044" lon="14.1129512"><ele>43.0</ele><time>2026-05-03T11:55:56.489Z</time></trkpt><trkpt lat="42.3304502" lon="14.1130598"><ele>43.0</ele><time>2026-05-03T11:55:57.486Z</time></trkpt><trkpt lat="42.3304473" lon="14.1131658"><ele>43.0</ele><time>2026-05-03T11:55:58.498Z</time></trkpt><trkpt lat="42.3304573" lon="14.1132559"><ele>43.0</ele><time>2026-05-03T11:55:59.483Z</time></trkpt><trkpt lat="42.3304851" lon="14.1133359"><ele>43.0</ele><time>2026-05-03T11:56:00.487Z</time></trkpt><trkpt lat="42.3305319" lon="14.1134071"><ele>43.0</ele><time>2026-05-03T11:56:01.494Z</time></trkpt><trkpt lat="42.330599" lon="14.1134803"><ele>43.0</ele><time>2026-05-03T11:56:02.488Z</time></trkpt><trkpt lat="42.3306557" lon="14.1135818"><ele>43.0</ele><time>2026-05-03T11:56:03.481Z</time></trkpt><trkpt lat="42.3307026" lon="14.1137075"><ele>43.0</ele><time>2026-05-03T11:56:04.483Z</time></trkpt><trkpt lat="42.3307442" lon="14.1138504"><ele>41.75</ele><time>2026-05-03T11:56:05.492Z</time></trkpt><trkpt lat="42.3307874" lon="14.1139912"><ele>40.5</ele><time>2026-05-03T11:56:06.492Z</time></trkpt><trkpt lat="42.3308313" lon="14.1141358"><ele>39.25</ele><time>2026-05-03T11:56:07.487Z</time></trkpt><trkpt lat="42.3308815" lon="14.1143039"><ele>38.0</ele><time>2026-05-03T11:56:08.482Z</time></trkpt><trkpt lat="42.3309357" lon="14.1144733"><ele>38.0</ele><time>2026-05-03T11:56:09.486Z</time></trkpt><trkpt lat="42.3309922" lon="14.1146435"><ele>38.0</ele><time>2026-05-03T11:56:10.489Z</time></trkpt><trkpt lat="42.3310494" lon="14.1148143"><ele>38.0</ele><time>2026-05-03T11:56:11.493Z</time></trkpt><trkpt lat="42.3311217" lon="14.1149838"><ele>38.0</ele><time>2026-05-03T11:56:12.496Z</time></trkpt><trkpt lat="42.3311774" lon="14.1151613"><ele>38.0</ele><time>2026-05-03T11:56:13.49Z</time></trkpt><trkpt lat="42.3312258" lon="14.1153253"><ele>38.0</ele><time>2026-05-03T11:56:14.492Z</time></trkpt><trkpt lat="42.331281" lon="14.1154963"><ele>38.0</ele><time>2026-05-03T11:56:15.484Z</time></trkpt><trkpt lat="42.3313401" lon="14.1156637"><ele>38.0</ele><time>2026-05-03T11:56:16.486Z</time></trkpt><trkpt lat="42.3313982" lon="14.1158492"><ele>38.0</ele><time>2026-05-03T11:56:17.487Z</time></trkpt><trkpt lat="42.3314634" lon="14.1160357"><ele>38.0</ele><time>2026-05-03T11:56:18.489Z</time></trkpt><trkpt lat="42.3315206" lon="14.1162308"><ele>38.0</ele><time>2026-05-03T11:56:19.487Z</time></trkpt><trkpt lat="42.3315835" lon="14.1164331"><ele>38.0</ele><time>2026-05-03T11:56:20.481Z</time></trkpt><trkpt lat="42.3316562" lon="14.1166188"><ele>38.0</ele><time>2026-05-03T11:56:21.482Z</time></trkpt><trkpt lat="42.3316928" lon="14.1168077"><ele>38.0</ele><time>2026-05-03T11:56:22.49Z</time></trkpt><trkpt lat="42.3317408" lon="14.1169719"><ele>38.0</ele><time>2026-05-03T11:56:23.494Z</time></trkpt><trkpt lat="42.3317874" lon="14.1171387"><ele>38.0</ele><time>2026-05-03T11:56:24.483Z</time></trkpt><trkpt lat="42.3318228" lon="14.1173219"><ele>38.0</ele><time>2026-05-03T11:56:25.484Z</time></trkpt><trkpt lat="42.3318675" lon="14.1174965"><ele>38.0</ele><time>2026-05-03T11:56:26.485Z</time></trkpt><trkpt lat="42.3319228" lon="14.1176702"><ele>38.0</ele><time>2026-05-03T11:56:27.479Z</time></trkpt><trkpt lat="42.3319785" lon="14.117831"><ele>38.5</ele><time>2026-05-03T11:56:28.494Z</time></trkpt><trkpt lat="42.3320185" lon="14.1179932"><ele>39.0</ele><time>2026-05-03T11:56:29.487Z</time></trkpt><trkpt lat="42.3320674" lon="14.1181618"><ele>39.5</ele><time>2026-05-03T11:56:30.495Z</time></trkpt><trkpt lat="42.3321233" lon="14.1183278"><ele>40.0</ele><time>2026-05-03T11:56:31.491Z</time></trkpt><trkpt lat="42.3321854" lon="14.1184984"><ele>39.5</ele><time>2026-05-03T11:56:32.49Z</time></trkpt><trkpt lat="42.3322383" lon="14.1186654"><ele>39.0</ele><time>2026-05-03T11:56:33.488Z</time></trkpt><trkpt lat="42.3322846" lon="14.1188385"><ele>38.5</ele><time>2026-05-03T11:56:34.486Z</time></trkpt><trkpt lat="42.3323401" lon="14.1190272"><ele>38.0</ele><time>2026-05-03T11:56:35.494Z</time></trkpt><trkpt lat="42.3323947" lon="14.1191944"><ele>37.75</ele><time>2026-05-03T11:56:36.487Z</time></trkpt><trkpt lat="42.3324521" lon="14.1193651"><ele>37.5</ele><time>2026-05-03T11:56:37.486Z</time></trkpt><trkpt lat="42.3325125" lon="14.1195198"><ele>37.25</ele><time>2026-05-03T11:56:38.486Z</time></trkpt><trkpt lat="42.3325662" lon="14.1196729"><ele>37.0</ele><time>2026-05-03T11:56:39.49Z</time></trkpt><trkpt lat="42.3326163" lon="14.1198344"><ele>37.75</ele><time>2026-05-03T11:56:40.497Z</time></trkpt><trkpt lat="42.3326572" lon="14.1200075"><ele>38.5</ele><time>2026-05-03T11:56:41.483Z</time></trkpt><trkpt lat="42.3327112" lon="14.1201708"><ele>39.25</ele><time>2026-05-03T11:56:42.488Z</time></trkpt><trkpt lat="42.3327588" lon="14.1203609"><ele>40.0</ele><time>2026-05-03T11:56:43.491Z</time></trkpt><trkpt lat="42.3328013" lon="14.1205287"><ele>40.0</ele><time>2026-05-03T11:56:44.488Z</time></trkpt><trkpt lat="42.3328505" lon="14.1207101"><ele>40.0</ele><time>2026-05-03T11:56:45.476Z</time></trkpt><trkpt lat="42.3329005" lon="14.1208906"><ele>40.0</ele><time>2026-05-03T11:56:46.482Z</time></trkpt><trkpt lat="42.3329645" lon="14.1210561"><ele>40.0</ele><time>2026-05-03T11:56:47.492Z</time></trkpt><trkpt lat="42.3330205" lon="14.1212318"><ele>40.5</ele><time>2026-05-03T11:56:48.485Z</time></trkpt><trkpt lat="42.333073" lon="14.1214036"><ele>41.0</ele><time>2026-05-03T11:56:49.486Z</time></trkpt><trkpt lat="42.3331145" lon="14.1215644"><ele>41.5</ele><time>2026-05-03T11:56:50.487Z</time></trkpt><trkpt lat="42.3331597" lon="14.1217386"><ele>42.0</ele><time>2026-05-03T11:56:51.488Z</time></trkpt><trkpt lat="42.3331993" lon="14.1218991"><ele>42.0</ele><time>2026-05-03T11:56:52.485Z</time></trkpt><trkpt lat="42.33325" lon="14.1220587"><ele>42.0</ele><time>2026-05-03T11:56:53.479Z</time></trkpt><trkpt lat="42.3333072" lon="14.1222166"><ele>42.0</ele><time>2026-05-03T11:56:54.484Z</time></trkpt><trkpt lat="42.3333606" lon="14.122368"><ele>42.0</ele><time>2026-05-03T11:56:55.484Z</time></trkpt><trkpt lat="42.3334119" lon="14.1225115"><ele>42.5</ele><time>2026-05-03T11:56:56.487Z</time></trkpt><trkpt lat="42.333465" lon="14.1226588"><ele>43.0</ele><time>2026-05-03T11:56:57.483Z</time></trkpt><trkpt lat="42.3335096" lon="14.1228029"><ele>43.5</ele><time>2026-05-03T11:56:58.495Z</time></trkpt><trkpt lat="42.3335593" lon="14.1229538"><ele>44.0</ele><time>2026-05-03T11:56:59.488Z</time></trkpt><trkpt lat="42.3336154" lon="14.1231083"><ele>43.75</ele><time>2026-05-03T11:57:00.487Z</time></trkpt><trkpt lat="42.3336701" lon="14.1232622"><ele>43.5</ele><time>2026-05-03T11:57:01.487Z</time></trkpt><trkpt lat="42.3337294" lon="14.1234356"><ele>43.25</ele><time>2026-05-03T11:57:02.492Z</time></trkpt><trkpt lat="42.3337905" lon="14.1236104"><ele>43.0</ele><time>2026-05-03T11:57:03.486Z</time></trkpt><trkpt lat="42.3338691" lon="14.1237811"><ele>42.66666666666667</ele><time>2026-05-03T11:57:04.492Z</time></trkpt><trkpt lat="42.3339407" lon="14.1239566"><ele>42.333333333333336</ele><time>2026-05-03T11:57:05.488Z</time></trkpt><trkpt lat="42.3340084" lon="14.1241551"><ele>42.0</ele><time>2026-05-03T11:57:06.487Z</time></trkpt><trkpt lat="42.3340669" lon="14.1243342"><ele>41.75</ele><time>2026-05-03T11:57:07.481Z</time></trkpt><trkpt lat="42.3341199" lon="14.1245177"><ele>41.5</ele><time>2026-05-03T11:57:08.488Z</time></trkpt><trkpt lat="42.3341626" lon="14.1246902"><ele>41.25</ele><time>2026-05-03T11:57:09.49Z</time></trkpt><trkpt lat="42.3342059" lon="14.1248522"><ele>41.0</ele><time>2026-05-03T11:57:10.488Z</time></trkpt><trkpt lat="42.3342439" lon="14.1250165"><ele>41.5</ele><time>2026-05-03T11:57:11.49Z</time></trkpt><trkpt lat="42.3343149" lon="14.1251956"><ele>42.0</ele><time>2026-05-03T11:57:12.487Z</time></trkpt><trkpt lat="42.3343788" lon="14.1253691"><ele>42.5</ele><time>2026-05-03T11:57:13.493Z</time></trkpt><trkpt lat="42.334431" lon="14.1255461"><ele>43.0</ele><time>2026-05-03T11:57:14.502Z</time></trkpt><trkpt lat="42.3344696" lon="14.1257216"><ele>43.5</ele><time>2026-05-03T11:57:15.495Z</time></trkpt><trkpt lat="42.3345265" lon="14.1258987"><ele>44.0</ele><time>2026-05-03T11:57:16.501Z</time></trkpt><trkpt lat="42.3345708" lon="14.1260561"><ele>44.5</ele><time>2026-05-03T11:57:17.492Z</time></trkpt><trkpt lat="42.3346234" lon="14.1262194"><ele>45.0</ele><time>2026-05-03T11:57:18.493Z</time></trkpt><trkpt lat="42.3346714" lon="14.1263858"><ele>45.0</ele><time>2026-05-03T11:57:19.492Z</time></trkpt><trkpt lat="42.3347228" lon="14.1265556"><ele>45.0</ele><time>2026-05-03T11:57:20.486Z</time></trkpt><trkpt lat="42.3347723" lon="14.1267403"><ele>45.0</ele><time>2026-05-03T11:57:21.49Z</time></trkpt><trkpt lat="42.3348216" lon="14.1269138"><ele>45.0</ele><time>2026-05-03T11:57:22.486Z</time></trkpt><trkpt lat="42.3348793" lon="14.1270717"><ele>45.25</ele><time>2026-05-03T11:57:23.489Z</time></trkpt><trkpt lat="42.3349415" lon="14.1272126"><ele>45.5</ele><time>2026-05-03T11:57:24.484Z</time></trkpt><trkpt lat="42.3349859" lon="14.1273609"><ele>45.75</ele><time>2026-05-03T11:57:25.489Z</time></trkpt><trkpt lat="42.3350275" lon="14.1275226"><ele>46.0</ele><time>2026-05-03T11:57:26.485Z</time></trkpt><trkpt lat="42.3350733" lon="14.1276811"><ele>46.5</ele><time>2026-05-03T11:57:27.493Z</time></trkpt><trkpt lat="42.3351176" lon="14.1278377"><ele>47.0</ele><time>2026-05-03T11:57:28.492Z</time></trkpt><trkpt lat="42.3351698" lon="14.1279972"><ele>47.5</ele><time>2026-05-03T11:57:29.49Z</time></trkpt><trkpt lat="42.3352223" lon="14.1281533"><ele>48.0</ele><time>2026-05-03T11:57:30.488Z</time></trkpt><trkpt lat="42.3352753" lon="14.1283125"><ele>48.25</ele><time>2026-05-03T11:57:31.492Z</time></trkpt><trkpt lat="42.3353245" lon="14.1284755"><ele>48.5</ele><time>2026-05-03T11:57:32.485Z</time></trkpt><trkpt lat="42.3353748" lon="14.1286345"><ele>48.75</ele><time>2026-05-03T11:57:33.488Z</time></trkpt><trkpt lat="42.3354237" lon="14.1287946"><ele>49.0</ele><time>2026-05-03T11:57:34.497Z</time></trkpt><trkpt lat="42.3354753" lon="14.1289494"><ele>49.25</ele><time>2026-05-03T11:57:35.491Z</time></trkpt><trkpt lat="42.335527" lon="14.1291064"><ele>49.5</ele><time>2026-05-03T11:57:36.485Z</time></trkpt><trkpt lat="42.3355802" lon="14.1292632"><ele>49.75</ele><time>2026-05-03T11:57:37.485Z</time></trkpt><trkpt lat="42.3356287" lon="14.1294137"><ele>50.0</ele><time>2026-05-03T11:57:38.486Z</time></trkpt><trkpt lat="42.3356773" lon="14.1295633"><ele>50.0</ele><time>2026-05-03T11:57:39.481Z</time></trkpt><trkpt lat="42.335726" lon="14.1297202"><ele>50.0</ele><time>2026-05-03T11:57:40.484Z</time></trkpt><trkpt lat="42.3357782" lon="14.1298719"><ele>50.0</ele><time>2026-05-03T11:57:41.484Z</time></trkpt><trkpt lat="42.3358327" lon="14.1300295"><ele>50.0</ele><time>2026-05-03T11:57:42.484Z</time></trkpt><trkpt lat="42.3358898" lon="14.1301947"><ele>50.5</ele><time>2026-05-03T11:57:43.493Z</time></trkpt><trkpt lat="42.3359441" lon="14.1303644"><ele>51.0</ele><time>2026-05-03T11:57:44.486Z</time></trkpt><trkpt lat="42.3359959" lon="14.1305331"><ele>51.5</ele><time>2026-05-03T11:57:45.487Z</time></trkpt><trkpt lat="42.3360419" lon="14.1306949"><ele>52.0</ele><time>2026-05-03T11:57:46.48Z</time></trkpt><trkpt lat="42.3360886" lon="14.1308637"><ele>52.0</ele><time>2026-05-03T11:57:47.488Z</time></trkpt><trkpt lat="42.3361381" lon="14.1310274"><ele>52.0</ele><time>2026-05-03T11:57:48.483Z</time></trkpt><trkpt lat="42.3361906" lon="14.1311787"><ele>52.0</ele><time>2026-05-03T11:57:49.482Z</time></trkpt><trkpt lat="42.3362393" lon="14.1313349"><ele>52.0</ele><time>2026-05-03T11:57:50.488Z</time></trkpt><trkpt lat="42.3362869" lon="14.1314751"><ele>52.0</ele><time>2026-05-03T11:57:51.491Z</time></trkpt><trkpt lat="42.3363286" lon="14.1316204"><ele>52.0</ele><time>2026-05-03T11:57:52.493Z</time></trkpt><trkpt lat="42.33638" lon="14.1317693"><ele>52.0</ele><time>2026-05-03T11:57:53.484Z</time></trkpt><trkpt lat="42.3364359" lon="14.1319262"><ele>52.0</ele><time>2026-05-03T11:57:54.486Z</time></trkpt><trkpt lat="42.3364982" lon="14.1320749"><ele>52.0</ele><time>2026-05-03T11:57:55.489Z</time></trkpt><trkpt lat="42.336572" lon="14.1322265"><ele>52.0</ele><time>2026-05-03T11:57:56.485Z</time></trkpt><trkpt lat="42.3366551" lon="14.1323721"><ele>52.0</ele><time>2026-05-03T11:57:57.478Z</time></trkpt><trkpt lat="42.3367511" lon="14.1325117"><ele>52.0</ele><time>2026-05-03T11:57:58.486Z</time></trkpt><trkpt lat="42.3368693" lon="14.1326133"><ele>52.5</ele><time>2026-05-03T11:57:59.484Z</time></trkpt><trkpt lat="42.336991" lon="14.1327206"><ele>53.0</ele><time>2026-05-03T11:58:00.478Z</time></trkpt><trkpt lat="42.3371157" lon="14.1328184"><ele>53.5</ele><time>2026-05-03T11:58:01.484Z</time></trkpt><trkpt lat="42.3372501" lon="14.1329295"><ele>54.0</ele><time>2026-05-03T11:58:02.485Z</time></trkpt><trkpt lat="42.3373879" lon="14.1329893"><ele>54.25</ele><time>2026-05-03T11:58:03.481Z</time></trkpt><trkpt lat="42.3375095" lon="14.1330343"><ele>54.5</ele><time>2026-05-03T11:58:04.478Z</time></trkpt><trkpt lat="42.337613" lon="14.1330777"><ele>54.75</ele><time>2026-05-03T11:58:05.493Z</time></trkpt><trkpt lat="42.337734" lon="14.1331203"><ele>55.0</ele><time>2026-05-03T11:58:06.48Z</time></trkpt><trkpt lat="42.3378584" lon="14.1331813"><ele>55.0</ele><time>2026-05-03T11:58:07.478Z</time></trkpt><trkpt lat="42.337987" lon="14.1332323"><ele>55.0</ele><time>2026-05-03T11:58:08.482Z</time></trkpt><trkpt lat="42.3381073" lon="14.1332466"><ele>55.0</ele><time>2026-05-03T11:58:09.477Z</time></trkpt><trkpt lat="42.338238" lon="14.1332838"><ele>55.0</ele><time>2026-05-03T11:58:10.481Z</time></trkpt><trkpt lat="42.3383697" lon="14.1333177"><ele>55.0</ele><time>2026-05-03T11:58:11.478Z</time></trkpt><trkpt lat="42.3384975" lon="14.1333517"><ele>55.0</ele><time>2026-05-03T11:58:12.489Z</time></trkpt><trkpt lat="42.3386264" lon="14.1333845"><ele>55.0</ele><time>2026-05-03T11:58:13.489Z</time></trkpt><trkpt lat="42.3387561" lon="14.1334174"><ele>55.0</ele><time>2026-05-03T11:58:14.495Z</time></trkpt><trkpt lat="42.3388877" lon="14.1334601"><ele>55.25</ele><time>2026-05-03T11:58:15.488Z</time></trkpt><trkpt lat="42.3390202" lon="14.1334976"><ele>55.5</ele><time>2026-05-03T11:58:16.494Z</time></trkpt><trkpt lat="42.3391506" lon="14.1335329"><ele>55.75</ele><time>2026-05-03T11:58:17.481Z</time></trkpt><trkpt lat="42.33928" lon="14.1335686"><ele>56.0</ele><time>2026-05-03T11:58:18.478Z</time></trkpt><trkpt lat="42.3393953" lon="14.1336079"><ele>56.0</ele><time>2026-05-03T11:58:19.479Z</time></trkpt><trkpt lat="42.3395021" lon="14.1336439"><ele>55.99999999999999</ele><time>2026-05-03T11:58:20.483Z</time></trkpt><trkpt lat="42.339601" lon="14.133668"><ele>55.99999999999999</ele><time>2026-05-03T11:58:21.484Z</time></trkpt><trkpt lat="42.3397024" lon="14.1337037"><ele>56.0</ele><time>2026-05-03T11:58:22.484Z</time></trkpt><trkpt lat="42.3398136" lon="14.1337459"><ele>56.0</ele><time>2026-05-03T11:58:23.481Z</time></trkpt><trkpt lat="42.3399324" lon="14.1337929"><ele>55.8</ele><time>2026-05-03T11:58:24.48Z</time></trkpt><trkpt lat="42.3400551" lon="14.1338336"><ele>55.599999999999994</ele><time>2026-05-03T11:58:25.481Z</time></trkpt><trkpt lat="42.3401685" lon="14.1338671"><ele>55.4</ele><time>2026-05-03T11:58:26.48Z</time></trkpt><trkpt lat="42.3402706" lon="14.1339005"><ele>55.2</ele><time>2026-05-03T11:58:27.481Z</time></trkpt><trkpt lat="42.3403603" lon="14.1339332"><ele>55.0</ele><time>2026-05-03T11:58:28.494Z</time></trkpt><trkpt lat="42.3404411" lon="14.1339678"><ele>54.99999999999999</ele><time>2026-05-03T11:58:29.475Z</time></trkpt><trkpt lat="42.3405095" lon="14.1340168"><ele>55.0</ele><time>2026-05-03T11:58:30.489Z</time></trkpt><trkpt lat="42.3405589" lon="14.1340777"><ele>55.0</ele><time>2026-05-03T11:58:31.483Z</time></trkpt><trkpt lat="42.3406492" lon="14.1341389"><ele>55.0</ele><time>2026-05-03T11:58:33.479Z</time></trkpt><trkpt lat="42.3407431" lon="14.1340288"><ele>54.99999999999999</ele><time>2026-05-03T11:58:35.478Z</time></trkpt><trkpt lat="42.3407703" lon="14.1339352"><ele>55.0</ele><time>2026-05-03T11:58:36.49Z</time></trkpt><trkpt lat="42.3407587" lon="14.133825"><ele>54.6</ele><time>2026-05-03T11:58:37.483Z</time></trkpt><trkpt lat="42.3407232" lon="14.13371"><ele>54.2</ele><time>2026-05-03T11:58:38.48Z</time></trkpt><trkpt lat="42.3406937" lon="14.1336034"><ele>53.8</ele><time>2026-05-03T11:58:39.483Z</time></trkpt><trkpt lat="42.3407032" lon="14.1334914"><ele>53.4</ele><time>2026-05-03T11:58:40.474Z</time></trkpt><trkpt lat="42.3407496" lon="14.1333541"><ele>53.0</ele><time>2026-05-03T11:58:41.473Z</time></trkpt><trkpt lat="42.3408203" lon="14.1332011"><ele>52.5</ele><time>2026-05-03T11:58:42.476Z</time></trkpt><trkpt lat="42.3409055" lon="14.1330508"><ele>52.0</ele><time>2026-05-03T11:58:43.47Z</time></trkpt><trkpt lat="42.3409949" lon="14.1328962"><ele>51.5</ele><time>2026-05-03T11:58:44.478Z</time></trkpt><trkpt lat="42.3410843" lon="14.1327212"><ele>51.0</ele><time>2026-05-03T11:58:45.478Z</time></trkpt><trkpt lat="42.3411801" lon="14.1325818"><ele>51.0</ele><time>2026-05-03T11:58:46.482Z</time></trkpt><trkpt lat="42.3412601" lon="14.1324607"><ele>51.0</ele><time>2026-05-03T11:58:47.482Z</time></trkpt><trkpt lat="42.3413416" lon="14.1323314"><ele>51.0</ele><time>2026-05-03T11:58:48.474Z</time></trkpt><trkpt lat="42.3414167" lon="14.1321816"><ele>51.0</ele><time>2026-05-03T11:58:49.471Z</time></trkpt><trkpt lat="42.3414917" lon="14.1320249"><ele>50.25</ele><time>2026-05-03T11:58:50.471Z</time></trkpt><trkpt lat="42.3415458" lon="14.131871"><ele>49.5</ele><time>2026-05-03T11:58:51.473Z</time></trkpt><trkpt lat="42.3415846" lon="14.1317283"><ele>48.75</ele><time>2026-05-03T11:58:52.478Z</time></trkpt><trkpt lat="42.3416244" lon="14.1315741"><ele>48.0</ele><time>2026-05-03T11:58:53.469Z</time></trkpt><trkpt lat="42.3416727" lon="14.1314127"><ele>47.8</ele><time>2026-05-03T11:58:54.472Z</time></trkpt><trkpt lat="42.3417176" lon="14.1312535"><ele>47.599999999999994</ele><time>2026-05-03T11:58:55.469Z</time></trkpt><trkpt lat="42.3417624" lon="14.1311324"><ele>47.400000000000006</ele><time>2026-05-03T11:58:56.467Z</time></trkpt><trkpt lat="42.3418252" lon="14.1310229"><ele>47.2</ele><time>2026-05-03T11:58:57.465Z</time></trkpt><trkpt lat="42.3418713" lon="14.1308793"><ele>47.0</ele><time>2026-05-03T11:58:58.473Z</time></trkpt><trkpt lat="42.3418997" lon="14.130695"><ele>46.75</ele><time>2026-05-03T11:58:59.465Z</time></trkpt><trkpt lat="42.3419415" lon="14.1305069"><ele>46.5</ele><time>2026-05-03T11:59:00.466Z</time></trkpt><trkpt lat="42.3419624" lon="14.1303227"><ele>46.25</ele><time>2026-05-03T11:59:01.459Z</time></trkpt><trkpt lat="42.3419902" lon="14.1301617"><ele>46.0</ele><time>2026-05-03T11:59:02.457Z</time></trkpt><trkpt lat="42.3420153" lon="14.1300338"><ele>46.0</ele><time>2026-05-03T11:59:03.464Z</time></trkpt><trkpt lat="42.3420287" lon="14.1299303"><ele>46.0</ele><time>2026-05-03T11:59:04.466Z</time></trkpt><trkpt lat="42.3420424" lon="14.1298241"><ele>46.0</ele><time>2026-05-03T11:59:05.456Z</time></trkpt><trkpt lat="42.34203" lon="14.1297286"><ele>46.0</ele><time>2026-05-03T11:59:06.464Z</time></trkpt><trkpt lat="42.342053" lon="14.1296422"><ele>46.0</ele><time>2026-05-03T11:59:07.465Z</time></trkpt><trkpt lat="42.3421065" lon="14.1295524"><ele>46.0</ele><time>2026-05-03T11:59:08.464Z</time></trkpt><trkpt lat="42.3421461" lon="14.129454"><ele>45.66666666666667</ele><time>2026-05-03T11:59:09.466Z</time></trkpt><trkpt lat="42.3421639" lon="14.1293549"><ele>45.333333333333336</ele><time>2026-05-03T11:59:10.468Z</time></trkpt><trkpt lat="42.3421457" lon="14.1292583"><ele>45.0</ele><time>2026-05-03T11:59:11.468Z</time></trkpt><trkpt lat="42.3420822" lon="14.1291798"><ele>44.666666666666664</ele><time>2026-05-03T11:59:12.463Z</time></trkpt><trkpt lat="42.3420075" lon="14.1291155"><ele>44.33333333333333</ele><time>2026-05-03T11:59:13.469Z</time></trkpt><trkpt lat="42.3419248" lon="14.1290291"><ele>44.0</ele><time>2026-05-03T11:59:14.477Z</time></trkpt><trkpt lat="42.3418552" lon="14.1288851"><ele>42.33333333333333</ele><time>2026-05-03T11:59:15.473Z</time></trkpt><trkpt lat="42.3418024" lon="14.1286793"><ele>40.666666666666664</ele><time>2026-05-03T11:59:16.459Z</time></trkpt><trkpt lat="42.3417692" lon="14.1283733"><ele>39.0</ele><time>2026-05-03T11:59:17.476Z</time></trkpt><trkpt lat="42.3417555" lon="14.1281074"><ele>38.333333333333336</ele><time>2026-05-03T11:59:18.468Z</time></trkpt><trkpt lat="42.3417224" lon="14.1278573"><ele>37.66666666666667</ele><time>2026-05-03T11:59:19.47Z</time></trkpt><trkpt lat="42.3416865" lon="14.1276226"><ele>37.0</ele><time>2026-05-03T11:59:20.47Z</time></trkpt><trkpt lat="42.3416496" lon="14.1273925"><ele>36.333333333333336</ele><time>2026-05-03T11:59:21.474Z</time></trkpt><trkpt lat="42.3416126" lon="14.1271732"><ele>35.666666666666664</ele><time>2026-05-03T11:59:22.479Z</time></trkpt><trkpt lat="42.3415796" lon="14.1269577"><ele>35.0</ele><time>2026-05-03T11:59:23.482Z</time></trkpt><trkpt lat="42.3415267" lon="14.1267361"><ele>34.0</ele><time>2026-05-03T11:59:24.479Z</time></trkpt><trkpt lat="42.3414777" lon="14.1265235"><ele>33.0</ele><time>2026-05-03T11:59:25.483Z</time></trkpt><trkpt lat="42.3414516" lon="14.1263204"><ele>32.0</ele><time>2026-05-03T11:59:26.484Z</time></trkpt><trkpt lat="42.3414184" lon="14.1260992"><ele>32.0</ele><time>2026-05-03T11:59:27.483Z</time></trkpt><trkpt lat="42.3413992" lon="14.1258762"><ele>32.0</ele><time>2026-05-03T11:59:28.483Z</time></trkpt><trkpt lat="42.3413561" lon="14.1256632"><ele>32.0</ele><time>2026-05-03T11:59:29.479Z</time></trkpt><trkpt lat="42.3413094" lon="14.1254521"><ele>32.666666666666664</ele><time>2026-05-03T11:59:30.492Z</time></trkpt><trkpt lat="42.3412683" lon="14.1252351"><ele>33.333333333333336</ele><time>2026-05-03T11:59:31.482Z</time></trkpt><trkpt lat="42.341239" lon="14.1250135"><ele>34.0</ele><time>2026-05-03T11:59:32.49Z</time></trkpt><trkpt lat="42.3412125" lon="14.1247922"><ele>34.333333333333336</ele><time>2026-05-03T11:59:33.488Z</time></trkpt><trkpt lat="42.3411826" lon="14.124561"><ele>34.666666666666664</ele><time>2026-05-03T11:59:34.488Z</time></trkpt><trkpt lat="42.3411332" lon="14.124339"><ele>35.0</ele><time>2026-05-03T11:59:35.481Z</time></trkpt><trkpt lat="42.3410888" lon="14.1241277"><ele>35.33333333333333</ele><time>2026-05-03T11:59:36.487Z</time></trkpt><trkpt lat="42.3410641" lon="14.123906"><ele>35.666666666666664</ele><time>2026-05-03T11:59:37.487Z</time></trkpt><trkpt lat="42.341027" lon="14.1236947"><ele>36.0</ele><time>2026-05-03T11:59:38.487Z</time></trkpt><trkpt lat="42.3409958" lon="14.1234805"><ele>36.0</ele><time>2026-05-03T11:59:39.489Z</time></trkpt><trkpt lat="42.3409631" lon="14.1232682"><ele>36.0</ele><time>2026-05-03T11:59:40.491Z</time></trkpt><trkpt lat="42.3409295" lon="14.1230859"><ele>36.0</ele><time>2026-05-03T11:59:41.489Z</time></trkpt><trkpt lat="42.3408873" lon="14.1229139"><ele>36.0</ele><time>2026-05-03T11:59:42.488Z</time></trkpt><trkpt lat="42.3408528" lon="14.1227285"><ele>35.75</ele><time>2026-05-03T11:59:43.476Z</time></trkpt><trkpt lat="42.3408089" lon="14.1225611"><ele>35.5</ele><time>2026-05-03T11:59:44.482Z</time></trkpt><trkpt lat="42.3407908" lon="14.1223659"><ele>35.25</ele><time>2026-05-03T11:59:45.477Z</time></trkpt><trkpt lat="42.3407821" lon="14.1221738"><ele>35.0</ele><time>2026-05-03T11:59:46.478Z</time></trkpt><trkpt lat="42.3407928" lon="14.122002"><ele>34.8</ele><time>2026-05-03T11:59:47.474Z</time></trkpt><trkpt lat="42.3408329" lon="14.1218345"><ele>34.6</ele><time>2026-05-03T11:59:48.473Z</time></trkpt><trkpt lat="42.3408712" lon="14.1217024"><ele>34.4</ele><time>2026-05-03T11:59:49.475Z</time></trkpt><trkpt lat="42.3409382" lon="14.121649"><ele>34.2</ele><time>2026-05-03T11:59:50.465Z</time></trkpt><trkpt lat="42.3410216" lon="14.1216021"><ele>34.0</ele><time>2026-05-03T11:59:51.482Z</time></trkpt><trkpt lat="42.341116" lon="14.1215791"><ele>33.2</ele><time>2026-05-03T11:59:52.471Z</time></trkpt><trkpt lat="42.3411783" lon="14.1215076"><ele>32.4</ele><time>2026-05-03T11:59:53.474Z</time></trkpt><trkpt lat="42.3412248" lon="14.1213912"><ele>31.6</ele><time>2026-05-03T11:59:54.474Z</time></trkpt><trkpt lat="42.3412536" lon="14.1212578"><ele>30.8</ele><time>2026-05-03T11:59:55.474Z</time></trkpt><trkpt lat="42.3412573" lon="14.1211195"><ele>30.0</ele><time>2026-05-03T11:59:56.45Z</time></trkpt><trkpt lat="42.3412644" lon="14.1209767"><ele>30.0</ele><time>2026-05-03T11:59:57.445Z</time></trkpt><trkpt lat="42.3412994" lon="14.1208395"><ele>30.0</ele><time>2026-05-03T11:59:58.464Z</time></trkpt><trkpt lat="42.3413752" lon="14.1207"><ele>30.0</ele><time>2026-05-03T11:59:59.445Z</time></trkpt><trkpt lat="42.3414684" lon="14.1205494"><ele>30.0</ele><time>2026-05-03T12:00:00.457Z</time></trkpt><trkpt lat="42.3415833" lon="14.1203792"><ele>30.333333333333336</ele><time>2026-05-03T12:00:01.452Z</time></trkpt><trkpt lat="42.3416842" lon="14.120192"><ele>30.666666666666668</ele><time>2026-05-03T12:00:02.458Z</time></trkpt><trkpt lat="42.3417861" lon="14.1200108"><ele>31.0</ele><time>2026-05-03T12:00:03.451Z</time></trkpt><trkpt lat="42.3418875" lon="14.1198066"><ele>31.0</ele><time>2026-05-03T12:00:04.454Z</time></trkpt><trkpt lat="42.3420033" lon="14.1196125"><ele>31.0</ele><time>2026-05-03T12:00:05.446Z</time></trkpt><trkpt lat="42.3421136" lon="14.1194194"><ele>31.0</ele><time>2026-05-03T12:00:06.453Z</time></trkpt><trkpt lat="42.3422366" lon="14.1192184"><ele>31.666666666666668</ele><time>2026-05-03T12:00:07.459Z</time></trkpt><trkpt lat="42.3423312" lon="14.1190064"><ele>32.333333333333336</ele><time>2026-05-03T12:00:08.456Z</time></trkpt><trkpt lat="42.3424276" lon="14.1188008"><ele>33.0</ele><time>2026-05-03T12:00:09.46Z</time></trkpt><trkpt lat="42.3425026" lon="14.1185826"><ele>33.0</ele><time>2026-05-03T12:00:10.465Z</time></trkpt><trkpt lat="42.3425588" lon="14.1183464"><ele>33.0</ele><time>2026-05-03T12:00:11.465Z</time></trkpt><trkpt lat="42.3426024" lon="14.1180994"><ele>33.0</ele><time>2026-05-03T12:00:12.46Z</time></trkpt><trkpt lat="42.3426432" lon="14.1178552"><ele>35.0</ele><time>2026-05-03T12:00:13.466Z</time></trkpt><trkpt lat="42.3426925" lon="14.1176136"><ele>37.0</ele><time>2026-05-03T12:00:14.468Z</time></trkpt><trkpt lat="42.3427374" lon="14.1173833"><ele>39.0</ele><time>2026-05-03T12:00:15.465Z</time></trkpt><trkpt lat="42.3427755" lon="14.1171645"><ele>41.0</ele><time>2026-05-03T12:00:16.472Z</time></trkpt><trkpt lat="42.342819" lon="14.1169344"><ele>43.0</ele><time>2026-05-03T12:00:17.466Z</time></trkpt><trkpt lat="42.3428722" lon="14.116705"><ele>45.0</ele><time>2026-05-03T12:00:18.47Z</time></trkpt><trkpt lat="42.3429035" lon="14.1164943"><ele>45.25</ele><time>2026-05-03T12:00:19.467Z</time></trkpt><trkpt lat="42.3429274" lon="14.1162987"><ele>45.5</ele><time>2026-05-03T12:00:20.467Z</time></trkpt><trkpt lat="42.3429631" lon="14.116096"><ele>45.75</ele><time>2026-05-03T12:00:21.472Z</time></trkpt><trkpt lat="42.3429902" lon="14.1159175"><ele>46.0</ele><time>2026-05-03T12:00:22.469Z</time></trkpt><trkpt lat="42.3430234" lon="14.1157241"><ele>46.5</ele><time>2026-05-03T12:00:23.469Z</time></trkpt><trkpt lat="42.3430623" lon="14.1155216"><ele>47.0</ele><time>2026-05-03T12:00:24.469Z</time></trkpt><trkpt lat="42.3431017" lon="14.1153422"><ele>47.5</ele><time>2026-05-03T12:00:25.47Z</time></trkpt><trkpt lat="42.3431429" lon="14.1151653"><ele>48.0</ele><time>2026-05-03T12:00:26.473Z</time></trkpt><trkpt lat="42.3431805" lon="14.11498"><ele>48.0</ele><time>2026-05-03T12:00:27.475Z</time></trkpt><trkpt lat="42.3432025" lon="14.1147906"><ele>48.0</ele><time>2026-05-03T12:00:28.481Z</time></trkpt><trkpt lat="42.3432272" lon="14.1146191"><ele>48.0</ele><time>2026-05-03T12:00:29.478Z</time></trkpt><trkpt lat="42.3432542" lon="14.1144466"><ele>48.0</ele><time>2026-05-03T12:00:30.474Z</time></trkpt><trkpt lat="42.3432737" lon="14.1142645"><ele>48.0</ele><time>2026-05-03T12:00:31.472Z</time></trkpt><trkpt lat="42.3432936" lon="14.1140803"><ele>48.0</ele><time>2026-05-03T12:00:32.475Z</time></trkpt><trkpt lat="42.3433292" lon="14.1139108"><ele>48.0</ele><time>2026-05-03T12:00:33.476Z</time></trkpt><trkpt lat="42.3433416" lon="14.1137502"><ele>48.0</ele><time>2026-05-03T12:00:34.48Z</time></trkpt><trkpt lat="42.3433542" lon="14.1135891"><ele>47.666666666666664</ele><time>2026-05-03T12:00:35.472Z</time></trkpt><trkpt lat="42.3433823" lon="14.1133985"><ele>47.33333333333333</ele><time>2026-05-03T12:00:36.472Z</time></trkpt><trkpt lat="42.3434068" lon="14.1131946"><ele>47.0</ele><time>2026-05-03T12:00:37.474Z</time></trkpt><trkpt lat="42.3434364" lon="14.1129889"><ele>47.0</ele><time>2026-05-03T12:00:38.469Z</time></trkpt><trkpt lat="42.3434663" lon="14.1128199"><ele>47.0</ele><time>2026-05-03T12:00:39.48Z</time></trkpt><trkpt lat="42.3434941" lon="14.1126417"><ele>47.0</ele><time>2026-05-03T12:00:40.476Z</time></trkpt><trkpt lat="42.3435185" lon="14.1124709"><ele>47.0</ele><time>2026-05-03T12:00:41.479Z</time></trkpt><trkpt lat="42.3435391" lon="14.1123257"><ele>47.0</ele><time>2026-05-03T12:00:42.472Z</time></trkpt><trkpt lat="42.3435546" lon="14.1121768"><ele>47.0</ele><time>2026-05-03T12:00:43.466Z</time></trkpt><trkpt lat="42.3435771" lon="14.1120528"><ele>47.0</ele><time>2026-05-03T12:00:44.467Z</time></trkpt><trkpt lat="42.3435882" lon="14.1119295"><ele>47.0</ele><time>2026-05-03T12:00:45.472Z</time></trkpt><trkpt lat="42.3436004" lon="14.1118012"><ele>47.0</ele><time>2026-05-03T12:00:46.461Z</time></trkpt><trkpt lat="42.3436139" lon="14.111677"><ele>47.2</ele><time>2026-05-03T12:00:47.469Z</time></trkpt><trkpt lat="42.343632" lon="14.1115655"><ele>47.400000000000006</ele><time>2026-05-03T12:00:48.464Z</time></trkpt><trkpt lat="42.3436505" lon="14.1114725"><ele>47.599999999999994</ele><time>2026-05-03T12:00:49.458Z</time></trkpt><trkpt lat="42.3437472" lon="14.111391"><ele>47.8</ele><time>2026-05-03T12:00:51.466Z</time></trkpt><trkpt lat="42.3438192" lon="14.1114264"><ele>48.0</ele><time>2026-05-03T12:00:52.465Z</time></trkpt><trkpt lat="42.3439124" lon="14.1114977"><ele>48.0</ele><time>2026-05-03T12:00:53.459Z</time></trkpt><trkpt lat="42.3440184" lon="14.1115968"><ele>48.0</ele><time>2026-05-03T12:00:54.456Z</time></trkpt><trkpt lat="42.3441407" lon="14.1117022"><ele>48.0</ele><time>2026-05-03T12:00:55.461Z</time></trkpt><trkpt lat="42.3442939" lon="14.1118637"><ele>48.0</ele><time>2026-05-03T12:00:56.464Z</time></trkpt><trkpt lat="42.3444176" lon="14.1119742"><ele>48.0</ele><time>2026-05-03T12:00:57.461Z</time></trkpt><trkpt lat="42.3445383" lon="14.1120567"><ele>48.0</ele><time>2026-05-03T12:00:58.465Z</time></trkpt><trkpt lat="42.3446495" lon="14.1121371"><ele>48.0</ele><time>2026-05-03T12:00:59.462Z</time></trkpt><trkpt lat="42.3447481" lon="14.1122032"><ele>47.599999999999994</ele><time>2026-05-03T12:01:00.452Z</time></trkpt><trkpt lat="42.3448283" lon="14.1122543"><ele>47.199999999999996</ele><time>2026-05-03T12:01:01.462Z</time></trkpt><trkpt lat="42.344924" lon="14.1123"><ele>46.8</ele><time>2026-05-03T12:01:02.452Z</time></trkpt><trkpt lat="42.3450244" lon="14.112362"><ele>46.4</ele><time>2026-05-03T12:01:03.458Z</time></trkpt><trkpt lat="42.3451405" lon="14.1124201"><ele>46.0</ele><time>2026-05-03T12:01:04.45Z</time></trkpt><trkpt lat="42.3452746" lon="14.1124761"><ele>46.0</ele><time>2026-05-03T12:01:05.46Z</time></trkpt><trkpt lat="42.3454312" lon="14.1125387"><ele>46.0</ele><time>2026-05-03T12:01:06.46Z</time></trkpt><trkpt lat="42.3455821" lon="14.1125895"><ele>46.0</ele><time>2026-05-03T12:01:07.463Z</time></trkpt><trkpt lat="42.3457259" lon="14.1126337"><ele>46.0</ele><time>2026-05-03T12:01:08.459Z</time></trkpt><trkpt lat="42.3458619" lon="14.1126646"><ele>46.0</ele><time>2026-05-03T12:01:09.47Z</time></trkpt><trkpt lat="42.345995" lon="14.1127002"><ele>46.0</ele><time>2026-05-03T12:01:10.466Z</time></trkpt><trkpt lat="42.346137" lon="14.1127539"><ele>46.0</ele><time>2026-05-03T12:01:11.464Z</time></trkpt><trkpt lat="42.3462758" lon="14.1128272"><ele>45.333333333333336</ele><time>2026-05-03T12:01:12.463Z</time></trkpt><trkpt lat="42.3464234" lon="14.1128799"><ele>44.666666666666664</ele><time>2026-05-03T12:01:13.464Z</time></trkpt><trkpt lat="42.3465677" lon="14.1129501"><ele>44.0</ele><time>2026-05-03T12:01:14.463Z</time></trkpt><trkpt lat="42.3467126" lon="14.1130082"><ele>44.0</ele><time>2026-05-03T12:01:15.466Z</time></trkpt><trkpt lat="42.3468394" lon="14.1130756"><ele>44.0</ele><time>2026-05-03T12:01:16.466Z</time></trkpt><trkpt lat="42.3469687" lon="14.1131322"><ele>44.0</ele><time>2026-05-03T12:01:17.465Z</time></trkpt><trkpt lat="42.3471218" lon="14.1131981"><ele>44.0</ele><time>2026-05-03T12:01:18.462Z</time></trkpt><trkpt lat="42.3472817" lon="14.113266"><ele>44.25</ele><time>2026-05-03T12:01:19.47Z</time></trkpt><trkpt lat="42.3474159" lon="14.1133355"><ele>44.5</ele><time>2026-05-03T12:01:20.459Z</time></trkpt><trkpt lat="42.3475313" lon="14.113416"><ele>44.75</ele><time>2026-05-03T12:01:21.467Z</time></trkpt><trkpt lat="42.3476591" lon="14.1134775"><ele>45.0</ele><time>2026-05-03T12:01:22.46Z</time></trkpt><trkpt lat="42.3477865" lon="14.1135248"><ele>45.0</ele><time>2026-05-03T12:01:23.463Z</time></trkpt><trkpt lat="42.347904" lon="14.1135856"><ele>45.0</ele><time>2026-05-03T12:01:24.464Z</time></trkpt><trkpt lat="42.3480269" lon="14.1136342"><ele>45.0</ele><time>2026-05-03T12:01:25.464Z</time></trkpt><trkpt lat="42.3481509" lon="14.1136825"><ele>45.0</ele><time>2026-05-03T12:01:26.469Z</time></trkpt><trkpt lat="42.3482477" lon="14.1137142"><ele>45.0</ele><time>2026-05-03T12:01:27.466Z</time></trkpt><trkpt lat="42.3483559" lon="14.1137284"><ele>45.0</ele><time>2026-05-03T12:01:28.47Z</time></trkpt><trkpt lat="42.3484917" lon="14.1136849"><ele>45.0</ele><time>2026-05-03T12:01:29.459Z</time></trkpt><trkpt lat="42.3486267" lon="14.1136223"><ele>45.0</ele><time>2026-05-03T12:01:30.46Z</time></trkpt><trkpt lat="42.3487713" lon="14.113547"><ele>44.0</ele><time>2026-05-03T12:01:31.456Z</time></trkpt><trkpt lat="42.3489184" lon="14.1134512"><ele>43.0</ele><time>2026-05-03T12:01:32.458Z</time></trkpt><trkpt lat="42.3490561" lon="14.1133445"><ele>42.0</ele><time>2026-05-03T12:01:33.459Z</time></trkpt><trkpt lat="42.3491892" lon="14.1132594"><ele>41.75</ele><time>2026-05-03T12:01:34.461Z</time></trkpt><trkpt lat="42.3493011" lon="14.1131884"><ele>41.5</ele><time>2026-05-03T12:01:35.457Z</time></trkpt><trkpt lat="42.3494079" lon="14.1131104"><ele>41.25</ele><time>2026-05-03T12:01:36.46Z</time></trkpt><trkpt lat="42.349526" lon="14.1130273"><ele>41.0</ele><time>2026-05-03T12:01:37.466Z</time></trkpt><trkpt lat="42.349642" lon="14.1129489"><ele>42.0</ele><time>2026-05-03T12:01:38.464Z</time></trkpt><trkpt lat="42.3497718" lon="14.1128494"><ele>43.0</ele><time>2026-05-03T12:01:39.468Z</time></trkpt><trkpt lat="42.3499068" lon="14.1127681"><ele>44.0</ele><time>2026-05-03T12:01:40.464Z</time></trkpt><trkpt lat="42.350049" lon="14.1126925"><ele>44.0</ele><time>2026-05-03T12:01:41.466Z</time></trkpt><trkpt lat="42.3501892" lon="14.1126274"><ele>44.0</ele><time>2026-05-03T12:01:42.468Z</time></trkpt><trkpt lat="42.3503427" lon="14.1125997"><ele>44.0</ele><time>2026-05-03T12:01:43.464Z</time></trkpt><trkpt lat="42.3505111" lon="14.1125619"><ele>44.0</ele><time>2026-05-03T12:01:44.465Z</time></trkpt><trkpt lat="42.3506868" lon="14.1125542"><ele>44.0</ele><time>2026-05-03T12:01:45.467Z</time></trkpt><trkpt lat="42.3508591" lon="14.1125727"><ele>44.0</ele><time>2026-05-03T12:01:46.472Z</time></trkpt><trkpt lat="42.3510229" lon="14.1126166"><ele>44.0</ele><time>2026-05-03T12:01:47.469Z</time></trkpt><trkpt lat="42.3511836" lon="14.1126841"><ele>44.0</ele><time>2026-05-03T12:01:48.469Z</time></trkpt><trkpt lat="42.3513471" lon="14.1127679"><ele>44.0</ele><time>2026-05-03T12:01:49.473Z</time></trkpt><trkpt lat="42.3514918" lon="14.1128271"><ele>42.666666666666664</ele><time>2026-05-03T12:01:50.466Z</time></trkpt><trkpt lat="42.3516488" lon="14.1128929"><ele>41.333333333333336</ele><time>2026-05-03T12:01:51.465Z</time></trkpt><trkpt lat="42.3518012" lon="14.1129702"><ele>40.0</ele><time>2026-05-03T12:01:52.469Z</time></trkpt><trkpt lat="42.3519626" lon="14.113041"><ele>40.0</ele><time>2026-05-03T12:01:53.468Z</time></trkpt><trkpt lat="42.3521168" lon="14.113117"><ele>40.0</ele><time>2026-05-03T12:01:54.467Z</time></trkpt><trkpt lat="42.3522761" lon="14.1131906"><ele>40.0</ele><time>2026-05-03T12:01:55.464Z</time></trkpt><trkpt lat="42.352431" lon="14.1132674"><ele>38.66666666666667</ele><time>2026-05-03T12:01:56.462Z</time></trkpt><trkpt lat="42.3525907" lon="14.1133565"><ele>37.333333333333336</ele><time>2026-05-03T12:01:57.464Z</time></trkpt><trkpt lat="42.3527579" lon="14.1134256"><ele>36.0</ele><time>2026-05-03T12:01:58.468Z</time></trkpt><trkpt lat="42.3529233" lon="14.1134907"><ele>35.666666666666664</ele><time>2026-05-03T12:01:59.461Z</time></trkpt><trkpt lat="42.3530791" lon="14.1135654"><ele>35.33333333333333</ele><time>2026-05-03T12:02:00.468Z</time></trkpt><trkpt lat="42.3532375" lon="14.1136267"><ele>35.0</ele><time>2026-05-03T12:02:01.466Z</time></trkpt><trkpt lat="42.3533882" lon="14.1136972"><ele>35.0</ele><time>2026-05-03T12:02:02.466Z</time></trkpt><trkpt lat="42.3535584" lon="14.1137621"><ele>35.0</ele><time>2026-05-03T12:02:03.465Z</time></trkpt><trkpt lat="42.3537233" lon="14.1138297"><ele>35.0</ele><time>2026-05-03T12:02:04.472Z</time></trkpt><trkpt lat="42.3538825" lon="14.1138741"><ele>35.33333333333333</ele><time>2026-05-03T12:02:05.463Z</time></trkpt><trkpt lat="42.3540556" lon="14.113923"><ele>35.666666666666664</ele><time>2026-05-03T12:02:06.465Z</time></trkpt><trkpt lat="42.3542179" lon="14.113981"><ele>36.0</ele><time>2026-05-03T12:02:07.471Z</time></trkpt><trkpt lat="42.3543788" lon="14.1140331"><ele>36.0</ele><time>2026-05-03T12:02:08.466Z</time></trkpt><trkpt lat="42.3545337" lon="14.114067"><ele>36.0</ele><time>2026-05-03T12:02:09.47Z</time></trkpt><trkpt lat="42.3546954" lon="14.1141039"><ele>36.0</ele><time>2026-05-03T12:02:10.464Z</time></trkpt><trkpt lat="42.3548438" lon="14.1141543"><ele>36.333333333333336</ele><time>2026-05-03T12:02:11.469Z</time></trkpt><trkpt lat="42.3550009" lon="14.114218"><ele>36.66666666666667</ele><time>2026-05-03T12:02:12.468Z</time></trkpt><trkpt lat="42.3551631" lon="14.1142901"><ele>37.0</ele><time>2026-05-03T12:02:13.468Z</time></trkpt><trkpt lat="42.3553251" lon="14.1143519"><ele>37.0</ele><time>2026-05-03T12:02:14.471Z</time></trkpt><trkpt lat="42.3554818" lon="14.1144193"><ele>37.0</ele><time>2026-05-03T12:02:15.471Z</time></trkpt><trkpt lat="42.3556305" lon="14.1144822"><ele>37.0</ele><time>2026-05-03T12:02:16.469Z</time></trkpt><trkpt lat="42.3557824" lon="14.1145647"><ele>40.333333333333336</ele><time>2026-05-03T12:02:17.469Z</time></trkpt><trkpt lat="42.3559408" lon="14.1146237"><ele>43.666666666666664</ele><time>2026-05-03T12:02:18.467Z</time></trkpt><trkpt lat="42.3560958" lon="14.1146926"><ele>47.0</ele><time>2026-05-03T12:02:19.473Z</time></trkpt><trkpt lat="42.3562557" lon="14.1147637"><ele>47.666666666666664</ele><time>2026-05-03T12:02:20.475Z</time></trkpt><trkpt lat="42.3564023" lon="14.1148243"><ele>48.33333333333333</ele><time>2026-05-03T12:02:21.47Z</time></trkpt><trkpt lat="42.3565503" lon="14.1148953"><ele>49.0</ele><time>2026-05-03T12:02:22.475Z</time></trkpt><trkpt lat="42.3566927" lon="14.1149593"><ele>45.666666666666664</ele><time>2026-05-03T12:02:23.471Z</time></trkpt><trkpt lat="42.3568536" lon="14.1150344"><ele>42.33333333333333</ele><time>2026-05-03T12:02:24.468Z</time></trkpt><trkpt lat="42.3570022" lon="14.1151004"><ele>39.0</ele><time>2026-05-03T12:02:25.464Z</time></trkpt><trkpt lat="42.3571551" lon="14.1151708"><ele>39.666666666666664</ele><time>2026-05-03T12:02:26.471Z</time></trkpt><trkpt lat="42.3573036" lon="14.1152242"><ele>40.33333333333333</ele><time>2026-05-03T12:02:27.469Z</time></trkpt><trkpt lat="42.3574556" lon="14.1152681"><ele>41.0</ele><time>2026-05-03T12:02:28.475Z</time></trkpt><trkpt lat="42.3576019" lon="14.1153259"><ele>41.0</ele><time>2026-05-03T12:02:29.469Z</time></trkpt><trkpt lat="42.3577396" lon="14.1153809"><ele>41.0</ele><time>2026-05-03T12:02:30.471Z</time></trkpt><trkpt lat="42.3578979" lon="14.1154093"><ele>41.0</ele><time>2026-05-03T12:02:31.469Z</time></trkpt><trkpt lat="42.3580434" lon="14.1154625"><ele>41.0</ele><time>2026-05-03T12:02:32.471Z</time></trkpt><trkpt lat="42.3581852" lon="14.1155319"><ele>41.0</ele><time>2026-05-03T12:02:33.467Z</time></trkpt><trkpt lat="42.3583306" lon="14.1156056"><ele>41.0</ele><time>2026-05-03T12:02:34.47Z</time></trkpt><trkpt lat="42.3584964" lon="14.1156871"><ele>40.0</ele><time>2026-05-03T12:02:35.474Z</time></trkpt><trkpt lat="42.3586481" lon="14.1157576"><ele>39.0</ele><time>2026-05-03T12:02:36.469Z</time></trkpt><trkpt lat="42.3588156" lon="14.1158405"><ele>38.0</ele><time>2026-05-03T12:02:37.469Z</time></trkpt><trkpt lat="42.3589663" lon="14.1159441"><ele>37.33333333333333</ele><time>2026-05-03T12:02:38.467Z</time></trkpt><trkpt lat="42.3591245" lon="14.1160242"><ele>36.666666666666664</ele><time>2026-05-03T12:02:39.472Z</time></trkpt><trkpt lat="42.3592881" lon="14.1161068"><ele>36.0</ele><time>2026-05-03T12:02:40.475Z</time></trkpt><trkpt lat="42.3594506" lon="14.116173"><ele>36.0</ele><time>2026-05-03T12:02:41.467Z</time></trkpt><trkpt lat="42.359619" lon="14.116249"><ele>36.0</ele><time>2026-05-03T12:02:42.462Z</time></trkpt><trkpt lat="42.3597836" lon="14.1163043"><ele>36.0</ele><time>2026-05-03T12:02:43.467Z</time></trkpt><trkpt lat="42.3599394" lon="14.1163522"><ele>36.333333333333336</ele><time>2026-05-03T12:02:44.47Z</time></trkpt><trkpt lat="42.3600909" lon="14.1164122"><ele>36.66666666666667</ele><time>2026-05-03T12:02:45.469Z</time></trkpt><trkpt lat="42.3602648" lon="14.1164657"><ele>37.0</ele><time>2026-05-03T12:02:46.466Z</time></trkpt><trkpt lat="42.3604243" lon="14.1165316"><ele>34.66666666666667</ele><time>2026-05-03T12:02:47.469Z</time></trkpt><trkpt lat="42.3605869" lon="14.1166066"><ele>32.333333333333336</ele><time>2026-05-03T12:02:48.472Z</time></trkpt><trkpt lat="42.3607423" lon="14.116679"><ele>30.0</ele><time>2026-05-03T12:02:49.47Z</time></trkpt><trkpt lat="42.3609082" lon="14.1167348"><ele>30.0</ele><time>2026-05-03T12:02:50.473Z</time></trkpt><trkpt lat="42.3610689" lon="14.1167978"><ele>30.0</ele><time>2026-05-03T12:02:51.469Z</time></trkpt><trkpt lat="42.361232" lon="14.116847"><ele>30.0</ele><time>2026-05-03T12:02:52.472Z</time></trkpt><trkpt lat="42.3613876" lon="14.1169043"><ele>32.0</ele><time>2026-05-03T12:02:53.472Z</time></trkpt><trkpt lat="42.3615483" lon="14.116985"><ele>34.0</ele><time>2026-05-03T12:02:54.47Z</time></trkpt><trkpt lat="42.3617227" lon="14.1170603"><ele>36.0</ele><time>2026-05-03T12:02:55.467Z</time></trkpt><trkpt lat="42.3618929" lon="14.1171513"><ele>36.0</ele><time>2026-05-03T12:02:56.47Z</time></trkpt><trkpt lat="42.362055" lon="14.1172282"><ele>36.0</ele><time>2026-05-03T12:02:57.473Z</time></trkpt><trkpt lat="42.3622075" lon="14.117306"><ele>36.0</ele><time>2026-05-03T12:02:58.476Z</time></trkpt><trkpt lat="42.3623665" lon="14.1173704"><ele>33.666666666666664</ele><time>2026-05-03T12:02:59.47Z</time></trkpt><trkpt lat="42.3625225" lon="14.1174376"><ele>31.333333333333332</ele><time>2026-05-03T12:03:00.476Z</time></trkpt><trkpt lat="42.3626753" lon="14.1174948"><ele>29.0</ele><time>2026-05-03T12:03:01.475Z</time></trkpt><trkpt lat="42.3628344" lon="14.1175256"><ele>29.0</ele><time>2026-05-03T12:03:02.471Z</time></trkpt><trkpt lat="42.3629994" lon="14.1175464"><ele>29.0</ele><time>2026-05-03T12:03:03.472Z</time></trkpt><trkpt lat="42.3631516" lon="14.1175541"><ele>29.0</ele><time>2026-05-03T12:03:04.466Z</time></trkpt><trkpt lat="42.3633096" lon="14.1175632"><ele>29.666666666666664</ele><time>2026-05-03T12:03:05.472Z</time></trkpt><trkpt lat="42.3634718" lon="14.117553"><ele>30.333333333333336</ele><time>2026-05-03T12:03:06.468Z</time></trkpt><trkpt lat="42.3636447" lon="14.1175437"><ele>31.0</ele><time>2026-05-03T12:03:07.47Z</time></trkpt><trkpt lat="42.3638094" lon="14.1175518"><ele>31.666666666666668</ele><time>2026-05-03T12:03:08.471Z</time></trkpt><trkpt lat="42.3639685" lon="14.1175584"><ele>32.333333333333336</ele><time>2026-05-03T12:03:09.47Z</time></trkpt><trkpt lat="42.3641329" lon="14.1175617"><ele>33.0</ele><time>2026-05-03T12:03:10.467Z</time></trkpt><trkpt lat="42.3642973" lon="14.1175722"><ele>33.0</ele><time>2026-05-03T12:03:11.467Z</time></trkpt><trkpt lat="42.3644752" lon="14.1176123"><ele>33.0</ele><time>2026-05-03T12:03:12.466Z</time></trkpt><trkpt lat="42.3646404" lon="14.1177138"><ele>33.0</ele><time>2026-05-03T12:03:13.458Z</time></trkpt><trkpt lat="42.3647767" lon="14.1178181"><ele>32.666666666666664</ele><time>2026-05-03T12:03:14.465Z</time></trkpt><trkpt lat="42.3649224" lon="14.117943"><ele>32.33333333333333</ele><time>2026-05-03T12:03:15.468Z</time></trkpt><trkpt lat="42.3650661" lon="14.1180444"><ele>32.0</ele><time>2026-05-03T12:03:16.466Z</time></trkpt><trkpt lat="42.3652121" lon="14.1181431"><ele>31.0</ele><time>2026-05-03T12:03:17.468Z</time></trkpt><trkpt lat="42.3653753" lon="14.1182396"><ele>30.0</ele><time>2026-05-03T12:03:18.465Z</time></trkpt><trkpt lat="42.3655299" lon="14.1183333"><ele>29.0</ele><time>2026-05-03T12:03:19.466Z</time></trkpt><trkpt lat="42.3656871" lon="14.1184333"><ele>28.666666666666664</ele><time>2026-05-03T12:03:20.469Z</time></trkpt><trkpt lat="42.3658452" lon="14.1185272"><ele>28.333333333333336</ele><time>2026-05-03T12:03:21.468Z</time></trkpt><trkpt lat="42.3660028" lon="14.118634"><ele>28.0</ele><time>2026-05-03T12:03:22.47Z</time></trkpt><trkpt lat="42.366147" lon="14.1187273"><ele>28.0</ele><time>2026-05-03T12:03:23.472Z</time></trkpt><trkpt lat="42.3662864" lon="14.1188277"><ele>28.0</ele><time>2026-05-03T12:03:24.473Z</time></trkpt><trkpt lat="42.366431" lon="14.1189356"><ele>28.0</ele><time>2026-05-03T12:03:25.476Z</time></trkpt><trkpt lat="42.3665772" lon="14.1190439"><ele>27.666666666666668</ele><time>2026-05-03T12:03:26.468Z</time></trkpt><trkpt lat="42.3667173" lon="14.1191599"><ele>27.333333333333336</ele><time>2026-05-03T12:03:27.47Z</time></trkpt><trkpt lat="42.3668542" lon="14.1192713"><ele>27.0</ele><time>2026-05-03T12:03:28.477Z</time></trkpt><trkpt lat="42.36699" lon="14.1193681"><ele>27.0</ele><time>2026-05-03T12:03:29.47Z</time></trkpt><trkpt lat="42.3671353" lon="14.1194446"><ele>27.0</ele><time>2026-05-03T12:03:30.47Z</time></trkpt><trkpt lat="42.3672722" lon="14.1195324"><ele>27.0</ele><time>2026-05-03T12:03:31.474Z</time></trkpt><trkpt lat="42.3674035" lon="14.1196178"><ele>27.25</ele><time>2026-05-03T12:03:32.472Z</time></trkpt><trkpt lat="42.3675321" lon="14.1196942"><ele>27.5</ele><time>2026-05-03T12:03:33.47Z</time></trkpt><trkpt lat="42.3676629" lon="14.1197699"><ele>27.75</ele><time>2026-05-03T12:03:34.474Z</time></trkpt><trkpt lat="42.367783" lon="14.1198587"><ele>28.0</ele><time>2026-05-03T12:03:35.471Z</time></trkpt><trkpt lat="42.3679085" lon="14.1199637"><ele>28.333333333333336</ele><time>2026-05-03T12:03:36.474Z</time></trkpt><trkpt lat="42.3680399" lon="14.1200697"><ele>28.666666666666664</ele><time>2026-05-03T12:03:37.476Z</time></trkpt><trkpt lat="42.3681757" lon="14.120156"><ele>29.0</ele><time>2026-05-03T12:03:38.475Z</time></trkpt><trkpt lat="42.3683161" lon="14.1202282"><ele>29.0</ele><time>2026-05-03T12:03:39.472Z</time></trkpt><trkpt lat="42.3684701" lon="14.1202899"><ele>29.0</ele><time>2026-05-03T12:03:40.471Z</time></trkpt><trkpt lat="42.3686241" lon="14.12034"><ele>29.0</ele><time>2026-05-03T12:03:41.467Z</time></trkpt><trkpt lat="42.3688006" lon="14.1203645"><ele>31.666666666666664</ele><time>2026-05-03T12:03:42.47Z</time></trkpt><trkpt lat="42.3689823" lon="14.1203836"><ele>34.333333333333336</ele><time>2026-05-03T12:03:43.474Z</time></trkpt><trkpt lat="42.3691562" lon="14.1203967"><ele>37.0</ele><time>2026-05-03T12:03:44.475Z</time></trkpt><trkpt lat="42.3693257" lon="14.1204206"><ele>37.0</ele><time>2026-05-03T12:03:45.472Z</time></trkpt><trkpt lat="42.3694947" lon="14.1204351"><ele>37.0</ele><time>2026-05-03T12:03:46.47Z</time></trkpt><trkpt lat="42.3696574" lon="14.1204571"><ele>37.0</ele><time>2026-05-03T12:03:47.472Z</time></trkpt><trkpt lat="42.3698315" lon="14.1204642"><ele>37.0</ele><time>2026-05-03T12:03:48.471Z</time></trkpt><trkpt lat="42.3700051" lon="14.1204771"><ele>37.0</ele><time>2026-05-03T12:03:49.47Z</time></trkpt><trkpt lat="42.3701625" lon="14.1204913"><ele>37.0</ele><time>2026-05-03T12:03:50.47Z</time></trkpt><trkpt lat="42.3703261" lon="14.1205127"><ele>37.0</ele><time>2026-05-03T12:03:51.476Z</time></trkpt><trkpt lat="42.3704914" lon="14.1205377"><ele>37.0</ele><time>2026-05-03T12:03:52.474Z</time></trkpt><trkpt lat="42.3706579" lon="14.1205624"><ele>37.0</ele><time>2026-05-03T12:03:53.471Z</time></trkpt><trkpt lat="42.3708185" lon="14.1206125"><ele>37.333333333333336</ele><time>2026-05-03T12:03:54.472Z</time></trkpt><trkpt lat="42.3709699" lon="14.1206779"><ele>37.666666666666664</ele><time>2026-05-03T12:03:55.47Z</time></trkpt><trkpt lat="42.3711233" lon="14.1207358"><ele>38.0</ele><time>2026-05-03T12:03:56.467Z</time></trkpt><trkpt lat="42.3712774" lon="14.1207874"><ele>36.33333333333333</ele><time>2026-05-03T12:03:57.462Z</time></trkpt><trkpt lat="42.3714328" lon="14.1208705"><ele>34.666666666666664</ele><time>2026-05-03T12:03:58.472Z</time></trkpt><trkpt lat="42.3715891" lon="14.1209682"><ele>33.0</ele><time>2026-05-03T12:03:59.467Z</time></trkpt><trkpt lat="42.3717256" lon="14.1210434"><ele>33.0</ele><time>2026-05-03T12:04:00.47Z</time></trkpt><trkpt lat="42.3718595" lon="14.1211039"><ele>33.0</ele><time>2026-05-03T12:04:01.468Z</time></trkpt><trkpt lat="42.3719903" lon="14.1211724"><ele>33.0</ele><time>2026-05-03T12:04:02.471Z</time></trkpt><trkpt lat="42.3721067" lon="14.1212393"><ele>33.0</ele><time>2026-05-03T12:04:03.471Z</time></trkpt><trkpt lat="42.3722541" lon="14.1213106"><ele>33.333333333333336</ele><time>2026-05-03T12:04:04.466Z</time></trkpt><trkpt lat="42.3723925" lon="14.1214089"><ele>33.66666666666667</ele><time>2026-05-03T12:04:05.463Z</time></trkpt><trkpt lat="42.3725308" lon="14.1215384"><ele>34.0</ele><time>2026-05-03T12:04:06.467Z</time></trkpt><trkpt lat="42.3726501" lon="14.1216507"><ele>34.0</ele><time>2026-05-03T12:04:07.465Z</time></trkpt><trkpt lat="42.3727721" lon="14.1217269"><ele>34.0</ele><time>2026-05-03T12:04:08.466Z</time></trkpt><trkpt lat="42.3728793" lon="14.1218012"><ele>34.0</ele><time>2026-05-03T12:04:09.465Z</time></trkpt><trkpt lat="42.372971" lon="14.1218904"><ele>34.0</ele><time>2026-05-03T12:04:10.471Z</time></trkpt><trkpt lat="42.3730636" lon="14.1219674"><ele>35.16666666666667</ele><time>2026-05-03T12:04:11.468Z</time></trkpt><trkpt lat="42.3731465" lon="14.122043"><ele>36.333333333333336</ele><time>2026-05-03T12:04:12.47Z</time></trkpt><trkpt lat="42.3732183" lon="14.1221032"><ele>37.5</ele><time>2026-05-03T12:04:13.468Z</time></trkpt><trkpt lat="42.3732883" lon="14.1221646"><ele>38.666666666666664</ele><time>2026-05-03T12:04:14.468Z</time></trkpt><trkpt lat="42.3733602" lon="14.1222257"><ele>39.83333333333333</ele><time>2026-05-03T12:04:15.463Z</time></trkpt><trkpt lat="42.3734429" lon="14.1222814"><ele>41.0</ele><time>2026-05-03T12:04:16.471Z</time></trkpt><trkpt lat="42.3735292" lon="14.1223461"><ele>41.0</ele><time>2026-05-03T12:04:17.469Z</time></trkpt><trkpt lat="42.3736166" lon="14.1224124"><ele>41.0</ele><time>2026-05-03T12:04:18.464Z</time></trkpt><trkpt lat="42.373696" lon="14.1224708"><ele>41.0</ele><time>2026-05-03T12:04:19.469Z</time></trkpt><trkpt lat="42.3737743" lon="14.122523"><ele>41.0</ele><time>2026-05-03T12:04:20.467Z</time></trkpt><trkpt lat="42.3738318" lon="14.1225597"><ele>41.0</ele><time>2026-05-03T12:04:21.462Z</time></trkpt><trkpt lat="42.3739275" lon="14.1226265"><ele>41.0</ele><time>2026-05-03T12:04:23.469Z</time></trkpt><trkpt lat="42.3739901" lon="14.1226669"><ele>41.0</ele><time>2026-05-03T12:04:25.464Z</time></trkpt><trkpt lat="42.3740464" lon="14.1227076"><ele>41.0</ele><time>2026-05-03T12:04:30.469Z</time></trkpt><trkpt lat="42.3741102" lon="14.122788"><ele>41.0</ele><time>2026-05-03T12:05:01.46Z</time></trkpt><trkpt lat="42.3741708" lon="14.1228351"><ele>41.0</ele><time>2026-05-03T12:05:02.465Z</time></trkpt><trkpt lat="42.3742521" lon="14.1229015"><ele>41.0</ele><time>2026-05-03T12:05:03.466Z</time></trkpt><trkpt lat="42.3743406" lon="14.1229807"><ele>41.0</ele><time>2026-05-03T12:05:04.472Z</time></trkpt><trkpt lat="42.3744454" lon="14.1230647"><ele>41.0</ele><time>2026-05-03T12:05:05.467Z</time></trkpt><trkpt lat="42.3745647" lon="14.123161"><ele>41.0</ele><time>2026-05-03T12:05:06.464Z</time></trkpt><trkpt lat="42.3746884" lon="14.1232578"><ele>41.0</ele><time>2026-05-03T12:05:07.469Z</time></trkpt><trkpt lat="42.3748108" lon="14.1233646"><ele>41.0</ele><time>2026-05-03T12:05:08.468Z</time></trkpt><trkpt lat="42.3749416" lon="14.1234862"><ele>40.33333333333333</ele><time>2026-05-03T12:05:09.476Z</time></trkpt><trkpt lat="42.3750916" lon="14.1236014"><ele>39.666666666666664</ele><time>2026-05-03T12:05:10.471Z</time></trkpt><trkpt lat="42.3752168" lon="14.1236819"><ele>39.0</ele><time>2026-05-03T12:05:11.469Z</time></trkpt><trkpt lat="42.3753457" lon="14.1237987"><ele>39.0</ele><time>2026-05-03T12:05:12.469Z</time></trkpt><trkpt lat="42.3754794" lon="14.1238875"><ele>39.0</ele><time>2026-05-03T12:05:13.472Z</time></trkpt><trkpt lat="42.3755925" lon="14.1239608"><ele>39.0</ele><time>2026-05-03T12:05:14.474Z</time></trkpt><trkpt lat="42.3756908" lon="14.1240326"><ele>39.0</ele><time>2026-05-03T12:05:15.472Z</time></trkpt><trkpt lat="42.3757963" lon="14.1240878"><ele>38.8</ele><time>2026-05-03T12:05:16.463Z</time></trkpt><trkpt lat="42.3759117" lon="14.1241076"><ele>38.599999999999994</ele><time>2026-05-03T12:05:17.467Z</time></trkpt><trkpt lat="42.3760222" lon="14.1241043"><ele>38.4</ele><time>2026-05-03T12:05:18.472Z</time></trkpt><trkpt lat="42.3761236" lon="14.124121"><ele>38.199999999999996</ele><time>2026-05-03T12:05:19.474Z</time></trkpt><trkpt lat="42.3762135" lon="14.1241466"><ele>38.0</ele><time>2026-05-03T12:05:20.465Z</time></trkpt><trkpt lat="42.3762839" lon="14.1241951"><ele>38.0</ele><time>2026-05-03T12:05:21.472Z</time></trkpt><trkpt lat="42.3763435" lon="14.1242758"><ele>38.0</ele><time>2026-05-03T12:05:22.47Z</time></trkpt><trkpt lat="42.3763911" lon="14.124373"><ele>38.0</ele><time>2026-05-03T12:05:23.474Z</time></trkpt><trkpt lat="42.376427" lon="14.1244694"><ele>38.0</ele><time>2026-05-03T12:05:24.462Z</time></trkpt><trkpt lat="42.3764714" lon="14.1245463"><ele>38.0</ele><time>2026-05-03T12:05:25.478Z</time></trkpt><trkpt lat="42.3765356" lon="14.1245754"><ele>38.0</ele><time>2026-05-03T12:05:26.466Z</time></trkpt><trkpt lat="42.3766018" lon="14.1245561"><ele>37.8</ele><time>2026-05-03T12:05:27.467Z</time></trkpt><trkpt lat="42.3766602" lon="14.1244861"><ele>37.599999999999994</ele><time>2026-05-03T12:05:28.469Z</time></trkpt><trkpt lat="42.3767071" lon="14.1243817"><ele>37.400000000000006</ele><time>2026-05-03T12:05:29.466Z</time></trkpt><trkpt lat="42.376762" lon="14.1242604"><ele>37.2</ele><time>2026-05-03T12:05:30.472Z</time></trkpt><trkpt lat="42.3768547" lon="14.124133"><ele>37.0</ele><time>2026-05-03T12:05:31.456Z</time></trkpt><trkpt lat="42.3769611" lon="14.1240067"><ele>38.75</ele><time>2026-05-03T12:05:32.463Z</time></trkpt><trkpt lat="42.3770694" lon="14.1238366"><ele>40.5</ele><time>2026-05-03T12:05:33.464Z</time></trkpt><trkpt lat="42.3771485" lon="14.1236623"><ele>42.25</ele><time>2026-05-03T12:05:34.463Z</time></trkpt><trkpt lat="42.3772401" lon="14.1235603"><ele>44.0</ele><time>2026-05-03T12:05:35.472Z</time></trkpt><trkpt lat="42.3773552" lon="14.1234979"><ele>44.5</ele><time>2026-05-03T12:05:36.463Z</time></trkpt><trkpt lat="42.3774784" lon="14.1234755"><ele>45.0</ele><time>2026-05-03T12:05:37.461Z</time></trkpt><trkpt lat="42.3776087" lon="14.1234948"><ele>45.5</ele><time>2026-05-03T12:05:38.462Z</time></trkpt><trkpt lat="42.3777606" lon="14.1235341"><ele>46.0</ele><time>2026-05-03T12:05:39.459Z</time></trkpt><trkpt lat="42.3779306" lon="14.1235766"><ele>49.0</ele><time>2026-05-03T12:05:40.462Z</time></trkpt><trkpt lat="42.3781081" lon="14.1236268"><ele>52.0</ele><time>2026-05-03T12:05:41.458Z</time></trkpt><trkpt lat="42.378295" lon="14.1236386"><ele>55.0</ele><time>2026-05-03T12:05:42.457Z</time></trkpt><trkpt lat="42.3784816" lon="14.1236591"><ele>55.0</ele><time>2026-05-03T12:05:43.461Z</time></trkpt><trkpt lat="42.3786469" lon="14.1236922"><ele>55.0</ele><time>2026-05-03T12:05:44.464Z</time></trkpt><trkpt lat="42.3788258" lon="14.1237252"><ele>55.0</ele><time>2026-05-03T12:05:45.464Z</time></trkpt><trkpt lat="42.3789851" lon="14.1237594"><ele>56.0</ele><time>2026-05-03T12:05:46.461Z</time></trkpt><trkpt lat="42.3791193" lon="14.1237754"><ele>57.0</ele><time>2026-05-03T12:05:47.464Z</time></trkpt><trkpt lat="42.3792541" lon="14.1238154"><ele>58.0</ele><time>2026-05-03T12:05:48.462Z</time></trkpt><trkpt lat="42.3793701" lon="14.1238627"><ele>59.0</ele><time>2026-05-03T12:05:49.459Z</time></trkpt><trkpt lat="42.3794652" lon="14.1239264"><ele>59.0</ele><time>2026-05-03T12:05:50.464Z</time></trkpt><trkpt lat="42.379563" lon="14.1240224"><ele>59.0</ele><time>2026-05-03T12:05:51.462Z</time></trkpt><trkpt lat="42.3796496" lon="14.1241397"><ele>59.0</ele><time>2026-05-03T12:05:52.467Z</time></trkpt><trkpt lat="42.3797541" lon="14.1242581"><ele>59.0</ele><time>2026-05-03T12:05:53.468Z</time></trkpt><trkpt lat="42.3798965" lon="14.1243702"><ele>56.66666666666667</ele><time>2026-05-03T12:05:54.47Z</time></trkpt><trkpt lat="42.3800482" lon="14.1244965"><ele>54.33333333333333</ele><time>2026-05-03T12:05:55.47Z</time></trkpt><trkpt lat="42.3802053" lon="14.1246099"><ele>52.0</ele><time>2026-05-03T12:05:56.467Z</time></trkpt><trkpt lat="42.3803561" lon="14.1247324"><ele>50.666666666666664</ele><time>2026-05-03T12:05:57.465Z</time></trkpt><trkpt lat="42.3805194" lon="14.1248422"><ele>49.33333333333333</ele><time>2026-05-03T12:05:58.477Z</time></trkpt><trkpt lat="42.3806719" lon="14.124943"><ele>48.0</ele><time>2026-05-03T12:05:59.47Z</time></trkpt><trkpt lat="42.3808263" lon="14.12505"><ele>48.0</ele><time>2026-05-03T12:06:00.473Z</time></trkpt><trkpt lat="42.3809856" lon="14.1251616"><ele>48.0</ele><time>2026-05-03T12:06:01.471Z</time></trkpt><trkpt lat="42.3811469" lon="14.1252765"><ele>48.0</ele><time>2026-05-03T12:06:02.471Z</time></trkpt><trkpt lat="42.3813044" lon="14.1253806"><ele>46.666666666666664</ele><time>2026-05-03T12:06:03.466Z</time></trkpt><trkpt lat="42.3814602" lon="14.1255164"><ele>45.33333333333333</ele><time>2026-05-03T12:06:04.47Z</time></trkpt><trkpt lat="42.3816133" lon="14.1256291"><ele>44.0</ele><time>2026-05-03T12:06:05.466Z</time></trkpt><trkpt lat="42.3817649" lon="14.1257456"><ele>44.0</ele><time>2026-05-03T12:06:06.47Z</time></trkpt><trkpt lat="42.3819158" lon="14.1258634"><ele>44.0</ele><time>2026-05-03T12:06:07.468Z</time></trkpt><trkpt lat="42.3820525" lon="14.1259797"><ele>44.0</ele><time>2026-05-03T12:06:08.466Z</time></trkpt><trkpt lat="42.3821953" lon="14.1260963"><ele>47.0</ele><time>2026-05-03T12:06:09.472Z</time></trkpt><trkpt lat="42.3823284" lon="14.1262263"><ele>50.0</ele><time>2026-05-03T12:06:10.467Z</time></trkpt><trkpt lat="42.382457" lon="14.1263388"><ele>53.0</ele><time>2026-05-03T12:06:11.472Z</time></trkpt><trkpt lat="42.3825893" lon="14.1264301"><ele>53.0</ele><time>2026-05-03T12:06:12.466Z</time></trkpt><trkpt lat="42.3827453" lon="14.1264999"><ele>53.0</ele><time>2026-05-03T12:06:13.464Z</time></trkpt><trkpt lat="42.3829106" lon="14.1265243"><ele>53.0</ele><time>2026-05-03T12:06:14.47Z</time></trkpt><trkpt lat="42.3830695" lon="14.126531"><ele>53.0</ele><time>2026-05-03T12:06:15.471Z</time></trkpt><trkpt lat="42.3832181" lon="14.1265308"><ele>53.0</ele><time>2026-05-03T12:06:16.48Z</time></trkpt><trkpt lat="42.3833455" lon="14.1265144"><ele>53.0</ele><time>2026-05-03T12:06:17.474Z</time></trkpt><trkpt lat="42.383485" lon="14.1265411"><ele>53.0</ele><time>2026-05-03T12:06:18.473Z</time></trkpt><trkpt lat="42.383612" lon="14.1266372"><ele>49.333333333333336</ele><time>2026-05-03T12:06:19.465Z</time></trkpt><trkpt lat="42.383761" lon="14.1267166"><ele>45.66666666666667</ele><time>2026-05-03T12:06:20.465Z</time></trkpt><trkpt lat="42.3839127" lon="14.12679"><ele>42.0</ele><time>2026-05-03T12:06:21.471Z</time></trkpt><trkpt lat="42.3840572" lon="14.1268721"><ele>42.0</ele><time>2026-05-03T12:06:22.469Z</time></trkpt><trkpt lat="42.3842176" lon="14.1269369"><ele>42.0</ele><time>2026-05-03T12:06:23.471Z</time></trkpt><trkpt lat="42.3843698" lon="14.1270092"><ele>42.0</ele><time>2026-05-03T12:06:24.472Z</time></trkpt><trkpt lat="42.384537" lon="14.1270615"><ele>43.0</ele><time>2026-05-03T12:06:25.475Z</time></trkpt><trkpt lat="42.3846866" lon="14.1271219"><ele>44.0</ele><time>2026-05-03T12:06:26.464Z</time></trkpt><trkpt lat="42.3848224" lon="14.1271913"><ele>45.0</ele><time>2026-05-03T12:06:27.464Z</time></trkpt><trkpt lat="42.3849678" lon="14.1272552"><ele>45.0</ele><time>2026-05-03T12:06:28.468Z</time></trkpt><trkpt lat="42.3851164" lon="14.1273402"><ele>45.0</ele><time>2026-05-03T12:06:29.458Z</time></trkpt><trkpt lat="42.3852597" lon="14.127449"><ele>45.0</ele><time>2026-05-03T12:06:30.465Z</time></trkpt><trkpt lat="42.3853805" lon="14.1275757"><ele>42.0</ele><time>2026-05-03T12:06:31.461Z</time></trkpt><trkpt lat="42.3855262" lon="14.1277256"><ele>39.0</ele><time>2026-05-03T12:06:32.469Z</time></trkpt><trkpt lat="42.3856615" lon="14.127883"><ele>36.0</ele><time>2026-05-03T12:06:33.464Z</time></trkpt><trkpt lat="42.3857985" lon="14.1280313"><ele>36.0</ele><time>2026-05-03T12:06:34.468Z</time></trkpt><trkpt lat="42.3859333" lon="14.1281709"><ele>36.0</ele><time>2026-05-03T12:06:35.469Z</time></trkpt><trkpt lat="42.3860605" lon="14.1283159"><ele>36.0</ele><time>2026-05-03T12:06:36.468Z</time></trkpt><trkpt lat="42.3861944" lon="14.1284521"><ele>35.666666666666664</ele><time>2026-05-03T12:06:37.469Z</time></trkpt><trkpt lat="42.3863101" lon="14.1285961"><ele>35.33333333333333</ele><time>2026-05-03T12:06:38.471Z</time></trkpt><trkpt lat="42.3864153" lon="14.1287442"><ele>35.0</ele><time>2026-05-03T12:06:39.463Z</time></trkpt><trkpt lat="42.3865071" lon="14.1289114"><ele>34.33333333333333</ele><time>2026-05-03T12:06:40.465Z</time></trkpt><trkpt lat="42.3866068" lon="14.1290785"><ele>33.666666666666664</ele><time>2026-05-03T12:06:41.463Z</time></trkpt><trkpt lat="42.3867033" lon="14.129243"><ele>33.0</ele><time>2026-05-03T12:06:42.465Z</time></trkpt><trkpt lat="42.3868044" lon="14.1293772"><ele>33.0</ele><time>2026-05-03T12:06:43.47Z</time></trkpt><trkpt lat="42.3868976" lon="14.1295006"><ele>33.0</ele><time>2026-05-03T12:06:44.468Z</time></trkpt><trkpt lat="42.3869927" lon="14.1296134"><ele>33.0</ele><time>2026-05-03T12:06:45.467Z</time></trkpt><trkpt lat="42.3870953" lon="14.1297014"><ele>33.0</ele><time>2026-05-03T12:06:46.468Z</time></trkpt><trkpt lat="42.3871981" lon="14.1297917"><ele>32.75</ele><time>2026-05-03T12:06:47.472Z</time></trkpt><trkpt lat="42.3872884" lon="14.1298954"><ele>32.5</ele><time>2026-05-03T12:06:48.475Z</time></trkpt><trkpt lat="42.3873826" lon="14.1299927"><ele>32.25</ele><time>2026-05-03T12:06:49.468Z</time></trkpt><trkpt lat="42.3874904" lon="14.1301097"><ele>32.0</ele><time>2026-05-03T12:06:50.474Z</time></trkpt><trkpt lat="42.3876" lon="14.130217"><ele>32.0</ele><time>2026-05-03T12:06:51.468Z</time></trkpt><trkpt lat="42.3877158" lon="14.1303261"><ele>32.0</ele><time>2026-05-03T12:06:52.476Z</time></trkpt><trkpt lat="42.3878212" lon="14.1304314"><ele>32.0</ele><time>2026-05-03T12:06:53.469Z</time></trkpt><trkpt lat="42.3879268" lon="14.1305141"><ele>32.0</ele><time>2026-05-03T12:06:54.479Z</time></trkpt><trkpt lat="42.3880389" lon="14.1305627"><ele>32.0</ele><time>2026-05-03T12:06:55.478Z</time></trkpt><trkpt lat="42.3881688" lon="14.1306215"><ele>32.0</ele><time>2026-05-03T12:06:56.471Z</time></trkpt><trkpt lat="42.3883105" lon="14.130685"><ele>32.0</ele><time>2026-05-03T12:06:57.468Z</time></trkpt><trkpt lat="42.3884606" lon="14.130774"><ele>32.0</ele><time>2026-05-03T12:06:58.476Z</time></trkpt><trkpt lat="42.3886043" lon="14.1308592"><ele>32.0</ele><time>2026-05-03T12:06:59.473Z</time></trkpt><trkpt lat="42.3887409" lon="14.1309495"><ele>32.0</ele><time>2026-05-03T12:07:00.467Z</time></trkpt><trkpt lat="42.3888866" lon="14.1310462"><ele>32.33333333333333</ele><time>2026-05-03T12:07:01.471Z</time></trkpt><trkpt lat="42.3890515" lon="14.1311639"><ele>32.666666666666664</ele><time>2026-05-03T12:07:02.477Z</time></trkpt><trkpt lat="42.3892204" lon="14.1313011"><ele>33.0</ele><time>2026-05-03T12:07:03.469Z</time></trkpt><trkpt lat="42.389367" lon="14.131418"><ele>33.0</ele><time>2026-05-03T12:07:04.476Z</time></trkpt><trkpt lat="42.3895081" lon="14.1315135"><ele>33.0</ele><time>2026-05-03T12:07:05.473Z</time></trkpt><trkpt lat="42.3896473" lon="14.1316421"><ele>33.0</ele><time>2026-05-03T12:07:06.479Z</time></trkpt><trkpt lat="42.389787" lon="14.1317699"><ele>32.333333333333336</ele><time>2026-05-03T12:07:07.474Z</time></trkpt><trkpt lat="42.3899498" lon="14.131903"><ele>31.666666666666668</ele><time>2026-05-03T12:07:08.477Z</time></trkpt><trkpt lat="42.3900959" lon="14.1320391"><ele>31.0</ele><time>2026-05-03T12:07:09.472Z</time></trkpt><trkpt lat="42.3902567" lon="14.1321654"><ele>31.0</ele><time>2026-05-03T12:07:10.475Z</time></trkpt><trkpt lat="42.3904089" lon="14.1322854"><ele>31.0</ele><time>2026-05-03T12:07:11.469Z</time></trkpt><trkpt lat="42.3905559" lon="14.1324169"><ele>31.0</ele><time>2026-05-03T12:07:12.476Z</time></trkpt><trkpt lat="42.3906902" lon="14.1325402"><ele>30.75</ele><time>2026-05-03T12:07:13.475Z</time></trkpt><trkpt lat="42.3908277" lon="14.1326557"><ele>30.5</ele><time>2026-05-03T12:07:14.475Z</time></trkpt><trkpt lat="42.3909469" lon="14.1327785"><ele>30.25</ele><time>2026-05-03T12:07:15.473Z</time></trkpt><trkpt lat="42.3910537" lon="14.1328885"><ele>30.0</ele><time>2026-05-03T12:07:16.471Z</time></trkpt><trkpt lat="42.3911725" lon="14.1330092"><ele>30.0</ele><time>2026-05-03T12:07:17.467Z</time></trkpt><trkpt lat="42.391301" lon="14.1331285"><ele>30.0</ele><time>2026-05-03T12:07:18.473Z</time></trkpt><trkpt lat="42.391426" lon="14.1332423"><ele>30.0</ele><time>2026-05-03T12:07:19.469Z</time></trkpt><trkpt lat="42.3915545" lon="14.1333582"><ele>30.0</ele><time>2026-05-03T12:07:20.471Z</time></trkpt><trkpt lat="42.3916897" lon="14.1334811"><ele>30.0</ele><time>2026-05-03T12:07:21.467Z</time></trkpt><trkpt lat="42.3918227" lon="14.1336183"><ele>30.0</ele><time>2026-05-03T12:07:22.462Z</time></trkpt><trkpt lat="42.3919842" lon="14.133752"><ele>30.0</ele><time>2026-05-03T12:07:23.472Z</time></trkpt><trkpt lat="42.3921601" lon="14.1338905"><ele>30.0</ele><time>2026-05-03T12:07:24.463Z</time></trkpt><trkpt lat="42.3923044" lon="14.1340463"><ele>30.0</ele><time>2026-05-03T12:07:25.452Z</time></trkpt><trkpt lat="42.3925123" lon="14.1341895"><ele>29.5</ele><time>2026-05-03T12:07:26.448Z</time></trkpt><trkpt lat="42.3927544" lon="14.1343505"><ele>29.0</ele><time>2026-05-03T12:07:27.438Z</time></trkpt><trkpt lat="42.3929037" lon="14.1345698"><ele>29.333333333333332</ele><time>2026-05-03T12:07:28.438Z</time></trkpt><trkpt lat="42.3930227" lon="14.1347584"><ele>29.666666666666664</ele><time>2026-05-03T12:07:29.429Z</time></trkpt><trkpt lat="42.3932725" lon="14.1348033"><ele>30.0</ele><time>2026-05-03T12:07:30.448Z</time></trkpt><trkpt lat="42.3933897" lon="14.1349644"><ele>29.25</ele><time>2026-05-03T12:07:31.469Z</time></trkpt><trkpt lat="42.3935029" lon="14.1350785"><ele>28.5</ele><time>2026-05-03T12:07:32.465Z</time></trkpt><trkpt lat="42.3936209" lon="14.1351969"><ele>27.75</ele><time>2026-05-03T12:07:33.469Z</time></trkpt><trkpt lat="42.3937239" lon="14.1353076"><ele>27.0</ele><time>2026-05-03T12:07:34.473Z</time></trkpt><trkpt lat="42.3938364" lon="14.1354009"><ele>26.666666666666664</ele><time>2026-05-03T12:07:35.471Z</time></trkpt><trkpt lat="42.3939585" lon="14.1355244"><ele>26.333333333333332</ele><time>2026-05-03T12:07:36.473Z</time></trkpt><trkpt lat="42.3940986" lon="14.1356443"><ele>26.0</ele><time>2026-05-03T12:07:37.469Z</time></trkpt><trkpt lat="42.3942528" lon="14.1357698"><ele>26.0</ele><time>2026-05-03T12:07:38.474Z</time></trkpt><trkpt lat="42.3943878" lon="14.1358768"><ele>26.0</ele><time>2026-05-03T12:07:39.472Z</time></trkpt><trkpt lat="42.3945164" lon="14.1359872"><ele>26.0</ele><time>2026-05-03T12:07:40.472Z</time></trkpt><trkpt lat="42.3946428" lon="14.136111"><ele>27.0</ele><time>2026-05-03T12:07:41.475Z</time></trkpt><trkpt lat="42.3947765" lon="14.1362253"><ele>28.0</ele><time>2026-05-03T12:07:42.476Z</time></trkpt><trkpt lat="42.3948903" lon="14.1363472"><ele>29.0</ele><time>2026-05-03T12:07:43.476Z</time></trkpt><trkpt lat="42.3950156" lon="14.1364641"><ele>28.0</ele><time>2026-05-03T12:07:44.484Z</time></trkpt><trkpt lat="42.3951414" lon="14.1365693"><ele>27.0</ele><time>2026-05-03T12:07:45.475Z</time></trkpt><trkpt lat="42.3952752" lon="14.1366854"><ele>26.0</ele><time>2026-05-03T12:07:46.483Z</time></trkpt><trkpt lat="42.3954198" lon="14.1367993"><ele>26.0</ele><time>2026-05-03T12:07:47.478Z</time></trkpt><trkpt lat="42.3955636" lon="14.1369307"><ele>26.0</ele><time>2026-05-03T12:07:48.474Z</time></trkpt><trkpt lat="42.3956996" lon="14.1370639"><ele>26.0</ele><time>2026-05-03T12:07:49.476Z</time></trkpt><trkpt lat="42.3958425" lon="14.1371868"><ele>26.0</ele><time>2026-05-03T12:07:50.479Z</time></trkpt><trkpt lat="42.3959941" lon="14.1373186"><ele>26.0</ele><time>2026-05-03T12:07:51.47Z</time></trkpt><trkpt lat="42.3961323" lon="14.137446"><ele>26.0</ele><time>2026-05-03T12:07:52.479Z</time></trkpt><trkpt lat="42.3962314" lon="14.137539"><ele>26.25</ele><time>2026-05-03T12:07:53.47Z</time></trkpt><trkpt lat="42.3963276" lon="14.1376461"><ele>26.5</ele><time>2026-05-03T12:07:54.477Z</time></trkpt><trkpt lat="42.396446" lon="14.1377048"><ele>26.75</ele><time>2026-05-03T12:07:55.474Z</time></trkpt><trkpt lat="42.396562" lon="14.137811"><ele>27.0</ele><time>2026-05-03T12:07:56.476Z</time></trkpt><trkpt lat="42.3966699" lon="14.137917"><ele>27.0</ele><time>2026-05-03T12:07:57.477Z</time></trkpt><trkpt lat="42.3967848" lon="14.1380273"><ele>27.0</ele><time>2026-05-03T12:07:58.48Z</time></trkpt><trkpt lat="42.3969047" lon="14.1381322"><ele>27.0</ele><time>2026-05-03T12:07:59.475Z</time></trkpt><trkpt lat="42.3970292" lon="14.1382256"><ele>27.0</ele><time>2026-05-03T12:08:00.474Z</time></trkpt><trkpt lat="42.3971632" lon="14.1383306"><ele>26.75</ele><time>2026-05-03T12:08:01.469Z</time></trkpt><trkpt lat="42.3972834" lon="14.138451"><ele>26.5</ele><time>2026-05-03T12:08:02.474Z</time></trkpt><trkpt lat="42.3974021" lon="14.1385625"><ele>26.25</ele><time>2026-05-03T12:08:03.475Z</time></trkpt><trkpt lat="42.3975136" lon="14.1386635"><ele>26.0</ele><time>2026-05-03T12:08:04.476Z</time></trkpt><trkpt lat="42.3976254" lon="14.1387603"><ele>26.0</ele><time>2026-05-03T12:08:05.471Z</time></trkpt><trkpt lat="42.3977303" lon="14.1388958"><ele>26.0</ele><time>2026-05-03T12:08:06.468Z</time></trkpt><trkpt lat="42.3978352" lon="14.138996"><ele>26.0</ele><time>2026-05-03T12:08:07.472Z</time></trkpt><trkpt lat="42.3979507" lon="14.1391014"><ele>26.0</ele><time>2026-05-03T12:08:08.471Z</time></trkpt><trkpt lat="42.3980689" lon="14.1392108"><ele>26.0</ele><time>2026-05-03T12:08:09.469Z</time></trkpt><trkpt lat="42.3981892" lon="14.1393117"><ele>26.0</ele><time>2026-05-03T12:08:10.481Z</time></trkpt><trkpt lat="42.3983063" lon="14.1394075"><ele>26.0</ele><time>2026-05-03T12:08:11.468Z</time></trkpt><trkpt lat="42.3984196" lon="14.139525"><ele>26.0</ele><time>2026-05-03T12:08:12.471Z</time></trkpt><trkpt lat="42.3985355" lon="14.1396112"><ele>26.0</ele><time>2026-05-03T12:08:13.474Z</time></trkpt><trkpt lat="42.3986456" lon="14.1397082"><ele>26.0</ele><time>2026-05-03T12:08:14.477Z</time></trkpt><trkpt lat="42.398755" lon="14.1397956"><ele>26.0</ele><time>2026-05-03T12:08:15.472Z</time></trkpt><trkpt lat="42.3988784" lon="14.1399053"><ele>26.0</ele><time>2026-05-03T12:08:16.472Z</time></trkpt><trkpt lat="42.3990008" lon="14.140015"><ele>25.75</ele><time>2026-05-03T12:08:17.474Z</time></trkpt><trkpt lat="42.3991289" lon="14.1401162"><ele>25.5</ele><time>2026-05-03T12:08:18.477Z</time></trkpt><trkpt lat="42.3992513" lon="14.140221"><ele>25.25</ele><time>2026-05-03T12:08:19.475Z</time></trkpt><trkpt lat="42.3993763" lon="14.140314"><ele>25.0</ele><time>2026-05-03T12:08:20.472Z</time></trkpt><trkpt lat="42.3994925" lon="14.1404368"><ele>25.0</ele><time>2026-05-03T12:08:21.473Z</time></trkpt><trkpt lat="42.399632" lon="14.1405592"><ele>25.0</ele><time>2026-05-03T12:08:22.478Z</time></trkpt><trkpt lat="42.3997771" lon="14.1406781"><ele>25.0</ele><time>2026-05-03T12:08:23.471Z</time></trkpt><trkpt lat="42.3999226" lon="14.1408149"><ele>25.333333333333336</ele><time>2026-05-03T12:08:24.474Z</time></trkpt><trkpt lat="42.4000821" lon="14.1409442"><ele>25.666666666666664</ele><time>2026-05-03T12:08:25.476Z</time></trkpt><trkpt lat="42.400246" lon="14.141067"><ele>26.0</ele><time>2026-05-03T12:08:26.473Z</time></trkpt><trkpt lat="42.4003952" lon="14.1412069"><ele>25.666666666666664</ele><time>2026-05-03T12:08:27.475Z</time></trkpt><trkpt lat="42.4005608" lon="14.1413669"><ele>25.333333333333336</ele><time>2026-05-03T12:08:28.476Z</time></trkpt><trkpt lat="42.4007187" lon="14.1415058"><ele>25.0</ele><time>2026-05-03T12:08:29.477Z</time></trkpt><trkpt lat="42.4008903" lon="14.1416461"><ele>25.0</ele><time>2026-05-03T12:08:30.476Z</time></trkpt><trkpt lat="42.4010649" lon="14.1417911"><ele>25.0</ele><time>2026-05-03T12:08:31.475Z</time></trkpt><trkpt lat="42.4012116" lon="14.1419437"><ele>25.0</ele><time>2026-05-03T12:08:32.472Z</time></trkpt><trkpt lat="42.4013599" lon="14.1420852"><ele>25.0</ele><time>2026-05-03T12:08:33.48Z</time></trkpt><trkpt lat="42.4014969" lon="14.1422178"><ele>25.0</ele><time>2026-05-03T12:08:34.476Z</time></trkpt><trkpt lat="42.4016485" lon="14.1423517"><ele>25.0</ele><time>2026-05-03T12:08:35.479Z</time></trkpt><trkpt lat="42.401806" lon="14.1425017"><ele>24.666666666666668</ele><time>2026-05-03T12:08:36.474Z</time></trkpt><trkpt lat="42.4019785" lon="14.1426623"><ele>24.333333333333336</ele><time>2026-05-03T12:08:37.479Z</time></trkpt><trkpt lat="42.402152" lon="14.1428189"><ele>24.0</ele><time>2026-05-03T12:08:38.474Z</time></trkpt><trkpt lat="42.4023357" lon="14.1429554"><ele>24.0</ele><time>2026-05-03T12:08:39.474Z</time></trkpt><trkpt lat="42.4024949" lon="14.1431031"><ele>24.0</ele><time>2026-05-03T12:08:40.478Z</time></trkpt><trkpt lat="42.4026276" lon="14.143235"><ele>24.0</ele><time>2026-05-03T12:08:41.474Z</time></trkpt><trkpt lat="42.4027652" lon="14.1433497"><ele>24.0</ele><time>2026-05-03T12:08:42.474Z</time></trkpt><trkpt lat="42.4028913" lon="14.1434653"><ele>24.0</ele><time>2026-05-03T12:08:43.471Z</time></trkpt><trkpt lat="42.4030354" lon="14.1435861"><ele>24.0</ele><time>2026-05-03T12:08:44.476Z</time></trkpt><trkpt lat="42.4031745" lon="14.1437109"><ele>24.0</ele><time>2026-05-03T12:08:45.478Z</time></trkpt><trkpt lat="42.4033111" lon="14.1438526"><ele>24.0</ele><time>2026-05-03T12:08:46.477Z</time></trkpt><trkpt lat="42.4034566" lon="14.1439896"><ele>24.0</ele><time>2026-05-03T12:08:47.474Z</time></trkpt><trkpt lat="42.4035943" lon="14.1441187"><ele>24.333333333333336</ele><time>2026-05-03T12:08:48.475Z</time></trkpt><trkpt lat="42.4037445" lon="14.1442308"><ele>24.666666666666668</ele><time>2026-05-03T12:08:49.476Z</time></trkpt><trkpt lat="42.4038942" lon="14.1443408"><ele>25.0</ele><time>2026-05-03T12:08:50.48Z</time></trkpt><trkpt lat="42.4040396" lon="14.1444603"><ele>25.0</ele><time>2026-05-03T12:08:51.478Z</time></trkpt><trkpt lat="42.4041764" lon="14.1445709"><ele>25.0</ele><time>2026-05-03T12:08:52.474Z</time></trkpt><trkpt lat="42.404305" lon="14.1446859"><ele>25.0</ele><time>2026-05-03T12:08:53.477Z</time></trkpt><trkpt lat="42.4044379" lon="14.1448177"><ele>25.333333333333336</ele><time>2026-05-03T12:08:54.478Z</time></trkpt><trkpt lat="42.4045748" lon="14.1449535"><ele>25.666666666666664</ele><time>2026-05-03T12:08:55.474Z</time></trkpt><trkpt lat="42.4047119" lon="14.1450926"><ele>26.0</ele><time>2026-05-03T12:08:56.479Z</time></trkpt><trkpt lat="42.4048475" lon="14.1452247"><ele>25.25</ele><time>2026-05-03T12:08:57.477Z</time></trkpt><trkpt lat="42.405" lon="14.1453515"><ele>24.5</ele><time>2026-05-03T12:08:58.481Z</time></trkpt><trkpt lat="42.4051249" lon="14.1454543"><ele>23.75</ele><time>2026-05-03T12:08:59.475Z</time></trkpt><trkpt lat="42.4052287" lon="14.145543"><ele>23.0</ele><time>2026-05-03T12:09:00.475Z</time></trkpt><trkpt lat="42.4053145" lon="14.1456134"><ele>23.0</ele><time>2026-05-03T12:09:01.47Z</time></trkpt><trkpt lat="42.4053888" lon="14.145685"><ele>23.0</ele><time>2026-05-03T12:09:02.473Z</time></trkpt><trkpt lat="42.4054344" lon="14.1457479"><ele>23.0</ele><time>2026-05-03T12:09:03.467Z</time></trkpt><trkpt lat="42.4054525" lon="14.1458354"><ele>23.0</ele><time>2026-05-03T12:09:04.471Z</time></trkpt><trkpt lat="42.4054639" lon="14.1459226"><ele>23.0</ele><time>2026-05-03T12:09:05.465Z</time></trkpt><trkpt lat="42.4054596" lon="14.146016"><ele>23.0</ele><time>2026-05-03T12:09:06.467Z</time></trkpt><trkpt lat="42.4054694" lon="14.1461034"><ele>23.0</ele><time>2026-05-03T12:09:07.477Z</time></trkpt><trkpt lat="42.4055222" lon="14.1461631"><ele>22.833333333333336</ele><time>2026-05-03T12:09:08.467Z</time></trkpt><trkpt lat="42.405586" lon="14.1461905"><ele>22.666666666666668</ele><time>2026-05-03T12:09:09.472Z</time></trkpt><trkpt lat="42.4056607" lon="14.1461645"><ele>22.5</ele><time>2026-05-03T12:09:10.471Z</time></trkpt><trkpt lat="42.4057504" lon="14.1461255"><ele>22.333333333333332</ele><time>2026-05-03T12:09:11.472Z</time></trkpt><trkpt lat="42.4058505" lon="14.1461171"><ele>22.166666666666664</ele><time>2026-05-03T12:09:12.469Z</time></trkpt><trkpt lat="42.4059529" lon="14.1461674"><ele>22.0</ele><time>2026-05-03T12:09:13.47Z</time></trkpt><trkpt lat="42.4060602" lon="14.1462586"><ele>22.0</ele><time>2026-05-03T12:09:14.469Z</time></trkpt><trkpt lat="42.4061755" lon="14.1463714"><ele>22.0</ele><time>2026-05-03T12:09:15.468Z</time></trkpt><trkpt lat="42.406305" lon="14.1464918"><ele>22.0</ele><time>2026-05-03T12:09:16.471Z</time></trkpt><trkpt lat="42.406471" lon="14.1466162"><ele>22.0</ele><time>2026-05-03T12:09:17.47Z</time></trkpt><trkpt lat="42.4066311" lon="14.1467342"><ele>22.0</ele><time>2026-05-03T12:09:18.473Z</time></trkpt><trkpt lat="42.4067832" lon="14.1468286"><ele>22.0</ele><time>2026-05-03T12:09:19.466Z</time></trkpt><trkpt lat="42.4069606" lon="14.1469113"><ele>22.0</ele><time>2026-05-03T12:09:20.466Z</time></trkpt><trkpt lat="42.4071589" lon="14.1469706"><ele>22.0</ele><time>2026-05-03T12:09:21.467Z</time></trkpt><trkpt lat="42.40735" lon="14.1470494"><ele>22.0</ele><time>2026-05-03T12:09:22.469Z</time></trkpt><trkpt lat="42.4075556" lon="14.1471014"><ele>20.666666666666664</ele><time>2026-05-03T12:09:23.466Z</time></trkpt><trkpt lat="42.4077445" lon="14.1471513"><ele>19.333333333333332</ele><time>2026-05-03T12:09:24.471Z</time></trkpt><trkpt lat="42.4079192" lon="14.147181"><ele>18.0</ele><time>2026-05-03T12:09:25.472Z</time></trkpt><trkpt lat="42.4080806" lon="14.1472246"><ele>17.666666666666668</ele><time>2026-05-03T12:09:26.472Z</time></trkpt><trkpt lat="42.4082472" lon="14.1472731"><ele>17.333333333333336</ele><time>2026-05-03T12:09:27.468Z</time></trkpt><trkpt lat="42.4084139" lon="14.1473189"><ele>17.0</ele><time>2026-05-03T12:09:28.47Z</time></trkpt><trkpt lat="42.4085565" lon="14.147402"><ele>17.0</ele><time>2026-05-03T12:09:29.474Z</time></trkpt><trkpt lat="42.4087176" lon="14.14749"><ele>17.0</ele><time>2026-05-03T12:09:30.472Z</time></trkpt><trkpt lat="42.4088653" lon="14.1475809"><ele>17.0</ele><time>2026-05-03T12:09:31.476Z</time></trkpt><trkpt lat="42.409009" lon="14.1476902"><ele>17.0</ele><time>2026-05-03T12:09:32.475Z</time></trkpt><trkpt lat="42.4091425" lon="14.1478147"><ele>17.0</ele><time>2026-05-03T12:09:33.478Z</time></trkpt><trkpt lat="42.4092834" lon="14.1479338"><ele>17.0</ele><time>2026-05-03T12:09:34.476Z</time></trkpt><trkpt lat="42.4094268" lon="14.1480572"><ele>17.0</ele><time>2026-05-03T12:09:35.474Z</time></trkpt><trkpt lat="42.4095806" lon="14.1481864"><ele>17.0</ele><time>2026-05-03T12:09:36.472Z</time></trkpt><trkpt lat="42.4097377" lon="14.1483279"><ele>17.0</ele><time>2026-05-03T12:09:37.472Z</time></trkpt><trkpt lat="42.4099058" lon="14.1484704"><ele>17.666666666666668</ele><time>2026-05-03T12:09:38.474Z</time></trkpt><trkpt lat="42.4100794" lon="14.1485854"><ele>18.333333333333332</ele><time>2026-05-03T12:09:39.477Z</time></trkpt><trkpt lat="42.4102352" lon="14.1487193"><ele>19.0</ele><time>2026-05-03T12:09:40.472Z</time></trkpt><trkpt lat="42.4103955" lon="14.1488442"><ele>19.0</ele><time>2026-05-03T12:09:41.473Z</time></trkpt><trkpt lat="42.4105652" lon="14.1489738"><ele>19.0</ele><time>2026-05-03T12:09:42.476Z</time></trkpt><trkpt lat="42.4107341" lon="14.1490789"><ele>19.0</ele><time>2026-05-03T12:09:43.478Z</time></trkpt><trkpt lat="42.4108976" lon="14.1492162"><ele>19.666666666666664</ele><time>2026-05-03T12:09:44.475Z</time></trkpt><trkpt lat="42.4110419" lon="14.1493393"><ele>20.333333333333332</ele><time>2026-05-03T12:09:45.474Z</time></trkpt><trkpt lat="42.4111808" lon="14.1494688"><ele>21.0</ele><time>2026-05-03T12:09:46.471Z</time></trkpt><trkpt lat="42.4113299" lon="14.1495793"><ele>21.0</ele><time>2026-05-03T12:09:47.47Z</time></trkpt><trkpt lat="42.4114675" lon="14.1496975"><ele>21.0</ele><time>2026-05-03T12:09:48.476Z</time></trkpt><trkpt lat="42.4116055" lon="14.1498104"><ele>21.0</ele><time>2026-05-03T12:09:49.477Z</time></trkpt><trkpt lat="42.4117541" lon="14.1499326"><ele>20.0</ele><time>2026-05-03T12:09:50.474Z</time></trkpt><trkpt lat="42.4119072" lon="14.1500617"><ele>19.0</ele><time>2026-05-03T12:09:51.477Z</time></trkpt><trkpt lat="42.4120628" lon="14.1501899"><ele>18.0</ele><time>2026-05-03T12:09:52.478Z</time></trkpt><trkpt lat="42.4122265" lon="14.1503144"><ele>17.0</ele><time>2026-05-03T12:09:53.481Z</time></trkpt><trkpt lat="42.412392" lon="14.150429"><ele>16.0</ele><time>2026-05-03T12:09:54.475Z</time></trkpt><trkpt lat="42.4125459" lon="14.1505348"><ele>15.0</ele><time>2026-05-03T12:09:55.475Z</time></trkpt><trkpt lat="42.4126976" lon="14.1506485"><ele>15.0</ele><time>2026-05-03T12:09:56.473Z</time></trkpt><trkpt lat="42.4128428" lon="14.1507713"><ele>15.0</ele><time>2026-05-03T12:09:57.478Z</time></trkpt><trkpt lat="42.4129754" lon="14.1509202"><ele>15.0</ele><time>2026-05-03T12:09:58.479Z</time></trkpt><trkpt lat="42.4131181" lon="14.151051"><ele>15.0</ele><time>2026-05-03T12:09:59.477Z</time></trkpt><trkpt lat="42.4132567" lon="14.1511887"><ele>15.0</ele><time>2026-05-03T12:10:00.471Z</time></trkpt><trkpt lat="42.4133592" lon="14.1513032"><ele>15.0</ele><time>2026-05-03T12:10:01.472Z</time></trkpt><trkpt lat="42.4135008" lon="14.1514273"><ele>15.333333333333332</ele><time>2026-05-03T12:10:02.476Z</time></trkpt><trkpt lat="42.4136579" lon="14.1515435"><ele>15.666666666666666</ele><time>2026-05-03T12:10:03.465Z</time></trkpt><trkpt lat="42.413815" lon="14.1516482"><ele>16.0</ele><time>2026-05-03T12:10:04.472Z</time></trkpt><trkpt lat="42.4139641" lon="14.1517461"><ele>16.0</ele><time>2026-05-03T12:10:05.468Z</time></trkpt><trkpt lat="42.4141107" lon="14.15184"><ele>16.0</ele><time>2026-05-03T12:10:06.468Z</time></trkpt><trkpt lat="42.4142645" lon="14.1519114"><ele>16.0</ele><time>2026-05-03T12:10:07.465Z</time></trkpt><trkpt lat="42.4144127" lon="14.1519808"><ele>16.0</ele><time>2026-05-03T12:10:08.468Z</time></trkpt><trkpt lat="42.4145851" lon="14.1520301"><ele>16.0</ele><time>2026-05-03T12:10:09.472Z</time></trkpt><trkpt lat="42.414754" lon="14.1520852"><ele>16.0</ele><time>2026-05-03T12:10:10.47Z</time></trkpt><trkpt lat="42.4149474" lon="14.1521024"><ele>15.666666666666666</ele><time>2026-05-03T12:10:11.471Z</time></trkpt><trkpt lat="42.4151301" lon="14.1521133"><ele>15.333333333333332</ele><time>2026-05-03T12:10:12.473Z</time></trkpt><trkpt lat="42.4153057" lon="14.1521164"><ele>15.0</ele><time>2026-05-03T12:10:13.473Z</time></trkpt><trkpt lat="42.4154784" lon="14.1521158"><ele>15.333333333333332</ele><time>2026-05-03T12:10:14.476Z</time></trkpt><trkpt lat="42.4156358" lon="14.1521485"><ele>15.666666666666666</ele><time>2026-05-03T12:10:15.471Z</time></trkpt><trkpt lat="42.4157833" lon="14.152178"><ele>16.0</ele><time>2026-05-03T12:10:16.465Z</time></trkpt><trkpt lat="42.4159407" lon="14.1522228"><ele>16.0</ele><time>2026-05-03T12:10:17.468Z</time></trkpt><trkpt lat="42.4160866" lon="14.1522992"><ele>16.0</ele><time>2026-05-03T12:10:18.465Z</time></trkpt><trkpt lat="42.4162307" lon="14.152399"><ele>16.0</ele><time>2026-05-03T12:10:19.465Z</time></trkpt><trkpt lat="42.4163609" lon="14.1525162"><ele>17.333333333333332</ele><time>2026-05-03T12:10:20.463Z</time></trkpt><trkpt lat="42.4164796" lon="14.1526663"><ele>18.666666666666668</ele><time>2026-05-03T12:10:21.458Z</time></trkpt><trkpt lat="42.4165936" lon="14.1528355"><ele>20.0</ele><time>2026-05-03T12:10:22.458Z</time></trkpt><trkpt lat="42.4166947" lon="14.1529723"><ele>20.0</ele><time>2026-05-03T12:10:23.472Z</time></trkpt><trkpt lat="42.4167977" lon="14.153133"><ele>20.0</ele><time>2026-05-03T12:10:24.472Z</time></trkpt><trkpt lat="42.416919" lon="14.1532719"><ele>20.0</ele><time>2026-05-03T12:10:25.471Z</time></trkpt><trkpt lat="42.4170375" lon="14.1534215"><ele>20.333333333333336</ele><time>2026-05-03T12:10:26.47Z</time></trkpt><trkpt lat="42.417165" lon="14.1535707"><ele>20.666666666666668</ele><time>2026-05-03T12:10:27.472Z</time></trkpt><trkpt lat="42.4172898" lon="14.1537262"><ele>21.0</ele><time>2026-05-03T12:10:28.478Z</time></trkpt><trkpt lat="42.4174094" lon="14.1538884"><ele>20.333333333333332</ele><time>2026-05-03T12:10:29.474Z</time></trkpt><trkpt lat="42.4175218" lon="14.1540488"><ele>19.666666666666664</ele><time>2026-05-03T12:10:30.476Z</time></trkpt><trkpt lat="42.4176408" lon="14.1542152"><ele>19.0</ele><time>2026-05-03T12:10:31.471Z</time></trkpt><trkpt lat="42.4177636" lon="14.1543808"><ele>19.0</ele><time>2026-05-03T12:10:32.474Z</time></trkpt><trkpt lat="42.4178834" lon="14.1545397"><ele>19.0</ele><time>2026-05-03T12:10:33.472Z</time></trkpt><trkpt lat="42.4179993" lon="14.1546954"><ele>19.0</ele><time>2026-05-03T12:10:34.471Z</time></trkpt><trkpt lat="42.4180967" lon="14.1548504"><ele>18.333333333333332</ele><time>2026-05-03T12:10:35.472Z</time></trkpt><trkpt lat="42.418227" lon="14.1549935"><ele>17.666666666666668</ele><time>2026-05-03T12:10:36.474Z</time></trkpt><trkpt lat="42.4183482" lon="14.1551566"><ele>17.0</ele><time>2026-05-03T12:10:37.472Z</time></trkpt><trkpt lat="42.4184682" lon="14.1553234"><ele>17.0</ele><time>2026-05-03T12:10:38.477Z</time></trkpt><trkpt lat="42.4185735" lon="14.1555"><ele>17.0</ele><time>2026-05-03T12:10:39.474Z</time></trkpt><trkpt lat="42.4186841" lon="14.1556634"><ele>17.0</ele><time>2026-05-03T12:10:40.475Z</time></trkpt><trkpt lat="42.4188025" lon="14.1558398"><ele>19.0</ele><time>2026-05-03T12:10:41.478Z</time></trkpt><trkpt lat="42.4189409" lon="14.1560186"><ele>21.0</ele><time>2026-05-03T12:10:42.475Z</time></trkpt><trkpt lat="42.4190523" lon="14.1562082"><ele>23.0</ele><time>2026-05-03T12:10:43.482Z</time></trkpt><trkpt lat="42.4191863" lon="14.1563698"><ele>23.0</ele><time>2026-05-03T12:10:44.481Z</time></trkpt><trkpt lat="42.4193281" lon="14.1564795"><ele>23.0</ele><time>2026-05-03T12:10:45.476Z</time></trkpt><trkpt lat="42.4194821" lon="14.1565823"><ele>23.0</ele><time>2026-05-03T12:10:46.482Z</time></trkpt><trkpt lat="42.4196348" lon="14.1566564"><ele>22.0</ele><time>2026-05-03T12:10:47.475Z</time></trkpt><trkpt lat="42.4198016" lon="14.1567166"><ele>21.0</ele><time>2026-05-03T12:10:48.477Z</time></trkpt><trkpt lat="42.4199796" lon="14.1567979"><ele>20.0</ele><time>2026-05-03T12:10:49.48Z</time></trkpt><trkpt lat="42.42018" lon="14.1568656"><ele>20.0</ele><time>2026-05-03T12:10:50.481Z</time></trkpt><trkpt lat="42.4203478" lon="14.1569349"><ele>20.0</ele><time>2026-05-03T12:10:51.477Z</time></trkpt><trkpt lat="42.4205149" lon="14.1570165"><ele>20.0</ele><time>2026-05-03T12:10:52.472Z</time></trkpt><trkpt lat="42.4206763" lon="14.1570866"><ele>20.333333333333336</ele><time>2026-05-03T12:10:53.474Z</time></trkpt><trkpt lat="42.4208483" lon="14.1571584"><ele>20.666666666666668</ele><time>2026-05-03T12:10:54.467Z</time></trkpt><trkpt lat="42.4210106" lon="14.1572317"><ele>21.0</ele><time>2026-05-03T12:10:55.469Z</time></trkpt><trkpt lat="42.4211595" lon="14.1572908"><ele>21.0</ele><time>2026-05-03T12:10:56.471Z</time></trkpt><trkpt lat="42.4212829" lon="14.1573566"><ele>21.0</ele><time>2026-05-03T12:10:57.469Z</time></trkpt><trkpt lat="42.4214097" lon="14.1573955"><ele>21.0</ele><time>2026-05-03T12:10:58.474Z</time></trkpt><trkpt lat="42.4215324" lon="14.1574286"><ele>21.0</ele><time>2026-05-03T12:10:59.466Z</time></trkpt><trkpt lat="42.4216475" lon="14.1574837"><ele>20.5</ele><time>2026-05-03T12:11:00.468Z</time></trkpt><trkpt lat="42.4217639" lon="14.1575167"><ele>20.0</ele><time>2026-05-03T12:11:01.47Z</time></trkpt><trkpt lat="42.4218884" lon="14.1575195"><ele>19.5</ele><time>2026-05-03T12:11:02.466Z</time></trkpt><trkpt lat="42.4219998" lon="14.1575062"><ele>19.0</ele><time>2026-05-03T12:11:03.466Z</time></trkpt><trkpt lat="42.4221146" lon="14.1574855"><ele>19.2</ele><time>2026-05-03T12:11:04.475Z</time></trkpt><trkpt lat="42.4222184" lon="14.1574842"><ele>19.4</ele><time>2026-05-03T12:11:05.466Z</time></trkpt><trkpt lat="42.4223239" lon="14.1575236"><ele>19.6</ele><time>2026-05-03T12:11:06.464Z</time></trkpt><trkpt lat="42.4224249" lon="14.1575692"><ele>19.8</ele><time>2026-05-03T12:11:07.465Z</time></trkpt><trkpt lat="42.42254" lon="14.1576305"><ele>20.0</ele><time>2026-05-03T12:11:08.463Z</time></trkpt><trkpt lat="42.4226626" lon="14.1577146"><ele>20.0</ele><time>2026-05-03T12:11:09.47Z</time></trkpt><trkpt lat="42.4227891" lon="14.1578185"><ele>20.0</ele><time>2026-05-03T12:11:10.458Z</time></trkpt><trkpt lat="42.4229247" lon="14.1579128"><ele>20.0</ele><time>2026-05-03T12:11:11.461Z</time></trkpt><trkpt lat="42.4230867" lon="14.1580022"><ele>19.333333333333336</ele><time>2026-05-03T12:11:12.468Z</time></trkpt><trkpt lat="42.4232492" lon="14.1580696"><ele>18.666666666666668</ele><time>2026-05-03T12:11:13.468Z</time></trkpt><trkpt lat="42.4233914" lon="14.158122"><ele>18.0</ele><time>2026-05-03T12:11:14.469Z</time></trkpt><trkpt lat="42.4235251" lon="14.1581917"><ele>18.0</ele><time>2026-05-03T12:11:15.473Z</time></trkpt><trkpt lat="42.4236539" lon="14.1582526"><ele>18.0</ele><time>2026-05-03T12:11:16.469Z</time></trkpt><trkpt lat="42.4237875" lon="14.1583081"><ele>18.0</ele><time>2026-05-03T12:11:17.472Z</time></trkpt><trkpt lat="42.4239309" lon="14.1583625"><ele>18.0</ele><time>2026-05-03T12:11:18.465Z</time></trkpt><trkpt lat="42.4240593" lon="14.1584186"><ele>17.75</ele><time>2026-05-03T12:11:19.473Z</time></trkpt><trkpt lat="42.4241816" lon="14.158511"><ele>17.5</ele><time>2026-05-03T12:11:20.459Z</time></trkpt><trkpt lat="42.4243185" lon="14.1585638"><ele>17.25</ele><time>2026-05-03T12:11:21.466Z</time></trkpt><trkpt lat="42.4244449" lon="14.1586133"><ele>17.0</ele><time>2026-05-03T12:11:22.468Z</time></trkpt><trkpt lat="42.4245836" lon="14.1586699"><ele>17.25</ele><time>2026-05-03T12:11:23.474Z</time></trkpt><trkpt lat="42.424717" lon="14.1587078"><ele>17.5</ele><time>2026-05-03T12:11:24.471Z</time></trkpt><trkpt lat="42.4248651" lon="14.158755"><ele>17.75</ele><time>2026-05-03T12:11:25.47Z</time></trkpt><trkpt lat="42.4250012" lon="14.15882"><ele>18.0</ele><time>2026-05-03T12:11:26.469Z</time></trkpt><trkpt lat="42.4251438" lon="14.1588678"><ele>18.0</ele><time>2026-05-03T12:11:27.471Z</time></trkpt><trkpt lat="42.4252861" lon="14.1589162"><ele>18.0</ele><time>2026-05-03T12:11:28.481Z</time></trkpt><trkpt lat="42.4254174" lon="14.1589826"><ele>18.0</ele><time>2026-05-03T12:11:29.475Z</time></trkpt><trkpt lat="42.4255685" lon="14.1590428"><ele>18.0</ele><time>2026-05-03T12:11:30.476Z</time></trkpt><trkpt lat="42.4257033" lon="14.1591373"><ele>18.25</ele><time>2026-05-03T12:11:31.469Z</time></trkpt><trkpt lat="42.4258365" lon="14.1592049"><ele>18.5</ele><time>2026-05-03T12:11:32.471Z</time></trkpt><trkpt lat="42.4259813" lon="14.1592673"><ele>18.75</ele><time>2026-05-03T12:11:33.468Z</time></trkpt><trkpt lat="42.4260919" lon="14.159363"><ele>19.0</ele><time>2026-05-03T12:11:34.475Z</time></trkpt><trkpt lat="42.4262235" lon="14.1594398"><ele>19.333333333333332</ele><time>2026-05-03T12:11:35.476Z</time></trkpt><trkpt lat="42.4263673" lon="14.1595439"><ele>19.666666666666668</ele><time>2026-05-03T12:11:36.472Z</time></trkpt><trkpt lat="42.4265145" lon="14.1596421"><ele>20.0</ele><time>2026-05-03T12:11:37.478Z</time></trkpt><trkpt lat="42.4266411" lon="14.1597694"><ele>19.666666666666668</ele><time>2026-05-03T12:11:38.472Z</time></trkpt><trkpt lat="42.4267746" lon="14.1598939"><ele>19.333333333333332</ele><time>2026-05-03T12:11:39.47Z</time></trkpt><trkpt lat="42.4269299" lon="14.1599933"><ele>19.0</ele><time>2026-05-03T12:11:40.473Z</time></trkpt><trkpt lat="42.42707" lon="14.1601126"><ele>18.666666666666664</ele><time>2026-05-03T12:11:41.475Z</time></trkpt><trkpt lat="42.427235" lon="14.1602154"><ele>18.333333333333332</ele><time>2026-05-03T12:11:42.471Z</time></trkpt><trkpt lat="42.4273903" lon="14.1603254"><ele>18.0</ele><time>2026-05-03T12:11:43.466Z</time></trkpt><trkpt lat="42.4275412" lon="14.1604383"><ele>18.0</ele><time>2026-05-03T12:11:44.469Z</time></trkpt><trkpt lat="42.4276853" lon="14.1605726"><ele>18.0</ele><time>2026-05-03T12:11:45.472Z</time></trkpt><trkpt lat="42.4278288" lon="14.1607011"><ele>18.0</ele><time>2026-05-03T12:11:46.463Z</time></trkpt><trkpt lat="42.4279747" lon="14.1608247"><ele>17.666666666666668</ele><time>2026-05-03T12:11:47.471Z</time></trkpt><trkpt lat="42.4280832" lon="14.1609519"><ele>17.333333333333336</ele><time>2026-05-03T12:11:48.465Z</time></trkpt><trkpt lat="42.42822" lon="14.1610641"><ele>17.0</ele><time>2026-05-03T12:11:49.461Z</time></trkpt><trkpt lat="42.4283398" lon="14.1611881"><ele>17.0</ele><time>2026-05-03T12:11:50.468Z</time></trkpt><trkpt lat="42.4284573" lon="14.1613069"><ele>17.0</ele><time>2026-05-03T12:11:51.469Z</time></trkpt><trkpt lat="42.428572" lon="14.161426"><ele>17.0</ele><time>2026-05-03T12:11:52.472Z</time></trkpt><trkpt lat="42.4287041" lon="14.1615507"><ele>20.333333333333336</ele><time>2026-05-03T12:11:53.479Z</time></trkpt><trkpt lat="42.4288401" lon="14.1616867"><ele>23.666666666666668</ele><time>2026-05-03T12:11:54.471Z</time></trkpt><trkpt lat="42.4289774" lon="14.1618093"><ele>27.0</ele><time>2026-05-03T12:11:55.479Z</time></trkpt><trkpt lat="42.4290913" lon="14.1619535"><ele>27.0</ele><time>2026-05-03T12:11:56.479Z</time></trkpt><trkpt lat="42.4292214" lon="14.1620804"><ele>27.0</ele><time>2026-05-03T12:11:57.48Z</time></trkpt><trkpt lat="42.4293306" lon="14.1622153"><ele>27.0</ele><time>2026-05-03T12:11:58.481Z</time></trkpt><trkpt lat="42.4294607" lon="14.1623368"><ele>25.5</ele><time>2026-05-03T12:11:59.474Z</time></trkpt><trkpt lat="42.4295521" lon="14.1624398"><ele>24.0</ele><time>2026-05-03T12:12:00.474Z</time></trkpt><trkpt lat="42.4296574" lon="14.1625401"><ele>22.5</ele><time>2026-05-03T12:12:01.472Z</time></trkpt><trkpt lat="42.4297663" lon="14.162631"><ele>21.0</ele><time>2026-05-03T12:12:02.468Z</time></trkpt><trkpt lat="42.4298873" lon="14.1627065"><ele>21.0</ele><time>2026-05-03T12:12:03.469Z</time></trkpt><trkpt lat="42.4300111" lon="14.1627723"><ele>21.0</ele><time>2026-05-03T12:12:04.47Z</time></trkpt><trkpt lat="42.4301287" lon="14.1628148"><ele>21.0</ele><time>2026-05-03T12:12:05.475Z</time></trkpt><trkpt lat="42.4302488" lon="14.1628446"><ele>21.0</ele><time>2026-05-03T12:12:06.468Z</time></trkpt><trkpt lat="42.4303584" lon="14.1628525"><ele>21.0</ele><time>2026-05-03T12:12:07.467Z</time></trkpt><trkpt lat="42.4304275" lon="14.1628785"><ele>21.0</ele><time>2026-05-03T12:12:08.471Z</time></trkpt><trkpt lat="42.4304964" lon="14.1628834"><ele>21.0</ele><time>2026-05-03T12:12:11.469Z</time></trkpt><trkpt lat="42.4305399" lon="14.1627935"><ele>21.0</ele><time>2026-05-03T12:12:13.463Z</time></trkpt><trkpt lat="42.4305336" lon="14.1626856"><ele>21.0</ele><time>2026-05-03T12:12:15.465Z</time></trkpt><trkpt lat="42.4304402" lon="14.1625814"><ele>21.0</ele><time>2026-05-03T12:12:17.471Z</time></trkpt><trkpt lat="42.4303862" lon="14.1625352"><ele>21.0</ele><time>2026-05-03T12:12:18.466Z</time></trkpt><trkpt lat="42.4303421" lon="14.1624017"><ele>21.0</ele><time>2026-05-03T12:12:20.477Z</time></trkpt><trkpt lat="42.4303715" lon="14.1623147"><ele>21.0</ele><time>2026-05-03T12:12:21.469Z</time></trkpt><trkpt lat="42.4304187" lon="14.1622136"><ele>21.0</ele><time>2026-05-03T12:12:22.469Z</time></trkpt><trkpt lat="42.430464" lon="14.1621"><ele>21.0</ele><time>2026-05-03T12:12:23.472Z</time></trkpt><trkpt lat="42.4305178" lon="14.1619794"><ele>21.4</ele><time>2026-05-03T12:12:24.463Z</time></trkpt><trkpt lat="42.4305745" lon="14.1618579"><ele>21.8</ele><time>2026-05-03T12:12:25.463Z</time></trkpt><trkpt lat="42.4306335" lon="14.1617345"><ele>22.2</ele><time>2026-05-03T12:12:26.46Z</time></trkpt><trkpt lat="42.4306881" lon="14.1616025"><ele>22.599999999999998</ele><time>2026-05-03T12:12:27.465Z</time></trkpt><trkpt lat="42.4307401" lon="14.1614655"><ele>23.0</ele><time>2026-05-03T12:12:28.466Z</time></trkpt><trkpt lat="42.4307927" lon="14.1613358"><ele>23.799999999999997</ele><time>2026-05-03T12:12:29.463Z</time></trkpt><trkpt lat="42.430846" lon="14.1612141"><ele>24.6</ele><time>2026-05-03T12:12:30.46Z</time></trkpt><trkpt lat="42.4308903" lon="14.1611016"><ele>25.400000000000002</ele><time>2026-05-03T12:12:31.466Z</time></trkpt><trkpt lat="42.4309283" lon="14.161004"><ele>26.200000000000003</ele><time>2026-05-03T12:12:32.469Z</time></trkpt><trkpt lat="42.4309742" lon="14.1608907"><ele>27.0</ele><time>2026-05-03T12:12:33.47Z</time></trkpt><trkpt lat="42.431036" lon="14.160751"><ele>27.0</ele><time>2026-05-03T12:12:34.465Z</time></trkpt><trkpt lat="42.4311106" lon="14.1605915"><ele>27.0</ele><time>2026-05-03T12:12:35.467Z</time></trkpt><trkpt lat="42.4311829" lon="14.1604164"><ele>27.0</ele><time>2026-05-03T12:12:36.475Z</time></trkpt><trkpt lat="42.4312745" lon="14.1602235"><ele>27.75</ele><time>2026-05-03T12:12:37.469Z</time></trkpt><trkpt lat="42.4313466" lon="14.160061"><ele>28.5</ele><time>2026-05-03T12:12:38.472Z</time></trkpt><trkpt lat="42.4314098" lon="14.1599208"><ele>29.25</ele><time>2026-05-03T12:12:39.469Z</time></trkpt><trkpt lat="42.4314737" lon="14.1597799"><ele>30.0</ele><time>2026-05-03T12:12:40.475Z</time></trkpt><trkpt lat="42.4315448" lon="14.1596251"><ele>30.5</ele><time>2026-05-03T12:12:41.468Z</time></trkpt><trkpt lat="42.4316129" lon="14.1594695"><ele>31.0</ele><time>2026-05-03T12:12:42.466Z</time></trkpt><trkpt lat="42.4316727" lon="14.1593076"><ele>31.5</ele><time>2026-05-03T12:12:43.474Z</time></trkpt><trkpt lat="42.431746" lon="14.1591318"><ele>32.0</ele><time>2026-05-03T12:12:44.474Z</time></trkpt><trkpt lat="42.4318284" lon="14.1589409"><ele>32.25</ele><time>2026-05-03T12:12:45.464Z</time></trkpt><trkpt lat="42.4318886" lon="14.1587749"><ele>32.5</ele><time>2026-05-03T12:12:46.467Z</time></trkpt><trkpt lat="42.4319719" lon="14.1585876"><ele>32.75</ele><time>2026-05-03T12:12:47.469Z</time></trkpt><trkpt lat="42.4320407" lon="14.1584109"><ele>33.0</ele><time>2026-05-03T12:12:48.469Z</time></trkpt><trkpt lat="42.4321124" lon="14.1582331"><ele>35.0</ele><time>2026-05-03T12:12:49.469Z</time></trkpt><trkpt lat="42.4321883" lon="14.1580758"><ele>37.0</ele><time>2026-05-03T12:12:50.475Z</time></trkpt><trkpt lat="42.4322407" lon="14.1578986"><ele>39.0</ele><time>2026-05-03T12:12:51.476Z</time></trkpt><trkpt lat="42.4323011" lon="14.157736"><ele>41.0</ele><time>2026-05-03T12:12:52.476Z</time></trkpt><trkpt lat="42.4323833" lon="14.1575779"><ele>41.0</ele><time>2026-05-03T12:12:53.473Z</time></trkpt><trkpt lat="42.4324588" lon="14.157427"><ele>41.0</ele><time>2026-05-03T12:12:54.478Z</time></trkpt><trkpt lat="42.4325323" lon="14.1572658"><ele>41.0</ele><time>2026-05-03T12:12:55.468Z</time></trkpt><trkpt lat="42.4326572" lon="14.1571365"><ele>41.0</ele><time>2026-05-03T12:12:56.471Z</time></trkpt><trkpt lat="42.4327949" lon="14.1570318"><ele>42.33333333333333</ele><time>2026-05-03T12:12:57.47Z</time></trkpt><trkpt lat="42.432935" lon="14.1569246"><ele>43.666666666666664</ele><time>2026-05-03T12:12:58.471Z</time></trkpt><trkpt lat="42.4330878" lon="14.1567992"><ele>45.0</ele><time>2026-05-03T12:12:59.471Z</time></trkpt><trkpt lat="42.4332393" lon="14.1566756"><ele>47.33333333333333</ele><time>2026-05-03T12:13:00.472Z</time></trkpt><trkpt lat="42.4334047" lon="14.1565344"><ele>49.666666666666664</ele><time>2026-05-03T12:13:01.469Z</time></trkpt><trkpt lat="42.4335659" lon="14.1564141"><ele>52.0</ele><time>2026-05-03T12:13:02.471Z</time></trkpt><trkpt lat="42.4337358" lon="14.1562925"><ele>52.666666666666664</ele><time>2026-05-03T12:13:03.467Z</time></trkpt><trkpt lat="42.4338938" lon="14.1561718"><ele>53.33333333333333</ele><time>2026-05-03T12:13:04.467Z</time></trkpt><trkpt lat="42.4340331" lon="14.1560623"><ele>54.0</ele><time>2026-05-03T12:13:05.47Z</time></trkpt><trkpt lat="42.4341739" lon="14.1559526"><ele>54.0</ele><time>2026-05-03T12:13:06.469Z</time></trkpt><trkpt lat="42.4343275" lon="14.1558301"><ele>54.0</ele><time>2026-05-03T12:13:07.473Z</time></trkpt><trkpt lat="42.4344766" lon="14.1557187"><ele>54.0</ele><time>2026-05-03T12:13:08.47Z</time></trkpt><trkpt lat="42.4346208" lon="14.1556194"><ele>55.25</ele><time>2026-05-03T12:13:09.467Z</time></trkpt><trkpt lat="42.4347497" lon="14.1555192"><ele>56.5</ele><time>2026-05-03T12:13:10.472Z</time></trkpt><trkpt lat="42.4348727" lon="14.1554268"><ele>57.75</ele><time>2026-05-03T12:13:11.466Z</time></trkpt><trkpt lat="42.4349964" lon="14.1553426"><ele>59.0</ele><time>2026-05-03T12:13:12.47Z</time></trkpt><trkpt lat="42.4351285" lon="14.1552535"><ele>59.0</ele><time>2026-05-03T12:13:13.472Z</time></trkpt><trkpt lat="42.4352574" lon="14.1551582"><ele>59.0</ele><time>2026-05-03T12:13:14.473Z</time></trkpt><trkpt lat="42.4353945" lon="14.1550461"><ele>59.0</ele><time>2026-05-03T12:13:15.467Z</time></trkpt><trkpt lat="42.4355444" lon="14.1549168"><ele>60.333333333333336</ele><time>2026-05-03T12:13:16.472Z</time></trkpt><trkpt lat="42.4357023" lon="14.1548178"><ele>61.66666666666667</ele><time>2026-05-03T12:13:17.468Z</time></trkpt><trkpt lat="42.4358613" lon="14.1547082"><ele>63.0</ele><time>2026-05-03T12:13:18.477Z</time></trkpt><trkpt lat="42.4360079" lon="14.1545938"><ele>63.0</ele><time>2026-05-03T12:13:19.466Z</time></trkpt><trkpt lat="42.4361621" lon="14.1544769"><ele>63.0</ele><time>2026-05-03T12:13:20.472Z</time></trkpt><trkpt lat="42.4363032" lon="14.1543464"><ele>63.0</ele><time>2026-05-03T12:13:21.473Z</time></trkpt><trkpt lat="42.4364426" lon="14.1542189"><ele>63.33333333333333</ele><time>2026-05-03T12:13:22.473Z</time></trkpt><trkpt lat="42.4365949" lon="14.1541118"><ele>63.666666666666664</ele><time>2026-05-03T12:13:23.47Z</time></trkpt><trkpt lat="42.4367374" lon="14.1540045"><ele>64.0</ele><time>2026-05-03T12:13:24.473Z</time></trkpt><trkpt lat="42.4368662" lon="14.1538948"><ele>65.66666666666666</ele><time>2026-05-03T12:13:25.47Z</time></trkpt><trkpt lat="42.4369918" lon="14.1537786"><ele>67.33333333333333</ele><time>2026-05-03T12:13:26.473Z</time></trkpt><trkpt lat="42.437121" lon="14.1536622"><ele>69.0</ele><time>2026-05-03T12:13:27.469Z</time></trkpt><trkpt lat="42.437268" lon="14.153547"><ele>69.0</ele><time>2026-05-03T12:13:28.478Z</time></trkpt><trkpt lat="42.4374016" lon="14.1534456"><ele>69.0</ele><time>2026-05-03T12:13:29.47Z</time></trkpt><trkpt lat="42.4375156" lon="14.1533676"><ele>69.0</ele><time>2026-05-03T12:13:30.469Z</time></trkpt><trkpt lat="42.4376579" lon="14.1533095"><ele>69.0</ele><time>2026-05-03T12:13:31.468Z</time></trkpt><trkpt lat="42.437823" lon="14.1532657"><ele>69.0</ele><time>2026-05-03T12:13:32.476Z</time></trkpt><trkpt lat="42.4379674" lon="14.1532275"><ele>69.0</ele><time>2026-05-03T12:13:33.469Z</time></trkpt><trkpt lat="42.4381139" lon="14.1531976"><ele>69.0</ele><time>2026-05-03T12:13:34.469Z</time></trkpt><trkpt lat="42.438265" lon="14.1530941"><ele>67.0</ele><time>2026-05-03T12:13:35.466Z</time></trkpt><trkpt lat="42.4384247" lon="14.1529782"><ele>65.0</ele><time>2026-05-03T12:13:36.473Z</time></trkpt><trkpt lat="42.4385834" lon="14.152831"><ele>63.0</ele><time>2026-05-03T12:13:37.468Z</time></trkpt><trkpt lat="42.438733" lon="14.152667"><ele>65.0</ele><time>2026-05-03T12:13:38.473Z</time></trkpt><trkpt lat="42.43889" lon="14.1524791"><ele>67.0</ele><time>2026-05-03T12:13:39.464Z</time></trkpt><trkpt lat="42.4390224" lon="14.1522837"><ele>69.0</ele><time>2026-05-03T12:13:40.472Z</time></trkpt><trkpt lat="42.4391493" lon="14.152106"><ele>70.33333333333333</ele><time>2026-05-03T12:13:41.474Z</time></trkpt><trkpt lat="42.4392777" lon="14.1519466"><ele>71.66666666666666</ele><time>2026-05-03T12:13:42.465Z</time></trkpt><trkpt lat="42.4394036" lon="14.15181"><ele>73.0</ele><time>2026-05-03T12:13:43.472Z</time></trkpt><trkpt lat="42.4395396" lon="14.1516818"><ele>74.0</ele><time>2026-05-03T12:13:44.468Z</time></trkpt><trkpt lat="42.4396875" lon="14.1515769"><ele>75.0</ele><time>2026-05-03T12:13:45.464Z</time></trkpt><trkpt lat="42.4398509" lon="14.1515009"><ele>76.0</ele><time>2026-05-03T12:13:46.469Z</time></trkpt><trkpt lat="42.4400152" lon="14.1514041"><ele>76.0</ele><time>2026-05-03T12:13:47.468Z</time></trkpt><trkpt lat="42.4401721" lon="14.1513325"><ele>76.0</ele><time>2026-05-03T12:13:48.471Z</time></trkpt><trkpt lat="42.4403243" lon="14.1512478"><ele>76.0</ele><time>2026-05-03T12:13:49.466Z</time></trkpt><trkpt lat="42.4404678" lon="14.151142"><ele>80.0</ele><time>2026-05-03T12:13:50.469Z</time></trkpt><trkpt lat="42.4406023" lon="14.1510241"><ele>84.0</ele><time>2026-05-03T12:13:51.468Z</time></trkpt><trkpt lat="42.4407568" lon="14.1509342"><ele>88.0</ele><time>2026-05-03T12:13:52.471Z</time></trkpt><trkpt lat="42.4409158" lon="14.1508783"><ele>88.0</ele><time>2026-05-03T12:13:53.461Z</time></trkpt><trkpt lat="42.4410724" lon="14.1508331"><ele>88.0</ele><time>2026-05-03T12:13:54.466Z</time></trkpt><trkpt lat="42.4412202" lon="14.1508362"><ele>88.0</ele><time>2026-05-03T12:13:55.463Z</time></trkpt><trkpt lat="42.4413808" lon="14.1508967"><ele>89.0</ele><time>2026-05-03T12:13:56.464Z</time></trkpt><trkpt lat="42.441542" lon="14.1509494"><ele>90.0</ele><time>2026-05-03T12:13:57.464Z</time></trkpt><trkpt lat="42.4417212" lon="14.1510119"><ele>91.0</ele><time>2026-05-03T12:13:58.462Z</time></trkpt><trkpt lat="42.4418914" lon="14.1510427"><ele>91.0</ele><time>2026-05-03T12:13:59.456Z</time></trkpt><trkpt lat="42.44203" lon="14.1510688"><ele>91.0</ele><time>2026-05-03T12:14:00.454Z</time></trkpt><trkpt lat="42.4421734" lon="14.1509893"><ele>91.0</ele><time>2026-05-03T12:14:01.458Z</time></trkpt><trkpt lat="42.4422631" lon="14.1508867"><ele>91.0</ele><time>2026-05-03T12:14:02.456Z</time></trkpt><trkpt lat="42.4423701" lon="14.1507162"><ele>92.0</ele><time>2026-05-03T12:14:03.457Z</time></trkpt><trkpt lat="42.4424575" lon="14.1505288"><ele>93.0</ele><time>2026-05-03T12:14:04.449Z</time></trkpt><trkpt lat="42.4425071" lon="14.1503126"><ele>94.0</ele><time>2026-05-03T12:14:05.461Z</time></trkpt><trkpt lat="42.4425438" lon="14.1500777"><ele>95.33333333333333</ele><time>2026-05-03T12:14:06.458Z</time></trkpt><trkpt lat="42.4425796" lon="14.149824"><ele>96.66666666666666</ele><time>2026-05-03T12:14:07.46Z</time></trkpt><trkpt lat="42.4426225" lon="14.1496082"><ele>98.0</ele><time>2026-05-03T12:14:08.457Z</time></trkpt><trkpt lat="42.442678" lon="14.1493866"><ele>98.0</ele><time>2026-05-03T12:14:09.464Z</time></trkpt><trkpt lat="42.4427428" lon="14.1491843"><ele>98.0</ele><time>2026-05-03T12:14:10.462Z</time></trkpt><trkpt lat="42.4428182" lon="14.1489801"><ele>98.0</ele><time>2026-05-03T12:14:11.458Z</time></trkpt><trkpt lat="42.4429103" lon="14.1488056"><ele>100.0</ele><time>2026-05-03T12:14:12.46Z</time></trkpt><trkpt lat="42.4430026" lon="14.1486301"><ele>102.0</ele><time>2026-05-03T12:14:13.467Z</time></trkpt><trkpt lat="42.4430995" lon="14.1484686"><ele>104.0</ele><time>2026-05-03T12:14:14.467Z</time></trkpt><trkpt lat="42.4432151" lon="14.1483215"><ele>109.0</ele><time>2026-05-03T12:14:15.469Z</time></trkpt><trkpt lat="42.4433378" lon="14.1481639"><ele>114.0</ele><time>2026-05-03T12:14:16.462Z</time></trkpt><trkpt lat="42.443457" lon="14.1479913"><ele>119.0</ele><time>2026-05-03T12:14:17.463Z</time></trkpt><trkpt lat="42.443594" lon="14.1478341"><ele>119.0</ele><time>2026-05-03T12:14:18.464Z</time></trkpt><trkpt lat="42.4437132" lon="14.1477037"><ele>119.0</ele><time>2026-05-03T12:14:19.457Z</time></trkpt><trkpt lat="42.4438335" lon="14.1476217"><ele>119.0</ele><time>2026-05-03T12:14:20.458Z</time></trkpt><trkpt lat="42.4439701" lon="14.1475438"><ele>119.0</ele><time>2026-05-03T12:14:21.462Z</time></trkpt><trkpt lat="42.4441172" lon="14.1474903"><ele>117.75</ele><time>2026-05-03T12:14:22.469Z</time></trkpt><trkpt lat="42.4442501" lon="14.1474623"><ele>116.5</ele><time>2026-05-03T12:14:23.463Z</time></trkpt><trkpt lat="42.4443678" lon="14.1474311"><ele>115.25</ele><time>2026-05-03T12:14:24.468Z</time></trkpt><trkpt lat="42.4444634" lon="14.1473169"><ele>114.0</ele><time>2026-05-03T12:14:25.464Z</time></trkpt><trkpt lat="42.4445532" lon="14.1472186"><ele>115.75</ele><time>2026-05-03T12:14:26.46Z</time></trkpt><trkpt lat="42.4446181" lon="14.1470796"><ele>117.5</ele><time>2026-05-03T12:14:27.46Z</time></trkpt><trkpt lat="42.4446565" lon="14.1469392"><ele>119.25</ele><time>2026-05-03T12:14:28.477Z</time></trkpt><trkpt lat="42.4446981" lon="14.1468123"><ele>121.0</ele><time>2026-05-03T12:14:29.469Z</time></trkpt><trkpt lat="42.4447818" lon="14.146669"><ele>122.66666666666667</ele><time>2026-05-03T12:14:30.465Z</time></trkpt><trkpt lat="42.444876" lon="14.14652"><ele>124.33333333333334</ele><time>2026-05-03T12:14:31.468Z</time></trkpt><trkpt lat="42.4449929" lon="14.1463436"><ele>126.0</ele><time>2026-05-03T12:14:32.461Z</time></trkpt><trkpt lat="42.4451157" lon="14.1461535"><ele>126.0</ele><time>2026-05-03T12:14:33.463Z</time></trkpt><trkpt lat="42.44521" lon="14.1459937"><ele>126.0</ele><time>2026-05-03T12:14:34.464Z</time></trkpt><trkpt lat="42.4452955" lon="14.1458439"><ele>126.0</ele><time>2026-05-03T12:14:35.464Z</time></trkpt><trkpt lat="42.4453751" lon="14.1457031"><ele>126.0</ele><time>2026-05-03T12:14:36.463Z</time></trkpt><trkpt lat="42.4454571" lon="14.1455927"><ele>124.5</ele><time>2026-05-03T12:14:37.464Z</time></trkpt><trkpt lat="42.4455251" lon="14.145448"><ele>123.0</ele><time>2026-05-03T12:14:38.465Z</time></trkpt><trkpt lat="42.4456203" lon="14.1453078"><ele>121.5</ele><time>2026-05-03T12:14:39.462Z</time></trkpt><trkpt lat="42.4457524" lon="14.1451713"><ele>120.0</ele><time>2026-05-03T12:14:40.464Z</time></trkpt><trkpt lat="42.4458805" lon="14.145078"><ele>120.0</ele><time>2026-05-03T12:14:41.465Z</time></trkpt><trkpt lat="42.4460372" lon="14.1449689"><ele>120.0</ele><time>2026-05-03T12:14:42.465Z</time></trkpt><trkpt lat="42.4461869" lon="14.1448756"><ele>120.0</ele><time>2026-05-03T12:14:43.469Z</time></trkpt><trkpt lat="42.4463415" lon="14.144794"><ele>120.33333333333334</ele><time>2026-05-03T12:14:44.471Z</time></trkpt><trkpt lat="42.4465069" lon="14.1447478"><ele>120.66666666666667</ele><time>2026-05-03T12:14:45.465Z</time></trkpt><trkpt lat="42.4466716" lon="14.1447072"><ele>121.0</ele><time>2026-05-03T12:14:46.462Z</time></trkpt><trkpt lat="42.4468179" lon="14.1446558"><ele>121.0</ele><time>2026-05-03T12:14:47.466Z</time></trkpt><trkpt lat="42.4469654" lon="14.14461"><ele>121.0</ele><time>2026-05-03T12:14:48.467Z</time></trkpt><trkpt lat="42.447107" lon="14.1445539"><ele>121.0</ele><time>2026-05-03T12:14:49.466Z</time></trkpt><trkpt lat="42.4472621" lon="14.144543"><ele>122.25</ele><time>2026-05-03T12:14:50.469Z</time></trkpt><trkpt lat="42.4473876" lon="14.1445532"><ele>123.5</ele><time>2026-05-03T12:14:51.458Z</time></trkpt><trkpt lat="42.4474988" lon="14.1446093"><ele>124.75</ele><time>2026-05-03T12:14:52.465Z</time></trkpt><trkpt lat="42.4475855" lon="14.1447055"><ele>126.0</ele><time>2026-05-03T12:14:53.462Z</time></trkpt><trkpt lat="42.4476203" lon="14.1448476"><ele>126.25</ele><time>2026-05-03T12:14:54.461Z</time></trkpt><trkpt lat="42.4476488" lon="14.1450019"><ele>126.5</ele><time>2026-05-03T12:14:55.462Z</time></trkpt><trkpt lat="42.4476581" lon="14.1451796"><ele>126.75</ele><time>2026-05-03T12:14:56.454Z</time></trkpt><trkpt lat="42.4476315" lon="14.1453888"><ele>127.0</ele><time>2026-05-03T12:14:57.459Z</time></trkpt><trkpt lat="42.4475997" lon="14.1456018"><ele>127.5</ele><time>2026-05-03T12:14:58.461Z</time></trkpt><trkpt lat="42.4476278" lon="14.1457745"><ele>128.0</ele><time>2026-05-03T12:14:59.455Z</time></trkpt><trkpt lat="42.4476799" lon="14.1459357"><ele>128.5</ele><time>2026-05-03T12:15:00.456Z</time></trkpt><trkpt lat="42.4477602" lon="14.1460826"><ele>129.0</ele><time>2026-05-03T12:15:01.464Z</time></trkpt><trkpt lat="42.4478668" lon="14.1462086"><ele>133.33333333333334</ele><time>2026-05-03T12:15:02.463Z</time></trkpt><trkpt lat="42.4480134" lon="14.1462925"><ele>137.66666666666669</ele><time>2026-05-03T12:15:03.463Z</time></trkpt><trkpt lat="42.4481588" lon="14.146372"><ele>142.0</ele><time>2026-05-03T12:15:04.454Z</time></trkpt><trkpt lat="42.44829" lon="14.146443"><ele>142.0</ele><time>2026-05-03T12:15:05.461Z</time></trkpt><trkpt lat="42.4484129" lon="14.1464912"><ele>142.0</ele><time>2026-05-03T12:15:06.457Z</time></trkpt><trkpt lat="42.4485515" lon="14.1465164"><ele>142.0</ele><time>2026-05-03T12:15:07.458Z</time></trkpt><trkpt lat="42.4486889" lon="14.1465401"><ele>142.0</ele><time>2026-05-03T12:15:08.456Z</time></trkpt><trkpt lat="42.4488127" lon="14.1465116"><ele>142.5</ele><time>2026-05-03T12:15:09.458Z</time></trkpt><trkpt lat="42.4489341" lon="14.1464389"><ele>143.0</ele><time>2026-05-03T12:15:10.456Z</time></trkpt><trkpt lat="42.4490543" lon="14.1463474"><ele>143.5</ele><time>2026-05-03T12:15:11.461Z</time></trkpt><trkpt lat="42.4491616" lon="14.1462302"><ele>144.0</ele><time>2026-05-03T12:15:12.458Z</time></trkpt><trkpt lat="42.4492589" lon="14.1460705"><ele>144.0</ele><time>2026-05-03T12:15:13.457Z</time></trkpt><trkpt lat="42.44935" lon="14.1458827"><ele>144.0</ele><time>2026-05-03T12:15:14.462Z</time></trkpt><trkpt lat="42.4494561" lon="14.1456733"><ele>144.0</ele><time>2026-05-03T12:15:15.452Z</time></trkpt><trkpt lat="42.4495618" lon="14.1454856"><ele>141.33333333333334</ele><time>2026-05-03T12:15:16.456Z</time></trkpt><trkpt lat="42.4496839" lon="14.14532"><ele>138.66666666666669</ele><time>2026-05-03T12:15:17.452Z</time></trkpt><trkpt lat="42.4497899" lon="14.1451401"><ele>136.0</ele><time>2026-05-03T12:15:18.459Z</time></trkpt><trkpt lat="42.4498566" lon="14.1449684"><ele>137.5</ele><time>2026-05-03T12:15:19.47Z</time></trkpt><trkpt lat="42.4499107" lon="14.144779"><ele>139.0</ele><time>2026-05-03T12:15:20.462Z</time></trkpt><trkpt lat="42.4499557" lon="14.144593"><ele>140.5</ele><time>2026-05-03T12:15:21.466Z</time></trkpt><trkpt lat="42.4499938" lon="14.1443926"><ele>142.0</ele><time>2026-05-03T12:15:22.46Z</time></trkpt><trkpt lat="42.45002" lon="14.1442061"><ele>140.66666666666669</ele><time>2026-05-03T12:15:23.463Z</time></trkpt><trkpt lat="42.4500177" lon="14.1439923"><ele>139.33333333333334</ele><time>2026-05-03T12:15:24.46Z</time></trkpt><trkpt lat="42.450013" lon="14.1437729"><ele>138.0</ele><time>2026-05-03T12:15:25.465Z</time></trkpt><trkpt lat="42.4499946" lon="14.1435471"><ele>138.0</ele><time>2026-05-03T12:15:26.465Z</time></trkpt><trkpt lat="42.4499896" lon="14.1433305"><ele>138.0</ele><time>2026-05-03T12:15:27.465Z</time></trkpt><trkpt lat="42.4499721" lon="14.1431319"><ele>138.0</ele><time>2026-05-03T12:15:28.463Z</time></trkpt><trkpt lat="42.4499335" lon="14.142926"><ele>137.66666666666666</ele><time>2026-05-03T12:15:29.464Z</time></trkpt><trkpt lat="42.4498666" lon="14.1427331"><ele>137.33333333333331</ele><time>2026-05-03T12:15:30.465Z</time></trkpt><trkpt lat="42.4497847" lon="14.1425405"><ele>137.0</ele><time>2026-05-03T12:15:31.467Z</time></trkpt><trkpt lat="42.4497309" lon="14.1423631"><ele>137.75</ele><time>2026-05-03T12:15:32.465Z</time></trkpt><trkpt lat="42.4496665" lon="14.1422053"><ele>138.5</ele><time>2026-05-03T12:15:33.458Z</time></trkpt><trkpt lat="42.4496336" lon="14.1420573"><ele>139.25</ele><time>2026-05-03T12:15:34.461Z</time></trkpt><trkpt lat="42.4496275" lon="14.1419138"><ele>140.0</ele><time>2026-05-03T12:15:35.457Z</time></trkpt><trkpt lat="42.4496711" lon="14.1417894"><ele>140.0</ele><time>2026-05-03T12:15:36.455Z</time></trkpt><trkpt lat="42.44975" lon="14.1417248"><ele>140.0</ele><time>2026-05-03T12:15:37.455Z</time></trkpt><trkpt lat="42.4498699" lon="14.1416379"><ele>140.0</ele><time>2026-05-03T12:15:38.46Z</time></trkpt><trkpt lat="42.4499997" lon="14.1415751"><ele>140.0</ele><time>2026-05-03T12:15:39.452Z</time></trkpt><trkpt lat="42.4501472" lon="14.1414939"><ele>141.25</ele><time>2026-05-03T12:15:40.449Z</time></trkpt><trkpt lat="42.4502909" lon="14.1414248"><ele>142.5</ele><time>2026-05-03T12:15:41.453Z</time></trkpt><trkpt lat="42.450423" lon="14.1413497"><ele>143.75</ele><time>2026-05-03T12:15:42.455Z</time></trkpt><trkpt lat="42.450531" lon="14.1413109"><ele>145.0</ele><time>2026-05-03T12:15:43.462Z</time></trkpt><trkpt lat="42.4506223" lon="14.1412666"><ele>146.25</ele><time>2026-05-03T12:15:44.459Z</time></trkpt><trkpt lat="42.4507172" lon="14.1412455"><ele>147.5</ele><time>2026-05-03T12:15:45.456Z</time></trkpt><trkpt lat="42.4508448" lon="14.1412317"><ele>148.75</ele><time>2026-05-03T12:15:46.459Z</time></trkpt><trkpt lat="42.4509771" lon="14.1412012"><ele>150.0</ele><time>2026-05-03T12:15:47.464Z</time></trkpt><trkpt lat="42.4511207" lon="14.1411559"><ele>150.0</ele><time>2026-05-03T12:15:48.457Z</time></trkpt><trkpt lat="42.4512647" lon="14.1411053"><ele>150.0</ele><time>2026-05-03T12:15:49.467Z</time></trkpt><trkpt lat="42.4513932" lon="14.1410553"><ele>150.0</ele><time>2026-05-03T12:15:50.462Z</time></trkpt><trkpt lat="42.4515397" lon="14.1410151"><ele>150.0</ele><time>2026-05-03T12:15:51.457Z</time></trkpt><trkpt lat="42.45166" lon="14.140983"><ele>150.25</ele><time>2026-05-03T12:15:52.456Z</time></trkpt><trkpt lat="42.4517875" lon="14.1409751"><ele>150.5</ele><time>2026-05-03T12:15:53.447Z</time></trkpt><trkpt lat="42.4519283" lon="14.1409354"><ele>150.75</ele><time>2026-05-03T12:15:54.451Z</time></trkpt><trkpt lat="42.4520627" lon="14.1409047"><ele>151.0</ele><time>2026-05-03T12:15:55.455Z</time></trkpt><trkpt lat="42.4522038" lon="14.1408709"><ele>151.0</ele><time>2026-05-03T12:15:56.455Z</time></trkpt><trkpt lat="42.452332" lon="14.1408307"><ele>151.0</ele><time>2026-05-03T12:15:57.463Z</time></trkpt><trkpt lat="42.4524518" lon="14.1407687"><ele>151.0</ele><time>2026-05-03T12:15:58.463Z</time></trkpt><trkpt lat="42.4525495" lon="14.140749"><ele>151.0</ele><time>2026-05-03T12:15:59.467Z</time></trkpt><trkpt lat="42.4526656" lon="14.1407209"><ele>151.16666666666669</ele><time>2026-05-03T12:16:00.462Z</time></trkpt><trkpt lat="42.45276" lon="14.1407044"><ele>151.33333333333334</ele><time>2026-05-03T12:16:01.46Z</time></trkpt><trkpt lat="42.4528333" lon="14.1406968"><ele>151.5</ele><time>2026-05-03T12:16:02.457Z</time></trkpt><trkpt lat="42.452913" lon="14.1406924"><ele>151.66666666666666</ele><time>2026-05-03T12:16:04.459Z</time></trkpt><trkpt lat="42.4529842" lon="14.1406802"><ele>151.83333333333331</ele><time>2026-05-03T12:16:07.469Z</time></trkpt><trkpt lat="42.4530705" lon="14.1406783"><ele>152.0</ele><time>2026-05-03T12:16:18.463Z</time></trkpt><trkpt lat="42.4531311" lon="14.1406372"><ele>155.39999999999998</ele><time>2026-05-03T12:16:20.463Z</time></trkpt><trkpt lat="42.4531911" lon="14.1405932"><ele>158.79999999999998</ele><time>2026-05-03T12:16:21.451Z</time></trkpt><trkpt lat="42.4532678" lon="14.1405416"><ele>162.2</ele><time>2026-05-03T12:16:22.452Z</time></trkpt><trkpt lat="42.4533678" lon="14.1404855"><ele>165.6</ele><time>2026-05-03T12:16:23.452Z</time></trkpt><trkpt lat="42.4534982" lon="14.140408"><ele>169.0</ele><time>2026-05-03T12:16:24.452Z</time></trkpt><trkpt lat="42.4536163" lon="14.140329"><ele>169.0</ele><time>2026-05-03T12:16:25.455Z</time></trkpt><trkpt lat="42.4537307" lon="14.1402236"><ele>169.0</ele><time>2026-05-03T12:16:26.45Z</time></trkpt><trkpt lat="42.453848" lon="14.1400903"><ele>169.0</ele><time>2026-05-03T12:16:27.45Z</time></trkpt><trkpt lat="42.453975" lon="14.1398761"><ele>170.66666666666669</ele><time>2026-05-03T12:16:28.449Z</time></trkpt><trkpt lat="42.4540953" lon="14.1396355"><ele>172.33333333333334</ele><time>2026-05-03T12:16:29.448Z</time></trkpt><trkpt lat="42.4541869" lon="14.1393926"><ele>174.0</ele><time>2026-05-03T12:16:30.446Z</time></trkpt><trkpt lat="42.4542913" lon="14.1391667"><ele>173.75</ele><time>2026-05-03T12:16:31.447Z</time></trkpt><trkpt lat="42.4544146" lon="14.1389813"><ele>173.5</ele><time>2026-05-03T12:16:32.447Z</time></trkpt><trkpt lat="42.4544999" lon="14.1388389"><ele>173.25</ele><time>2026-05-03T12:16:33.44Z</time></trkpt><trkpt lat="42.4545821" lon="14.1387149"><ele>173.0</ele><time>2026-05-03T12:16:34.449Z</time></trkpt><trkpt lat="42.4546706" lon="14.1386026"><ele>173.0</ele><time>2026-05-03T12:16:35.448Z</time></trkpt><trkpt lat="42.4547505" lon="14.1384912"><ele>173.0</ele><time>2026-05-03T12:16:36.445Z</time></trkpt><trkpt lat="42.4548316" lon="14.1383609"><ele>173.0</ele><time>2026-05-03T12:16:37.445Z</time></trkpt><trkpt lat="42.4549123" lon="14.1382381"><ele>173.0</ele><time>2026-05-03T12:16:38.447Z</time></trkpt><trkpt lat="42.4549915" lon="14.1381021"><ele>172.25</ele><time>2026-05-03T12:16:39.449Z</time></trkpt><trkpt lat="42.4550721" lon="14.1379598"><ele>171.5</ele><time>2026-05-03T12:16:40.456Z</time></trkpt><trkpt lat="42.4551229" lon="14.1378102"><ele>170.75</ele><time>2026-05-03T12:16:41.455Z</time></trkpt><trkpt lat="42.4551473" lon="14.1376442"><ele>170.0</ele><time>2026-05-03T12:16:42.457Z</time></trkpt><trkpt lat="42.4551432" lon="14.1374636"><ele>170.75</ele><time>2026-05-03T12:16:43.453Z</time></trkpt><trkpt lat="42.4551339" lon="14.1372738"><ele>171.5</ele><time>2026-05-03T12:16:44.459Z</time></trkpt><trkpt lat="42.4551225" lon="14.1370872"><ele>172.25</ele><time>2026-05-03T12:16:45.454Z</time></trkpt><trkpt lat="42.4551157" lon="14.1369116"><ele>173.0</ele><time>2026-05-03T12:16:46.445Z</time></trkpt><trkpt lat="42.4551037" lon="14.1367608"><ele>173.0</ele><time>2026-05-03T12:16:47.446Z</time></trkpt><trkpt lat="42.4550928" lon="14.1366264"><ele>173.0</ele><time>2026-05-03T12:16:48.462Z</time></trkpt><trkpt lat="42.4550788" lon="14.1365008"><ele>173.0</ele><time>2026-05-03T12:16:49.46Z</time></trkpt><trkpt lat="42.4550783" lon="14.1363894"><ele>173.0</ele><time>2026-05-03T12:16:50.465Z</time></trkpt><trkpt lat="42.4551054" lon="14.1362234"><ele>173.0</ele><time>2026-05-03T12:16:52.458Z</time></trkpt><trkpt lat="42.4551744" lon="14.1361856"><ele>174.4</ele><time>2026-05-03T12:16:53.468Z</time></trkpt><trkpt lat="42.4552932" lon="14.1361597"><ele>175.8</ele><time>2026-05-03T12:16:54.461Z</time></trkpt><trkpt lat="42.4554052" lon="14.1361314"><ele>177.2</ele><time>2026-05-03T12:16:55.458Z</time></trkpt><trkpt lat="42.4555099" lon="14.1361088"><ele>178.6</ele><time>2026-05-03T12:16:56.464Z</time></trkpt><trkpt lat="42.4556054" lon="14.1360787"><ele>180.0</ele><time>2026-05-03T12:16:57.457Z</time></trkpt><trkpt lat="42.4557031" lon="14.1360247"><ele>180.0</ele><time>2026-05-03T12:16:58.459Z</time></trkpt><trkpt lat="42.4558131" lon="14.1359689"><ele>180.0</ele><time>2026-05-03T12:16:59.452Z</time></trkpt><trkpt lat="42.4559251" lon="14.1358888"><ele>180.0</ele><time>2026-05-03T12:17:00.459Z</time></trkpt><trkpt lat="42.4560284" lon="14.1357725"><ele>180.0</ele><time>2026-05-03T12:17:01.454Z</time></trkpt><trkpt lat="42.4561135" lon="14.135633"><ele>183.5</ele><time>2026-05-03T12:17:02.456Z</time></trkpt><trkpt lat="42.4561847" lon="14.1354847"><ele>187.0</ele><time>2026-05-03T12:17:03.463Z</time></trkpt><trkpt lat="42.4562482" lon="14.1353211"><ele>190.5</ele><time>2026-05-03T12:17:04.464Z</time></trkpt><trkpt lat="42.4563046" lon="14.135142"><ele>194.0</ele><time>2026-05-03T12:17:05.461Z</time></trkpt><trkpt lat="42.4563637" lon="14.1349446"><ele>185.33333333333334</ele><time>2026-05-03T12:17:06.464Z</time></trkpt><trkpt lat="42.4564191" lon="14.134765"><ele>176.66666666666669</ele><time>2026-05-03T12:17:07.462Z</time></trkpt><trkpt lat="42.456484" lon="14.1345761"><ele>168.0</ele><time>2026-05-03T12:17:08.46Z</time></trkpt><trkpt lat="42.4565537" lon="14.1343789"><ele>168.0</ele><time>2026-05-03T12:17:09.465Z</time></trkpt><trkpt lat="42.4566244" lon="14.1341904"><ele>168.0</ele><time>2026-05-03T12:17:10.462Z</time></trkpt><trkpt lat="42.4566806" lon="14.1339724"><ele>168.0</ele><time>2026-05-03T12:17:11.466Z</time></trkpt><trkpt lat="42.4567415" lon="14.1337485"><ele>168.0</ele><time>2026-05-03T12:17:12.47Z</time></trkpt><trkpt lat="42.4567769" lon="14.1335402"><ele>168.0</ele><time>2026-05-03T12:17:13.468Z</time></trkpt><trkpt lat="42.4567985" lon="14.1333354"><ele>168.0</ele><time>2026-05-03T12:17:14.466Z</time></trkpt><trkpt lat="42.4568259" lon="14.1331401"><ele>167.33333333333334</ele><time>2026-05-03T12:17:15.471Z</time></trkpt><trkpt lat="42.4568629" lon="14.1329289"><ele>166.66666666666669</ele><time>2026-05-03T12:17:16.467Z</time></trkpt><trkpt lat="42.4568929" lon="14.1327197"><ele>166.0</ele><time>2026-05-03T12:17:17.473Z</time></trkpt><trkpt lat="42.4569262" lon="14.1325144"><ele>166.0</ele><time>2026-05-03T12:17:18.464Z</time></trkpt><trkpt lat="42.4569803" lon="14.1323066"><ele>166.0</ele><time>2026-05-03T12:17:19.46Z</time></trkpt><trkpt lat="42.4570539" lon="14.1321011"><ele>166.0</ele><time>2026-05-03T12:17:20.475Z</time></trkpt><trkpt lat="42.4571567" lon="14.13189"><ele>164.0</ele><time>2026-05-03T12:17:21.468Z</time></trkpt><trkpt lat="42.4572466" lon="14.1316829"><ele>162.0</ele><time>2026-05-03T12:17:22.467Z</time></trkpt><trkpt lat="42.4573464" lon="14.1314721"><ele>160.0</ele><time>2026-05-03T12:17:23.471Z</time></trkpt><trkpt lat="42.457436" lon="14.1312623"><ele>160.0</ele><time>2026-05-03T12:17:24.477Z</time></trkpt><trkpt lat="42.4575256" lon="14.1310557"><ele>160.0</ele><time>2026-05-03T12:17:25.476Z</time></trkpt><trkpt lat="42.4576328" lon="14.1308684"><ele>160.0</ele><time>2026-05-03T12:17:26.474Z</time></trkpt><trkpt lat="42.4577364" lon="14.1306849"><ele>160.33333333333334</ele><time>2026-05-03T12:17:27.476Z</time></trkpt><trkpt lat="42.4578623" lon="14.1305033"><ele>160.66666666666666</ele><time>2026-05-03T12:17:28.483Z</time></trkpt><trkpt lat="42.4579977" lon="14.1303798"><ele>161.0</ele><time>2026-05-03T12:17:29.475Z</time></trkpt><trkpt lat="42.4581335" lon="14.1302488"><ele>160.66666666666666</ele><time>2026-05-03T12:17:30.48Z</time></trkpt><trkpt lat="42.4582642" lon="14.1301192"><ele>160.33333333333334</ele><time>2026-05-03T12:17:31.472Z</time></trkpt><trkpt lat="42.4583809" lon="14.1299483"><ele>160.0</ele><time>2026-05-03T12:17:32.481Z</time></trkpt><trkpt lat="42.458509" lon="14.1297692"><ele>160.0</ele><time>2026-05-03T12:17:33.471Z</time></trkpt><trkpt lat="42.4585893" lon="14.1295734"><ele>160.0</ele><time>2026-05-03T12:17:34.469Z</time></trkpt><trkpt lat="42.4586698" lon="14.1293646"><ele>160.0</ele><time>2026-05-03T12:17:35.466Z</time></trkpt><trkpt lat="42.4587215" lon="14.1291518"><ele>158.75</ele><time>2026-05-03T12:17:36.455Z</time></trkpt><trkpt lat="42.4587423" lon="14.1289697"><ele>157.5</ele><time>2026-05-03T12:17:37.47Z</time></trkpt><trkpt lat="42.4587386" lon="14.128788"><ele>156.25</ele><time>2026-05-03T12:17:38.471Z</time></trkpt><trkpt lat="42.4587301" lon="14.1285931"><ele>155.0</ele><time>2026-05-03T12:17:39.47Z</time></trkpt><trkpt lat="42.4586982" lon="14.1283815"><ele>157.66666666666666</ele><time>2026-05-03T12:17:40.479Z</time></trkpt><trkpt lat="42.458638" lon="14.1281787"><ele>160.33333333333334</ele><time>2026-05-03T12:17:41.471Z</time></trkpt><trkpt lat="42.4585437" lon="14.1279716"><ele>163.0</ele><time>2026-05-03T12:17:42.469Z</time></trkpt><trkpt lat="42.4584447" lon="14.1277535"><ele>163.0</ele><time>2026-05-03T12:17:43.469Z</time></trkpt><trkpt lat="42.458354" lon="14.1275395"><ele>163.0</ele><time>2026-05-03T12:17:44.462Z</time></trkpt><trkpt lat="42.4582805" lon="14.1273645"><ele>163.0</ele><time>2026-05-03T12:17:45.469Z</time></trkpt><trkpt lat="42.458183" lon="14.1272063"><ele>160.66666666666669</ele><time>2026-05-03T12:17:46.474Z</time></trkpt><trkpt lat="42.4580442" lon="14.1270813"><ele>158.33333333333334</ele><time>2026-05-03T12:17:47.468Z</time></trkpt><trkpt lat="42.4579001" lon="14.1269803"><ele>156.0</ele><time>2026-05-03T12:17:48.473Z</time></trkpt><trkpt lat="42.4577954" lon="14.1268018"><ele>156.0</ele><time>2026-05-03T12:17:49.464Z</time></trkpt><trkpt lat="42.4577009" lon="14.1265905"><ele>156.0</ele><time>2026-05-03T12:17:50.46Z</time></trkpt><trkpt lat="42.457592" lon="14.1263683"><ele>156.0</ele><time>2026-05-03T12:17:51.46Z</time></trkpt><trkpt lat="42.4575078" lon="14.1261627"><ele>159.66666666666666</ele><time>2026-05-03T12:17:52.462Z</time></trkpt><trkpt lat="42.4574151" lon="14.1259684"><ele>163.33333333333331</ele><time>2026-05-03T12:17:53.463Z</time></trkpt><trkpt lat="42.4573471" lon="14.1257768"><ele>167.0</ele><time>2026-05-03T12:17:54.465Z</time></trkpt><trkpt lat="42.4573011" lon="14.1255872"><ele>168.0</ele><time>2026-05-03T12:17:55.463Z</time></trkpt><trkpt lat="42.4572582" lon="14.125381"><ele>169.0</ele><time>2026-05-03T12:17:56.463Z</time></trkpt><trkpt lat="42.4572431" lon="14.1251839"><ele>170.0</ele><time>2026-05-03T12:17:57.465Z</time></trkpt><trkpt lat="42.4572375" lon="14.1250147"><ele>171.0</ele><time>2026-05-03T12:17:58.473Z</time></trkpt><trkpt lat="42.4572369" lon="14.1248276"><ele>171.0</ele><time>2026-05-03T12:17:59.465Z</time></trkpt><trkpt lat="42.4572494" lon="14.1246244"><ele>171.0</ele><time>2026-05-03T12:18:00.466Z</time></trkpt><trkpt lat="42.4572672" lon="14.1244159"><ele>171.0</ele><time>2026-05-03T12:18:01.466Z</time></trkpt><trkpt lat="42.4572936" lon="14.1241902"><ele>168.66666666666666</ele><time>2026-05-03T12:18:02.457Z</time></trkpt><trkpt lat="42.4573525" lon="14.123956"><ele>166.33333333333331</ele><time>2026-05-03T12:18:03.463Z</time></trkpt><trkpt lat="42.4574165" lon="14.1237263"><ele>164.0</ele><time>2026-05-03T12:18:04.46Z</time></trkpt><trkpt lat="42.4574896" lon="14.1234884"><ele>164.0</ele><time>2026-05-03T12:18:05.472Z</time></trkpt><trkpt lat="42.4575975" lon="14.1232914"><ele>164.0</ele><time>2026-05-03T12:18:06.471Z</time></trkpt><trkpt lat="42.457678" lon="14.1231019"><ele>164.0</ele><time>2026-05-03T12:18:07.469Z</time></trkpt><trkpt lat="42.4577413" lon="14.1228935"><ele>163.33333333333331</ele><time>2026-05-03T12:18:08.473Z</time></trkpt><trkpt lat="42.4578024" lon="14.122693"><ele>162.66666666666666</ele><time>2026-05-03T12:18:09.473Z</time></trkpt><trkpt lat="42.4578673" lon="14.122504"><ele>162.0</ele><time>2026-05-03T12:18:10.474Z</time></trkpt><trkpt lat="42.4579299" lon="14.1223234"><ele>161.33333333333334</ele><time>2026-05-03T12:18:11.475Z</time></trkpt><trkpt lat="42.4580076" lon="14.1221409"><ele>160.66666666666669</ele><time>2026-05-03T12:18:12.472Z</time></trkpt><trkpt lat="42.4581153" lon="14.1219774"><ele>160.0</ele><time>2026-05-03T12:18:13.477Z</time></trkpt><trkpt lat="42.4582409" lon="14.1218213"><ele>160.0</ele><time>2026-05-03T12:18:14.477Z</time></trkpt><trkpt lat="42.458374" lon="14.1216653"><ele>160.0</ele><time>2026-05-03T12:18:15.481Z</time></trkpt><trkpt lat="42.4585042" lon="14.1215137"><ele>160.0</ele><time>2026-05-03T12:18:16.485Z</time></trkpt><trkpt lat="42.4586271" lon="14.1213739"><ele>160.0</ele><time>2026-05-03T12:18:17.482Z</time></trkpt><trkpt lat="42.4587699" lon="14.121255"><ele>160.0</ele><time>2026-05-03T12:18:18.476Z</time></trkpt><trkpt lat="42.4588964" lon="14.1211221"><ele>160.0</ele><time>2026-05-03T12:18:19.48Z</time></trkpt><trkpt lat="42.4590234" lon="14.1210054"><ele>160.0</ele><time>2026-05-03T12:18:20.479Z</time></trkpt><trkpt lat="42.4591399" lon="14.120896"><ele>160.0</ele><time>2026-05-03T12:18:21.479Z</time></trkpt><trkpt lat="42.459257" lon="14.120778"><ele>160.0</ele><time>2026-05-03T12:18:22.477Z</time></trkpt><trkpt lat="42.4593871" lon="14.1206509"><ele>160.0</ele><time>2026-05-03T12:18:23.483Z</time></trkpt><trkpt lat="42.4595082" lon="14.1205375"><ele>160.0</ele><time>2026-05-03T12:18:24.481Z</time></trkpt><trkpt lat="42.4596041" lon="14.1204214"><ele>160.0</ele><time>2026-05-03T12:18:25.481Z</time></trkpt><trkpt lat="42.4596992" lon="14.1203114"><ele>160.0</ele><time>2026-05-03T12:18:26.474Z</time></trkpt><trkpt lat="42.4597959" lon="14.1202121"><ele>160.0</ele><time>2026-05-03T12:18:27.473Z</time></trkpt><trkpt lat="42.4599018" lon="14.120154"><ele>160.0</ele><time>2026-05-03T12:18:28.475Z</time></trkpt><trkpt lat="42.4599966" lon="14.1201252"><ele>160.0</ele><time>2026-05-03T12:18:29.475Z</time></trkpt><trkpt lat="42.4600987" lon="14.1201067"><ele>160.0</ele><time>2026-05-03T12:18:30.469Z</time></trkpt><trkpt lat="42.4602019" lon="14.120083"><ele>160.0</ele><time>2026-05-03T12:18:31.474Z</time></trkpt><trkpt lat="42.4603047" lon="14.1200672"><ele>160.0</ele><time>2026-05-03T12:18:32.468Z</time></trkpt><trkpt lat="42.4604269" lon="14.1200804"><ele>160.5</ele><time>2026-05-03T12:18:33.461Z</time></trkpt><trkpt lat="42.4605517" lon="14.1201293"><ele>161.0</ele><time>2026-05-03T12:18:34.477Z</time></trkpt><trkpt lat="42.460682" lon="14.1201898"><ele>161.5</ele><time>2026-05-03T12:18:35.475Z</time></trkpt><trkpt lat="42.4608217" lon="14.1203121"><ele>162.0</ele><time>2026-05-03T12:18:36.47Z</time></trkpt><trkpt lat="42.4609823" lon="14.1203803"><ele>162.0</ele><time>2026-05-03T12:18:37.471Z</time></trkpt><trkpt lat="42.4611459" lon="14.1204352"><ele>162.0</ele><time>2026-05-03T12:18:38.467Z</time></trkpt><trkpt lat="42.4612971" lon="14.1204832"><ele>162.0</ele><time>2026-05-03T12:18:39.471Z</time></trkpt><trkpt lat="42.4614511" lon="14.1205648"><ele>164.33333333333334</ele><time>2026-05-03T12:18:40.467Z</time></trkpt><trkpt lat="42.4616064" lon="14.1206838"><ele>166.66666666666669</ele><time>2026-05-03T12:18:41.468Z</time></trkpt><trkpt lat="42.4617707" lon="14.120798"><ele>169.0</ele><time>2026-05-03T12:18:42.468Z</time></trkpt><trkpt lat="42.4619397" lon="14.120904"><ele>168.0</ele><time>2026-05-03T12:18:43.464Z</time></trkpt><trkpt lat="42.4620887" lon="14.1210121"><ele>167.0</ele><time>2026-05-03T12:18:44.473Z</time></trkpt><trkpt lat="42.4622292" lon="14.121141"><ele>166.0</ele><time>2026-05-03T12:18:45.471Z</time></trkpt><trkpt lat="42.4623742" lon="14.12127"><ele>166.0</ele><time>2026-05-03T12:18:46.468Z</time></trkpt><trkpt lat="42.4625032" lon="14.1213869"><ele>166.0</ele><time>2026-05-03T12:18:47.473Z</time></trkpt><trkpt lat="42.4626326" lon="14.1214807"><ele>166.0</ele><time>2026-05-03T12:18:48.473Z</time></trkpt><trkpt lat="42.4627426" lon="14.1215769"><ele>166.0</ele><time>2026-05-03T12:18:49.47Z</time></trkpt><trkpt lat="42.4628591" lon="14.1216565"><ele>163.25</ele><time>2026-05-03T12:18:50.477Z</time></trkpt><trkpt lat="42.4629847" lon="14.1217367"><ele>160.5</ele><time>2026-05-03T12:18:51.475Z</time></trkpt><trkpt lat="42.4631178" lon="14.1218167"><ele>157.75</ele><time>2026-05-03T12:18:52.482Z</time></trkpt><trkpt lat="42.4632497" lon="14.1219048"><ele>155.0</ele><time>2026-05-03T12:18:53.483Z</time></trkpt><trkpt lat="42.463367" lon="14.1219834"><ele>155.0</ele><time>2026-05-03T12:18:54.479Z</time></trkpt><trkpt lat="42.4634878" lon="14.122054"><ele>155.0</ele><time>2026-05-03T12:18:55.477Z</time></trkpt><trkpt lat="42.4636004" lon="14.1221408"><ele>155.0</ele><time>2026-05-03T12:18:56.478Z</time></trkpt><trkpt lat="42.463726" lon="14.1222292"><ele>155.0</ele><time>2026-05-03T12:18:57.47Z</time></trkpt><trkpt lat="42.4638556" lon="14.1223192"><ele>153.5</ele><time>2026-05-03T12:18:58.475Z</time></trkpt><trkpt lat="42.4639534" lon="14.1224537"><ele>152.0</ele><time>2026-05-03T12:18:59.471Z</time></trkpt><trkpt lat="42.464037" lon="14.1225932"><ele>150.5</ele><time>2026-05-03T12:19:00.478Z</time></trkpt><trkpt lat="42.4641373" lon="14.1227692"><ele>149.0</ele><time>2026-05-03T12:19:01.465Z</time></trkpt><trkpt lat="42.4642248" lon="14.1229615"><ele>149.0</ele><time>2026-05-03T12:19:02.463Z</time></trkpt><trkpt lat="42.4642877" lon="14.1231649"><ele>149.0</ele><time>2026-05-03T12:19:03.468Z</time></trkpt><trkpt lat="42.4643368" lon="14.1233801"><ele>149.0</ele><time>2026-05-03T12:19:04.466Z</time></trkpt><trkpt lat="42.4643924" lon="14.1235913"><ele>149.0</ele><time>2026-05-03T12:19:05.468Z</time></trkpt><trkpt lat="42.4644504" lon="14.1238046"><ele>149.0</ele><time>2026-05-03T12:19:06.473Z</time></trkpt><trkpt lat="42.4645313" lon="14.124017"><ele>149.0</ele><time>2026-05-03T12:19:07.463Z</time></trkpt><trkpt lat="42.4646163" lon="14.1242111"><ele>146.33333333333331</ele><time>2026-05-03T12:19:08.472Z</time></trkpt><trkpt lat="42.4647467" lon="14.1243901"><ele>143.66666666666666</ele><time>2026-05-03T12:19:09.482Z</time></trkpt><trkpt lat="42.4648676" lon="14.1245681"><ele>141.0</ele><time>2026-05-03T12:19:10.485Z</time></trkpt><trkpt lat="42.4649996" lon="14.1247408"><ele>143.33333333333334</ele><time>2026-05-03T12:19:11.483Z</time></trkpt><trkpt lat="42.4651187" lon="14.124907"><ele>145.66666666666669</ele><time>2026-05-03T12:19:12.467Z</time></trkpt><trkpt lat="42.4652183" lon="14.1251052"><ele>148.0</ele><time>2026-05-03T12:19:13.469Z</time></trkpt><trkpt lat="42.4653263" lon="14.1253027"><ele>148.0</ele><time>2026-05-03T12:19:14.478Z</time></trkpt><trkpt lat="42.4654415" lon="14.1254963"><ele>148.0</ele><time>2026-05-03T12:19:15.482Z</time></trkpt><trkpt lat="42.4655668" lon="14.125672"><ele>148.0</ele><time>2026-05-03T12:19:16.482Z</time></trkpt><trkpt lat="42.4656997" lon="14.125819"><ele>146.33333333333334</ele><time>2026-05-03T12:19:17.477Z</time></trkpt><trkpt lat="42.4658324" lon="14.1259558"><ele>144.66666666666666</ele><time>2026-05-03T12:19:18.477Z</time></trkpt><trkpt lat="42.4659636" lon="14.1260622"><ele>143.0</ele><time>2026-05-03T12:19:19.48Z</time></trkpt><trkpt lat="42.4661096" lon="14.126124"><ele>143.0</ele><time>2026-05-03T12:19:20.481Z</time></trkpt><trkpt lat="42.4662567" lon="14.126172"><ele>143.0</ele><time>2026-05-03T12:19:21.481Z</time></trkpt><trkpt lat="42.4664056" lon="14.1261711"><ele>143.0</ele><time>2026-05-03T12:19:22.481Z</time></trkpt><trkpt lat="42.466544" lon="14.1261783"><ele>143.0</ele><time>2026-05-03T12:19:23.487Z</time></trkpt><trkpt lat="42.4666711" lon="14.1262347"><ele>142.0</ele><time>2026-05-03T12:19:24.473Z</time></trkpt><trkpt lat="42.4667727" lon="14.1263278"><ele>141.0</ele><time>2026-05-03T12:19:25.473Z</time></trkpt><trkpt lat="42.4668596" lon="14.1264698"><ele>140.0</ele><time>2026-05-03T12:19:26.467Z</time></trkpt><trkpt lat="42.4669516" lon="14.1266367"><ele>139.0</ele><time>2026-05-03T12:19:27.462Z</time></trkpt><trkpt lat="42.4670426" lon="14.1268268"><ele>137.66666666666669</ele><time>2026-05-03T12:19:28.467Z</time></trkpt><trkpt lat="42.4671326" lon="14.1270384"><ele>136.33333333333334</ele><time>2026-05-03T12:19:29.47Z</time></trkpt><trkpt lat="42.4672197" lon="14.1272499"><ele>135.0</ele><time>2026-05-03T12:19:30.468Z</time></trkpt><trkpt lat="42.467319" lon="14.1274767"><ele>138.33333333333334</ele><time>2026-05-03T12:19:31.465Z</time></trkpt><trkpt lat="42.4673956" lon="14.1277104"><ele>141.66666666666669</ele><time>2026-05-03T12:19:32.474Z</time></trkpt><trkpt lat="42.4674727" lon="14.1279424"><ele>145.0</ele><time>2026-05-03T12:19:33.464Z</time></trkpt><trkpt lat="42.4675401" lon="14.1281759"><ele>145.5</ele><time>2026-05-03T12:19:34.471Z</time></trkpt><trkpt lat="42.4676018" lon="14.1283665"><ele>146.0</ele><time>2026-05-03T12:19:35.466Z</time></trkpt><trkpt lat="42.467663" lon="14.1285327"><ele>146.5</ele><time>2026-05-03T12:19:36.466Z</time></trkpt><trkpt lat="42.4677364" lon="14.1286738"><ele>147.0</ele><time>2026-05-03T12:19:37.48Z</time></trkpt><trkpt lat="42.4678408" lon="14.1287939"><ele>150.33333333333334</ele><time>2026-05-03T12:19:38.478Z</time></trkpt><trkpt lat="42.4679818" lon="14.1288798"><ele>153.66666666666669</ele><time>2026-05-03T12:19:39.474Z</time></trkpt><trkpt lat="42.4681359" lon="14.1289422"><ele>157.0</ele><time>2026-05-03T12:19:40.475Z</time></trkpt><trkpt lat="42.4683135" lon="14.1290011"><ele>157.0</ele><time>2026-05-03T12:19:41.48Z</time></trkpt><trkpt lat="42.4684845" lon="14.1290446"><ele>157.0</ele><time>2026-05-03T12:19:42.479Z</time></trkpt><trkpt lat="42.4686462" lon="14.1291079"><ele>157.0</ele><time>2026-05-03T12:19:43.475Z</time></trkpt><trkpt lat="42.4688152" lon="14.129168"><ele>154.66666666666669</ele><time>2026-05-03T12:19:44.478Z</time></trkpt><trkpt lat="42.4689605" lon="14.129213"><ele>152.33333333333334</ele><time>2026-05-03T12:19:45.478Z</time></trkpt><trkpt lat="42.4691093" lon="14.1292537"><ele>150.0</ele><time>2026-05-03T12:19:46.478Z</time></trkpt><trkpt lat="42.4692633" lon="14.1293053"><ele>150.0</ele><time>2026-05-03T12:19:47.475Z</time></trkpt><trkpt lat="42.4694059" lon="14.1294136"><ele>150.0</ele><time>2026-05-03T12:19:48.475Z</time></trkpt><trkpt lat="42.4695547" lon="14.1295442"><ele>150.0</ele><time>2026-05-03T12:19:49.472Z</time></trkpt><trkpt lat="42.4696909" lon="14.1297022"><ele>150.0</ele><time>2026-05-03T12:19:50.477Z</time></trkpt><trkpt lat="42.4698331" lon="14.1298563"><ele>150.0</ele><time>2026-05-03T12:19:51.475Z</time></trkpt><trkpt lat="42.4699732" lon="14.1300273"><ele>150.0</ele><time>2026-05-03T12:19:52.476Z</time></trkpt><trkpt lat="42.4701025" lon="14.130186"><ele>150.0</ele><time>2026-05-03T12:19:53.482Z</time></trkpt><trkpt lat="42.4702373" lon="14.130356"><ele>150.0</ele><time>2026-05-03T12:19:54.478Z</time></trkpt><trkpt lat="42.4703706" lon="14.1305179"><ele>150.0</ele><time>2026-05-03T12:19:55.476Z</time></trkpt><trkpt lat="42.470504" lon="14.130665"><ele>148.0</ele><time>2026-05-03T12:19:56.483Z</time></trkpt><trkpt lat="42.4706343" lon="14.1308151"><ele>146.0</ele><time>2026-05-03T12:19:57.477Z</time></trkpt><trkpt lat="42.4707579" lon="14.1309955"><ele>144.0</ele><time>2026-05-03T12:19:58.479Z</time></trkpt><trkpt lat="42.4708803" lon="14.1311482"><ele>144.0</ele><time>2026-05-03T12:19:59.478Z</time></trkpt><trkpt lat="42.4709969" lon="14.1312942"><ele>144.0</ele><time>2026-05-03T12:20:00.473Z</time></trkpt><trkpt lat="42.4711196" lon="14.1314093"><ele>144.0</ele><time>2026-05-03T12:20:01.476Z</time></trkpt><trkpt lat="42.471232" lon="14.1315358"><ele>143.5</ele><time>2026-05-03T12:20:02.477Z</time></trkpt><trkpt lat="42.4713421" lon="14.1316727"><ele>143.0</ele><time>2026-05-03T12:20:03.474Z</time></trkpt><trkpt lat="42.4714275" lon="14.1318059"><ele>142.5</ele><time>2026-05-03T12:20:04.477Z</time></trkpt><trkpt lat="42.4714808" lon="14.131954"><ele>142.0</ele><time>2026-05-03T12:20:05.476Z</time></trkpt><trkpt lat="42.4715219" lon="14.1321288"><ele>142.0</ele><time>2026-05-03T12:20:06.476Z</time></trkpt><trkpt lat="42.4715236" lon="14.1323192"><ele>142.0</ele><time>2026-05-03T12:20:07.474Z</time></trkpt><trkpt lat="42.4715237" lon="14.1325119"><ele>142.0</ele><time>2026-05-03T12:20:08.471Z</time></trkpt><trkpt lat="42.471541" lon="14.132719"><ele>142.0</ele><time>2026-05-03T12:20:09.467Z</time></trkpt><trkpt lat="42.4715718" lon="14.132891"><ele>143.5</ele><time>2026-05-03T12:20:10.471Z</time></trkpt><trkpt lat="42.471647" lon="14.1330614"><ele>145.0</ele><time>2026-05-03T12:20:11.478Z</time></trkpt><trkpt lat="42.471734" lon="14.1332048"><ele>146.5</ele><time>2026-05-03T12:20:12.471Z</time></trkpt><trkpt lat="42.4718245" lon="14.1333139"><ele>148.0</ele><time>2026-05-03T12:20:13.47Z</time></trkpt><trkpt lat="42.4719474" lon="14.1333998"><ele>148.0</ele><time>2026-05-03T12:20:14.47Z</time></trkpt><trkpt lat="42.4720811" lon="14.1334271"><ele>148.0</ele><time>2026-05-03T12:20:15.471Z</time></trkpt><trkpt lat="42.4722147" lon="14.1334226"><ele>148.0</ele><time>2026-05-03T12:20:16.47Z</time></trkpt><trkpt lat="42.4723525" lon="14.1334227"><ele>148.0</ele><time>2026-05-03T12:20:17.473Z</time></trkpt><trkpt lat="42.4724855" lon="14.1334388"><ele>150.5</ele><time>2026-05-03T12:20:18.474Z</time></trkpt><trkpt lat="42.4726104" lon="14.1334982"><ele>153.0</ele><time>2026-05-03T12:20:19.474Z</time></trkpt><trkpt lat="42.4727312" lon="14.1336103"><ele>155.5</ele><time>2026-05-03T12:20:20.469Z</time></trkpt><trkpt lat="42.472821" lon="14.1337889"><ele>158.0</ele><time>2026-05-03T12:20:21.469Z</time></trkpt><trkpt lat="42.4729308" lon="14.133906"><ele>160.66666666666666</ele><time>2026-05-03T12:20:22.468Z</time></trkpt><trkpt lat="42.4730665" lon="14.134025"><ele>163.33333333333334</ele><time>2026-05-03T12:20:23.473Z</time></trkpt><trkpt lat="42.4732101" lon="14.1341106"><ele>166.0</ele><time>2026-05-03T12:20:24.471Z</time></trkpt><trkpt lat="42.4733302" lon="14.1342338"><ele>166.0</ele><time>2026-05-03T12:20:25.461Z</time></trkpt><trkpt lat="42.4734386" lon="14.1343794"><ele>166.0</ele><time>2026-05-03T12:20:26.47Z</time></trkpt><trkpt lat="42.4735172" lon="14.134513"><ele>166.0</ele><time>2026-05-03T12:20:27.465Z</time></trkpt><trkpt lat="42.4735713" lon="14.1346573"><ele>166.0</ele><time>2026-05-03T12:20:28.471Z</time></trkpt><trkpt lat="42.4735923" lon="14.1348297"><ele>164.0</ele><time>2026-05-03T12:20:29.467Z</time></trkpt><trkpt lat="42.4736077" lon="14.1350192"><ele>162.0</ele><time>2026-05-03T12:20:30.466Z</time></trkpt><trkpt lat="42.4736454" lon="14.1351956"><ele>160.0</ele><time>2026-05-03T12:20:31.47Z</time></trkpt><trkpt lat="42.4736998" lon="14.1353444"><ele>158.0</ele><time>2026-05-03T12:20:32.464Z</time></trkpt><trkpt lat="42.4737728" lon="14.1354859"><ele>160.0</ele><time>2026-05-03T12:20:33.47Z</time></trkpt><trkpt lat="42.4738768" lon="14.1355773"><ele>162.0</ele><time>2026-05-03T12:20:34.474Z</time></trkpt><trkpt lat="42.4740113" lon="14.1356354"><ele>164.0</ele><time>2026-05-03T12:20:35.473Z</time></trkpt><trkpt lat="42.4741604" lon="14.1356797"><ele>166.0</ele><time>2026-05-03T12:20:36.477Z</time></trkpt><trkpt lat="42.474316" lon="14.1357384"><ele>166.0</ele><time>2026-05-03T12:20:37.466Z</time></trkpt><trkpt lat="42.4744615" lon="14.1358227"><ele>166.0</ele><time>2026-05-03T12:20:38.467Z</time></trkpt><trkpt lat="42.4745781" lon="14.1359875"><ele>166.0</ele><time>2026-05-03T12:20:39.472Z</time></trkpt><trkpt lat="42.4746895" lon="14.1361013"><ele>170.25</ele><time>2026-05-03T12:20:40.474Z</time></trkpt><trkpt lat="42.4748154" lon="14.1361828"><ele>174.5</ele><time>2026-05-03T12:20:41.463Z</time></trkpt><trkpt lat="42.4749562" lon="14.1362286"><ele>178.75</ele><time>2026-05-03T12:20:42.463Z</time></trkpt><trkpt lat="42.475087" lon="14.1362651"><ele>183.0</ele><time>2026-05-03T12:20:43.467Z</time></trkpt><trkpt lat="42.4752046" lon="14.1363632"><ele>183.0</ele><time>2026-05-03T12:20:44.464Z</time></trkpt><trkpt lat="42.47529" lon="14.1365158"><ele>183.0</ele><time>2026-05-03T12:20:45.461Z</time></trkpt><trkpt lat="42.4753467" lon="14.1367142"><ele>183.0</ele><time>2026-05-03T12:20:46.462Z</time></trkpt><trkpt lat="42.4754472" lon="14.1368326"><ele>183.0</ele><time>2026-05-03T12:20:47.464Z</time></trkpt><trkpt lat="42.4755967" lon="14.1369297"><ele>183.0</ele><time>2026-05-03T12:20:48.467Z</time></trkpt><trkpt lat="42.4757674" lon="14.137029"><ele>183.0</ele><time>2026-05-03T12:20:49.476Z</time></trkpt><trkpt lat="42.475918" lon="14.1371226"><ele>183.0</ele><time>2026-05-03T12:20:50.479Z</time></trkpt><trkpt lat="42.4760746" lon="14.1372081"><ele>183.0</ele><time>2026-05-03T12:20:51.482Z</time></trkpt><trkpt lat="42.4762247" lon="14.1372997"><ele>183.0</ele><time>2026-05-03T12:20:52.479Z</time></trkpt><trkpt lat="42.4763505" lon="14.1373768"><ele>183.0</ele><time>2026-05-03T12:20:53.473Z</time></trkpt><trkpt lat="42.4764807" lon="14.1374073"><ele>183.0</ele><time>2026-05-03T12:20:54.476Z</time></trkpt><trkpt lat="42.4766262" lon="14.1374425"><ele>182.75</ele><time>2026-05-03T12:20:55.47Z</time></trkpt><trkpt lat="42.4767669" lon="14.1374778"><ele>182.5</ele><time>2026-05-03T12:20:56.473Z</time></trkpt><trkpt lat="42.4769179" lon="14.1374901"><ele>182.25</ele><time>2026-05-03T12:20:57.471Z</time></trkpt><trkpt lat="42.4770597" lon="14.1375123"><ele>182.0</ele><time>2026-05-03T12:20:58.472Z</time></trkpt><trkpt lat="42.4771932" lon="14.1375167"><ele>182.0</ele><time>2026-05-03T12:20:59.471Z</time></trkpt><trkpt lat="42.4773214" lon="14.1375143"><ele>182.0</ele><time>2026-05-03T12:21:00.47Z</time></trkpt><trkpt lat="42.4774518" lon="14.1374608"><ele>182.0</ele><time>2026-05-03T12:21:01.468Z</time></trkpt><trkpt lat="42.4776069" lon="14.1374075"><ele>182.0</ele><time>2026-05-03T12:21:02.459Z</time></trkpt><trkpt lat="42.4777617" lon="14.1373492"><ele>180.0</ele><time>2026-05-03T12:21:03.454Z</time></trkpt><trkpt lat="42.4779002" lon="14.1372713"><ele>178.0</ele><time>2026-05-03T12:21:04.456Z</time></trkpt><trkpt lat="42.478035" lon="14.1372297"><ele>176.0</ele><time>2026-05-03T12:21:05.457Z</time></trkpt><trkpt lat="42.4781642" lon="14.1372044"><ele>174.0</ele><time>2026-05-03T12:21:06.455Z</time></trkpt><trkpt lat="42.4783017" lon="14.1372361"><ele>172.5</ele><time>2026-05-03T12:21:07.453Z</time></trkpt><trkpt lat="42.4784404" lon="14.1372494"><ele>171.0</ele><time>2026-05-03T12:21:08.457Z</time></trkpt><trkpt lat="42.4785779" lon="14.1372893"><ele>169.5</ele><time>2026-05-03T12:21:09.457Z</time></trkpt><trkpt lat="42.4787096" lon="14.1373225"><ele>168.0</ele><time>2026-05-03T12:21:10.453Z</time></trkpt><trkpt lat="42.4788423" lon="14.1373088"><ele>167.75</ele><time>2026-05-03T12:21:11.456Z</time></trkpt><trkpt lat="42.4789739" lon="14.1372674"><ele>167.5</ele><time>2026-05-03T12:21:12.459Z</time></trkpt><trkpt lat="42.4790801" lon="14.137202"><ele>167.25</ele><time>2026-05-03T12:21:13.457Z</time></trkpt><trkpt lat="42.4791793" lon="14.1371074"><ele>167.0</ele><time>2026-05-03T12:21:14.458Z</time></trkpt><trkpt lat="42.4793015" lon="14.1369601"><ele>167.0</ele><time>2026-05-03T12:21:15.454Z</time></trkpt><trkpt lat="42.479403" lon="14.13679"><ele>167.0</ele><time>2026-05-03T12:21:16.454Z</time></trkpt><trkpt lat="42.4794851" lon="14.1366217"><ele>167.0</ele><time>2026-05-03T12:21:17.454Z</time></trkpt><trkpt lat="42.4795505" lon="14.1364477"><ele>166.5</ele><time>2026-05-03T12:21:18.453Z</time></trkpt><trkpt lat="42.4796434" lon="14.1363028"><ele>166.0</ele><time>2026-05-03T12:21:19.449Z</time></trkpt><trkpt lat="42.4797521" lon="14.1361907"><ele>165.5</ele><time>2026-05-03T12:21:20.455Z</time></trkpt><trkpt lat="42.4798668" lon="14.136045"><ele>165.0</ele><time>2026-05-03T12:21:21.455Z</time></trkpt><trkpt lat="42.4799493" lon="14.1358758"><ele>163.0</ele><time>2026-05-03T12:21:22.451Z</time></trkpt><trkpt lat="42.4800136" lon="14.1356968"><ele>161.0</ele><time>2026-05-03T12:21:23.458Z</time></trkpt><trkpt lat="42.4800503" lon="14.135523"><ele>159.0</ele><time>2026-05-03T12:21:24.456Z</time></trkpt><trkpt lat="42.4800793" lon="14.1353488"><ele>157.0</ele><time>2026-05-03T12:21:25.46Z</time></trkpt><trkpt lat="42.4801281" lon="14.1351673"><ele>157.0</ele><time>2026-05-03T12:21:26.449Z</time></trkpt><trkpt lat="42.480216" lon="14.1350244"><ele>157.0</ele><time>2026-05-03T12:21:27.453Z</time></trkpt><trkpt lat="42.4803241" lon="14.1348941"><ele>157.0</ele><time>2026-05-03T12:21:28.458Z</time></trkpt><trkpt lat="42.4804406" lon="14.1347912"><ele>157.0</ele><time>2026-05-03T12:21:29.454Z</time></trkpt><trkpt lat="42.4805507" lon="14.1347168"><ele>157.25</ele><time>2026-05-03T12:21:30.462Z</time></trkpt><trkpt lat="42.4806764" lon="14.1347012"><ele>157.5</ele><time>2026-05-03T12:21:31.46Z</time></trkpt><trkpt lat="42.4808035" lon="14.1347546"><ele>157.75</ele><time>2026-05-03T12:21:32.455Z</time></trkpt><trkpt lat="42.4809235" lon="14.1348473"><ele>158.0</ele><time>2026-05-03T12:21:33.458Z</time></trkpt><trkpt lat="42.4810368" lon="14.1349485"><ele>158.0</ele><time>2026-05-03T12:21:34.46Z</time></trkpt><trkpt lat="42.4811365" lon="14.1350777"><ele>158.0</ele><time>2026-05-03T12:21:35.463Z</time></trkpt><trkpt lat="42.4812273" lon="14.1352535"><ele>158.0</ele><time>2026-05-03T12:21:36.456Z</time></trkpt><trkpt lat="42.4812929" lon="14.1354886"><ele>154.33333333333331</ele><time>2026-05-03T12:21:37.466Z</time></trkpt><trkpt lat="42.4813449" lon="14.1357113"><ele>150.66666666666666</ele><time>2026-05-03T12:21:38.468Z</time></trkpt><trkpt lat="42.4814105" lon="14.1359"><ele>147.0</ele><time>2026-05-03T12:21:39.474Z</time></trkpt><trkpt lat="42.4814694" lon="14.1360665"><ele>147.0</ele><time>2026-05-03T12:21:40.469Z</time></trkpt><trkpt lat="42.4814938" lon="14.1362032"><ele>147.0</ele><time>2026-05-03T12:21:41.471Z</time></trkpt><trkpt lat="42.4815668" lon="14.1363514"><ele>147.0</ele><time>2026-05-03T12:21:42.467Z</time></trkpt><trkpt lat="42.4816364" lon="14.1364801"><ele>147.0</ele><time>2026-05-03T12:21:43.464Z</time></trkpt><trkpt lat="42.4817086" lon="14.1365609"><ele>147.0</ele><time>2026-05-03T12:21:44.466Z</time></trkpt><trkpt lat="42.4818042" lon="14.1366197"><ele>147.0</ele><time>2026-05-03T12:21:45.463Z</time></trkpt><trkpt lat="42.4819149" lon="14.1366103"><ele>147.0</ele><time>2026-05-03T12:21:46.463Z</time></trkpt><trkpt lat="42.4820145" lon="14.1365326"><ele>147.0</ele><time>2026-05-03T12:21:47.466Z</time></trkpt><trkpt lat="42.482102" lon="14.1364134"><ele>147.0</ele><time>2026-05-03T12:21:48.462Z</time></trkpt><trkpt lat="42.4821749" lon="14.1362408"><ele>145.33333333333334</ele><time>2026-05-03T12:21:49.457Z</time></trkpt><trkpt lat="42.4822362" lon="14.1360456"><ele>143.66666666666669</ele><time>2026-05-03T12:21:50.451Z</time></trkpt><trkpt lat="42.4822704" lon="14.1357708"><ele>142.0</ele><time>2026-05-03T12:21:51.461Z</time></trkpt><trkpt lat="42.4823182" lon="14.135512"><ele>141.0</ele><time>2026-05-03T12:21:52.468Z</time></trkpt><trkpt lat="42.4823605" lon="14.1353028"><ele>140.0</ele><time>2026-05-03T12:21:53.462Z</time></trkpt><trkpt lat="42.4824" lon="14.1350889"><ele>139.0</ele><time>2026-05-03T12:21:54.464Z</time></trkpt><trkpt lat="42.4824459" lon="14.1348713"><ele>138.5</ele><time>2026-05-03T12:21:55.465Z</time></trkpt><trkpt lat="42.4824936" lon="14.1346688"><ele>138.0</ele><time>2026-05-03T12:21:56.462Z</time></trkpt><trkpt lat="42.4825413" lon="14.1344735"><ele>137.5</ele><time>2026-05-03T12:21:57.462Z</time></trkpt><trkpt lat="42.4825693" lon="14.1342887"><ele>137.0</ele><time>2026-05-03T12:21:58.466Z</time></trkpt><trkpt lat="42.4825939" lon="14.1341101"><ele>136.0</ele><time>2026-05-03T12:21:59.465Z</time></trkpt><trkpt lat="42.4826234" lon="14.1339506"><ele>135.0</ele><time>2026-05-03T12:22:00.464Z</time></trkpt><trkpt lat="42.4826685" lon="14.1337827"><ele>134.0</ele><time>2026-05-03T12:22:01.462Z</time></trkpt><trkpt lat="42.4827191" lon="14.133614"><ele>133.0</ele><time>2026-05-03T12:22:02.465Z</time></trkpt><trkpt lat="42.4827676" lon="14.1334604"><ele>133.0</ele><time>2026-05-03T12:22:03.462Z</time></trkpt><trkpt lat="42.4828311" lon="14.1333272"><ele>133.0</ele><time>2026-05-03T12:22:04.457Z</time></trkpt><trkpt lat="42.482943" lon="14.1332379"><ele>133.0</ele><time>2026-05-03T12:22:05.453Z</time></trkpt><trkpt lat="42.4830728" lon="14.1331774"><ele>133.0</ele><time>2026-05-03T12:22:06.46Z</time></trkpt><trkpt lat="42.4832176" lon="14.1331126"><ele>131.66666666666669</ele><time>2026-05-03T12:22:07.464Z</time></trkpt><trkpt lat="42.4833895" lon="14.1330543"><ele>130.33333333333334</ele><time>2026-05-03T12:22:08.463Z</time></trkpt><trkpt lat="42.4835562" lon="14.1329686"><ele>129.0</ele><time>2026-05-03T12:22:09.466Z</time></trkpt><trkpt lat="42.4837219" lon="14.1328879"><ele>127.66666666666666</ele><time>2026-05-03T12:22:10.475Z</time></trkpt><trkpt lat="42.4838948" lon="14.1328125"><ele>126.33333333333333</ele><time>2026-05-03T12:22:11.471Z</time></trkpt><trkpt lat="42.4840618" lon="14.1327368"><ele>125.0</ele><time>2026-05-03T12:22:12.467Z</time></trkpt><trkpt lat="42.4842107" lon="14.1326492"><ele>125.0</ele><time>2026-05-03T12:22:13.467Z</time></trkpt><trkpt lat="42.4843523" lon="14.1325841"><ele>125.0</ele><time>2026-05-03T12:22:14.467Z</time></trkpt><trkpt lat="42.4844895" lon="14.1325239"><ele>125.0</ele><time>2026-05-03T12:22:15.465Z</time></trkpt><trkpt lat="42.4846165" lon="14.1324642"><ele>125.0</ele><time>2026-05-03T12:22:16.466Z</time></trkpt><trkpt lat="42.4847336" lon="14.1324054"><ele>123.5</ele><time>2026-05-03T12:22:17.463Z</time></trkpt><trkpt lat="42.4848574" lon="14.132364"><ele>122.0</ele><time>2026-05-03T12:22:18.459Z</time></trkpt><trkpt lat="42.4849866" lon="14.1323278"><ele>120.5</ele><time>2026-05-03T12:22:19.453Z</time></trkpt><trkpt lat="42.485135" lon="14.1323368"><ele>119.0</ele><time>2026-05-03T12:22:20.46Z</time></trkpt><trkpt lat="42.4852682" lon="14.1323866"><ele>119.33333333333333</ele><time>2026-05-03T12:22:21.465Z</time></trkpt><trkpt lat="42.4853935" lon="14.1324867"><ele>119.66666666666666</ele><time>2026-05-03T12:22:22.464Z</time></trkpt><trkpt lat="42.4855149" lon="14.1326109"><ele>120.0</ele><time>2026-05-03T12:22:23.463Z</time></trkpt><trkpt lat="42.4856328" lon="14.1327594"><ele>119.33333333333334</ele><time>2026-05-03T12:22:24.471Z</time></trkpt><trkpt lat="42.4857421" lon="14.1329049"><ele>118.66666666666667</ele><time>2026-05-03T12:22:25.474Z</time></trkpt><trkpt lat="42.4858513" lon="14.1330572"><ele>118.0</ele><time>2026-05-03T12:22:26.469Z</time></trkpt><trkpt lat="42.4859726" lon="14.1331975"><ele>117.75</ele><time>2026-05-03T12:22:27.475Z</time></trkpt><trkpt lat="42.4860778" lon="14.1333378"><ele>117.5</ele><time>2026-05-03T12:22:28.476Z</time></trkpt><trkpt lat="42.4861921" lon="14.1334713"><ele>117.25</ele><time>2026-05-03T12:22:29.468Z</time></trkpt><trkpt lat="42.4863037" lon="14.1335895"><ele>117.0</ele><time>2026-05-03T12:22:30.475Z</time></trkpt><trkpt lat="42.4863823" lon="14.1337164"><ele>117.0</ele><time>2026-05-03T12:22:31.469Z</time></trkpt><trkpt lat="42.4864656" lon="14.1338344"><ele>117.0</ele><time>2026-05-03T12:22:32.467Z</time></trkpt><trkpt lat="42.4865524" lon="14.1339458"><ele>117.0</ele><time>2026-05-03T12:22:33.468Z</time></trkpt><trkpt lat="42.4866201" lon="14.1340553"><ele>117.0</ele><time>2026-05-03T12:22:34.465Z</time></trkpt><trkpt lat="42.486651" lon="14.1341989"><ele>117.0</ele><time>2026-05-03T12:22:35.461Z</time></trkpt><trkpt lat="42.4866888" lon="14.1343845"><ele>117.0</ele><time>2026-05-03T12:22:36.457Z</time></trkpt><trkpt lat="42.4867184" lon="14.1346206"><ele>117.0</ele><time>2026-05-03T12:22:37.463Z</time></trkpt><trkpt lat="42.4867502" lon="14.134847"><ele>117.0</ele><time>2026-05-03T12:22:38.466Z</time></trkpt><trkpt lat="42.4867943" lon="14.1350748"><ele>117.0</ele><time>2026-05-03T12:22:39.468Z</time></trkpt><trkpt lat="42.4868354" lon="14.1353199"><ele>117.0</ele><time>2026-05-03T12:22:40.466Z</time></trkpt><trkpt lat="42.4868701" lon="14.1355765"><ele>116.66666666666666</ele><time>2026-05-03T12:22:41.471Z</time></trkpt><trkpt lat="42.4869067" lon="14.1357924"><ele>116.33333333333333</ele><time>2026-05-03T12:22:42.467Z</time></trkpt><trkpt lat="42.4869694" lon="14.1360423"><ele>116.0</ele><time>2026-05-03T12:22:43.465Z</time></trkpt><trkpt lat="42.4870543" lon="14.1362533"><ele>117.0</ele><time>2026-05-03T12:22:44.471Z</time></trkpt><trkpt lat="42.4871402" lon="14.1364507"><ele>118.0</ele><time>2026-05-03T12:22:45.466Z</time></trkpt><trkpt lat="42.4872198" lon="14.1366288"><ele>119.0</ele><time>2026-05-03T12:22:46.467Z</time></trkpt><trkpt lat="42.4872944" lon="14.1368178"><ele>120.25</ele><time>2026-05-03T12:22:47.465Z</time></trkpt><trkpt lat="42.4873567" lon="14.1370033"><ele>121.5</ele><time>2026-05-03T12:22:48.476Z</time></trkpt><trkpt lat="42.4874367" lon="14.137177"><ele>122.75</ele><time>2026-05-03T12:22:49.47Z</time></trkpt><trkpt lat="42.4874835" lon="14.1373038"><ele>124.0</ele><time>2026-05-03T12:22:50.474Z</time></trkpt><trkpt lat="42.4875287" lon="14.1374681"><ele>124.0</ele><time>2026-05-03T12:22:51.473Z</time></trkpt><trkpt lat="42.4875828" lon="14.1376496"><ele>124.0</ele><time>2026-05-03T12:22:52.467Z</time></trkpt><trkpt lat="42.4876061" lon="14.13783"><ele>124.0</ele><time>2026-05-03T12:22:53.473Z</time></trkpt><trkpt lat="42.4876275" lon="14.1380153"><ele>124.0</ele><time>2026-05-03T12:22:54.462Z</time></trkpt><trkpt lat="42.4876187" lon="14.138176"><ele>124.25</ele><time>2026-05-03T12:22:55.458Z</time></trkpt><trkpt lat="42.4875889" lon="14.1383257"><ele>124.5</ele><time>2026-05-03T12:22:56.46Z</time></trkpt><trkpt lat="42.4875824" lon="14.1384668"><ele>124.75</ele><time>2026-05-03T12:22:57.464Z</time></trkpt><trkpt lat="42.4875943" lon="14.1386261"><ele>125.0</ele><time>2026-05-03T12:22:58.47Z</time></trkpt><trkpt lat="42.4876316" lon="14.1387963"><ele>125.0</ele><time>2026-05-03T12:22:59.468Z</time></trkpt><trkpt lat="42.4876989" lon="14.1389558"><ele>125.0</ele><time>2026-05-03T12:23:00.463Z</time></trkpt><trkpt lat="42.4877889" lon="14.1391064"><ele>125.0</ele><time>2026-05-03T12:23:01.464Z</time></trkpt><trkpt lat="42.4879173" lon="14.1392321"><ele>125.0</ele><time>2026-05-03T12:23:02.47Z</time></trkpt><trkpt lat="42.4880514" lon="14.1393561"><ele>128.0</ele><time>2026-05-03T12:23:03.465Z</time></trkpt><trkpt lat="42.488207" lon="14.139428"><ele>131.0</ele><time>2026-05-03T12:23:04.469Z</time></trkpt><trkpt lat="42.4883694" lon="14.1394755"><ele>134.0</ele><time>2026-05-03T12:23:05.467Z</time></trkpt><trkpt lat="42.4885166" lon="14.1394763"><ele>134.0</ele><time>2026-05-03T12:23:06.464Z</time></trkpt><trkpt lat="42.4886421" lon="14.1394755"><ele>134.0</ele><time>2026-05-03T12:23:07.467Z</time></trkpt><trkpt lat="42.4887376" lon="14.1394879"><ele>134.0</ele><time>2026-05-03T12:23:08.466Z</time></trkpt><trkpt lat="42.4888317" lon="14.1395003"><ele>134.0</ele><time>2026-05-03T12:23:09.466Z</time></trkpt><trkpt lat="42.4889127" lon="14.1395269"><ele>134.0</ele><time>2026-05-03T12:23:10.467Z</time></trkpt><trkpt lat="42.4889963" lon="14.1395482"><ele>134.42857142857144</ele><time>2026-05-03T12:23:11.465Z</time></trkpt><trkpt lat="42.4890758" lon="14.1395831"><ele>134.85714285714286</ele><time>2026-05-03T12:23:12.461Z</time></trkpt><trkpt lat="42.489136" lon="14.1396437"><ele>135.28571428571428</ele><time>2026-05-03T12:23:13.469Z</time></trkpt><trkpt lat="42.4891936" lon="14.1396804"><ele>135.71428571428572</ele><time>2026-05-03T12:23:14.472Z</time></trkpt><trkpt lat="42.4892588" lon="14.1397148"><ele>136.14285714285714</ele><time>2026-05-03T12:23:15.467Z</time></trkpt><trkpt lat="42.4893331" lon="14.139718"><ele>136.57142857142858</ele><time>2026-05-03T12:23:16.464Z</time></trkpt><trkpt lat="42.489403" lon="14.1396786"><ele>137.0</ele><time>2026-05-03T12:23:17.464Z</time></trkpt><trkpt lat="42.4894699" lon="14.1396049"><ele>137.0</ele><time>2026-05-03T12:23:18.463Z</time></trkpt><trkpt lat="42.4895486" lon="14.139531"><ele>137.0</ele><time>2026-05-03T12:23:19.465Z</time></trkpt><trkpt lat="42.4896553" lon="14.1395009"><ele>137.0</ele><time>2026-05-03T12:23:20.462Z</time></trkpt><trkpt lat="42.4897787" lon="14.1394943"><ele>137.0</ele><time>2026-05-03T12:23:21.466Z</time></trkpt><trkpt lat="42.4899149" lon="14.1394986"><ele>138.33333333333331</ele><time>2026-05-03T12:23:22.467Z</time></trkpt><trkpt lat="42.4900555" lon="14.1395073"><ele>139.66666666666666</ele><time>2026-05-03T12:23:23.465Z</time></trkpt><trkpt lat="42.4902183" lon="14.13951"><ele>141.0</ele><time>2026-05-03T12:23:24.458Z</time></trkpt><trkpt lat="42.4903795" lon="14.1395397"><ele>143.0</ele><time>2026-05-03T12:23:25.455Z</time></trkpt><trkpt lat="42.4905086" lon="14.1395516"><ele>145.0</ele><time>2026-05-03T12:23:26.451Z</time></trkpt><trkpt lat="42.4905966" lon="14.1395744"><ele>147.0</ele><time>2026-05-03T12:23:27.444Z</time></trkpt><trkpt lat="42.4907094" lon="14.1395946"><ele>149.0</ele><time>2026-05-03T12:23:28.461Z</time></trkpt><trkpt lat="42.4908021" lon="14.1396193"><ele>151.0</ele><time>2026-05-03T12:23:29.456Z</time></trkpt><trkpt lat="42.4908647" lon="14.1396557"><ele>151.0</ele><time>2026-05-03T12:23:30.452Z</time></trkpt><trkpt lat="42.4909214" lon="14.1397196"><ele>151.0</ele><time>2026-05-03T12:23:31.459Z</time></trkpt><trkpt lat="42.4909536" lon="14.139793"><ele>151.0</ele><time>2026-05-03T12:23:32.461Z</time></trkpt><trkpt lat="42.4909562" lon="14.1399083"><ele>151.0</ele><time>2026-05-03T12:23:33.452Z</time></trkpt><trkpt lat="42.4909453" lon="14.1400466"><ele>151.0</ele><time>2026-05-03T12:23:34.452Z</time></trkpt><trkpt lat="42.4909292" lon="14.1401905"><ele>151.0</ele><time>2026-05-03T12:23:35.45Z</time></trkpt><trkpt lat="42.4909162" lon="14.1403448"><ele>151.8</ele><time>2026-05-03T12:23:36.449Z</time></trkpt><trkpt lat="42.4909082" lon="14.1404892"><ele>152.6</ele><time>2026-05-03T12:23:37.445Z</time></trkpt><trkpt lat="42.4909026" lon="14.1406293"><ele>153.4</ele><time>2026-05-03T12:23:38.448Z</time></trkpt><trkpt lat="42.4909041" lon="14.1407629"><ele>154.2</ele><time>2026-05-03T12:23:39.451Z</time></trkpt><trkpt lat="42.4909233" lon="14.1408837"><ele>155.0</ele><time>2026-05-03T12:23:40.448Z</time></trkpt><trkpt lat="42.4909659" lon="14.1409723"><ele>155.0</ele><time>2026-05-03T12:23:41.455Z</time></trkpt><trkpt lat="42.4910432" lon="14.140978"><ele>155.0</ele><time>2026-05-03T12:23:42.455Z</time></trkpt><trkpt lat="42.4911183" lon="14.1409214"><ele>155.0</ele><time>2026-05-03T12:23:43.457Z</time></trkpt><trkpt lat="42.4911756" lon="14.1408209"><ele>155.0</ele><time>2026-05-03T12:23:44.457Z</time></trkpt><trkpt lat="42.4912315" lon="14.1407019"><ele>155.0</ele><time>2026-05-03T12:23:45.453Z</time></trkpt><trkpt lat="42.4912969" lon="14.1405913"><ele>156.0</ele><time>2026-05-03T12:23:46.453Z</time></trkpt><trkpt lat="42.4913537" lon="14.1404836"><ele>157.0</ele><time>2026-05-03T12:23:47.448Z</time></trkpt><trkpt lat="42.4913933" lon="14.1403926"><ele>158.0</ele><time>2026-05-03T12:23:48.446Z</time></trkpt><trkpt lat="42.4914315" lon="14.1403176"><ele>159.0</ele><time>2026-05-03T12:23:49.454Z</time></trkpt><trkpt lat="42.4915448" lon="14.1403339"><ele>160.0</ele><time>2026-05-03T12:23:51.452Z</time></trkpt><trkpt lat="42.4916048" lon="14.1403967"><ele>161.0</ele><time>2026-05-03T12:23:52.46Z</time></trkpt><trkpt lat="42.4916511" lon="14.1404936"><ele>161.0</ele><time>2026-05-03T12:23:53.461Z</time></trkpt><trkpt lat="42.4916849" lon="14.1406161"><ele>161.0</ele><time>2026-05-03T12:23:54.465Z</time></trkpt><trkpt lat="42.4917167" lon="14.1407498"><ele>161.0</ele><time>2026-05-03T12:23:55.466Z</time></trkpt><trkpt lat="42.4917465" lon="14.1409027"><ele>161.0</ele><time>2026-05-03T12:23:56.462Z</time></trkpt><trkpt lat="42.4917698" lon="14.1410609"><ele>161.0</ele><time>2026-05-03T12:23:57.466Z</time></trkpt><trkpt lat="42.4917862" lon="14.1412095"><ele>161.0</ele><time>2026-05-03T12:23:58.469Z</time></trkpt><trkpt lat="42.4917983" lon="14.1413464"><ele>161.0</ele><time>2026-05-03T12:23:59.47Z</time></trkpt><trkpt lat="42.4917984" lon="14.1414853"><ele>161.0</ele><time>2026-05-03T12:24:00.465Z</time></trkpt><trkpt lat="42.4917743" lon="14.1416339"><ele>161.0</ele><time>2026-05-03T12:24:01.465Z</time></trkpt><trkpt lat="42.4917364" lon="14.1418051"><ele>161.0</ele><time>2026-05-03T12:24:02.467Z</time></trkpt><trkpt lat="42.4916766" lon="14.1419667"><ele>161.0</ele><time>2026-05-03T12:24:03.455Z</time></trkpt><trkpt lat="42.4916205" lon="14.1421251"><ele>161.0</ele><time>2026-05-03T12:24:04.45Z</time></trkpt><trkpt lat="42.4915734" lon="14.1422786"><ele>161.0</ele><time>2026-05-03T12:24:05.457Z</time></trkpt><trkpt lat="42.4915573" lon="14.1424283"><ele>161.0</ele><time>2026-05-03T12:24:06.453Z</time></trkpt><trkpt lat="42.4915809" lon="14.1425602"><ele>160.20000000000002</ele><time>2026-05-03T12:24:07.44Z</time></trkpt><trkpt lat="42.4916429" lon="14.1426653"><ele>159.4</ele><time>2026-05-03T12:24:08.456Z</time></trkpt><trkpt lat="42.4917189" lon="14.1427807"><ele>158.6</ele><time>2026-05-03T12:24:09.452Z</time></trkpt><trkpt lat="42.4917598" lon="14.142916"><ele>157.8</ele><time>2026-05-03T12:24:10.444Z</time></trkpt><trkpt lat="42.4917849" lon="14.1430556"><ele>157.0</ele><time>2026-05-03T12:24:11.456Z</time></trkpt><trkpt lat="42.4917477" lon="14.1431659"><ele>156.2</ele><time>2026-05-03T12:24:12.438Z</time></trkpt><trkpt lat="42.4916739" lon="14.1432708"><ele>155.39999999999998</ele><time>2026-05-03T12:24:13.451Z</time></trkpt><trkpt lat="42.4916072" lon="14.1433779"><ele>154.60000000000002</ele><time>2026-05-03T12:24:14.451Z</time></trkpt><trkpt lat="42.4915645" lon="14.1434939"><ele>153.8</ele><time>2026-05-03T12:24:15.45Z</time></trkpt><trkpt lat="42.4915731" lon="14.1436188"><ele>153.0</ele><time>2026-05-03T12:24:16.45Z</time></trkpt><trkpt lat="42.4916221" lon="14.1437579"><ele>153.0</ele><time>2026-05-03T12:24:17.442Z</time></trkpt><trkpt lat="42.4916895" lon="14.1438952"><ele>153.0</ele><time>2026-05-03T12:24:18.444Z</time></trkpt><trkpt lat="42.491755" lon="14.1440257"><ele>153.0</ele><time>2026-05-03T12:24:19.443Z</time></trkpt><trkpt lat="42.4918307" lon="14.1441419"><ele>153.0</ele><time>2026-05-03T12:24:20.443Z</time></trkpt><trkpt lat="42.4919287" lon="14.1442404"><ele>154.0</ele><time>2026-05-03T12:24:21.449Z</time></trkpt><trkpt lat="42.4920565" lon="14.1443061"><ele>155.0</ele><time>2026-05-03T12:24:22.451Z</time></trkpt><trkpt lat="42.4922027" lon="14.1443538"><ele>156.0</ele><time>2026-05-03T12:24:23.451Z</time></trkpt><trkpt lat="42.4923527" lon="14.1444074"><ele>157.0</ele><time>2026-05-03T12:24:24.453Z</time></trkpt><trkpt lat="42.4925427" lon="14.14442"><ele>150.75</ele><time>2026-05-03T12:24:25.449Z</time></trkpt><trkpt lat="42.4926684" lon="14.1444994"><ele>144.5</ele><time>2026-05-03T12:24:26.449Z</time></trkpt><trkpt lat="42.4927868" lon="14.1445651"><ele>138.25</ele><time>2026-05-03T12:24:27.452Z</time></trkpt><trkpt lat="42.4929142" lon="14.1446217"><ele>132.0</ele><time>2026-05-03T12:24:28.455Z</time></trkpt><trkpt lat="42.4930588" lon="14.1446749"><ele>133.25</ele><time>2026-05-03T12:24:29.453Z</time></trkpt><trkpt lat="42.4931643" lon="14.1447737"><ele>134.5</ele><time>2026-05-03T12:24:30.447Z</time></trkpt><trkpt lat="42.4932731" lon="14.144905"><ele>135.75</ele><time>2026-05-03T12:24:31.448Z</time></trkpt><trkpt lat="42.4933626" lon="14.1450584"><ele>137.0</ele><time>2026-05-03T12:24:32.448Z</time></trkpt><trkpt lat="42.4934498" lon="14.1451845"><ele>137.0</ele><time>2026-05-03T12:24:33.451Z</time></trkpt><trkpt lat="42.4935184" lon="14.1452593"><ele>137.0</ele><time>2026-05-03T12:24:34.447Z</time></trkpt><trkpt lat="42.4936083" lon="14.1452857"><ele>137.0</ele><time>2026-05-03T12:24:35.454Z</time></trkpt><trkpt lat="42.4937177" lon="14.1452468"><ele>137.0</ele><time>2026-05-03T12:24:36.451Z</time></trkpt><trkpt lat="42.4937986" lon="14.1452192"><ele>137.0</ele><time>2026-05-03T12:24:37.451Z</time></trkpt><trkpt lat="42.4938636" lon="14.1451227"><ele>135.0</ele><time>2026-05-03T12:24:38.45Z</time></trkpt><trkpt lat="42.4939311" lon="14.1449458"><ele>133.0</ele><time>2026-05-03T12:24:39.441Z</time></trkpt><trkpt lat="42.4939857" lon="14.1447339"><ele>131.0</ele><time>2026-05-03T12:24:40.446Z</time></trkpt><trkpt lat="42.4940586" lon="14.1444917"><ele>127.75</ele><time>2026-05-03T12:24:41.452Z</time></trkpt><trkpt lat="42.4941106" lon="14.1443047"><ele>124.5</ele><time>2026-05-03T12:24:42.452Z</time></trkpt><trkpt lat="42.4941418" lon="14.1441507"><ele>121.25</ele><time>2026-05-03T12:24:43.452Z</time></trkpt><trkpt lat="42.4941629" lon="14.1440259"><ele>118.0</ele><time>2026-05-03T12:24:44.457Z</time></trkpt><trkpt lat="42.494272" lon="14.1439135"><ele>114.5</ele><time>2026-05-03T12:24:45.45Z</time></trkpt><trkpt lat="42.4943935" lon="14.1438564"><ele>111.0</ele><time>2026-05-03T12:24:46.445Z</time></trkpt><trkpt lat="42.4945004" lon="14.1437652"><ele>107.5</ele><time>2026-05-03T12:24:47.447Z</time></trkpt><trkpt lat="42.4946742" lon="14.1437568"><ele>104.0</ele><time>2026-05-03T12:24:48.454Z</time></trkpt><trkpt lat="42.494849" lon="14.1437532"><ele>104.0</ele><time>2026-05-03T12:24:49.446Z</time></trkpt><trkpt lat="42.4950147" lon="14.1437708"><ele>104.0</ele><time>2026-05-03T12:24:50.452Z</time></trkpt><trkpt lat="42.4951782" lon="14.1438116"><ele>104.0</ele><time>2026-05-03T12:24:51.45Z</time></trkpt><trkpt lat="42.4953273" lon="14.1438006"><ele>105.75</ele><time>2026-05-03T12:24:52.458Z</time></trkpt><trkpt lat="42.4954614" lon="14.1437635"><ele>107.5</ele><time>2026-05-03T12:24:53.465Z</time></trkpt><trkpt lat="42.4955893" lon="14.1437045"><ele>109.25</ele><time>2026-05-03T12:24:54.457Z</time></trkpt><trkpt lat="42.4957031" lon="14.1435997"><ele>111.0</ele><time>2026-05-03T12:24:55.459Z</time></trkpt><trkpt lat="42.4958523" lon="14.1435227"><ele>111.0</ele><time>2026-05-03T12:24:56.466Z</time></trkpt><trkpt lat="42.4959773" lon="14.1434094"><ele>111.0</ele><time>2026-05-03T12:24:57.461Z</time></trkpt><trkpt lat="42.4960941" lon="14.1433104"><ele>111.0</ele><time>2026-05-03T12:24:58.462Z</time></trkpt><trkpt lat="42.4962145" lon="14.1431952"><ele>111.0</ele><time>2026-05-03T12:24:59.465Z</time></trkpt><trkpt lat="42.49634" lon="14.1430867"><ele>108.25</ele><time>2026-05-03T12:25:00.47Z</time></trkpt><trkpt lat="42.4964496" lon="14.1429823"><ele>105.5</ele><time>2026-05-03T12:25:01.463Z</time></trkpt><trkpt lat="42.496561" lon="14.1428945"><ele>102.75</ele><time>2026-05-03T12:25:02.468Z</time></trkpt><trkpt lat="42.4966567" lon="14.1428096"><ele>100.0</ele><time>2026-05-03T12:25:03.464Z</time></trkpt><trkpt lat="42.4967595" lon="14.1427578"><ele>100.0</ele><time>2026-05-03T12:25:04.466Z</time></trkpt><trkpt lat="42.4968623" lon="14.1426559"><ele>100.0</ele><time>2026-05-03T12:25:05.467Z</time></trkpt><trkpt lat="42.4969544" lon="14.1425729"><ele>100.0</ele><time>2026-05-03T12:25:06.47Z</time></trkpt><trkpt lat="42.4970508" lon="14.1424591"><ele>100.0</ele><time>2026-05-03T12:25:07.466Z</time></trkpt><trkpt lat="42.4971394" lon="14.1423582"><ele>96.25</ele><time>2026-05-03T12:25:08.463Z</time></trkpt><trkpt lat="42.4972256" lon="14.1422489"><ele>92.5</ele><time>2026-05-03T12:25:09.469Z</time></trkpt><trkpt lat="42.4973123" lon="14.1421416"><ele>88.75</ele><time>2026-05-03T12:25:10.469Z</time></trkpt><trkpt lat="42.4973976" lon="14.1420434"><ele>85.0</ele><time>2026-05-03T12:25:11.473Z</time></trkpt><trkpt lat="42.4974848" lon="14.1419542"><ele>85.0</ele><time>2026-05-03T12:25:12.461Z</time></trkpt><trkpt lat="42.4975726" lon="14.1419096"><ele>85.0</ele><time>2026-05-03T12:25:13.475Z</time></trkpt><trkpt lat="42.49766" lon="14.141911"><ele>85.0</ele><time>2026-05-03T12:25:14.469Z</time></trkpt><trkpt lat="42.4977206" lon="14.1419667"><ele>85.0</ele><time>2026-05-03T12:25:15.464Z</time></trkpt><trkpt lat="42.4977544" lon="14.1420565"><ele>85.0</ele><time>2026-05-03T12:25:16.464Z</time></trkpt><trkpt lat="42.4977526" lon="14.1421871"><ele>85.0</ele><time>2026-05-03T12:25:17.46Z</time></trkpt><trkpt lat="42.497712" lon="14.1423269"><ele>85.33333333333333</ele><time>2026-05-03T12:25:18.463Z</time></trkpt><trkpt lat="42.497635" lon="14.1424835"><ele>85.66666666666667</ele><time>2026-05-03T12:25:19.456Z</time></trkpt><trkpt lat="42.4975309" lon="14.1426679"><ele>86.0</ele><time>2026-05-03T12:25:20.457Z</time></trkpt><trkpt lat="42.4974352" lon="14.1428547"><ele>86.0</ele><time>2026-05-03T12:25:21.454Z</time></trkpt><trkpt lat="42.4972963" lon="14.143071"><ele>86.0</ele><time>2026-05-03T12:25:22.451Z</time></trkpt><trkpt lat="42.4971634" lon="14.1432492"><ele>86.0</ele><time>2026-05-03T12:25:23.455Z</time></trkpt><trkpt lat="42.4970129" lon="14.1433836"><ele>88.5</ele><time>2026-05-03T12:25:24.456Z</time></trkpt><trkpt lat="42.4968957" lon="14.1435274"><ele>91.0</ele><time>2026-05-03T12:25:25.46Z</time></trkpt><trkpt lat="42.496785" lon="14.1436689"><ele>93.5</ele><time>2026-05-03T12:25:26.458Z</time></trkpt><trkpt lat="42.4967183" lon="14.143807"><ele>96.0</ele><time>2026-05-03T12:25:27.461Z</time></trkpt><trkpt lat="42.496643" lon="14.1439313"><ele>96.0</ele><time>2026-05-03T12:25:28.457Z</time></trkpt><trkpt lat="42.4965329" lon="14.1440337"><ele>96.0</ele><time>2026-05-03T12:25:29.449Z</time></trkpt><trkpt lat="42.496439" lon="14.144137"><ele>96.0</ele><time>2026-05-03T12:25:30.448Z</time></trkpt><trkpt lat="42.4963773" lon="14.1442649"><ele>96.0</ele><time>2026-05-03T12:25:31.455Z</time></trkpt><trkpt lat="42.4963313" lon="14.1444086"><ele>92.5</ele><time>2026-05-03T12:25:32.452Z</time></trkpt><trkpt lat="42.4962971" lon="14.1445586"><ele>89.0</ele><time>2026-05-03T12:25:33.449Z</time></trkpt><trkpt lat="42.4962937" lon="14.1447149"><ele>85.5</ele><time>2026-05-03T12:25:34.448Z</time></trkpt><trkpt lat="42.4963166" lon="14.1448802"><ele>82.0</ele><time>2026-05-03T12:25:35.451Z</time></trkpt><trkpt lat="42.4963164" lon="14.1450572"><ele>84.5</ele><time>2026-05-03T12:25:36.453Z</time></trkpt><trkpt lat="42.4962865" lon="14.1452385"><ele>87.0</ele><time>2026-05-03T12:25:37.447Z</time></trkpt><trkpt lat="42.4962494" lon="14.1454002"><ele>89.5</ele><time>2026-05-03T12:25:38.449Z</time></trkpt><trkpt lat="42.4961944" lon="14.1455327"><ele>92.0</ele><time>2026-05-03T12:25:39.443Z</time></trkpt><trkpt lat="42.4961568" lon="14.1456684"><ele>90.0</ele><time>2026-05-03T12:25:40.453Z</time></trkpt><trkpt lat="42.4961446" lon="14.1458113"><ele>88.0</ele><time>2026-05-03T12:25:41.449Z</time></trkpt><trkpt lat="42.4961817" lon="14.1459325"><ele>86.0</ele><time>2026-05-03T12:25:42.45Z</time></trkpt><trkpt lat="42.4962683" lon="14.1460335"><ele>84.0</ele><time>2026-05-03T12:25:43.447Z</time></trkpt><trkpt lat="42.4963852" lon="14.1460973"><ele>82.0</ele><time>2026-05-03T12:25:44.45Z</time></trkpt><trkpt lat="42.4965037" lon="14.1461001"><ele>79.5</ele><time>2026-05-03T12:25:45.451Z</time></trkpt><trkpt lat="42.4966164" lon="14.1460517"><ele>77.0</ele><time>2026-05-03T12:25:46.451Z</time></trkpt><trkpt lat="42.4967126" lon="14.1459626"><ele>74.5</ele><time>2026-05-03T12:25:47.446Z</time></trkpt><trkpt lat="42.496794" lon="14.1458438"><ele>72.0</ele><time>2026-05-03T12:25:48.441Z</time></trkpt><trkpt lat="42.4968515" lon="14.1456967"><ele>71.33333333333333</ele><time>2026-05-03T12:25:49.444Z</time></trkpt><trkpt lat="42.4968351" lon="14.1454708"><ele>70.66666666666666</ele><time>2026-05-03T12:25:50.446Z</time></trkpt><trkpt lat="42.4968297" lon="14.1452278"><ele>70.0</ele><time>2026-05-03T12:25:51.45Z</time></trkpt><trkpt lat="42.4968977" lon="14.1450672"><ele>70.0</ele><time>2026-05-03T12:25:52.449Z</time></trkpt><trkpt lat="42.4969892" lon="14.1448981"><ele>70.0</ele><time>2026-05-03T12:25:53.451Z</time></trkpt><trkpt lat="42.4970752" lon="14.1447566"><ele>70.0</ele><time>2026-05-03T12:25:54.45Z</time></trkpt><trkpt lat="42.4971789" lon="14.1446299"><ele>70.0</ele><time>2026-05-03T12:25:55.45Z</time></trkpt><trkpt lat="42.497306" lon="14.1445442"><ele>67.5</ele><time>2026-05-03T12:25:56.447Z</time></trkpt><trkpt lat="42.4974434" lon="14.1444831"><ele>65.0</ele><time>2026-05-03T12:25:57.449Z</time></trkpt><trkpt lat="42.4975547" lon="14.1443849"><ele>62.5</ele><time>2026-05-03T12:25:58.45Z</time></trkpt><trkpt lat="42.4976733" lon="14.1442774"><ele>60.0</ele><time>2026-05-03T12:25:59.449Z</time></trkpt><trkpt lat="42.497781" lon="14.1441401"><ele>57.0</ele><time>2026-05-03T12:26:00.449Z</time></trkpt><trkpt lat="42.4978966" lon="14.1439501"><ele>54.0</ele><time>2026-05-03T12:26:01.45Z</time></trkpt><trkpt lat="42.4980052" lon="14.1437874"><ele>51.0</ele><time>2026-05-03T12:26:02.456Z</time></trkpt><trkpt lat="42.4981025" lon="14.1436481"><ele>51.0</ele><time>2026-05-03T12:26:03.453Z</time></trkpt><trkpt lat="42.4981743" lon="14.1435291"><ele>51.0</ele><time>2026-05-03T12:26:04.458Z</time></trkpt><trkpt lat="42.4982319" lon="14.1434352"><ele>51.0</ele><time>2026-05-03T12:26:05.452Z</time></trkpt><trkpt lat="42.4983073" lon="14.1432955"><ele>51.0</ele><time>2026-05-03T12:26:06.455Z</time></trkpt><trkpt lat="42.4983594" lon="14.1431533"><ele>51.0</ele><time>2026-05-03T12:26:07.453Z</time></trkpt><trkpt lat="42.4984205" lon="14.1430326"><ele>53.166666666666664</ele><time>2026-05-03T12:26:08.457Z</time></trkpt><trkpt lat="42.4984771" lon="14.1429225"><ele>55.33333333333333</ele><time>2026-05-03T12:26:09.457Z</time></trkpt><trkpt lat="42.4985324" lon="14.1428384"><ele>57.5</ele><time>2026-05-03T12:26:10.454Z</time></trkpt><trkpt lat="42.4985831" lon="14.1427806"><ele>59.666666666666664</ele><time>2026-05-03T12:26:11.461Z</time></trkpt><trkpt lat="42.4986482" lon="14.1427368"><ele>61.83333333333333</ele><time>2026-05-03T12:26:13.458Z</time></trkpt><trkpt lat="42.4987009" lon="14.1426719"><ele>64.0</ele><time>2026-05-03T12:26:36.461Z</time></trkpt><trkpt lat="42.4987252" lon="14.142576"><ele>58.75</ele><time>2026-05-03T12:26:37.461Z</time></trkpt><trkpt lat="42.498767" lon="14.142432"><ele>53.5</ele><time>2026-05-03T12:26:38.462Z</time></trkpt><trkpt lat="42.4988239" lon="14.1422496"><ele>48.25</ele><time>2026-05-03T12:26:39.452Z</time></trkpt><trkpt lat="42.4989041" lon="14.1420452"><ele>43.0</ele><time>2026-05-03T12:26:40.454Z</time></trkpt><trkpt lat="42.4990241" lon="14.1417877"><ele>43.0</ele><time>2026-05-03T12:26:41.456Z</time></trkpt><trkpt lat="42.499166" lon="14.1415624"><ele>43.0</ele><time>2026-05-03T12:26:42.458Z</time></trkpt><trkpt lat="42.4993046" lon="14.1413763"><ele>43.0</ele><time>2026-05-03T12:26:43.454Z</time></trkpt><trkpt lat="42.4994513" lon="14.1412085"><ele>39.66666666666667</ele><time>2026-05-03T12:26:44.46Z</time></trkpt><trkpt lat="42.4995974" lon="14.1410522"><ele>36.333333333333336</ele><time>2026-05-03T12:26:45.454Z</time></trkpt><trkpt lat="42.4997361" lon="14.1409234"><ele>33.0</ele><time>2026-05-03T12:26:46.451Z</time></trkpt><trkpt lat="42.4998832" lon="14.140788"><ele>35.0</ele><time>2026-05-03T12:26:47.452Z</time></trkpt><trkpt lat="42.5000185" lon="14.1406477"><ele>37.0</ele><time>2026-05-03T12:26:48.454Z</time></trkpt><trkpt lat="42.5001228" lon="14.1404949"><ele>39.0</ele><time>2026-05-03T12:26:49.456Z</time></trkpt><trkpt lat="42.5001988" lon="14.1403532"><ele>39.0</ele><time>2026-05-03T12:26:50.456Z</time></trkpt><trkpt lat="42.5002724" lon="14.1402021"><ele>39.0</ele><time>2026-05-03T12:26:51.456Z</time></trkpt><trkpt lat="42.5003277" lon="14.1400847"><ele>39.0</ele><time>2026-05-03T12:26:52.456Z</time></trkpt><trkpt lat="42.5003892" lon="14.1399865"><ele>39.0</ele><time>2026-05-03T12:26:53.451Z</time></trkpt><trkpt lat="42.5004271" lon="14.139883"><ele>39.0</ele><time>2026-05-03T12:26:54.445Z</time></trkpt><trkpt lat="42.5004836" lon="14.1397866"><ele>36.4</ele><time>2026-05-03T12:26:55.456Z</time></trkpt><trkpt lat="42.5005527" lon="14.139674"><ele>33.8</ele><time>2026-05-03T12:26:56.457Z</time></trkpt><trkpt lat="42.5006174" lon="14.1395725"><ele>31.200000000000003</ele><time>2026-05-03T12:26:57.447Z</time></trkpt><trkpt lat="42.5006848" lon="14.1394683"><ele>28.6</ele><time>2026-05-03T12:26:58.463Z</time></trkpt><trkpt lat="42.5007499" lon="14.1393518"><ele>26.0</ele><time>2026-05-03T12:26:59.452Z</time></trkpt><trkpt lat="42.5008154" lon="14.1392334"><ele>26.0</ele><time>2026-05-03T12:27:00.458Z</time></trkpt><trkpt lat="42.5008742" lon="14.1391186"><ele>26.0</ele><time>2026-05-03T12:27:01.458Z</time></trkpt><trkpt lat="42.5009269" lon="14.1390043"><ele>26.0</ele><time>2026-05-03T12:27:02.462Z</time></trkpt><trkpt lat="42.5009754" lon="14.1388955"><ele>26.0</ele><time>2026-05-03T12:27:03.459Z</time></trkpt><trkpt lat="42.5010222" lon="14.138786"><ele>26.0</ele><time>2026-05-03T12:27:04.459Z</time></trkpt><trkpt lat="42.5010672" lon="14.1386833"><ele>25.166666666666664</ele><time>2026-05-03T12:27:05.465Z</time></trkpt><trkpt lat="42.5011147" lon="14.1385899"><ele>24.333333333333332</ele><time>2026-05-03T12:27:06.462Z</time></trkpt><trkpt lat="42.5011666" lon="14.1384898"><ele>23.5</ele><time>2026-05-03T12:27:07.47Z</time></trkpt><trkpt lat="42.5012169" lon="14.1384047"><ele>22.666666666666664</ele><time>2026-05-03T12:27:08.461Z</time></trkpt><trkpt lat="42.5012589" lon="14.1383296"><ele>21.833333333333332</ele><time>2026-05-03T12:27:09.463Z</time></trkpt><trkpt lat="42.5012863" lon="14.1382285"><ele>21.0</ele><time>2026-05-03T12:27:10.461Z</time></trkpt><trkpt lat="42.5013086" lon="14.1380813"><ele>19.333333333333332</ele><time>2026-05-03T12:27:11.464Z</time></trkpt><trkpt lat="42.5013388" lon="14.1378877"><ele>17.666666666666664</ele><time>2026-05-03T12:27:12.461Z</time></trkpt><trkpt lat="42.5013916" lon="14.1376294"><ele>16.0</ele><time>2026-05-03T12:27:13.456Z</time></trkpt><trkpt lat="42.501443" lon="14.1374397"><ele>15.5</ele><time>2026-05-03T12:27:14.466Z</time></trkpt><trkpt lat="42.5014875" lon="14.1372691"><ele>15.0</ele><time>2026-05-03T12:27:15.463Z</time></trkpt><trkpt lat="42.5015306" lon="14.1371191"><ele>14.5</ele><time>2026-05-03T12:27:16.465Z</time></trkpt><trkpt lat="42.5015698" lon="14.136982"><ele>14.0</ele><time>2026-05-03T12:27:17.471Z</time></trkpt><trkpt lat="42.5015984" lon="14.13684"><ele>14.0</ele><time>2026-05-03T12:27:18.47Z</time></trkpt><trkpt lat="42.5016217" lon="14.1366873"><ele>13.999999999999998</ele><time>2026-05-03T12:27:19.482Z</time></trkpt><trkpt lat="42.5016507" lon="14.1365465"><ele>13.999999999999998</ele><time>2026-05-03T12:27:20.473Z</time></trkpt><trkpt lat="42.5016897" lon="14.1364107"><ele>14.0</ele><time>2026-05-03T12:27:21.472Z</time></trkpt><trkpt lat="42.5017304" lon="14.1362727"><ele>14.0</ele><time>2026-05-03T12:27:22.481Z</time></trkpt><trkpt lat="42.5017665" lon="14.1361428"><ele>14.000000000000002</ele><time>2026-05-03T12:27:23.478Z</time></trkpt><trkpt lat="42.5017967" lon="14.136022"><ele>14.0</ele><time>2026-05-03T12:27:24.475Z</time></trkpt><trkpt lat="42.5018332" lon="14.1359052"><ele>14.0</ele><time>2026-05-03T12:27:25.476Z</time></trkpt><trkpt lat="42.5018636" lon="14.1357925"><ele>14.0</ele><time>2026-05-03T12:27:26.468Z</time></trkpt><trkpt lat="42.5018906" lon="14.1356882"><ele>14.000000000000002</ele><time>2026-05-03T12:27:27.469Z</time></trkpt><trkpt lat="42.5019197" lon="14.1355801"><ele>14.0</ele><time>2026-05-03T12:27:28.471Z</time></trkpt><trkpt lat="42.501952" lon="14.1354622"><ele>14.000000000000002</ele><time>2026-05-03T12:27:29.473Z</time></trkpt><trkpt lat="42.5019881" lon="14.135356"><ele>14.0</ele><time>2026-05-03T12:27:30.456Z</time></trkpt><trkpt lat="42.5020175" lon="14.135263"><ele>14.0</ele><time>2026-05-03T12:27:31.463Z</time></trkpt><trkpt lat="42.5020471" lon="14.1351734"><ele>14.0</ele><time>2026-05-03T12:27:32.463Z</time></trkpt><trkpt lat="42.5020757" lon="14.1350818"><ele>14.000000000000002</ele><time>2026-05-03T12:27:33.457Z</time></trkpt><trkpt lat="42.5021021" lon="14.1349846"><ele>14.0</ele><time>2026-05-03T12:27:34.468Z</time></trkpt><trkpt lat="42.5021332" lon="14.1349026"><ele>14.000000000000002</ele><time>2026-05-03T12:27:35.461Z</time></trkpt><trkpt lat="42.5021699" lon="14.1348315"><ele>14.0</ele><time>2026-05-03T12:27:36.461Z</time></trkpt><trkpt lat="42.5022266" lon="14.1347686"><ele>14.0</ele><time>2026-05-03T12:27:37.46Z</time></trkpt><trkpt lat="42.5022968" lon="14.1347329"><ele>14.0</ele><time>2026-05-03T12:27:38.46Z</time></trkpt><trkpt lat="42.5023844" lon="14.1347263"><ele>14.000000000000002</ele><time>2026-05-03T12:27:39.454Z</time></trkpt><trkpt lat="42.5024614" lon="14.1347378"><ele>14.0</ele><time>2026-05-03T12:27:40.464Z</time></trkpt><trkpt lat="42.5025402" lon="14.1347699"><ele>14.0</ele><time>2026-05-03T12:27:41.462Z</time></trkpt><trkpt lat="42.5026104" lon="14.134828"><ele>14.0</ele><time>2026-05-03T12:27:42.464Z</time></trkpt><trkpt lat="42.5026653" lon="14.134901"><ele>14.0</ele><time>2026-05-03T12:27:43.464Z</time></trkpt><trkpt lat="42.5027117" lon="14.13497"><ele>14.0</ele><time>2026-05-03T12:27:44.467Z</time></trkpt><trkpt lat="42.5027573" lon="14.1350359"><ele>14.0</ele><time>2026-05-03T12:27:45.463Z</time></trkpt><trkpt lat="42.5028049" lon="14.1350962"><ele>14.0</ele><time>2026-05-03T12:27:46.469Z</time></trkpt><trkpt lat="42.5028583" lon="14.1351632"><ele>14.0</ele><time>2026-05-03T12:27:47.471Z</time></trkpt><trkpt lat="42.5029116" lon="14.1352338"><ele>13.666666666666668</ele><time>2026-05-03T12:27:48.477Z</time></trkpt><trkpt lat="42.502956" lon="14.1353001"><ele>13.333333333333334</ele><time>2026-05-03T12:27:49.476Z</time></trkpt><trkpt lat="42.5030425" lon="14.1353859"><ele>13.0</ele><time>2026-05-03T12:27:51.471Z</time></trkpt><trkpt lat="42.5031205" lon="14.1353142"><ele>12.666666666666668</ele><time>2026-05-03T12:27:53.47Z</time></trkpt><trkpt lat="42.5031535" lon="14.1352275"><ele>12.333333333333334</ele><time>2026-05-03T12:27:54.474Z</time></trkpt><trkpt lat="42.5031843" lon="14.1350865"><ele>12.0</ele><time>2026-05-03T12:27:55.458Z</time></trkpt><trkpt lat="42.503223" lon="14.1349127"><ele>12.25</ele><time>2026-05-03T12:27:56.461Z</time></trkpt><trkpt lat="42.5032708" lon="14.1347294"><ele>12.5</ele><time>2026-05-03T12:27:57.464Z</time></trkpt><trkpt lat="42.5033245" lon="14.134551"><ele>12.75</ele><time>2026-05-03T12:27:58.474Z</time></trkpt><trkpt lat="42.5033608" lon="14.1343862"><ele>13.0</ele><time>2026-05-03T12:27:59.466Z</time></trkpt><trkpt lat="42.5033952" lon="14.1342407"><ele>13.0</ele><time>2026-05-03T12:28:00.46Z</time></trkpt><trkpt lat="42.5034313" lon="14.1341056"><ele>13.0</ele><time>2026-05-03T12:28:01.454Z</time></trkpt><trkpt lat="42.5034663" lon="14.1339843"><ele>13.0</ele><time>2026-05-03T12:28:02.465Z</time></trkpt><trkpt lat="42.5034996" lon="14.1338624"><ele>13.0</ele><time>2026-05-03T12:28:03.461Z</time></trkpt><trkpt lat="42.5035415" lon="14.1337501"><ele>13.0</ele><time>2026-05-03T12:28:04.461Z</time></trkpt><trkpt lat="42.5036001" lon="14.1336532"><ele>13.0</ele><time>2026-05-03T12:28:05.465Z</time></trkpt><trkpt lat="42.5036802" lon="14.1335626"><ele>13.0</ele><time>2026-05-03T12:28:06.469Z</time></trkpt><trkpt lat="42.5037809" lon="14.1334613"><ele>13.0</ele><time>2026-05-03T12:28:07.451Z</time></trkpt><trkpt lat="42.5039119" lon="14.1333511"><ele>13.0</ele><time>2026-05-03T12:28:08.466Z</time></trkpt><trkpt lat="42.504091" lon="14.1332265"><ele>13.0</ele><time>2026-05-03T12:28:09.457Z</time></trkpt><trkpt lat="42.5042618" lon="14.133091"><ele>13.0</ele><time>2026-05-03T12:28:10.463Z</time></trkpt><trkpt lat="42.5044203" lon="14.1329412"><ele>13.0</ele><time>2026-05-03T12:28:11.464Z</time></trkpt><trkpt lat="42.5045882" lon="14.1327853"><ele>11.666666666666666</ele><time>2026-05-03T12:28:12.466Z</time></trkpt><trkpt lat="42.5047616" lon="14.1326151"><ele>10.333333333333332</ele><time>2026-05-03T12:28:13.463Z</time></trkpt><trkpt lat="42.5049093" lon="14.1324661"><ele>9.0</ele><time>2026-05-03T12:28:14.467Z</time></trkpt><trkpt lat="42.505073" lon="14.1323222"><ele>9.0</ele><time>2026-05-03T12:28:15.463Z</time></trkpt><trkpt lat="42.5052183" lon="14.1322008"><ele>9.0</ele><time>2026-05-03T12:28:16.463Z</time></trkpt><trkpt lat="42.5053571" lon="14.1320853"><ele>9.0</ele><time>2026-05-03T12:28:17.466Z</time></trkpt><trkpt lat="42.50549" lon="14.1319548"><ele>9.0</ele><time>2026-05-03T12:28:18.461Z</time></trkpt><trkpt lat="42.5056233" lon="14.1318489"><ele>9.0</ele><time>2026-05-03T12:28:19.464Z</time></trkpt><trkpt lat="42.5057509" lon="14.1317405"><ele>9.0</ele><time>2026-05-03T12:28:20.466Z</time></trkpt><trkpt lat="42.5058687" lon="14.1316249"><ele>9.0</ele><time>2026-05-03T12:28:21.464Z</time></trkpt><trkpt lat="42.5059789" lon="14.1315212"><ele>9.0</ele><time>2026-05-03T12:28:22.467Z</time></trkpt><trkpt lat="42.5060809" lon="14.1314173"><ele>9.0</ele><time>2026-05-03T12:28:23.46Z</time></trkpt><trkpt lat="42.5061942" lon="14.1313065"><ele>9.0</ele><time>2026-05-03T12:28:24.47Z</time></trkpt><trkpt lat="42.5063161" lon="14.1312167"><ele>9.0</ele><time>2026-05-03T12:28:25.464Z</time></trkpt><trkpt lat="42.5064315" lon="14.1311353"><ele>9.0</ele><time>2026-05-03T12:28:26.464Z</time></trkpt><trkpt lat="42.5065497" lon="14.1310626"><ele>9.0</ele><time>2026-05-03T12:28:27.458Z</time></trkpt><trkpt lat="42.5066806" lon="14.1309867"><ele>9.0</ele><time>2026-05-03T12:28:28.463Z</time></trkpt><trkpt lat="42.5068041" lon="14.1309293"><ele>9.0</ele><time>2026-05-03T12:28:29.475Z</time></trkpt><trkpt lat="42.5069302" lon="14.1308593"><ele>9.0</ele><time>2026-05-03T12:28:30.47Z</time></trkpt><trkpt lat="42.5070495" lon="14.1308079"><ele>9.0</ele><time>2026-05-03T12:28:31.469Z</time></trkpt><trkpt lat="42.5071917" lon="14.1307802"><ele>9.0</ele><time>2026-05-03T12:28:32.471Z</time></trkpt><trkpt lat="42.5073297" lon="14.1307504"><ele>9.75</ele><time>2026-05-03T12:28:33.473Z</time></trkpt><trkpt lat="42.507457" lon="14.1307204"><ele>10.5</ele><time>2026-05-03T12:28:34.471Z</time></trkpt><trkpt lat="42.5075787" lon="14.1306947"><ele>11.25</ele><time>2026-05-03T12:28:35.469Z</time></trkpt><trkpt lat="42.5077012" lon="14.1306351"><ele>12.0</ele><time>2026-05-03T12:28:36.471Z</time></trkpt><trkpt lat="42.5078203" lon="14.1305434"><ele>12.0</ele><time>2026-05-03T12:28:37.473Z</time></trkpt><trkpt lat="42.5079493" lon="14.130453"><ele>12.0</ele><time>2026-05-03T12:28:38.465Z</time></trkpt><trkpt lat="42.5080627" lon="14.1303758"><ele>12.0</ele><time>2026-05-03T12:28:39.462Z</time></trkpt><trkpt lat="42.5081723" lon="14.1302994"><ele>12.0</ele><time>2026-05-03T12:28:40.464Z</time></trkpt><trkpt lat="42.5082795" lon="14.1302229"><ele>12.0</ele><time>2026-05-03T12:28:41.464Z</time></trkpt><trkpt lat="42.5083751" lon="14.1301316"><ele>12.0</ele><time>2026-05-03T12:28:42.462Z</time></trkpt><trkpt lat="42.5084679" lon="14.1300442"><ele>12.0</ele><time>2026-05-03T12:28:43.466Z</time></trkpt><trkpt lat="42.5085573" lon="14.1299664"><ele>12.0</ele><time>2026-05-03T12:28:44.465Z</time></trkpt><trkpt lat="42.5086347" lon="14.1299002"><ele>12.0</ele><time>2026-05-03T12:28:45.471Z</time></trkpt><trkpt lat="42.5087062" lon="14.1298401"><ele>11.0</ele><time>2026-05-03T12:28:46.473Z</time></trkpt><trkpt lat="42.508778" lon="14.1297953"><ele>10.0</ele><time>2026-05-03T12:28:47.474Z</time></trkpt><trkpt lat="42.5088501" lon="14.1297667"><ele>9.0</ele><time>2026-05-03T12:28:48.477Z</time></trkpt><trkpt lat="42.5089389" lon="14.1297871"><ele>8.0</ele><time>2026-05-03T12:28:49.469Z</time></trkpt><trkpt lat="42.5090337" lon="14.1298276"><ele>7.0</ele><time>2026-05-03T12:28:50.477Z</time></trkpt><trkpt lat="42.5091277" lon="14.1299069"><ele>7.0</ele><time>2026-05-03T12:28:51.475Z</time></trkpt><trkpt lat="42.5092255" lon="14.1300128"><ele>7.0</ele><time>2026-05-03T12:28:52.473Z</time></trkpt><trkpt lat="42.5093129" lon="14.130159"><ele>7.0</ele><time>2026-05-03T12:28:53.473Z</time></trkpt><trkpt lat="42.5094094" lon="14.1303007"><ele>7.0</ele><time>2026-05-03T12:28:54.464Z</time></trkpt><trkpt lat="42.5095104" lon="14.1304772"><ele>7.0</ele><time>2026-05-03T12:28:55.469Z</time></trkpt><trkpt lat="42.5096025" lon="14.1306403"><ele>7.0</ele><time>2026-05-03T12:28:56.472Z</time></trkpt><trkpt lat="42.5096981" lon="14.1307969"><ele>7.0</ele><time>2026-05-03T12:28:57.469Z</time></trkpt><trkpt lat="42.5098025" lon="14.1309443"><ele>6.5</ele><time>2026-05-03T12:28:58.473Z</time></trkpt><trkpt lat="42.5098978" lon="14.1310777"><ele>6.0</ele><time>2026-05-03T12:28:59.475Z</time></trkpt><trkpt lat="42.5099978" lon="14.1312177"><ele>5.5</ele><time>2026-05-03T12:29:00.468Z</time></trkpt><trkpt lat="42.5100798" lon="14.1313779"><ele>5.0</ele><time>2026-05-03T12:29:01.476Z</time></trkpt><trkpt lat="42.5101638" lon="14.1315377"><ele>5.25</ele><time>2026-05-03T12:29:02.468Z</time></trkpt><trkpt lat="42.5102536" lon="14.1316925"><ele>5.5</ele><time>2026-05-03T12:29:03.467Z</time></trkpt><trkpt lat="42.5103366" lon="14.1318638"><ele>5.75</ele><time>2026-05-03T12:29:04.472Z</time></trkpt><trkpt lat="42.5104281" lon="14.1320222"><ele>6.0</ele><time>2026-05-03T12:29:05.473Z</time></trkpt><trkpt lat="42.5105119" lon="14.1321792"><ele>6.0</ele><time>2026-05-03T12:29:06.465Z</time></trkpt><trkpt lat="42.5106098" lon="14.132331"><ele>6.0</ele><time>2026-05-03T12:29:07.471Z</time></trkpt><trkpt lat="42.5107075" lon="14.1324965"><ele>6.0</ele><time>2026-05-03T12:29:08.472Z</time></trkpt><trkpt lat="42.5107876" lon="14.1326529"><ele>6.0</ele><time>2026-05-03T12:29:09.475Z</time></trkpt><trkpt lat="42.510875" lon="14.1328074"><ele>6.0</ele><time>2026-05-03T12:29:10.477Z</time></trkpt><trkpt lat="42.5109682" lon="14.1329739"><ele>6.0</ele><time>2026-05-03T12:29:11.476Z</time></trkpt><trkpt lat="42.5110661" lon="14.1331294"><ele>6.0</ele><time>2026-05-03T12:29:12.474Z</time></trkpt><trkpt lat="42.5111517" lon="14.1332692"><ele>6.0</ele><time>2026-05-03T12:29:13.476Z</time></trkpt><trkpt lat="42.5112436" lon="14.133414"><ele>5.666666666666667</ele><time>2026-05-03T12:29:14.48Z</time></trkpt><trkpt lat="42.5113379" lon="14.1335759"><ele>5.333333333333334</ele><time>2026-05-03T12:29:15.471Z</time></trkpt><trkpt lat="42.5114394" lon="14.1337359"><ele>5.0</ele><time>2026-05-03T12:29:16.475Z</time></trkpt><trkpt lat="42.5115286" lon="14.1339139"><ele>5.0</ele><time>2026-05-03T12:29:17.472Z</time></trkpt><trkpt lat="42.5116063" lon="14.1340903"><ele>5.0</ele><time>2026-05-03T12:29:18.474Z</time></trkpt><trkpt lat="42.5116909" lon="14.1342398"><ele>5.0</ele><time>2026-05-03T12:29:19.473Z</time></trkpt><trkpt lat="42.5117764" lon="14.1344005"><ele>5.0</ele><time>2026-05-03T12:29:20.475Z</time></trkpt><trkpt lat="42.5118976" lon="14.1345307"><ele>5.0</ele><time>2026-05-03T12:29:21.465Z</time></trkpt><trkpt lat="42.5120583" lon="14.1346515"><ele>5.0</ele><time>2026-05-03T12:29:22.471Z</time></trkpt><trkpt lat="42.5122308" lon="14.1347643"><ele>5.0</ele><time>2026-05-03T12:29:23.477Z</time></trkpt><trkpt lat="42.5124111" lon="14.1348783"><ele>4.333333333333334</ele><time>2026-05-03T12:29:24.47Z</time></trkpt><trkpt lat="42.512571" lon="14.1349799"><ele>3.666666666666667</ele><time>2026-05-03T12:29:25.471Z</time></trkpt><trkpt lat="42.5127047" lon="14.135101"><ele>3.0</ele><time>2026-05-03T12:29:26.463Z</time></trkpt><trkpt lat="42.5128438" lon="14.1352143"><ele>2.6666666666666665</ele><time>2026-05-03T12:29:27.47Z</time></trkpt><trkpt lat="42.5129637" lon="14.1353441"><ele>2.333333333333333</ele><time>2026-05-03T12:29:28.469Z</time></trkpt><trkpt lat="42.5130709" lon="14.1354897"><ele>2.0</ele><time>2026-05-03T12:29:29.465Z</time></trkpt><trkpt lat="42.5131652" lon="14.1356624"><ele>2.333333333333333</ele><time>2026-05-03T12:29:30.467Z</time></trkpt><trkpt lat="42.5132438" lon="14.1358568"><ele>2.6666666666666665</ele><time>2026-05-03T12:29:31.472Z</time></trkpt><trkpt lat="42.5132884" lon="14.1360456"><ele>3.0</ele><time>2026-05-03T12:29:32.466Z</time></trkpt><trkpt lat="42.5133346" lon="14.1362469"><ele>3.0</ele><time>2026-05-03T12:29:33.474Z</time></trkpt><trkpt lat="42.5133645" lon="14.1364377"><ele>3.0</ele><time>2026-05-03T12:29:34.473Z</time></trkpt><trkpt lat="42.5133964" lon="14.1366234"><ele>3.0</ele><time>2026-05-03T12:29:35.475Z</time></trkpt><trkpt lat="42.5134381" lon="14.1367791"><ele>3.0</ele><time>2026-05-03T12:29:36.472Z</time></trkpt><trkpt lat="42.5134961" lon="14.1369342"><ele>3.25</ele><time>2026-05-03T12:29:37.47Z</time></trkpt><trkpt lat="42.5135739" lon="14.137089"><ele>3.5</ele><time>2026-05-03T12:29:38.464Z</time></trkpt><trkpt lat="42.5136411" lon="14.137224"><ele>3.75</ele><time>2026-05-03T12:29:39.468Z</time></trkpt><trkpt lat="42.51369" lon="14.1373516"><ele>4.0</ele><time>2026-05-03T12:29:40.47Z</time></trkpt><trkpt lat="42.5137197" lon="14.1374619"><ele>4.4</ele><time>2026-05-03T12:29:41.467Z</time></trkpt><trkpt lat="42.5137444" lon="14.1375739"><ele>4.800000000000001</ele><time>2026-05-03T12:29:42.466Z</time></trkpt><trkpt lat="42.5137524" lon="14.1376899"><ele>5.199999999999999</ele><time>2026-05-03T12:29:43.461Z</time></trkpt><trkpt lat="42.5137439" lon="14.1378177"><ele>5.6</ele><time>2026-05-03T12:29:44.467Z</time></trkpt><trkpt lat="42.5137194" lon="14.1379519"><ele>6.0</ele><time>2026-05-03T12:29:45.464Z</time></trkpt><trkpt lat="42.5136684" lon="14.1380804"><ele>6.0</ele><time>2026-05-03T12:29:46.464Z</time></trkpt><trkpt lat="42.5136116" lon="14.138218"><ele>6.0</ele><time>2026-05-03T12:29:47.457Z</time></trkpt><trkpt lat="42.5135484" lon="14.1383759"><ele>6.0</ele><time>2026-05-03T12:29:48.464Z</time></trkpt><trkpt lat="42.5134827" lon="14.1385437"><ele>6.0</ele><time>2026-05-03T12:29:49.457Z</time></trkpt><trkpt lat="42.5134123" lon="14.138713"><ele>5.666666666666667</ele><time>2026-05-03T12:29:50.461Z</time></trkpt><trkpt lat="42.5133171" lon="14.1388851"><ele>5.333333333333334</ele><time>2026-05-03T12:29:51.461Z</time></trkpt><trkpt lat="42.5132218" lon="14.1390589"><ele>5.0</ele><time>2026-05-03T12:29:52.464Z</time></trkpt><trkpt lat="42.5131384" lon="14.1392284"><ele>5.0</ele><time>2026-05-03T12:29:53.473Z</time></trkpt><trkpt lat="42.5130722" lon="14.1394019"><ele>5.0</ele><time>2026-05-03T12:29:54.466Z</time></trkpt><trkpt lat="42.5129958" lon="14.1395395"><ele>5.0</ele><time>2026-05-03T12:29:55.464Z</time></trkpt><trkpt lat="42.512943" lon="14.1396919"><ele>5.0</ele><time>2026-05-03T12:29:56.465Z</time></trkpt><trkpt lat="42.5128984" lon="14.1398403"><ele>5.2</ele><time>2026-05-03T12:29:57.463Z</time></trkpt><trkpt lat="42.5128461" lon="14.1399683"><ele>5.4</ele><time>2026-05-03T12:29:58.468Z</time></trkpt><trkpt lat="42.5127999" lon="14.1400989"><ele>5.6</ele><time>2026-05-03T12:29:59.461Z</time></trkpt><trkpt lat="42.5127624" lon="14.1402273"><ele>5.8</ele><time>2026-05-03T12:30:00.468Z</time></trkpt><trkpt lat="42.512729" lon="14.1403439"><ele>6.0</ele><time>2026-05-03T12:30:01.462Z</time></trkpt><trkpt lat="42.5126904" lon="14.1404597"><ele>6.0</ele><time>2026-05-03T12:30:02.46Z</time></trkpt><trkpt lat="42.512651" lon="14.1405724"><ele>6.0</ele><time>2026-05-03T12:30:03.461Z</time></trkpt><trkpt lat="42.5126083" lon="14.1406698"><ele>6.0</ele><time>2026-05-03T12:30:04.465Z</time></trkpt><trkpt lat="42.5125642" lon="14.1407641"><ele>6.0</ele><time>2026-05-03T12:30:05.46Z</time></trkpt><trkpt lat="42.51252" lon="14.1408719"><ele>6.0</ele><time>2026-05-03T12:30:06.466Z</time></trkpt><trkpt lat="42.5124783" lon="14.1409791"><ele>6.0</ele><time>2026-05-03T12:30:07.457Z</time></trkpt><trkpt lat="42.5124394" lon="14.1410816"><ele>6.4</ele><time>2026-05-03T12:30:08.459Z</time></trkpt><trkpt lat="42.5124068" lon="14.1411621"><ele>6.8</ele><time>2026-05-03T12:30:09.455Z</time></trkpt><trkpt lat="42.5123567" lon="14.1413074"><ele>7.200000000000001</ele><time>2026-05-03T12:30:11.452Z</time></trkpt><trkpt lat="42.5123884" lon="14.1414606"><ele>7.6000000000000005</ele><time>2026-05-03T12:30:13.451Z</time></trkpt><trkpt lat="42.5124423" lon="14.1415192"><ele>8.0</ele><time>2026-05-03T12:30:14.458Z</time></trkpt><trkpt lat="42.5125209" lon="14.1415461"><ele>8.0</ele><time>2026-05-03T12:30:15.458Z</time></trkpt><trkpt lat="42.5126115" lon="14.1415412"><ele>8.0</ele><time>2026-05-03T12:30:16.46Z</time></trkpt><trkpt lat="42.5127131" lon="14.1415122"><ele>8.0</ele><time>2026-05-03T12:30:17.464Z</time></trkpt><trkpt lat="42.5128248" lon="14.1414792"><ele>8.0</ele><time>2026-05-03T12:30:18.461Z</time></trkpt><trkpt lat="42.5129561" lon="14.1414539"><ele>8.0</ele><time>2026-05-03T12:30:19.456Z</time></trkpt><trkpt lat="42.5130995" lon="14.1414445"><ele>7.333333333333333</ele><time>2026-05-03T12:30:20.452Z</time></trkpt><trkpt lat="42.5132435" lon="14.141449"><ele>6.666666666666666</ele><time>2026-05-03T12:30:21.46Z</time></trkpt><trkpt lat="42.5134059" lon="14.1414705"><ele>6.0</ele><time>2026-05-03T12:30:22.454Z</time></trkpt><trkpt lat="42.5135701" lon="14.1415244"><ele>6.0</ele><time>2026-05-03T12:30:23.456Z</time></trkpt><trkpt lat="42.5137013" lon="14.1416075"><ele>6.0</ele><time>2026-05-03T12:30:24.459Z</time></trkpt><trkpt lat="42.5137782" lon="14.1417027"><ele>6.0</ele><time>2026-05-03T12:30:25.46Z</time></trkpt><trkpt lat="42.5138511" lon="14.1417816"><ele>6.0</ele><time>2026-05-03T12:30:26.453Z</time></trkpt><trkpt lat="42.5139396" lon="14.1418431"><ele>6.0</ele><time>2026-05-03T12:30:27.46Z</time></trkpt><trkpt lat="42.5140276" lon="14.141896"><ele>5.3999999999999995</ele><time>2026-05-03T12:30:28.457Z</time></trkpt><trkpt lat="42.5141026" lon="14.1419439"><ele>4.8</ele><time>2026-05-03T12:30:29.465Z</time></trkpt><trkpt lat="42.5141639" lon="14.1419874"><ele>4.199999999999999</ele><time>2026-05-03T12:30:30.458Z</time></trkpt><trkpt lat="42.5142585" lon="14.1420767"><ele>3.5999999999999996</ele><time>2026-05-03T12:30:32.462Z</time></trkpt><trkpt lat="42.5143129" lon="14.1421973"><ele>3.0</ele><time>2026-05-03T12:30:34.458Z</time></trkpt><trkpt lat="42.5143196" lon="14.1423347"><ele>2.8333333333333335</ele><time>2026-05-03T12:30:36.459Z</time></trkpt><trkpt lat="42.5143541" lon="14.1424619"><ele>2.6666666666666665</ele><time>2026-05-03T12:30:38.454Z</time></trkpt><trkpt lat="42.5144392" lon="14.1425101"><ele>2.5</ele><time>2026-05-03T12:30:40.463Z</time></trkpt><trkpt lat="42.5145429" lon="14.1424628"><ele>2.333333333333333</ele><time>2026-05-03T12:30:42.456Z</time></trkpt><trkpt lat="42.5146051" lon="14.1424267"><ele>2.1666666666666665</ele><time>2026-05-03T12:30:43.458Z</time></trkpt><trkpt lat="42.5146708" lon="14.1424129"><ele>2.0</ele><time>2026-05-03T12:30:44.455Z</time></trkpt><trkpt lat="42.5147424" lon="14.1424334"><ele>2.0</ele><time>2026-05-03T12:30:45.454Z</time></trkpt><trkpt lat="42.5148401" lon="14.1425035"><ele>2.0</ele><time>2026-05-03T12:30:46.456Z</time></trkpt><trkpt lat="42.5149532" lon="14.142589"><ele>2.0</ele><time>2026-05-03T12:30:47.451Z</time></trkpt><trkpt lat="42.5150763" lon="14.142678"><ele>2.0</ele><time>2026-05-03T12:30:48.455Z</time></trkpt><trkpt lat="42.5152173" lon="14.1427768"><ele>2.0</ele><time>2026-05-03T12:30:49.454Z</time></trkpt><trkpt lat="42.5153707" lon="14.1428872"><ele>2.0</ele><time>2026-05-03T12:30:50.447Z</time></trkpt><trkpt lat="42.5155086" lon="14.1430017"><ele>2.0</ele><time>2026-05-03T12:30:51.447Z</time></trkpt><trkpt lat="42.5156531" lon="14.1431172"><ele>2.6666666666666665</ele><time>2026-05-03T12:30:52.457Z</time></trkpt><trkpt lat="42.5158252" lon="14.143226"><ele>3.333333333333333</ele><time>2026-05-03T12:30:53.453Z</time></trkpt><trkpt lat="42.5160018" lon="14.1433381"><ele>4.0</ele><time>2026-05-03T12:30:54.46Z</time></trkpt><trkpt lat="42.5161738" lon="14.1434374"><ele>4.666666666666666</ele><time>2026-05-03T12:30:55.45Z</time></trkpt><trkpt lat="42.5163246" lon="14.1435457"><ele>5.333333333333333</ele><time>2026-05-03T12:30:56.452Z</time></trkpt><trkpt lat="42.5164585" lon="14.1436574"><ele>6.0</ele><time>2026-05-03T12:30:57.459Z</time></trkpt><trkpt lat="42.5166179" lon="14.143774"><ele>6.0</ele><time>2026-05-03T12:30:58.46Z</time></trkpt><trkpt lat="42.5167709" lon="14.1438897"><ele>6.0</ele><time>2026-05-03T12:30:59.457Z</time></trkpt><trkpt lat="42.5169" lon="14.1439986"><ele>6.0</ele><time>2026-05-03T12:31:00.464Z</time></trkpt><trkpt lat="42.5170446" lon="14.1441099"><ele>5.0</ele><time>2026-05-03T12:31:01.464Z</time></trkpt><trkpt lat="42.5172006" lon="14.1442246"><ele>4.0</ele><time>2026-05-03T12:31:02.465Z</time></trkpt><trkpt lat="42.5173415" lon="14.1443395"><ele>3.0</ele><time>2026-05-03T12:31:03.464Z</time></trkpt><trkpt lat="42.5174859" lon="14.1444618"><ele>3.0</ele><time>2026-05-03T12:31:04.47Z</time></trkpt><trkpt lat="42.517632" lon="14.1445753"><ele>3.0</ele><time>2026-05-03T12:31:05.464Z</time></trkpt><trkpt lat="42.5177655" lon="14.1446759"><ele>3.0</ele><time>2026-05-03T12:31:06.466Z</time></trkpt><trkpt lat="42.517903" lon="14.1447722"><ele>3.0</ele><time>2026-05-03T12:31:07.467Z</time></trkpt><trkpt lat="42.5180501" lon="14.1448849"><ele>3.0</ele><time>2026-05-03T12:31:08.462Z</time></trkpt><trkpt lat="42.5181851" lon="14.1450033"><ele>3.0</ele><time>2026-05-03T12:31:09.469Z</time></trkpt><trkpt lat="42.518331" lon="14.1451101"><ele>3.0</ele><time>2026-05-03T12:31:10.466Z</time></trkpt><trkpt lat="42.5184826" lon="14.1452165"><ele>3.0</ele><time>2026-05-03T12:31:11.464Z</time></trkpt><trkpt lat="42.5186131" lon="14.1453241"><ele>3.0</ele><time>2026-05-03T12:31:12.465Z</time></trkpt><trkpt lat="42.5187295" lon="14.1454029"><ele>3.0</ele><time>2026-05-03T12:31:13.463Z</time></trkpt><trkpt lat="42.5188484" lon="14.1454758"><ele>3.0</ele><time>2026-05-03T12:31:14.464Z</time></trkpt><trkpt lat="42.5189649" lon="14.1455513"><ele>3.0</ele><time>2026-05-03T12:31:15.457Z</time></trkpt><trkpt lat="42.5190661" lon="14.1456313"><ele>3.0</ele><time>2026-05-03T12:31:16.456Z</time></trkpt><trkpt lat="42.5191598" lon="14.1457105"><ele>3.4</ele><time>2026-05-03T12:31:17.46Z</time></trkpt><trkpt lat="42.5192461" lon="14.1457472"><ele>3.8</ele><time>2026-05-03T12:31:18.455Z</time></trkpt><trkpt lat="42.5193163" lon="14.1458114"><ele>4.2</ele><time>2026-05-03T12:31:19.452Z</time></trkpt><trkpt lat="42.519384" lon="14.1458739"><ele>4.6</ele><time>2026-05-03T12:31:20.45Z</time></trkpt><trkpt lat="42.5194838" lon="14.145952"><ele>5.0</ele><time>2026-05-03T12:31:22.448Z</time></trkpt><trkpt lat="42.5195584" lon="14.1460064"><ele>5.0</ele><time>2026-05-03T12:31:24.455Z</time></trkpt><trkpt lat="42.5196075" lon="14.1460921"><ele>5.0</ele><time>2026-05-03T12:31:27.454Z</time></trkpt><trkpt lat="42.5195301" lon="14.1462062"><ele>5.0</ele><time>2026-05-03T12:31:31.45Z</time></trkpt><trkpt lat="42.5194589" lon="14.1462792"><ele>5.0</ele><time>2026-05-03T12:31:32.454Z</time></trkpt><trkpt lat="42.5193921" lon="14.1463567"><ele>5.0</ele><time>2026-05-03T12:31:33.457Z</time></trkpt><trkpt lat="42.5193197" lon="14.146453"><ele>4.6</ele><time>2026-05-03T12:31:34.451Z</time></trkpt><trkpt lat="42.5192322" lon="14.146554"><ele>4.2</ele><time>2026-05-03T12:31:35.452Z</time></trkpt><trkpt lat="42.5191492" lon="14.1466566"><ele>3.8</ele><time>2026-05-03T12:31:36.451Z</time></trkpt><trkpt lat="42.519078" lon="14.1467509"><ele>3.4</ele><time>2026-05-03T12:31:37.454Z</time></trkpt><trkpt lat="42.5190174" lon="14.1468364"><ele>3.0</ele><time>2026-05-03T12:31:38.458Z</time></trkpt><trkpt lat="42.5189866" lon="14.1469242"><ele>3.0</ele><time>2026-05-03T12:31:39.457Z</time></trkpt><trkpt lat="42.5189935" lon="14.1470219"><ele>3.0</ele><time>2026-05-03T12:31:40.455Z</time></trkpt><trkpt lat="42.5190361" lon="14.1471101"><ele>3.0</ele><time>2026-05-03T12:31:41.447Z</time></trkpt><trkpt lat="42.5190949" lon="14.1471902"><ele>3.0</ele><time>2026-05-03T12:31:42.452Z</time></trkpt><trkpt lat="42.5191715" lon="14.1472434"><ele>3.0</ele><time>2026-05-03T12:31:43.444Z</time></trkpt><trkpt lat="42.5192583" lon="14.1472871"><ele>3.0</ele><time>2026-05-03T12:31:44.447Z</time></trkpt><trkpt lat="42.5193563" lon="14.1473364"><ele>3.0</ele><time>2026-05-03T12:31:45.446Z</time></trkpt><trkpt lat="42.5194508" lon="14.1473821"><ele>3.0</ele><time>2026-05-03T12:31:46.45Z</time></trkpt><trkpt lat="42.5195481" lon="14.1474379"><ele>3.0</ele><time>2026-05-03T12:31:47.445Z</time></trkpt><trkpt lat="42.5196311" lon="14.1475385"><ele>3.0</ele><time>2026-05-03T12:31:48.455Z</time></trkpt><trkpt lat="42.5197136" lon="14.1476556"><ele>3.0</ele><time>2026-05-03T12:31:49.455Z</time></trkpt><trkpt lat="42.5197878" lon="14.1477947"><ele>2.75</ele><time>2026-05-03T12:31:50.454Z</time></trkpt><trkpt lat="42.5198633" lon="14.1479335"><ele>2.5</ele><time>2026-05-03T12:31:51.456Z</time></trkpt><trkpt lat="42.5199345" lon="14.1480871"><ele>2.25</ele><time>2026-05-03T12:31:52.454Z</time></trkpt><trkpt lat="42.5199996" lon="14.1482429"><ele>2.0</ele><time>2026-05-03T12:31:53.457Z</time></trkpt><trkpt lat="42.520059" lon="14.148414"><ele>2.0</ele><time>2026-05-03T12:31:54.457Z</time></trkpt><trkpt lat="42.5201171" lon="14.1485842"><ele>2.0</ele><time>2026-05-03T12:31:55.454Z</time></trkpt><trkpt lat="42.5201719" lon="14.1487532"><ele>2.0</ele><time>2026-05-03T12:31:56.46Z</time></trkpt><trkpt lat="42.5202274" lon="14.1489237"><ele>2.0</ele><time>2026-05-03T12:31:57.461Z</time></trkpt><trkpt lat="42.5202954" lon="14.1490711"><ele>2.0</ele><time>2026-05-03T12:31:58.463Z</time></trkpt><trkpt lat="42.5203539" lon="14.1492304"><ele>2.0</ele><time>2026-05-03T12:31:59.459Z</time></trkpt><trkpt lat="42.5204124" lon="14.1493732"><ele>2.0</ele><time>2026-05-03T12:32:00.462Z</time></trkpt><trkpt lat="42.5204467" lon="14.1495215"><ele>2.0</ele><time>2026-05-03T12:32:01.466Z</time></trkpt><trkpt lat="42.5204816" lon="14.1496592"><ele>2.0</ele><time>2026-05-03T12:32:02.458Z</time></trkpt><trkpt lat="42.5205258" lon="14.1497773"><ele>2.0</ele><time>2026-05-03T12:32:03.461Z</time></trkpt><trkpt lat="42.5205598" lon="14.1498693"><ele>2.0</ele><time>2026-05-03T12:32:04.457Z</time></trkpt><trkpt lat="42.5206" lon="14.1499816"><ele>2.0</ele><time>2026-05-03T12:32:05.457Z</time></trkpt><trkpt lat="42.5206427" lon="14.1500999"><ele>2.0</ele><time>2026-05-03T12:32:06.457Z</time></trkpt><trkpt lat="42.5206864" lon="14.1502224"><ele>2.0</ele><time>2026-05-03T12:32:07.456Z</time></trkpt><trkpt lat="42.5207307" lon="14.1503355"><ele>2.0</ele><time>2026-05-03T12:32:08.456Z</time></trkpt><trkpt lat="42.5207724" lon="14.1504548"><ele>2.0</ele><time>2026-05-03T12:32:09.453Z</time></trkpt><trkpt lat="42.5208109" lon="14.1505821"><ele>2.0</ele><time>2026-05-03T12:32:10.456Z</time></trkpt><trkpt lat="42.5208519" lon="14.1507248"><ele>2.0</ele><time>2026-05-03T12:32:11.456Z</time></trkpt><trkpt lat="42.5208917" lon="14.1508703"><ele>2.0</ele><time>2026-05-03T12:32:12.454Z</time></trkpt><trkpt lat="42.5209387" lon="14.1510204"><ele>2.0</ele><time>2026-05-03T12:32:13.455Z</time></trkpt><trkpt lat="42.5209921" lon="14.1511768"><ele>2.0</ele><time>2026-05-03T12:32:14.461Z</time></trkpt><trkpt lat="42.5210459" lon="14.1513274"><ele>2.0</ele><time>2026-05-03T12:32:15.457Z</time></trkpt><trkpt lat="42.521098" lon="14.1514766"><ele>2.0</ele><time>2026-05-03T12:32:16.458Z</time></trkpt><trkpt lat="42.5211516" lon="14.1516135"><ele>2.0</ele><time>2026-05-03T12:32:17.459Z</time></trkpt><trkpt lat="42.5212075" lon="14.1517457"><ele>2.0</ele><time>2026-05-03T12:32:18.453Z</time></trkpt><trkpt lat="42.5212634" lon="14.1518742"><ele>2.0</ele><time>2026-05-03T12:32:19.457Z</time></trkpt><trkpt lat="42.5213111" lon="14.1519974"><ele>2.0</ele><time>2026-05-03T12:32:20.454Z</time></trkpt><trkpt lat="42.5213535" lon="14.1521216"><ele>1.5</ele><time>2026-05-03T12:32:21.459Z</time></trkpt><trkpt lat="42.5214027" lon="14.1522471"><ele>1.0</ele><time>2026-05-03T12:32:22.448Z</time></trkpt><trkpt lat="42.5214612" lon="14.1523941"><ele>0.5</ele><time>2026-05-03T12:32:23.452Z</time></trkpt><trkpt lat="42.5215234" lon="14.1525687"><ele>0.0</ele><time>2026-05-03T12:32:24.446Z</time></trkpt><trkpt lat="42.5215879" lon="14.1527621"><ele>0.0</ele><time>2026-05-03T12:32:25.449Z</time></trkpt><trkpt lat="42.521641" lon="14.1529329"><ele>0.0</ele><time>2026-05-03T12:32:26.458Z</time></trkpt><trkpt lat="42.5216927" lon="14.1531039"><ele>0.0</ele><time>2026-05-03T12:32:27.454Z</time></trkpt><trkpt lat="42.5217474" lon="14.1532616"><ele>0.0</ele><time>2026-05-03T12:32:28.456Z</time></trkpt><trkpt lat="42.5217955" lon="14.1534046"><ele>0.0</ele><time>2026-05-03T12:32:29.451Z</time></trkpt><trkpt lat="42.5218339" lon="14.1535272"><ele>0.0</ele><time>2026-05-03T12:32:30.447Z</time></trkpt><trkpt lat="42.5218861" lon="14.1536201"><ele>0.0</ele><time>2026-05-03T12:32:31.44Z</time></trkpt><trkpt lat="42.521934" lon="14.153676"><ele>0.0</ele><time>2026-05-03T12:32:32.444Z</time></trkpt><trkpt lat="42.5219969" lon="14.1537177"><ele>0.0</ele><time>2026-05-03T12:32:33.447Z</time></trkpt><trkpt lat="42.522074" lon="14.1536771"><ele>0.0</ele><time>2026-05-03T12:32:34.441Z</time></trkpt><trkpt lat="42.5221517" lon="14.1536214"><ele>0.4</ele><time>2026-05-03T12:32:35.445Z</time></trkpt><trkpt lat="42.5222194" lon="14.1535406"><ele>0.8</ele><time>2026-05-03T12:32:36.443Z</time></trkpt><trkpt lat="42.5222736" lon="14.1534714"><ele>1.2000000000000002</ele><time>2026-05-03T12:32:37.445Z</time></trkpt><trkpt lat="42.5223167" lon="14.1534072"><ele>1.6</ele><time>2026-05-03T12:32:38.448Z</time></trkpt><trkpt lat="42.5223336" lon="14.1532566"><ele>2.0</ele><time>2026-05-03T12:32:40.448Z</time></trkpt><trkpt lat="42.5222769" lon="14.1531237"><ele>1.9999999999999998</ele><time>2026-05-03T12:32:42.453Z</time></trkpt><trkpt lat="42.5222307" lon="14.1530278"><ele>2.0</ele><time>2026-05-03T12:32:43.453Z</time></trkpt><trkpt lat="42.5221901" lon="14.1529345"><ele>2.0</ele><time>2026-05-03T12:32:44.457Z</time></trkpt><trkpt lat="42.522155" lon="14.1528531"><ele>2.0</ele><time>2026-05-03T12:32:45.458Z</time></trkpt><trkpt lat="42.5220896" lon="14.152726"><ele>1.9999999999999998</ele><time>2026-05-03T12:32:47.456Z</time></trkpt><trkpt lat="42.5220434" lon="14.1526347"><ele>2.0</ele><time>2026-05-03T12:32:49.455Z</time></trkpt><trkpt lat="42.5220019" lon="14.1525346"><ele>-1.0</ele><time>2026-05-03T12:32:52.449Z</time></trkpt><trkpt lat="42.521956" lon="14.152443"><ele>-1.0</ele><time>2026-05-03T12:32:55.452Z</time></trkpt><trkpt lat="42.5219128" lon="14.1523436"><ele>0.0</ele><time>2026-05-03T12:32:58.46Z</time></trkpt><trkpt lat="42.5219562" lon="14.1522799"><ele>0.0</ele><time>2026-05-03T12:33:02.458Z</time></trkpt></trkseg></trk></gpx>